<?xml version="1.0" encoding="UTF-8" standalone="no" ?>
<gpx xmlns="http://www.topografix.com/GPX/1/1" xmlns:xsi="http://www.w3.org/2001/XMLSchema-instance" xsi:schemaLocation="http://www.topografix.com/GPX/1/1 http://www.topografix.com/GPX/1/1/gpx.xsd" version="1.1" creator="VisuGPX - https://www.visugpx.com">
  <metadata>
    <name>Circuit urbain 42 km autour de Yerres - Choisy -Athis</name>
    <desc><![CDATA[Edition ultra urbaine des 42 km du club à la marche]]></desc>
  </metadata>
  <trk>
    <name><![CDATA[SityTrail - marathon RCY 2023]]></name>
    <desc><![CDATA[Edition ultra urbaine des 42 km du club à la marche]]></desc>
    <trkseg>
      <trkpt lat="48.71475" lon="2.47901">
        <ele>38</ele>
        <time>2023-01-24T06:57:24.006Z</time>
      </trkpt>
      <trkpt lat="48.71475" lon="2.47901">
        <ele>38</ele>
        <time>2023-01-24T06:57:24.006Z</time>
      </trkpt>
      <trkpt lat="48.71472" lon="2.479">
        <ele>38</ele>
        <time>2023-01-24T07:05:51.009Z</time>
      </trkpt>
      <trkpt lat="48.71471" lon="2.47901">
        <ele>38</ele>
        <time>2023-01-24T07:05:56.029Z</time>
      </trkpt>
      <trkpt lat="48.71469" lon="2.47899">
        <ele>38</ele>
        <time>2023-01-24T07:06:01.018Z</time>
      </trkpt>
      <trkpt lat="48.71467" lon="2.47897">
        <ele>38</ele>
        <time>2023-01-24T07:06:06.009Z</time>
      </trkpt>
      <trkpt lat="48.71467" lon="2.47894">
        <ele>38</ele>
        <time>2023-01-24T07:06:11.013Z</time>
      </trkpt>
      <trkpt lat="48.71468" lon="2.4789">
        <ele>38</ele>
        <time>2023-01-24T07:06:15.017Z</time>
      </trkpt>
      <trkpt lat="48.71469" lon="2.47889">
        <ele>38</ele>
        <time>2023-01-24T07:06:19.274Z</time>
      </trkpt>
      <trkpt lat="48.71469" lon="2.47882">
        <ele>38</ele>
        <time>2023-01-24T07:06:23.284Z</time>
      </trkpt>
      <trkpt lat="48.71466" lon="2.47874">
        <ele>38</ele>
        <time>2023-01-24T07:06:27.293Z</time>
      </trkpt>
      <trkpt lat="48.71462" lon="2.47862">
        <ele>38</ele>
        <time>2023-01-24T07:06:31.802Z</time>
      </trkpt>
      <trkpt lat="48.71463" lon="2.47854">
        <ele>38</ele>
        <time>2023-01-24T07:06:36.374Z</time>
      </trkpt>
      <trkpt lat="48.71468" lon="2.47848">
        <ele>38</ele>
        <time>2023-01-24T07:06:40.422Z</time>
      </trkpt>
      <trkpt lat="48.71472" lon="2.4784">
        <ele>38</ele>
        <time>2023-01-24T07:06:44.430Z</time>
      </trkpt>
      <trkpt lat="48.71474" lon="2.47831">
        <ele>38</ele>
        <time>2023-01-24T07:06:48.437Z</time>
      </trkpt>
      <trkpt lat="48.71476" lon="2.47821">
        <ele>38</ele>
        <time>2023-01-24T07:06:52.444Z</time>
      </trkpt>
      <trkpt lat="48.71479" lon="2.47813">
        <ele>38</ele>
        <time>2023-01-24T07:06:56.451Z</time>
      </trkpt>
      <trkpt lat="48.7148" lon="2.47802">
        <ele>38</ele>
        <time>2023-01-24T07:07:00.559Z</time>
      </trkpt>
      <trkpt lat="48.71481" lon="2.47793">
        <ele>38</ele>
        <time>2023-01-24T07:07:04.568Z</time>
      </trkpt>
      <trkpt lat="48.71484" lon="2.47784">
        <ele>37</ele>
        <time>2023-01-24T07:07:09.684Z</time>
      </trkpt>
      <trkpt lat="48.71488" lon="2.47777">
        <ele>37</ele>
        <time>2023-01-24T07:07:13.820Z</time>
      </trkpt>
      <trkpt lat="48.71491" lon="2.47774">
        <ele>37</ele>
        <time>2023-01-24T07:07:17.895Z</time>
      </trkpt>
      <trkpt lat="48.71491" lon="2.47767">
        <ele>37</ele>
        <time>2023-01-24T07:07:21.903Z</time>
      </trkpt>
      <trkpt lat="48.71492" lon="2.47757">
        <ele>37</ele>
        <time>2023-01-24T07:07:26.411Z</time>
      </trkpt>
      <trkpt lat="48.71492" lon="2.4775">
        <ele>37</ele>
        <time>2023-01-24T07:07:30.420Z</time>
      </trkpt>
      <trkpt lat="48.71495" lon="2.47741">
        <ele>37</ele>
        <time>2023-01-24T07:07:34.930Z</time>
      </trkpt>
      <trkpt lat="48.71495" lon="2.47732">
        <ele>37</ele>
        <time>2023-01-24T07:07:39.441Z</time>
      </trkpt>
      <trkpt lat="48.71494" lon="2.47725">
        <ele>37</ele>
        <time>2023-01-24T07:07:43.450Z</time>
      </trkpt>
      <trkpt lat="48.71494" lon="2.47718">
        <ele>37</ele>
        <time>2023-01-24T07:07:47.460Z</time>
      </trkpt>
      <trkpt lat="48.71494" lon="2.47712">
        <ele>37</ele>
        <time>2023-01-24T07:07:51.470Z</time>
      </trkpt>
      <trkpt lat="48.71495" lon="2.47702">
        <ele>37</ele>
        <time>2023-01-24T07:07:56.080Z</time>
      </trkpt>
      <trkpt lat="48.71495" lon="2.47693">
        <ele>37</ele>
        <time>2023-01-24T07:08:00.590Z</time>
      </trkpt>
      <trkpt lat="48.71495" lon="2.47682">
        <ele>37</ele>
        <time>2023-01-24T07:08:04.599Z</time>
      </trkpt>
      <trkpt lat="48.71495" lon="2.47672">
        <ele>38</ele>
        <time>2023-01-24T07:08:08.607Z</time>
      </trkpt>
      <trkpt lat="48.71495" lon="2.47663">
        <ele>38</ele>
        <time>2023-01-24T07:08:12.615Z</time>
      </trkpt>
      <trkpt lat="48.71493" lon="2.47655">
        <ele>38</ele>
        <time>2023-01-24T07:08:16.623Z</time>
      </trkpt>
      <trkpt lat="48.71492" lon="2.47645">
        <ele>37</ele>
        <time>2023-01-24T07:08:21.129Z</time>
      </trkpt>
      <trkpt lat="48.7149" lon="2.47637">
        <ele>37</ele>
        <time>2023-01-24T07:08:25.736Z</time>
      </trkpt>
      <trkpt lat="48.71489" lon="2.4763">
        <ele>37</ele>
        <time>2023-01-24T07:08:29.842Z</time>
      </trkpt>
      <trkpt lat="48.71488" lon="2.47618">
        <ele>37</ele>
        <time>2023-01-24T07:08:34.350Z</time>
      </trkpt>
      <trkpt lat="48.71487" lon="2.47608">
        <ele>37</ele>
        <time>2023-01-24T07:08:38.857Z</time>
      </trkpt>
      <trkpt lat="48.71483" lon="2.47601">
        <ele>37</ele>
        <time>2023-01-24T07:08:42.964Z</time>
      </trkpt>
      <trkpt lat="48.71482" lon="2.47592">
        <ele>37</ele>
        <time>2023-01-24T07:08:47.471Z</time>
      </trkpt>
      <trkpt lat="48.7148" lon="2.47586">
        <ele>37</ele>
        <time>2023-01-24T07:08:51.075Z</time>
      </trkpt>
      <trkpt lat="48.71478" lon="2.4758">
        <ele>37</ele>
        <time>2023-01-24T07:08:55.180Z</time>
      </trkpt>
      <trkpt lat="48.71476" lon="2.47571">
        <ele>37</ele>
        <time>2023-01-24T07:08:59.687Z</time>
      </trkpt>
      <trkpt lat="48.71474" lon="2.47564">
        <ele>38</ele>
        <time>2023-01-24T07:09:04.193Z</time>
      </trkpt>
      <trkpt lat="48.71471" lon="2.47557">
        <ele>38</ele>
        <time>2023-01-24T07:09:08.701Z</time>
      </trkpt>
      <trkpt lat="48.71467" lon="2.47551">
        <ele>38</ele>
        <time>2023-01-24T07:09:13.210Z</time>
      </trkpt>
      <trkpt lat="48.71465" lon="2.47548">
        <ele>38</ele>
        <time>2023-01-24T07:09:17.217Z</time>
      </trkpt>
      <trkpt lat="48.71464" lon="2.47539">
        <ele>38</ele>
        <time>2023-01-24T07:09:21.727Z</time>
      </trkpt>
      <trkpt lat="48.71456" lon="2.47522">
        <ele>37</ele>
        <time>2023-01-24T07:09:25.836Z</time>
      </trkpt>
      <trkpt lat="48.71451" lon="2.47515">
        <ele>37</ele>
        <time>2023-01-24T07:09:30.347Z</time>
      </trkpt>
      <trkpt lat="48.71447" lon="2.47504">
        <ele>36</ele>
        <time>2023-01-24T07:09:34.357Z</time>
      </trkpt>
      <trkpt lat="48.71443" lon="2.47495">
        <ele>36</ele>
        <time>2023-01-24T07:09:38.865Z</time>
      </trkpt>
      <trkpt lat="48.71439" lon="2.47487">
        <ele>36</ele>
        <time>2023-01-24T07:09:43.373Z</time>
      </trkpt>
      <trkpt lat="48.71433" lon="2.47478">
        <ele>36</ele>
        <time>2023-01-24T07:09:47.882Z</time>
      </trkpt>
      <trkpt lat="48.71429" lon="2.4747">
        <ele>35</ele>
        <time>2023-01-24T07:09:52.090Z</time>
      </trkpt>
      <trkpt lat="48.71424" lon="2.47462">
        <ele>35</ele>
        <time>2023-01-24T07:09:56.598Z</time>
      </trkpt>
      <trkpt lat="48.71419" lon="2.47452">
        <ele>35</ele>
        <time>2023-01-24T07:10:01.106Z</time>
      </trkpt>
      <trkpt lat="48.71415" lon="2.47443">
        <ele>35</ele>
        <time>2023-01-24T07:10:05.112Z</time>
      </trkpt>
      <trkpt lat="48.71411" lon="2.47436">
        <ele>35</ele>
        <time>2023-01-24T07:10:09.119Z</time>
      </trkpt>
      <trkpt lat="48.71407" lon="2.4743">
        <ele>36</ele>
        <time>2023-01-24T07:10:13.126Z</time>
      </trkpt>
      <trkpt lat="48.71403" lon="2.47425">
        <ele>37</ele>
        <time>2023-01-24T07:10:17.134Z</time>
      </trkpt>
      <trkpt lat="48.71398" lon="2.47421">
        <ele>37</ele>
        <time>2023-01-24T07:10:21.743Z</time>
      </trkpt>
      <trkpt lat="48.71393" lon="2.47416">
        <ele>37</ele>
        <time>2023-01-24T07:10:25.750Z</time>
      </trkpt>
      <trkpt lat="48.71388" lon="2.47411">
        <ele>37</ele>
        <time>2023-01-24T07:10:30.259Z</time>
      </trkpt>
      <trkpt lat="48.71383" lon="2.47405">
        <ele>37</ele>
        <time>2023-01-24T07:10:34.769Z</time>
      </trkpt>
      <trkpt lat="48.71378" lon="2.474">
        <ele>37</ele>
        <time>2023-01-24T07:10:38.777Z</time>
      </trkpt>
      <trkpt lat="48.71373" lon="2.47393">
        <ele>36</ele>
        <time>2023-01-24T07:10:43.286Z</time>
      </trkpt>
      <trkpt lat="48.71368" lon="2.47387">
        <ele>36</ele>
        <time>2023-01-24T07:10:47.295Z</time>
      </trkpt>
      <trkpt lat="48.71363" lon="2.47378">
        <ele>36</ele>
        <time>2023-01-24T07:10:51.814Z</time>
      </trkpt>
      <trkpt lat="48.71358" lon="2.47371">
        <ele>36</ele>
        <time>2023-01-24T07:10:55.820Z</time>
      </trkpt>
      <trkpt lat="48.71354" lon="2.47363">
        <ele>36</ele>
        <time>2023-01-24T07:11:00.329Z</time>
      </trkpt>
      <trkpt lat="48.71351" lon="2.47354">
        <ele>36</ele>
        <time>2023-01-24T07:11:04.835Z</time>
      </trkpt>
      <trkpt lat="48.71348" lon="2.47346">
        <ele>36</ele>
        <time>2023-01-24T07:11:08.840Z</time>
      </trkpt>
      <trkpt lat="48.71346" lon="2.47335">
        <ele>36</ele>
        <time>2023-01-24T07:11:13.346Z</time>
      </trkpt>
      <trkpt lat="48.71344" lon="2.47326">
        <ele>36</ele>
        <time>2023-01-24T07:11:17.354Z</time>
      </trkpt>
      <trkpt lat="48.71343" lon="2.47317">
        <ele>36</ele>
        <time>2023-01-24T07:11:21.882Z</time>
      </trkpt>
      <trkpt lat="48.71343" lon="2.47309">
        <ele>36</ele>
        <time>2023-01-24T07:11:26.026Z</time>
      </trkpt>
      <trkpt lat="48.71342" lon="2.47301">
        <ele>36</ele>
        <time>2023-01-24T07:11:30.073Z</time>
      </trkpt>
      <trkpt lat="48.71342" lon="2.47294">
        <ele>36</ele>
        <time>2023-01-24T07:11:34.080Z</time>
      </trkpt>
      <trkpt lat="48.71341" lon="2.47286">
        <ele>37</ele>
        <time>2023-01-24T07:11:38.585Z</time>
      </trkpt>
      <trkpt lat="48.7134" lon="2.47278">
        <ele>37</ele>
        <time>2023-01-24T07:11:42.591Z</time>
      </trkpt>
      <trkpt lat="48.71338" lon="2.47271">
        <ele>37</ele>
        <time>2023-01-24T07:11:47.097Z</time>
      </trkpt>
      <trkpt lat="48.71336" lon="2.47261">
        <ele>37</ele>
        <time>2023-01-24T07:11:51.605Z</time>
      </trkpt>
      <trkpt lat="48.71332" lon="2.47251">
        <ele>37</ele>
        <time>2023-01-24T07:11:55.612Z</time>
      </trkpt>
      <trkpt lat="48.71328" lon="2.47243">
        <ele>37</ele>
        <time>2023-01-24T07:11:59.718Z</time>
      </trkpt>
      <trkpt lat="48.71324" lon="2.47232">
        <ele>37</ele>
        <time>2023-01-24T07:12:04.326Z</time>
      </trkpt>
      <trkpt lat="48.71322" lon="2.47224">
        <ele>37</ele>
        <time>2023-01-24T07:12:08.931Z</time>
      </trkpt>
      <trkpt lat="48.71319" lon="2.47215">
        <ele>38</ele>
        <time>2023-01-24T07:12:13.437Z</time>
      </trkpt>
      <trkpt lat="48.71315" lon="2.47209">
        <ele>38</ele>
        <time>2023-01-24T07:12:17.442Z</time>
      </trkpt>
      <trkpt lat="48.71311" lon="2.47202">
        <ele>38</ele>
        <time>2023-01-24T07:12:22.049Z</time>
      </trkpt>
      <trkpt lat="48.71308" lon="2.47196">
        <ele>38</ele>
        <time>2023-01-24T07:12:26.554Z</time>
      </trkpt>
      <trkpt lat="48.71306" lon="2.47189">
        <ele>38</ele>
        <time>2023-01-24T07:12:31.081Z</time>
      </trkpt>
      <trkpt lat="48.71302" lon="2.4718">
        <ele>38</ele>
        <time>2023-01-24T07:12:35.317Z</time>
      </trkpt>
      <trkpt lat="48.71297" lon="2.47172">
        <ele>38</ele>
        <time>2023-01-24T07:12:39.469Z</time>
      </trkpt>
      <trkpt lat="48.71295" lon="2.47162">
        <ele>38</ele>
        <time>2023-01-24T07:12:43.673Z</time>
      </trkpt>
      <trkpt lat="48.71292" lon="2.47151">
        <ele>38</ele>
        <time>2023-01-24T07:12:48.178Z</time>
      </trkpt>
      <trkpt lat="48.7129" lon="2.4714">
        <ele>35</ele>
        <time>2023-01-24T07:12:52.684Z</time>
      </trkpt>
      <trkpt lat="48.7129" lon="2.47131">
        <ele>35</ele>
        <time>2023-01-24T07:12:56.787Z</time>
      </trkpt>
      <trkpt lat="48.71288" lon="2.47122">
        <ele>36</ele>
        <time>2023-01-24T07:13:00.792Z</time>
      </trkpt>
      <trkpt lat="48.71285" lon="2.47112">
        <ele>36</ele>
        <time>2023-01-24T07:13:05.299Z</time>
      </trkpt>
      <trkpt lat="48.71282" lon="2.47103">
        <ele>36</ele>
        <time>2023-01-24T07:13:09.401Z</time>
      </trkpt>
      <trkpt lat="48.71279" lon="2.47095">
        <ele>37</ele>
        <time>2023-01-24T07:13:13.907Z</time>
      </trkpt>
      <trkpt lat="48.71277" lon="2.47084">
        <ele>37</ele>
        <time>2023-01-24T07:13:18.425Z</time>
      </trkpt>
      <trkpt lat="48.71274" lon="2.47075">
        <ele>37</ele>
        <time>2023-01-24T07:13:22.932Z</time>
      </trkpt>
      <trkpt lat="48.71273" lon="2.47067">
        <ele>37</ele>
        <time>2023-01-24T07:13:26.938Z</time>
      </trkpt>
      <trkpt lat="48.7127" lon="2.47057">
        <ele>37</ele>
        <time>2023-01-24T07:13:31.447Z</time>
      </trkpt>
      <trkpt lat="48.71268" lon="2.47048">
        <ele>37</ele>
        <time>2023-01-24T07:13:35.455Z</time>
      </trkpt>
      <trkpt lat="48.71263" lon="2.47039">
        <ele>36</ele>
        <time>2023-01-24T07:13:40.031Z</time>
      </trkpt>
      <trkpt lat="48.71258" lon="2.47031">
        <ele>36</ele>
        <time>2023-01-24T07:13:44.067Z</time>
      </trkpt>
      <trkpt lat="48.71254" lon="2.47023">
        <ele>36</ele>
        <time>2023-01-24T07:13:48.575Z</time>
      </trkpt>
      <trkpt lat="48.7125" lon="2.47015">
        <ele>36</ele>
        <time>2023-01-24T07:13:52.683Z</time>
      </trkpt>
      <trkpt lat="48.71246" lon="2.47005">
        <ele>36</ele>
        <time>2023-01-24T07:13:57.189Z</time>
      </trkpt>
      <trkpt lat="48.71243" lon="2.46996">
        <ele>36</ele>
        <time>2023-01-24T07:14:01.762Z</time>
      </trkpt>
      <trkpt lat="48.7124" lon="2.46986">
        <ele>36</ele>
        <time>2023-01-24T07:14:05.804Z</time>
      </trkpt>
      <trkpt lat="48.71237" lon="2.46978">
        <ele>36</ele>
        <time>2023-01-24T07:14:09.813Z</time>
      </trkpt>
      <trkpt lat="48.71234" lon="2.46971">
        <ele>35</ele>
        <time>2023-01-24T07:14:13.820Z</time>
      </trkpt>
      <trkpt lat="48.71231" lon="2.46963">
        <ele>35</ele>
        <time>2023-01-24T07:14:18.326Z</time>
      </trkpt>
      <trkpt lat="48.71228" lon="2.46955">
        <ele>36</ele>
        <time>2023-01-24T07:14:22.434Z</time>
      </trkpt>
      <trkpt lat="48.71224" lon="2.4695">
        <ele>36</ele>
        <time>2023-01-24T07:14:26.975Z</time>
      </trkpt>
      <trkpt lat="48.7122" lon="2.46946">
        <ele>36</ele>
        <time>2023-01-24T07:14:30.650Z</time>
      </trkpt>
      <trkpt lat="48.71215" lon="2.4694">
        <ele>36</ele>
        <time>2023-01-24T07:14:35.159Z</time>
      </trkpt>
      <trkpt lat="48.71211" lon="2.46934">
        <ele>36</ele>
        <time>2023-01-24T07:14:39.165Z</time>
      </trkpt>
      <trkpt lat="48.71205" lon="2.46928">
        <ele>35</ele>
        <time>2023-01-24T07:14:43.272Z</time>
      </trkpt>
      <trkpt lat="48.712" lon="2.46923">
        <ele>35</ele>
        <time>2023-01-24T07:14:47.778Z</time>
      </trkpt>
      <trkpt lat="48.71195" lon="2.46916">
        <ele>35</ele>
        <time>2023-01-24T07:14:52.419Z</time>
      </trkpt>
      <trkpt lat="48.71194" lon="2.46908">
        <ele>35</ele>
        <time>2023-01-24T07:14:56.638Z</time>
      </trkpt>
      <trkpt lat="48.71196" lon="2.46899">
        <ele>34</ele>
        <time>2023-01-24T07:15:00.701Z</time>
      </trkpt>
      <trkpt lat="48.71196" lon="2.46891">
        <ele>34</ele>
        <time>2023-01-24T07:15:04.707Z</time>
      </trkpt>
      <trkpt lat="48.712" lon="2.46881">
        <ele>34</ele>
        <time>2023-01-24T07:15:09.312Z</time>
      </trkpt>
      <trkpt lat="48.712" lon="2.4687">
        <ele>34</ele>
        <time>2023-01-24T07:15:13.818Z</time>
      </trkpt>
      <trkpt lat="48.71195" lon="2.4686">
        <ele>34</ele>
        <time>2023-01-24T07:15:18.325Z</time>
      </trkpt>
      <trkpt lat="48.71189" lon="2.46855">
        <ele>34</ele>
        <time>2023-01-24T07:15:22.833Z</time>
      </trkpt>
      <trkpt lat="48.71184" lon="2.46852">
        <ele>34</ele>
        <time>2023-01-24T07:15:26.838Z</time>
      </trkpt>
      <trkpt lat="48.71178" lon="2.46849">
        <ele>33</ele>
        <time>2023-01-24T07:15:31.345Z</time>
      </trkpt>
      <trkpt lat="48.71172" lon="2.46846">
        <ele>33</ele>
        <time>2023-01-24T07:15:35.850Z</time>
      </trkpt>
      <trkpt lat="48.71166" lon="2.46842">
        <ele>33</ele>
        <time>2023-01-24T07:15:40.356Z</time>
      </trkpt>
      <trkpt lat="48.71161" lon="2.46839">
        <ele>33</ele>
        <time>2023-01-24T07:15:44.360Z</time>
      </trkpt>
      <trkpt lat="48.71156" lon="2.46834">
        <ele>33</ele>
        <time>2023-01-24T07:15:48.967Z</time>
      </trkpt>
      <trkpt lat="48.71152" lon="2.46831">
        <ele>31</ele>
        <time>2023-01-24T07:15:52.971Z</time>
      </trkpt>
      <trkpt lat="48.71148" lon="2.46827">
        <ele>31</ele>
        <time>2023-01-24T07:15:57.176Z</time>
      </trkpt>
      <trkpt lat="48.71143" lon="2.46823">
        <ele>31</ele>
        <time>2023-01-24T07:16:01.182Z</time>
      </trkpt>
      <trkpt lat="48.71139" lon="2.46818">
        <ele>32</ele>
        <time>2023-01-24T07:16:05.688Z</time>
      </trkpt>
      <trkpt lat="48.71135" lon="2.46809">
        <ele>32</ele>
        <time>2023-01-24T07:16:09.694Z</time>
      </trkpt>
      <trkpt lat="48.71132" lon="2.46799">
        <ele>32</ele>
        <time>2023-01-24T07:16:14.302Z</time>
      </trkpt>
      <trkpt lat="48.71128" lon="2.4679">
        <ele>32</ele>
        <time>2023-01-24T07:16:18.306Z</time>
      </trkpt>
      <trkpt lat="48.71126" lon="2.46781">
        <ele>32</ele>
        <time>2023-01-24T07:16:22.810Z</time>
      </trkpt>
      <trkpt lat="48.71124" lon="2.46773">
        <ele>31</ele>
        <time>2023-01-24T07:16:26.813Z</time>
      </trkpt>
      <trkpt lat="48.71122" lon="2.46764">
        <ele>32</ele>
        <time>2023-01-24T07:16:31.317Z</time>
      </trkpt>
      <trkpt lat="48.71121" lon="2.46757">
        <ele>32</ele>
        <time>2023-01-24T07:16:35.833Z</time>
      </trkpt>
      <trkpt lat="48.71119" lon="2.46749">
        <ele>32</ele>
        <time>2023-01-24T07:16:40.126Z</time>
      </trkpt>
      <trkpt lat="48.71118" lon="2.46742">
        <ele>32</ele>
        <time>2023-01-24T07:16:44.132Z</time>
      </trkpt>
      <trkpt lat="48.71117" lon="2.46735">
        <ele>33</ele>
        <time>2023-01-24T07:16:48.739Z</time>
      </trkpt>
      <trkpt lat="48.71117" lon="2.46726">
        <ele>33</ele>
        <time>2023-01-24T07:16:52.744Z</time>
      </trkpt>
      <trkpt lat="48.71116" lon="2.46719">
        <ele>33</ele>
        <time>2023-01-24T07:16:57.249Z</time>
      </trkpt>
      <trkpt lat="48.71116" lon="2.46709">
        <ele>33</ele>
        <time>2023-01-24T07:17:01.897Z</time>
      </trkpt>
      <trkpt lat="48.71116" lon="2.46699">
        <ele>33</ele>
        <time>2023-01-24T07:17:05.957Z</time>
      </trkpt>
      <trkpt lat="48.71115" lon="2.4669">
        <ele>33</ele>
        <time>2023-01-24T07:17:10.462Z</time>
      </trkpt>
      <trkpt lat="48.71114" lon="2.46681">
        <ele>33</ele>
        <time>2023-01-24T07:17:14.967Z</time>
      </trkpt>
      <trkpt lat="48.71113" lon="2.46672">
        <ele>33</ele>
        <time>2023-01-24T07:17:18.971Z</time>
      </trkpt>
      <trkpt lat="48.71112" lon="2.46662">
        <ele>33</ele>
        <time>2023-01-24T07:17:23.076Z</time>
      </trkpt>
      <trkpt lat="48.71111" lon="2.46652">
        <ele>32</ele>
        <time>2023-01-24T07:17:27.680Z</time>
      </trkpt>
      <trkpt lat="48.7111" lon="2.46644">
        <ele>32</ele>
        <time>2023-01-24T07:17:31.684Z</time>
      </trkpt>
      <trkpt lat="48.7111" lon="2.46635">
        <ele>32</ele>
        <time>2023-01-24T07:17:35.688Z</time>
      </trkpt>
      <trkpt lat="48.71109" lon="2.46624">
        <ele>32</ele>
        <time>2023-01-24T07:17:40.292Z</time>
      </trkpt>
      <trkpt lat="48.71108" lon="2.46614">
        <ele>32</ele>
        <time>2023-01-24T07:17:44.799Z</time>
      </trkpt>
      <trkpt lat="48.71107" lon="2.46599">
        <ele>32</ele>
        <time>2023-01-24T07:17:48.901Z</time>
      </trkpt>
      <trkpt lat="48.71107" lon="2.46589">
        <ele>33</ele>
        <time>2023-01-24T07:17:52.905Z</time>
      </trkpt>
      <trkpt lat="48.71106" lon="2.46579">
        <ele>33</ele>
        <time>2023-01-24T07:17:57.510Z</time>
      </trkpt>
      <trkpt lat="48.71105" lon="2.46571">
        <ele>33</ele>
        <time>2023-01-24T07:18:01.517Z</time>
      </trkpt>
      <trkpt lat="48.71104" lon="2.46565">
        <ele>33</ele>
        <time>2023-01-24T07:18:05.623Z</time>
      </trkpt>
      <trkpt lat="48.71104" lon="2.46559">
        <ele>33</ele>
        <time>2023-01-24T07:18:09.828Z</time>
      </trkpt>
      <trkpt lat="48.71103" lon="2.46551">
        <ele>33</ele>
        <time>2023-01-24T07:18:14.335Z</time>
      </trkpt>
      <trkpt lat="48.71103" lon="2.46542">
        <ele>33</ele>
        <time>2023-01-24T07:18:18.843Z</time>
      </trkpt>
      <trkpt lat="48.71103" lon="2.46532">
        <ele>34</ele>
        <time>2023-01-24T07:18:22.848Z</time>
      </trkpt>
      <trkpt lat="48.711" lon="2.46523">
        <ele>34</ele>
        <time>2023-01-24T07:18:27.354Z</time>
      </trkpt>
      <trkpt lat="48.71102" lon="2.46512">
        <ele>35</ele>
        <time>2023-01-24T07:18:31.460Z</time>
      </trkpt>
      <trkpt lat="48.71101" lon="2.46503">
        <ele>35</ele>
        <time>2023-01-24T07:18:35.561Z</time>
      </trkpt>
      <trkpt lat="48.71101" lon="2.46495">
        <ele>35</ele>
        <time>2023-01-24T07:18:40.379Z</time>
      </trkpt>
      <trkpt lat="48.71101" lon="2.46487">
        <ele>35</ele>
        <time>2023-01-24T07:18:44.470Z</time>
      </trkpt>
      <trkpt lat="48.71101" lon="2.4648">
        <ele>36</ele>
        <time>2023-01-24T07:18:48.772Z</time>
      </trkpt>
      <trkpt lat="48.71101" lon="2.46474">
        <ele>36</ele>
        <time>2023-01-24T07:18:53.814Z</time>
      </trkpt>
      <trkpt lat="48.71099" lon="2.46464">
        <ele>36</ele>
        <time>2023-01-24T07:18:58.320Z</time>
      </trkpt>
      <trkpt lat="48.71092" lon="2.46461">
        <ele>36</ele>
        <time>2023-01-24T07:19:02.825Z</time>
      </trkpt>
      <trkpt lat="48.71087" lon="2.4646">
        <ele>36</ele>
        <time>2023-01-24T07:19:06.829Z</time>
      </trkpt>
      <trkpt lat="48.71082" lon="2.46457">
        <ele>36</ele>
        <time>2023-01-24T07:19:10.833Z</time>
      </trkpt>
      <trkpt lat="48.71078" lon="2.46455">
        <ele>36</ele>
        <time>2023-01-24T07:19:15.337Z</time>
      </trkpt>
      <trkpt lat="48.71075" lon="2.46452">
        <ele>36</ele>
        <time>2023-01-24T07:19:19.341Z</time>
      </trkpt>
      <trkpt lat="48.71072" lon="2.46445">
        <ele>36</ele>
        <time>2023-01-24T07:19:23.845Z</time>
      </trkpt>
      <trkpt lat="48.71072" lon="2.46437">
        <ele>36</ele>
        <time>2023-01-24T07:19:27.850Z</time>
      </trkpt>
      <trkpt lat="48.71071" lon="2.46427">
        <ele>37</ele>
        <time>2023-01-24T07:19:32.456Z</time>
      </trkpt>
      <trkpt lat="48.71071" lon="2.46419">
        <ele>37</ele>
        <time>2023-01-24T07:19:36.461Z</time>
      </trkpt>
      <trkpt lat="48.71071" lon="2.46412">
        <ele>37</ele>
        <time>2023-01-24T07:19:40.465Z</time>
      </trkpt>
      <trkpt lat="48.7107" lon="2.46406">
        <ele>37</ele>
        <time>2023-01-24T07:19:44.470Z</time>
      </trkpt>
      <trkpt lat="48.71068" lon="2.46398">
        <ele>36</ele>
        <time>2023-01-24T07:19:48.474Z</time>
      </trkpt>
      <trkpt lat="48.71069" lon="2.46387">
        <ele>36</ele>
        <time>2023-01-24T07:19:52.477Z</time>
      </trkpt>
      <trkpt lat="48.71069" lon="2.46376">
        <ele>36</ele>
        <time>2023-01-24T07:19:56.980Z</time>
      </trkpt>
      <trkpt lat="48.71069" lon="2.46365">
        <ele>35</ele>
        <time>2023-01-24T07:20:01.485Z</time>
      </trkpt>
      <trkpt lat="48.71069" lon="2.46356">
        <ele>35</ele>
        <time>2023-01-24T07:20:05.989Z</time>
      </trkpt>
      <trkpt lat="48.71069" lon="2.46344">
        <ele>34</ele>
        <time>2023-01-24T07:20:10.493Z</time>
      </trkpt>
      <trkpt lat="48.71068" lon="2.46334">
        <ele>34</ele>
        <time>2023-01-24T07:20:14.596Z</time>
      </trkpt>
      <trkpt lat="48.71068" lon="2.46324">
        <ele>34</ele>
        <time>2023-01-24T07:20:19.101Z</time>
      </trkpt>
      <trkpt lat="48.71068" lon="2.46315">
        <ele>34</ele>
        <time>2023-01-24T07:20:23.103Z</time>
      </trkpt>
      <trkpt lat="48.71069" lon="2.46305">
        <ele>34</ele>
        <time>2023-01-24T07:20:27.106Z</time>
      </trkpt>
      <trkpt lat="48.71071" lon="2.46294">
        <ele>35</ele>
        <time>2023-01-24T07:20:31.610Z</time>
      </trkpt>
      <trkpt lat="48.71073" lon="2.46285">
        <ele>35</ele>
        <time>2023-01-24T07:20:36.114Z</time>
      </trkpt>
      <trkpt lat="48.71074" lon="2.46276">
        <ele>35</ele>
        <time>2023-01-24T07:20:40.116Z</time>
      </trkpt>
      <trkpt lat="48.71076" lon="2.46266">
        <ele>35</ele>
        <time>2023-01-24T07:20:44.698Z</time>
      </trkpt>
      <trkpt lat="48.71078" lon="2.46258">
        <ele>35</ele>
        <time>2023-01-24T07:20:48.700Z</time>
      </trkpt>
      <trkpt lat="48.7108" lon="2.46251">
        <ele>35</ele>
        <time>2023-01-24T07:20:53.203Z</time>
      </trkpt>
      <trkpt lat="48.71082" lon="2.46244">
        <ele>35</ele>
        <time>2023-01-24T07:20:57.765Z</time>
      </trkpt>
      <trkpt lat="48.71083" lon="2.46237">
        <ele>35</ele>
        <time>2023-01-24T07:21:01.822Z</time>
      </trkpt>
      <trkpt lat="48.71085" lon="2.46229">
        <ele>35</ele>
        <time>2023-01-24T07:21:05.509Z</time>
      </trkpt>
      <trkpt lat="48.71087" lon="2.4622">
        <ele>35</ele>
        <time>2023-01-24T07:21:10.013Z</time>
      </trkpt>
      <trkpt lat="48.71089" lon="2.46213">
        <ele>35</ele>
        <time>2023-01-24T07:21:14.114Z</time>
      </trkpt>
      <trkpt lat="48.71091" lon="2.46206">
        <ele>33</ele>
        <time>2023-01-24T07:21:18.117Z</time>
      </trkpt>
      <trkpt lat="48.71093" lon="2.46197">
        <ele>33</ele>
        <time>2023-01-24T07:21:22.638Z</time>
      </trkpt>
      <trkpt lat="48.71095" lon="2.46189">
        <ele>33</ele>
        <time>2023-01-24T07:21:26.719Z</time>
      </trkpt>
      <trkpt lat="48.71098" lon="2.46179">
        <ele>34</ele>
        <time>2023-01-24T07:21:31.301Z</time>
      </trkpt>
      <trkpt lat="48.71101" lon="2.46169">
        <ele>34</ele>
        <time>2023-01-24T07:21:35.303Z</time>
      </trkpt>
      <trkpt lat="48.71104" lon="2.46158">
        <ele>34</ele>
        <time>2023-01-24T07:21:39.806Z</time>
      </trkpt>
      <trkpt lat="48.71105" lon="2.4615">
        <ele>33</ele>
        <time>2023-01-24T07:21:43.827Z</time>
      </trkpt>
      <trkpt lat="48.71107" lon="2.46139">
        <ele>33</ele>
        <time>2023-01-24T07:21:48.331Z</time>
      </trkpt>
      <trkpt lat="48.71108" lon="2.46128">
        <ele>33</ele>
        <time>2023-01-24T07:21:52.835Z</time>
      </trkpt>
      <trkpt lat="48.7111" lon="2.4612">
        <ele>33</ele>
        <time>2023-01-24T07:21:56.838Z</time>
      </trkpt>
      <trkpt lat="48.71111" lon="2.46111">
        <ele>33</ele>
        <time>2023-01-24T07:22:01.343Z</time>
      </trkpt>
      <trkpt lat="48.71113" lon="2.461">
        <ele>33</ele>
        <time>2023-01-24T07:22:05.846Z</time>
      </trkpt>
      <trkpt lat="48.71115" lon="2.46091">
        <ele>33</ele>
        <time>2023-01-24T07:22:09.851Z</time>
      </trkpt>
      <trkpt lat="48.71117" lon="2.4608">
        <ele>33</ele>
        <time>2023-01-24T07:22:14.355Z</time>
      </trkpt>
      <trkpt lat="48.71119" lon="2.46072">
        <ele>33</ele>
        <time>2023-01-24T07:22:18.357Z</time>
      </trkpt>
      <trkpt lat="48.71121" lon="2.46064">
        <ele>34</ele>
        <time>2023-01-24T07:22:22.360Z</time>
      </trkpt>
      <trkpt lat="48.71123" lon="2.46056">
        <ele>34</ele>
        <time>2023-01-24T07:22:26.382Z</time>
      </trkpt>
      <trkpt lat="48.71125" lon="2.46047">
        <ele>34</ele>
        <time>2023-01-24T07:22:30.385Z</time>
      </trkpt>
      <trkpt lat="48.71127" lon="2.46038">
        <ele>34</ele>
        <time>2023-01-24T07:22:34.887Z</time>
      </trkpt>
      <trkpt lat="48.71129" lon="2.46029">
        <ele>34</ele>
        <time>2023-01-24T07:22:39.409Z</time>
      </trkpt>
      <trkpt lat="48.71131" lon="2.46021">
        <ele>34</ele>
        <time>2023-01-24T07:22:43.450Z</time>
      </trkpt>
      <trkpt lat="48.71133" lon="2.46013">
        <ele>34</ele>
        <time>2023-01-24T07:22:47.671Z</time>
      </trkpt>
      <trkpt lat="48.71134" lon="2.46005">
        <ele>34</ele>
        <time>2023-01-24T07:22:51.872Z</time>
      </trkpt>
      <trkpt lat="48.71135" lon="2.45994">
        <ele>34</ele>
        <time>2023-01-24T07:22:56.252Z</time>
      </trkpt>
      <trkpt lat="48.71136" lon="2.45984">
        <ele>33</ele>
        <time>2023-01-24T07:23:00.773Z</time>
      </trkpt>
      <trkpt lat="48.71137" lon="2.45973">
        <ele>33</ele>
        <time>2023-01-24T07:23:05.374Z</time>
      </trkpt>
      <trkpt lat="48.71138" lon="2.45965">
        <ele>33</ele>
        <time>2023-01-24T07:23:09.437Z</time>
      </trkpt>
      <trkpt lat="48.71139" lon="2.45958">
        <ele>33</ele>
        <time>2023-01-24T07:23:13.972Z</time>
      </trkpt>
      <trkpt lat="48.71141" lon="2.45947">
        <ele>33</ele>
        <time>2023-01-24T07:23:18.610Z</time>
      </trkpt>
      <trkpt lat="48.71143" lon="2.45937">
        <ele>33</ele>
        <time>2023-01-24T07:23:22.632Z</time>
      </trkpt>
      <trkpt lat="48.71147" lon="2.45927">
        <ele>34</ele>
        <time>2023-01-24T07:23:27.155Z</time>
      </trkpt>
      <trkpt lat="48.7115" lon="2.45917">
        <ele>34</ele>
        <time>2023-01-24T07:23:31.169Z</time>
      </trkpt>
      <trkpt lat="48.71152" lon="2.45908">
        <ele>34</ele>
        <time>2023-01-24T07:23:35.271Z</time>
      </trkpt>
      <trkpt lat="48.71155" lon="2.45898">
        <ele>35</ele>
        <time>2023-01-24T07:23:39.374Z</time>
      </trkpt>
      <trkpt lat="48.71157" lon="2.45889">
        <ele>35</ele>
        <time>2023-01-24T07:23:43.377Z</time>
      </trkpt>
      <trkpt lat="48.71159" lon="2.45881">
        <ele>35</ele>
        <time>2023-01-24T07:23:47.882Z</time>
      </trkpt>
      <trkpt lat="48.71163" lon="2.45873">
        <ele>35</ele>
        <time>2023-01-24T07:23:52.385Z</time>
      </trkpt>
      <trkpt lat="48.71163" lon="2.45864">
        <ele>35</ele>
        <time>2023-01-24T07:23:56.889Z</time>
      </trkpt>
      <trkpt lat="48.7116" lon="2.45858">
        <ele>35</ele>
        <time>2023-01-24T07:24:00.912Z</time>
      </trkpt>
      <trkpt lat="48.71154" lon="2.45853">
        <ele>35</ele>
        <time>2023-01-24T07:24:05.416Z</time>
      </trkpt>
      <trkpt lat="48.7115" lon="2.45847">
        <ele>34</ele>
        <time>2023-01-24T07:24:09.972Z</time>
      </trkpt>
      <trkpt lat="48.71147" lon="2.45841">
        <ele>34</ele>
        <time>2023-01-24T07:24:14.023Z</time>
      </trkpt>
      <trkpt lat="48.71143" lon="2.45836">
        <ele>34</ele>
        <time>2023-01-24T07:24:18.106Z</time>
      </trkpt>
      <trkpt lat="48.71139" lon="2.4583">
        <ele>34</ele>
        <time>2023-01-24T07:24:22.608Z</time>
      </trkpt>
      <trkpt lat="48.71134" lon="2.45823">
        <ele>34</ele>
        <time>2023-01-24T07:24:27.112Z</time>
      </trkpt>
      <trkpt lat="48.7113" lon="2.45817">
        <ele>35</ele>
        <time>2023-01-24T07:24:31.616Z</time>
      </trkpt>
      <trkpt lat="48.71125" lon="2.45811">
        <ele>34</ele>
        <time>2023-01-24T07:24:35.639Z</time>
      </trkpt>
      <trkpt lat="48.7112" lon="2.45805">
        <ele>34</ele>
        <time>2023-01-24T07:24:40.142Z</time>
      </trkpt>
      <trkpt lat="48.71116" lon="2.45801">
        <ele>34</ele>
        <time>2023-01-24T07:24:44.146Z</time>
      </trkpt>
      <trkpt lat="48.71111" lon="2.45794">
        <ele>34</ele>
        <time>2023-01-24T07:24:48.649Z</time>
      </trkpt>
      <trkpt lat="48.7111" lon="2.45784">
        <ele>36</ele>
        <time>2023-01-24T07:24:53.152Z</time>
      </trkpt>
      <trkpt lat="48.71112" lon="2.45775">
        <ele>36</ele>
        <time>2023-01-24T07:24:57.156Z</time>
      </trkpt>
      <trkpt lat="48.71114" lon="2.45766">
        <ele>36</ele>
        <time>2023-01-24T07:25:01.159Z</time>
      </trkpt>
      <trkpt lat="48.71117" lon="2.45758">
        <ele>38</ele>
        <time>2023-01-24T07:25:05.663Z</time>
      </trkpt>
      <trkpt lat="48.71119" lon="2.45752">
        <ele>38</ele>
        <time>2023-01-24T07:25:10.167Z</time>
      </trkpt>
      <trkpt lat="48.71118" lon="2.45745">
        <ele>38</ele>
        <time>2023-01-24T07:25:14.208Z</time>
      </trkpt>
      <trkpt lat="48.71117" lon="2.45738">
        <ele>38</ele>
        <time>2023-01-24T07:25:18.870Z</time>
      </trkpt>
      <trkpt lat="48.71116" lon="2.45733">
        <ele>39</ele>
        <time>2023-01-24T07:25:23.373Z</time>
      </trkpt>
      <trkpt lat="48.71118" lon="2.45727">
        <ele>39</ele>
        <time>2023-01-24T07:25:27.595Z</time>
      </trkpt>
      <trkpt lat="48.71122" lon="2.45723">
        <ele>39</ele>
        <time>2023-01-24T07:25:31.597Z</time>
      </trkpt>
      <trkpt lat="48.71126" lon="2.45717">
        <ele>38</ele>
        <time>2023-01-24T07:25:35.799Z</time>
      </trkpt>
      <trkpt lat="48.7113" lon="2.45709">
        <ele>38</ele>
        <time>2023-01-24T07:25:40.821Z</time>
      </trkpt>
      <trkpt lat="48.71134" lon="2.45702">
        <ele>39</ele>
        <time>2023-01-24T07:25:45.383Z</time>
      </trkpt>
      <trkpt lat="48.71137" lon="2.45695">
        <ele>39</ele>
        <time>2023-01-24T07:25:50.065Z</time>
      </trkpt>
      <trkpt lat="48.71139" lon="2.45689">
        <ele>39</ele>
        <time>2023-01-24T07:25:54.226Z</time>
      </trkpt>
      <trkpt lat="48.71142" lon="2.45683">
        <ele>39</ele>
        <time>2023-01-24T07:25:58.446Z</time>
      </trkpt>
      <trkpt lat="48.71143" lon="2.45678">
        <ele>40</ele>
        <time>2023-01-24T07:26:02.468Z</time>
      </trkpt>
      <trkpt lat="48.71146" lon="2.45671">
        <ele>40</ele>
        <time>2023-01-24T07:26:06.530Z</time>
      </trkpt>
      <trkpt lat="48.7115" lon="2.45664">
        <ele>40</ele>
        <time>2023-01-24T07:26:10.613Z</time>
      </trkpt>
      <trkpt lat="48.71152" lon="2.45657">
        <ele>40</ele>
        <time>2023-01-24T07:26:15.235Z</time>
      </trkpt>
      <trkpt lat="48.71157" lon="2.4565">
        <ele>42</ele>
        <time>2023-01-24T07:26:19.396Z</time>
      </trkpt>
      <trkpt lat="48.71161" lon="2.45643">
        <ele>42</ele>
        <time>2023-01-24T07:26:23.597Z</time>
      </trkpt>
      <trkpt lat="48.71165" lon="2.45635">
        <ele>42</ele>
        <time>2023-01-24T07:26:28.178Z</time>
      </trkpt>
      <trkpt lat="48.71169" lon="2.45627">
        <ele>42</ele>
        <time>2023-01-24T07:26:32.219Z</time>
      </trkpt>
      <trkpt lat="48.71173" lon="2.45619">
        <ele>43</ele>
        <time>2023-01-24T07:26:36.877Z</time>
      </trkpt>
      <trkpt lat="48.71177" lon="2.45612">
        <ele>43</ele>
        <time>2023-01-24T07:26:40.535Z</time>
      </trkpt>
      <trkpt lat="48.71181" lon="2.45604">
        <ele>43</ele>
        <time>2023-01-24T07:26:45.038Z</time>
      </trkpt>
      <trkpt lat="48.71185" lon="2.45598">
        <ele>43</ele>
        <time>2023-01-24T07:26:49.041Z</time>
      </trkpt>
      <trkpt lat="48.71189" lon="2.45591">
        <ele>43</ele>
        <time>2023-01-24T07:26:53.143Z</time>
      </trkpt>
      <trkpt lat="48.71193" lon="2.45585">
        <ele>43</ele>
        <time>2023-01-24T07:26:57.646Z</time>
      </trkpt>
      <trkpt lat="48.71195" lon="2.45577">
        <ele>43</ele>
        <time>2023-01-24T07:27:02.169Z</time>
      </trkpt>
      <trkpt lat="48.71195" lon="2.45569">
        <ele>42</ele>
        <time>2023-01-24T07:27:06.172Z</time>
      </trkpt>
      <trkpt lat="48.71193" lon="2.45561">
        <ele>42</ele>
        <time>2023-01-24T07:27:10.253Z</time>
      </trkpt>
      <trkpt lat="48.71187" lon="2.45555">
        <ele>42</ele>
        <time>2023-01-24T07:27:14.755Z</time>
      </trkpt>
      <trkpt lat="48.71181" lon="2.45549">
        <ele>42</ele>
        <time>2023-01-24T07:27:19.358Z</time>
      </trkpt>
      <trkpt lat="48.71176" lon="2.45542">
        <ele>45</ele>
        <time>2023-01-24T07:27:23.901Z</time>
      </trkpt>
      <trkpt lat="48.7117" lon="2.45535">
        <ele>44</ele>
        <time>2023-01-24T07:27:28.405Z</time>
      </trkpt>
      <trkpt lat="48.71164" lon="2.4553">
        <ele>44</ele>
        <time>2023-01-24T07:27:32.547Z</time>
      </trkpt>
      <trkpt lat="48.71157" lon="2.45527">
        <ele>44</ele>
        <time>2023-01-24T07:27:37.066Z</time>
      </trkpt>
      <trkpt lat="48.71151" lon="2.45523">
        <ele>49</ele>
        <time>2023-01-24T07:27:41.230Z</time>
      </trkpt>
      <trkpt lat="48.71147" lon="2.45517">
        <ele>49</ele>
        <time>2023-01-24T07:27:45.312Z</time>
      </trkpt>
      <trkpt lat="48.71149" lon="2.4551">
        <ele>49</ele>
        <time>2023-01-24T07:27:49.472Z</time>
      </trkpt>
      <trkpt lat="48.71152" lon="2.45503">
        <ele>49</ele>
        <time>2023-01-24T07:27:53.451Z</time>
      </trkpt>
      <trkpt lat="48.71155" lon="2.45494">
        <ele>44</ele>
        <time>2023-01-24T07:27:57.751Z</time>
      </trkpt>
      <trkpt lat="48.71159" lon="2.45486">
        <ele>45</ele>
        <time>2023-01-24T07:28:02.131Z</time>
      </trkpt>
      <trkpt lat="48.71162" lon="2.45478">
        <ele>45</ele>
        <time>2023-01-24T07:28:06.212Z</time>
      </trkpt>
      <trkpt lat="48.71165" lon="2.4547">
        <ele>45</ele>
        <time>2023-01-24T07:28:10.234Z</time>
      </trkpt>
      <trkpt lat="48.71169" lon="2.45461">
        <ele>45</ele>
        <time>2023-01-24T07:28:15.054Z</time>
      </trkpt>
      <trkpt lat="48.71173" lon="2.45452">
        <ele>47</ele>
        <time>2023-01-24T07:28:19.278Z</time>
      </trkpt>
      <trkpt lat="48.71177" lon="2.45442">
        <ele>47</ele>
        <time>2023-01-24T07:28:23.618Z</time>
      </trkpt>
      <trkpt lat="48.7118" lon="2.45433">
        <ele>47</ele>
        <time>2023-01-24T07:28:27.958Z</time>
      </trkpt>
      <trkpt lat="48.71183" lon="2.45423">
        <ele>47</ele>
        <time>2023-01-24T07:28:32.079Z</time>
      </trkpt>
      <trkpt lat="48.71187" lon="2.45413">
        <ele>47</ele>
        <time>2023-01-24T07:28:36.722Z</time>
      </trkpt>
      <trkpt lat="48.71191" lon="2.45403">
        <ele>47</ele>
        <time>2023-01-24T07:28:41.225Z</time>
      </trkpt>
      <trkpt lat="48.71195" lon="2.45394">
        <ele>47</ele>
        <time>2023-01-24T07:28:45.446Z</time>
      </trkpt>
      <trkpt lat="48.71199" lon="2.45385">
        <ele>47</ele>
        <time>2023-01-24T07:28:49.948Z</time>
      </trkpt>
      <trkpt lat="48.71203" lon="2.45377">
        <ele>47</ele>
        <time>2023-01-24T07:28:53.951Z</time>
      </trkpt>
      <trkpt lat="48.71208" lon="2.45368">
        <ele>47</ele>
        <time>2023-01-24T07:28:58.556Z</time>
      </trkpt>
      <trkpt lat="48.71212" lon="2.4536">
        <ele>44</ele>
        <time>2023-01-24T07:29:02.717Z</time>
      </trkpt>
      <trkpt lat="48.71215" lon="2.45351">
        <ele>44</ele>
        <time>2023-01-24T07:29:06.778Z</time>
      </trkpt>
      <trkpt lat="48.7122" lon="2.4534">
        <ele>45</ele>
        <time>2023-01-24T07:29:11.314Z</time>
      </trkpt>
      <trkpt lat="48.71223" lon="2.4533">
        <ele>45</ele>
        <time>2023-01-24T07:29:15.829Z</time>
      </trkpt>
      <trkpt lat="48.71224" lon="2.45316">
        <ele>46</ele>
        <time>2023-01-24T07:29:20.855Z</time>
      </trkpt>
      <trkpt lat="48.71227" lon="2.45305">
        <ele>46</ele>
        <time>2023-01-24T07:29:25.381Z</time>
      </trkpt>
      <trkpt lat="48.7123" lon="2.45295">
        <ele>46</ele>
        <time>2023-01-24T07:29:29.904Z</time>
      </trkpt>
      <trkpt lat="48.71235" lon="2.45284">
        <ele>46</ele>
        <time>2023-01-24T07:29:33.920Z</time>
      </trkpt>
      <trkpt lat="48.7124" lon="2.45274">
        <ele>43</ele>
        <time>2023-01-24T07:29:38.434Z</time>
      </trkpt>
      <trkpt lat="48.71245" lon="2.45265">
        <ele>43</ele>
        <time>2023-01-24T07:29:42.946Z</time>
      </trkpt>
      <trkpt lat="48.7125" lon="2.45256">
        <ele>43</ele>
        <time>2023-01-24T07:29:46.958Z</time>
      </trkpt>
      <trkpt lat="48.71255" lon="2.45248">
        <ele>43</ele>
        <time>2023-01-24T07:29:50.969Z</time>
      </trkpt>
      <trkpt lat="48.71259" lon="2.45241">
        <ele>43</ele>
        <time>2023-01-24T07:29:55.479Z</time>
      </trkpt>
      <trkpt lat="48.71261" lon="2.45234">
        <ele>44</ele>
        <time>2023-01-24T07:29:59.489Z</time>
      </trkpt>
      <trkpt lat="48.71263" lon="2.45227">
        <ele>44</ele>
        <time>2023-01-24T07:30:03.999Z</time>
      </trkpt>
      <trkpt lat="48.71265" lon="2.45219">
        <ele>42</ele>
        <time>2023-01-24T07:30:08.006Z</time>
      </trkpt>
      <trkpt lat="48.71271" lon="2.45208">
        <ele>43</ele>
        <time>2023-01-24T07:30:12.611Z</time>
      </trkpt>
      <trkpt lat="48.71276" lon="2.45199">
        <ele>43</ele>
        <time>2023-01-24T07:30:17.116Z</time>
      </trkpt>
      <trkpt lat="48.71279" lon="2.45191">
        <ele>43</ele>
        <time>2023-01-24T07:30:21.622Z</time>
      </trkpt>
      <trkpt lat="48.71283" lon="2.45182">
        <ele>43</ele>
        <time>2023-01-24T07:30:25.628Z</time>
      </trkpt>
      <trkpt lat="48.71287" lon="2.45171">
        <ele>43</ele>
        <time>2023-01-24T07:30:30.637Z</time>
      </trkpt>
      <trkpt lat="48.71291" lon="2.45161">
        <ele>43</ele>
        <time>2023-01-24T07:30:34.643Z</time>
      </trkpt>
      <trkpt lat="48.71294" lon="2.45151">
        <ele>41</ele>
        <time>2023-01-24T07:30:38.650Z</time>
      </trkpt>
      <trkpt lat="48.71295" lon="2.45141">
        <ele>41</ele>
        <time>2023-01-24T07:30:43.155Z</time>
      </trkpt>
      <trkpt lat="48.71295" lon="2.45131">
        <ele>41</ele>
        <time>2023-01-24T07:30:47.659Z</time>
      </trkpt>
      <trkpt lat="48.71288" lon="2.45125">
        <ele>42</ele>
        <time>2023-01-24T07:30:52.663Z</time>
      </trkpt>
      <trkpt lat="48.71282" lon="2.4512">
        <ele>41</ele>
        <time>2023-01-24T07:30:57.305Z</time>
      </trkpt>
      <trkpt lat="48.71277" lon="2.45112">
        <ele>41</ele>
        <time>2023-01-24T07:31:01.525Z</time>
      </trkpt>
      <trkpt lat="48.71272" lon="2.45105">
        <ele>41</ele>
        <time>2023-01-24T07:31:05.907Z</time>
      </trkpt>
      <trkpt lat="48.71267" lon="2.45096">
        <ele>42</ele>
        <time>2023-01-24T07:31:11.070Z</time>
      </trkpt>
      <trkpt lat="48.71261" lon="2.45091">
        <ele>43</ele>
        <time>2023-01-24T07:31:15.511Z</time>
      </trkpt>
      <trkpt lat="48.71256" lon="2.45084">
        <ele>43</ele>
        <time>2023-01-24T07:31:20.232Z</time>
      </trkpt>
      <trkpt lat="48.71249" lon="2.45076">
        <ele>43</ele>
        <time>2023-01-24T07:31:25.060Z</time>
      </trkpt>
      <trkpt lat="48.71244" lon="2.45069">
        <ele>43</ele>
        <time>2023-01-24T07:31:29.045Z</time>
      </trkpt>
      <trkpt lat="48.71238" lon="2.45061">
        <ele>44</ele>
        <time>2023-01-24T07:31:33.934Z</time>
      </trkpt>
      <trkpt lat="48.71233" lon="2.45056">
        <ele>45</ele>
        <time>2023-01-24T07:31:37.893Z</time>
      </trkpt>
      <trkpt lat="48.71229" lon="2.4505">
        <ele>45</ele>
        <time>2023-01-24T07:31:41.813Z</time>
      </trkpt>
      <trkpt lat="48.71224" lon="2.45043">
        <ele>45</ele>
        <time>2023-01-24T07:31:46.251Z</time>
      </trkpt>
      <trkpt lat="48.7122" lon="2.45035">
        <ele>45</ele>
        <time>2023-01-24T07:31:50.591Z</time>
      </trkpt>
      <trkpt lat="48.71216" lon="2.45028">
        <ele>45</ele>
        <time>2023-01-24T07:31:55.114Z</time>
      </trkpt>
      <trkpt lat="48.71211" lon="2.45021">
        <ele>45</ele>
        <time>2023-01-24T07:31:59.898Z</time>
      </trkpt>
      <trkpt lat="48.71205" lon="2.45014">
        <ele>45</ele>
        <time>2023-01-24T07:32:04.019Z</time>
      </trkpt>
      <trkpt lat="48.71202" lon="2.45004">
        <ele>45</ele>
        <time>2023-01-24T07:32:08.341Z</time>
      </trkpt>
      <trkpt lat="48.71205" lon="2.44995">
        <ele>45</ele>
        <time>2023-01-24T07:32:12.399Z</time>
      </trkpt>
      <trkpt lat="48.71206" lon="2.44988">
        <ele>45</ele>
        <time>2023-01-24T07:32:16.239Z</time>
      </trkpt>
      <trkpt lat="48.71205" lon="2.44979">
        <ele>44</ele>
        <time>2023-01-24T07:32:20.679Z</time>
      </trkpt>
      <trkpt lat="48.71199" lon="2.44976">
        <ele>44</ele>
        <time>2023-01-24T07:32:25.563Z</time>
      </trkpt>
      <trkpt lat="48.71191" lon="2.44971">
        <ele>44</ele>
        <time>2023-01-24T07:32:29.961Z</time>
      </trkpt>
      <trkpt lat="48.71187" lon="2.44962">
        <ele>44</ele>
        <time>2023-01-24T07:32:33.972Z</time>
      </trkpt>
      <trkpt lat="48.71183" lon="2.44951">
        <ele>44</ele>
        <time>2023-01-24T07:32:38.341Z</time>
      </trkpt>
      <trkpt lat="48.71181" lon="2.44942">
        <ele>44</ele>
        <time>2023-01-24T07:32:42.364Z</time>
      </trkpt>
      <trkpt lat="48.71176" lon="2.44934">
        <ele>48</ele>
        <time>2023-01-24T07:32:46.644Z</time>
      </trkpt>
      <trkpt lat="48.71172" lon="2.44923">
        <ele>46</ele>
        <time>2023-01-24T07:32:51.302Z</time>
      </trkpt>
      <trkpt lat="48.7117" lon="2.44915">
        <ele>46</ele>
        <time>2023-01-24T07:32:55.862Z</time>
      </trkpt>
      <trkpt lat="48.71167" lon="2.44908">
        <ele>46</ele>
        <time>2023-01-24T07:33:00.442Z</time>
      </trkpt>
      <trkpt lat="48.71163" lon="2.44901">
        <ele>44</ele>
        <time>2023-01-24T07:33:04.543Z</time>
      </trkpt>
      <trkpt lat="48.71158" lon="2.44893">
        <ele>44</ele>
        <time>2023-01-24T07:33:08.804Z</time>
      </trkpt>
      <trkpt lat="48.71157" lon="2.44884">
        <ele>44</ele>
        <time>2023-01-24T07:33:13.065Z</time>
      </trkpt>
      <trkpt lat="48.71153" lon="2.44873">
        <ele>44</ele>
        <time>2023-01-24T07:33:17.505Z</time>
      </trkpt>
      <trkpt lat="48.7115" lon="2.44862">
        <ele>46</ele>
        <time>2023-01-24T07:33:21.607Z</time>
      </trkpt>
      <trkpt lat="48.71146" lon="2.44852">
        <ele>46</ele>
        <time>2023-01-24T07:33:26.191Z</time>
      </trkpt>
      <trkpt lat="48.71143" lon="2.44843">
        <ele>46</ele>
        <time>2023-01-24T07:33:30.331Z</time>
      </trkpt>
      <trkpt lat="48.71139" lon="2.44834">
        <ele>46</ele>
        <time>2023-01-24T07:33:34.413Z</time>
      </trkpt>
      <trkpt lat="48.71136" lon="2.44826">
        <ele>46</ele>
        <time>2023-01-24T07:33:39.044Z</time>
      </trkpt>
      <trkpt lat="48.71134" lon="2.4482">
        <ele>46</ele>
        <time>2023-01-24T07:33:43.137Z</time>
      </trkpt>
      <trkpt lat="48.71132" lon="2.44812">
        <ele>45</ele>
        <time>2023-01-24T07:33:47.538Z</time>
      </trkpt>
      <trkpt lat="48.71128" lon="2.44801">
        <ele>45</ele>
        <time>2023-01-24T07:33:51.699Z</time>
      </trkpt>
      <trkpt lat="48.71125" lon="2.44792">
        <ele>48</ele>
        <time>2023-01-24T07:33:56.842Z</time>
      </trkpt>
      <trkpt lat="48.71122" lon="2.44785">
        <ele>46</ele>
        <time>2023-01-24T07:34:01.159Z</time>
      </trkpt>
      <trkpt lat="48.71118" lon="2.44778">
        <ele>46</ele>
        <time>2023-01-24T07:34:05.421Z</time>
      </trkpt>
      <trkpt lat="48.71115" lon="2.44767">
        <ele>46</ele>
        <time>2023-01-24T07:34:09.482Z</time>
      </trkpt>
      <trkpt lat="48.71114" lon="2.44759">
        <ele>45</ele>
        <time>2023-01-24T07:34:13.663Z</time>
      </trkpt>
      <trkpt lat="48.71111" lon="2.44751">
        <ele>45</ele>
        <time>2023-01-24T07:34:18.024Z</time>
      </trkpt>
      <trkpt lat="48.71108" lon="2.44743">
        <ele>45</ele>
        <time>2023-01-24T07:34:22.317Z</time>
      </trkpt>
      <trkpt lat="48.71105" lon="2.44735">
        <ele>44</ele>
        <time>2023-01-24T07:34:26.486Z</time>
      </trkpt>
      <trkpt lat="48.71103" lon="2.44728">
        <ele>44</ele>
        <time>2023-01-24T07:34:30.972Z</time>
      </trkpt>
      <trkpt lat="48.71099" lon="2.44718">
        <ele>44</ele>
        <time>2023-01-24T07:34:35.345Z</time>
      </trkpt>
      <trkpt lat="48.71097" lon="2.44709">
        <ele>45</ele>
        <time>2023-01-24T07:34:39.726Z</time>
      </trkpt>
      <trkpt lat="48.71094" lon="2.44702">
        <ele>44</ele>
        <time>2023-01-24T07:34:44.207Z</time>
      </trkpt>
      <trkpt lat="48.71091" lon="2.44693">
        <ele>44</ele>
        <time>2023-01-24T07:34:48.264Z</time>
      </trkpt>
      <trkpt lat="48.71087" lon="2.44685">
        <ele>44</ele>
        <time>2023-01-24T07:34:52.763Z</time>
      </trkpt>
      <trkpt lat="48.71084" lon="2.44677">
        <ele>42</ele>
        <time>2023-01-24T07:34:57.241Z</time>
      </trkpt>
      <trkpt lat="48.71081" lon="2.44669">
        <ele>42</ele>
        <time>2023-01-24T07:35:01.719Z</time>
      </trkpt>
      <trkpt lat="48.71078" lon="2.44662">
        <ele>42</ele>
        <time>2023-01-24T07:35:06.236Z</time>
      </trkpt>
      <trkpt lat="48.71074" lon="2.44653">
        <ele>42</ele>
        <time>2023-01-24T07:35:10.774Z</time>
      </trkpt>
      <trkpt lat="48.71071" lon="2.44641">
        <ele>41</ele>
        <time>2023-01-24T07:35:15.392Z</time>
      </trkpt>
      <trkpt lat="48.71068" lon="2.44631">
        <ele>45</ele>
        <time>2023-01-24T07:35:19.872Z</time>
      </trkpt>
      <trkpt lat="48.71065" lon="2.44621">
        <ele>45</ele>
        <time>2023-01-24T07:35:24.513Z</time>
      </trkpt>
      <trkpt lat="48.71064" lon="2.44613">
        <ele>45</ele>
        <time>2023-01-24T07:35:28.538Z</time>
      </trkpt>
      <trkpt lat="48.7106" lon="2.44604">
        <ele>45</ele>
        <time>2023-01-24T07:35:33.044Z</time>
      </trkpt>
      <trkpt lat="48.71058" lon="2.44594">
        <ele>44</ele>
        <time>2023-01-24T07:35:37.048Z</time>
      </trkpt>
      <trkpt lat="48.71054" lon="2.44584">
        <ele>44</ele>
        <time>2023-01-24T07:35:41.552Z</time>
      </trkpt>
      <trkpt lat="48.71051" lon="2.44573">
        <ele>44</ele>
        <time>2023-01-24T07:35:45.557Z</time>
      </trkpt>
      <trkpt lat="48.71049" lon="2.44564">
        <ele>43</ele>
        <time>2023-01-24T07:35:50.062Z</time>
      </trkpt>
      <trkpt lat="48.71044" lon="2.44554">
        <ele>43</ele>
        <time>2023-01-24T07:35:54.566Z</time>
      </trkpt>
      <trkpt lat="48.7104" lon="2.44545">
        <ele>48</ele>
        <time>2023-01-24T07:35:58.572Z</time>
      </trkpt>
      <trkpt lat="48.71035" lon="2.44538">
        <ele>45</ele>
        <time>2023-01-24T07:36:02.576Z</time>
      </trkpt>
      <trkpt lat="48.71035" lon="2.44529">
        <ele>45</ele>
        <time>2023-01-24T07:36:06.679Z</time>
      </trkpt>
      <trkpt lat="48.71033" lon="2.44518">
        <ele>45</ele>
        <time>2023-01-24T07:36:11.182Z</time>
      </trkpt>
      <trkpt lat="48.71031" lon="2.44506">
        <ele>42</ele>
        <time>2023-01-24T07:36:15.685Z</time>
      </trkpt>
      <trkpt lat="48.71027" lon="2.44497">
        <ele>42</ele>
        <time>2023-01-24T07:36:20.708Z</time>
      </trkpt>
      <trkpt lat="48.71023" lon="2.4449">
        <ele>42</ele>
        <time>2023-01-24T07:36:24.789Z</time>
      </trkpt>
      <trkpt lat="48.71019" lon="2.44484">
        <ele>38</ele>
        <time>2023-01-24T07:36:28.791Z</time>
      </trkpt>
      <trkpt lat="48.71016" lon="2.44488">
        <ele>42</ele>
        <time>2023-01-24T07:36:33.294Z</time>
      </trkpt>
      <trkpt lat="48.71013" lon="2.44491">
        <ele>45</ele>
        <time>2023-01-24T07:36:37.396Z</time>
      </trkpt>
      <trkpt lat="48.7101" lon="2.44497">
        <ele>45</ele>
        <time>2023-01-24T07:36:41.497Z</time>
      </trkpt>
      <trkpt lat="48.71006" lon="2.44503">
        <ele>45</ele>
        <time>2023-01-24T07:36:46.600Z</time>
      </trkpt>
      <trkpt lat="48.70999" lon="2.44508">
        <ele>45</ele>
        <time>2023-01-24T07:36:51.603Z</time>
      </trkpt>
      <trkpt lat="48.70992" lon="2.44511">
        <ele>45</ele>
        <time>2023-01-24T07:36:55.644Z</time>
      </trkpt>
      <trkpt lat="48.70984" lon="2.44518">
        <ele>49</ele>
        <time>2023-01-24T07:37:00.208Z</time>
      </trkpt>
      <trkpt lat="48.70977" lon="2.44526">
        <ele>49</ele>
        <time>2023-01-24T07:37:04.210Z</time>
      </trkpt>
      <trkpt lat="48.7097" lon="2.44533">
        <ele>49</ele>
        <time>2023-01-24T07:37:08.752Z</time>
      </trkpt>
      <trkpt lat="48.70964" lon="2.4454">
        <ele>49</ele>
        <time>2023-01-24T07:37:13.856Z</time>
      </trkpt>
      <trkpt lat="48.70961" lon="2.44547">
        <ele>50</ele>
        <time>2023-01-24T07:37:17.859Z</time>
      </trkpt>
      <trkpt lat="48.70955" lon="2.44553">
        <ele>51</ele>
        <time>2023-01-24T07:37:22.460Z</time>
      </trkpt>
      <trkpt lat="48.7095" lon="2.44559">
        <ele>51</ele>
        <time>2023-01-24T07:37:26.963Z</time>
      </trkpt>
      <trkpt lat="48.70945" lon="2.44568">
        <ele>51</ele>
        <time>2023-01-24T07:37:31.566Z</time>
      </trkpt>
      <trkpt lat="48.70941" lon="2.44576">
        <ele>53</ele>
        <time>2023-01-24T07:37:36.347Z</time>
      </trkpt>
      <trkpt lat="48.70935" lon="2.44581">
        <ele>53</ele>
        <time>2023-01-24T07:37:40.609Z</time>
      </trkpt>
      <trkpt lat="48.7093" lon="2.44587">
        <ele>53</ele>
        <time>2023-01-24T07:37:45.111Z</time>
      </trkpt>
      <trkpt lat="48.70926" lon="2.44592">
        <ele>53</ele>
        <time>2023-01-24T07:37:49.253Z</time>
      </trkpt>
      <trkpt lat="48.70922" lon="2.44598">
        <ele>55</ele>
        <time>2023-01-24T07:37:53.255Z</time>
      </trkpt>
      <trkpt lat="48.70917" lon="2.44602">
        <ele>55</ele>
        <time>2023-01-24T07:37:57.676Z</time>
      </trkpt>
      <trkpt lat="48.70911" lon="2.44606">
        <ele>55</ele>
        <time>2023-01-24T07:38:02.215Z</time>
      </trkpt>
      <trkpt lat="48.70907" lon="2.44611">
        <ele>55</ele>
        <time>2023-01-24T07:38:06.152Z</time>
      </trkpt>
      <trkpt lat="48.70902" lon="2.44619">
        <ele>55</ele>
        <time>2023-01-24T07:38:10.572Z</time>
      </trkpt>
      <trkpt lat="48.70898" lon="2.44624">
        <ele>55</ele>
        <time>2023-01-24T07:38:14.852Z</time>
      </trkpt>
      <trkpt lat="48.70893" lon="2.44627">
        <ele>56</ele>
        <time>2023-01-24T07:38:19.592Z</time>
      </trkpt>
      <trkpt lat="48.70887" lon="2.44631">
        <ele>56</ele>
        <time>2023-01-24T07:38:23.972Z</time>
      </trkpt>
      <trkpt lat="48.70881" lon="2.44637">
        <ele>56</ele>
        <time>2023-01-24T07:38:28.193Z</time>
      </trkpt>
      <trkpt lat="48.70877" lon="2.44638">
        <ele>56</ele>
        <time>2023-01-24T07:38:32.831Z</time>
      </trkpt>
      <trkpt lat="48.70872" lon="2.44649">
        <ele>55</ele>
        <time>2023-01-24T07:38:36.809Z</time>
      </trkpt>
      <trkpt lat="48.70868" lon="2.44656">
        <ele>56</ele>
        <time>2023-01-24T07:38:40.768Z</time>
      </trkpt>
      <trkpt lat="48.70863" lon="2.44662">
        <ele>56</ele>
        <time>2023-01-24T07:38:44.972Z</time>
      </trkpt>
      <trkpt lat="48.70859" lon="2.44669">
        <ele>56</ele>
        <time>2023-01-24T07:38:49.369Z</time>
      </trkpt>
      <trkpt lat="48.70855" lon="2.44674">
        <ele>56</ele>
        <time>2023-01-24T07:38:53.208Z</time>
      </trkpt>
      <trkpt lat="48.70849" lon="2.4468">
        <ele>56</ele>
        <time>2023-01-24T07:38:57.588Z</time>
      </trkpt>
      <trkpt lat="48.70845" lon="2.44686">
        <ele>60</ele>
        <time>2023-01-24T07:39:01.665Z</time>
      </trkpt>
      <trkpt lat="48.70841" lon="2.44693">
        <ele>60</ele>
        <time>2023-01-24T07:39:06.124Z</time>
      </trkpt>
      <trkpt lat="48.70836" lon="2.44698">
        <ele>60</ele>
        <time>2023-01-24T07:39:10.524Z</time>
      </trkpt>
      <trkpt lat="48.70831" lon="2.44703">
        <ele>60</ele>
        <time>2023-01-24T07:39:14.542Z</time>
      </trkpt>
      <trkpt lat="48.70828" lon="2.44709">
        <ele>61</ele>
        <time>2023-01-24T07:39:18.701Z</time>
      </trkpt>
      <trkpt lat="48.70823" lon="2.44716">
        <ele>61</ele>
        <time>2023-01-24T07:39:22.942Z</time>
      </trkpt>
      <trkpt lat="48.70819" lon="2.44723">
        <ele>62</ele>
        <time>2023-01-24T07:39:27.027Z</time>
      </trkpt>
      <trkpt lat="48.70814" lon="2.44729">
        <ele>62</ele>
        <time>2023-01-24T07:39:32.028Z</time>
      </trkpt>
      <trkpt lat="48.70807" lon="2.44734">
        <ele>62</ele>
        <time>2023-01-24T07:39:37.041Z</time>
      </trkpt>
      <trkpt lat="48.70803" lon="2.44739">
        <ele>63</ele>
        <time>2023-01-24T07:39:41.138Z</time>
      </trkpt>
      <trkpt lat="48.70799" lon="2.44743">
        <ele>63</ele>
        <time>2023-01-24T07:39:45.215Z</time>
      </trkpt>
      <trkpt lat="48.70795" lon="2.44747">
        <ele>63</ele>
        <time>2023-01-24T07:39:49.354Z</time>
      </trkpt>
      <trkpt lat="48.7079" lon="2.44753">
        <ele>64</ele>
        <time>2023-01-24T07:39:53.413Z</time>
      </trkpt>
      <trkpt lat="48.70785" lon="2.4476">
        <ele>64</ele>
        <time>2023-01-24T07:39:57.895Z</time>
      </trkpt>
      <trkpt lat="48.7078" lon="2.44766">
        <ele>66</ele>
        <time>2023-01-24T07:40:01.788Z</time>
      </trkpt>
      <trkpt lat="48.70776" lon="2.44771">
        <ele>66</ele>
        <time>2023-01-24T07:40:05.567Z</time>
      </trkpt>
      <trkpt lat="48.70772" lon="2.44776">
        <ele>66</ele>
        <time>2023-01-24T07:40:10.026Z</time>
      </trkpt>
      <trkpt lat="48.70769" lon="2.44776">
        <ele>66</ele>
        <time>2023-01-24T07:40:14.578Z</time>
      </trkpt>
      <trkpt lat="48.70766" lon="2.44772">
        <ele>66</ele>
        <time>2023-01-24T07:40:18.762Z</time>
      </trkpt>
      <trkpt lat="48.70761" lon="2.44766">
        <ele>67</ele>
        <time>2023-01-24T07:40:23.182Z</time>
      </trkpt>
      <trkpt lat="48.70755" lon="2.44759">
        <ele>65</ele>
        <time>2023-01-24T07:40:27.738Z</time>
      </trkpt>
      <trkpt lat="48.7075" lon="2.44751">
        <ele>65</ele>
        <time>2023-01-24T07:40:32.480Z</time>
      </trkpt>
      <trkpt lat="48.70748" lon="2.44742">
        <ele>65</ele>
        <time>2023-01-24T07:40:36.516Z</time>
      </trkpt>
      <trkpt lat="48.70745" lon="2.44732">
        <ele>63</ele>
        <time>2023-01-24T07:40:41.036Z</time>
      </trkpt>
      <trkpt lat="48.70741" lon="2.44724">
        <ele>63</ele>
        <time>2023-01-24T07:40:45.569Z</time>
      </trkpt>
      <trkpt lat="48.70737" lon="2.44716">
        <ele>63</ele>
        <time>2023-01-24T07:40:49.627Z</time>
      </trkpt>
      <trkpt lat="48.70733" lon="2.44707">
        <ele>63</ele>
        <time>2023-01-24T07:40:54.362Z</time>
      </trkpt>
      <trkpt lat="48.7073" lon="2.44698">
        <ele>63</ele>
        <time>2023-01-24T07:40:58.972Z</time>
      </trkpt>
      <trkpt lat="48.70723" lon="2.44691">
        <ele>63</ele>
        <time>2023-01-24T07:41:04.039Z</time>
      </trkpt>
      <trkpt lat="48.70719" lon="2.44689">
        <ele>63</ele>
        <time>2023-01-24T07:41:08.376Z</time>
      </trkpt>
      <trkpt lat="48.70716" lon="2.44679">
        <ele>61</ele>
        <time>2023-01-24T07:41:13.034Z</time>
      </trkpt>
      <trkpt lat="48.70713" lon="2.44671">
        <ele>61</ele>
        <time>2023-01-24T07:41:17.073Z</time>
      </trkpt>
      <trkpt lat="48.7071" lon="2.44662">
        <ele>61</ele>
        <time>2023-01-24T07:41:21.021Z</time>
      </trkpt>
      <trkpt lat="48.70706" lon="2.44652">
        <ele>62</ele>
        <time>2023-01-24T07:41:25.546Z</time>
      </trkpt>
      <trkpt lat="48.70702" lon="2.4464">
        <ele>62</ele>
        <time>2023-01-24T07:41:30.020Z</time>
      </trkpt>
      <trkpt lat="48.70699" lon="2.44631">
        <ele>62</ele>
        <time>2023-01-24T07:41:33.972Z</time>
      </trkpt>
      <trkpt lat="48.70695" lon="2.44623">
        <ele>61</ele>
        <time>2023-01-24T07:41:37.780Z</time>
      </trkpt>
      <trkpt lat="48.70692" lon="2.44616">
        <ele>61</ele>
        <time>2023-01-24T07:41:42.400Z</time>
      </trkpt>
      <trkpt lat="48.70687" lon="2.44608">
        <ele>61</ele>
        <time>2023-01-24T07:41:46.895Z</time>
      </trkpt>
      <trkpt lat="48.70678" lon="2.44607">
        <ele>64</ele>
        <time>2023-01-24T07:41:51.450Z</time>
      </trkpt>
      <trkpt lat="48.70672" lon="2.44606">
        <ele>64</ele>
        <time>2023-01-24T07:41:55.448Z</time>
      </trkpt>
      <trkpt lat="48.70666" lon="2.44606">
        <ele>64</ele>
        <time>2023-01-24T07:42:00.025Z</time>
      </trkpt>
      <trkpt lat="48.70657" lon="2.44607">
        <ele>64</ele>
        <time>2023-01-24T07:42:04.482Z</time>
      </trkpt>
      <trkpt lat="48.70651" lon="2.44607">
        <ele>67</ele>
        <time>2023-01-24T07:42:08.972Z</time>
      </trkpt>
      <trkpt lat="48.70645" lon="2.44606">
        <ele>67</ele>
        <time>2023-01-24T07:42:12.878Z</time>
      </trkpt>
      <trkpt lat="48.70639" lon="2.44606">
        <ele>67</ele>
        <time>2023-01-24T07:42:17.297Z</time>
      </trkpt>
      <trkpt lat="48.70633" lon="2.44605">
        <ele>67</ele>
        <time>2023-01-24T07:42:21.877Z</time>
      </trkpt>
      <trkpt lat="48.70626" lon="2.44605">
        <ele>67</ele>
        <time>2023-01-24T07:42:26.315Z</time>
      </trkpt>
      <trkpt lat="48.70622" lon="2.44605">
        <ele>69</ele>
        <time>2023-01-24T07:42:30.270Z</time>
      </trkpt>
      <trkpt lat="48.70615" lon="2.44604">
        <ele>69</ele>
        <time>2023-01-24T07:42:34.629Z</time>
      </trkpt>
      <trkpt lat="48.70609" lon="2.44604">
        <ele>69</ele>
        <time>2023-01-24T07:42:39.185Z</time>
      </trkpt>
      <trkpt lat="48.70604" lon="2.44604">
        <ele>69</ele>
        <time>2023-01-24T07:42:43.141Z</time>
      </trkpt>
      <trkpt lat="48.70598" lon="2.44606">
        <ele>69</ele>
        <time>2023-01-24T07:42:47.738Z</time>
      </trkpt>
      <trkpt lat="48.70592" lon="2.44605">
        <ele>69</ele>
        <time>2023-01-24T07:42:52.398Z</time>
      </trkpt>
      <trkpt lat="48.70586" lon="2.44603">
        <ele>69</ele>
        <time>2023-01-24T07:42:56.772Z</time>
      </trkpt>
      <trkpt lat="48.70579" lon="2.44602">
        <ele>69</ele>
        <time>2023-01-24T07:43:01.289Z</time>
      </trkpt>
      <trkpt lat="48.70571" lon="2.44602">
        <ele>69</ele>
        <time>2023-01-24T07:43:05.666Z</time>
      </trkpt>
      <trkpt lat="48.70563" lon="2.44602">
        <ele>67</ele>
        <time>2023-01-24T07:43:10.221Z</time>
      </trkpt>
      <trkpt lat="48.70557" lon="2.44602">
        <ele>67</ele>
        <time>2023-01-24T07:43:14.579Z</time>
      </trkpt>
      <trkpt lat="48.70551" lon="2.44602">
        <ele>67</ele>
        <time>2023-01-24T07:43:18.534Z</time>
      </trkpt>
      <trkpt lat="48.70544" lon="2.44602">
        <ele>67</ele>
        <time>2023-01-24T07:43:23.209Z</time>
      </trkpt>
      <trkpt lat="48.70537" lon="2.44603">
        <ele>66</ele>
        <time>2023-01-24T07:43:27.717Z</time>
      </trkpt>
      <trkpt lat="48.7053" lon="2.44605">
        <ele>66</ele>
        <time>2023-01-24T07:43:32.202Z</time>
      </trkpt>
      <trkpt lat="48.70524" lon="2.44607">
        <ele>66</ele>
        <time>2023-01-24T07:43:36.158Z</time>
      </trkpt>
      <trkpt lat="48.70518" lon="2.44609">
        <ele>66</ele>
        <time>2023-01-24T07:43:40.175Z</time>
      </trkpt>
      <trkpt lat="48.70514" lon="2.44605">
        <ele>67</ele>
        <time>2023-01-24T07:43:44.553Z</time>
      </trkpt>
      <trkpt lat="48.70508" lon="2.44606">
        <ele>67</ele>
        <time>2023-01-24T07:43:48.451Z</time>
      </trkpt>
      <trkpt lat="48.70501" lon="2.44606">
        <ele>67</ele>
        <time>2023-01-24T07:43:52.529Z</time>
      </trkpt>
      <trkpt lat="48.70495" lon="2.44605">
        <ele>67</ele>
        <time>2023-01-24T07:43:56.949Z</time>
      </trkpt>
      <trkpt lat="48.70488" lon="2.44605">
        <ele>67</ele>
        <time>2023-01-24T07:44:00.906Z</time>
      </trkpt>
      <trkpt lat="48.70482" lon="2.44606">
        <ele>67</ele>
        <time>2023-01-24T07:44:05.425Z</time>
      </trkpt>
      <trkpt lat="48.70477" lon="2.44602">
        <ele>67</ele>
        <time>2023-01-24T07:44:09.962Z</time>
      </trkpt>
      <trkpt lat="48.70469" lon="2.44602">
        <ele>67</ele>
        <time>2023-01-24T07:44:14.260Z</time>
      </trkpt>
      <trkpt lat="48.70462" lon="2.44602">
        <ele>67</ele>
        <time>2023-01-24T07:44:18.918Z</time>
      </trkpt>
      <trkpt lat="48.70456" lon="2.44603">
        <ele>67</ele>
        <time>2023-01-24T07:44:22.776Z</time>
      </trkpt>
      <trkpt lat="48.70451" lon="2.44604">
        <ele>67</ele>
        <time>2023-01-24T07:44:27.255Z</time>
      </trkpt>
      <trkpt lat="48.70445" lon="2.44603">
        <ele>67</ele>
        <time>2023-01-24T07:44:31.196Z</time>
      </trkpt>
      <trkpt lat="48.70438" lon="2.44602">
        <ele>67</ele>
        <time>2023-01-24T07:44:35.795Z</time>
      </trkpt>
      <trkpt lat="48.70433" lon="2.44601">
        <ele>67</ele>
        <time>2023-01-24T07:44:40.273Z</time>
      </trkpt>
      <trkpt lat="48.70428" lon="2.44595">
        <ele>66</ele>
        <time>2023-01-24T07:44:44.891Z</time>
      </trkpt>
      <trkpt lat="48.70425" lon="2.44587">
        <ele>66</ele>
        <time>2023-01-24T07:44:48.810Z</time>
      </trkpt>
      <trkpt lat="48.70424" lon="2.44575">
        <ele>66</ele>
        <time>2023-01-24T07:44:53.309Z</time>
      </trkpt>
      <trkpt lat="48.70425" lon="2.44565">
        <ele>64</ele>
        <time>2023-01-24T07:44:57.812Z</time>
      </trkpt>
      <trkpt lat="48.70426" lon="2.44554">
        <ele>64</ele>
        <time>2023-01-24T07:45:02.815Z</time>
      </trkpt>
      <trkpt lat="48.70426" lon="2.44544">
        <ele>64</ele>
        <time>2023-01-24T07:45:07.536Z</time>
      </trkpt>
      <trkpt lat="48.70424" lon="2.44532">
        <ele>61</ele>
        <time>2023-01-24T07:45:11.857Z</time>
      </trkpt>
      <trkpt lat="48.70423" lon="2.44522">
        <ele>61</ele>
        <time>2023-01-24T07:45:16.080Z</time>
      </trkpt>
      <trkpt lat="48.70421" lon="2.44511">
        <ele>59</ele>
        <time>2023-01-24T07:45:20.637Z</time>
      </trkpt>
      <trkpt lat="48.70421" lon="2.44502">
        <ele>59</ele>
        <time>2023-01-24T07:45:24.776Z</time>
      </trkpt>
      <trkpt lat="48.7042" lon="2.44494">
        <ele>59</ele>
        <time>2023-01-24T07:45:28.715Z</time>
      </trkpt>
      <trkpt lat="48.70419" lon="2.44484">
        <ele>59</ele>
        <time>2023-01-24T07:45:33.194Z</time>
      </trkpt>
      <trkpt lat="48.70419" lon="2.44474">
        <ele>59</ele>
        <time>2023-01-24T07:45:37.414Z</time>
      </trkpt>
      <trkpt lat="48.70418" lon="2.44465">
        <ele>59</ele>
        <time>2023-01-24T07:45:41.555Z</time>
      </trkpt>
      <trkpt lat="48.70416" lon="2.44457">
        <ele>58</ele>
        <time>2023-01-24T07:45:45.574Z</time>
      </trkpt>
      <trkpt lat="48.70412" lon="2.44447">
        <ele>58</ele>
        <time>2023-01-24T07:45:49.433Z</time>
      </trkpt>
      <trkpt lat="48.70408" lon="2.44438">
        <ele>58</ele>
        <time>2023-01-24T07:45:53.972Z</time>
      </trkpt>
      <trkpt lat="48.70405" lon="2.44428">
        <ele>55</ele>
        <time>2023-01-24T07:45:58.449Z</time>
      </trkpt>
      <trkpt lat="48.70403" lon="2.44418">
        <ele>54</ele>
        <time>2023-01-24T07:46:02.928Z</time>
      </trkpt>
      <trkpt lat="48.704" lon="2.44408">
        <ele>54</ele>
        <time>2023-01-24T07:46:07.887Z</time>
      </trkpt>
      <trkpt lat="48.70399" lon="2.44395">
        <ele>52</ele>
        <time>2023-01-24T07:46:12.899Z</time>
      </trkpt>
      <trkpt lat="48.70395" lon="2.44385">
        <ele>52</ele>
        <time>2023-01-24T07:46:16.846Z</time>
      </trkpt>
      <trkpt lat="48.70393" lon="2.44374">
        <ele>51</ele>
        <time>2023-01-24T07:46:20.925Z</time>
      </trkpt>
      <trkpt lat="48.7039" lon="2.44363">
        <ele>51</ele>
        <time>2023-01-24T07:46:25.443Z</time>
      </trkpt>
      <trkpt lat="48.70388" lon="2.44353">
        <ele>51</ele>
        <time>2023-01-24T07:46:29.941Z</time>
      </trkpt>
      <trkpt lat="48.70385" lon="2.44346">
        <ele>51</ele>
        <time>2023-01-24T07:46:33.972Z</time>
      </trkpt>
      <trkpt lat="48.70384" lon="2.44339">
        <ele>51</ele>
        <time>2023-01-24T07:46:38.940Z</time>
      </trkpt>
      <trkpt lat="48.70381" lon="2.44329">
        <ele>51</ele>
        <time>2023-01-24T07:46:43.539Z</time>
      </trkpt>
      <trkpt lat="48.70379" lon="2.44321">
        <ele>51</ele>
        <time>2023-01-24T07:46:48.023Z</time>
      </trkpt>
      <trkpt lat="48.70375" lon="2.44311">
        <ele>51</ele>
        <time>2023-01-24T07:46:52.336Z</time>
      </trkpt>
      <trkpt lat="48.70373" lon="2.44301">
        <ele>50</ele>
        <time>2023-01-24T07:46:56.678Z</time>
      </trkpt>
      <trkpt lat="48.7037" lon="2.44292">
        <ele>50</ele>
        <time>2023-01-24T07:47:00.554Z</time>
      </trkpt>
      <trkpt lat="48.70367" lon="2.44281">
        <ele>49</ele>
        <time>2023-01-24T07:47:05.074Z</time>
      </trkpt>
      <trkpt lat="48.70364" lon="2.4427">
        <ele>49</ele>
        <time>2023-01-24T07:47:09.590Z</time>
      </trkpt>
      <trkpt lat="48.70361" lon="2.44262">
        <ele>48</ele>
        <time>2023-01-24T07:47:13.748Z</time>
      </trkpt>
      <trkpt lat="48.70358" lon="2.44251">
        <ele>48</ele>
        <time>2023-01-24T07:47:18.467Z</time>
      </trkpt>
      <trkpt lat="48.70356" lon="2.44241">
        <ele>48</ele>
        <time>2023-01-24T07:47:23.025Z</time>
      </trkpt>
      <trkpt lat="48.70354" lon="2.44232">
        <ele>47</ele>
        <time>2023-01-24T07:47:27.183Z</time>
      </trkpt>
      <trkpt lat="48.70353" lon="2.44221">
        <ele>47</ele>
        <time>2023-01-24T07:47:31.859Z</time>
      </trkpt>
      <trkpt lat="48.7035" lon="2.44211">
        <ele>47</ele>
        <time>2023-01-24T07:47:36.256Z</time>
      </trkpt>
      <trkpt lat="48.70349" lon="2.442">
        <ele>47</ele>
        <time>2023-01-24T07:47:40.573Z</time>
      </trkpt>
      <trkpt lat="48.70348" lon="2.44191">
        <ele>47</ele>
        <time>2023-01-24T07:47:44.751Z</time>
      </trkpt>
      <trkpt lat="48.70346" lon="2.44182">
        <ele>48</ele>
        <time>2023-01-24T07:47:48.887Z</time>
      </trkpt>
      <trkpt lat="48.70346" lon="2.44171">
        <ele>47</ele>
        <time>2023-01-24T07:47:53.464Z</time>
      </trkpt>
      <trkpt lat="48.70345" lon="2.4416">
        <ele>47</ele>
        <time>2023-01-24T07:47:58.043Z</time>
      </trkpt>
      <trkpt lat="48.70344" lon="2.44151">
        <ele>46</ele>
        <time>2023-01-24T07:48:02.036Z</time>
      </trkpt>
      <trkpt lat="48.70342" lon="2.44142">
        <ele>46</ele>
        <time>2023-01-24T07:48:05.972Z</time>
      </trkpt>
      <trkpt lat="48.7034" lon="2.44132">
        <ele>46</ele>
        <time>2023-01-24T07:48:10.972Z</time>
      </trkpt>
      <trkpt lat="48.70338" lon="2.44122">
        <ele>45</ele>
        <time>2023-01-24T07:48:15.612Z</time>
      </trkpt>
      <trkpt lat="48.70335" lon="2.44112">
        <ele>45</ele>
        <time>2023-01-24T07:48:20.170Z</time>
      </trkpt>
      <trkpt lat="48.70334" lon="2.44099">
        <ele>45</ele>
        <time>2023-01-24T07:48:24.570Z</time>
      </trkpt>
      <trkpt lat="48.70331" lon="2.4409">
        <ele>44</ele>
        <time>2023-01-24T07:48:28.549Z</time>
      </trkpt>
      <trkpt lat="48.70329" lon="2.44077">
        <ele>44</ele>
        <time>2023-01-24T07:48:33.586Z</time>
      </trkpt>
      <trkpt lat="48.70328" lon="2.44067">
        <ele>43</ele>
        <time>2023-01-24T07:48:38.033Z</time>
      </trkpt>
      <trkpt lat="48.70327" lon="2.44056">
        <ele>43</ele>
        <time>2023-01-24T07:48:42.580Z</time>
      </trkpt>
      <trkpt lat="48.70324" lon="2.44045">
        <ele>43</ele>
        <time>2023-01-24T07:48:48.062Z</time>
      </trkpt>
      <trkpt lat="48.70321" lon="2.44035">
        <ele>42</ele>
        <time>2023-01-24T07:48:52.176Z</time>
      </trkpt>
      <trkpt lat="48.70321" lon="2.44027">
        <ele>42</ele>
        <time>2023-01-24T07:48:56.213Z</time>
      </trkpt>
      <trkpt lat="48.70323" lon="2.44019">
        <ele>42</ele>
        <time>2023-01-24T07:49:00.572Z</time>
      </trkpt>
      <trkpt lat="48.70327" lon="2.44013">
        <ele>42</ele>
        <time>2023-01-24T07:49:05.064Z</time>
      </trkpt>
      <trkpt lat="48.70328" lon="2.44005">
        <ele>42</ele>
        <time>2023-01-24T07:49:09.205Z</time>
      </trkpt>
      <trkpt lat="48.70322" lon="2.44001">
        <ele>42</ele>
        <time>2023-01-24T07:49:13.641Z</time>
      </trkpt>
      <trkpt lat="48.70316" lon="2.43996">
        <ele>42</ele>
        <time>2023-01-24T07:49:18.118Z</time>
      </trkpt>
      <trkpt lat="48.70317" lon="2.43981">
        <ele>42</ele>
        <time>2023-01-24T07:49:22.572Z</time>
      </trkpt>
      <trkpt lat="48.70316" lon="2.43972">
        <ele>42</ele>
        <time>2023-01-24T07:49:26.767Z</time>
      </trkpt>
      <trkpt lat="48.70317" lon="2.43962">
        <ele>42</ele>
        <time>2023-01-24T07:49:31.442Z</time>
      </trkpt>
      <trkpt lat="48.70317" lon="2.43951">
        <ele>42</ele>
        <time>2023-01-24T07:49:35.877Z</time>
      </trkpt>
      <trkpt lat="48.70316" lon="2.43939">
        <ele>42</ele>
        <time>2023-01-24T07:49:40.552Z</time>
      </trkpt>
      <trkpt lat="48.70316" lon="2.43929">
        <ele>41</ele>
        <time>2023-01-24T07:49:44.626Z</time>
      </trkpt>
      <trkpt lat="48.70318" lon="2.43919">
        <ele>41</ele>
        <time>2023-01-24T07:49:49.780Z</time>
      </trkpt>
      <trkpt lat="48.70318" lon="2.43908">
        <ele>41</ele>
        <time>2023-01-24T07:49:53.972Z</time>
      </trkpt>
      <trkpt lat="48.70318" lon="2.43897">
        <ele>41</ele>
        <time>2023-01-24T07:49:58.168Z</time>
      </trkpt>
      <trkpt lat="48.70318" lon="2.43886">
        <ele>41</ele>
        <time>2023-01-24T07:50:02.846Z</time>
      </trkpt>
      <trkpt lat="48.70318" lon="2.43876">
        <ele>41</ele>
        <time>2023-01-24T07:50:06.862Z</time>
      </trkpt>
      <trkpt lat="48.70319" lon="2.43866">
        <ele>41</ele>
        <time>2023-01-24T07:50:10.819Z</time>
      </trkpt>
      <trkpt lat="48.70319" lon="2.43855">
        <ele>41</ele>
        <time>2023-01-24T07:50:14.838Z</time>
      </trkpt>
      <trkpt lat="48.70319" lon="2.43845">
        <ele>41</ele>
        <time>2023-01-24T07:50:19.375Z</time>
      </trkpt>
      <trkpt lat="48.70319" lon="2.43835">
        <ele>41</ele>
        <time>2023-01-24T07:50:23.411Z</time>
      </trkpt>
      <trkpt lat="48.7032" lon="2.43826">
        <ele>41</ele>
        <time>2023-01-24T07:50:27.966Z</time>
      </trkpt>
      <trkpt lat="48.7032" lon="2.43818">
        <ele>41</ele>
        <time>2023-01-24T07:50:31.946Z</time>
      </trkpt>
      <trkpt lat="48.70323" lon="2.43808">
        <ele>41</ele>
        <time>2023-01-24T07:50:37.032Z</time>
      </trkpt>
      <trkpt lat="48.70328" lon="2.43799">
        <ele>41</ele>
        <time>2023-01-24T07:50:41.009Z</time>
      </trkpt>
      <trkpt lat="48.70331" lon="2.43789">
        <ele>41</ele>
        <time>2023-01-24T07:50:44.540Z</time>
      </trkpt>
      <trkpt lat="48.70335" lon="2.43775">
        <ele>41</ele>
        <time>2023-01-24T07:50:49.935Z</time>
      </trkpt>
      <trkpt lat="48.7034" lon="2.43766">
        <ele>41</ele>
        <time>2023-01-24T07:50:54.552Z</time>
      </trkpt>
      <trkpt lat="48.70345" lon="2.43761">
        <ele>40</ele>
        <time>2023-01-24T07:50:59.168Z</time>
      </trkpt>
      <trkpt lat="48.7035" lon="2.43756">
        <ele>40</ele>
        <time>2023-01-24T07:51:03.323Z</time>
      </trkpt>
      <trkpt lat="48.70355" lon="2.43749">
        <ele>40</ele>
        <time>2023-01-24T07:51:07.399Z</time>
      </trkpt>
      <trkpt lat="48.70358" lon="2.43743">
        <ele>40</ele>
        <time>2023-01-24T07:51:11.756Z</time>
      </trkpt>
      <trkpt lat="48.70364" lon="2.43739">
        <ele>40</ele>
        <time>2023-01-24T07:51:16.353Z</time>
      </trkpt>
      <trkpt lat="48.70369" lon="2.43735">
        <ele>40</ele>
        <time>2023-01-24T07:51:20.369Z</time>
      </trkpt>
      <trkpt lat="48.70376" lon="2.4373">
        <ele>40</ele>
        <time>2023-01-24T07:51:24.972Z</time>
      </trkpt>
      <trkpt lat="48.70382" lon="2.43725">
        <ele>40</ele>
        <time>2023-01-24T07:51:28.972Z</time>
      </trkpt>
      <trkpt lat="48.70388" lon="2.43722">
        <ele>40</ele>
        <time>2023-01-24T07:51:32.801Z</time>
      </trkpt>
      <trkpt lat="48.70392" lon="2.43713">
        <ele>40</ele>
        <time>2023-01-24T07:51:37.418Z</time>
      </trkpt>
      <trkpt lat="48.70397" lon="2.43706">
        <ele>40</ele>
        <time>2023-01-24T07:51:41.375Z</time>
      </trkpt>
      <trkpt lat="48.70403" lon="2.43702">
        <ele>40</ele>
        <time>2023-01-24T07:51:45.972Z</time>
      </trkpt>
      <trkpt lat="48.70409" lon="2.43697">
        <ele>40</ele>
        <time>2023-01-24T07:51:49.969Z</time>
      </trkpt>
      <trkpt lat="48.70415" lon="2.43691">
        <ele>40</ele>
        <time>2023-01-24T07:51:54.565Z</time>
      </trkpt>
      <trkpt lat="48.70423" lon="2.43683">
        <ele>40</ele>
        <time>2023-01-24T07:51:59.899Z</time>
      </trkpt>
      <trkpt lat="48.7043" lon="2.43676">
        <ele>40</ele>
        <time>2023-01-24T07:52:04.435Z</time>
      </trkpt>
      <trkpt lat="48.70435" lon="2.43671">
        <ele>39</ele>
        <time>2023-01-24T07:52:08.389Z</time>
      </trkpt>
      <trkpt lat="48.70439" lon="2.43667">
        <ele>39</ele>
        <time>2023-01-24T07:52:13.183Z</time>
      </trkpt>
      <trkpt lat="48.70445" lon="2.43662">
        <ele>39</ele>
        <time>2023-01-24T07:52:17.239Z</time>
      </trkpt>
      <trkpt lat="48.70451" lon="2.43657">
        <ele>39</ele>
        <time>2023-01-24T07:52:21.796Z</time>
      </trkpt>
      <trkpt lat="48.70456" lon="2.43653">
        <ele>38</ele>
        <time>2023-01-24T07:52:25.693Z</time>
      </trkpt>
      <trkpt lat="48.70459" lon="2.4365">
        <ele>37</ele>
        <time>2023-01-24T07:52:30.119Z</time>
      </trkpt>
      <trkpt lat="48.70463" lon="2.43645">
        <ele>37</ele>
        <time>2023-01-24T07:52:34.146Z</time>
      </trkpt>
      <trkpt lat="48.70465" lon="2.43635">
        <ele>37</ele>
        <time>2023-01-24T07:52:38.583Z</time>
      </trkpt>
      <trkpt lat="48.70469" lon="2.43627">
        <ele>37</ele>
        <time>2023-01-24T07:52:43.026Z</time>
      </trkpt>
      <trkpt lat="48.70478" lon="2.43619">
        <ele>38</ele>
        <time>2023-01-24T07:52:47.596Z</time>
      </trkpt>
      <trkpt lat="48.70486" lon="2.43611">
        <ele>38</ele>
        <time>2023-01-24T07:52:52.034Z</time>
      </trkpt>
      <trkpt lat="48.70492" lon="2.43605">
        <ele>38</ele>
        <time>2023-01-24T07:52:56.552Z</time>
      </trkpt>
      <trkpt lat="48.70498" lon="2.43602">
        <ele>38</ele>
        <time>2023-01-24T07:53:00.747Z</time>
      </trkpt>
      <trkpt lat="48.70505" lon="2.43596">
        <ele>38</ele>
        <time>2023-01-24T07:53:05.304Z</time>
      </trkpt>
      <trkpt lat="48.70512" lon="2.4359">
        <ele>38</ele>
        <time>2023-01-24T07:53:09.546Z</time>
      </trkpt>
      <trkpt lat="48.70516" lon="2.43584">
        <ele>37</ele>
        <time>2023-01-24T07:53:14.559Z</time>
      </trkpt>
      <trkpt lat="48.70521" lon="2.43577">
        <ele>37</ele>
        <time>2023-01-24T07:53:18.569Z</time>
      </trkpt>
      <trkpt lat="48.70528" lon="2.43571">
        <ele>37</ele>
        <time>2023-01-24T07:53:22.586Z</time>
      </trkpt>
      <trkpt lat="48.70535" lon="2.43565">
        <ele>36</ele>
        <time>2023-01-24T07:53:27.099Z</time>
      </trkpt>
      <trkpt lat="48.70543" lon="2.43558">
        <ele>35</ele>
        <time>2023-01-24T07:53:31.616Z</time>
      </trkpt>
      <trkpt lat="48.7055" lon="2.43554">
        <ele>35</ele>
        <time>2023-01-24T07:53:36.639Z</time>
      </trkpt>
      <trkpt lat="48.70556" lon="2.4355">
        <ele>35</ele>
        <time>2023-01-24T07:53:40.746Z</time>
      </trkpt>
      <trkpt lat="48.70563" lon="2.43543">
        <ele>35</ele>
        <time>2023-01-24T07:53:45.259Z</time>
      </trkpt>
      <trkpt lat="48.70568" lon="2.43539">
        <ele>36</ele>
        <time>2023-01-24T07:53:49.370Z</time>
      </trkpt>
      <trkpt lat="48.70575" lon="2.43532">
        <ele>34</ele>
        <time>2023-01-24T07:53:53.886Z</time>
      </trkpt>
      <trkpt lat="48.7058" lon="2.43526">
        <ele>34</ele>
        <time>2023-01-24T07:53:57.896Z</time>
      </trkpt>
      <trkpt lat="48.70588" lon="2.43526">
        <ele>34</ele>
        <time>2023-01-24T07:54:02.912Z</time>
      </trkpt>
      <trkpt lat="48.70589" lon="2.4353">
        <ele>34</ele>
        <time>2023-01-24T07:54:06.928Z</time>
      </trkpt>
      <trkpt lat="48.70593" lon="2.43542">
        <ele>34</ele>
        <time>2023-01-24T07:54:11.451Z</time>
      </trkpt>
      <trkpt lat="48.70598" lon="2.43543">
        <ele>34</ele>
        <time>2023-01-24T07:54:15.958Z</time>
      </trkpt>
      <trkpt lat="48.70605" lon="2.43535">
        <ele>34</ele>
        <time>2023-01-24T07:54:20.964Z</time>
      </trkpt>
      <trkpt lat="48.7061" lon="2.43523">
        <ele>34</ele>
        <time>2023-01-24T07:54:25.975Z</time>
      </trkpt>
      <trkpt lat="48.70614" lon="2.43519">
        <ele>34</ele>
        <time>2023-01-24T07:54:30.992Z</time>
      </trkpt>
      <trkpt lat="48.70621" lon="2.43516">
        <ele>34</ele>
        <time>2023-01-24T07:54:35Z</time>
      </trkpt>
      <trkpt lat="48.70627" lon="2.4351">
        <ele>33</ele>
        <time>2023-01-24T07:54:39.162Z</time>
      </trkpt>
      <trkpt lat="48.70634" lon="2.43506">
        <ele>33</ele>
        <time>2023-01-24T07:54:43.795Z</time>
      </trkpt>
      <trkpt lat="48.7064" lon="2.43503">
        <ele>33</ele>
        <time>2023-01-24T07:54:47.845Z</time>
      </trkpt>
      <trkpt lat="48.70646" lon="2.43499">
        <ele>33</ele>
        <time>2023-01-24T07:54:51.849Z</time>
      </trkpt>
      <trkpt lat="48.70652" lon="2.43493">
        <ele>33</ele>
        <time>2023-01-24T07:54:56.372Z</time>
      </trkpt>
      <trkpt lat="48.70656" lon="2.43487">
        <ele>34</ele>
        <time>2023-01-24T07:55:00.894Z</time>
      </trkpt>
      <trkpt lat="48.70664" lon="2.4348">
        <ele>34</ele>
        <time>2023-01-24T07:55:05.515Z</time>
      </trkpt>
      <trkpt lat="48.70669" lon="2.43474">
        <ele>34</ele>
        <time>2023-01-24T07:55:10.057Z</time>
      </trkpt>
      <trkpt lat="48.70675" lon="2.4347">
        <ele>34</ele>
        <time>2023-01-24T07:55:14.199Z</time>
      </trkpt>
      <trkpt lat="48.70679" lon="2.43463">
        <ele>34</ele>
        <time>2023-01-24T07:55:18.300Z</time>
      </trkpt>
      <trkpt lat="48.70685" lon="2.43457">
        <ele>35</ele>
        <time>2023-01-24T07:55:23.161Z</time>
      </trkpt>
      <trkpt lat="48.70692" lon="2.43452">
        <ele>35</ele>
        <time>2023-01-24T07:55:27.640Z</time>
      </trkpt>
      <trkpt lat="48.70697" lon="2.43447">
        <ele>35</ele>
        <time>2023-01-24T07:55:32.298Z</time>
      </trkpt>
      <trkpt lat="48.70703" lon="2.43442">
        <ele>35</ele>
        <time>2023-01-24T07:55:36.716Z</time>
      </trkpt>
      <trkpt lat="48.70709" lon="2.43434">
        <ele>34</ele>
        <time>2023-01-24T07:55:41.253Z</time>
      </trkpt>
      <trkpt lat="48.70714" lon="2.43428">
        <ele>34</ele>
        <time>2023-01-24T07:55:45.690Z</time>
      </trkpt>
      <trkpt lat="48.70719" lon="2.43422">
        <ele>34</ele>
        <time>2023-01-24T07:55:49.850Z</time>
      </trkpt>
      <trkpt lat="48.70724" lon="2.43415">
        <ele>34</ele>
        <time>2023-01-24T07:55:54.172Z</time>
      </trkpt>
      <trkpt lat="48.70731" lon="2.43409">
        <ele>34</ele>
        <time>2023-01-24T07:55:59.711Z</time>
      </trkpt>
      <trkpt lat="48.70736" lon="2.43404">
        <ele>35</ele>
        <time>2023-01-24T07:56:03.630Z</time>
      </trkpt>
      <trkpt lat="48.70741" lon="2.43398">
        <ele>35</ele>
        <time>2023-01-24T07:56:07.570Z</time>
      </trkpt>
      <trkpt lat="48.70748" lon="2.43394">
        <ele>35</ele>
        <time>2023-01-24T07:56:11.766Z</time>
      </trkpt>
      <trkpt lat="48.70753" lon="2.43389">
        <ele>35</ele>
        <time>2023-01-24T07:56:16.535Z</time>
      </trkpt>
      <trkpt lat="48.7076" lon="2.43383">
        <ele>35</ele>
        <time>2023-01-24T07:56:20.729Z</time>
      </trkpt>
      <trkpt lat="48.70765" lon="2.43381">
        <ele>35</ele>
        <time>2023-01-24T07:56:24.740Z</time>
      </trkpt>
      <trkpt lat="48.70771" lon="2.4338">
        <ele>35</ele>
        <time>2023-01-24T07:56:29.257Z</time>
      </trkpt>
      <trkpt lat="48.70778" lon="2.43377">
        <ele>35</ele>
        <time>2023-01-24T07:56:33.771Z</time>
      </trkpt>
      <trkpt lat="48.70783" lon="2.43374">
        <ele>35</ele>
        <time>2023-01-24T07:56:37.781Z</time>
      </trkpt>
      <trkpt lat="48.70787" lon="2.43374">
        <ele>35</ele>
        <time>2023-01-24T07:56:41.786Z</time>
      </trkpt>
      <trkpt lat="48.70795" lon="2.43382">
        <ele>35</ele>
        <time>2023-01-24T07:56:46.290Z</time>
      </trkpt>
      <trkpt lat="48.70802" lon="2.43386">
        <ele>35</ele>
        <time>2023-01-24T07:56:50.794Z</time>
      </trkpt>
      <trkpt lat="48.70808" lon="2.43387">
        <ele>35</ele>
        <time>2023-01-24T07:56:54.796Z</time>
      </trkpt>
      <trkpt lat="48.70815" lon="2.43388">
        <ele>35</ele>
        <time>2023-01-24T07:56:59.300Z</time>
      </trkpt>
      <trkpt lat="48.70823" lon="2.43388">
        <ele>35</ele>
        <time>2023-01-24T07:57:04.047Z</time>
      </trkpt>
      <trkpt lat="48.70829" lon="2.43385">
        <ele>35</ele>
        <time>2023-01-24T07:57:08.422Z</time>
      </trkpt>
      <trkpt lat="48.70834" lon="2.43381">
        <ele>35</ele>
        <time>2023-01-24T07:57:12.924Z</time>
      </trkpt>
      <trkpt lat="48.7084" lon="2.43375">
        <ele>34</ele>
        <time>2023-01-24T07:57:17.817Z</time>
      </trkpt>
      <trkpt lat="48.70846" lon="2.43368">
        <ele>34</ele>
        <time>2023-01-24T07:57:22.204Z</time>
      </trkpt>
      <trkpt lat="48.70849" lon="2.43358">
        <ele>35</ele>
        <time>2023-01-24T07:57:26.740Z</time>
      </trkpt>
      <trkpt lat="48.70852" lon="2.43347">
        <ele>34</ele>
        <time>2023-01-24T07:57:30.937Z</time>
      </trkpt>
      <trkpt lat="48.70853" lon="2.43334">
        <ele>34</ele>
        <time>2023-01-24T07:57:35.114Z</time>
      </trkpt>
      <trkpt lat="48.70853" lon="2.43323">
        <ele>34</ele>
        <time>2023-01-24T07:57:39.762Z</time>
      </trkpt>
      <trkpt lat="48.70852" lon="2.43317">
        <ele>34</ele>
        <time>2023-01-24T07:57:43.774Z</time>
      </trkpt>
      <trkpt lat="48.70851" lon="2.43314">
        <ele>34</ele>
        <time>2023-01-24T07:57:47.797Z</time>
      </trkpt>
      <trkpt lat="48.70853" lon="2.433">
        <ele>34</ele>
        <time>2023-01-24T07:57:52.812Z</time>
      </trkpt>
      <trkpt lat="48.70851" lon="2.43285">
        <ele>34</ele>
        <time>2023-01-24T07:57:57.359Z</time>
      </trkpt>
      <trkpt lat="48.70848" lon="2.43274">
        <ele>34</ele>
        <time>2023-01-24T07:58:01.435Z</time>
      </trkpt>
      <trkpt lat="48.70843" lon="2.43267">
        <ele>34</ele>
        <time>2023-01-24T07:58:05.941Z</time>
      </trkpt>
      <trkpt lat="48.70839" lon="2.43262">
        <ele>34</ele>
        <time>2023-01-24T07:58:10.444Z</time>
      </trkpt>
      <trkpt lat="48.70838" lon="2.43251">
        <ele>34</ele>
        <time>2023-01-24T07:58:14.947Z</time>
      </trkpt>
      <trkpt lat="48.70831" lon="2.43246">
        <ele>34</ele>
        <time>2023-01-24T07:58:19.453Z</time>
      </trkpt>
      <trkpt lat="48.70826" lon="2.43244">
        <ele>34</ele>
        <time>2023-01-24T07:58:23.457Z</time>
      </trkpt>
      <trkpt lat="48.70823" lon="2.43246">
        <ele>34</ele>
        <time>2023-01-24T07:58:27.499Z</time>
      </trkpt>
      <trkpt lat="48.70817" lon="2.4324">
        <ele>33</ele>
        <time>2023-01-24T07:58:31.799Z</time>
      </trkpt>
      <trkpt lat="48.7081" lon="2.43237">
        <ele>33</ele>
        <time>2023-01-24T07:58:35.969Z</time>
      </trkpt>
      <trkpt lat="48.70803" lon="2.43236">
        <ele>33</ele>
        <time>2023-01-24T07:58:39.829Z</time>
      </trkpt>
      <trkpt lat="48.70797" lon="2.43235">
        <ele>34</ele>
        <time>2023-01-24T07:58:43.549Z</time>
      </trkpt>
      <trkpt lat="48.70789" lon="2.43233">
        <ele>34</ele>
        <time>2023-01-24T07:58:48.607Z</time>
      </trkpt>
      <trkpt lat="48.70783" lon="2.4323">
        <ele>34</ele>
        <time>2023-01-24T07:58:53.027Z</time>
      </trkpt>
      <trkpt lat="48.70779" lon="2.43223">
        <ele>34</ele>
        <time>2023-01-24T07:58:57.090Z</time>
      </trkpt>
      <trkpt lat="48.70774" lon="2.43216">
        <ele>34</ele>
        <time>2023-01-24T07:59:01.590Z</time>
      </trkpt>
      <trkpt lat="48.70768" lon="2.43213">
        <ele>34</ele>
        <time>2023-01-24T07:59:06.036Z</time>
      </trkpt>
      <trkpt lat="48.7076" lon="2.43211">
        <ele>33</ele>
        <time>2023-01-24T07:59:10.548Z</time>
      </trkpt>
      <trkpt lat="48.70754" lon="2.43207">
        <ele>33</ele>
        <time>2023-01-24T07:59:14.586Z</time>
      </trkpt>
      <trkpt lat="48.70757" lon="2.43199">
        <ele>33</ele>
        <time>2023-01-24T07:59:19.316Z</time>
      </trkpt>
      <trkpt lat="48.70763" lon="2.43188">
        <ele>33</ele>
        <time>2023-01-24T07:59:23.664Z</time>
      </trkpt>
      <trkpt lat="48.70769" lon="2.43181">
        <ele>33</ele>
        <time>2023-01-24T07:59:28.262Z</time>
      </trkpt>
      <trkpt lat="48.70775" lon="2.43176">
        <ele>33</ele>
        <time>2023-01-24T07:59:32.744Z</time>
      </trkpt>
      <trkpt lat="48.70782" lon="2.43172">
        <ele>33</ele>
        <time>2023-01-24T07:59:36.738Z</time>
      </trkpt>
      <trkpt lat="48.70787" lon="2.43168">
        <ele>33</ele>
        <time>2023-01-24T07:59:40.815Z</time>
      </trkpt>
      <trkpt lat="48.70793" lon="2.4316">
        <ele>33</ele>
        <time>2023-01-24T07:59:45.352Z</time>
      </trkpt>
      <trkpt lat="48.70797" lon="2.43154">
        <ele>33</ele>
        <time>2023-01-24T07:59:49.669Z</time>
      </trkpt>
      <trkpt lat="48.70803" lon="2.4315">
        <ele>33</ele>
        <time>2023-01-24T07:59:54.282Z</time>
      </trkpt>
      <trkpt lat="48.7081" lon="2.43144">
        <ele>33</ele>
        <time>2023-01-24T07:59:58.697Z</time>
      </trkpt>
      <trkpt lat="48.70816" lon="2.4314">
        <ele>33</ele>
        <time>2023-01-24T08:00:02.600Z</time>
      </trkpt>
      <trkpt lat="48.70821" lon="2.43136">
        <ele>34</ele>
        <time>2023-01-24T08:00:07.575Z</time>
      </trkpt>
      <trkpt lat="48.70828" lon="2.43129">
        <ele>34</ele>
        <time>2023-01-24T08:00:12.131Z</time>
      </trkpt>
      <trkpt lat="48.70835" lon="2.43124">
        <ele>34</ele>
        <time>2023-01-24T08:00:16.787Z</time>
      </trkpt>
      <trkpt lat="48.70842" lon="2.43121">
        <ele>34</ele>
        <time>2023-01-24T08:00:20.972Z</time>
      </trkpt>
      <trkpt lat="48.70847" lon="2.43115">
        <ele>34</ele>
        <time>2023-01-24T08:00:25.179Z</time>
      </trkpt>
      <trkpt lat="48.70853" lon="2.43108">
        <ele>34</ele>
        <time>2023-01-24T08:00:29.615Z</time>
      </trkpt>
      <trkpt lat="48.70858" lon="2.43101">
        <ele>34</ele>
        <time>2023-01-24T08:00:34.056Z</time>
      </trkpt>
      <trkpt lat="48.70865" lon="2.43092">
        <ele>34</ele>
        <time>2023-01-24T08:00:38.531Z</time>
      </trkpt>
      <trkpt lat="48.70869" lon="2.43086">
        <ele>34</ele>
        <time>2023-01-24T08:00:42.548Z</time>
      </trkpt>
      <trkpt lat="48.70871" lon="2.43078">
        <ele>34</ele>
        <time>2023-01-24T08:00:46.744Z</time>
      </trkpt>
      <trkpt lat="48.70872" lon="2.43067">
        <ele>34</ele>
        <time>2023-01-24T08:00:51.241Z</time>
      </trkpt>
      <trkpt lat="48.70872" lon="2.43057">
        <ele>34</ele>
        <time>2023-01-24T08:00:55.797Z</time>
      </trkpt>
      <trkpt lat="48.70873" lon="2.43048">
        <ele>34</ele>
        <time>2023-01-24T08:01:00.277Z</time>
      </trkpt>
      <trkpt lat="48.70873" lon="2.43037">
        <ele>34</ele>
        <time>2023-01-24T08:01:04.788Z</time>
      </trkpt>
      <trkpt lat="48.70873" lon="2.43026">
        <ele>34</ele>
        <time>2023-01-24T08:01:09.294Z</time>
      </trkpt>
      <trkpt lat="48.70873" lon="2.43014">
        <ele>34</ele>
        <time>2023-01-24T08:01:13.736Z</time>
      </trkpt>
      <trkpt lat="48.70874" lon="2.43004">
        <ele>35</ele>
        <time>2023-01-24T08:01:18.184Z</time>
      </trkpt>
      <trkpt lat="48.70874" lon="2.42993">
        <ele>35</ele>
        <time>2023-01-24T08:01:22.662Z</time>
      </trkpt>
      <trkpt lat="48.70876" lon="2.42983">
        <ele>35</ele>
        <time>2023-01-24T08:01:26.735Z</time>
      </trkpt>
      <trkpt lat="48.70876" lon="2.42974">
        <ele>35</ele>
        <time>2023-01-24T08:01:30.929Z</time>
      </trkpt>
      <trkpt lat="48.70876" lon="2.42965">
        <ele>35</ele>
        <time>2023-01-24T08:01:34.972Z</time>
      </trkpt>
      <trkpt lat="48.70877" lon="2.42954">
        <ele>36</ele>
        <time>2023-01-24T08:01:39.972Z</time>
      </trkpt>
      <trkpt lat="48.70878" lon="2.42942">
        <ele>36</ele>
        <time>2023-01-24T08:01:44.550Z</time>
      </trkpt>
      <trkpt lat="48.70879" lon="2.42931">
        <ele>36</ele>
        <time>2023-01-24T08:01:49.051Z</time>
      </trkpt>
      <trkpt lat="48.7088" lon="2.4292">
        <ele>36</ele>
        <time>2023-01-24T08:01:53.540Z</time>
      </trkpt>
      <trkpt lat="48.70884" lon="2.42911">
        <ele>36</ele>
        <time>2023-01-24T08:01:57.730Z</time>
      </trkpt>
      <trkpt lat="48.70888" lon="2.42905">
        <ele>36</ele>
        <time>2023-01-24T08:02:02.097Z</time>
      </trkpt>
      <trkpt lat="48.70894" lon="2.42899">
        <ele>36</ele>
        <time>2023-01-24T08:02:06.779Z</time>
      </trkpt>
      <trkpt lat="48.70902" lon="2.42895">
        <ele>36</ele>
        <time>2023-01-24T08:02:11.571Z</time>
      </trkpt>
      <trkpt lat="48.70908" lon="2.42891">
        <ele>34</ele>
        <time>2023-01-24T08:02:15.766Z</time>
      </trkpt>
      <trkpt lat="48.70914" lon="2.42887">
        <ele>34</ele>
        <time>2023-01-24T08:02:19.839Z</time>
      </trkpt>
      <trkpt lat="48.7092" lon="2.42879">
        <ele>34</ele>
        <time>2023-01-24T08:02:24.272Z</time>
      </trkpt>
      <trkpt lat="48.70924" lon="2.42872">
        <ele>34</ele>
        <time>2023-01-24T08:02:28.806Z</time>
      </trkpt>
      <trkpt lat="48.70929" lon="2.42867">
        <ele>34</ele>
        <time>2023-01-24T08:02:32.641Z</time>
      </trkpt>
      <trkpt lat="48.70935" lon="2.4286">
        <ele>33</ele>
        <time>2023-01-24T08:02:37.756Z</time>
      </trkpt>
      <trkpt lat="48.70941" lon="2.42854">
        <ele>33</ele>
        <time>2023-01-24T08:02:42.136Z</time>
      </trkpt>
      <trkpt lat="48.70947" lon="2.42848">
        <ele>33</ele>
        <time>2023-01-24T08:02:46.790Z</time>
      </trkpt>
      <trkpt lat="48.70952" lon="2.42844">
        <ele>33</ele>
        <time>2023-01-24T08:02:50.972Z</time>
      </trkpt>
      <trkpt lat="48.70957" lon="2.4284">
        <ele>33</ele>
        <time>2023-01-24T08:02:54.938Z</time>
      </trkpt>
      <trkpt lat="48.70964" lon="2.42835">
        <ele>35</ele>
        <time>2023-01-24T08:02:59.611Z</time>
      </trkpt>
      <trkpt lat="48.70974" lon="2.42819">
        <ele>34</ele>
        <time>2023-01-24T08:03:08.782Z</time>
      </trkpt>
      <trkpt lat="48.70977" lon="2.4281">
        <ele>34</ele>
        <time>2023-01-24T08:03:12.857Z</time>
      </trkpt>
      <trkpt lat="48.70973" lon="2.428">
        <ele>34</ele>
        <time>2023-01-24T08:03:17.972Z</time>
      </trkpt>
      <trkpt lat="48.70974" lon="2.42794">
        <ele>34</ele>
        <time>2023-01-24T08:03:21.846Z</time>
      </trkpt>
      <trkpt lat="48.70975" lon="2.42786">
        <ele>31</ele>
        <time>2023-01-24T08:03:25.680Z</time>
      </trkpt>
      <trkpt lat="48.70976" lon="2.42773">
        <ele>31</ele>
        <time>2023-01-24T08:03:30.136Z</time>
      </trkpt>
      <trkpt lat="48.70969" lon="2.42769">
        <ele>31</ele>
        <time>2023-01-24T08:03:34.771Z</time>
      </trkpt>
      <trkpt lat="48.70963" lon="2.42763">
        <ele>31</ele>
        <time>2023-01-24T08:03:39.326Z</time>
      </trkpt>
      <trkpt lat="48.70959" lon="2.42757">
        <ele>31</ele>
        <time>2023-01-24T08:03:43.762Z</time>
      </trkpt>
      <trkpt lat="48.70954" lon="2.42749">
        <ele>31</ele>
        <time>2023-01-24T08:03:48.378Z</time>
      </trkpt>
      <trkpt lat="48.70948" lon="2.42742">
        <ele>31</ele>
        <time>2023-01-24T08:03:52.391Z</time>
      </trkpt>
      <trkpt lat="48.70944" lon="2.42737">
        <ele>31</ele>
        <time>2023-01-24T08:03:56.464Z</time>
      </trkpt>
      <trkpt lat="48.70938" lon="2.4273">
        <ele>31</ele>
        <time>2023-01-24T08:04:01.017Z</time>
      </trkpt>
      <trkpt lat="48.70933" lon="2.42724">
        <ele>31</ele>
        <time>2023-01-24T08:04:04.972Z</time>
      </trkpt>
      <trkpt lat="48.70928" lon="2.42718">
        <ele>31</ele>
        <time>2023-01-24T08:04:08.931Z</time>
      </trkpt>
      <trkpt lat="48.70923" lon="2.42711">
        <ele>31</ele>
        <time>2023-01-24T08:04:13.546Z</time>
      </trkpt>
      <trkpt lat="48.70919" lon="2.42705">
        <ele>31</ele>
        <time>2023-01-24T08:04:18.302Z</time>
      </trkpt>
      <trkpt lat="48.70916" lon="2.42698">
        <ele>31</ele>
        <time>2023-01-24T08:04:22.176Z</time>
      </trkpt>
      <trkpt lat="48.70911" lon="2.42692">
        <ele>31</ele>
        <time>2023-01-24T08:04:26.192Z</time>
      </trkpt>
      <trkpt lat="48.70906" lon="2.42686">
        <ele>31</ele>
        <time>2023-01-24T08:04:30.748Z</time>
      </trkpt>
      <trkpt lat="48.70901" lon="2.42679">
        <ele>31</ele>
        <time>2023-01-24T08:04:34.972Z</time>
      </trkpt>
      <trkpt lat="48.70898" lon="2.42672">
        <ele>31</ele>
        <time>2023-01-24T08:04:39.021Z</time>
      </trkpt>
      <trkpt lat="48.70895" lon="2.42664">
        <ele>31</ele>
        <time>2023-01-24T08:04:43.040Z</time>
      </trkpt>
      <trkpt lat="48.70892" lon="2.42653">
        <ele>31</ele>
        <time>2023-01-24T08:04:47.526Z</time>
      </trkpt>
      <trkpt lat="48.7089" lon="2.42643">
        <ele>31</ele>
        <time>2023-01-24T08:04:51.564Z</time>
      </trkpt>
      <trkpt lat="48.70888" lon="2.42636">
        <ele>31</ele>
        <time>2023-01-24T08:04:55.521Z</time>
      </trkpt>
      <trkpt lat="48.70886" lon="2.42626">
        <ele>31</ele>
        <time>2023-01-24T08:05:00.637Z</time>
      </trkpt>
      <trkpt lat="48.70883" lon="2.42618">
        <ele>31</ele>
        <time>2023-01-24T08:05:04.714Z</time>
      </trkpt>
      <trkpt lat="48.70882" lon="2.42607">
        <ele>31</ele>
        <time>2023-01-24T08:05:09.932Z</time>
      </trkpt>
      <trkpt lat="48.7088" lon="2.42599">
        <ele>31</ele>
        <time>2023-01-24T08:05:14.005Z</time>
      </trkpt>
      <trkpt lat="48.70878" lon="2.4259">
        <ele>31</ele>
        <time>2023-01-24T08:05:18.506Z</time>
      </trkpt>
      <trkpt lat="48.70878" lon="2.42581">
        <ele>31</ele>
        <time>2023-01-24T08:05:22.583Z</time>
      </trkpt>
      <trkpt lat="48.70877" lon="2.42569">
        <ele>31</ele>
        <time>2023-01-24T08:05:27.121Z</time>
      </trkpt>
      <trkpt lat="48.70877" lon="2.4256">
        <ele>31</ele>
        <time>2023-01-24T08:05:31.796Z</time>
      </trkpt>
      <trkpt lat="48.70876" lon="2.42552">
        <ele>31</ele>
        <time>2023-01-24T08:05:35.751Z</time>
      </trkpt>
      <trkpt lat="48.70874" lon="2.42539">
        <ele>32</ele>
        <time>2023-01-24T08:05:40.427Z</time>
      </trkpt>
      <trkpt lat="48.70873" lon="2.4253">
        <ele>32</ele>
        <time>2023-01-24T08:05:44.972Z</time>
      </trkpt>
      <trkpt lat="48.70873" lon="2.42521">
        <ele>32</ele>
        <time>2023-01-24T08:05:48.938Z</time>
      </trkpt>
      <trkpt lat="48.70873" lon="2.42513">
        <ele>33</ele>
        <time>2023-01-24T08:05:52.972Z</time>
      </trkpt>
      <trkpt lat="48.70873" lon="2.42505">
        <ele>33</ele>
        <time>2023-01-24T08:05:57.418Z</time>
      </trkpt>
      <trkpt lat="48.70872" lon="2.42497">
        <ele>33</ele>
        <time>2023-01-24T08:06:01.360Z</time>
      </trkpt>
      <trkpt lat="48.70872" lon="2.42488">
        <ele>33</ele>
        <time>2023-01-24T08:06:05.872Z</time>
      </trkpt>
      <trkpt lat="48.70872" lon="2.42478">
        <ele>34</ele>
        <time>2023-01-24T08:06:10.543Z</time>
      </trkpt>
      <trkpt lat="48.70871" lon="2.4247">
        <ele>34</ele>
        <time>2023-01-24T08:06:15.035Z</time>
      </trkpt>
      <trkpt lat="48.7087" lon="2.42459">
        <ele>34</ele>
        <time>2023-01-24T08:06:19.525Z</time>
      </trkpt>
      <trkpt lat="48.7087" lon="2.42449">
        <ele>35</ele>
        <time>2023-01-24T08:06:24.196Z</time>
      </trkpt>
      <trkpt lat="48.7087" lon="2.4244">
        <ele>35</ele>
        <time>2023-01-24T08:06:28.267Z</time>
      </trkpt>
      <trkpt lat="48.7087" lon="2.4243">
        <ele>36</ele>
        <time>2023-01-24T08:06:32.818Z</time>
      </trkpt>
      <trkpt lat="48.70871" lon="2.42419">
        <ele>36</ele>
        <time>2023-01-24T08:06:37.249Z</time>
      </trkpt>
      <trkpt lat="48.70871" lon="2.42409">
        <ele>36</ele>
        <time>2023-01-24T08:06:41.800Z</time>
      </trkpt>
      <trkpt lat="48.70871" lon="2.424">
        <ele>36</ele>
        <time>2023-01-24T08:06:46.302Z</time>
      </trkpt>
      <trkpt lat="48.70872" lon="2.42389">
        <ele>36</ele>
        <time>2023-01-24T08:06:50.742Z</time>
      </trkpt>
      <trkpt lat="48.70871" lon="2.4238">
        <ele>36</ele>
        <time>2023-01-24T08:06:55.194Z</time>
      </trkpt>
      <trkpt lat="48.70871" lon="2.42371">
        <ele>36</ele>
        <time>2023-01-24T08:06:59.162Z</time>
      </trkpt>
      <trkpt lat="48.70871" lon="2.42361">
        <ele>36</ele>
        <time>2023-01-24T08:07:03.592Z</time>
      </trkpt>
      <trkpt lat="48.70871" lon="2.42351">
        <ele>36</ele>
        <time>2023-01-24T08:07:07.664Z</time>
      </trkpt>
      <trkpt lat="48.70872" lon="2.42341">
        <ele>36</ele>
        <time>2023-01-24T08:07:12.215Z</time>
      </trkpt>
      <trkpt lat="48.70872" lon="2.42331">
        <ele>36</ele>
        <time>2023-01-24T08:07:16.764Z</time>
      </trkpt>
      <trkpt lat="48.70872" lon="2.42322">
        <ele>36</ele>
        <time>2023-01-24T08:07:21.196Z</time>
      </trkpt>
      <trkpt lat="48.70872" lon="2.42312">
        <ele>36</ele>
        <time>2023-01-24T08:07:25.626Z</time>
      </trkpt>
      <trkpt lat="48.70874" lon="2.42302">
        <ele>36</ele>
        <time>2023-01-24T08:07:30.175Z</time>
      </trkpt>
      <trkpt lat="48.70881" lon="2.42296">
        <ele>37</ele>
        <time>2023-01-24T08:07:34.604Z</time>
      </trkpt>
      <trkpt lat="48.70887" lon="2.42295">
        <ele>37</ele>
        <time>2023-01-24T08:07:39.153Z</time>
      </trkpt>
      <trkpt lat="48.70893" lon="2.4229">
        <ele>35</ele>
        <time>2023-01-24T08:07:43.695Z</time>
      </trkpt>
      <trkpt lat="48.70899" lon="2.42284">
        <ele>35</ele>
        <time>2023-01-24T08:07:48.192Z</time>
      </trkpt>
      <trkpt lat="48.70904" lon="2.42279">
        <ele>31</ele>
        <time>2023-01-24T08:07:52.383Z</time>
      </trkpt>
      <trkpt lat="48.70905" lon="2.42274">
        <ele>31</ele>
        <time>2023-01-24T08:07:56.453Z</time>
      </trkpt>
      <trkpt lat="48.70907" lon="2.42266">
        <ele>31</ele>
        <time>2023-01-24T08:08:00.882Z</time>
      </trkpt>
      <trkpt lat="48.70909" lon="2.42259">
        <ele>31</ele>
        <time>2023-01-24T08:08:04.832Z</time>
      </trkpt>
      <trkpt lat="48.70911" lon="2.42253">
        <ele>31</ele>
        <time>2023-01-24T08:08:09.382Z</time>
      </trkpt>
      <trkpt lat="48.70912" lon="2.42244">
        <ele>31</ele>
        <time>2023-01-24T08:08:13.331Z</time>
      </trkpt>
      <trkpt lat="48.70912" lon="2.42232">
        <ele>34</ele>
        <time>2023-01-24T08:08:17.972Z</time>
      </trkpt>
      <trkpt lat="48.70911" lon="2.42222">
        <ele>34</ele>
        <time>2023-01-24T08:08:21.953Z</time>
      </trkpt>
      <trkpt lat="48.70913" lon="2.42213">
        <ele>34</ele>
        <time>2023-01-24T08:08:26.501Z</time>
      </trkpt>
      <trkpt lat="48.70914" lon="2.42206">
        <ele>36</ele>
        <time>2023-01-24T08:08:30.963Z</time>
      </trkpt>
      <trkpt lat="48.70915" lon="2.42196">
        <ele>36</ele>
        <time>2023-01-24T08:08:34.972Z</time>
      </trkpt>
      <trkpt lat="48.70914" lon="2.42187">
        <ele>36</ele>
        <time>2023-01-24T08:08:39.455Z</time>
      </trkpt>
      <trkpt lat="48.70912" lon="2.4218">
        <ele>35</ele>
        <time>2023-01-24T08:08:43.384Z</time>
      </trkpt>
      <trkpt lat="48.7091" lon="2.42171">
        <ele>35</ele>
        <time>2023-01-24T08:08:47.498Z</time>
      </trkpt>
      <trkpt lat="48.70913" lon="2.42159">
        <ele>35</ele>
        <time>2023-01-24T08:08:51.984Z</time>
      </trkpt>
      <trkpt lat="48.70915" lon="2.42148">
        <ele>36</ele>
        <time>2023-01-24T08:08:56.437Z</time>
      </trkpt>
      <trkpt lat="48.70917" lon="2.42136">
        <ele>36</ele>
        <time>2023-01-24T08:09:00.868Z</time>
      </trkpt>
      <trkpt lat="48.70918" lon="2.42126">
        <ele>36</ele>
        <time>2023-01-24T08:09:04.820Z</time>
      </trkpt>
      <trkpt lat="48.70919" lon="2.42118">
        <ele>35</ele>
        <time>2023-01-24T08:09:08.769Z</time>
      </trkpt>
      <trkpt lat="48.7092" lon="2.42109">
        <ele>35</ele>
        <time>2023-01-24T08:09:13.403Z</time>
      </trkpt>
      <trkpt lat="48.70918" lon="2.42099">
        <ele>35</ele>
        <time>2023-01-24T08:09:17.272Z</time>
      </trkpt>
      <trkpt lat="48.70914" lon="2.42087">
        <ele>34</ele>
        <time>2023-01-24T08:09:21.825Z</time>
      </trkpt>
      <trkpt lat="48.70913" lon="2.42073">
        <ele>34</ele>
        <time>2023-01-24T08:09:26.004Z</time>
      </trkpt>
      <trkpt lat="48.70914" lon="2.42062">
        <ele>35</ele>
        <time>2023-01-24T08:09:30.188Z</time>
      </trkpt>
      <trkpt lat="48.70915" lon="2.42052">
        <ele>35</ele>
        <time>2023-01-24T08:09:34.738Z</time>
      </trkpt>
      <trkpt lat="48.70915" lon="2.42039">
        <ele>36</ele>
        <time>2023-01-24T08:09:38.810Z</time>
      </trkpt>
      <trkpt lat="48.70915" lon="2.42026">
        <ele>36</ele>
        <time>2023-01-24T08:09:43.480Z</time>
      </trkpt>
      <trkpt lat="48.70916" lon="2.42015">
        <ele>36</ele>
        <time>2023-01-24T08:09:48.012Z</time>
      </trkpt>
      <trkpt lat="48.70916" lon="2.42003">
        <ele>35</ele>
        <time>2023-01-24T08:09:52.574Z</time>
      </trkpt>
      <trkpt lat="48.70916" lon="2.41993">
        <ele>35</ele>
        <time>2023-01-24T08:09:56.593Z</time>
      </trkpt>
      <trkpt lat="48.70918" lon="2.41984">
        <ele>34</ele>
        <time>2023-01-24T08:10:01.262Z</time>
      </trkpt>
      <trkpt lat="48.7092" lon="2.41976">
        <ele>34</ele>
        <time>2023-01-24T08:10:05.940Z</time>
      </trkpt>
      <trkpt lat="48.70922" lon="2.41965">
        <ele>34</ele>
        <time>2023-01-24T08:10:10.481Z</time>
      </trkpt>
      <trkpt lat="48.70922" lon="2.4196">
        <ele>34</ele>
        <time>2023-01-24T08:10:15.051Z</time>
      </trkpt>
      <trkpt lat="48.7092" lon="2.41957">
        <ele>32</ele>
        <time>2023-01-24T08:10:18.605Z</time>
      </trkpt>
      <trkpt lat="48.7092" lon="2.41949">
        <ele>32</ele>
        <time>2023-01-24T08:10:23.513Z</time>
      </trkpt>
      <trkpt lat="48.7092" lon="2.4194">
        <ele>32</ele>
        <time>2023-01-24T08:10:28.012Z</time>
      </trkpt>
      <trkpt lat="48.70921" lon="2.41933">
        <ele>32</ele>
        <time>2023-01-24T08:10:32.456Z</time>
      </trkpt>
      <trkpt lat="48.70922" lon="2.41925">
        <ele>32</ele>
        <time>2023-01-24T08:10:36.391Z</time>
      </trkpt>
      <trkpt lat="48.70922" lon="2.4192">
        <ele>32</ele>
        <time>2023-01-24T08:10:40.345Z</time>
      </trkpt>
      <trkpt lat="48.70921" lon="2.41917">
        <ele>32</ele>
        <time>2023-01-24T08:10:44.538Z</time>
      </trkpt>
      <trkpt lat="48.70921" lon="2.41913">
        <ele>32</ele>
        <time>2023-01-24T08:10:49.045Z</time>
      </trkpt>
      <trkpt lat="48.70922" lon="2.41905">
        <ele>32</ele>
        <time>2023-01-24T08:10:53.419Z</time>
      </trkpt>
      <trkpt lat="48.70922" lon="2.41896">
        <ele>34</ele>
        <time>2023-01-24T08:10:57.358Z</time>
      </trkpt>
      <trkpt lat="48.70922" lon="2.41886">
        <ele>34</ele>
        <time>2023-01-24T08:11:01.512Z</time>
      </trkpt>
      <trkpt lat="48.70922" lon="2.41878">
        <ele>34</ele>
        <time>2023-01-24T08:11:05.547Z</time>
      </trkpt>
      <trkpt lat="48.70922" lon="2.41875">
        <ele>34</ele>
        <time>2023-01-24T08:11:09.583Z</time>
      </trkpt>
      <trkpt lat="48.70921" lon="2.41874">
        <ele>36</ele>
        <time>2023-01-24T08:11:14.973Z</time>
      </trkpt>
      <trkpt lat="48.7092" lon="2.41873">
        <ele>36</ele>
        <time>2023-01-24T08:11:19.038Z</time>
      </trkpt>
      <trkpt lat="48.7092" lon="2.41871">
        <ele>36</ele>
        <time>2023-01-24T08:11:23.799Z</time>
      </trkpt>
      <trkpt lat="48.70918" lon="2.41859">
        <ele>36</ele>
        <time>2023-01-24T08:11:28.051Z</time>
      </trkpt>
      <trkpt lat="48.70919" lon="2.41861">
        <ele>36</ele>
        <time>2023-01-24T08:11:32.005Z</time>
      </trkpt>
      <trkpt lat="48.70921" lon="2.41852">
        <ele>36</ele>
        <time>2023-01-24T08:11:36.558Z</time>
      </trkpt>
      <trkpt lat="48.70922" lon="2.41842">
        <ele>39</ele>
        <time>2023-01-24T08:11:41.012Z</time>
      </trkpt>
      <trkpt lat="48.70921" lon="2.41829">
        <ele>39</ele>
        <time>2023-01-24T08:11:45.304Z</time>
      </trkpt>
      <trkpt lat="48.7092" lon="2.4182">
        <ele>39</ele>
        <time>2023-01-24T08:11:49.780Z</time>
      </trkpt>
      <trkpt lat="48.70916" lon="2.41808">
        <ele>39</ele>
        <time>2023-01-24T08:11:54.171Z</time>
      </trkpt>
      <trkpt lat="48.70913" lon="2.41799">
        <ele>39</ele>
        <time>2023-01-24T08:11:58.621Z</time>
      </trkpt>
      <trkpt lat="48.70909" lon="2.41791">
        <ele>38</ele>
        <time>2023-01-24T08:12:02.801Z</time>
      </trkpt>
      <trkpt lat="48.70907" lon="2.41782">
        <ele>38</ele>
        <time>2023-01-24T08:12:07.576Z</time>
      </trkpt>
      <trkpt lat="48.70904" lon="2.41776">
        <ele>38</ele>
        <time>2023-01-24T08:12:12.249Z</time>
      </trkpt>
      <trkpt lat="48.70899" lon="2.4177">
        <ele>38</ele>
        <time>2023-01-24T08:12:16.204Z</time>
      </trkpt>
      <trkpt lat="48.70894" lon="2.41763">
        <ele>35</ele>
        <time>2023-01-24T08:12:20.981Z</time>
      </trkpt>
      <trkpt lat="48.70892" lon="2.41753">
        <ele>35</ele>
        <time>2023-01-24T08:12:25.036Z</time>
      </trkpt>
      <trkpt lat="48.7089" lon="2.41743">
        <ele>35</ele>
        <time>2023-01-24T08:12:29.624Z</time>
      </trkpt>
      <trkpt lat="48.70888" lon="2.41735">
        <ele>34</ele>
        <time>2023-01-24T08:12:34.378Z</time>
      </trkpt>
      <trkpt lat="48.70887" lon="2.41728">
        <ele>34</ele>
        <time>2023-01-24T08:12:38.822Z</time>
      </trkpt>
      <trkpt lat="48.70885" lon="2.41722">
        <ele>34</ele>
        <time>2023-01-24T08:12:43.194Z</time>
      </trkpt>
      <trkpt lat="48.70883" lon="2.41714">
        <ele>34</ele>
        <time>2023-01-24T08:12:47.354Z</time>
      </trkpt>
      <trkpt lat="48.7088" lon="2.41703">
        <ele>34</ele>
        <time>2023-01-24T08:12:51.502Z</time>
      </trkpt>
      <trkpt lat="48.70874" lon="2.41696">
        <ele>34</ele>
        <time>2023-01-24T08:12:55.522Z</time>
      </trkpt>
      <trkpt lat="48.70873" lon="2.41689">
        <ele>34</ele>
        <time>2023-01-24T08:13:00.016Z</time>
      </trkpt>
      <trkpt lat="48.7087" lon="2.41679">
        <ele>34</ele>
        <time>2023-01-24T08:13:04.733Z</time>
      </trkpt>
      <trkpt lat="48.70867" lon="2.41669">
        <ele>34</ele>
        <time>2023-01-24T08:13:09.212Z</time>
      </trkpt>
      <trkpt lat="48.70865" lon="2.41664">
        <ele>34</ele>
        <time>2023-01-24T08:13:13.969Z</time>
      </trkpt>
      <trkpt lat="48.70861" lon="2.41656">
        <ele>34</ele>
        <time>2023-01-24T08:13:18.810Z</time>
      </trkpt>
      <trkpt lat="48.7086" lon="2.41644">
        <ele>34</ele>
        <time>2023-01-24T08:13:24.012Z</time>
      </trkpt>
      <trkpt lat="48.70856" lon="2.41636">
        <ele>34</ele>
        <time>2023-01-24T08:13:28.287Z</time>
      </trkpt>
      <trkpt lat="48.70853" lon="2.41629">
        <ele>34</ele>
        <time>2023-01-24T08:13:32.205Z</time>
      </trkpt>
      <trkpt lat="48.70857" lon="2.41611">
        <ele>34</ele>
        <time>2023-01-24T08:14:58.811Z</time>
      </trkpt>
      <trkpt lat="48.70859" lon="2.41608">
        <ele>34</ele>
        <time>2023-01-24T08:15:03.087Z</time>
      </trkpt>
      <trkpt lat="48.70863" lon="2.41599">
        <ele>34</ele>
        <time>2023-01-24T08:15:07.587Z</time>
      </trkpt>
      <trkpt lat="48.70866" lon="2.41589">
        <ele>35</ele>
        <time>2023-01-24T08:15:11.987Z</time>
      </trkpt>
      <trkpt lat="48.70864" lon="2.41581">
        <ele>35</ele>
        <time>2023-01-24T08:15:15.865Z</time>
      </trkpt>
      <trkpt lat="48.70861" lon="2.41575">
        <ele>35</ele>
        <time>2023-01-24T08:15:19.844Z</time>
      </trkpt>
      <trkpt lat="48.70859" lon="2.41565">
        <ele>35</ele>
        <time>2023-01-24T08:15:24.341Z</time>
      </trkpt>
      <trkpt lat="48.70859" lon="2.41557">
        <ele>35</ele>
        <time>2023-01-24T08:15:29.037Z</time>
      </trkpt>
      <trkpt lat="48.70857" lon="2.41557">
        <ele>35</ele>
        <time>2023-01-24T08:15:33.045Z</time>
      </trkpt>
      <trkpt lat="48.70859" lon="2.41553">
        <ele>35</ele>
        <time>2023-01-24T08:15:37.128Z</time>
      </trkpt>
      <trkpt lat="48.70854" lon="2.41545">
        <ele>35</ele>
        <time>2023-01-24T08:15:41.658Z</time>
      </trkpt>
      <trkpt lat="48.70856" lon="2.41535">
        <ele>37</ele>
        <time>2023-01-24T08:15:45.620Z</time>
      </trkpt>
      <trkpt lat="48.70856" lon="2.41526">
        <ele>37</ele>
        <time>2023-01-24T08:15:49.577Z</time>
      </trkpt>
      <trkpt lat="48.70853" lon="2.41516">
        <ele>37</ele>
        <time>2023-01-24T08:15:54.203Z</time>
      </trkpt>
      <trkpt lat="48.70847" lon="2.41506">
        <ele>37</ele>
        <time>2023-01-24T08:15:58.165Z</time>
      </trkpt>
      <trkpt lat="48.70843" lon="2.41501">
        <ele>37</ele>
        <time>2023-01-24T08:16:02.700Z</time>
      </trkpt>
      <trkpt lat="48.70839" lon="2.41494">
        <ele>37</ele>
        <time>2023-01-24T08:16:06.795Z</time>
      </trkpt>
      <trkpt lat="48.70837" lon="2.41486">
        <ele>37</ele>
        <time>2023-01-24T08:16:10.747Z</time>
      </trkpt>
      <trkpt lat="48.70833" lon="2.41479">
        <ele>38</ele>
        <time>2023-01-24T08:16:15.254Z</time>
      </trkpt>
      <trkpt lat="48.7083" lon="2.41474">
        <ele>38</ele>
        <time>2023-01-24T08:16:19.375Z</time>
      </trkpt>
      <trkpt lat="48.70825" lon="2.41469">
        <ele>38</ele>
        <time>2023-01-24T08:16:23.762Z</time>
      </trkpt>
      <trkpt lat="48.70821" lon="2.41464">
        <ele>38</ele>
        <time>2023-01-24T08:16:27.956Z</time>
      </trkpt>
      <trkpt lat="48.70817" lon="2.41458">
        <ele>37</ele>
        <time>2023-01-24T08:16:32Z</time>
      </trkpt>
      <trkpt lat="48.70812" lon="2.41451">
        <ele>37</ele>
        <time>2023-01-24T08:16:36.375Z</time>
      </trkpt>
      <trkpt lat="48.70807" lon="2.41447">
        <ele>37</ele>
        <time>2023-01-24T08:16:40.570Z</time>
      </trkpt>
      <trkpt lat="48.70803" lon="2.41441">
        <ele>37</ele>
        <time>2023-01-24T08:16:45.050Z</time>
      </trkpt>
      <trkpt lat="48.70801" lon="2.41431">
        <ele>37</ele>
        <time>2023-01-24T08:16:49.440Z</time>
      </trkpt>
      <trkpt lat="48.70798" lon="2.41422">
        <ele>37</ele>
        <time>2023-01-24T08:16:54.236Z</time>
      </trkpt>
      <trkpt lat="48.70794" lon="2.41417">
        <ele>37</ele>
        <time>2023-01-24T08:16:58.792Z</time>
      </trkpt>
      <trkpt lat="48.70792" lon="2.41415">
        <ele>37</ele>
        <time>2023-01-24T08:17:02.747Z</time>
      </trkpt>
      <trkpt lat="48.7079" lon="2.41411">
        <ele>37</ele>
        <time>2023-01-24T08:17:06.821Z</time>
      </trkpt>
      <trkpt lat="48.70785" lon="2.41403">
        <ele>37</ele>
        <time>2023-01-24T08:17:11.615Z</time>
      </trkpt>
      <trkpt lat="48.70779" lon="2.41398">
        <ele>37</ele>
        <time>2023-01-24T08:17:15.572Z</time>
      </trkpt>
      <trkpt lat="48.70774" lon="2.41391">
        <ele>37</ele>
        <time>2023-01-24T08:17:20.342Z</time>
      </trkpt>
      <trkpt lat="48.70773" lon="2.41381">
        <ele>37</ele>
        <time>2023-01-24T08:17:24.687Z</time>
      </trkpt>
      <trkpt lat="48.70768" lon="2.41373">
        <ele>38</ele>
        <time>2023-01-24T08:17:29.145Z</time>
      </trkpt>
      <trkpt lat="48.70764" lon="2.41367">
        <ele>38</ele>
        <time>2023-01-24T08:17:33.783Z</time>
      </trkpt>
      <trkpt lat="48.70761" lon="2.41361">
        <ele>38</ele>
        <time>2023-01-24T08:17:37.902Z</time>
      </trkpt>
      <trkpt lat="48.70758" lon="2.41353">
        <ele>38</ele>
        <time>2023-01-24T08:17:42.300Z</time>
      </trkpt>
      <trkpt lat="48.70756" lon="2.41342">
        <ele>38</ele>
        <time>2023-01-24T08:17:46.901Z</time>
      </trkpt>
      <trkpt lat="48.70752" lon="2.41333">
        <ele>38</ele>
        <time>2023-01-24T08:17:50.559Z</time>
      </trkpt>
      <trkpt lat="48.70748" lon="2.41322">
        <ele>38</ele>
        <time>2023-01-24T08:17:55.178Z</time>
      </trkpt>
      <trkpt lat="48.70744" lon="2.41313">
        <ele>38</ele>
        <time>2023-01-24T08:17:59.695Z</time>
      </trkpt>
      <trkpt lat="48.70742" lon="2.41305">
        <ele>38</ele>
        <time>2023-01-24T08:18:04.142Z</time>
      </trkpt>
      <trkpt lat="48.70739" lon="2.41299">
        <ele>38</ele>
        <time>2023-01-24T08:18:08.171Z</time>
      </trkpt>
      <trkpt lat="48.70736" lon="2.41294">
        <ele>38</ele>
        <time>2023-01-24T08:18:12.194Z</time>
      </trkpt>
      <trkpt lat="48.70734" lon="2.4129">
        <ele>37</ele>
        <time>2023-01-24T08:18:16.398Z</time>
      </trkpt>
      <trkpt lat="48.70732" lon="2.41286">
        <ele>37</ele>
        <time>2023-01-24T08:18:20.435Z</time>
      </trkpt>
      <trkpt lat="48.7073" lon="2.41281">
        <ele>37</ele>
        <time>2023-01-24T08:18:24.273Z</time>
      </trkpt>
      <trkpt lat="48.70727" lon="2.41276">
        <ele>37</ele>
        <time>2023-01-24T08:18:28.763Z</time>
      </trkpt>
      <trkpt lat="48.70723" lon="2.41269">
        <ele>37</ele>
        <time>2023-01-24T08:18:33.267Z</time>
      </trkpt>
      <trkpt lat="48.7072" lon="2.41263">
        <ele>37</ele>
        <time>2023-01-24T08:18:37.824Z</time>
      </trkpt>
      <trkpt lat="48.70716" lon="2.41256">
        <ele>37</ele>
        <time>2023-01-24T08:18:42.462Z</time>
      </trkpt>
      <trkpt lat="48.70711" lon="2.41248">
        <ele>37</ele>
        <time>2023-01-24T08:18:46.573Z</time>
      </trkpt>
      <trkpt lat="48.70707" lon="2.41239">
        <ele>36</ele>
        <time>2023-01-24T08:18:51.242Z</time>
      </trkpt>
      <trkpt lat="48.70703" lon="2.4123">
        <ele>36</ele>
        <time>2023-01-24T08:18:55.604Z</time>
      </trkpt>
      <trkpt lat="48.70697" lon="2.4122">
        <ele>36</ele>
        <time>2023-01-24T08:19:00.100Z</time>
      </trkpt>
      <trkpt lat="48.70691" lon="2.41209">
        <ele>36</ele>
        <time>2023-01-24T08:19:04.614Z</time>
      </trkpt>
      <trkpt lat="48.70687" lon="2.41199">
        <ele>37</ele>
        <time>2023-01-24T08:19:08.569Z</time>
      </trkpt>
      <trkpt lat="48.70683" lon="2.41188">
        <ele>37</ele>
        <time>2023-01-24T08:19:13.044Z</time>
      </trkpt>
      <trkpt lat="48.70677" lon="2.41177">
        <ele>36</ele>
        <time>2023-01-24T08:19:17.198Z</time>
      </trkpt>
      <trkpt lat="48.70673" lon="2.41168">
        <ele>36</ele>
        <time>2023-01-24T08:19:21.732Z</time>
      </trkpt>
      <trkpt lat="48.7067" lon="2.4116">
        <ele>36</ele>
        <time>2023-01-24T08:19:25.805Z</time>
      </trkpt>
      <trkpt lat="48.70666" lon="2.41151">
        <ele>37</ele>
        <time>2023-01-24T08:19:30.362Z</time>
      </trkpt>
      <trkpt lat="48.70663" lon="2.41142">
        <ele>37</ele>
        <time>2023-01-24T08:19:34.433Z</time>
      </trkpt>
      <trkpt lat="48.70661" lon="2.41132">
        <ele>37</ele>
        <time>2023-01-24T08:19:39.031Z</time>
      </trkpt>
      <trkpt lat="48.70658" lon="2.41124">
        <ele>38</ele>
        <time>2023-01-24T08:19:43.012Z</time>
      </trkpt>
      <trkpt lat="48.70651" lon="2.41115">
        <ele>36</ele>
        <time>2023-01-24T08:19:47.554Z</time>
      </trkpt>
      <trkpt lat="48.70646" lon="2.41108">
        <ele>36</ele>
        <time>2023-01-24T08:19:51.702Z</time>
      </trkpt>
      <trkpt lat="48.70642" lon="2.41101">
        <ele>36</ele>
        <time>2023-01-24T08:19:56.162Z</time>
      </trkpt>
      <trkpt lat="48.70639" lon="2.41092">
        <ele>36</ele>
        <time>2023-01-24T08:20:00.236Z</time>
      </trkpt>
      <trkpt lat="48.70635" lon="2.41082">
        <ele>36</ele>
        <time>2023-01-24T08:20:04.788Z</time>
      </trkpt>
      <trkpt lat="48.7063" lon="2.4107">
        <ele>36</ele>
        <time>2023-01-24T08:20:09.462Z</time>
      </trkpt>
      <trkpt lat="48.70626" lon="2.4106">
        <ele>36</ele>
        <time>2023-01-24T08:20:13.894Z</time>
      </trkpt>
      <trkpt lat="48.70622" lon="2.41049">
        <ele>35</ele>
        <time>2023-01-24T08:20:18.568Z</time>
      </trkpt>
      <trkpt lat="48.70617" lon="2.4104">
        <ele>34</ele>
        <time>2023-01-24T08:20:23.080Z</time>
      </trkpt>
      <trkpt lat="48.70613" lon="2.41032">
        <ele>34</ele>
        <time>2023-01-24T08:20:27.518Z</time>
      </trkpt>
      <trkpt lat="48.70609" lon="2.41023">
        <ele>34</ele>
        <time>2023-01-24T08:20:31.631Z</time>
      </trkpt>
      <trkpt lat="48.70604" lon="2.41014">
        <ele>34</ele>
        <time>2023-01-24T08:20:36.257Z</time>
      </trkpt>
      <trkpt lat="48.706" lon="2.41004">
        <ele>34</ele>
        <time>2023-01-24T08:20:40.724Z</time>
      </trkpt>
      <trkpt lat="48.70597" lon="2.40994">
        <ele>33</ele>
        <time>2023-01-24T08:20:45.234Z</time>
      </trkpt>
      <trkpt lat="48.70593" lon="2.40986">
        <ele>32</ele>
        <time>2023-01-24T08:20:50.009Z</time>
      </trkpt>
      <trkpt lat="48.70589" lon="2.40978">
        <ele>32</ele>
        <time>2023-01-24T08:20:54.204Z</time>
      </trkpt>
      <trkpt lat="48.70586" lon="2.4097">
        <ele>32</ele>
        <time>2023-01-24T08:20:58.758Z</time>
      </trkpt>
      <trkpt lat="48.70583" lon="2.4096">
        <ele>32</ele>
        <time>2023-01-24T08:21:03.315Z</time>
      </trkpt>
      <trkpt lat="48.70579" lon="2.40951">
        <ele>31</ele>
        <time>2023-01-24T08:21:07.871Z</time>
      </trkpt>
      <trkpt lat="48.70577" lon="2.40943">
        <ele>31</ele>
        <time>2023-01-24T08:21:11.708Z</time>
      </trkpt>
      <trkpt lat="48.70573" lon="2.40935">
        <ele>31</ele>
        <time>2023-01-24T08:21:16.198Z</time>
      </trkpt>
      <trkpt lat="48.7057" lon="2.40926">
        <ele>32</ele>
        <time>2023-01-24T08:21:20.262Z</time>
      </trkpt>
      <trkpt lat="48.70566" lon="2.40917">
        <ele>32</ele>
        <time>2023-01-24T08:21:24.936Z</time>
      </trkpt>
      <trkpt lat="48.70562" lon="2.40908">
        <ele>32</ele>
        <time>2023-01-24T08:21:29.491Z</time>
      </trkpt>
      <trkpt lat="48.70559" lon="2.40899">
        <ele>33</ele>
        <time>2023-01-24T08:21:34.046Z</time>
      </trkpt>
      <trkpt lat="48.70556" lon="2.40891">
        <ele>33</ele>
        <time>2023-01-24T08:21:38.041Z</time>
      </trkpt>
      <trkpt lat="48.70554" lon="2.40883">
        <ele>33</ele>
        <time>2023-01-24T08:21:42.195Z</time>
      </trkpt>
      <trkpt lat="48.7055" lon="2.40874">
        <ele>34</ele>
        <time>2023-01-24T08:21:46.634Z</time>
      </trkpt>
      <trkpt lat="48.70547" lon="2.40866">
        <ele>34</ele>
        <time>2023-01-24T08:21:50.688Z</time>
      </trkpt>
      <trkpt lat="48.70543" lon="2.40861">
        <ele>34</ele>
        <time>2023-01-24T08:21:55.356Z</time>
      </trkpt>
      <trkpt lat="48.70538" lon="2.40855">
        <ele>34</ele>
        <time>2023-01-24T08:21:59.541Z</time>
      </trkpt>
      <trkpt lat="48.70533" lon="2.40851">
        <ele>34</ele>
        <time>2023-01-24T08:22:03.537Z</time>
      </trkpt>
      <trkpt lat="48.70528" lon="2.40849">
        <ele>34</ele>
        <time>2023-01-24T08:22:08.045Z</time>
      </trkpt>
      <trkpt lat="48.70523" lon="2.40848">
        <ele>34</ele>
        <time>2023-01-24T08:22:12.585Z</time>
      </trkpt>
      <trkpt lat="48.70516" lon="2.40844">
        <ele>34</ele>
        <time>2023-01-24T08:22:17.219Z</time>
      </trkpt>
      <trkpt lat="48.70511" lon="2.40839">
        <ele>32</ele>
        <time>2023-01-24T08:22:21.293Z</time>
      </trkpt>
      <trkpt lat="48.70505" lon="2.40834">
        <ele>32</ele>
        <time>2023-01-24T08:22:25.248Z</time>
      </trkpt>
      <trkpt lat="48.70499" lon="2.40828">
        <ele>32</ele>
        <time>2023-01-24T08:22:29.802Z</time>
      </trkpt>
      <trkpt lat="48.70492" lon="2.40824">
        <ele>32</ele>
        <time>2023-01-24T08:22:34.475Z</time>
      </trkpt>
      <trkpt lat="48.70486" lon="2.40821">
        <ele>32</ele>
        <time>2023-01-24T08:22:39.012Z</time>
      </trkpt>
      <trkpt lat="48.70482" lon="2.40816">
        <ele>31</ele>
        <time>2023-01-24T08:22:43.461Z</time>
      </trkpt>
      <trkpt lat="48.70478" lon="2.40812">
        <ele>31</ele>
        <time>2023-01-24T08:22:47.819Z</time>
      </trkpt>
      <trkpt lat="48.70474" lon="2.40808">
        <ele>31</ele>
        <time>2023-01-24T08:22:51.829Z</time>
      </trkpt>
      <trkpt lat="48.7047" lon="2.40803">
        <ele>31</ele>
        <time>2023-01-24T08:22:55.850Z</time>
      </trkpt>
      <trkpt lat="48.7046" lon="2.40795">
        <ele>31</ele>
        <time>2023-01-24T08:23:00.355Z</time>
      </trkpt>
      <trkpt lat="48.7045" lon="2.40784">
        <ele>33</ele>
        <time>2023-01-24T08:23:04.636Z</time>
      </trkpt>
      <trkpt lat="48.7044" lon="2.40777">
        <ele>33</ele>
        <time>2023-01-24T08:23:09.197Z</time>
      </trkpt>
      <trkpt lat="48.70434" lon="2.40773">
        <ele>33</ele>
        <time>2023-01-24T08:23:13.654Z</time>
      </trkpt>
      <trkpt lat="48.70432" lon="2.40763">
        <ele>33</ele>
        <time>2023-01-24T08:23:18.232Z</time>
      </trkpt>
      <trkpt lat="48.70435" lon="2.40756">
        <ele>33</ele>
        <time>2023-01-24T08:23:22.532Z</time>
      </trkpt>
      <trkpt lat="48.70439" lon="2.40751">
        <ele>33</ele>
        <time>2023-01-24T08:23:26.372Z</time>
      </trkpt>
      <trkpt lat="48.70442" lon="2.40745">
        <ele>33</ele>
        <time>2023-01-24T08:23:31.782Z</time>
      </trkpt>
      <trkpt lat="48.70445" lon="2.40741">
        <ele>33</ele>
        <time>2023-01-24T08:23:35.691Z</time>
      </trkpt>
      <trkpt lat="48.70448" lon="2.40734">
        <ele>33</ele>
        <time>2023-01-24T08:23:40.121Z</time>
      </trkpt>
      <trkpt lat="48.70453" lon="2.40726">
        <ele>33</ele>
        <time>2023-01-24T08:23:44.642Z</time>
      </trkpt>
      <trkpt lat="48.70458" lon="2.4072">
        <ele>33</ele>
        <time>2023-01-24T08:23:48.567Z</time>
      </trkpt>
      <trkpt lat="48.70462" lon="2.40713">
        <ele>34</ele>
        <time>2023-01-24T08:23:53.177Z</time>
      </trkpt>
      <trkpt lat="48.70467" lon="2.40706">
        <ele>35</ele>
        <time>2023-01-24T08:23:57.661Z</time>
      </trkpt>
      <trkpt lat="48.70474" lon="2.407">
        <ele>35</ele>
        <time>2023-01-24T08:24:02.201Z</time>
      </trkpt>
      <trkpt lat="48.70479" lon="2.40695">
        <ele>35</ele>
        <time>2023-01-24T08:24:06.178Z</time>
      </trkpt>
      <trkpt lat="48.70484" lon="2.40685">
        <ele>35</ele>
        <time>2023-01-24T08:24:10.597Z</time>
      </trkpt>
      <trkpt lat="48.70486" lon="2.40673">
        <ele>35</ele>
        <time>2023-01-24T08:24:14.535Z</time>
      </trkpt>
      <trkpt lat="48.70486" lon="2.40662">
        <ele>35</ele>
        <time>2023-01-24T08:24:19.012Z</time>
      </trkpt>
      <trkpt lat="48.70484" lon="2.40651">
        <ele>35</ele>
        <time>2023-01-24T08:24:23.395Z</time>
      </trkpt>
      <trkpt lat="48.70482" lon="2.40641">
        <ele>35</ele>
        <time>2023-01-24T08:24:27.731Z</time>
      </trkpt>
      <trkpt lat="48.70481" lon="2.40632">
        <ele>35</ele>
        <time>2023-01-24T08:24:32.882Z</time>
      </trkpt>
      <trkpt lat="48.7048" lon="2.40624">
        <ele>36</ele>
        <time>2023-01-24T08:24:37.328Z</time>
      </trkpt>
      <trkpt lat="48.70479" lon="2.40616">
        <ele>36</ele>
        <time>2023-01-24T08:24:41.368Z</time>
      </trkpt>
      <trkpt lat="48.70478" lon="2.40605">
        <ele>36</ele>
        <time>2023-01-24T08:24:45.607Z</time>
      </trkpt>
      <trkpt lat="48.70476" lon="2.40597">
        <ele>37</ele>
        <time>2023-01-24T08:24:49.665Z</time>
      </trkpt>
      <trkpt lat="48.70474" lon="2.40586">
        <ele>37</ele>
        <time>2023-01-24T08:24:54.803Z</time>
      </trkpt>
      <trkpt lat="48.70472" lon="2.40578">
        <ele>37</ele>
        <time>2023-01-24T08:24:58.742Z</time>
      </trkpt>
      <trkpt lat="48.70471" lon="2.40569">
        <ele>37</ele>
        <time>2023-01-24T08:25:02.740Z</time>
      </trkpt>
      <trkpt lat="48.70469" lon="2.40558">
        <ele>37</ele>
        <time>2023-01-24T08:25:07.159Z</time>
      </trkpt>
      <trkpt lat="48.70467" lon="2.40548">
        <ele>37</ele>
        <time>2023-01-24T08:25:11.598Z</time>
      </trkpt>
      <trkpt lat="48.70465" lon="2.40537">
        <ele>36</ele>
        <time>2023-01-24T08:25:15.597Z</time>
      </trkpt>
      <trkpt lat="48.70463" lon="2.40527">
        <ele>36</ele>
        <time>2023-01-24T08:25:20.215Z</time>
      </trkpt>
      <trkpt lat="48.70462" lon="2.40519">
        <ele>36</ele>
        <time>2023-01-24T08:25:24.214Z</time>
      </trkpt>
      <trkpt lat="48.7046" lon="2.4051">
        <ele>34</ele>
        <time>2023-01-24T08:25:28.552Z</time>
      </trkpt>
      <trkpt lat="48.7046" lon="2.40501">
        <ele>34</ele>
        <time>2023-01-24T08:25:33.040Z</time>
      </trkpt>
      <trkpt lat="48.70459" lon="2.4049">
        <ele>34</ele>
        <time>2023-01-24T08:25:37.609Z</time>
      </trkpt>
      <trkpt lat="48.70458" lon="2.4048">
        <ele>34</ele>
        <time>2023-01-24T08:25:42.359Z</time>
      </trkpt>
      <trkpt lat="48.70456" lon="2.40473">
        <ele>34</ele>
        <time>2023-01-24T08:25:46.364Z</time>
      </trkpt>
      <trkpt lat="48.70456" lon="2.40463">
        <ele>34</ele>
        <time>2023-01-24T08:25:50.562Z</time>
      </trkpt>
      <trkpt lat="48.70455" lon="2.40454">
        <ele>37</ele>
        <time>2023-01-24T08:25:55.199Z</time>
      </trkpt>
      <trkpt lat="48.70455" lon="2.40446">
        <ele>37</ele>
        <time>2023-01-24T08:25:59.319Z</time>
      </trkpt>
      <trkpt lat="48.70455" lon="2.40437">
        <ele>37</ele>
        <time>2023-01-24T08:26:03.400Z</time>
      </trkpt>
      <trkpt lat="48.70455" lon="2.40428">
        <ele>38</ele>
        <time>2023-01-24T08:26:07.396Z</time>
      </trkpt>
      <trkpt lat="48.70454" lon="2.40421">
        <ele>38</ele>
        <time>2023-01-24T08:26:11.375Z</time>
      </trkpt>
      <trkpt lat="48.70453" lon="2.40411">
        <ele>38</ele>
        <time>2023-01-24T08:26:15.414Z</time>
      </trkpt>
      <trkpt lat="48.70452" lon="2.404">
        <ele>38</ele>
        <time>2023-01-24T08:26:19.413Z</time>
      </trkpt>
      <trkpt lat="48.7045" lon="2.4039">
        <ele>38</ele>
        <time>2023-01-24T08:26:24.073Z</time>
      </trkpt>
      <trkpt lat="48.7045" lon="2.40379">
        <ele>38</ele>
        <time>2023-01-24T08:26:28.533Z</time>
      </trkpt>
      <trkpt lat="48.7045" lon="2.4037">
        <ele>36</ele>
        <time>2023-01-24T08:26:32.293Z</time>
      </trkpt>
      <trkpt lat="48.70447" lon="2.4036">
        <ele>36</ele>
        <time>2023-01-24T08:26:36.553Z</time>
      </trkpt>
      <trkpt lat="48.70443" lon="2.40353">
        <ele>36</ele>
        <time>2023-01-24T08:26:40.975Z</time>
      </trkpt>
      <trkpt lat="48.70438" lon="2.40347">
        <ele>36</ele>
        <time>2023-01-24T08:26:45.041Z</time>
      </trkpt>
      <trkpt lat="48.7043" lon="2.40343">
        <ele>35</ele>
        <time>2023-01-24T08:26:49.492Z</time>
      </trkpt>
      <trkpt lat="48.70424" lon="2.40343">
        <ele>35</ele>
        <time>2023-01-24T08:26:54.061Z</time>
      </trkpt>
      <trkpt lat="48.70419" lon="2.4034">
        <ele>35</ele>
        <time>2023-01-24T08:26:58.210Z</time>
      </trkpt>
      <trkpt lat="48.70412" lon="2.40336">
        <ele>35</ele>
        <time>2023-01-24T08:27:02.589Z</time>
      </trkpt>
      <trkpt lat="48.70406" lon="2.40332">
        <ele>35</ele>
        <time>2023-01-24T08:27:07.340Z</time>
      </trkpt>
      <trkpt lat="48.70401" lon="2.40329">
        <ele>34</ele>
        <time>2023-01-24T08:27:11.721Z</time>
      </trkpt>
      <trkpt lat="48.70397" lon="2.40324">
        <ele>34</ele>
        <time>2023-01-24T08:27:15.627Z</time>
      </trkpt>
      <trkpt lat="48.70392" lon="2.4032">
        <ele>34</ele>
        <time>2023-01-24T08:27:20.046Z</time>
      </trkpt>
      <trkpt lat="48.70388" lon="2.40316">
        <ele>35</ele>
        <time>2023-01-24T08:27:24.584Z</time>
      </trkpt>
      <trkpt lat="48.70387" lon="2.40309">
        <ele>35</ele>
        <time>2023-01-24T08:27:29.643Z</time>
      </trkpt>
      <trkpt lat="48.70384" lon="2.40307">
        <ele>35</ele>
        <time>2023-01-24T08:27:34.174Z</time>
      </trkpt>
      <trkpt lat="48.70379" lon="2.40303">
        <ele>35</ele>
        <time>2023-01-24T08:27:38.574Z</time>
      </trkpt>
      <trkpt lat="48.70371" lon="2.403">
        <ele>34</ele>
        <time>2023-01-24T08:27:43.100Z</time>
      </trkpt>
      <trkpt lat="48.70366" lon="2.40299">
        <ele>34</ele>
        <time>2023-01-24T08:27:47.738Z</time>
      </trkpt>
      <trkpt lat="48.70361" lon="2.40297">
        <ele>34</ele>
        <time>2023-01-24T08:27:52.356Z</time>
      </trkpt>
      <trkpt lat="48.70355" lon="2.40295">
        <ele>34</ele>
        <time>2023-01-24T08:27:56.393Z</time>
      </trkpt>
      <trkpt lat="48.70352" lon="2.40293">
        <ele>34</ele>
        <time>2023-01-24T08:28:00.591Z</time>
      </trkpt>
      <trkpt lat="48.70347" lon="2.40291">
        <ele>33</ele>
        <time>2023-01-24T08:28:04.550Z</time>
      </trkpt>
      <trkpt lat="48.70341" lon="2.40289">
        <ele>31</ele>
        <time>2023-01-24T08:28:09.188Z</time>
      </trkpt>
      <trkpt lat="48.70338" lon="2.40287">
        <ele>31</ele>
        <time>2023-01-24T08:28:13.707Z</time>
      </trkpt>
      <trkpt lat="48.70329" lon="2.40285">
        <ele>31</ele>
        <time>2023-01-24T08:28:18.138Z</time>
      </trkpt>
      <trkpt lat="48.7032" lon="2.40283">
        <ele>31</ele>
        <time>2023-01-24T08:28:22.386Z</time>
      </trkpt>
      <trkpt lat="48.70314" lon="2.4028">
        <ele>30</ele>
        <time>2023-01-24T08:28:27.039Z</time>
      </trkpt>
      <trkpt lat="48.70309" lon="2.40278">
        <ele>30</ele>
        <time>2023-01-24T08:28:31.484Z</time>
      </trkpt>
      <trkpt lat="48.70302" lon="2.40275">
        <ele>30</ele>
        <time>2023-01-24T08:28:35.744Z</time>
      </trkpt>
      <trkpt lat="48.70297" lon="2.40273">
        <ele>30</ele>
        <time>2023-01-24T08:28:39.805Z</time>
      </trkpt>
      <trkpt lat="48.70292" lon="2.40269">
        <ele>30</ele>
        <time>2023-01-24T08:28:44.310Z</time>
      </trkpt>
      <trkpt lat="48.70289" lon="2.40268">
        <ele>33</ele>
        <time>2023-01-24T08:28:48.827Z</time>
      </trkpt>
      <trkpt lat="48.70285" lon="2.40258">
        <ele>34</ele>
        <time>2023-01-24T08:28:53.345Z</time>
      </trkpt>
      <trkpt lat="48.70273" lon="2.4025">
        <ele>34</ele>
        <time>2023-01-24T08:28:57.359Z</time>
      </trkpt>
      <trkpt lat="48.70263" lon="2.40243">
        <ele>36</ele>
        <time>2023-01-24T08:29:01.872Z</time>
      </trkpt>
      <trkpt lat="48.70255" lon="2.40237">
        <ele>36</ele>
        <time>2023-01-24T08:29:05.983Z</time>
      </trkpt>
      <trkpt lat="48.70247" lon="2.40235">
        <ele>35</ele>
        <time>2023-01-24T08:29:10.491Z</time>
      </trkpt>
      <trkpt lat="48.70241" lon="2.40235">
        <ele>35</ele>
        <time>2023-01-24T08:29:14.500Z</time>
      </trkpt>
      <trkpt lat="48.70237" lon="2.40235">
        <ele>35</ele>
        <time>2023-01-24T08:29:19.011Z</time>
      </trkpt>
      <trkpt lat="48.70231" lon="2.40233">
        <ele>35</ele>
        <time>2023-01-24T08:29:23.120Z</time>
      </trkpt>
      <trkpt lat="48.70224" lon="2.4023">
        <ele>35</ele>
        <time>2023-01-24T08:29:27.128Z</time>
      </trkpt>
      <trkpt lat="48.70217" lon="2.40228">
        <ele>35</ele>
        <time>2023-01-24T08:29:31.738Z</time>
      </trkpt>
      <trkpt lat="48.70211" lon="2.40227">
        <ele>35</ele>
        <time>2023-01-24T08:29:35.744Z</time>
      </trkpt>
      <trkpt lat="48.70205" lon="2.40225">
        <ele>37</ele>
        <time>2023-01-24T08:29:40.252Z</time>
      </trkpt>
      <trkpt lat="48.70201" lon="2.40223">
        <ele>37</ele>
        <time>2023-01-24T08:29:44.361Z</time>
      </trkpt>
      <trkpt lat="48.70197" lon="2.40222">
        <ele>37</ele>
        <time>2023-01-24T08:29:48.370Z</time>
      </trkpt>
      <trkpt lat="48.70193" lon="2.4022">
        <ele>37</ele>
        <time>2023-01-24T08:29:52.378Z</time>
      </trkpt>
      <trkpt lat="48.70191" lon="2.40219">
        <ele>37</ele>
        <time>2023-01-24T08:29:56.385Z</time>
      </trkpt>
      <trkpt lat="48.70186" lon="2.40215">
        <ele>37</ele>
        <time>2023-01-24T08:30:00.893Z</time>
      </trkpt>
      <trkpt lat="48.7018" lon="2.40211">
        <ele>37</ele>
        <time>2023-01-24T08:30:04.902Z</time>
      </trkpt>
      <trkpt lat="48.70173" lon="2.40205">
        <ele>37</ele>
        <time>2023-01-24T08:30:09.413Z</time>
      </trkpt>
      <trkpt lat="48.70167" lon="2.40201">
        <ele>37</ele>
        <time>2023-01-24T08:30:13.922Z</time>
      </trkpt>
      <trkpt lat="48.70162" lon="2.40197">
        <ele>37</ele>
        <time>2023-01-24T08:30:18.430Z</time>
      </trkpt>
      <trkpt lat="48.70157" lon="2.40194">
        <ele>37</ele>
        <time>2023-01-24T08:30:22.538Z</time>
      </trkpt>
      <trkpt lat="48.70153" lon="2.40192">
        <ele>37</ele>
        <time>2023-01-24T08:30:26.545Z</time>
      </trkpt>
      <trkpt lat="48.70147" lon="2.40188">
        <ele>36</ele>
        <time>2023-01-24T08:30:31.053Z</time>
      </trkpt>
      <trkpt lat="48.70142" lon="2.40188">
        <ele>36</ele>
        <time>2023-01-24T08:30:35.061Z</time>
      </trkpt>
      <trkpt lat="48.70134" lon="2.40192">
        <ele>36</ele>
        <time>2023-01-24T08:30:39.670Z</time>
      </trkpt>
      <trkpt lat="48.70129" lon="2.40193">
        <ele>36</ele>
        <time>2023-01-24T08:30:43.678Z</time>
      </trkpt>
      <trkpt lat="48.70124" lon="2.40196">
        <ele>35</ele>
        <time>2023-01-24T08:30:48.191Z</time>
      </trkpt>
      <trkpt lat="48.70117" lon="2.40203">
        <ele>35</ele>
        <time>2023-01-24T08:30:52.198Z</time>
      </trkpt>
      <trkpt lat="48.70114" lon="2.40209">
        <ele>35</ele>
        <time>2023-01-24T08:30:56.203Z</time>
      </trkpt>
      <trkpt lat="48.70109" lon="2.40219">
        <ele>35</ele>
        <time>2023-01-24T08:31:00.744Z</time>
      </trkpt>
      <trkpt lat="48.70104" lon="2.4023">
        <ele>35</ele>
        <time>2023-01-24T08:31:05.249Z</time>
      </trkpt>
      <trkpt lat="48.70102" lon="2.40236">
        <ele>35</ele>
        <time>2023-01-24T08:31:09.254Z</time>
      </trkpt>
      <trkpt lat="48.701" lon="2.40239">
        <ele>36</ele>
        <time>2023-01-24T08:31:13.259Z</time>
      </trkpt>
      <trkpt lat="48.70097" lon="2.40244">
        <ele>36</ele>
        <time>2023-01-24T08:31:17.264Z</time>
      </trkpt>
      <trkpt lat="48.70094" lon="2.40252">
        <ele>36</ele>
        <time>2023-01-24T08:31:21.768Z</time>
      </trkpt>
      <trkpt lat="48.70091" lon="2.40262">
        <ele>36</ele>
        <time>2023-01-24T08:31:26.271Z</time>
      </trkpt>
      <trkpt lat="48.70087" lon="2.40272">
        <ele>36</ele>
        <time>2023-01-24T08:31:30.793Z</time>
      </trkpt>
      <trkpt lat="48.70083" lon="2.40282">
        <ele>36</ele>
        <time>2023-01-24T08:31:35.293Z</time>
      </trkpt>
      <trkpt lat="48.70079" lon="2.4029">
        <ele>36</ele>
        <time>2023-01-24T08:31:39.453Z</time>
      </trkpt>
      <trkpt lat="48.70075" lon="2.40299">
        <ele>37</ele>
        <time>2023-01-24T08:31:44.214Z</time>
      </trkpt>
      <trkpt lat="48.7007" lon="2.40306">
        <ele>37</ele>
        <time>2023-01-24T08:31:48.455Z</time>
      </trkpt>
      <trkpt lat="48.70066" lon="2.40314">
        <ele>35</ele>
        <time>2023-01-24T08:31:52.958Z</time>
      </trkpt>
      <trkpt lat="48.70063" lon="2.40321">
        <ele>36</ele>
        <time>2023-01-24T08:31:57.064Z</time>
      </trkpt>
      <trkpt lat="48.7006" lon="2.40325">
        <ele>36</ele>
        <time>2023-01-24T08:32:01.121Z</time>
      </trkpt>
      <trkpt lat="48.70057" lon="2.40331">
        <ele>36</ele>
        <time>2023-01-24T08:32:05.126Z</time>
      </trkpt>
      <trkpt lat="48.70052" lon="2.40336">
        <ele>36</ele>
        <time>2023-01-24T08:32:09.630Z</time>
      </trkpt>
      <trkpt lat="48.70047" lon="2.40342">
        <ele>36</ele>
        <time>2023-01-24T08:32:14.232Z</time>
      </trkpt>
      <trkpt lat="48.70041" lon="2.40348">
        <ele>33</ele>
        <time>2023-01-24T08:32:18.815Z</time>
      </trkpt>
      <trkpt lat="48.70036" lon="2.40355">
        <ele>33</ele>
        <time>2023-01-24T08:32:23.027Z</time>
      </trkpt>
      <trkpt lat="48.70031" lon="2.4036">
        <ele>33</ele>
        <time>2023-01-24T08:32:27.136Z</time>
      </trkpt>
      <trkpt lat="48.70026" lon="2.40366">
        <ele>33</ele>
        <time>2023-01-24T08:32:31.638Z</time>
      </trkpt>
      <trkpt lat="48.70022" lon="2.4037">
        <ele>33</ele>
        <time>2023-01-24T08:32:35.319Z</time>
      </trkpt>
      <trkpt lat="48.70017" lon="2.40375">
        <ele>33</ele>
        <time>2023-01-24T08:32:39.941Z</time>
      </trkpt>
      <trkpt lat="48.70012" lon="2.4038">
        <ele>34</ele>
        <time>2023-01-24T08:32:43.701Z</time>
      </trkpt>
      <trkpt lat="48.70004" lon="2.40385">
        <ele>34</ele>
        <time>2023-01-24T08:32:48.482Z</time>
      </trkpt>
      <trkpt lat="48.69998" lon="2.40391">
        <ele>34</ele>
        <time>2023-01-24T08:32:52.982Z</time>
      </trkpt>
      <trkpt lat="48.69992" lon="2.40396">
        <ele>34</ele>
        <time>2023-01-24T08:32:57.142Z</time>
      </trkpt>
      <trkpt lat="48.69986" lon="2.40402">
        <ele>37</ele>
        <time>2023-01-24T08:33:01.556Z</time>
      </trkpt>
      <trkpt lat="48.6998" lon="2.40408">
        <ele>38</ele>
        <time>2023-01-24T08:33:05.903Z</time>
      </trkpt>
      <trkpt lat="48.69975" lon="2.40412">
        <ele>38</ele>
        <time>2023-01-24T08:33:10.040Z</time>
      </trkpt>
      <trkpt lat="48.69971" lon="2.40414">
        <ele>38</ele>
        <time>2023-01-24T08:33:14.147Z</time>
      </trkpt>
      <trkpt lat="48.69965" lon="2.40418">
        <ele>38</ele>
        <time>2023-01-24T08:33:18.824Z</time>
      </trkpt>
      <trkpt lat="48.69959" lon="2.40422">
        <ele>38</ele>
        <time>2023-01-24T08:33:22.970Z</time>
      </trkpt>
      <trkpt lat="48.69954" lon="2.40426">
        <ele>39</ele>
        <time>2023-01-24T08:33:27.052Z</time>
      </trkpt>
      <trkpt lat="48.69949" lon="2.40432">
        <ele>39</ele>
        <time>2023-01-24T08:33:31.114Z</time>
      </trkpt>
      <trkpt lat="48.69944" lon="2.40437">
        <ele>39</ele>
        <time>2023-01-24T08:33:35.513Z</time>
      </trkpt>
      <trkpt lat="48.69939" lon="2.40442">
        <ele>39</ele>
        <time>2023-01-24T08:33:39.754Z</time>
      </trkpt>
      <trkpt lat="48.69934" lon="2.40449">
        <ele>39</ele>
        <time>2023-01-24T08:33:43.796Z</time>
      </trkpt>
      <trkpt lat="48.69927" lon="2.40456">
        <ele>38</ele>
        <time>2023-01-24T08:33:47.938Z</time>
      </trkpt>
      <trkpt lat="48.69921" lon="2.40462">
        <ele>36</ele>
        <time>2023-01-24T08:33:52.377Z</time>
      </trkpt>
      <trkpt lat="48.69916" lon="2.4047">
        <ele>36</ele>
        <time>2023-01-24T08:33:56.757Z</time>
      </trkpt>
      <trkpt lat="48.6991" lon="2.40477">
        <ele>36</ele>
        <time>2023-01-24T08:34:01.419Z</time>
      </trkpt>
      <trkpt lat="48.69905" lon="2.40483">
        <ele>36</ele>
        <time>2023-01-24T08:34:05.760Z</time>
      </trkpt>
      <trkpt lat="48.699" lon="2.40489">
        <ele>36</ele>
        <time>2023-01-24T08:34:09.980Z</time>
      </trkpt>
      <trkpt lat="48.69895" lon="2.40496">
        <ele>36</ele>
        <time>2023-01-24T08:34:14.341Z</time>
      </trkpt>
      <trkpt lat="48.6989" lon="2.40504">
        <ele>36</ele>
        <time>2023-01-24T08:34:19.041Z</time>
      </trkpt>
      <trkpt lat="48.69887" lon="2.40509">
        <ele>36</ele>
        <time>2023-01-24T08:34:22.763Z</time>
      </trkpt>
      <trkpt lat="48.69886" lon="2.4051">
        <ele>36</ele>
        <time>2023-01-24T08:34:27.143Z</time>
      </trkpt>
      <trkpt lat="48.69881" lon="2.40515">
        <ele>36</ele>
        <time>2023-01-24T08:34:31.543Z</time>
      </trkpt>
      <trkpt lat="48.69874" lon="2.40515">
        <ele>39</ele>
        <time>2023-01-24T08:34:36.542Z</time>
      </trkpt>
      <trkpt lat="48.69869" lon="2.40517">
        <ele>39</ele>
        <time>2023-01-24T08:34:40.894Z</time>
      </trkpt>
      <trkpt lat="48.69863" lon="2.40519">
        <ele>39</ele>
        <time>2023-01-24T08:34:44.980Z</time>
      </trkpt>
      <trkpt lat="48.69857" lon="2.40519">
        <ele>39</ele>
        <time>2023-01-24T08:34:49.012Z</time>
      </trkpt>
      <trkpt lat="48.6985" lon="2.40521">
        <ele>39</ele>
        <time>2023-01-24T08:34:53.339Z</time>
      </trkpt>
      <trkpt lat="48.69845" lon="2.40521">
        <ele>39</ele>
        <time>2023-01-24T08:34:57.921Z</time>
      </trkpt>
      <trkpt lat="48.6984" lon="2.40522">
        <ele>39</ele>
        <time>2023-01-24T08:35:01.924Z</time>
      </trkpt>
      <trkpt lat="48.69835" lon="2.40522">
        <ele>39</ele>
        <time>2023-01-24T08:35:06.237Z</time>
      </trkpt>
      <trkpt lat="48.69828" lon="2.40525">
        <ele>39</ele>
        <time>2023-01-24T08:35:10.445Z</time>
      </trkpt>
      <trkpt lat="48.69824" lon="2.40531">
        <ele>39</ele>
        <time>2023-01-24T08:35:14.627Z</time>
      </trkpt>
      <trkpt lat="48.6982" lon="2.40541">
        <ele>39</ele>
        <time>2023-01-24T08:35:18.628Z</time>
      </trkpt>
      <trkpt lat="48.69817" lon="2.4055">
        <ele>39</ele>
        <time>2023-01-24T08:35:23.269Z</time>
      </trkpt>
      <trkpt lat="48.69813" lon="2.40558">
        <ele>39</ele>
        <time>2023-01-24T08:35:28.010Z</time>
      </trkpt>
      <trkpt lat="48.69812" lon="2.40564">
        <ele>39</ele>
        <time>2023-01-24T08:35:32.070Z</time>
      </trkpt>
      <trkpt lat="48.69812" lon="2.40567">
        <ele>39</ele>
        <time>2023-01-24T08:35:35.618Z</time>
      </trkpt>
      <trkpt lat="48.6981" lon="2.40568">
        <ele>39</ele>
        <time>2023-01-24T08:35:40.360Z</time>
      </trkpt>
      <trkpt lat="48.69808" lon="2.40571">
        <ele>38</ele>
        <time>2023-01-24T08:35:44.881Z</time>
      </trkpt>
      <trkpt lat="48.69803" lon="2.40577">
        <ele>38</ele>
        <time>2023-01-24T08:35:49.139Z</time>
      </trkpt>
      <trkpt lat="48.69798" lon="2.4058">
        <ele>38</ele>
        <time>2023-01-24T08:35:53.141Z</time>
      </trkpt>
      <trkpt lat="48.69793" lon="2.4058">
        <ele>38</ele>
        <time>2023-01-24T08:35:57.401Z</time>
      </trkpt>
      <trkpt lat="48.6979" lon="2.40585">
        <ele>40</ele>
        <time>2023-01-24T08:36:02.214Z</time>
      </trkpt>
      <trkpt lat="48.69787" lon="2.40591">
        <ele>40</ele>
        <time>2023-01-24T08:36:06.245Z</time>
      </trkpt>
      <trkpt lat="48.69783" lon="2.40597">
        <ele>40</ele>
        <time>2023-01-24T08:36:10.750Z</time>
      </trkpt>
      <trkpt lat="48.69781" lon="2.40603">
        <ele>38</ele>
        <time>2023-01-24T08:36:14.755Z</time>
      </trkpt>
      <trkpt lat="48.69779" lon="2.4061">
        <ele>38</ele>
        <time>2023-01-24T08:36:18.757Z</time>
      </trkpt>
      <trkpt lat="48.69775" lon="2.40616">
        <ele>38</ele>
        <time>2023-01-24T08:36:22.768Z</time>
      </trkpt>
      <trkpt lat="48.69771" lon="2.40626">
        <ele>37</ele>
        <time>2023-01-24T08:36:27.291Z</time>
      </trkpt>
      <trkpt lat="48.69764" lon="2.4063">
        <ele>37</ele>
        <time>2023-01-24T08:36:31.816Z</time>
      </trkpt>
      <trkpt lat="48.6976" lon="2.40635">
        <ele>35</ele>
        <time>2023-01-24T08:36:36.843Z</time>
      </trkpt>
      <trkpt lat="48.69752" lon="2.40643">
        <ele>35</ele>
        <time>2023-01-24T08:36:40.857Z</time>
      </trkpt>
      <trkpt lat="48.69741" lon="2.40668">
        <ele>35</ele>
        <time>2023-01-24T08:41:13.061Z</time>
      </trkpt>
      <trkpt lat="48.69741" lon="2.40668">
        <ele>35</ele>
        <time>2023-01-24T08:41:18.024Z</time>
      </trkpt>
      <trkpt lat="48.69741" lon="2.40668">
        <ele>35</ele>
        <time>2023-01-24T08:41:22.070Z</time>
      </trkpt>
      <trkpt lat="48.69741" lon="2.40668">
        <ele>35</ele>
        <time>2023-01-24T08:41:27.052Z</time>
      </trkpt>
      <trkpt lat="48.69741" lon="2.40668">
        <ele>35</ele>
        <time>2023-01-24T08:41:31.070Z</time>
      </trkpt>
      <trkpt lat="48.69741" lon="2.40665">
        <ele>35</ele>
        <time>2023-01-24T08:43:53.054Z</time>
      </trkpt>
      <trkpt lat="48.69737" lon="2.40667">
        <ele>35</ele>
        <time>2023-01-24T08:43:57.836Z</time>
      </trkpt>
      <trkpt lat="48.69734" lon="2.40671">
        <ele>32</ele>
        <time>2023-01-24T08:44:02.613Z</time>
      </trkpt>
      <trkpt lat="48.69728" lon="2.40674">
        <ele>32</ele>
        <time>2023-01-24T08:44:07.067Z</time>
      </trkpt>
      <trkpt lat="48.69724" lon="2.40677">
        <ele>32</ele>
        <time>2023-01-24T08:44:11.216Z</time>
      </trkpt>
      <trkpt lat="48.69719" lon="2.40681">
        <ele>33</ele>
        <time>2023-01-24T08:44:15.397Z</time>
      </trkpt>
      <trkpt lat="48.69714" lon="2.40684">
        <ele>33</ele>
        <time>2023-01-24T08:44:19.457Z</time>
      </trkpt>
      <trkpt lat="48.69709" lon="2.4069">
        <ele>33</ele>
        <time>2023-01-24T08:44:23.996Z</time>
      </trkpt>
      <trkpt lat="48.69705" lon="2.40694">
        <ele>33</ele>
        <time>2023-01-24T08:44:28.178Z</time>
      </trkpt>
      <trkpt lat="48.69701" lon="2.40699">
        <ele>33</ele>
        <time>2023-01-24T08:44:32.836Z</time>
      </trkpt>
      <trkpt lat="48.69698" lon="2.40704">
        <ele>33</ele>
        <time>2023-01-24T08:44:37.218Z</time>
      </trkpt>
      <trkpt lat="48.69695" lon="2.40708">
        <ele>33</ele>
        <time>2023-01-24T08:44:41.537Z</time>
      </trkpt>
      <trkpt lat="48.69692" lon="2.40714">
        <ele>34</ele>
        <time>2023-01-24T08:44:45.618Z</time>
      </trkpt>
      <trkpt lat="48.69688" lon="2.40718">
        <ele>34</ele>
        <time>2023-01-24T08:44:49.778Z</time>
      </trkpt>
      <trkpt lat="48.69684" lon="2.40722">
        <ele>34</ele>
        <time>2023-01-24T08:44:53.601Z</time>
      </trkpt>
      <trkpt lat="48.69679" lon="2.40726">
        <ele>36</ele>
        <time>2023-01-24T08:44:58.084Z</time>
      </trkpt>
      <trkpt lat="48.69674" lon="2.40733">
        <ele>36</ele>
        <time>2023-01-24T08:45:02.560Z</time>
      </trkpt>
      <trkpt lat="48.6967" lon="2.40737">
        <ele>38</ele>
        <time>2023-01-24T08:45:06.621Z</time>
      </trkpt>
      <trkpt lat="48.69665" lon="2.40738">
        <ele>38</ele>
        <time>2023-01-24T08:45:10.802Z</time>
      </trkpt>
      <trkpt lat="48.69661" lon="2.40742">
        <ele>38</ele>
        <time>2023-01-24T08:45:14.741Z</time>
      </trkpt>
      <trkpt lat="48.69655" lon="2.40747">
        <ele>38</ele>
        <time>2023-01-24T08:45:19.321Z</time>
      </trkpt>
      <trkpt lat="48.69649" lon="2.40749">
        <ele>38</ele>
        <time>2023-01-24T08:45:23.936Z</time>
      </trkpt>
      <trkpt lat="48.69641" lon="2.4075">
        <ele>38</ele>
        <time>2023-01-24T08:45:28.596Z</time>
      </trkpt>
      <trkpt lat="48.69636" lon="2.40748">
        <ele>38</ele>
        <time>2023-01-24T08:45:32.660Z</time>
      </trkpt>
      <trkpt lat="48.69629" lon="2.40745">
        <ele>38</ele>
        <time>2023-01-24T08:45:37.174Z</time>
      </trkpt>
      <trkpt lat="48.69622" lon="2.40742">
        <ele>38</ele>
        <time>2023-01-24T08:45:41.093Z</time>
      </trkpt>
      <trkpt lat="48.69614" lon="2.40741">
        <ele>38</ele>
        <time>2023-01-24T08:45:45.727Z</time>
      </trkpt>
      <trkpt lat="48.69608" lon="2.40738">
        <ele>38</ele>
        <time>2023-01-24T08:45:49.645Z</time>
      </trkpt>
      <trkpt lat="48.69603" lon="2.4073">
        <ele>36</ele>
        <time>2023-01-24T08:45:54.223Z</time>
      </trkpt>
      <trkpt lat="48.69599" lon="2.40725">
        <ele>36</ele>
        <time>2023-01-24T08:45:58.180Z</time>
      </trkpt>
      <trkpt lat="48.69592" lon="2.40717">
        <ele>39</ele>
        <time>2023-01-24T08:46:02.736Z</time>
      </trkpt>
      <trkpt lat="48.69586" lon="2.40707">
        <ele>37</ele>
        <time>2023-01-24T08:46:07.776Z</time>
      </trkpt>
      <trkpt lat="48.69581" lon="2.40701">
        <ele>37</ele>
        <time>2023-01-24T08:46:11.926Z</time>
      </trkpt>
      <trkpt lat="48.69576" lon="2.40693">
        <ele>37</ele>
        <time>2023-01-24T08:46:17Z</time>
      </trkpt>
      <trkpt lat="48.69575" lon="2.40685">
        <ele>37</ele>
        <time>2023-01-24T08:46:21.134Z</time>
      </trkpt>
      <trkpt lat="48.69574" lon="2.40676">
        <ele>35</ele>
        <time>2023-01-24T08:46:25.927Z</time>
      </trkpt>
      <trkpt lat="48.69568" lon="2.4067">
        <ele>36</ele>
        <time>2023-01-24T08:46:30.300Z</time>
      </trkpt>
      <trkpt lat="48.69563" lon="2.40665">
        <ele>36</ele>
        <time>2023-01-24T08:46:34.974Z</time>
      </trkpt>
      <trkpt lat="48.69557" lon="2.40661">
        <ele>36</ele>
        <time>2023-01-24T08:46:39.522Z</time>
      </trkpt>
      <trkpt lat="48.69552" lon="2.40659">
        <ele>36</ele>
        <time>2023-01-24T08:46:43.725Z</time>
      </trkpt>
      <trkpt lat="48.69547" lon="2.40656">
        <ele>36</ele>
        <time>2023-01-24T08:46:47.739Z</time>
      </trkpt>
      <trkpt lat="48.69542" lon="2.40653">
        <ele>36</ele>
        <time>2023-01-24T08:46:51.934Z</time>
      </trkpt>
      <trkpt lat="48.69537" lon="2.40647">
        <ele>38</ele>
        <time>2023-01-24T08:46:56.610Z</time>
      </trkpt>
      <trkpt lat="48.69532" lon="2.40641">
        <ele>38</ele>
        <time>2023-01-24T08:47:01.925Z</time>
      </trkpt>
      <trkpt lat="48.69527" lon="2.40638">
        <ele>38</ele>
        <time>2023-01-24T08:47:06.379Z</time>
      </trkpt>
      <trkpt lat="48.69522" lon="2.40634">
        <ele>38</ele>
        <time>2023-01-24T08:47:10.394Z</time>
      </trkpt>
      <trkpt lat="48.69519" lon="2.40628">
        <ele>38</ele>
        <time>2023-01-24T08:47:14.588Z</time>
      </trkpt>
      <trkpt lat="48.69514" lon="2.40624">
        <ele>38</ele>
        <time>2023-01-24T08:47:18.482Z</time>
      </trkpt>
      <trkpt lat="48.69507" lon="2.40624">
        <ele>38</ele>
        <time>2023-01-24T08:47:23.012Z</time>
      </trkpt>
      <trkpt lat="48.69504" lon="2.40618">
        <ele>38</ele>
        <time>2023-01-24T08:47:27.173Z</time>
      </trkpt>
      <trkpt lat="48.695" lon="2.40611">
        <ele>38</ele>
        <time>2023-01-24T08:47:31.568Z</time>
      </trkpt>
      <trkpt lat="48.69496" lon="2.40603">
        <ele>38</ele>
        <time>2023-01-24T08:47:35.765Z</time>
      </trkpt>
      <trkpt lat="48.69491" lon="2.40596">
        <ele>37</ele>
        <time>2023-01-24T08:47:39.841Z</time>
      </trkpt>
      <trkpt lat="48.69487" lon="2.40586">
        <ele>37</ele>
        <time>2023-01-24T08:47:44.636Z</time>
      </trkpt>
      <trkpt lat="48.69483" lon="2.40578">
        <ele>37</ele>
        <time>2023-01-24T08:47:49.094Z</time>
      </trkpt>
      <trkpt lat="48.6948" lon="2.40569">
        <ele>35</ele>
        <time>2023-01-24T08:47:53.578Z</time>
      </trkpt>
      <trkpt lat="48.69478" lon="2.4056">
        <ele>35</ele>
        <time>2023-01-24T08:47:57.524Z</time>
      </trkpt>
      <trkpt lat="48.69476" lon="2.40551">
        <ele>35</ele>
        <time>2023-01-24T08:48:02.101Z</time>
      </trkpt>
      <trkpt lat="48.69473" lon="2.40543">
        <ele>35</ele>
        <time>2023-01-24T08:48:06.135Z</time>
      </trkpt>
      <trkpt lat="48.69471" lon="2.40535">
        <ele>35</ele>
        <time>2023-01-24T08:48:10.204Z</time>
      </trkpt>
      <trkpt lat="48.6947" lon="2.40526">
        <ele>35</ele>
        <time>2023-01-24T08:48:14.741Z</time>
      </trkpt>
      <trkpt lat="48.6947" lon="2.40518">
        <ele>35</ele>
        <time>2023-01-24T08:48:18.576Z</time>
      </trkpt>
      <trkpt lat="48.69469" lon="2.40509">
        <ele>36</ele>
        <time>2023-01-24T08:48:23.221Z</time>
      </trkpt>
      <trkpt lat="48.69468" lon="2.405">
        <ele>36</ele>
        <time>2023-01-24T08:48:27.184Z</time>
      </trkpt>
      <trkpt lat="48.69466" lon="2.40492">
        <ele>36</ele>
        <time>2023-01-24T08:48:31.798Z</time>
      </trkpt>
      <trkpt lat="48.69465" lon="2.40484">
        <ele>37</ele>
        <time>2023-01-24T08:48:35.793Z</time>
      </trkpt>
      <trkpt lat="48.69464" lon="2.40475">
        <ele>37</ele>
        <time>2023-01-24T08:48:39.738Z</time>
      </trkpt>
      <trkpt lat="48.69461" lon="2.40466">
        <ele>37</ele>
        <time>2023-01-24T08:48:44.241Z</time>
      </trkpt>
      <trkpt lat="48.6946" lon="2.40457">
        <ele>38</ele>
        <time>2023-01-24T08:48:48.321Z</time>
      </trkpt>
      <trkpt lat="48.69458" lon="2.4045">
        <ele>39</ele>
        <time>2023-01-24T08:48:52.395Z</time>
      </trkpt>
      <trkpt lat="48.69456" lon="2.40442">
        <ele>39</ele>
        <time>2023-01-24T08:48:56.348Z</time>
      </trkpt>
      <trkpt lat="48.69456" lon="2.40435">
        <ele>39</ele>
        <time>2023-01-24T08:49:00.984Z</time>
      </trkpt>
      <trkpt lat="48.69457" lon="2.40429">
        <ele>39</ele>
        <time>2023-01-24T08:49:05.003Z</time>
      </trkpt>
      <trkpt lat="48.69457" lon="2.40422">
        <ele>39</ele>
        <time>2023-01-24T08:49:08.990Z</time>
      </trkpt>
      <trkpt lat="48.69458" lon="2.40414">
        <ele>39</ele>
        <time>2023-01-24T08:49:13.055Z</time>
      </trkpt>
      <trkpt lat="48.69459" lon="2.40406">
        <ele>38</ele>
        <time>2023-01-24T08:49:17.065Z</time>
      </trkpt>
      <trkpt lat="48.6946" lon="2.40396">
        <ele>37</ele>
        <time>2023-01-24T08:49:21.648Z</time>
      </trkpt>
      <trkpt lat="48.69459" lon="2.40385">
        <ele>37</ele>
        <time>2023-01-24T08:49:26.184Z</time>
      </trkpt>
      <trkpt lat="48.69457" lon="2.40376">
        <ele>38</ele>
        <time>2023-01-24T08:49:30.674Z</time>
      </trkpt>
      <trkpt lat="48.69455" lon="2.40366">
        <ele>37</ele>
        <time>2023-01-24T08:49:35.141Z</time>
      </trkpt>
      <trkpt lat="48.69453" lon="2.40357">
        <ele>37</ele>
        <time>2023-01-24T08:49:39.799Z</time>
      </trkpt>
      <trkpt lat="48.6945" lon="2.40349">
        <ele>37</ele>
        <time>2023-01-24T08:49:44.518Z</time>
      </trkpt>
      <trkpt lat="48.69448" lon="2.40342">
        <ele>37</ele>
        <time>2023-01-24T08:49:48.521Z</time>
      </trkpt>
      <trkpt lat="48.69446" lon="2.40334">
        <ele>37</ele>
        <time>2023-01-24T08:49:53.084Z</time>
      </trkpt>
      <trkpt lat="48.69442" lon="2.40326">
        <ele>37</ele>
        <time>2023-01-24T08:49:57.600Z</time>
      </trkpt>
      <trkpt lat="48.69437" lon="2.40318">
        <ele>38</ele>
        <time>2023-01-24T08:50:02.069Z</time>
      </trkpt>
      <trkpt lat="48.69433" lon="2.4031">
        <ele>38</ele>
        <time>2023-01-24T08:50:06.578Z</time>
      </trkpt>
      <trkpt lat="48.69428" lon="2.40301">
        <ele>37</ele>
        <time>2023-01-24T08:50:10.506Z</time>
      </trkpt>
      <trkpt lat="48.69423" lon="2.40291">
        <ele>39</ele>
        <time>2023-01-24T08:50:15.167Z</time>
      </trkpt>
      <trkpt lat="48.69418" lon="2.40283">
        <ele>39</ele>
        <time>2023-01-24T08:50:19.783Z</time>
      </trkpt>
      <trkpt lat="48.69413" lon="2.40275">
        <ele>39</ele>
        <time>2023-01-24T08:50:24.249Z</time>
      </trkpt>
      <trkpt lat="48.69408" lon="2.40267">
        <ele>39</ele>
        <time>2023-01-24T08:50:28.762Z</time>
      </trkpt>
      <trkpt lat="48.69403" lon="2.40261">
        <ele>38</ele>
        <time>2023-01-24T08:50:33.194Z</time>
      </trkpt>
      <trkpt lat="48.69399" lon="2.40254">
        <ele>38</ele>
        <time>2023-01-24T08:50:37.187Z</time>
      </trkpt>
      <trkpt lat="48.69394" lon="2.40247">
        <ele>38</ele>
        <time>2023-01-24T08:50:41.698Z</time>
      </trkpt>
      <trkpt lat="48.69388" lon="2.40241">
        <ele>38</ele>
        <time>2023-01-24T08:50:45.761Z</time>
      </trkpt>
      <trkpt lat="48.69382" lon="2.40232">
        <ele>38</ele>
        <time>2023-01-24T08:50:50.421Z</time>
      </trkpt>
      <trkpt lat="48.69376" lon="2.40225">
        <ele>38</ele>
        <time>2023-01-24T08:50:54.916Z</time>
      </trkpt>
      <trkpt lat="48.6937" lon="2.40218">
        <ele>37</ele>
        <time>2023-01-24T08:50:59.338Z</time>
      </trkpt>
      <trkpt lat="48.69365" lon="2.40213">
        <ele>37</ele>
        <time>2023-01-24T08:51:03.927Z</time>
      </trkpt>
      <trkpt lat="48.69361" lon="2.40208">
        <ele>37</ele>
        <time>2023-01-24T08:51:08.467Z</time>
      </trkpt>
      <trkpt lat="48.69356" lon="2.40202">
        <ele>35</ele>
        <time>2023-01-24T08:51:12.767Z</time>
      </trkpt>
      <trkpt lat="48.69352" lon="2.40192">
        <ele>35</ele>
        <time>2023-01-24T08:51:17.424Z</time>
      </trkpt>
      <trkpt lat="48.69351" lon="2.40181">
        <ele>35</ele>
        <time>2023-01-24T08:51:21.487Z</time>
      </trkpt>
      <trkpt lat="48.69347" lon="2.40172">
        <ele>34</ele>
        <time>2023-01-24T08:51:25.310Z</time>
      </trkpt>
      <trkpt lat="48.69344" lon="2.40163">
        <ele>34</ele>
        <time>2023-01-24T08:51:29.983Z</time>
      </trkpt>
      <trkpt lat="48.6934" lon="2.40153">
        <ele>34</ele>
        <time>2023-01-24T08:51:34.100Z</time>
      </trkpt>
      <trkpt lat="48.69338" lon="2.40142">
        <ele>33</ele>
        <time>2023-01-24T08:51:38.574Z</time>
      </trkpt>
      <trkpt lat="48.69336" lon="2.40133">
        <ele>33</ele>
        <time>2023-01-24T08:51:43.029Z</time>
      </trkpt>
      <trkpt lat="48.69336" lon="2.40123">
        <ele>33</ele>
        <time>2023-01-24T08:51:47.535Z</time>
      </trkpt>
      <trkpt lat="48.69336" lon="2.40115">
        <ele>33</ele>
        <time>2023-01-24T08:51:51.995Z</time>
      </trkpt>
      <trkpt lat="48.69337" lon="2.40106">
        <ele>33</ele>
        <time>2023-01-24T08:51:55.998Z</time>
      </trkpt>
      <trkpt lat="48.69337" lon="2.40098">
        <ele>33</ele>
        <time>2023-01-24T08:51:59.838Z</time>
      </trkpt>
      <trkpt lat="48.69338" lon="2.40086">
        <ele>33</ele>
        <time>2023-01-24T08:52:04.497Z</time>
      </trkpt>
      <trkpt lat="48.69337" lon="2.40076">
        <ele>33</ele>
        <time>2023-01-24T08:52:09.012Z</time>
      </trkpt>
      <trkpt lat="48.69337" lon="2.40065">
        <ele>33</ele>
        <time>2023-01-24T08:52:13.452Z</time>
      </trkpt>
      <trkpt lat="48.69336" lon="2.40056">
        <ele>33</ele>
        <time>2023-01-24T08:52:17.989Z</time>
      </trkpt>
      <trkpt lat="48.69335" lon="2.40045">
        <ele>33</ele>
        <time>2023-01-24T08:52:22.648Z</time>
      </trkpt>
      <trkpt lat="48.69334" lon="2.40037">
        <ele>33</ele>
        <time>2023-01-24T08:52:27.188Z</time>
      </trkpt>
      <trkpt lat="48.69334" lon="2.4003">
        <ele>33</ele>
        <time>2023-01-24T08:52:31.340Z</time>
      </trkpt>
      <trkpt lat="48.69334" lon="2.40023">
        <ele>33</ele>
        <time>2023-01-24T08:52:35.427Z</time>
      </trkpt>
      <trkpt lat="48.69333" lon="2.40014">
        <ele>33</ele>
        <time>2023-01-24T08:52:40.049Z</time>
      </trkpt>
      <trkpt lat="48.6933" lon="2.40007">
        <ele>33</ele>
        <time>2023-01-24T08:52:44.012Z</time>
      </trkpt>
      <trkpt lat="48.69329" lon="2.39996">
        <ele>33</ele>
        <time>2023-01-24T08:52:48.545Z</time>
      </trkpt>
      <trkpt lat="48.69329" lon="2.39985">
        <ele>33</ele>
        <time>2023-01-24T08:52:53.012Z</time>
      </trkpt>
      <trkpt lat="48.6933" lon="2.39974">
        <ele>33</ele>
        <time>2023-01-24T08:52:57.621Z</time>
      </trkpt>
      <trkpt lat="48.69329" lon="2.39965">
        <ele>33</ele>
        <time>2023-01-24T08:53:02.066Z</time>
      </trkpt>
      <trkpt lat="48.69328" lon="2.39953">
        <ele>33</ele>
        <time>2023-01-24T08:53:06.216Z</time>
      </trkpt>
      <trkpt lat="48.69327" lon="2.39943">
        <ele>33</ele>
        <time>2023-01-24T08:53:10.136Z</time>
      </trkpt>
      <trkpt lat="48.69329" lon="2.39932">
        <ele>33</ele>
        <time>2023-01-24T08:53:14.553Z</time>
      </trkpt>
      <trkpt lat="48.69329" lon="2.39921">
        <ele>33</ele>
        <time>2023-01-24T08:53:18.970Z</time>
      </trkpt>
      <trkpt lat="48.6933" lon="2.39911">
        <ele>33</ele>
        <time>2023-01-24T08:53:23.060Z</time>
      </trkpt>
      <trkpt lat="48.6933" lon="2.39902">
        <ele>34</ele>
        <time>2023-01-24T08:53:27.550Z</time>
      </trkpt>
      <trkpt lat="48.69332" lon="2.39892">
        <ele>34</ele>
        <time>2023-01-24T08:53:31.629Z</time>
      </trkpt>
      <trkpt lat="48.69332" lon="2.39882">
        <ele>34</ele>
        <time>2023-01-24T08:53:36.166Z</time>
      </trkpt>
      <trkpt lat="48.69332" lon="2.3987">
        <ele>34</ele>
        <time>2023-01-24T08:53:40.822Z</time>
      </trkpt>
      <trkpt lat="48.69333" lon="2.39857">
        <ele>34</ele>
        <time>2023-01-24T08:53:45.358Z</time>
      </trkpt>
      <trkpt lat="48.69334" lon="2.39845">
        <ele>34</ele>
        <time>2023-01-24T08:53:50.057Z</time>
      </trkpt>
      <trkpt lat="48.69334" lon="2.39836">
        <ele>34</ele>
        <time>2023-01-24T08:53:54.552Z</time>
      </trkpt>
      <trkpt lat="48.69335" lon="2.39826">
        <ele>34</ele>
        <time>2023-01-24T08:53:59.088Z</time>
      </trkpt>
      <trkpt lat="48.69334" lon="2.39813">
        <ele>34</ele>
        <time>2023-01-24T08:54:03.627Z</time>
      </trkpt>
      <trkpt lat="48.69334" lon="2.39803">
        <ele>34</ele>
        <time>2023-01-24T08:54:08.165Z</time>
      </trkpt>
      <trkpt lat="48.69336" lon="2.39793">
        <ele>34</ele>
        <time>2023-01-24T08:54:12.227Z</time>
      </trkpt>
      <trkpt lat="48.69338" lon="2.39783">
        <ele>34</ele>
        <time>2023-01-24T08:54:16.885Z</time>
      </trkpt>
      <trkpt lat="48.69338" lon="2.39772">
        <ele>34</ele>
        <time>2023-01-24T08:54:21.422Z</time>
      </trkpt>
      <trkpt lat="48.69339" lon="2.39761">
        <ele>34</ele>
        <time>2023-01-24T08:54:25.483Z</time>
      </trkpt>
      <trkpt lat="48.69341" lon="2.39751">
        <ele>34</ele>
        <time>2023-01-24T08:54:30.012Z</time>
      </trkpt>
      <trkpt lat="48.69343" lon="2.39741">
        <ele>34</ele>
        <time>2023-01-24T08:54:34.206Z</time>
      </trkpt>
      <trkpt lat="48.69343" lon="2.39733">
        <ele>33</ele>
        <time>2023-01-24T08:54:38.153Z</time>
      </trkpt>
      <trkpt lat="48.69344" lon="2.39722">
        <ele>33</ele>
        <time>2023-01-24T08:54:42.213Z</time>
      </trkpt>
      <trkpt lat="48.69344" lon="2.3971">
        <ele>33</ele>
        <time>2023-01-24T08:54:46.631Z</time>
      </trkpt>
      <trkpt lat="48.69342" lon="2.39701">
        <ele>34</ele>
        <time>2023-01-24T08:54:50.572Z</time>
      </trkpt>
      <trkpt lat="48.69342" lon="2.3969">
        <ele>34</ele>
        <time>2023-01-24T08:54:55.056Z</time>
      </trkpt>
      <trkpt lat="48.69341" lon="2.39679">
        <ele>36</ele>
        <time>2023-01-24T08:54:59.647Z</time>
      </trkpt>
      <trkpt lat="48.69341" lon="2.3967">
        <ele>36</ele>
        <time>2023-01-24T08:55:03.589Z</time>
      </trkpt>
      <trkpt lat="48.69342" lon="2.39661">
        <ele>36</ele>
        <time>2023-01-24T08:55:08.200Z</time>
      </trkpt>
      <trkpt lat="48.69342" lon="2.39653">
        <ele>36</ele>
        <time>2023-01-24T08:55:12.186Z</time>
      </trkpt>
      <trkpt lat="48.69341" lon="2.39646">
        <ele>36</ele>
        <time>2023-01-24T08:55:16.365Z</time>
      </trkpt>
      <trkpt lat="48.69341" lon="2.39637">
        <ele>36</ele>
        <time>2023-01-24T08:55:20.902Z</time>
      </trkpt>
      <trkpt lat="48.69342" lon="2.39628">
        <ele>36</ele>
        <time>2023-01-24T08:55:24.934Z</time>
      </trkpt>
      <trkpt lat="48.69341" lon="2.39619">
        <ele>34</ele>
        <time>2023-01-24T08:55:29.302Z</time>
      </trkpt>
      <trkpt lat="48.69341" lon="2.3961">
        <ele>34</ele>
        <time>2023-01-24T08:55:33.794Z</time>
      </trkpt>
      <trkpt lat="48.69341" lon="2.396">
        <ele>34</ele>
        <time>2023-01-24T08:55:38.449Z</time>
      </trkpt>
      <trkpt lat="48.69339" lon="2.39589">
        <ele>31</ele>
        <time>2023-01-24T08:55:42.985Z</time>
      </trkpt>
      <trkpt lat="48.69337" lon="2.39577">
        <ele>31</ele>
        <time>2023-01-24T08:55:47.354Z</time>
      </trkpt>
      <trkpt lat="48.69335" lon="2.39569">
        <ele>28</ele>
        <time>2023-01-24T08:55:51.798Z</time>
      </trkpt>
      <trkpt lat="48.69332" lon="2.39557">
        <ele>28</ele>
        <time>2023-01-24T08:55:55.874Z</time>
      </trkpt>
      <trkpt lat="48.69329" lon="2.39544">
        <ele>28</ele>
        <time>2023-01-24T08:56:00.291Z</time>
      </trkpt>
      <trkpt lat="48.69325" lon="2.39535">
        <ele>30</ele>
        <time>2023-01-24T08:56:04.230Z</time>
      </trkpt>
      <trkpt lat="48.69321" lon="2.39526">
        <ele>30</ele>
        <time>2023-01-24T08:56:09.005Z</time>
      </trkpt>
      <trkpt lat="48.69318" lon="2.39521">
        <ele>29</ele>
        <time>2023-01-24T08:56:13.012Z</time>
      </trkpt>
      <trkpt lat="48.69313" lon="2.39511">
        <ele>31</ele>
        <time>2023-01-24T08:56:17.600Z</time>
      </trkpt>
      <trkpt lat="48.69309" lon="2.39506">
        <ele>31</ele>
        <time>2023-01-24T08:56:22.358Z</time>
      </trkpt>
      <trkpt lat="48.69304" lon="2.395">
        <ele>31</ele>
        <time>2023-01-24T08:56:26.436Z</time>
      </trkpt>
      <trkpt lat="48.69299" lon="2.39492">
        <ele>31</ele>
        <time>2023-01-24T08:56:31.012Z</time>
      </trkpt>
      <trkpt lat="48.69293" lon="2.39484">
        <ele>33</ele>
        <time>2023-01-24T08:56:35.582Z</time>
      </trkpt>
      <trkpt lat="48.69288" lon="2.39477">
        <ele>33</ele>
        <time>2023-01-24T08:56:39.569Z</time>
      </trkpt>
      <trkpt lat="48.69283" lon="2.39471">
        <ele>33</ele>
        <time>2023-01-24T08:56:43.627Z</time>
      </trkpt>
      <trkpt lat="48.69278" lon="2.39464">
        <ele>33</ele>
        <time>2023-01-24T08:56:48.091Z</time>
      </trkpt>
      <trkpt lat="48.69272" lon="2.39456">
        <ele>33</ele>
        <time>2023-01-24T08:56:52.578Z</time>
      </trkpt>
      <trkpt lat="48.69266" lon="2.39448">
        <ele>33</ele>
        <time>2023-01-24T08:56:57.112Z</time>
      </trkpt>
      <trkpt lat="48.69261" lon="2.39442">
        <ele>33</ele>
        <time>2023-01-24T08:57:01.766Z</time>
      </trkpt>
      <trkpt lat="48.69255" lon="2.39436">
        <ele>33</ele>
        <time>2023-01-24T08:57:06.420Z</time>
      </trkpt>
      <trkpt lat="48.6925" lon="2.3943">
        <ele>32</ele>
        <time>2023-01-24T08:57:10.594Z</time>
      </trkpt>
      <trkpt lat="48.69245" lon="2.39426">
        <ele>32</ele>
        <time>2023-01-24T08:57:14.532Z</time>
      </trkpt>
      <trkpt lat="48.6924" lon="2.3942">
        <ele>32</ele>
        <time>2023-01-24T08:57:18.948Z</time>
      </trkpt>
      <trkpt lat="48.69235" lon="2.39414">
        <ele>34</ele>
        <time>2023-01-24T08:57:23.465Z</time>
      </trkpt>
      <trkpt lat="48.69229" lon="2.39407">
        <ele>34</ele>
        <time>2023-01-24T08:57:27.984Z</time>
      </trkpt>
      <trkpt lat="48.69223" lon="2.39401">
        <ele>34</ele>
        <time>2023-01-24T08:57:32.177Z</time>
      </trkpt>
      <trkpt lat="48.69219" lon="2.39397">
        <ele>34</ele>
        <time>2023-01-24T08:57:36.356Z</time>
      </trkpt>
      <trkpt lat="48.69215" lon="2.39393">
        <ele>34</ele>
        <time>2023-01-24T08:57:40.418Z</time>
      </trkpt>
      <trkpt lat="48.6921" lon="2.39388">
        <ele>34</ele>
        <time>2023-01-24T08:57:44.539Z</time>
      </trkpt>
      <trkpt lat="48.69206" lon="2.39383">
        <ele>33</ele>
        <time>2023-01-24T08:57:48.537Z</time>
      </trkpt>
      <trkpt lat="48.69201" lon="2.39377">
        <ele>33</ele>
        <time>2023-01-24T08:57:52.835Z</time>
      </trkpt>
      <trkpt lat="48.69195" lon="2.39369">
        <ele>34</ele>
        <time>2023-01-24T08:57:57.612Z</time>
      </trkpt>
      <trkpt lat="48.6919" lon="2.39362">
        <ele>34</ele>
        <time>2023-01-24T08:58:02.061Z</time>
      </trkpt>
      <trkpt lat="48.69185" lon="2.39356">
        <ele>34</ele>
        <time>2023-01-24T08:58:06.117Z</time>
      </trkpt>
      <trkpt lat="48.6918" lon="2.3935">
        <ele>34</ele>
        <time>2023-01-24T08:58:10.625Z</time>
      </trkpt>
      <trkpt lat="48.69176" lon="2.39345">
        <ele>34</ele>
        <time>2023-01-24T08:58:14.819Z</time>
      </trkpt>
      <trkpt lat="48.69171" lon="2.3934">
        <ele>34</ele>
        <time>2023-01-24T08:58:18.745Z</time>
      </trkpt>
      <trkpt lat="48.69167" lon="2.39337">
        <ele>34</ele>
        <time>2023-01-24T08:58:22.804Z</time>
      </trkpt>
      <trkpt lat="48.69163" lon="2.39334">
        <ele>34</ele>
        <time>2023-01-24T08:58:26.746Z</time>
      </trkpt>
      <trkpt lat="48.69158" lon="2.39329">
        <ele>34</ele>
        <time>2023-01-24T08:58:31.401Z</time>
      </trkpt>
      <trkpt lat="48.69154" lon="2.39325">
        <ele>34</ele>
        <time>2023-01-24T08:58:35.462Z</time>
      </trkpt>
      <trkpt lat="48.6915" lon="2.3932">
        <ele>35</ele>
        <time>2023-01-24T08:58:39.879Z</time>
      </trkpt>
      <trkpt lat="48.69145" lon="2.39314">
        <ele>34</ele>
        <time>2023-01-24T08:58:44.300Z</time>
      </trkpt>
      <trkpt lat="48.6914" lon="2.39309">
        <ele>34</ele>
        <time>2023-01-24T08:58:48.355Z</time>
      </trkpt>
      <trkpt lat="48.69136" lon="2.39305">
        <ele>34</ele>
        <time>2023-01-24T08:58:52.172Z</time>
      </trkpt>
      <trkpt lat="48.69131" lon="2.39299">
        <ele>34</ele>
        <time>2023-01-24T08:58:56.586Z</time>
      </trkpt>
      <trkpt lat="48.69126" lon="2.39293">
        <ele>34</ele>
        <time>2023-01-24T08:59:01.037Z</time>
      </trkpt>
      <trkpt lat="48.69122" lon="2.39286">
        <ele>34</ele>
        <time>2023-01-24T08:59:05.174Z</time>
      </trkpt>
      <trkpt lat="48.69119" lon="2.39283">
        <ele>34</ele>
        <time>2023-01-24T08:59:09.826Z</time>
      </trkpt>
      <trkpt lat="48.6912" lon="2.39282">
        <ele>34</ele>
        <time>2023-01-24T08:59:14.598Z</time>
      </trkpt>
      <trkpt lat="48.6912" lon="2.39282">
        <ele>34</ele>
        <time>2023-01-24T08:59:19.967Z</time>
      </trkpt>
      <trkpt lat="48.6912" lon="2.39281">
        <ele>34</ele>
        <time>2023-01-24T08:59:24.621Z</time>
      </trkpt>
      <trkpt lat="48.69121" lon="2.3928">
        <ele>34</ele>
        <time>2023-01-24T08:59:28.798Z</time>
      </trkpt>
      <trkpt lat="48.69123" lon="2.39276">
        <ele>34</ele>
        <time>2023-01-24T08:59:32.969Z</time>
      </trkpt>
      <trkpt lat="48.69125" lon="2.39268">
        <ele>34</ele>
        <time>2023-01-24T08:59:37.147Z</time>
      </trkpt>
      <trkpt lat="48.69127" lon="2.39263">
        <ele>33</ele>
        <time>2023-01-24T08:59:41.682Z</time>
      </trkpt>
      <trkpt lat="48.69132" lon="2.39258">
        <ele>33</ele>
        <time>2023-01-24T08:59:46.279Z</time>
      </trkpt>
      <trkpt lat="48.69137" lon="2.39256">
        <ele>33</ele>
        <time>2023-01-24T08:59:50.751Z</time>
      </trkpt>
      <trkpt lat="48.69143" lon="2.39252">
        <ele>33</ele>
        <time>2023-01-24T08:59:54.808Z</time>
      </trkpt>
      <trkpt lat="48.69148" lon="2.39247">
        <ele>33</ele>
        <time>2023-01-24T08:59:59.377Z</time>
      </trkpt>
      <trkpt lat="48.69151" lon="2.39242">
        <ele>33</ele>
        <time>2023-01-24T09:00:03.681Z</time>
      </trkpt>
      <trkpt lat="48.69155" lon="2.39235">
        <ele>33</ele>
        <time>2023-01-24T09:00:07.819Z</time>
      </trkpt>
      <trkpt lat="48.69159" lon="2.39227">
        <ele>33</ele>
        <time>2023-01-24T09:00:11.995Z</time>
      </trkpt>
      <trkpt lat="48.69163" lon="2.39219">
        <ele>33</ele>
        <time>2023-01-24T09:00:16.012Z</time>
      </trkpt>
      <trkpt lat="48.69164" lon="2.3921">
        <ele>33</ele>
        <time>2023-01-24T09:00:20.345Z</time>
      </trkpt>
      <trkpt lat="48.69167" lon="2.39205">
        <ele>32</ele>
        <time>2023-01-24T09:00:24.283Z</time>
      </trkpt>
      <trkpt lat="48.6917" lon="2.39201">
        <ele>32</ele>
        <time>2023-01-24T09:00:28.802Z</time>
      </trkpt>
      <trkpt lat="48.69172" lon="2.39197">
        <ele>32</ele>
        <time>2023-01-24T09:00:32.985Z</time>
      </trkpt>
      <trkpt lat="48.69176" lon="2.39192">
        <ele>32</ele>
        <time>2023-01-24T09:00:37.060Z</time>
      </trkpt>
      <trkpt lat="48.6918" lon="2.39188">
        <ele>32</ele>
        <time>2023-01-24T09:00:41.516Z</time>
      </trkpt>
      <trkpt lat="48.69184" lon="2.39178">
        <ele>33</ele>
        <time>2023-01-24T09:00:46.200Z</time>
      </trkpt>
      <trkpt lat="48.69189" lon="2.39168">
        <ele>33</ele>
        <time>2023-01-24T09:00:50.374Z</time>
      </trkpt>
      <trkpt lat="48.69192" lon="2.39158">
        <ele>33</ele>
        <time>2023-01-24T09:00:54.618Z</time>
      </trkpt>
      <trkpt lat="48.69193" lon="2.39149">
        <ele>31</ele>
        <time>2023-01-24T09:00:59.014Z</time>
      </trkpt>
      <trkpt lat="48.69193" lon="2.39137">
        <ele>31</ele>
        <time>2023-01-24T09:01:02.976Z</time>
      </trkpt>
      <trkpt lat="48.69194" lon="2.39131">
        <ele>31</ele>
        <time>2023-01-24T09:01:07.114Z</time>
      </trkpt>
      <trkpt lat="48.69192" lon="2.39125">
        <ele>31</ele>
        <time>2023-01-24T09:01:11.789Z</time>
      </trkpt>
      <trkpt lat="48.6919" lon="2.39123">
        <ele>29</ele>
        <time>2023-01-24T09:01:15.954Z</time>
      </trkpt>
      <trkpt lat="48.69189" lon="2.39123">
        <ele>29</ele>
        <time>2023-01-24T09:01:20.008Z</time>
      </trkpt>
      <trkpt lat="48.69188" lon="2.39121">
        <ele>29</ele>
        <time>2023-01-24T09:01:24.166Z</time>
      </trkpt>
      <trkpt lat="48.69185" lon="2.39119">
        <ele>29</ele>
        <time>2023-01-24T09:01:28.954Z</time>
      </trkpt>
      <trkpt lat="48.69178" lon="2.39116">
        <ele>29</ele>
        <time>2023-01-24T09:01:33.140Z</time>
      </trkpt>
      <trkpt lat="48.69172" lon="2.39111">
        <ele>29</ele>
        <time>2023-01-24T09:01:37.329Z</time>
      </trkpt>
      <trkpt lat="48.69166" lon="2.39106">
        <ele>29</ele>
        <time>2023-01-24T09:01:41.992Z</time>
      </trkpt>
      <trkpt lat="48.6916" lon="2.391">
        <ele>29</ele>
        <time>2023-01-24T09:01:45.941Z</time>
      </trkpt>
      <trkpt lat="48.69154" lon="2.39095">
        <ele>28</ele>
        <time>2023-01-24T09:01:50.607Z</time>
      </trkpt>
      <trkpt lat="48.6915" lon="2.39091">
        <ele>30</ele>
        <time>2023-01-24T09:01:55.154Z</time>
      </trkpt>
      <trkpt lat="48.69146" lon="2.39088">
        <ele>30</ele>
        <time>2023-01-24T09:01:59.700Z</time>
      </trkpt>
      <trkpt lat="48.69141" lon="2.39085">
        <ele>30</ele>
        <time>2023-01-24T09:02:04.247Z</time>
      </trkpt>
      <trkpt lat="48.69136" lon="2.39082">
        <ele>30</ele>
        <time>2023-01-24T09:02:08.315Z</time>
      </trkpt>
      <trkpt lat="48.69131" lon="2.39079">
        <ele>30</ele>
        <time>2023-01-24T09:02:12.860Z</time>
      </trkpt>
      <trkpt lat="48.69126" lon="2.39075">
        <ele>30</ele>
        <time>2023-01-24T09:02:17.169Z</time>
      </trkpt>
      <trkpt lat="48.69121" lon="2.39071">
        <ele>31</ele>
        <time>2023-01-24T09:02:21.355Z</time>
      </trkpt>
      <trkpt lat="48.69117" lon="2.39068">
        <ele>31</ele>
        <time>2023-01-24T09:02:25.304Z</time>
      </trkpt>
      <trkpt lat="48.69111" lon="2.39065">
        <ele>31</ele>
        <time>2023-01-24T09:02:29.971Z</time>
      </trkpt>
      <trkpt lat="48.69106" lon="2.39064">
        <ele>31</ele>
        <time>2023-01-24T09:02:34.158Z</time>
      </trkpt>
      <trkpt lat="48.69101" lon="2.39061">
        <ele>31</ele>
        <time>2023-01-24T09:02:38.465Z</time>
      </trkpt>
      <trkpt lat="48.69096" lon="2.39055">
        <ele>32</ele>
        <time>2023-01-24T09:02:42.652Z</time>
      </trkpt>
      <trkpt lat="48.6909" lon="2.39051">
        <ele>32</ele>
        <time>2023-01-24T09:02:46.874Z</time>
      </trkpt>
      <trkpt lat="48.69086" lon="2.39048">
        <ele>32</ele>
        <time>2023-01-24T09:02:50.791Z</time>
      </trkpt>
      <trkpt lat="48.69081" lon="2.39044">
        <ele>32</ele>
        <time>2023-01-24T09:02:55.460Z</time>
      </trkpt>
      <trkpt lat="48.69076" lon="2.3904">
        <ele>32</ele>
        <time>2023-01-24T09:03:00.027Z</time>
      </trkpt>
      <trkpt lat="48.6907" lon="2.39036">
        <ele>32</ele>
        <time>2023-01-24T09:03:04.321Z</time>
      </trkpt>
      <trkpt lat="48.69065" lon="2.39033">
        <ele>31</ele>
        <time>2023-01-24T09:03:08.576Z</time>
      </trkpt>
      <trkpt lat="48.69059" lon="2.39028">
        <ele>31</ele>
        <time>2023-01-24T09:03:12.569Z</time>
      </trkpt>
      <trkpt lat="48.69054" lon="2.39024">
        <ele>31</ele>
        <time>2023-01-24T09:03:16.514Z</time>
      </trkpt>
      <trkpt lat="48.69048" lon="2.39021">
        <ele>31</ele>
        <time>2023-01-24T09:03:21.118Z</time>
      </trkpt>
      <trkpt lat="48.69041" lon="2.39017">
        <ele>31</ele>
        <time>2023-01-24T09:03:25.581Z</time>
      </trkpt>
      <trkpt lat="48.69035" lon="2.39013">
        <ele>32</ele>
        <time>2023-01-24T09:03:30.241Z</time>
      </trkpt>
      <trkpt lat="48.6903" lon="2.39011">
        <ele>32</ele>
        <time>2023-01-24T09:03:34.305Z</time>
      </trkpt>
      <trkpt lat="48.69025" lon="2.39007">
        <ele>32</ele>
        <time>2023-01-24T09:03:38.846Z</time>
      </trkpt>
      <trkpt lat="48.6902" lon="2.39003">
        <ele>32</ele>
        <time>2023-01-24T09:03:42.552Z</time>
      </trkpt>
      <trkpt lat="48.69014" lon="2.38999">
        <ele>32</ele>
        <time>2023-01-24T09:03:47.215Z</time>
      </trkpt>
      <trkpt lat="48.69009" lon="2.38995">
        <ele>32</ele>
        <time>2023-01-24T09:03:51.395Z</time>
      </trkpt>
      <trkpt lat="48.69004" lon="2.38991">
        <ele>32</ele>
        <time>2023-01-24T09:03:55.456Z</time>
      </trkpt>
      <trkpt lat="48.68998" lon="2.38987">
        <ele>32</ele>
        <time>2023-01-24T09:04:00.042Z</time>
      </trkpt>
      <trkpt lat="48.68993" lon="2.38983">
        <ele>33</ele>
        <time>2023-01-24T09:04:04.178Z</time>
      </trkpt>
      <trkpt lat="48.68987" lon="2.3898">
        <ele>33</ele>
        <time>2023-01-24T09:04:08.222Z</time>
      </trkpt>
      <trkpt lat="48.68983" lon="2.38977">
        <ele>31</ele>
        <time>2023-01-24T09:04:12.181Z</time>
      </trkpt>
      <trkpt lat="48.68978" lon="2.38974">
        <ele>31</ele>
        <time>2023-01-24T09:04:16.360Z</time>
      </trkpt>
      <trkpt lat="48.68973" lon="2.38971">
        <ele>31</ele>
        <time>2023-01-24T09:04:20.181Z</time>
      </trkpt>
      <trkpt lat="48.68968" lon="2.38967">
        <ele>31</ele>
        <time>2023-01-24T09:04:24.361Z</time>
      </trkpt>
      <trkpt lat="48.68963" lon="2.38963">
        <ele>31</ele>
        <time>2023-01-24T09:04:28.422Z</time>
      </trkpt>
      <trkpt lat="48.68959" lon="2.38959">
        <ele>31</ele>
        <time>2023-01-24T09:04:32.803Z</time>
      </trkpt>
      <trkpt lat="48.68955" lon="2.38957">
        <ele>31</ele>
        <time>2023-01-24T09:04:36.780Z</time>
      </trkpt>
      <trkpt lat="48.6895" lon="2.38955">
        <ele>31</ele>
        <time>2023-01-24T09:04:40.604Z</time>
      </trkpt>
      <trkpt lat="48.68944" lon="2.38951">
        <ele>31</ele>
        <time>2023-01-24T09:04:44.668Z</time>
      </trkpt>
      <trkpt lat="48.68937" lon="2.38949">
        <ele>31</ele>
        <time>2023-01-24T09:04:49.184Z</time>
      </trkpt>
      <trkpt lat="48.6893" lon="2.38948">
        <ele>34</ele>
        <time>2023-01-24T09:04:53.155Z</time>
      </trkpt>
      <trkpt lat="48.68923" lon="2.38947">
        <ele>34</ele>
        <time>2023-01-24T09:04:57.220Z</time>
      </trkpt>
      <trkpt lat="48.68916" lon="2.38946">
        <ele>34</ele>
        <time>2023-01-24T09:05:01.163Z</time>
      </trkpt>
      <trkpt lat="48.68908" lon="2.38944">
        <ele>34</ele>
        <time>2023-01-24T09:05:05.824Z</time>
      </trkpt>
      <trkpt lat="48.68901" lon="2.38947">
        <ele>35</ele>
        <time>2023-01-24T09:05:10.605Z</time>
      </trkpt>
      <trkpt lat="48.68898" lon="2.38949">
        <ele>35</ele>
        <time>2023-01-24T09:05:14.669Z</time>
      </trkpt>
      <trkpt lat="48.68894" lon="2.38947">
        <ele>35</ele>
        <time>2023-01-24T09:05:19.189Z</time>
      </trkpt>
      <trkpt lat="48.68891" lon="2.38945">
        <ele>35</ele>
        <time>2023-01-24T09:05:23.370Z</time>
      </trkpt>
      <trkpt lat="48.68883" lon="2.38947">
        <ele>35</ele>
        <time>2023-01-24T09:05:32.785Z</time>
      </trkpt>
      <trkpt lat="48.68881" lon="2.38946">
        <ele>35</ele>
        <time>2023-01-24T09:05:36.846Z</time>
      </trkpt>
      <trkpt lat="48.68883" lon="2.38939">
        <ele>35</ele>
        <time>2023-01-24T09:05:41.176Z</time>
      </trkpt>
      <trkpt lat="48.68885" lon="2.38932">
        <ele>35</ele>
        <time>2023-01-24T09:05:45.203Z</time>
      </trkpt>
      <trkpt lat="48.68887" lon="2.38927">
        <ele>36</ele>
        <time>2023-01-24T09:05:49.383Z</time>
      </trkpt>
      <trkpt lat="48.68889" lon="2.3892">
        <ele>36</ele>
        <time>2023-01-24T09:05:53.561Z</time>
      </trkpt>
      <trkpt lat="48.68892" lon="2.38913">
        <ele>36</ele>
        <time>2023-01-24T09:05:57.980Z</time>
      </trkpt>
      <trkpt lat="48.68892" lon="2.38905">
        <ele>36</ele>
        <time>2023-01-24T09:06:02.797Z</time>
      </trkpt>
      <trkpt lat="48.68892" lon="2.38898">
        <ele>36</ele>
        <time>2023-01-24T09:06:06.577Z</time>
      </trkpt>
      <trkpt lat="48.68893" lon="2.38892">
        <ele>36</ele>
        <time>2023-01-24T09:06:11.237Z</time>
      </trkpt>
      <trkpt lat="48.68895" lon="2.38885">
        <ele>36</ele>
        <time>2023-01-24T09:06:15.178Z</time>
      </trkpt>
      <trkpt lat="48.68897" lon="2.38879">
        <ele>36</ele>
        <time>2023-01-24T09:06:19.239Z</time>
      </trkpt>
      <trkpt lat="48.68899" lon="2.38871">
        <ele>35</ele>
        <time>2023-01-24T09:06:23.779Z</time>
      </trkpt>
      <trkpt lat="48.68901" lon="2.38864">
        <ele>35</ele>
        <time>2023-01-24T09:06:27.842Z</time>
      </trkpt>
      <trkpt lat="48.68902" lon="2.38858">
        <ele>35</ele>
        <time>2023-01-24T09:06:31.963Z</time>
      </trkpt>
      <trkpt lat="48.68905" lon="2.38851">
        <ele>35</ele>
        <time>2023-01-24T09:06:35.960Z</time>
      </trkpt>
      <trkpt lat="48.68908" lon="2.38841">
        <ele>36</ele>
        <time>2023-01-24T09:06:40.581Z</time>
      </trkpt>
      <trkpt lat="48.6891" lon="2.38833">
        <ele>36</ele>
        <time>2023-01-24T09:06:44.559Z</time>
      </trkpt>
      <trkpt lat="48.68912" lon="2.38825">
        <ele>36</ele>
        <time>2023-01-24T09:06:48.978Z</time>
      </trkpt>
      <trkpt lat="48.68914" lon="2.38818">
        <ele>37</ele>
        <time>2023-01-24T09:06:53.636Z</time>
      </trkpt>
      <trkpt lat="48.68916" lon="2.3881">
        <ele>37</ele>
        <time>2023-01-24T09:06:57.817Z</time>
      </trkpt>
      <trkpt lat="48.68918" lon="2.38802">
        <ele>37</ele>
        <time>2023-01-24T09:07:02.028Z</time>
      </trkpt>
      <trkpt lat="48.6892" lon="2.38794">
        <ele>37</ele>
        <time>2023-01-24T09:07:06.178Z</time>
      </trkpt>
      <trkpt lat="48.68922" lon="2.38786">
        <ele>38</ele>
        <time>2023-01-24T09:07:10.641Z</time>
      </trkpt>
      <trkpt lat="48.68925" lon="2.3878">
        <ele>38</ele>
        <time>2023-01-24T09:07:14.658Z</time>
      </trkpt>
      <trkpt lat="48.68927" lon="2.38772">
        <ele>38</ele>
        <time>2023-01-24T09:07:18.600Z</time>
      </trkpt>
      <trkpt lat="48.6893" lon="2.38762">
        <ele>37</ele>
        <time>2023-01-24T09:07:23.046Z</time>
      </trkpt>
      <trkpt lat="48.68932" lon="2.38754">
        <ele>36</ele>
        <time>2023-01-24T09:07:27.012Z</time>
      </trkpt>
      <trkpt lat="48.68936" lon="2.38741">
        <ele>36</ele>
        <time>2023-01-24T09:07:31.499Z</time>
      </trkpt>
      <trkpt lat="48.68939" lon="2.38731">
        <ele>34</ele>
        <time>2023-01-24T09:07:36.012Z</time>
      </trkpt>
      <trkpt lat="48.68941" lon="2.3872">
        <ele>34</ele>
        <time>2023-01-24T09:07:39.855Z</time>
      </trkpt>
      <trkpt lat="48.68943" lon="2.3871">
        <ele>34</ele>
        <time>2023-01-24T09:07:44.512Z</time>
      </trkpt>
      <trkpt lat="48.68945" lon="2.38698">
        <ele>34</ele>
        <time>2023-01-24T09:07:49.056Z</time>
      </trkpt>
      <trkpt lat="48.68946" lon="2.38686">
        <ele>34</ele>
        <time>2023-01-24T09:07:53.012Z</time>
      </trkpt>
      <trkpt lat="48.68947" lon="2.38677">
        <ele>33</ele>
        <time>2023-01-24T09:07:57.461Z</time>
      </trkpt>
      <trkpt lat="48.68949" lon="2.38668">
        <ele>33</ele>
        <time>2023-01-24T09:08:01.826Z</time>
      </trkpt>
      <trkpt lat="48.6895" lon="2.38661">
        <ele>33</ele>
        <time>2023-01-24T09:08:05.887Z</time>
      </trkpt>
      <trkpt lat="48.68953" lon="2.38651">
        <ele>34</ele>
        <time>2023-01-24T09:08:10.545Z</time>
      </trkpt>
      <trkpt lat="48.68958" lon="2.38643">
        <ele>34</ele>
        <time>2023-01-24T09:08:15.155Z</time>
      </trkpt>
      <trkpt lat="48.68961" lon="2.38636">
        <ele>36</ele>
        <time>2023-01-24T09:08:19.145Z</time>
      </trkpt>
      <trkpt lat="48.68962" lon="2.38626">
        <ele>36</ele>
        <time>2023-01-24T09:08:23.678Z</time>
      </trkpt>
      <trkpt lat="48.6896" lon="2.38616">
        <ele>36</ele>
        <time>2023-01-24T09:08:27.627Z</time>
      </trkpt>
      <trkpt lat="48.68964" lon="2.38603">
        <ele>36</ele>
        <time>2023-01-24T09:08:32.405Z</time>
      </trkpt>
      <trkpt lat="48.68968" lon="2.38592">
        <ele>37</ele>
        <time>2023-01-24T09:08:36.468Z</time>
      </trkpt>
      <trkpt lat="48.68965" lon="2.38581">
        <ele>37</ele>
        <time>2023-01-24T09:08:40.531Z</time>
      </trkpt>
      <trkpt lat="48.68964" lon="2.38575">
        <ele>37</ele>
        <time>2023-01-24T09:08:45.023Z</time>
      </trkpt>
      <trkpt lat="48.68961" lon="2.3857">
        <ele>37</ele>
        <time>2023-01-24T09:08:49.012Z</time>
      </trkpt>
      <trkpt lat="48.68957" lon="2.38565">
        <ele>37</ele>
        <time>2023-01-24T09:08:52.963Z</time>
      </trkpt>
      <trkpt lat="48.68953" lon="2.38559">
        <ele>37</ele>
        <time>2023-01-24T09:08:57.148Z</time>
      </trkpt>
      <trkpt lat="48.68947" lon="2.38548">
        <ele>37</ele>
        <time>2023-01-24T09:09:01.571Z</time>
      </trkpt>
      <trkpt lat="48.68944" lon="2.38543">
        <ele>37</ele>
        <time>2023-01-24T09:09:05.516Z</time>
      </trkpt>
      <trkpt lat="48.68941" lon="2.3854">
        <ele>37</ele>
        <time>2023-01-24T09:09:09.580Z</time>
      </trkpt>
      <trkpt lat="48.68936" lon="2.38535">
        <ele>37</ele>
        <time>2023-01-24T09:09:13.525Z</time>
      </trkpt>
      <trkpt lat="48.68932" lon="2.38532">
        <ele>37</ele>
        <time>2023-01-24T09:09:18.012Z</time>
      </trkpt>
      <trkpt lat="48.68928" lon="2.38528">
        <ele>36</ele>
        <time>2023-01-24T09:09:22.474Z</time>
      </trkpt>
      <trkpt lat="48.68923" lon="2.38523">
        <ele>36</ele>
        <time>2023-01-24T09:09:26.420Z</time>
      </trkpt>
      <trkpt lat="48.68918" lon="2.38519">
        <ele>36</ele>
        <time>2023-01-24T09:09:30.604Z</time>
      </trkpt>
      <trkpt lat="48.68915" lon="2.38516">
        <ele>36</ele>
        <time>2023-01-24T09:09:35.386Z</time>
      </trkpt>
      <trkpt lat="48.68911" lon="2.3851">
        <ele>37</ele>
        <time>2023-01-24T09:09:39.901Z</time>
      </trkpt>
      <trkpt lat="48.68908" lon="2.38502">
        <ele>37</ele>
        <time>2023-01-24T09:09:43.975Z</time>
      </trkpt>
      <trkpt lat="48.68907" lon="2.38485">
        <ele>37</ele>
        <time>2023-01-24T09:09:48.100Z</time>
      </trkpt>
      <trkpt lat="48.68908" lon="2.38475">
        <ele>37</ele>
        <time>2023-01-24T09:09:52.596Z</time>
      </trkpt>
      <trkpt lat="48.68908" lon="2.3847">
        <ele>37</ele>
        <time>2023-01-24T09:09:56.538Z</time>
      </trkpt>
      <trkpt lat="48.68909" lon="2.38464">
        <ele>37</ele>
        <time>2023-01-24T09:10:00.480Z</time>
      </trkpt>
      <trkpt lat="48.6891" lon="2.38457">
        <ele>38</ele>
        <time>2023-01-24T09:10:05.012Z</time>
      </trkpt>
      <trkpt lat="48.68911" lon="2.38447">
        <ele>38</ele>
        <time>2023-01-24T09:10:09.678Z</time>
      </trkpt>
      <trkpt lat="48.68914" lon="2.3844">
        <ele>38</ele>
        <time>2023-01-24T09:10:14.081Z</time>
      </trkpt>
      <trkpt lat="48.68916" lon="2.38436">
        <ele>38</ele>
        <time>2023-01-24T09:10:18.161Z</time>
      </trkpt>
      <trkpt lat="48.68916" lon="2.38425">
        <ele>38</ele>
        <time>2023-01-24T09:10:22.776Z</time>
      </trkpt>
      <trkpt lat="48.68917" lon="2.3841">
        <ele>38</ele>
        <time>2023-01-24T09:10:26.768Z</time>
      </trkpt>
      <trkpt lat="48.68917" lon="2.38401">
        <ele>39</ele>
        <time>2023-01-24T09:10:31.187Z</time>
      </trkpt>
      <trkpt lat="48.68918" lon="2.38388">
        <ele>39</ele>
        <time>2023-01-24T09:10:35.519Z</time>
      </trkpt>
      <trkpt lat="48.68919" lon="2.38381">
        <ele>39</ele>
        <time>2023-01-24T09:10:39.681Z</time>
      </trkpt>
      <trkpt lat="48.68919" lon="2.38376">
        <ele>39</ele>
        <time>2023-01-24T09:10:43.739Z</time>
      </trkpt>
      <trkpt lat="48.68915" lon="2.38371">
        <ele>38</ele>
        <time>2023-01-24T09:10:47.648Z</time>
      </trkpt>
      <trkpt lat="48.68911" lon="2.38369">
        <ele>38</ele>
        <time>2023-01-24T09:10:51.589Z</time>
      </trkpt>
      <trkpt lat="48.68904" lon="2.38389">
        <ele>39</ele>
        <time>2023-01-24T09:10:56.366Z</time>
      </trkpt>
      <trkpt lat="48.68899" lon="2.38396">
        <ele>38</ele>
        <time>2023-01-24T09:11:00.427Z</time>
      </trkpt>
      <trkpt lat="48.6889" lon="2.38393">
        <ele>38</ele>
        <time>2023-01-24T09:11:05.196Z</time>
      </trkpt>
      <trkpt lat="48.68881" lon="2.3839">
        <ele>38</ele>
        <time>2023-01-24T09:11:09.384Z</time>
      </trkpt>
      <trkpt lat="48.68875" lon="2.38391">
        <ele>38</ele>
        <time>2023-01-24T09:11:13.445Z</time>
      </trkpt>
      <trkpt lat="48.68869" lon="2.3839">
        <ele>39</ele>
        <time>2023-01-24T09:11:31.001Z</time>
      </trkpt>
      <trkpt lat="48.6887" lon="2.38384">
        <ele>39</ele>
        <time>2023-01-24T09:11:35.179Z</time>
      </trkpt>
      <trkpt lat="48.68872" lon="2.38373">
        <ele>38</ele>
        <time>2023-01-24T09:11:39.641Z</time>
      </trkpt>
      <trkpt lat="48.6888" lon="2.38377">
        <ele>38</ele>
        <time>2023-01-24T09:11:43.976Z</time>
      </trkpt>
      <trkpt lat="48.68884" lon="2.38376">
        <ele>38</ele>
        <time>2023-01-24T09:11:48.012Z</time>
      </trkpt>
      <trkpt lat="48.68887" lon="2.38369">
        <ele>37</ele>
        <time>2023-01-24T09:11:52.611Z</time>
      </trkpt>
      <trkpt lat="48.68891" lon="2.38362">
        <ele>37</ele>
        <time>2023-01-24T09:11:57.003Z</time>
      </trkpt>
      <trkpt lat="48.68895" lon="2.38356">
        <ele>37</ele>
        <time>2023-01-24T09:12:01.012Z</time>
      </trkpt>
      <trkpt lat="48.68898" lon="2.38349">
        <ele>37</ele>
        <time>2023-01-24T09:12:04.912Z</time>
      </trkpt>
      <trkpt lat="48.689" lon="2.38346">
        <ele>37</ele>
        <time>2023-01-24T09:12:09.443Z</time>
      </trkpt>
      <trkpt lat="48.68904" lon="2.38344">
        <ele>37</ele>
        <time>2023-01-24T09:12:13.964Z</time>
      </trkpt>
      <trkpt lat="48.68905" lon="2.38335">
        <ele>37</ele>
        <time>2023-01-24T09:12:18.125Z</time>
      </trkpt>
      <trkpt lat="48.68907" lon="2.38323">
        <ele>37</ele>
        <time>2023-01-24T09:12:22.434Z</time>
      </trkpt>
      <trkpt lat="48.68906" lon="2.38308">
        <ele>37</ele>
        <time>2023-01-24T09:12:26.535Z</time>
      </trkpt>
      <trkpt lat="48.68905" lon="2.38299">
        <ele>37</ele>
        <time>2023-01-24T09:12:30.596Z</time>
      </trkpt>
      <trkpt lat="48.68908" lon="2.3829">
        <ele>37</ele>
        <time>2023-01-24T09:12:34.777Z</time>
      </trkpt>
      <trkpt lat="48.68912" lon="2.38278">
        <ele>37</ele>
        <time>2023-01-24T09:12:39.200Z</time>
      </trkpt>
      <trkpt lat="48.68916" lon="2.38271">
        <ele>37</ele>
        <time>2023-01-24T09:12:43.820Z</time>
      </trkpt>
      <trkpt lat="48.68924" lon="2.3827">
        <ele>37</ele>
        <time>2023-01-24T09:12:47.801Z</time>
      </trkpt>
      <trkpt lat="48.68926" lon="2.38261">
        <ele>37</ele>
        <time>2023-01-24T09:12:52.375Z</time>
      </trkpt>
      <trkpt lat="48.68929" lon="2.38252">
        <ele>37</ele>
        <time>2023-01-24T09:12:56.622Z</time>
      </trkpt>
      <trkpt lat="48.68933" lon="2.38245">
        <ele>37</ele>
        <time>2023-01-24T09:13:00.800Z</time>
      </trkpt>
      <trkpt lat="48.68937" lon="2.38238">
        <ele>37</ele>
        <time>2023-01-24T09:13:05.336Z</time>
      </trkpt>
      <trkpt lat="48.68941" lon="2.38232">
        <ele>36</ele>
        <time>2023-01-24T09:13:09.871Z</time>
      </trkpt>
      <trkpt lat="48.68945" lon="2.38224">
        <ele>36</ele>
        <time>2023-01-24T09:13:14.389Z</time>
      </trkpt>
      <trkpt lat="48.6895" lon="2.38217">
        <ele>36</ele>
        <time>2023-01-24T09:13:18.926Z</time>
      </trkpt>
      <trkpt lat="48.68954" lon="2.38211">
        <ele>36</ele>
        <time>2023-01-24T09:13:22.967Z</time>
      </trkpt>
      <trkpt lat="48.68959" lon="2.38204">
        <ele>37</ele>
        <time>2023-01-24T09:13:27.503Z</time>
      </trkpt>
      <trkpt lat="48.68964" lon="2.38199">
        <ele>37</ele>
        <time>2023-01-24T09:13:31.441Z</time>
      </trkpt>
      <trkpt lat="48.68968" lon="2.38191">
        <ele>37</ele>
        <time>2023-01-24T09:13:35.976Z</time>
      </trkpt>
      <trkpt lat="48.68971" lon="2.38185">
        <ele>37</ele>
        <time>2023-01-24T09:13:40.063Z</time>
      </trkpt>
      <trkpt lat="48.68976" lon="2.38178">
        <ele>37</ele>
        <time>2023-01-24T09:13:44.570Z</time>
      </trkpt>
      <trkpt lat="48.68981" lon="2.38172">
        <ele>37</ele>
        <time>2023-01-24T09:13:49.012Z</time>
      </trkpt>
      <trkpt lat="48.68983" lon="2.3817">
        <ele>37</ele>
        <time>2023-01-24T09:13:53.139Z</time>
      </trkpt>
      <trkpt lat="48.68988" lon="2.38167">
        <ele>36</ele>
        <time>2023-01-24T09:13:57.582Z</time>
      </trkpt>
      <trkpt lat="48.68993" lon="2.38166">
        <ele>36</ele>
        <time>2023-01-24T09:14:02.595Z</time>
      </trkpt>
      <trkpt lat="48.68999" lon="2.38162">
        <ele>36</ele>
        <time>2023-01-24T09:14:06.535Z</time>
      </trkpt>
      <trkpt lat="48.69002" lon="2.38162">
        <ele>36</ele>
        <time>2023-01-24T09:14:11.091Z</time>
      </trkpt>
      <trkpt lat="48.69004" lon="2.38165">
        <ele>36</ele>
        <time>2023-01-24T09:14:15.606Z</time>
      </trkpt>
      <trkpt lat="48.69007" lon="2.38161">
        <ele>36</ele>
        <time>2023-01-24T09:14:19.547Z</time>
      </trkpt>
      <trkpt lat="48.69012" lon="2.38156">
        <ele>36</ele>
        <time>2023-01-24T09:14:24.085Z</time>
      </trkpt>
      <trkpt lat="48.69017" lon="2.38152">
        <ele>36</ele>
        <time>2023-01-24T09:14:28.144Z</time>
      </trkpt>
      <trkpt lat="48.69021" lon="2.38147">
        <ele>36</ele>
        <time>2023-01-24T09:14:32.563Z</time>
      </trkpt>
      <trkpt lat="48.69025" lon="2.3814">
        <ele>36</ele>
        <time>2023-01-24T09:14:37.169Z</time>
      </trkpt>
      <trkpt lat="48.69025" lon="2.38126">
        <ele>36</ele>
        <time>2023-01-24T09:14:41.161Z</time>
      </trkpt>
      <trkpt lat="48.69029" lon="2.38114">
        <ele>36</ele>
        <time>2023-01-24T09:14:45.818Z</time>
      </trkpt>
      <trkpt lat="48.69033" lon="2.38103">
        <ele>36</ele>
        <time>2023-01-24T09:14:50.458Z</time>
      </trkpt>
      <trkpt lat="48.69037" lon="2.38095">
        <ele>36</ele>
        <time>2023-01-24T09:14:54.538Z</time>
      </trkpt>
      <trkpt lat="48.69041" lon="2.38085">
        <ele>36</ele>
        <time>2023-01-24T09:14:59.012Z</time>
      </trkpt>
      <trkpt lat="48.69045" lon="2.38082">
        <ele>36</ele>
        <time>2023-01-24T09:15:03.614Z</time>
      </trkpt>
      <trkpt lat="48.69048" lon="2.38074">
        <ele>36</ele>
        <time>2023-01-24T09:15:08.077Z</time>
      </trkpt>
      <trkpt lat="48.69055" lon="2.38065">
        <ele>36</ele>
        <time>2023-01-24T09:15:12.213Z</time>
      </trkpt>
      <trkpt lat="48.69059" lon="2.38057">
        <ele>36</ele>
        <time>2023-01-24T09:15:16.394Z</time>
      </trkpt>
      <trkpt lat="48.69064" lon="2.3805">
        <ele>36</ele>
        <time>2023-01-24T09:15:20.335Z</time>
      </trkpt>
      <trkpt lat="48.69067" lon="2.38044">
        <ele>36</ele>
        <time>2023-01-24T09:15:24.993Z</time>
      </trkpt>
      <trkpt lat="48.69071" lon="2.38033">
        <ele>37</ele>
        <time>2023-01-24T09:15:29.532Z</time>
      </trkpt>
      <trkpt lat="48.69074" lon="2.38025">
        <ele>37</ele>
        <time>2023-01-24T09:15:34.193Z</time>
      </trkpt>
      <trkpt lat="48.69077" lon="2.38019">
        <ele>37</ele>
        <time>2023-01-24T09:15:38.255Z</time>
      </trkpt>
      <trkpt lat="48.6908" lon="2.3801">
        <ele>37</ele>
        <time>2023-01-24T09:15:42.674Z</time>
      </trkpt>
      <trkpt lat="48.69082" lon="2.38001">
        <ele>37</ele>
        <time>2023-01-24T09:15:46.598Z</time>
      </trkpt>
      <trkpt lat="48.69084" lon="2.37993">
        <ele>37</ele>
        <time>2023-01-24T09:15:51.137Z</time>
      </trkpt>
      <trkpt lat="48.69088" lon="2.37987">
        <ele>37</ele>
        <time>2023-01-24T09:15:55.796Z</time>
      </trkpt>
      <trkpt lat="48.69094" lon="2.37981">
        <ele>37</ele>
        <time>2023-01-24T09:15:59.619Z</time>
      </trkpt>
      <trkpt lat="48.69101" lon="2.37974">
        <ele>36</ele>
        <time>2023-01-24T09:16:04.159Z</time>
      </trkpt>
      <trkpt lat="48.69103" lon="2.3797">
        <ele>36</ele>
        <time>2023-01-24T09:16:08.177Z</time>
      </trkpt>
      <trkpt lat="48.69107" lon="2.37963">
        <ele>36</ele>
        <time>2023-01-24T09:16:12.634Z</time>
      </trkpt>
      <trkpt lat="48.6911" lon="2.37957">
        <ele>36</ele>
        <time>2023-01-24T09:16:16.457Z</time>
      </trkpt>
      <trkpt lat="48.69113" lon="2.37948">
        <ele>36</ele>
        <time>2023-01-24T09:16:20.938Z</time>
      </trkpt>
      <trkpt lat="48.69116" lon="2.37941">
        <ele>36</ele>
        <time>2023-01-24T09:16:24.935Z</time>
      </trkpt>
      <trkpt lat="48.69118" lon="2.37931">
        <ele>36</ele>
        <time>2023-01-24T09:16:28.995Z</time>
      </trkpt>
      <trkpt lat="48.69121" lon="2.37924">
        <ele>36</ele>
        <time>2023-01-24T09:16:33.532Z</time>
      </trkpt>
      <trkpt lat="48.69126" lon="2.37915">
        <ele>35</ele>
        <time>2023-01-24T09:16:37.473Z</time>
      </trkpt>
      <trkpt lat="48.6913" lon="2.37909">
        <ele>35</ele>
        <time>2023-01-24T09:16:42.010Z</time>
      </trkpt>
      <trkpt lat="48.69133" lon="2.37902">
        <ele>35</ele>
        <time>2023-01-24T09:16:46.141Z</time>
      </trkpt>
      <trkpt lat="48.69134" lon="2.37892">
        <ele>35</ele>
        <time>2023-01-24T09:16:50.607Z</time>
      </trkpt>
      <trkpt lat="48.69137" lon="2.37884">
        <ele>35</ele>
        <time>2023-01-24T09:16:54.668Z</time>
      </trkpt>
      <trkpt lat="48.6914" lon="2.37876">
        <ele>35</ele>
        <time>2023-01-24T09:16:58.608Z</time>
      </trkpt>
      <trkpt lat="48.69142" lon="2.37851">
        <ele>35</ele>
        <time>2023-01-24T09:17:52.069Z</time>
      </trkpt>
      <trkpt lat="48.69142" lon="2.37851">
        <ele>35</ele>
        <time>2023-01-24T09:17:56.197Z</time>
      </trkpt>
      <trkpt lat="48.69143" lon="2.3785">
        <ele>35</ele>
        <time>2023-01-24T09:18:01.019Z</time>
      </trkpt>
      <trkpt lat="48.69142" lon="2.37849">
        <ele>35</ele>
        <time>2023-01-24T09:18:05.060Z</time>
      </trkpt>
      <trkpt lat="48.69142" lon="2.37842">
        <ele>36</ele>
        <time>2023-01-24T09:18:09.195Z</time>
      </trkpt>
      <trkpt lat="48.69142" lon="2.37836">
        <ele>36</ele>
        <time>2023-01-24T09:18:13.255Z</time>
      </trkpt>
      <trkpt lat="48.69148" lon="2.37834">
        <ele>36</ele>
        <time>2023-01-24T09:18:17.433Z</time>
      </trkpt>
      <trkpt lat="48.69155" lon="2.37831">
        <ele>35</ele>
        <time>2023-01-24T09:18:22.012Z</time>
      </trkpt>
      <trkpt lat="48.6916" lon="2.3783">
        <ele>35</ele>
        <time>2023-01-24T09:18:26.519Z</time>
      </trkpt>
      <trkpt lat="48.69162" lon="2.37822">
        <ele>35</ele>
        <time>2023-01-24T09:18:30.447Z</time>
      </trkpt>
      <trkpt lat="48.69165" lon="2.37814">
        <ele>36</ele>
        <time>2023-01-24T09:18:34.980Z</time>
      </trkpt>
      <trkpt lat="48.69168" lon="2.37804">
        <ele>36</ele>
        <time>2023-01-24T09:18:39.236Z</time>
      </trkpt>
      <trkpt lat="48.69171" lon="2.37798">
        <ele>36</ele>
        <time>2023-01-24T09:18:43.222Z</time>
      </trkpt>
      <trkpt lat="48.69176" lon="2.37793">
        <ele>36</ele>
        <time>2023-01-24T09:18:47.401Z</time>
      </trkpt>
      <trkpt lat="48.69179" lon="2.37786">
        <ele>37</ele>
        <time>2023-01-24T09:18:51.665Z</time>
      </trkpt>
      <trkpt lat="48.69183" lon="2.3778">
        <ele>37</ele>
        <time>2023-01-24T09:18:55.520Z</time>
      </trkpt>
      <trkpt lat="48.69186" lon="2.37773">
        <ele>37</ele>
        <time>2023-01-24T09:19:00.085Z</time>
      </trkpt>
      <trkpt lat="48.69188" lon="2.37765">
        <ele>37</ele>
        <time>2023-01-24T09:19:04.585Z</time>
      </trkpt>
      <trkpt lat="48.69191" lon="2.37757">
        <ele>38</ele>
        <time>2023-01-24T09:19:08.523Z</time>
      </trkpt>
      <trkpt lat="48.69194" lon="2.37745">
        <ele>38</ele>
        <time>2023-01-24T09:19:13.177Z</time>
      </trkpt>
      <trkpt lat="48.69198" lon="2.37734">
        <ele>38</ele>
        <time>2023-01-24T09:19:17.235Z</time>
      </trkpt>
      <trkpt lat="48.692" lon="2.37725">
        <ele>38</ele>
        <time>2023-01-24T09:19:21.650Z</time>
      </trkpt>
      <trkpt lat="48.69202" lon="2.37721">
        <ele>38</ele>
        <time>2023-01-24T09:19:26.186Z</time>
      </trkpt>
      <trkpt lat="48.69203" lon="2.37716">
        <ele>38</ele>
        <time>2023-01-24T09:19:30.603Z</time>
      </trkpt>
      <trkpt lat="48.69204" lon="2.37708">
        <ele>40</ele>
        <time>2023-01-24T09:19:35.077Z</time>
      </trkpt>
      <trkpt lat="48.69207" lon="2.37699">
        <ele>40</ele>
        <time>2023-01-24T09:19:39.555Z</time>
      </trkpt>
      <trkpt lat="48.69208" lon="2.37689">
        <ele>40</ele>
        <time>2023-01-24T09:19:44.184Z</time>
      </trkpt>
      <trkpt lat="48.69209" lon="2.3768">
        <ele>41</ele>
        <time>2023-01-24T09:19:48.602Z</time>
      </trkpt>
      <trkpt lat="48.69211" lon="2.37674">
        <ele>41</ele>
        <time>2023-01-24T09:19:52.570Z</time>
      </trkpt>
      <trkpt lat="48.69211" lon="2.37665">
        <ele>41</ele>
        <time>2023-01-24T09:19:56.704Z</time>
      </trkpt>
      <trkpt lat="48.69211" lon="2.37655">
        <ele>41</ele>
        <time>2023-01-24T09:20:01.134Z</time>
      </trkpt>
      <trkpt lat="48.69213" lon="2.37649">
        <ele>41</ele>
        <time>2023-01-24T09:20:05.538Z</time>
      </trkpt>
      <trkpt lat="48.69212" lon="2.3764">
        <ele>41</ele>
        <time>2023-01-24T09:20:09.731Z</time>
      </trkpt>
      <trkpt lat="48.69213" lon="2.3763">
        <ele>41</ele>
        <time>2023-01-24T09:20:14.406Z</time>
      </trkpt>
      <trkpt lat="48.69216" lon="2.3762">
        <ele>42</ele>
        <time>2023-01-24T09:20:18.476Z</time>
      </trkpt>
      <trkpt lat="48.69218" lon="2.37615">
        <ele>42</ele>
        <time>2023-01-24T09:20:22.560Z</time>
      </trkpt>
      <trkpt lat="48.69221" lon="2.37612">
        <ele>42</ele>
        <time>2023-01-24T09:20:26.555Z</time>
      </trkpt>
      <trkpt lat="48.69219" lon="2.37606">
        <ele>42</ele>
        <time>2023-01-24T09:20:30.729Z</time>
      </trkpt>
      <trkpt lat="48.6922" lon="2.37597">
        <ele>42</ele>
        <time>2023-01-24T09:20:35.454Z</time>
      </trkpt>
      <trkpt lat="48.69222" lon="2.37588">
        <ele>42</ele>
        <time>2023-01-24T09:20:40.020Z</time>
      </trkpt>
      <trkpt lat="48.69223" lon="2.37582">
        <ele>42</ele>
        <time>2023-01-24T09:20:44.012Z</time>
      </trkpt>
      <trkpt lat="48.69225" lon="2.37578">
        <ele>42</ele>
        <time>2023-01-24T09:20:48.032Z</time>
      </trkpt>
      <trkpt lat="48.69229" lon="2.37573">
        <ele>42</ele>
        <time>2023-01-24T09:20:52.558Z</time>
      </trkpt>
      <trkpt lat="48.69233" lon="2.37571">
        <ele>42</ele>
        <time>2023-01-24T09:20:56.652Z</time>
      </trkpt>
      <trkpt lat="48.69237" lon="2.37567">
        <ele>42</ele>
        <time>2023-01-24T09:21:00.566Z</time>
      </trkpt>
      <trkpt lat="48.69235" lon="2.37559">
        <ele>42</ele>
        <time>2023-01-24T09:21:09.522Z</time>
      </trkpt>
      <trkpt lat="48.69234" lon="2.37555">
        <ele>42</ele>
        <time>2023-01-24T09:21:14.520Z</time>
      </trkpt>
      <trkpt lat="48.69234" lon="2.37554">
        <ele>42</ele>
        <time>2023-01-24T09:21:19.036Z</time>
      </trkpt>
      <trkpt lat="48.69236" lon="2.3755">
        <ele>42</ele>
        <time>2023-01-24T09:21:23.058Z</time>
      </trkpt>
      <trkpt lat="48.69238" lon="2.3754">
        <ele>45</ele>
        <time>2023-01-24T09:21:27.539Z</time>
      </trkpt>
      <trkpt lat="48.69242" lon="2.37532">
        <ele>45</ele>
        <time>2023-01-24T09:21:32.213Z</time>
      </trkpt>
      <trkpt lat="48.69243" lon="2.3753">
        <ele>45</ele>
        <time>2023-01-24T09:21:36.289Z</time>
      </trkpt>
      <trkpt lat="48.69245" lon="2.37527">
        <ele>45</ele>
        <time>2023-01-24T09:21:40.977Z</time>
      </trkpt>
      <trkpt lat="48.69246" lon="2.37523">
        <ele>45</ele>
        <time>2023-01-24T09:21:45.016Z</time>
      </trkpt>
      <trkpt lat="48.69248" lon="2.37518">
        <ele>45</ele>
        <time>2023-01-24T09:21:48.874Z</time>
      </trkpt>
      <trkpt lat="48.69249" lon="2.37516">
        <ele>45</ele>
        <time>2023-01-24T09:21:52.948Z</time>
      </trkpt>
      <trkpt lat="48.6925" lon="2.37512">
        <ele>48</ele>
        <time>2023-01-24T09:21:57.542Z</time>
      </trkpt>
      <trkpt lat="48.69251" lon="2.37509">
        <ele>48</ele>
        <time>2023-01-24T09:22:02.173Z</time>
      </trkpt>
      <trkpt lat="48.69252" lon="2.37504">
        <ele>48</ele>
        <time>2023-01-24T09:22:06.678Z</time>
      </trkpt>
      <trkpt lat="48.69253" lon="2.37501">
        <ele>48</ele>
        <time>2023-01-24T09:22:10.557Z</time>
      </trkpt>
      <trkpt lat="48.69254" lon="2.37495">
        <ele>48</ele>
        <time>2023-01-24T09:22:14.630Z</time>
      </trkpt>
      <trkpt lat="48.69256" lon="2.37491">
        <ele>48</ele>
        <time>2023-01-24T09:22:18.822Z</time>
      </trkpt>
      <trkpt lat="48.69258" lon="2.37491">
        <ele>48</ele>
        <time>2023-01-24T09:22:23.012Z</time>
      </trkpt>
      <trkpt lat="48.69261" lon="2.37488">
        <ele>48</ele>
        <time>2023-01-24T09:22:27.564Z</time>
      </trkpt>
      <trkpt lat="48.69263" lon="2.37485">
        <ele>53</ele>
        <time>2023-01-24T09:22:31.755Z</time>
      </trkpt>
      <trkpt lat="48.69265" lon="2.37479">
        <ele>58</ele>
        <time>2023-01-24T09:22:36.307Z</time>
      </trkpt>
      <trkpt lat="48.69266" lon="2.37474">
        <ele>58</ele>
        <time>2023-01-24T09:22:40.377Z</time>
      </trkpt>
      <trkpt lat="48.69267" lon="2.3747">
        <ele>58</ele>
        <time>2023-01-24T09:22:44.570Z</time>
      </trkpt>
      <trkpt lat="48.69267" lon="2.37466">
        <ele>58</ele>
        <time>2023-01-24T09:22:48.744Z</time>
      </trkpt>
      <trkpt lat="48.69268" lon="2.37462">
        <ele>58</ele>
        <time>2023-01-24T09:22:53.235Z</time>
      </trkpt>
      <trkpt lat="48.69269" lon="2.3746">
        <ele>58</ele>
        <time>2023-01-24T09:22:57.328Z</time>
      </trkpt>
      <trkpt lat="48.69268" lon="2.37453">
        <ele>63</ele>
        <time>2023-01-24T09:23:02Z</time>
      </trkpt>
      <trkpt lat="48.69268" lon="2.37446">
        <ele>63</ele>
        <time>2023-01-24T09:23:06.152Z</time>
      </trkpt>
      <trkpt lat="48.69269" lon="2.3744">
        <ele>63</ele>
        <time>2023-01-24T09:23:10.802Z</time>
      </trkpt>
      <trkpt lat="48.6927" lon="2.37431">
        <ele>63</ele>
        <time>2023-01-24T09:23:15.591Z</time>
      </trkpt>
      <trkpt lat="48.69272" lon="2.37426">
        <ele>66</ele>
        <time>2023-01-24T09:23:19.782Z</time>
      </trkpt>
      <trkpt lat="48.69277" lon="2.37429">
        <ele>66</ele>
        <time>2023-01-24T09:23:24.514Z</time>
      </trkpt>
      <trkpt lat="48.69281" lon="2.37429">
        <ele>66</ele>
        <time>2023-01-24T09:23:28.740Z</time>
      </trkpt>
      <trkpt lat="48.69284" lon="2.37426">
        <ele>66</ele>
        <time>2023-01-24T09:23:32.940Z</time>
      </trkpt>
      <trkpt lat="48.69286" lon="2.37422">
        <ele>66</ele>
        <time>2023-01-24T09:23:36.984Z</time>
      </trkpt>
      <trkpt lat="48.69292" lon="2.37424">
        <ele>69</ele>
        <time>2023-01-24T09:23:41.476Z</time>
      </trkpt>
      <trkpt lat="48.69299" lon="2.37433">
        <ele>67</ele>
        <time>2023-01-24T09:23:45.600Z</time>
      </trkpt>
      <trkpt lat="48.69304" lon="2.37436">
        <ele>67</ele>
        <time>2023-01-24T09:23:49.534Z</time>
      </trkpt>
      <trkpt lat="48.69308" lon="2.37438">
        <ele>67</ele>
        <time>2023-01-24T09:23:54.196Z</time>
      </trkpt>
      <trkpt lat="48.6931" lon="2.37438">
        <ele>67</ele>
        <time>2023-01-24T09:23:58.898Z</time>
      </trkpt>
      <trkpt lat="48.69314" lon="2.37434">
        <ele>67</ele>
        <time>2023-01-24T09:24:02.803Z</time>
      </trkpt>
      <trkpt lat="48.69317" lon="2.37435">
        <ele>67</ele>
        <time>2023-01-24T09:24:06.868Z</time>
      </trkpt>
      <trkpt lat="48.69322" lon="2.37436">
        <ele>66</ele>
        <time>2023-01-24T09:24:11.630Z</time>
      </trkpt>
      <trkpt lat="48.69329" lon="2.37437">
        <ele>66</ele>
        <time>2023-01-24T09:24:15.579Z</time>
      </trkpt>
      <trkpt lat="48.69336" lon="2.37438">
        <ele>66</ele>
        <time>2023-01-24T09:24:20.204Z</time>
      </trkpt>
      <trkpt lat="48.69341" lon="2.37438">
        <ele>66</ele>
        <time>2023-01-24T09:24:24.542Z</time>
      </trkpt>
      <trkpt lat="48.69345" lon="2.37437">
        <ele>66</ele>
        <time>2023-01-24T09:24:29.275Z</time>
      </trkpt>
      <trkpt lat="48.69351" lon="2.37436">
        <ele>66</ele>
        <time>2023-01-24T09:24:33.734Z</time>
      </trkpt>
      <trkpt lat="48.69356" lon="2.37437">
        <ele>66</ele>
        <time>2023-01-24T09:24:38.313Z</time>
      </trkpt>
      <trkpt lat="48.69358" lon="2.37438">
        <ele>66</ele>
        <time>2023-01-24T09:24:42.365Z</time>
      </trkpt>
      <trkpt lat="48.69362" lon="2.37437">
        <ele>66</ele>
        <time>2023-01-24T09:24:46.739Z</time>
      </trkpt>
      <trkpt lat="48.69367" lon="2.37437">
        <ele>66</ele>
        <time>2023-01-24T09:24:51.048Z</time>
      </trkpt>
      <trkpt lat="48.69373" lon="2.37437">
        <ele>66</ele>
        <time>2023-01-24T09:24:55.744Z</time>
      </trkpt>
      <trkpt lat="48.69379" lon="2.37438">
        <ele>65</ele>
        <time>2023-01-24T09:24:59.512Z</time>
      </trkpt>
      <trkpt lat="48.69386" lon="2.37441">
        <ele>65</ele>
        <time>2023-01-24T09:25:04.012Z</time>
      </trkpt>
      <trkpt lat="48.69394" lon="2.37446">
        <ele>65</ele>
        <time>2023-01-24T09:25:08.496Z</time>
      </trkpt>
      <trkpt lat="48.694" lon="2.37448">
        <ele>65</ele>
        <time>2023-01-24T09:25:12.723Z</time>
      </trkpt>
      <trkpt lat="48.69406" lon="2.37449">
        <ele>67</ele>
        <time>2023-01-24T09:25:16.794Z</time>
      </trkpt>
      <trkpt lat="48.69411" lon="2.3745">
        <ele>67</ele>
        <time>2023-01-24T09:25:20.806Z</time>
      </trkpt>
      <trkpt lat="48.69416" lon="2.37452">
        <ele>67</ele>
        <time>2023-01-24T09:25:25.396Z</time>
      </trkpt>
      <trkpt lat="48.69421" lon="2.37455">
        <ele>67</ele>
        <time>2023-01-24T09:25:29.667Z</time>
      </trkpt>
      <trkpt lat="48.69425" lon="2.37458">
        <ele>67</ele>
        <time>2023-01-24T09:25:33.938Z</time>
      </trkpt>
      <trkpt lat="48.69431" lon="2.37461">
        <ele>63</ele>
        <time>2023-01-24T09:25:37.868Z</time>
      </trkpt>
      <trkpt lat="48.69436" lon="2.37464">
        <ele>65</ele>
        <time>2023-01-24T09:25:42.484Z</time>
      </trkpt>
      <trkpt lat="48.69441" lon="2.37464">
        <ele>65</ele>
        <time>2023-01-24T09:25:46.553Z</time>
      </trkpt>
      <trkpt lat="48.69446" lon="2.37466">
        <ele>65</ele>
        <time>2023-01-24T09:25:51.009Z</time>
      </trkpt>
      <trkpt lat="48.6945" lon="2.37468">
        <ele>65</ele>
        <time>2023-01-24T09:25:55.422Z</time>
      </trkpt>
      <trkpt lat="48.69454" lon="2.37469">
        <ele>65</ele>
        <time>2023-01-24T09:25:59.436Z</time>
      </trkpt>
      <trkpt lat="48.6946" lon="2.37472">
        <ele>69</ele>
        <time>2023-01-24T09:26:03.948Z</time>
      </trkpt>
      <trkpt lat="48.69466" lon="2.37474">
        <ele>69</ele>
        <time>2023-01-24T09:26:08.580Z</time>
      </trkpt>
      <trkpt lat="48.69471" lon="2.37476">
        <ele>69</ele>
        <time>2023-01-24T09:26:12.732Z</time>
      </trkpt>
      <trkpt lat="48.69475" lon="2.37478">
        <ele>69</ele>
        <time>2023-01-24T09:26:16.924Z</time>
      </trkpt>
      <trkpt lat="48.69479" lon="2.37481">
        <ele>69</ele>
        <time>2023-01-24T09:26:21.556Z</time>
      </trkpt>
      <trkpt lat="48.69481" lon="2.37486">
        <ele>69</ele>
        <time>2023-01-24T09:26:25.730Z</time>
      </trkpt>
      <trkpt lat="48.69487" lon="2.37486">
        <ele>67</ele>
        <time>2023-01-24T09:26:30.870Z</time>
      </trkpt>
      <trkpt lat="48.69488" lon="2.37488">
        <ele>67</ele>
        <time>2023-01-24T09:26:35.398Z</time>
      </trkpt>
      <trkpt lat="48.69498" lon="2.37492">
        <ele>67</ele>
        <time>2023-01-24T09:28:53.036Z</time>
      </trkpt>
      <trkpt lat="48.69497" lon="2.37493">
        <ele>67</ele>
        <time>2023-01-24T09:28:57.043Z</time>
      </trkpt>
      <trkpt lat="48.695" lon="2.37493">
        <ele>67</ele>
        <time>2023-01-24T09:29:01.058Z</time>
      </trkpt>
      <trkpt lat="48.69506" lon="2.37494">
        <ele>67</ele>
        <time>2023-01-24T09:29:06.024Z</time>
      </trkpt>
      <trkpt lat="48.6951" lon="2.37495">
        <ele>67</ele>
        <time>2023-01-24T09:29:10.175Z</time>
      </trkpt>
      <trkpt lat="48.69516" lon="2.37497">
        <ele>68</ele>
        <time>2023-01-24T09:29:14.963Z</time>
      </trkpt>
      <trkpt lat="48.69522" lon="2.37499">
        <ele>68</ele>
        <time>2023-01-24T09:29:19.452Z</time>
      </trkpt>
      <trkpt lat="48.69528" lon="2.37501">
        <ele>68</ele>
        <time>2023-01-24T09:29:23.819Z</time>
      </trkpt>
      <trkpt lat="48.69533" lon="2.37503">
        <ele>68</ele>
        <time>2023-01-24T09:29:28.238Z</time>
      </trkpt>
      <trkpt lat="48.69538" lon="2.37505">
        <ele>68</ele>
        <time>2023-01-24T09:29:32.555Z</time>
      </trkpt>
      <trkpt lat="48.69543" lon="2.37507">
        <ele>68</ele>
        <time>2023-01-24T09:29:36.933Z</time>
      </trkpt>
      <trkpt lat="48.69546" lon="2.37509">
        <ele>68</ele>
        <time>2023-01-24T09:29:41.341Z</time>
      </trkpt>
      <trkpt lat="48.69552" lon="2.37515">
        <ele>63</ele>
        <time>2023-01-24T09:29:45.794Z</time>
      </trkpt>
      <trkpt lat="48.69555" lon="2.37522">
        <ele>63</ele>
        <time>2023-01-24T09:29:49.618Z</time>
      </trkpt>
      <trkpt lat="48.69558" lon="2.37528">
        <ele>63</ele>
        <time>2023-01-24T09:29:54.399Z</time>
      </trkpt>
      <trkpt lat="48.6956" lon="2.37533">
        <ele>63</ele>
        <time>2023-01-24T09:29:58.583Z</time>
      </trkpt>
      <trkpt lat="48.6956" lon="2.37539">
        <ele>63</ele>
        <time>2023-01-24T09:30:03.257Z</time>
      </trkpt>
      <trkpt lat="48.69561" lon="2.37544">
        <ele>58</ele>
        <time>2023-01-24T09:30:07.187Z</time>
      </trkpt>
      <trkpt lat="48.69562" lon="2.3755">
        <ele>58</ele>
        <time>2023-01-24T09:30:11.643Z</time>
      </trkpt>
      <trkpt lat="48.69562" lon="2.37556">
        <ele>58</ele>
        <time>2023-01-24T09:30:15.791Z</time>
      </trkpt>
      <trkpt lat="48.6956" lon="2.37562">
        <ele>58</ele>
        <time>2023-01-24T09:30:19.854Z</time>
      </trkpt>
      <trkpt lat="48.69558" lon="2.37567">
        <ele>58</ele>
        <time>2023-01-24T09:30:24.275Z</time>
      </trkpt>
      <trkpt lat="48.69555" lon="2.37572">
        <ele>55</ele>
        <time>2023-01-24T09:30:28.936Z</time>
      </trkpt>
      <trkpt lat="48.69551" lon="2.37573">
        <ele>55</ele>
        <time>2023-01-24T09:30:33.597Z</time>
      </trkpt>
      <trkpt lat="48.69547" lon="2.37577">
        <ele>55</ele>
        <time>2023-01-24T09:30:38.083Z</time>
      </trkpt>
      <trkpt lat="48.69551" lon="2.37584">
        <ele>55</ele>
        <time>2023-01-24T09:30:42.156Z</time>
      </trkpt>
      <trkpt lat="48.69559" lon="2.37587">
        <ele>55</ele>
        <time>2023-01-24T09:30:46.625Z</time>
      </trkpt>
      <trkpt lat="48.69564" lon="2.3759">
        <ele>55</ele>
        <time>2023-01-24T09:30:51.074Z</time>
      </trkpt>
      <trkpt lat="48.69569" lon="2.37594">
        <ele>55</ele>
        <time>2023-01-24T09:30:55.457Z</time>
      </trkpt>
      <trkpt lat="48.69575" lon="2.37598">
        <ele>54</ele>
        <time>2023-01-24T09:30:59.718Z</time>
      </trkpt>
      <trkpt lat="48.69581" lon="2.37601">
        <ele>54</ele>
        <time>2023-01-24T09:31:03.570Z</time>
      </trkpt>
      <trkpt lat="48.69586" lon="2.37604">
        <ele>54</ele>
        <time>2023-01-24T09:31:08.163Z</time>
      </trkpt>
      <trkpt lat="48.69589" lon="2.37606">
        <ele>54</ele>
        <time>2023-01-24T09:31:12.173Z</time>
      </trkpt>
      <trkpt lat="48.69594" lon="2.37608">
        <ele>54</ele>
        <time>2023-01-24T09:31:16.338Z</time>
      </trkpt>
      <trkpt lat="48.69599" lon="2.37609">
        <ele>57</ele>
        <time>2023-01-24T09:31:20.459Z</time>
      </trkpt>
      <trkpt lat="48.69605" lon="2.37608">
        <ele>57</ele>
        <time>2023-01-24T09:31:24.360Z</time>
      </trkpt>
      <trkpt lat="48.69611" lon="2.37607">
        <ele>57</ele>
        <time>2023-01-24T09:31:28.902Z</time>
      </trkpt>
      <trkpt lat="48.69614" lon="2.37604">
        <ele>57</ele>
        <time>2023-01-24T09:31:32.605Z</time>
      </trkpt>
      <trkpt lat="48.69619" lon="2.37605">
        <ele>57</ele>
        <time>2023-01-24T09:31:37.237Z</time>
      </trkpt>
      <trkpt lat="48.69625" lon="2.3761">
        <ele>57</ele>
        <time>2023-01-24T09:31:41.804Z</time>
      </trkpt>
      <trkpt lat="48.69628" lon="2.37614">
        <ele>64</ele>
        <time>2023-01-24T09:31:46.225Z</time>
      </trkpt>
      <trkpt lat="48.69634" lon="2.37617">
        <ele>64</ele>
        <time>2023-01-24T09:31:50.406Z</time>
      </trkpt>
      <trkpt lat="48.6964" lon="2.3762">
        <ele>64</ele>
        <time>2023-01-24T09:31:54.980Z</time>
      </trkpt>
      <trkpt lat="48.69645" lon="2.37621">
        <ele>64</ele>
        <time>2023-01-24T09:31:59.678Z</time>
      </trkpt>
      <trkpt lat="48.6965" lon="2.37624">
        <ele>64</ele>
        <time>2023-01-24T09:32:03.425Z</time>
      </trkpt>
      <trkpt lat="48.69655" lon="2.37627">
        <ele>66</ele>
        <time>2023-01-24T09:32:08.035Z</time>
      </trkpt>
      <trkpt lat="48.69659" lon="2.37629">
        <ele>66</ele>
        <time>2023-01-24T09:32:12.099Z</time>
      </trkpt>
      <trkpt lat="48.69663" lon="2.37631">
        <ele>66</ele>
        <time>2023-01-24T09:32:16.565Z</time>
      </trkpt>
      <trkpt lat="48.69668" lon="2.37632">
        <ele>66</ele>
        <time>2023-01-24T09:32:21.027Z</time>
      </trkpt>
      <trkpt lat="48.69673" lon="2.37635">
        <ele>66</ele>
        <time>2023-01-24T09:32:25.402Z</time>
      </trkpt>
      <trkpt lat="48.69676" lon="2.37643">
        <ele>66</ele>
        <time>2023-01-24T09:32:29.344Z</time>
      </trkpt>
      <trkpt lat="48.69679" lon="2.3765">
        <ele>66</ele>
        <time>2023-01-24T09:32:33.763Z</time>
      </trkpt>
      <trkpt lat="48.69682" lon="2.37652">
        <ele>67</ele>
        <time>2023-01-24T09:32:37.806Z</time>
      </trkpt>
      <trkpt lat="48.69684" lon="2.37653">
        <ele>63</ele>
        <time>2023-01-24T09:32:42.584Z</time>
      </trkpt>
      <trkpt lat="48.69685" lon="2.3766">
        <ele>63</ele>
        <time>2023-01-24T09:32:47.842Z</time>
      </trkpt>
      <trkpt lat="48.69686" lon="2.37665">
        <ele>63</ele>
        <time>2023-01-24T09:32:51.542Z</time>
      </trkpt>
      <trkpt lat="48.69687" lon="2.37667">
        <ele>63</ele>
        <time>2023-01-24T09:32:56.201Z</time>
      </trkpt>
      <trkpt lat="48.69688" lon="2.37675">
        <ele>63</ele>
        <time>2023-01-24T09:33:00.620Z</time>
      </trkpt>
      <trkpt lat="48.69692" lon="2.37684">
        <ele>60</ele>
        <time>2023-01-24T09:33:05.159Z</time>
      </trkpt>
      <trkpt lat="48.69694" lon="2.37692">
        <ele>60</ele>
        <time>2023-01-24T09:33:09.697Z</time>
      </trkpt>
      <trkpt lat="48.69694" lon="2.37699">
        <ele>60</ele>
        <time>2023-01-24T09:33:13.759Z</time>
      </trkpt>
      <trkpt lat="48.69693" lon="2.37702">
        <ele>60</ele>
        <time>2023-01-24T09:33:18.417Z</time>
      </trkpt>
      <trkpt lat="48.69694" lon="2.37708">
        <ele>60</ele>
        <time>2023-01-24T09:33:22.955Z</time>
      </trkpt>
      <trkpt lat="48.69694" lon="2.37714">
        <ele>55</ele>
        <time>2023-01-24T09:33:27.457Z</time>
      </trkpt>
      <trkpt lat="48.69691" lon="2.3772">
        <ele>55</ele>
        <time>2023-01-24T09:33:32.012Z</time>
      </trkpt>
      <trkpt lat="48.69691" lon="2.37727">
        <ele>55</ele>
        <time>2023-01-24T09:33:36.550Z</time>
      </trkpt>
      <trkpt lat="48.69691" lon="2.37735">
        <ele>55</ele>
        <time>2023-01-24T09:33:40.493Z</time>
      </trkpt>
      <trkpt lat="48.69691" lon="2.37743">
        <ele>51</ele>
        <time>2023-01-24T09:33:45.062Z</time>
      </trkpt>
      <trkpt lat="48.69691" lon="2.37749">
        <ele>51</ele>
        <time>2023-01-24T09:33:49.137Z</time>
      </trkpt>
      <trkpt lat="48.69689" lon="2.37755">
        <ele>51</ele>
        <time>2023-01-24T09:33:53.157Z</time>
      </trkpt>
      <trkpt lat="48.69686" lon="2.37763">
        <ele>51</ele>
        <time>2023-01-24T09:33:57.577Z</time>
      </trkpt>
      <trkpt lat="48.69685" lon="2.37773">
        <ele>47</ele>
        <time>2023-01-24T09:34:02.047Z</time>
      </trkpt>
      <trkpt lat="48.69686" lon="2.37779">
        <ele>47</ele>
        <time>2023-01-24T09:34:06.012Z</time>
      </trkpt>
      <trkpt lat="48.69691" lon="2.37785">
        <ele>47</ele>
        <time>2023-01-24T09:34:10.524Z</time>
      </trkpt>
      <trkpt lat="48.69697" lon="2.3779">
        <ele>47</ele>
        <time>2023-01-24T09:34:14.682Z</time>
      </trkpt>
      <trkpt lat="48.69701" lon="2.37791">
        <ele>47</ele>
        <time>2023-01-24T09:34:18.604Z</time>
      </trkpt>
      <trkpt lat="48.69704" lon="2.37795">
        <ele>43</ele>
        <time>2023-01-24T09:34:22.546Z</time>
      </trkpt>
      <trkpt lat="48.69707" lon="2.378">
        <ele>43</ele>
        <time>2023-01-24T09:34:27.012Z</time>
      </trkpt>
      <trkpt lat="48.69709" lon="2.37803">
        <ele>44</ele>
        <time>2023-01-24T09:34:31.504Z</time>
      </trkpt>
      <trkpt lat="48.69712" lon="2.37805">
        <ele>44</ele>
        <time>2023-01-24T09:34:35.445Z</time>
      </trkpt>
      <trkpt lat="48.69717" lon="2.37808">
        <ele>44</ele>
        <time>2023-01-24T09:34:39.862Z</time>
      </trkpt>
      <trkpt lat="48.69723" lon="2.37812">
        <ele>44</ele>
        <time>2023-01-24T09:34:44.401Z</time>
      </trkpt>
      <trkpt lat="48.6973" lon="2.37816">
        <ele>44</ele>
        <time>2023-01-24T09:34:48.862Z</time>
      </trkpt>
      <trkpt lat="48.69736" lon="2.37819">
        <ele>46</ele>
        <time>2023-01-24T09:34:53.002Z</time>
      </trkpt>
      <trkpt lat="48.69743" lon="2.37823">
        <ele>43</ele>
        <time>2023-01-24T09:34:57.541Z</time>
      </trkpt>
      <trkpt lat="48.69749" lon="2.37825">
        <ele>43</ele>
        <time>2023-01-24T09:35:01.483Z</time>
      </trkpt>
      <trkpt lat="48.69756" lon="2.37828">
        <ele>43</ele>
        <time>2023-01-24T09:35:06.012Z</time>
      </trkpt>
      <trkpt lat="48.69762" lon="2.3783">
        <ele>43</ele>
        <time>2023-01-24T09:35:10.203Z</time>
      </trkpt>
      <trkpt lat="48.69768" lon="2.37834">
        <ele>45</ele>
        <time>2023-01-24T09:35:14.842Z</time>
      </trkpt>
      <trkpt lat="48.69773" lon="2.37838">
        <ele>45</ele>
        <time>2023-01-24T09:35:19.498Z</time>
      </trkpt>
      <trkpt lat="48.69778" lon="2.37842">
        <ele>45</ele>
        <time>2023-01-24T09:35:23.557Z</time>
      </trkpt>
      <trkpt lat="48.69784" lon="2.37846">
        <ele>45</ele>
        <time>2023-01-24T09:35:28.213Z</time>
      </trkpt>
      <trkpt lat="48.69792" lon="2.37849">
        <ele>44</ele>
        <time>2023-01-24T09:35:32.752Z</time>
      </trkpt>
      <trkpt lat="48.69799" lon="2.3785">
        <ele>45</ele>
        <time>2023-01-24T09:35:37.292Z</time>
      </trkpt>
      <trkpt lat="48.69806" lon="2.37854">
        <ele>45</ele>
        <time>2023-01-24T09:35:41.234Z</time>
      </trkpt>
      <trkpt lat="48.69814" lon="2.3786">
        <ele>45</ele>
        <time>2023-01-24T09:35:45.892Z</time>
      </trkpt>
      <trkpt lat="48.69822" lon="2.37868">
        <ele>47</ele>
        <time>2023-01-24T09:35:50.548Z</time>
      </trkpt>
      <trkpt lat="48.6983" lon="2.37875">
        <ele>47</ele>
        <time>2023-01-24T09:35:54.608Z</time>
      </trkpt>
      <trkpt lat="48.69838" lon="2.37878">
        <ele>45</ele>
        <time>2023-01-24T09:35:59.278Z</time>
      </trkpt>
      <trkpt lat="48.69842" lon="2.37883">
        <ele>45</ele>
        <time>2023-01-24T09:36:03.803Z</time>
      </trkpt>
      <trkpt lat="48.69845" lon="2.37887">
        <ele>45</ele>
        <time>2023-01-24T09:36:07.981Z</time>
      </trkpt>
      <trkpt lat="48.69846" lon="2.37888">
        <ele>45</ele>
        <time>2023-01-24T09:36:12.758Z</time>
      </trkpt>
      <trkpt lat="48.69846" lon="2.37889">
        <ele>45</ele>
        <time>2023-01-24T09:36:18.070Z</time>
      </trkpt>
      <trkpt lat="48.69847" lon="2.37891">
        <ele>45</ele>
        <time>2023-01-24T09:36:22.191Z</time>
      </trkpt>
      <trkpt lat="48.69848" lon="2.379">
        <ele>47</ele>
        <time>2023-01-24T09:36:26.610Z</time>
      </trkpt>
      <trkpt lat="48.69846" lon="2.37908">
        <ele>43</ele>
        <time>2023-01-24T09:36:30.790Z</time>
      </trkpt>
      <trkpt lat="48.69843" lon="2.37912">
        <ele>43</ele>
        <time>2023-01-24T09:36:35.160Z</time>
      </trkpt>
      <trkpt lat="48.69841" lon="2.37918">
        <ele>43</ele>
        <time>2023-01-24T09:36:39.461Z</time>
      </trkpt>
      <trkpt lat="48.69838" lon="2.37926">
        <ele>43</ele>
        <time>2023-01-24T09:36:43.959Z</time>
      </trkpt>
      <trkpt lat="48.69835" lon="2.37931">
        <ele>42</ele>
        <time>2023-01-24T09:36:48.325Z</time>
      </trkpt>
      <trkpt lat="48.69834" lon="2.37939">
        <ele>42</ele>
        <time>2023-01-24T09:36:52.983Z</time>
      </trkpt>
      <trkpt lat="48.69834" lon="2.37948">
        <ele>42</ele>
        <time>2023-01-24T09:36:57.519Z</time>
      </trkpt>
      <trkpt lat="48.69833" lon="2.37959">
        <ele>42</ele>
        <time>2023-01-24T09:37:02.012Z</time>
      </trkpt>
      <trkpt lat="48.69831" lon="2.37964">
        <ele>42</ele>
        <time>2023-01-24T09:37:05.997Z</time>
      </trkpt>
      <trkpt lat="48.6983" lon="2.37973">
        <ele>42</ele>
        <time>2023-01-24T09:37:10.396Z</time>
      </trkpt>
      <trkpt lat="48.6983" lon="2.37981">
        <ele>42</ele>
        <time>2023-01-24T09:37:15.012Z</time>
      </trkpt>
      <trkpt lat="48.6983" lon="2.37989">
        <ele>42</ele>
        <time>2023-01-24T09:37:18.873Z</time>
      </trkpt>
      <trkpt lat="48.6983" lon="2.38001">
        <ele>42</ele>
        <time>2023-01-24T09:37:24.024Z</time>
      </trkpt>
      <trkpt lat="48.69831" lon="2.38012">
        <ele>42</ele>
        <time>2023-01-24T09:37:28.012Z</time>
      </trkpt>
      <trkpt lat="48.6983" lon="2.38025">
        <ele>40</ele>
        <time>2023-01-24T09:37:32.615Z</time>
      </trkpt>
      <trkpt lat="48.69828" lon="2.38033">
        <ele>40</ele>
        <time>2023-01-24T09:37:37.614Z</time>
      </trkpt>
      <trkpt lat="48.69824" lon="2.3804">
        <ele>40</ele>
        <time>2023-01-24T09:37:41.612Z</time>
      </trkpt>
      <trkpt lat="48.6982" lon="2.38049">
        <ele>39</ele>
        <time>2023-01-24T09:37:46.740Z</time>
      </trkpt>
      <trkpt lat="48.69816" lon="2.38059">
        <ele>34</ele>
        <time>2023-01-24T09:37:50.602Z</time>
      </trkpt>
      <trkpt lat="48.69817" lon="2.38068">
        <ele>34</ele>
        <time>2023-01-24T09:37:55.012Z</time>
      </trkpt>
      <trkpt lat="48.6982" lon="2.38074">
        <ele>37</ele>
        <time>2023-01-24T09:37:58.748Z</time>
      </trkpt>
      <trkpt lat="48.69826" lon="2.3808">
        <ele>37</ele>
        <time>2023-01-24T09:38:03.299Z</time>
      </trkpt>
      <trkpt lat="48.6983" lon="2.38087">
        <ele>37</ele>
        <time>2023-01-24T09:38:07.968Z</time>
      </trkpt>
      <trkpt lat="48.69833" lon="2.38094">
        <ele>37</ele>
        <time>2023-01-24T09:38:12.159Z</time>
      </trkpt>
      <trkpt lat="48.69837" lon="2.38101">
        <ele>35</ele>
        <time>2023-01-24T09:38:16.210Z</time>
      </trkpt>
      <trkpt lat="48.69842" lon="2.38107">
        <ele>35</ele>
        <time>2023-01-24T09:38:20.862Z</time>
      </trkpt>
      <trkpt lat="48.69844" lon="2.38114">
        <ele>35</ele>
        <time>2023-01-24T09:38:24.774Z</time>
      </trkpt>
      <trkpt lat="48.6985" lon="2.38118">
        <ele>38</ele>
        <time>2023-01-24T09:38:28.965Z</time>
      </trkpt>
      <trkpt lat="48.69856" lon="2.38124">
        <ele>38</ele>
        <time>2023-01-24T09:38:33.518Z</time>
      </trkpt>
      <trkpt lat="48.69866" lon="2.3813">
        <ele>35</ele>
        <time>2023-01-24T09:38:37.474Z</time>
      </trkpt>
      <trkpt lat="48.69872" lon="2.38138">
        <ele>35</ele>
        <time>2023-01-24T09:38:42.019Z</time>
      </trkpt>
      <trkpt lat="48.69875" lon="2.38145">
        <ele>37</ele>
        <time>2023-01-24T09:38:46.167Z</time>
      </trkpt>
      <trkpt lat="48.6988" lon="2.38149">
        <ele>37</ele>
        <time>2023-01-24T09:38:50.362Z</time>
      </trkpt>
      <trkpt lat="48.69886" lon="2.38152">
        <ele>37</ele>
        <time>2023-01-24T09:38:54.977Z</time>
      </trkpt>
      <trkpt lat="48.69893" lon="2.38155">
        <ele>36</ele>
        <time>2023-01-24T09:38:59.589Z</time>
      </trkpt>
      <trkpt lat="48.699" lon="2.38157">
        <ele>36</ele>
        <time>2023-01-24T09:39:04.083Z</time>
      </trkpt>
      <trkpt lat="48.69907" lon="2.38159">
        <ele>36</ele>
        <time>2023-01-24T09:39:08.557Z</time>
      </trkpt>
      <trkpt lat="48.69912" lon="2.38159">
        <ele>36</ele>
        <time>2023-01-24T09:39:13.218Z</time>
      </trkpt>
      <trkpt lat="48.69917" lon="2.3816">
        <ele>36</ele>
        <time>2023-01-24T09:39:17.403Z</time>
      </trkpt>
      <trkpt lat="48.69923" lon="2.3816">
        <ele>36</ele>
        <time>2023-01-24T09:39:21.827Z</time>
      </trkpt>
      <trkpt lat="48.69929" lon="2.38158">
        <ele>36</ele>
        <time>2023-01-24T09:39:26.261Z</time>
      </trkpt>
      <trkpt lat="48.69934" lon="2.38158">
        <ele>36</ele>
        <time>2023-01-24T09:39:30.382Z</time>
      </trkpt>
      <trkpt lat="48.69939" lon="2.38158">
        <ele>36</ele>
        <time>2023-01-24T09:39:34.373Z</time>
      </trkpt>
      <trkpt lat="48.69944" lon="2.38159">
        <ele>36</ele>
        <time>2023-01-24T09:39:38.657Z</time>
      </trkpt>
      <trkpt lat="48.6995" lon="2.38161">
        <ele>36</ele>
        <time>2023-01-24T09:39:42.856Z</time>
      </trkpt>
      <trkpt lat="48.69956" lon="2.38162">
        <ele>36</ele>
        <time>2023-01-24T09:39:47.396Z</time>
      </trkpt>
      <trkpt lat="48.69962" lon="2.38164">
        <ele>36</ele>
        <time>2023-01-24T09:39:51.779Z</time>
      </trkpt>
      <trkpt lat="48.69966" lon="2.38166">
        <ele>36</ele>
        <time>2023-01-24T09:39:55.637Z</time>
      </trkpt>
      <trkpt lat="48.69972" lon="2.38169">
        <ele>36</ele>
        <time>2023-01-24T09:39:59.818Z</time>
      </trkpt>
      <trkpt lat="48.69978" lon="2.38173">
        <ele>36</ele>
        <time>2023-01-24T09:40:04.478Z</time>
      </trkpt>
      <trkpt lat="48.69984" lon="2.38177">
        <ele>36</ele>
        <time>2023-01-24T09:40:08.979Z</time>
      </trkpt>
      <trkpt lat="48.69988" lon="2.38182">
        <ele>35</ele>
        <time>2023-01-24T09:40:12.837Z</time>
      </trkpt>
      <trkpt lat="48.69991" lon="2.38183">
        <ele>35</ele>
        <time>2023-01-24T09:40:17.608Z</time>
      </trkpt>
      <trkpt lat="48.69991" lon="2.38185">
        <ele>35</ele>
        <time>2023-01-24T09:40:21.789Z</time>
      </trkpt>
      <trkpt lat="48.69994" lon="2.38192">
        <ele>35</ele>
        <time>2023-01-24T09:40:25.748Z</time>
      </trkpt>
      <trkpt lat="48.70001" lon="2.38201">
        <ele>35</ele>
        <time>2023-01-24T09:40:30.129Z</time>
      </trkpt>
      <trkpt lat="48.70007" lon="2.38208">
        <ele>35</ele>
        <time>2023-01-24T09:40:34.587Z</time>
      </trkpt>
      <trkpt lat="48.70013" lon="2.38213">
        <ele>34</ele>
        <time>2023-01-24T09:40:39.775Z</time>
      </trkpt>
      <trkpt lat="48.70016" lon="2.38219">
        <ele>35</ele>
        <time>2023-01-24T09:40:43.778Z</time>
      </trkpt>
      <trkpt lat="48.7002" lon="2.38225">
        <ele>35</ele>
        <time>2023-01-24T09:40:48.313Z</time>
      </trkpt>
      <trkpt lat="48.70026" lon="2.38231">
        <ele>35</ele>
        <time>2023-01-24T09:40:52.149Z</time>
      </trkpt>
      <trkpt lat="48.70032" lon="2.38234">
        <ele>35</ele>
        <time>2023-01-24T09:40:56.605Z</time>
      </trkpt>
      <trkpt lat="48.70037" lon="2.38239">
        <ele>34</ele>
        <time>2023-01-24T09:41:01.120Z</time>
      </trkpt>
      <trkpt lat="48.7004" lon="2.38243">
        <ele>34</ele>
        <time>2023-01-24T09:41:05.532Z</time>
      </trkpt>
      <trkpt lat="48.70045" lon="2.38247">
        <ele>35</ele>
        <time>2023-01-24T09:41:09.888Z</time>
      </trkpt>
      <trkpt lat="48.7005" lon="2.38249">
        <ele>35</ele>
        <time>2023-01-24T09:41:14.323Z</time>
      </trkpt>
      <trkpt lat="48.70055" lon="2.38255">
        <ele>35</ele>
        <time>2023-01-24T09:41:18.877Z</time>
      </trkpt>
      <trkpt lat="48.70058" lon="2.38258">
        <ele>35</ele>
        <time>2023-01-24T09:41:23.492Z</time>
      </trkpt>
      <trkpt lat="48.70061" lon="2.38262">
        <ele>35</ele>
        <time>2023-01-24T09:41:28.097Z</time>
      </trkpt>
      <trkpt lat="48.70067" lon="2.38265">
        <ele>35</ele>
        <time>2023-01-24T09:41:32.240Z</time>
      </trkpt>
      <trkpt lat="48.70074" lon="2.38273">
        <ele>34</ele>
        <time>2023-01-24T09:41:36.193Z</time>
      </trkpt>
      <trkpt lat="48.7008" lon="2.38278">
        <ele>34</ele>
        <time>2023-01-24T09:41:40.144Z</time>
      </trkpt>
      <trkpt lat="48.70085" lon="2.38284">
        <ele>34</ele>
        <time>2023-01-24T09:41:44.339Z</time>
      </trkpt>
      <trkpt lat="48.70092" lon="2.38291">
        <ele>34</ele>
        <time>2023-01-24T09:41:48.294Z</time>
      </trkpt>
      <trkpt lat="48.701" lon="2.38293">
        <ele>34</ele>
        <time>2023-01-24T09:41:52.846Z</time>
      </trkpt>
      <trkpt lat="48.70107" lon="2.38297">
        <ele>34</ele>
        <time>2023-01-24T09:41:57.515Z</time>
      </trkpt>
      <trkpt lat="48.70112" lon="2.38301">
        <ele>34</ele>
        <time>2023-01-24T09:42:01.583Z</time>
      </trkpt>
      <trkpt lat="48.70119" lon="2.38303">
        <ele>34</ele>
        <time>2023-01-24T09:42:05.533Z</time>
      </trkpt>
      <trkpt lat="48.70124" lon="2.38306">
        <ele>34</ele>
        <time>2023-01-24T09:42:09.602Z</time>
      </trkpt>
      <trkpt lat="48.70131" lon="2.38309">
        <ele>34</ele>
        <time>2023-01-24T09:42:14.149Z</time>
      </trkpt>
      <trkpt lat="48.70138" lon="2.38313">
        <ele>34</ele>
        <time>2023-01-24T09:42:18.813Z</time>
      </trkpt>
      <trkpt lat="48.70144" lon="2.38316">
        <ele>34</ele>
        <time>2023-01-24T09:42:23.340Z</time>
      </trkpt>
      <trkpt lat="48.70149" lon="2.3832">
        <ele>36</ele>
        <time>2023-01-24T09:42:27.917Z</time>
      </trkpt>
      <trkpt lat="48.70154" lon="2.38322">
        <ele>36</ele>
        <time>2023-01-24T09:42:31.952Z</time>
      </trkpt>
      <trkpt lat="48.70159" lon="2.38326">
        <ele>36</ele>
        <time>2023-01-24T09:42:36.012Z</time>
      </trkpt>
      <trkpt lat="48.70164" lon="2.3833">
        <ele>36</ele>
        <time>2023-01-24T09:42:40.139Z</time>
      </trkpt>
      <trkpt lat="48.7017" lon="2.38334">
        <ele>36</ele>
        <time>2023-01-24T09:42:44.142Z</time>
      </trkpt>
      <trkpt lat="48.70175" lon="2.3834">
        <ele>36</ele>
        <time>2023-01-24T09:42:48.566Z</time>
      </trkpt>
      <trkpt lat="48.7018" lon="2.38344">
        <ele>36</ele>
        <time>2023-01-24T09:42:52.750Z</time>
      </trkpt>
      <trkpt lat="48.70185" lon="2.38349">
        <ele>37</ele>
        <time>2023-01-24T09:42:56.814Z</time>
      </trkpt>
      <trkpt lat="48.7019" lon="2.38356">
        <ele>37</ele>
        <time>2023-01-24T09:43:01.236Z</time>
      </trkpt>
      <trkpt lat="48.70195" lon="2.38361">
        <ele>37</ele>
        <time>2023-01-24T09:43:05.300Z</time>
      </trkpt>
      <trkpt lat="48.70199" lon="2.38365">
        <ele>37</ele>
        <time>2023-01-24T09:43:09.842Z</time>
      </trkpt>
      <trkpt lat="48.70203" lon="2.38371">
        <ele>37</ele>
        <time>2023-01-24T09:43:13.784Z</time>
      </trkpt>
      <trkpt lat="48.70208" lon="2.38377">
        <ele>37</ele>
        <time>2023-01-24T09:43:17.847Z</time>
      </trkpt>
      <trkpt lat="48.70212" lon="2.38383">
        <ele>38</ele>
        <time>2023-01-24T09:43:22.267Z</time>
      </trkpt>
      <trkpt lat="48.70216" lon="2.38389">
        <ele>38</ele>
        <time>2023-01-24T09:43:26.809Z</time>
      </trkpt>
      <trkpt lat="48.70221" lon="2.38393">
        <ele>38</ele>
        <time>2023-01-24T09:43:30.752Z</time>
      </trkpt>
      <trkpt lat="48.70226" lon="2.38397">
        <ele>38</ele>
        <time>2023-01-24T09:43:34.694Z</time>
      </trkpt>
      <trkpt lat="48.70231" lon="2.38402">
        <ele>38</ele>
        <time>2023-01-24T09:43:39.334Z</time>
      </trkpt>
      <trkpt lat="48.70236" lon="2.38405">
        <ele>38</ele>
        <time>2023-01-24T09:43:43.414Z</time>
      </trkpt>
      <trkpt lat="48.70246" lon="2.38413">
        <ele>38</ele>
        <time>2023-01-24T09:43:52.012Z</time>
      </trkpt>
      <trkpt lat="48.70249" lon="2.38417">
        <ele>38</ele>
        <time>2023-01-24T09:43:56.202Z</time>
      </trkpt>
      <trkpt lat="48.70253" lon="2.38423">
        <ele>38</ele>
        <time>2023-01-24T09:44:00.677Z</time>
      </trkpt>
      <trkpt lat="48.70256" lon="2.3843">
        <ele>38</ele>
        <time>2023-01-24T09:44:04.572Z</time>
      </trkpt>
      <trkpt lat="48.70259" lon="2.38435">
        <ele>39</ele>
        <time>2023-01-24T09:44:09.352Z</time>
      </trkpt>
      <trkpt lat="48.70263" lon="2.38437">
        <ele>39</ele>
        <time>2023-01-24T09:44:13.534Z</time>
      </trkpt>
      <trkpt lat="48.70267" lon="2.3844">
        <ele>36</ele>
        <time>2023-01-24T09:44:17.597Z</time>
      </trkpt>
      <trkpt lat="48.7027" lon="2.38447">
        <ele>36</ele>
        <time>2023-01-24T09:44:21.741Z</time>
      </trkpt>
      <trkpt lat="48.70272" lon="2.38456">
        <ele>36</ele>
        <time>2023-01-24T09:44:26.197Z</time>
      </trkpt>
      <trkpt lat="48.70275" lon="2.38464">
        <ele>36</ele>
        <time>2023-01-24T09:44:30.379Z</time>
      </trkpt>
      <trkpt lat="48.70279" lon="2.38473">
        <ele>36</ele>
        <time>2023-01-24T09:44:34.679Z</time>
      </trkpt>
      <trkpt lat="48.70284" lon="2.38483">
        <ele>36</ele>
        <time>2023-01-24T09:44:39.215Z</time>
      </trkpt>
      <trkpt lat="48.7029" lon="2.3849">
        <ele>36</ele>
        <time>2023-01-24T09:44:43.636Z</time>
      </trkpt>
      <trkpt lat="48.70293" lon="2.38489">
        <ele>35</ele>
        <time>2023-01-24T09:44:48.412Z</time>
      </trkpt>
      <trkpt lat="48.703" lon="2.38484">
        <ele>35</ele>
        <time>2023-01-24T09:44:53.012Z</time>
      </trkpt>
      <trkpt lat="48.70303" lon="2.38483">
        <ele>35</ele>
        <time>2023-01-24T09:44:57.599Z</time>
      </trkpt>
      <trkpt lat="48.70308" lon="2.38482">
        <ele>35</ele>
        <time>2023-01-24T09:45:01.656Z</time>
      </trkpt>
      <trkpt lat="48.70312" lon="2.38483">
        <ele>35</ele>
        <time>2023-01-24T09:45:06.190Z</time>
      </trkpt>
      <trkpt lat="48.70316" lon="2.38484">
        <ele>35</ele>
        <time>2023-01-24T09:45:10.604Z</time>
      </trkpt>
      <trkpt lat="48.70323" lon="2.38484">
        <ele>37</ele>
        <time>2023-01-24T09:45:15.069Z</time>
      </trkpt>
      <trkpt lat="48.7033" lon="2.38482">
        <ele>37</ele>
        <time>2023-01-24T09:45:19.523Z</time>
      </trkpt>
      <trkpt lat="48.70332" lon="2.38484">
        <ele>37</ele>
        <time>2023-01-24T09:45:24.012Z</time>
      </trkpt>
      <trkpt lat="48.70342" lon="2.38486">
        <ele>37</ele>
        <time>2023-01-24T09:45:28.012Z</time>
      </trkpt>
      <trkpt lat="48.7035" lon="2.38487">
        <ele>39</ele>
        <time>2023-01-24T09:45:31.846Z</time>
      </trkpt>
      <trkpt lat="48.70359" lon="2.38491">
        <ele>39</ele>
        <time>2023-01-24T09:45:36.365Z</time>
      </trkpt>
      <trkpt lat="48.70364" lon="2.38496">
        <ele>39</ele>
        <time>2023-01-24T09:45:40.243Z</time>
      </trkpt>
      <trkpt lat="48.70368" lon="2.38506">
        <ele>39</ele>
        <time>2023-01-24T09:45:44.583Z</time>
      </trkpt>
      <trkpt lat="48.70371" lon="2.38512">
        <ele>39</ele>
        <time>2023-01-24T09:45:48.744Z</time>
      </trkpt>
      <trkpt lat="48.70374" lon="2.38517">
        <ele>39</ele>
        <time>2023-01-24T09:45:52.564Z</time>
      </trkpt>
      <trkpt lat="48.70375" lon="2.38527">
        <ele>39</ele>
        <time>2023-01-24T09:45:57.012Z</time>
      </trkpt>
      <trkpt lat="48.70377" lon="2.38542">
        <ele>41</ele>
        <time>2023-01-24T09:46:01.537Z</time>
      </trkpt>
      <trkpt lat="48.70378" lon="2.38551">
        <ele>41</ele>
        <time>2023-01-24T09:46:05.524Z</time>
      </trkpt>
      <trkpt lat="48.70382" lon="2.38558">
        <ele>41</ele>
        <time>2023-01-24T09:46:09.404Z</time>
      </trkpt>
      <trkpt lat="48.70384" lon="2.38566">
        <ele>41</ele>
        <time>2023-01-24T09:46:13.804Z</time>
      </trkpt>
      <trkpt lat="48.70386" lon="2.38575">
        <ele>39</ele>
        <time>2023-01-24T09:46:17.445Z</time>
      </trkpt>
      <trkpt lat="48.7039" lon="2.38583">
        <ele>39</ele>
        <time>2023-01-24T09:46:21.765Z</time>
      </trkpt>
      <trkpt lat="48.70393" lon="2.38593">
        <ele>39</ele>
        <time>2023-01-24T09:46:26.506Z</time>
      </trkpt>
      <trkpt lat="48.70396" lon="2.38602">
        <ele>35</ele>
        <time>2023-01-24T09:46:30.746Z</time>
      </trkpt>
      <trkpt lat="48.70399" lon="2.3861">
        <ele>35</ele>
        <time>2023-01-24T09:46:34.867Z</time>
      </trkpt>
      <trkpt lat="48.70402" lon="2.3862">
        <ele>35</ele>
        <time>2023-01-24T09:46:39.029Z</time>
      </trkpt>
      <trkpt lat="48.70405" lon="2.3863">
        <ele>34</ele>
        <time>2023-01-24T09:46:43.149Z</time>
      </trkpt>
      <trkpt lat="48.70408" lon="2.38637">
        <ele>34</ele>
        <time>2023-01-24T09:46:47.411Z</time>
      </trkpt>
      <trkpt lat="48.7041" lon="2.38647">
        <ele>34</ele>
        <time>2023-01-24T09:46:51.651Z</time>
      </trkpt>
      <trkpt lat="48.70412" lon="2.38654">
        <ele>33</ele>
        <time>2023-01-24T09:46:55.411Z</time>
      </trkpt>
      <trkpt lat="48.70416" lon="2.38662">
        <ele>33</ele>
        <time>2023-01-24T09:46:59.871Z</time>
      </trkpt>
      <trkpt lat="48.70419" lon="2.3867">
        <ele>33</ele>
        <time>2023-01-24T09:47:04.222Z</time>
      </trkpt>
      <trkpt lat="48.70423" lon="2.38679">
        <ele>33</ele>
        <time>2023-01-24T09:47:08.171Z</time>
      </trkpt>
      <trkpt lat="48.70427" lon="2.38688">
        <ele>33</ele>
        <time>2023-01-24T09:47:12.991Z</time>
      </trkpt>
      <trkpt lat="48.70431" lon="2.38699">
        <ele>36</ele>
        <time>2023-01-24T09:47:17.494Z</time>
      </trkpt>
      <trkpt lat="48.70434" lon="2.38707">
        <ele>36</ele>
        <time>2023-01-24T09:47:21.600Z</time>
      </trkpt>
      <trkpt lat="48.70436" lon="2.38715">
        <ele>36</ele>
        <time>2023-01-24T09:47:25.606Z</time>
      </trkpt>
      <trkpt lat="48.70439" lon="2.38725">
        <ele>36</ele>
        <time>2023-01-24T09:47:30.114Z</time>
      </trkpt>
      <trkpt lat="48.70441" lon="2.38731">
        <ele>36</ele>
        <time>2023-01-24T09:47:34.617Z</time>
      </trkpt>
      <trkpt lat="48.70443" lon="2.3874">
        <ele>36</ele>
        <time>2023-01-24T09:47:39.224Z</time>
      </trkpt>
      <trkpt lat="48.70448" lon="2.38749">
        <ele>36</ele>
        <time>2023-01-24T09:47:43.323Z</time>
      </trkpt>
      <trkpt lat="48.70452" lon="2.38759">
        <ele>36</ele>
        <time>2023-01-24T09:47:47.856Z</time>
      </trkpt>
      <trkpt lat="48.70456" lon="2.38768">
        <ele>36</ele>
        <time>2023-01-24T09:47:51.625Z</time>
      </trkpt>
      <trkpt lat="48.70459" lon="2.38776">
        <ele>39</ele>
        <time>2023-01-24T09:47:56.012Z</time>
      </trkpt>
      <trkpt lat="48.70463" lon="2.38784">
        <ele>39</ele>
        <time>2023-01-24T09:47:59.865Z</time>
      </trkpt>
      <trkpt lat="48.7047" lon="2.38787">
        <ele>39</ele>
        <time>2023-01-24T09:48:04.285Z</time>
      </trkpt>
      <trkpt lat="48.70475" lon="2.38789">
        <ele>39</ele>
        <time>2023-01-24T09:48:08.125Z</time>
      </trkpt>
      <trkpt lat="48.70479" lon="2.38795">
        <ele>37</ele>
        <time>2023-01-24T09:48:12.744Z</time>
      </trkpt>
      <trkpt lat="48.70483" lon="2.388">
        <ele>37</ele>
        <time>2023-01-24T09:48:17.158Z</time>
      </trkpt>
      <trkpt lat="48.70485" lon="2.38807">
        <ele>37</ele>
        <time>2023-01-24T09:48:21.584Z</time>
      </trkpt>
      <trkpt lat="48.70488" lon="2.38816">
        <ele>39</ele>
        <time>2023-01-24T09:48:25.976Z</time>
      </trkpt>
      <trkpt lat="48.70491" lon="2.38824">
        <ele>37</ele>
        <time>2023-01-24T09:48:29.983Z</time>
      </trkpt>
      <trkpt lat="48.70494" lon="2.38832">
        <ele>37</ele>
        <time>2023-01-24T09:48:34.403Z</time>
      </trkpt>
      <trkpt lat="48.70498" lon="2.3884">
        <ele>37</ele>
        <time>2023-01-24T09:48:38.416Z</time>
      </trkpt>
      <trkpt lat="48.70501" lon="2.38847">
        <ele>37</ele>
        <time>2023-01-24T09:48:42.198Z</time>
      </trkpt>
      <trkpt lat="48.70505" lon="2.38854">
        <ele>37</ele>
        <time>2023-01-24T09:48:46.726Z</time>
      </trkpt>
      <trkpt lat="48.7051" lon="2.3886">
        <ele>37</ele>
        <time>2023-01-24T09:48:50.516Z</time>
      </trkpt>
      <trkpt lat="48.70514" lon="2.38866">
        <ele>40</ele>
        <time>2023-01-24T09:48:54.875Z</time>
      </trkpt>
      <trkpt lat="48.70519" lon="2.38871">
        <ele>40</ele>
        <time>2023-01-24T09:48:58.854Z</time>
      </trkpt>
      <trkpt lat="48.70523" lon="2.38874">
        <ele>40</ele>
        <time>2023-01-24T09:49:02.853Z</time>
      </trkpt>
      <trkpt lat="48.70528" lon="2.38879">
        <ele>39</ele>
        <time>2023-01-24T09:49:07.433Z</time>
      </trkpt>
      <trkpt lat="48.70533" lon="2.38884">
        <ele>39</ele>
        <time>2023-01-24T09:49:11.834Z</time>
      </trkpt>
      <trkpt lat="48.70538" lon="2.38892">
        <ele>39</ele>
        <time>2023-01-24T09:49:16.612Z</time>
      </trkpt>
      <trkpt lat="48.70541" lon="2.38902">
        <ele>39</ele>
        <time>2023-01-24T09:49:21.385Z</time>
      </trkpt>
      <trkpt lat="48.70545" lon="2.38911">
        <ele>41</ele>
        <time>2023-01-24T09:49:26.008Z</time>
      </trkpt>
      <trkpt lat="48.70548" lon="2.38921">
        <ele>41</ele>
        <time>2023-01-24T09:49:30.645Z</time>
      </trkpt>
      <trkpt lat="48.70551" lon="2.3893">
        <ele>41</ele>
        <time>2023-01-24T09:49:35.201Z</time>
      </trkpt>
      <trkpt lat="48.70554" lon="2.38938">
        <ele>39</ele>
        <time>2023-01-24T09:49:39.157Z</time>
      </trkpt>
      <trkpt lat="48.70558" lon="2.38948">
        <ele>39</ele>
        <time>2023-01-24T09:49:43.832Z</time>
      </trkpt>
      <trkpt lat="48.70562" lon="2.38956">
        <ele>39</ele>
        <time>2023-01-24T09:49:48.291Z</time>
      </trkpt>
      <trkpt lat="48.70563" lon="2.38965">
        <ele>37</ele>
        <time>2023-01-24T09:49:52.830Z</time>
      </trkpt>
      <trkpt lat="48.70563" lon="2.38973">
        <ele>37</ele>
        <time>2023-01-24T09:49:56.589Z</time>
      </trkpt>
      <trkpt lat="48.70564" lon="2.38981">
        <ele>37</ele>
        <time>2023-01-24T09:50:00.569Z</time>
      </trkpt>
      <trkpt lat="48.70566" lon="2.38991">
        <ele>35</ele>
        <time>2023-01-24T09:50:05.167Z</time>
      </trkpt>
      <trkpt lat="48.70569" lon="2.39003">
        <ele>35</ele>
        <time>2023-01-24T09:50:09.626Z</time>
      </trkpt>
      <trkpt lat="48.70571" lon="2.39013">
        <ele>44</ele>
        <time>2023-01-24T09:50:14.238Z</time>
      </trkpt>
      <trkpt lat="48.70573" lon="2.39023">
        <ele>41</ele>
        <time>2023-01-24T09:50:18.743Z</time>
      </trkpt>
      <trkpt lat="48.70576" lon="2.39031">
        <ele>41</ele>
        <time>2023-01-24T09:50:22.742Z</time>
      </trkpt>
      <trkpt lat="48.70579" lon="2.39041">
        <ele>41</ele>
        <time>2023-01-24T09:50:26.800Z</time>
      </trkpt>
      <trkpt lat="48.70582" lon="2.3905">
        <ele>37</ele>
        <time>2023-01-24T09:50:31.358Z</time>
      </trkpt>
      <trkpt lat="48.70584" lon="2.39058">
        <ele>37</ele>
        <time>2023-01-24T09:50:35.915Z</time>
      </trkpt>
      <trkpt lat="48.70586" lon="2.39065">
        <ele>37</ele>
        <time>2023-01-24T09:50:40.176Z</time>
      </trkpt>
      <trkpt lat="48.70587" lon="2.3907">
        <ele>35</ele>
        <time>2023-01-24T09:50:44.192Z</time>
      </trkpt>
      <trkpt lat="48.7059" lon="2.39077">
        <ele>35</ele>
        <time>2023-01-24T09:50:48.629Z</time>
      </trkpt>
      <trkpt lat="48.70592" lon="2.39086">
        <ele>35</ele>
        <time>2023-01-24T09:50:53.019Z</time>
      </trkpt>
      <trkpt lat="48.70593" lon="2.39092">
        <ele>35</ele>
        <time>2023-01-24T09:50:56.964Z</time>
      </trkpt>
      <trkpt lat="48.70597" lon="2.39102">
        <ele>34</ele>
        <time>2023-01-24T09:51:01.365Z</time>
      </trkpt>
      <trkpt lat="48.70599" lon="2.39113">
        <ele>37</ele>
        <time>2023-01-24T09:51:05.719Z</time>
      </trkpt>
      <trkpt lat="48.70598" lon="2.39122">
        <ele>37</ele>
        <time>2023-01-24T09:51:09.578Z</time>
      </trkpt>
      <trkpt lat="48.70601" lon="2.39129">
        <ele>36</ele>
        <time>2023-01-24T09:51:14.035Z</time>
      </trkpt>
      <trkpt lat="48.70608" lon="2.39129">
        <ele>36</ele>
        <time>2023-01-24T09:51:18.172Z</time>
      </trkpt>
      <trkpt lat="48.70613" lon="2.39133">
        <ele>36</ele>
        <time>2023-01-24T09:51:22.684Z</time>
      </trkpt>
      <trkpt lat="48.70618" lon="2.39139">
        <ele>36</ele>
        <time>2023-01-24T09:51:26.609Z</time>
      </trkpt>
      <trkpt lat="48.70623" lon="2.39147">
        <ele>36</ele>
        <time>2023-01-24T09:51:30.958Z</time>
      </trkpt>
      <trkpt lat="48.70628" lon="2.39154">
        <ele>39</ele>
        <time>2023-01-24T09:51:34.624Z</time>
      </trkpt>
      <trkpt lat="48.70634" lon="2.39163">
        <ele>39</ele>
        <time>2023-01-24T09:51:39.595Z</time>
      </trkpt>
      <trkpt lat="48.70638" lon="2.39168">
        <ele>39</ele>
        <time>2023-01-24T09:51:43.600Z</time>
      </trkpt>
      <trkpt lat="48.7064" lon="2.39176">
        <ele>39</ele>
        <time>2023-01-24T09:51:48.161Z</time>
      </trkpt>
      <trkpt lat="48.70644" lon="2.39182">
        <ele>37</ele>
        <time>2023-01-24T09:51:52.219Z</time>
      </trkpt>
      <trkpt lat="48.70649" lon="2.39189">
        <ele>37</ele>
        <time>2023-01-24T09:51:56.715Z</time>
      </trkpt>
      <trkpt lat="48.70653" lon="2.39197">
        <ele>40</ele>
        <time>2023-01-24T09:52:01.154Z</time>
      </trkpt>
      <trkpt lat="48.70657" lon="2.39205">
        <ele>40</ele>
        <time>2023-01-24T09:52:05.731Z</time>
      </trkpt>
      <trkpt lat="48.70661" lon="2.39212">
        <ele>38</ele>
        <time>2023-01-24T09:52:10.269Z</time>
      </trkpt>
      <trkpt lat="48.70667" lon="2.3922">
        <ele>38</ele>
        <time>2023-01-24T09:52:14.266Z</time>
      </trkpt>
      <trkpt lat="48.70671" lon="2.39228">
        <ele>38</ele>
        <time>2023-01-24T09:52:18.824Z</time>
      </trkpt>
      <trkpt lat="48.70674" lon="2.39236">
        <ele>38</ele>
        <time>2023-01-24T09:52:23.334Z</time>
      </trkpt>
      <trkpt lat="48.70676" lon="2.39243">
        <ele>37</ele>
        <time>2023-01-24T09:52:27.822Z</time>
      </trkpt>
      <trkpt lat="48.70681" lon="2.39252">
        <ele>39</ele>
        <time>2023-01-24T09:52:32.314Z</time>
      </trkpt>
      <trkpt lat="48.70686" lon="2.39261">
        <ele>39</ele>
        <time>2023-01-24T09:52:37.312Z</time>
      </trkpt>
      <trkpt lat="48.70691" lon="2.39269">
        <ele>39</ele>
        <time>2023-01-24T09:52:41.228Z</time>
      </trkpt>
      <trkpt lat="48.70695" lon="2.39277">
        <ele>39</ele>
        <time>2023-01-24T09:52:45.810Z</time>
      </trkpt>
      <trkpt lat="48.707" lon="2.39283">
        <ele>39</ele>
        <time>2023-01-24T09:52:49.860Z</time>
      </trkpt>
      <trkpt lat="48.70704" lon="2.39292">
        <ele>39</ele>
        <time>2023-01-24T09:52:54.175Z</time>
      </trkpt>
      <trkpt lat="48.70708" lon="2.39298">
        <ele>40</ele>
        <time>2023-01-24T09:52:58.850Z</time>
      </trkpt>
      <trkpt lat="48.70712" lon="2.39303">
        <ele>40</ele>
        <time>2023-01-24T09:53:03.338Z</time>
      </trkpt>
      <trkpt lat="48.70717" lon="2.3931">
        <ele>40</ele>
        <time>2023-01-24T09:53:07.402Z</time>
      </trkpt>
      <trkpt lat="48.70721" lon="2.39319">
        <ele>40</ele>
        <time>2023-01-24T09:53:11.256Z</time>
      </trkpt>
      <trkpt lat="48.70725" lon="2.39326">
        <ele>39</ele>
        <time>2023-01-24T09:53:15.770Z</time>
      </trkpt>
      <trkpt lat="48.70726" lon="2.39334">
        <ele>39</ele>
        <time>2023-01-24T09:53:19.725Z</time>
      </trkpt>
      <trkpt lat="48.70735" lon="2.3934">
        <ele>39</ele>
        <time>2023-01-24T09:53:24.201Z</time>
      </trkpt>
      <trkpt lat="48.70739" lon="2.39347">
        <ele>40</ele>
        <time>2023-01-24T09:53:28.163Z</time>
      </trkpt>
      <trkpt lat="48.70744" lon="2.39354">
        <ele>40</ele>
        <time>2023-01-24T09:53:32.628Z</time>
      </trkpt>
      <trkpt lat="48.70747" lon="2.3936">
        <ele>40</ele>
        <time>2023-01-24T09:53:36.583Z</time>
      </trkpt>
      <trkpt lat="48.70751" lon="2.39368">
        <ele>40</ele>
        <time>2023-01-24T09:53:41.259Z</time>
      </trkpt>
      <trkpt lat="48.70757" lon="2.39375">
        <ele>40</ele>
        <time>2023-01-24T09:53:45.938Z</time>
      </trkpt>
      <trkpt lat="48.70761" lon="2.3938">
        <ele>40</ele>
        <time>2023-01-24T09:53:49.969Z</time>
      </trkpt>
      <trkpt lat="48.70765" lon="2.39389">
        <ele>41</ele>
        <time>2023-01-24T09:53:53.803Z</time>
      </trkpt>
      <trkpt lat="48.70768" lon="2.39397">
        <ele>41</ele>
        <time>2023-01-24T09:53:57.838Z</time>
      </trkpt>
      <trkpt lat="48.70772" lon="2.39406">
        <ele>40</ele>
        <time>2023-01-24T09:54:02.392Z</time>
      </trkpt>
      <trkpt lat="48.70777" lon="2.39415">
        <ele>40</ele>
        <time>2023-01-24T09:54:06.827Z</time>
      </trkpt>
      <trkpt lat="48.70783" lon="2.39423">
        <ele>40</ele>
        <time>2023-01-24T09:54:11.380Z</time>
      </trkpt>
      <trkpt lat="48.70787" lon="2.39429">
        <ele>40</ele>
        <time>2023-01-24T09:54:15.693Z</time>
      </trkpt>
      <trkpt lat="48.70791" lon="2.39436">
        <ele>39</ele>
        <time>2023-01-24T09:54:20.257Z</time>
      </trkpt>
      <trkpt lat="48.70795" lon="2.39442">
        <ele>40</ele>
        <time>2023-01-24T09:54:24.398Z</time>
      </trkpt>
      <trkpt lat="48.708" lon="2.39448">
        <ele>40</ele>
        <time>2023-01-24T09:54:28.590Z</time>
      </trkpt>
      <trkpt lat="48.70804" lon="2.39452">
        <ele>40</ele>
        <time>2023-01-24T09:54:32.523Z</time>
      </trkpt>
      <trkpt lat="48.70808" lon="2.39457">
        <ele>40</ele>
        <time>2023-01-24T09:54:36.594Z</time>
      </trkpt>
      <trkpt lat="48.70809" lon="2.39467">
        <ele>38</ele>
        <time>2023-01-24T09:54:41.266Z</time>
      </trkpt>
      <trkpt lat="48.70814" lon="2.39473">
        <ele>38</ele>
        <time>2023-01-24T09:54:45.818Z</time>
      </trkpt>
      <trkpt lat="48.70819" lon="2.3948">
        <ele>38</ele>
        <time>2023-01-24T09:54:49.974Z</time>
      </trkpt>
      <trkpt lat="48.70823" lon="2.39486">
        <ele>39</ele>
        <time>2023-01-24T09:54:53.964Z</time>
      </trkpt>
      <trkpt lat="48.70829" lon="2.39494">
        <ele>39</ele>
        <time>2023-01-24T09:54:58.516Z</time>
      </trkpt>
      <trkpt lat="48.70834" lon="2.39499">
        <ele>39</ele>
        <time>2023-01-24T09:55:02.743Z</time>
      </trkpt>
      <trkpt lat="48.70839" lon="2.39502">
        <ele>39</ele>
        <time>2023-01-24T09:55:06.744Z</time>
      </trkpt>
      <trkpt lat="48.70842" lon="2.39508">
        <ele>39</ele>
        <time>2023-01-24T09:55:10.818Z</time>
      </trkpt>
      <trkpt lat="48.70847" lon="2.39514">
        <ele>39</ele>
        <time>2023-01-24T09:55:15.369Z</time>
      </trkpt>
      <trkpt lat="48.70851" lon="2.39517">
        <ele>40</ele>
        <time>2023-01-24T09:55:19.165Z</time>
      </trkpt>
      <trkpt lat="48.70855" lon="2.39521">
        <ele>40</ele>
        <time>2023-01-24T09:55:23.221Z</time>
      </trkpt>
      <trkpt lat="48.70859" lon="2.39533">
        <ele>40</ele>
        <time>2023-01-24T09:55:28.012Z</time>
      </trkpt>
      <trkpt lat="48.70865" lon="2.39541">
        <ele>40</ele>
        <time>2023-01-24T09:55:32.208Z</time>
      </trkpt>
      <trkpt lat="48.70872" lon="2.39546">
        <ele>38</ele>
        <time>2023-01-24T09:55:36.283Z</time>
      </trkpt>
      <trkpt lat="48.70876" lon="2.39551">
        <ele>39</ele>
        <time>2023-01-24T09:55:40.821Z</time>
      </trkpt>
      <trkpt lat="48.70881" lon="2.39556">
        <ele>39</ele>
        <time>2023-01-24T09:55:44.792Z</time>
      </trkpt>
      <trkpt lat="48.70887" lon="2.39561">
        <ele>39</ele>
        <time>2023-01-24T09:55:48.628Z</time>
      </trkpt>
      <trkpt lat="48.70894" lon="2.39567">
        <ele>39</ele>
        <time>2023-01-24T09:55:52.506Z</time>
      </trkpt>
      <trkpt lat="48.70899" lon="2.39572">
        <ele>38</ele>
        <time>2023-01-24T09:55:57.082Z</time>
      </trkpt>
      <trkpt lat="48.70905" lon="2.39577">
        <ele>39</ele>
        <time>2023-01-24T09:56:01.619Z</time>
      </trkpt>
      <trkpt lat="48.7091" lon="2.39582">
        <ele>39</ele>
        <time>2023-01-24T09:56:05.675Z</time>
      </trkpt>
      <trkpt lat="48.70915" lon="2.39587">
        <ele>39</ele>
        <time>2023-01-24T09:56:10.224Z</time>
      </trkpt>
      <trkpt lat="48.7092" lon="2.39591">
        <ele>39</ele>
        <time>2023-01-24T09:56:14.359Z</time>
      </trkpt>
      <trkpt lat="48.70925" lon="2.39597">
        <ele>39</ele>
        <time>2023-01-24T09:56:18.382Z</time>
      </trkpt>
      <trkpt lat="48.70931" lon="2.39602">
        <ele>41</ele>
        <time>2023-01-24T09:56:22.219Z</time>
      </trkpt>
      <trkpt lat="48.70937" lon="2.39605">
        <ele>41</ele>
        <time>2023-01-24T09:56:26.776Z</time>
      </trkpt>
      <trkpt lat="48.70939" lon="2.39611">
        <ele>41</ele>
        <time>2023-01-24T09:56:30.911Z</time>
      </trkpt>
      <trkpt lat="48.70942" lon="2.39617">
        <ele>41</ele>
        <time>2023-01-24T09:56:35.341Z</time>
      </trkpt>
      <trkpt lat="48.70947" lon="2.39624">
        <ele>41</ele>
        <time>2023-01-24T09:56:39.167Z</time>
      </trkpt>
      <trkpt lat="48.70953" lon="2.39631">
        <ele>38</ele>
        <time>2023-01-24T09:56:43.603Z</time>
      </trkpt>
      <trkpt lat="48.70958" lon="2.39639">
        <ele>38</ele>
        <time>2023-01-24T09:56:48.280Z</time>
      </trkpt>
      <trkpt lat="48.70963" lon="2.39647">
        <ele>43</ele>
        <time>2023-01-24T09:56:52.956Z</time>
      </trkpt>
      <trkpt lat="48.70968" lon="2.39655">
        <ele>40</ele>
        <time>2023-01-24T09:56:57.275Z</time>
      </trkpt>
      <trkpt lat="48.70975" lon="2.39662">
        <ele>40</ele>
        <time>2023-01-24T09:57:01.601Z</time>
      </trkpt>
      <trkpt lat="48.70979" lon="2.39667">
        <ele>40</ele>
        <time>2023-01-24T09:57:06.123Z</time>
      </trkpt>
      <trkpt lat="48.70982" lon="2.39671">
        <ele>40</ele>
        <time>2023-01-24T09:57:10.160Z</time>
      </trkpt>
      <trkpt lat="48.70983" lon="2.3967">
        <ele>40</ele>
        <time>2023-01-24T09:57:14.715Z</time>
      </trkpt>
      <trkpt lat="48.70985" lon="2.39673">
        <ele>40</ele>
        <time>2023-01-24T09:57:19.270Z</time>
      </trkpt>
      <trkpt lat="48.70984" lon="2.3968">
        <ele>40</ele>
        <time>2023-01-24T09:57:23.224Z</time>
      </trkpt>
      <trkpt lat="48.70982" lon="2.39691">
        <ele>40</ele>
        <time>2023-01-24T09:57:27.524Z</time>
      </trkpt>
      <trkpt lat="48.70981" lon="2.39699">
        <ele>40</ele>
        <time>2023-01-24T09:57:31.555Z</time>
      </trkpt>
      <trkpt lat="48.70979" lon="2.39706">
        <ele>40</ele>
        <time>2023-01-24T09:57:35.592Z</time>
      </trkpt>
      <trkpt lat="48.70981" lon="2.39712">
        <ele>40</ele>
        <time>2023-01-24T09:57:40.149Z</time>
      </trkpt>
      <trkpt lat="48.7098" lon="2.39719">
        <ele>40</ele>
        <time>2023-01-24T09:57:44.224Z</time>
      </trkpt>
      <trkpt lat="48.7098" lon="2.39727">
        <ele>40</ele>
        <time>2023-01-24T09:57:48.623Z</time>
      </trkpt>
      <trkpt lat="48.70994" lon="2.39744">
        <ele>41</ele>
        <time>2023-01-24T09:57:52.757Z</time>
      </trkpt>
      <trkpt lat="48.70997" lon="2.39753">
        <ele>41</ele>
        <time>2023-01-24T09:57:56.792Z</time>
      </trkpt>
      <trkpt lat="48.71001" lon="2.39758">
        <ele>41</ele>
        <time>2023-01-24T09:58:00.825Z</time>
      </trkpt>
      <trkpt lat="48.71006" lon="2.39764">
        <ele>41</ele>
        <time>2023-01-24T09:58:04.779Z</time>
      </trkpt>
      <trkpt lat="48.7101" lon="2.3977">
        <ele>39</ele>
        <time>2023-01-24T09:58:09.514Z</time>
      </trkpt>
      <trkpt lat="48.71015" lon="2.39775">
        <ele>42</ele>
        <time>2023-01-24T09:58:14.012Z</time>
      </trkpt>
      <trkpt lat="48.71019" lon="2.39779">
        <ele>42</ele>
        <time>2023-01-24T09:58:17.961Z</time>
      </trkpt>
      <trkpt lat="48.71023" lon="2.39784">
        <ele>42</ele>
        <time>2023-01-24T09:58:22.459Z</time>
      </trkpt>
      <trkpt lat="48.71026" lon="2.39791">
        <ele>42</ele>
        <time>2023-01-24T09:58:26.762Z</time>
      </trkpt>
      <trkpt lat="48.71029" lon="2.39794">
        <ele>40</ele>
        <time>2023-01-24T09:58:31.192Z</time>
      </trkpt>
      <trkpt lat="48.71034" lon="2.39799">
        <ele>40</ele>
        <time>2023-01-24T09:58:35.641Z</time>
      </trkpt>
      <trkpt lat="48.71038" lon="2.39804">
        <ele>40</ele>
        <time>2023-01-24T09:58:39.470Z</time>
      </trkpt>
      <trkpt lat="48.71042" lon="2.39813">
        <ele>41</ele>
        <time>2023-01-24T09:58:44.012Z</time>
      </trkpt>
      <trkpt lat="48.71044" lon="2.39821">
        <ele>39</ele>
        <time>2023-01-24T09:58:48.012Z</time>
      </trkpt>
      <trkpt lat="48.71048" lon="2.39829">
        <ele>39</ele>
        <time>2023-01-24T09:58:52.649Z</time>
      </trkpt>
      <trkpt lat="48.71052" lon="2.39832">
        <ele>39</ele>
        <time>2023-01-24T09:58:57.057Z</time>
      </trkpt>
      <trkpt lat="48.71055" lon="2.39834">
        <ele>39</ele>
        <time>2023-01-24T09:59:01.074Z</time>
      </trkpt>
      <trkpt lat="48.7106" lon="2.39835">
        <ele>39</ele>
        <time>2023-01-24T09:59:05.594Z</time>
      </trkpt>
      <trkpt lat="48.71066" lon="2.39836">
        <ele>39</ele>
        <time>2023-01-24T09:59:10.320Z</time>
      </trkpt>
      <trkpt lat="48.71069" lon="2.39841">
        <ele>39</ele>
        <time>2023-01-24T09:59:14.864Z</time>
      </trkpt>
      <trkpt lat="48.71072" lon="2.39846">
        <ele>42</ele>
        <time>2023-01-24T09:59:19.417Z</time>
      </trkpt>
      <trkpt lat="48.71072" lon="2.39848">
        <ele>41</ele>
        <time>2023-01-24T09:59:23.858Z</time>
      </trkpt>
      <trkpt lat="48.71081" lon="2.39857">
        <ele>41</ele>
        <time>2023-01-24T09:59:27.915Z</time>
      </trkpt>
      <trkpt lat="48.71089" lon="2.39866">
        <ele>41</ele>
        <time>2023-01-24T09:59:32.421Z</time>
      </trkpt>
      <trkpt lat="48.71095" lon="2.39875">
        <ele>41</ele>
        <time>2023-01-24T09:59:36.425Z</time>
      </trkpt>
      <trkpt lat="48.71101" lon="2.39882">
        <ele>43</ele>
        <time>2023-01-24T09:59:40.547Z</time>
      </trkpt>
      <trkpt lat="48.71107" lon="2.39891">
        <ele>43</ele>
        <time>2023-01-24T09:59:45.088Z</time>
      </trkpt>
      <trkpt lat="48.71112" lon="2.39899">
        <ele>43</ele>
        <time>2023-01-24T09:59:49.289Z</time>
      </trkpt>
      <trkpt lat="48.71116" lon="2.39908">
        <ele>40</ele>
        <time>2023-01-24T09:59:54.031Z</time>
      </trkpt>
      <trkpt lat="48.7112" lon="2.39916">
        <ele>40</ele>
        <time>2023-01-24T09:59:58.638Z</time>
      </trkpt>
      <trkpt lat="48.71121" lon="2.39925">
        <ele>40</ele>
        <time>2023-01-24T10:00:03.142Z</time>
      </trkpt>
      <trkpt lat="48.71126" lon="2.3993">
        <ele>42</ele>
        <time>2023-01-24T10:00:07.645Z</time>
      </trkpt>
      <trkpt lat="48.71131" lon="2.39937">
        <ele>39</ele>
        <time>2023-01-24T10:00:11.845Z</time>
      </trkpt>
      <trkpt lat="48.71137" lon="2.39946">
        <ele>39</ele>
        <time>2023-01-24T10:00:16.443Z</time>
      </trkpt>
      <trkpt lat="48.71142" lon="2.39955">
        <ele>39</ele>
        <time>2023-01-24T10:00:20.822Z</time>
      </trkpt>
      <trkpt lat="48.71145" lon="2.39965">
        <ele>36</ele>
        <time>2023-01-24T10:00:25.220Z</time>
      </trkpt>
      <trkpt lat="48.71149" lon="2.39972">
        <ele>36</ele>
        <time>2023-01-24T10:00:29.399Z</time>
      </trkpt>
      <trkpt lat="48.71152" lon="2.39976">
        <ele>36</ele>
        <time>2023-01-24T10:00:33.880Z</time>
      </trkpt>
      <trkpt lat="48.71155" lon="2.3998">
        <ele>39</ele>
        <time>2023-01-24T10:00:38.177Z</time>
      </trkpt>
      <trkpt lat="48.71159" lon="2.39983">
        <ele>39</ele>
        <time>2023-01-24T10:00:42.599Z</time>
      </trkpt>
      <trkpt lat="48.71162" lon="2.39989">
        <ele>38</ele>
        <time>2023-01-24T10:00:46.875Z</time>
      </trkpt>
      <trkpt lat="48.71165" lon="2.39993">
        <ele>38</ele>
        <time>2023-01-24T10:00:51.677Z</time>
      </trkpt>
      <trkpt lat="48.71165" lon="2.4">
        <ele>38</ele>
        <time>2023-01-24T10:00:56.012Z</time>
      </trkpt>
      <trkpt lat="48.71164" lon="2.40007">
        <ele>38</ele>
        <time>2023-01-24T10:01:00.178Z</time>
      </trkpt>
      <trkpt lat="48.71159" lon="2.40014">
        <ele>38</ele>
        <time>2023-01-24T10:01:04.558Z</time>
      </trkpt>
      <trkpt lat="48.71152" lon="2.40019">
        <ele>35</ele>
        <time>2023-01-24T10:01:09.180Z</time>
      </trkpt>
      <trkpt lat="48.71149" lon="2.40022">
        <ele>35</ele>
        <time>2023-01-24T10:01:13.222Z</time>
      </trkpt>
      <trkpt lat="48.71148" lon="2.40025">
        <ele>35</ele>
        <time>2023-01-24T10:01:17.264Z</time>
      </trkpt>
      <trkpt lat="48.71149" lon="2.40037">
        <ele>35</ele>
        <time>2023-01-24T10:01:21.267Z</time>
      </trkpt>
      <trkpt lat="48.71151" lon="2.40046">
        <ele>36</ele>
        <time>2023-01-24T10:01:25.271Z</time>
      </trkpt>
      <trkpt lat="48.71154" lon="2.40056">
        <ele>38</ele>
        <time>2023-01-24T10:01:29.431Z</time>
      </trkpt>
      <trkpt lat="48.71156" lon="2.40064">
        <ele>38</ele>
        <time>2023-01-24T10:01:33.972Z</time>
      </trkpt>
      <trkpt lat="48.7116" lon="2.40071">
        <ele>36</ele>
        <time>2023-01-24T10:01:38.074Z</time>
      </trkpt>
      <trkpt lat="48.71162" lon="2.40079">
        <ele>36</ele>
        <time>2023-01-24T10:01:42.596Z</time>
      </trkpt>
      <trkpt lat="48.71162" lon="2.40087">
        <ele>36</ele>
        <time>2023-01-24T10:01:46.758Z</time>
      </trkpt>
      <trkpt lat="48.71162" lon="2.40096">
        <ele>36</ele>
        <time>2023-01-24T10:01:50.960Z</time>
      </trkpt>
      <trkpt lat="48.71163" lon="2.40104">
        <ele>35</ele>
        <time>2023-01-24T10:01:55.221Z</time>
      </trkpt>
      <trkpt lat="48.71164" lon="2.40112">
        <ele>35</ele>
        <time>2023-01-24T10:01:59.223Z</time>
      </trkpt>
      <trkpt lat="48.71165" lon="2.40121">
        <ele>35</ele>
        <time>2023-01-24T10:02:03.727Z</time>
      </trkpt>
      <trkpt lat="48.71167" lon="2.4013">
        <ele>35</ele>
        <time>2023-01-24T10:02:08.349Z</time>
      </trkpt>
      <trkpt lat="48.71166" lon="2.40139">
        <ele>35</ele>
        <time>2023-01-24T10:02:21.931Z</time>
      </trkpt>
      <trkpt lat="48.71167" lon="2.40142">
        <ele>35</ele>
        <time>2023-01-24T10:02:26.192Z</time>
      </trkpt>
      <trkpt lat="48.71166" lon="2.40143">
        <ele>35</ele>
        <time>2023-01-24T10:02:30.195Z</time>
      </trkpt>
      <trkpt lat="48.71164" lon="2.40145">
        <ele>35</ele>
        <time>2023-01-24T10:02:34.877Z</time>
      </trkpt>
      <trkpt lat="48.71162" lon="2.40149">
        <ele>35</ele>
        <time>2023-01-24T10:02:38.878Z</time>
      </trkpt>
      <trkpt lat="48.71163" lon="2.40158">
        <ele>35</ele>
        <time>2023-01-24T10:02:43.012Z</time>
      </trkpt>
      <trkpt lat="48.71168" lon="2.40164">
        <ele>35</ele>
        <time>2023-01-24T10:02:47.439Z</time>
      </trkpt>
      <trkpt lat="48.71175" lon="2.4017">
        <ele>35</ele>
        <time>2023-01-24T10:02:51.877Z</time>
      </trkpt>
      <trkpt lat="48.7118" lon="2.40176">
        <ele>35</ele>
        <time>2023-01-24T10:02:55.836Z</time>
      </trkpt>
      <trkpt lat="48.71186" lon="2.40181">
        <ele>36</ele>
        <time>2023-01-24T10:03:00.274Z</time>
      </trkpt>
      <trkpt lat="48.71191" lon="2.40186">
        <ele>36</ele>
        <time>2023-01-24T10:03:04.634Z</time>
      </trkpt>
      <trkpt lat="48.71195" lon="2.40189">
        <ele>36</ele>
        <time>2023-01-24T10:03:08.973Z</time>
      </trkpt>
      <trkpt lat="48.71199" lon="2.40192">
        <ele>36</ele>
        <time>2023-01-24T10:03:13.333Z</time>
      </trkpt>
      <trkpt lat="48.71204" lon="2.40195">
        <ele>36</ele>
        <time>2023-01-24T10:03:17.821Z</time>
      </trkpt>
      <trkpt lat="48.71209" lon="2.40198">
        <ele>35</ele>
        <time>2023-01-24T10:03:21.788Z</time>
      </trkpt>
      <trkpt lat="48.71214" lon="2.402">
        <ele>35</ele>
        <time>2023-01-24T10:03:25.625Z</time>
      </trkpt>
      <trkpt lat="48.71215" lon="2.402">
        <ele>35</ele>
        <time>2023-01-24T10:03:31.012Z</time>
      </trkpt>
      <trkpt lat="48.71216" lon="2.40201">
        <ele>35</ele>
        <time>2023-01-24T10:03:35.201Z</time>
      </trkpt>
      <trkpt lat="48.71217" lon="2.40205">
        <ele>35</ele>
        <time>2023-01-24T10:03:39.259Z</time>
      </trkpt>
      <trkpt lat="48.71222" lon="2.4021">
        <ele>35</ele>
        <time>2023-01-24T10:03:43.798Z</time>
      </trkpt>
      <trkpt lat="48.71228" lon="2.40216">
        <ele>35</ele>
        <time>2023-01-24T10:03:47.999Z</time>
      </trkpt>
      <trkpt lat="48.71233" lon="2.40219">
        <ele>35</ele>
        <time>2023-01-24T10:03:52.415Z</time>
      </trkpt>
      <trkpt lat="48.71239" lon="2.40217">
        <ele>35</ele>
        <time>2023-01-24T10:03:56.573Z</time>
      </trkpt>
      <trkpt lat="48.71247" lon="2.40209">
        <ele>35</ele>
        <time>2023-01-24T10:04:01.059Z</time>
      </trkpt>
      <trkpt lat="48.71252" lon="2.40204">
        <ele>35</ele>
        <time>2023-01-24T10:04:05.591Z</time>
      </trkpt>
      <trkpt lat="48.71256" lon="2.40205">
        <ele>35</ele>
        <time>2023-01-24T10:04:09.431Z</time>
      </trkpt>
      <trkpt lat="48.71259" lon="2.40216">
        <ele>35</ele>
        <time>2023-01-24T10:04:14.073Z</time>
      </trkpt>
      <trkpt lat="48.71262" lon="2.40225">
        <ele>35</ele>
        <time>2023-01-24T10:04:18.012Z</time>
      </trkpt>
      <trkpt lat="48.71267" lon="2.40232">
        <ele>36</ele>
        <time>2023-01-24T10:04:22.358Z</time>
      </trkpt>
      <trkpt lat="48.71272" lon="2.40238">
        <ele>36</ele>
        <time>2023-01-24T10:04:26.866Z</time>
      </trkpt>
      <trkpt lat="48.71279" lon="2.40244">
        <ele>36</ele>
        <time>2023-01-24T10:04:30.766Z</time>
      </trkpt>
      <trkpt lat="48.71283" lon="2.40248">
        <ele>36</ele>
        <time>2023-01-24T10:04:34.783Z</time>
      </trkpt>
      <trkpt lat="48.71286" lon="2.40252">
        <ele>36</ele>
        <time>2023-01-24T10:04:39.173Z</time>
      </trkpt>
      <trkpt lat="48.71291" lon="2.40258">
        <ele>36</ele>
        <time>2023-01-24T10:04:43.563Z</time>
      </trkpt>
      <trkpt lat="48.71294" lon="2.40261">
        <ele>36</ele>
        <time>2023-01-24T10:04:47.619Z</time>
      </trkpt>
      <trkpt lat="48.71298" lon="2.40263">
        <ele>36</ele>
        <time>2023-01-24T10:04:51.557Z</time>
      </trkpt>
      <trkpt lat="48.71301" lon="2.40265">
        <ele>36</ele>
        <time>2023-01-24T10:04:56.060Z</time>
      </trkpt>
      <trkpt lat="48.71305" lon="2.40267">
        <ele>36</ele>
        <time>2023-01-24T10:05:00.573Z</time>
      </trkpt>
      <trkpt lat="48.71314" lon="2.40268">
        <ele>36</ele>
        <time>2023-01-24T10:05:05.012Z</time>
      </trkpt>
      <trkpt lat="48.71322" lon="2.40268">
        <ele>38</ele>
        <time>2023-01-24T10:05:09.803Z</time>
      </trkpt>
      <trkpt lat="48.71327" lon="2.40268">
        <ele>38</ele>
        <time>2023-01-24T10:05:13.628Z</time>
      </trkpt>
      <trkpt lat="48.71331" lon="2.40266">
        <ele>38</ele>
        <time>2023-01-24T10:05:17.566Z</time>
      </trkpt>
      <trkpt lat="48.71335" lon="2.40263">
        <ele>38</ele>
        <time>2023-01-24T10:05:22.203Z</time>
      </trkpt>
      <trkpt lat="48.71342" lon="2.40259">
        <ele>38</ele>
        <time>2023-01-24T10:05:26.640Z</time>
      </trkpt>
      <trkpt lat="48.71347" lon="2.40251">
        <ele>40</ele>
        <time>2023-01-24T10:05:31.140Z</time>
      </trkpt>
      <trkpt lat="48.71354" lon="2.40246">
        <ele>40</ele>
        <time>2023-01-24T10:05:35.457Z</time>
      </trkpt>
      <trkpt lat="48.71359" lon="2.4024">
        <ele>40</ele>
        <time>2023-01-24T10:05:39.816Z</time>
      </trkpt>
      <trkpt lat="48.71361" lon="2.40236">
        <ele>40</ele>
        <time>2023-01-24T10:05:43.815Z</time>
      </trkpt>
      <trkpt lat="48.71364" lon="2.40231">
        <ele>41</ele>
        <time>2023-01-24T10:05:47.934Z</time>
      </trkpt>
      <trkpt lat="48.71369" lon="2.40226">
        <ele>41</ele>
        <time>2023-01-24T10:05:52.354Z</time>
      </trkpt>
      <trkpt lat="48.71372" lon="2.40223">
        <ele>41</ele>
        <time>2023-01-24T10:05:56.374Z</time>
      </trkpt>
      <trkpt lat="48.71375" lon="2.40225">
        <ele>41</ele>
        <time>2023-01-24T10:06:00.615Z</time>
      </trkpt>
      <trkpt lat="48.71377" lon="2.40232">
        <ele>44</ele>
        <time>2023-01-24T10:06:04.617Z</time>
      </trkpt>
      <trkpt lat="48.7138" lon="2.40239">
        <ele>42</ele>
        <time>2023-01-24T10:06:08.937Z</time>
      </trkpt>
      <trkpt lat="48.71389" lon="2.40248">
        <ele>42</ele>
        <time>2023-01-24T10:06:13.356Z</time>
      </trkpt>
      <trkpt lat="48.71396" lon="2.40255">
        <ele>42</ele>
        <time>2023-01-24T10:06:17.676Z</time>
      </trkpt>
      <trkpt lat="48.71403" lon="2.40262">
        <ele>42</ele>
        <time>2023-01-24T10:06:22.500Z</time>
      </trkpt>
      <trkpt lat="48.71407" lon="2.40268">
        <ele>43</ele>
        <time>2023-01-24T10:06:26.336Z</time>
      </trkpt>
      <trkpt lat="48.71413" lon="2.40274">
        <ele>43</ele>
        <time>2023-01-24T10:06:30.596Z</time>
      </trkpt>
      <trkpt lat="48.71418" lon="2.4028">
        <ele>43</ele>
        <time>2023-01-24T10:06:34.776Z</time>
      </trkpt>
      <trkpt lat="48.71423" lon="2.40292">
        <ele>41</ele>
        <time>2023-01-24T10:06:39.073Z</time>
      </trkpt>
      <trkpt lat="48.71426" lon="2.40302">
        <ele>41</ele>
        <time>2023-01-24T10:06:43.629Z</time>
      </trkpt>
      <trkpt lat="48.71429" lon="2.40308">
        <ele>41</ele>
        <time>2023-01-24T10:06:47.666Z</time>
      </trkpt>
      <trkpt lat="48.71433" lon="2.40316">
        <ele>45</ele>
        <time>2023-01-24T10:06:52.197Z</time>
      </trkpt>
      <trkpt lat="48.71437" lon="2.40325">
        <ele>44</ele>
        <time>2023-01-24T10:06:57.101Z</time>
      </trkpt>
      <trkpt lat="48.71441" lon="2.40333">
        <ele>44</ele>
        <time>2023-01-24T10:07:01.304Z</time>
      </trkpt>
      <trkpt lat="48.71444" lon="2.40342">
        <ele>44</ele>
        <time>2023-01-24T10:07:05.604Z</time>
      </trkpt>
      <trkpt lat="48.71449" lon="2.40351">
        <ele>44</ele>
        <time>2023-01-24T10:07:10.042Z</time>
      </trkpt>
      <trkpt lat="48.71453" lon="2.40359">
        <ele>44</ele>
        <time>2023-01-24T10:07:14.443Z</time>
      </trkpt>
      <trkpt lat="48.71456" lon="2.40368">
        <ele>44</ele>
        <time>2023-01-24T10:07:18.222Z</time>
      </trkpt>
      <trkpt lat="48.71458" lon="2.40373">
        <ele>44</ele>
        <time>2023-01-24T10:07:22.300Z</time>
      </trkpt>
      <trkpt lat="48.71462" lon="2.40381">
        <ele>49</ele>
        <time>2023-01-24T10:07:26.639Z</time>
      </trkpt>
      <trkpt lat="48.71466" lon="2.4038">
        <ele>49</ele>
        <time>2023-01-24T10:07:31.158Z</time>
      </trkpt>
      <trkpt lat="48.71469" lon="2.40374">
        <ele>50</ele>
        <time>2023-01-24T10:07:35.502Z</time>
      </trkpt>
      <trkpt lat="48.71473" lon="2.40366">
        <ele>50</ele>
        <time>2023-01-24T10:07:39.898Z</time>
      </trkpt>
      <trkpt lat="48.71478" lon="2.40359">
        <ele>50</ele>
        <time>2023-01-24T10:07:44.339Z</time>
      </trkpt>
      <trkpt lat="48.71483" lon="2.40353">
        <ele>50</ele>
        <time>2023-01-24T10:07:48.777Z</time>
      </trkpt>
      <trkpt lat="48.71485" lon="2.40346">
        <ele>51</ele>
        <time>2023-01-24T10:07:52.694Z</time>
      </trkpt>
      <trkpt lat="48.7149" lon="2.40342">
        <ele>57</ele>
        <time>2023-01-24T10:07:56.772Z</time>
      </trkpt>
      <trkpt lat="48.71494" lon="2.40338">
        <ele>57</ele>
        <time>2023-01-24T10:08:00.850Z</time>
      </trkpt>
      <trkpt lat="48.71497" lon="2.40334">
        <ele>57</ele>
        <time>2023-01-24T10:08:05.467Z</time>
      </trkpt>
      <trkpt lat="48.71499" lon="2.40329">
        <ele>57</ele>
        <time>2023-01-24T10:08:10.012Z</time>
      </trkpt>
      <trkpt lat="48.71501" lon="2.40328">
        <ele>57</ele>
        <time>2023-01-24T10:08:14.223Z</time>
      </trkpt>
      <trkpt lat="48.71502" lon="2.40322">
        <ele>57</ele>
        <time>2023-01-24T10:08:18.300Z</time>
      </trkpt>
      <trkpt lat="48.71504" lon="2.40315">
        <ele>57</ele>
        <time>2023-01-24T10:08:22.377Z</time>
      </trkpt>
      <trkpt lat="48.71505" lon="2.40308">
        <ele>57</ele>
        <time>2023-01-24T10:08:26.495Z</time>
      </trkpt>
      <trkpt lat="48.71506" lon="2.40303">
        <ele>57</ele>
        <time>2023-01-24T10:08:30.394Z</time>
      </trkpt>
      <trkpt lat="48.71509" lon="2.40297">
        <ele>57</ele>
        <time>2023-01-24T10:08:34.933Z</time>
      </trkpt>
      <trkpt lat="48.71511" lon="2.40293">
        <ele>57</ele>
        <time>2023-01-24T10:08:38.851Z</time>
      </trkpt>
      <trkpt lat="48.71515" lon="2.40292">
        <ele>62</ele>
        <time>2023-01-24T10:08:43.610Z</time>
      </trkpt>
      <trkpt lat="48.71517" lon="2.40294">
        <ele>62</ele>
        <time>2023-01-24T10:08:47.807Z</time>
      </trkpt>
      <trkpt lat="48.71519" lon="2.40296">
        <ele>62</ele>
        <time>2023-01-24T10:08:52.346Z</time>
      </trkpt>
      <trkpt lat="48.71522" lon="2.40301">
        <ele>62</ele>
        <time>2023-01-24T10:08:56.727Z</time>
      </trkpt>
      <trkpt lat="48.71525" lon="2.40306">
        <ele>62</ele>
        <time>2023-01-24T10:09:01.337Z</time>
      </trkpt>
      <trkpt lat="48.71529" lon="2.40311">
        <ele>62</ele>
        <time>2023-01-24T10:09:05.596Z</time>
      </trkpt>
      <trkpt lat="48.7153" lon="2.40314">
        <ele>62</ele>
        <time>2023-01-24T10:09:09.816Z</time>
      </trkpt>
      <trkpt lat="48.71535" lon="2.40318">
        <ele>62</ele>
        <time>2023-01-24T10:09:14.016Z</time>
      </trkpt>
      <trkpt lat="48.71539" lon="2.40319">
        <ele>62</ele>
        <time>2023-01-24T10:09:18.222Z</time>
      </trkpt>
      <trkpt lat="48.71544" lon="2.40322">
        <ele>67</ele>
        <time>2023-01-24T10:09:22.620Z</time>
      </trkpt>
      <trkpt lat="48.7155" lon="2.40326">
        <ele>67</ele>
        <time>2023-01-24T10:09:27.012Z</time>
      </trkpt>
      <trkpt lat="48.71555" lon="2.40333">
        <ele>67</ele>
        <time>2023-01-24T10:09:31.400Z</time>
      </trkpt>
      <trkpt lat="48.71559" lon="2.40341">
        <ele>67</ele>
        <time>2023-01-24T10:09:35.821Z</time>
      </trkpt>
      <trkpt lat="48.71562" lon="2.40347">
        <ele>67</ele>
        <time>2023-01-24T10:09:39.758Z</time>
      </trkpt>
      <trkpt lat="48.71565" lon="2.40353">
        <ele>66</ele>
        <time>2023-01-24T10:09:44.068Z</time>
      </trkpt>
      <trkpt lat="48.71567" lon="2.4036">
        <ele>66</ele>
        <time>2023-01-24T10:09:48.012Z</time>
      </trkpt>
      <trkpt lat="48.71569" lon="2.40367">
        <ele>66</ele>
        <time>2023-01-24T10:09:52.012Z</time>
      </trkpt>
      <trkpt lat="48.71571" lon="2.40375">
        <ele>73</ele>
        <time>2023-01-24T10:09:56.596Z</time>
      </trkpt>
      <trkpt lat="48.71576" lon="2.40383">
        <ele>71</ele>
        <time>2023-01-24T10:10:00.955Z</time>
      </trkpt>
      <trkpt lat="48.7158" lon="2.40388">
        <ele>71</ele>
        <time>2023-01-24T10:10:05.255Z</time>
      </trkpt>
      <trkpt lat="48.71583" lon="2.40394">
        <ele>71</ele>
        <time>2023-01-24T10:10:09.374Z</time>
      </trkpt>
      <trkpt lat="48.71584" lon="2.40402">
        <ele>71</ele>
        <time>2023-01-24T10:10:13.839Z</time>
      </trkpt>
      <trkpt lat="48.71584" lon="2.40411">
        <ele>68</ele>
        <time>2023-01-24T10:10:17.572Z</time>
      </trkpt>
      <trkpt lat="48.71584" lon="2.40419">
        <ele>68</ele>
        <time>2023-01-24T10:10:22.229Z</time>
      </trkpt>
      <trkpt lat="48.71585" lon="2.40428">
        <ele>68</ele>
        <time>2023-01-24T10:10:26.559Z</time>
      </trkpt>
      <trkpt lat="48.71587" lon="2.40436">
        <ele>65</ele>
        <time>2023-01-24T10:10:30.739Z</time>
      </trkpt>
      <trkpt lat="48.71589" lon="2.40442">
        <ele>65</ele>
        <time>2023-01-24T10:10:34.813Z</time>
      </trkpt>
      <trkpt lat="48.71591" lon="2.40447">
        <ele>65</ele>
        <time>2023-01-24T10:10:38.650Z</time>
      </trkpt>
      <trkpt lat="48.7159" lon="2.40454">
        <ele>65</ele>
        <time>2023-01-24T10:10:42.606Z</time>
      </trkpt>
      <trkpt lat="48.71591" lon="2.40462">
        <ele>64</ele>
        <time>2023-01-24T10:10:47.235Z</time>
      </trkpt>
      <trkpt lat="48.71594" lon="2.40472">
        <ele>64</ele>
        <time>2023-01-24T10:10:51.659Z</time>
      </trkpt>
      <trkpt lat="48.71597" lon="2.4048">
        <ele>68</ele>
        <time>2023-01-24T10:10:55.816Z</time>
      </trkpt>
      <trkpt lat="48.71602" lon="2.40487">
        <ele>69</ele>
        <time>2023-01-24T10:10:59.773Z</time>
      </trkpt>
      <trkpt lat="48.71606" lon="2.40495">
        <ele>69</ele>
        <time>2023-01-24T10:11:03.849Z</time>
      </trkpt>
      <trkpt lat="48.71608" lon="2.40502">
        <ele>69</ele>
        <time>2023-01-24T10:11:08.427Z</time>
      </trkpt>
      <trkpt lat="48.71606" lon="2.4051">
        <ele>69</ele>
        <time>2023-01-24T10:11:12.503Z</time>
      </trkpt>
      <trkpt lat="48.71604" lon="2.40517">
        <ele>67</ele>
        <time>2023-01-24T10:11:16.784Z</time>
      </trkpt>
      <trkpt lat="48.71604" lon="2.40526">
        <ele>67</ele>
        <time>2023-01-24T10:11:20.819Z</time>
      </trkpt>
      <trkpt lat="48.71603" lon="2.40535">
        <ele>67</ele>
        <time>2023-01-24T10:11:25.012Z</time>
      </trkpt>
      <trkpt lat="48.71602" lon="2.40545">
        <ele>63</ele>
        <time>2023-01-24T10:11:30.098Z</time>
      </trkpt>
      <trkpt lat="48.71601" lon="2.40555">
        <ele>63</ele>
        <time>2023-01-24T10:11:34.255Z</time>
      </trkpt>
      <trkpt lat="48.71599" lon="2.40565">
        <ele>63</ele>
        <time>2023-01-24T10:11:38.330Z</time>
      </trkpt>
      <trkpt lat="48.71602" lon="2.40573">
        <ele>60</ele>
        <time>2023-01-24T10:11:42.702Z</time>
      </trkpt>
      <trkpt lat="48.71605" lon="2.40581">
        <ele>60</ele>
        <time>2023-01-24T10:11:46.903Z</time>
      </trkpt>
      <trkpt lat="48.71609" lon="2.40589">
        <ele>60</ele>
        <time>2023-01-24T10:11:51.323Z</time>
      </trkpt>
      <trkpt lat="48.71614" lon="2.40597">
        <ele>60</ele>
        <time>2023-01-24T10:11:55.923Z</time>
      </trkpt>
      <trkpt lat="48.71618" lon="2.40603">
        <ele>56</ele>
        <time>2023-01-24T10:11:59.940Z</time>
      </trkpt>
      <trkpt lat="48.71623" lon="2.40608">
        <ele>56</ele>
        <time>2023-01-24T10:12:03.813Z</time>
      </trkpt>
      <trkpt lat="48.71628" lon="2.40612">
        <ele>60</ele>
        <time>2023-01-24T10:12:07.888Z</time>
      </trkpt>
      <trkpt lat="48.71636" lon="2.40619">
        <ele>60</ele>
        <time>2023-01-24T10:12:12.323Z</time>
      </trkpt>
      <trkpt lat="48.7164" lon="2.40626">
        <ele>57</ele>
        <time>2023-01-24T10:12:16.220Z</time>
      </trkpt>
      <trkpt lat="48.71645" lon="2.40633">
        <ele>57</ele>
        <time>2023-01-24T10:12:20.416Z</time>
      </trkpt>
      <trkpt lat="48.71649" lon="2.40641">
        <ele>57</ele>
        <time>2023-01-24T10:12:24.613Z</time>
      </trkpt>
      <trkpt lat="48.71651" lon="2.40646">
        <ele>57</ele>
        <time>2023-01-24T10:12:29.408Z</time>
      </trkpt>
      <trkpt lat="48.71651" lon="2.40652">
        <ele>57</ele>
        <time>2023-01-24T10:12:34.072Z</time>
      </trkpt>
      <trkpt lat="48.71647" lon="2.40657">
        <ele>55</ele>
        <time>2023-01-24T10:12:38.583Z</time>
      </trkpt>
      <trkpt lat="48.71644" lon="2.40661">
        <ele>55</ele>
        <time>2023-01-24T10:12:42.522Z</time>
      </trkpt>
      <trkpt lat="48.71641" lon="2.40666">
        <ele>55</ele>
        <time>2023-01-24T10:12:47.062Z</time>
      </trkpt>
      <trkpt lat="48.71639" lon="2.40668">
        <ele>55</ele>
        <time>2023-01-24T10:12:51.074Z</time>
      </trkpt>
      <trkpt lat="48.71637" lon="2.40672">
        <ele>55</ele>
        <time>2023-01-24T10:12:55.177Z</time>
      </trkpt>
      <trkpt lat="48.71637" lon="2.40677">
        <ele>55</ele>
        <time>2023-01-24T10:12:59.295Z</time>
      </trkpt>
      <trkpt lat="48.71637" lon="2.4068">
        <ele>55</ele>
        <time>2023-01-24T10:13:03.792Z</time>
      </trkpt>
      <trkpt lat="48.71635" lon="2.40685">
        <ele>53</ele>
        <time>2023-01-24T10:13:08.311Z</time>
      </trkpt>
      <trkpt lat="48.71631" lon="2.40689">
        <ele>53</ele>
        <time>2023-01-24T10:13:12.629Z</time>
      </trkpt>
      <trkpt lat="48.71627" lon="2.40692">
        <ele>53</ele>
        <time>2023-01-24T10:13:16.825Z</time>
      </trkpt>
      <trkpt lat="48.7162" lon="2.40695">
        <ele>48</ele>
        <time>2023-01-24T10:13:21.213Z</time>
      </trkpt>
      <trkpt lat="48.71617" lon="2.40699">
        <ele>48</ele>
        <time>2023-01-24T10:13:25.220Z</time>
      </trkpt>
      <trkpt lat="48.71614" lon="2.40703">
        <ele>48</ele>
        <time>2023-01-24T10:13:29.178Z</time>
      </trkpt>
      <trkpt lat="48.71611" lon="2.4071">
        <ele>46</ele>
        <time>2023-01-24T10:13:33.375Z</time>
      </trkpt>
      <trkpt lat="48.71607" lon="2.40714">
        <ele>46</ele>
        <time>2023-01-24T10:13:37.194Z</time>
      </trkpt>
      <trkpt lat="48.71604" lon="2.40719">
        <ele>46</ele>
        <time>2023-01-24T10:13:41.814Z</time>
      </trkpt>
      <trkpt lat="48.71601" lon="2.40725">
        <ele>46</ele>
        <time>2023-01-24T10:13:46.283Z</time>
      </trkpt>
      <trkpt lat="48.71597" lon="2.40731">
        <ele>42</ele>
        <time>2023-01-24T10:13:50.570Z</time>
      </trkpt>
      <trkpt lat="48.71592" lon="2.40736">
        <ele>42</ele>
        <time>2023-01-24T10:13:55.024Z</time>
      </trkpt>
      <trkpt lat="48.71586" lon="2.40735">
        <ele>42</ele>
        <time>2023-01-24T10:14:00.085Z</time>
      </trkpt>
      <trkpt lat="48.71585" lon="2.40738">
        <ele>40</ele>
        <time>2023-01-24T10:14:04.222Z</time>
      </trkpt>
      <trkpt lat="48.71588" lon="2.40742">
        <ele>40</ele>
        <time>2023-01-24T10:14:08.921Z</time>
      </trkpt>
      <trkpt lat="48.71591" lon="2.40749">
        <ele>40</ele>
        <time>2023-01-24T10:14:12.675Z</time>
      </trkpt>
      <trkpt lat="48.71595" lon="2.40758">
        <ele>40</ele>
        <time>2023-01-24T10:14:16.632Z</time>
      </trkpt>
      <trkpt lat="48.71598" lon="2.40765">
        <ele>40</ele>
        <time>2023-01-24T10:14:21.631Z</time>
      </trkpt>
      <trkpt lat="48.71602" lon="2.40769">
        <ele>40</ele>
        <time>2023-01-24T10:14:25.827Z</time>
      </trkpt>
      <trkpt lat="48.71606" lon="2.4077">
        <ele>40</ele>
        <time>2023-01-24T10:14:29.866Z</time>
      </trkpt>
      <trkpt lat="48.71609" lon="2.40774">
        <ele>40</ele>
        <time>2023-01-24T10:14:33.942Z</time>
      </trkpt>
      <trkpt lat="48.71608" lon="2.40787">
        <ele>40</ele>
        <time>2023-01-24T10:14:37.941Z</time>
      </trkpt>
      <trkpt lat="48.71607" lon="2.40798">
        <ele>39</ele>
        <time>2023-01-24T10:14:42.498Z</time>
      </trkpt>
      <trkpt lat="48.71608" lon="2.40806">
        <ele>39</ele>
        <time>2023-01-24T10:14:46.933Z</time>
      </trkpt>
      <trkpt lat="48.71612" lon="2.40812">
        <ele>39</ele>
        <time>2023-01-24T10:14:50.753Z</time>
      </trkpt>
      <trkpt lat="48.71615" lon="2.40818">
        <ele>39</ele>
        <time>2023-01-24T10:14:55.214Z</time>
      </trkpt>
      <trkpt lat="48.71626" lon="2.40823">
        <ele>40</ele>
        <time>2023-01-24T10:24:15.054Z</time>
      </trkpt>
      <trkpt lat="48.71626" lon="2.40823">
        <ele>40</ele>
        <time>2023-01-24T10:24:20.037Z</time>
      </trkpt>
      <trkpt lat="48.71629" lon="2.40827">
        <ele>40</ele>
        <time>2023-01-24T10:24:24.067Z</time>
      </trkpt>
      <trkpt lat="48.71631" lon="2.40833">
        <ele>40</ele>
        <time>2023-01-24T10:24:29.078Z</time>
      </trkpt>
      <trkpt lat="48.71632" lon="2.40836">
        <ele>40</ele>
        <time>2023-01-24T10:24:34.087Z</time>
      </trkpt>
      <trkpt lat="48.71631" lon="2.40833">
        <ele>40</ele>
        <time>2023-01-24T10:25:17.676Z</time>
      </trkpt>
      <trkpt lat="48.7163" lon="2.40829">
        <ele>40</ele>
        <time>2023-01-24T10:25:21.685Z</time>
      </trkpt>
      <trkpt lat="48.71629" lon="2.40827">
        <ele>40</ele>
        <time>2023-01-24T10:25:25.695Z</time>
      </trkpt>
      <trkpt lat="48.71627" lon="2.40825">
        <ele>40</ele>
        <time>2023-01-24T10:25:30.205Z</time>
      </trkpt>
      <trkpt lat="48.71626" lon="2.40824">
        <ele>40</ele>
        <time>2023-01-24T10:25:34.714Z</time>
      </trkpt>
      <trkpt lat="48.71628" lon="2.40827">
        <ele>40</ele>
        <time>2023-01-24T10:25:39.222Z</time>
      </trkpt>
      <trkpt lat="48.71632" lon="2.4084">
        <ele>40</ele>
        <time>2023-01-24T10:25:43.728Z</time>
      </trkpt>
      <trkpt lat="48.71632" lon="2.40843">
        <ele>40</ele>
        <time>2023-01-24T10:25:48.734Z</time>
      </trkpt>
      <trkpt lat="48.71633" lon="2.40844">
        <ele>40</ele>
        <time>2023-01-24T10:25:52.738Z</time>
      </trkpt>
      <trkpt lat="48.71633" lon="2.40843">
        <ele>40</ele>
        <time>2023-01-24T10:25:56.742Z</time>
      </trkpt>
      <trkpt lat="48.71634" lon="2.40845">
        <ele>40</ele>
        <time>2023-01-24T10:26:01.746Z</time>
      </trkpt>
      <trkpt lat="48.71635" lon="2.40848">
        <ele>40</ele>
        <time>2023-01-24T10:26:06.250Z</time>
      </trkpt>
      <trkpt lat="48.71636" lon="2.40852">
        <ele>40</ele>
        <time>2023-01-24T10:26:10.753Z</time>
      </trkpt>
      <trkpt lat="48.71639" lon="2.4086">
        <ele>40</ele>
        <time>2023-01-24T10:26:15.354Z</time>
      </trkpt>
      <trkpt lat="48.71643" lon="2.40865">
        <ele>40</ele>
        <time>2023-01-24T10:26:19.556Z</time>
      </trkpt>
      <trkpt lat="48.71645" lon="2.4087">
        <ele>40</ele>
        <time>2023-01-24T10:26:23.856Z</time>
      </trkpt>
      <trkpt lat="48.71647" lon="2.40874">
        <ele>40</ele>
        <time>2023-01-24T10:26:27.636Z</time>
      </trkpt>
      <trkpt lat="48.71651" lon="2.40879">
        <ele>40</ele>
        <time>2023-01-24T10:26:32.721Z</time>
      </trkpt>
      <trkpt lat="48.71652" lon="2.40884">
        <ele>40</ele>
        <time>2023-01-24T10:26:36.780Z</time>
      </trkpt>
      <trkpt lat="48.71654" lon="2.40889">
        <ele>43</ele>
        <time>2023-01-24T10:26:41.282Z</time>
      </trkpt>
      <trkpt lat="48.71657" lon="2.40895">
        <ele>43</ele>
        <time>2023-01-24T10:26:45.784Z</time>
      </trkpt>
      <trkpt lat="48.71659" lon="2.40898">
        <ele>43</ele>
        <time>2023-01-24T10:26:49.826Z</time>
      </trkpt>
      <trkpt lat="48.71661" lon="2.40903">
        <ele>43</ele>
        <time>2023-01-24T10:26:53.848Z</time>
      </trkpt>
      <trkpt lat="48.71664" lon="2.40906">
        <ele>41</ele>
        <time>2023-01-24T10:26:58.389Z</time>
      </trkpt>
      <trkpt lat="48.71667" lon="2.40906">
        <ele>41</ele>
        <time>2023-01-24T10:27:03.010Z</time>
      </trkpt>
      <trkpt lat="48.71672" lon="2.40903">
        <ele>41</ele>
        <time>2023-01-24T10:27:07.091Z</time>
      </trkpt>
      <trkpt lat="48.71677" lon="2.40898">
        <ele>43</ele>
        <time>2023-01-24T10:27:11.825Z</time>
      </trkpt>
      <trkpt lat="48.71682" lon="2.40892">
        <ele>49</ele>
        <time>2023-01-24T10:27:16.075Z</time>
      </trkpt>
      <trkpt lat="48.71686" lon="2.40889">
        <ele>49</ele>
        <time>2023-01-24T10:27:20.616Z</time>
      </trkpt>
      <trkpt lat="48.71686" lon="2.40888">
        <ele>49</ele>
        <time>2023-01-24T10:27:24.897Z</time>
      </trkpt>
      <trkpt lat="48.71691" lon="2.40883">
        <ele>49</ele>
        <time>2023-01-24T10:27:42.119Z</time>
      </trkpt>
      <trkpt lat="48.71691" lon="2.40882">
        <ele>49</ele>
        <time>2023-01-24T10:27:46.359Z</time>
      </trkpt>
      <trkpt lat="48.71693" lon="2.40881">
        <ele>49</ele>
        <time>2023-01-24T10:27:50.720Z</time>
      </trkpt>
      <trkpt lat="48.71696" lon="2.40877">
        <ele>49</ele>
        <time>2023-01-24T10:27:55.722Z</time>
      </trkpt>
      <trkpt lat="48.71703" lon="2.40862">
        <ele>50</ele>
        <time>2023-01-24T10:27:59.826Z</time>
      </trkpt>
      <trkpt lat="48.7171" lon="2.4085">
        <ele>55</ele>
        <time>2023-01-24T10:28:18.076Z</time>
      </trkpt>
      <trkpt lat="48.7171" lon="2.40849">
        <ele>55</ele>
        <time>2023-01-24T10:28:22.797Z</time>
      </trkpt>
      <trkpt lat="48.71713" lon="2.40851">
        <ele>55</ele>
        <time>2023-01-24T10:28:27.071Z</time>
      </trkpt>
      <trkpt lat="48.71715" lon="2.40853">
        <ele>55</ele>
        <time>2023-01-24T10:28:32.074Z</time>
      </trkpt>
      <trkpt lat="48.71716" lon="2.40851">
        <ele>55</ele>
        <time>2023-01-24T10:28:37.064Z</time>
      </trkpt>
      <trkpt lat="48.71719" lon="2.40855">
        <ele>55</ele>
        <time>2023-01-24T10:28:45.247Z</time>
      </trkpt>
      <trkpt lat="48.71722" lon="2.40855">
        <ele>55</ele>
        <time>2023-01-24T10:28:49.988Z</time>
      </trkpt>
      <trkpt lat="48.71722" lon="2.40856">
        <ele>55</ele>
        <time>2023-01-24T10:28:54.570Z</time>
      </trkpt>
      <trkpt lat="48.71723" lon="2.4086">
        <ele>55</ele>
        <time>2023-01-24T10:28:59.481Z</time>
      </trkpt>
      <trkpt lat="48.71726" lon="2.40863">
        <ele>55</ele>
        <time>2023-01-24T10:29:04.024Z</time>
      </trkpt>
      <trkpt lat="48.71731" lon="2.40866">
        <ele>55</ele>
        <time>2023-01-24T10:29:08.028Z</time>
      </trkpt>
      <trkpt lat="48.71735" lon="2.4087">
        <ele>55</ele>
        <time>2023-01-24T10:29:12.532Z</time>
      </trkpt>
      <trkpt lat="48.71738" lon="2.40875">
        <ele>57</ele>
        <time>2023-01-24T10:29:16.636Z</time>
      </trkpt>
      <trkpt lat="48.71739" lon="2.40881">
        <ele>57</ele>
        <time>2023-01-24T10:29:20.740Z</time>
      </trkpt>
      <trkpt lat="48.71742" lon="2.40887">
        <ele>57</ele>
        <time>2023-01-24T10:29:24.742Z</time>
      </trkpt>
      <trkpt lat="48.71746" lon="2.40892">
        <ele>57</ele>
        <time>2023-01-24T10:29:28.746Z</time>
      </trkpt>
      <trkpt lat="48.7175" lon="2.40897">
        <ele>57</ele>
        <time>2023-01-24T10:29:33.327Z</time>
      </trkpt>
      <trkpt lat="48.71752" lon="2.40902">
        <ele>57</ele>
        <time>2023-01-24T10:29:37.329Z</time>
      </trkpt>
      <trkpt lat="48.71755" lon="2.4091">
        <ele>57</ele>
        <time>2023-01-24T10:29:41.833Z</time>
      </trkpt>
      <trkpt lat="48.71758" lon="2.40917">
        <ele>57</ele>
        <time>2023-01-24T10:29:46.376Z</time>
      </trkpt>
      <trkpt lat="48.71762" lon="2.40924">
        <ele>57</ele>
        <time>2023-01-24T10:29:50.596Z</time>
      </trkpt>
      <trkpt lat="48.71765" lon="2.4093">
        <ele>60</ele>
        <time>2023-01-24T10:29:55.321Z</time>
      </trkpt>
      <trkpt lat="48.7177" lon="2.40935">
        <ele>58</ele>
        <time>2023-01-24T10:29:59.382Z</time>
      </trkpt>
      <trkpt lat="48.71775" lon="2.40939">
        <ele>58</ele>
        <time>2023-01-24T10:30:04.027Z</time>
      </trkpt>
      <trkpt lat="48.71777" lon="2.40942">
        <ele>58</ele>
        <time>2023-01-24T10:30:07.625Z</time>
      </trkpt>
      <trkpt lat="48.71779" lon="2.40946">
        <ele>58</ele>
        <time>2023-01-24T10:30:12.328Z</time>
      </trkpt>
      <trkpt lat="48.71783" lon="2.40955">
        <ele>58</ele>
        <time>2023-01-24T10:30:16.369Z</time>
      </trkpt>
      <trkpt lat="48.71787" lon="2.40963">
        <ele>56</ele>
        <time>2023-01-24T10:30:20.372Z</time>
      </trkpt>
      <trkpt lat="48.7179" lon="2.40971">
        <ele>56</ele>
        <time>2023-01-24T10:30:25.033Z</time>
      </trkpt>
      <trkpt lat="48.71791" lon="2.40976">
        <ele>56</ele>
        <time>2023-01-24T10:30:29.194Z</time>
      </trkpt>
      <trkpt lat="48.71794" lon="2.40981">
        <ele>59</ele>
        <time>2023-01-24T10:30:33.257Z</time>
      </trkpt>
      <trkpt lat="48.71798" lon="2.4099">
        <ele>56</ele>
        <time>2023-01-24T10:30:37.838Z</time>
      </trkpt>
      <trkpt lat="48.71802" lon="2.40998">
        <ele>56</ele>
        <time>2023-01-24T10:30:42.638Z</time>
      </trkpt>
      <trkpt lat="48.71807" lon="2.41002">
        <ele>56</ele>
        <time>2023-01-24T10:30:46.917Z</time>
      </trkpt>
      <trkpt lat="48.71813" lon="2.41005">
        <ele>56</ele>
        <time>2023-01-24T10:30:51.387Z</time>
      </trkpt>
      <trkpt lat="48.71818" lon="2.41009">
        <ele>56</ele>
        <time>2023-01-24T10:30:55.976Z</time>
      </trkpt>
      <trkpt lat="48.71823" lon="2.41013">
        <ele>63</ele>
        <time>2023-01-24T10:31:00.196Z</time>
      </trkpt>
      <trkpt lat="48.71829" lon="2.41015">
        <ele>58</ele>
        <time>2023-01-24T10:31:04.701Z</time>
      </trkpt>
      <trkpt lat="48.71834" lon="2.41015">
        <ele>58</ele>
        <time>2023-01-24T10:31:09.225Z</time>
      </trkpt>
      <trkpt lat="48.7184" lon="2.41018">
        <ele>58</ele>
        <time>2023-01-24T10:31:13.788Z</time>
      </trkpt>
      <trkpt lat="48.71845" lon="2.41022">
        <ele>58</ele>
        <time>2023-01-24T10:31:18.409Z</time>
      </trkpt>
      <trkpt lat="48.71849" lon="2.41025">
        <ele>65</ele>
        <time>2023-01-24T10:31:22.544Z</time>
      </trkpt>
      <trkpt lat="48.71854" lon="2.41027">
        <ele>65</ele>
        <time>2023-01-24T10:31:26.771Z</time>
      </trkpt>
      <trkpt lat="48.71859" lon="2.41029">
        <ele>65</ele>
        <time>2023-01-24T10:31:30.912Z</time>
      </trkpt>
      <trkpt lat="48.71865" lon="2.41031">
        <ele>65</ele>
        <time>2023-01-24T10:31:35.372Z</time>
      </trkpt>
      <trkpt lat="48.71871" lon="2.41035">
        <ele>65</ele>
        <time>2023-01-24T10:31:39.847Z</time>
      </trkpt>
      <trkpt lat="48.71875" lon="2.41039">
        <ele>67</ele>
        <time>2023-01-24T10:31:44.255Z</time>
      </trkpt>
      <trkpt lat="48.71879" lon="2.4104">
        <ele>67</ele>
        <time>2023-01-24T10:31:48.372Z</time>
      </trkpt>
      <trkpt lat="48.71882" lon="2.41041">
        <ele>67</ele>
        <time>2023-01-24T10:31:52.498Z</time>
      </trkpt>
      <trkpt lat="48.71885" lon="2.41042">
        <ele>63</ele>
        <time>2023-01-24T10:31:57.001Z</time>
      </trkpt>
      <trkpt lat="48.71888" lon="2.41043">
        <ele>63</ele>
        <time>2023-01-24T10:32:01.544Z</time>
      </trkpt>
      <trkpt lat="48.71894" lon="2.41044">
        <ele>63</ele>
        <time>2023-01-24T10:32:06.046Z</time>
      </trkpt>
      <trkpt lat="48.71902" lon="2.41046">
        <ele>63</ele>
        <time>2023-01-24T10:32:10.588Z</time>
      </trkpt>
      <trkpt lat="48.71908" lon="2.41049">
        <ele>65</ele>
        <time>2023-01-24T10:32:15.092Z</time>
      </trkpt>
      <trkpt lat="48.71913" lon="2.4105">
        <ele>65</ele>
        <time>2023-01-24T10:32:19.595Z</time>
      </trkpt>
      <trkpt lat="48.71919" lon="2.4105">
        <ele>65</ele>
        <time>2023-01-24T10:32:23.598Z</time>
      </trkpt>
      <trkpt lat="48.7193" lon="2.41053">
        <ele>65</ele>
        <time>2023-01-24T10:32:28.206Z</time>
      </trkpt>
      <trkpt lat="48.71936" lon="2.41058">
        <ele>66</ele>
        <time>2023-01-24T10:32:32.320Z</time>
      </trkpt>
      <trkpt lat="48.71941" lon="2.41064">
        <ele>66</ele>
        <time>2023-01-24T10:32:36.327Z</time>
      </trkpt>
      <trkpt lat="48.71947" lon="2.41072">
        <ele>62</ele>
        <time>2023-01-24T10:32:40.934Z</time>
      </trkpt>
      <trkpt lat="48.71953" lon="2.41079">
        <ele>62</ele>
        <time>2023-01-24T10:32:45.447Z</time>
      </trkpt>
      <trkpt lat="48.71959" lon="2.41085">
        <ele>64</ele>
        <time>2023-01-24T10:32:49.959Z</time>
      </trkpt>
      <trkpt lat="48.71964" lon="2.41091">
        <ele>64</ele>
        <time>2023-01-24T10:32:53.978Z</time>
      </trkpt>
      <trkpt lat="48.71969" lon="2.41097">
        <ele>64</ele>
        <time>2023-01-24T10:32:58.986Z</time>
      </trkpt>
      <trkpt lat="48.71972" lon="2.41101">
        <ele>62</ele>
        <time>2023-01-24T10:33:03.991Z</time>
      </trkpt>
      <trkpt lat="48.71977" lon="2.41103">
        <ele>62</ele>
        <time>2023-01-24T10:33:07.693Z</time>
      </trkpt>
      <trkpt lat="48.71981" lon="2.41109">
        <ele>62</ele>
        <time>2023-01-24T10:33:12.298Z</time>
      </trkpt>
      <trkpt lat="48.71986" lon="2.4111">
        <ele>64</ele>
        <time>2023-01-24T10:33:16.806Z</time>
      </trkpt>
      <trkpt lat="48.7199" lon="2.4111">
        <ele>64</ele>
        <time>2023-01-24T10:33:21.314Z</time>
      </trkpt>
      <trkpt lat="48.71996" lon="2.41114">
        <ele>64</ele>
        <time>2023-01-24T10:33:25.821Z</time>
      </trkpt>
      <trkpt lat="48.72001" lon="2.41123">
        <ele>64</ele>
        <time>2023-01-24T10:33:29.830Z</time>
      </trkpt>
      <trkpt lat="48.72002" lon="2.41137">
        <ele>63</ele>
        <time>2023-01-24T10:33:34.336Z</time>
      </trkpt>
      <trkpt lat="48.72002" lon="2.41146">
        <ele>63</ele>
        <time>2023-01-24T10:33:38.342Z</time>
      </trkpt>
      <trkpt lat="48.72002" lon="2.41156">
        <ele>62</ele>
        <time>2023-01-24T10:33:42.959Z</time>
      </trkpt>
      <trkpt lat="48.72005" lon="2.4117">
        <ele>62</ele>
        <time>2023-01-24T10:33:47.465Z</time>
      </trkpt>
      <trkpt lat="48.72007" lon="2.41178">
        <ele>62</ele>
        <time>2023-01-24T10:33:52.022Z</time>
      </trkpt>
      <trkpt lat="48.7201" lon="2.41186">
        <ele>61</ele>
        <time>2023-01-24T10:33:56.173Z</time>
      </trkpt>
      <trkpt lat="48.72012" lon="2.41193">
        <ele>61</ele>
        <time>2023-01-24T10:34:00.177Z</time>
      </trkpt>
      <trkpt lat="48.72015" lon="2.412">
        <ele>62</ele>
        <time>2023-01-24T10:34:04.183Z</time>
      </trkpt>
      <trkpt lat="48.72018" lon="2.4121">
        <ele>59</ele>
        <time>2023-01-24T10:34:08.788Z</time>
      </trkpt>
      <trkpt lat="48.72021" lon="2.41217">
        <ele>59</ele>
        <time>2023-01-24T10:34:12.793Z</time>
      </trkpt>
      <trkpt lat="48.72025" lon="2.41226">
        <ele>59</ele>
        <time>2023-01-24T10:34:16.998Z</time>
      </trkpt>
      <trkpt lat="48.72029" lon="2.41232">
        <ele>59</ele>
        <time>2023-01-24T10:34:21.504Z</time>
      </trkpt>
      <trkpt lat="48.72033" lon="2.41239">
        <ele>58</ele>
        <time>2023-01-24T10:34:26.009Z</time>
      </trkpt>
      <trkpt lat="48.72036" lon="2.41246">
        <ele>58</ele>
        <time>2023-01-24T10:34:30.629Z</time>
      </trkpt>
      <trkpt lat="48.72041" lon="2.41252">
        <ele>58</ele>
        <time>2023-01-24T10:34:34.719Z</time>
      </trkpt>
      <trkpt lat="48.72044" lon="2.41259">
        <ele>60</ele>
        <time>2023-01-24T10:34:39.225Z</time>
      </trkpt>
      <trkpt lat="48.72049" lon="2.41267">
        <ele>57</ele>
        <time>2023-01-24T10:34:43.227Z</time>
      </trkpt>
      <trkpt lat="48.72053" lon="2.41275">
        <ele>57</ele>
        <time>2023-01-24T10:34:47.730Z</time>
      </trkpt>
      <trkpt lat="48.72058" lon="2.4128">
        <ele>57</ele>
        <time>2023-01-24T10:34:51.732Z</time>
      </trkpt>
      <trkpt lat="48.72062" lon="2.41284">
        <ele>57</ele>
        <time>2023-01-24T10:34:55.814Z</time>
      </trkpt>
      <trkpt lat="48.72066" lon="2.41293">
        <ele>55</ele>
        <time>2023-01-24T10:35:00.816Z</time>
      </trkpt>
      <trkpt lat="48.7207" lon="2.41298">
        <ele>57</ele>
        <time>2023-01-24T10:35:04.919Z</time>
      </trkpt>
      <trkpt lat="48.72076" lon="2.41307">
        <ele>57</ele>
        <time>2023-01-24T10:35:09.943Z</time>
      </trkpt>
      <trkpt lat="48.7208" lon="2.41315">
        <ele>57</ele>
        <time>2023-01-24T10:35:14.144Z</time>
      </trkpt>
      <trkpt lat="48.72081" lon="2.41319">
        <ele>57</ele>
        <time>2023-01-24T10:35:18.145Z</time>
      </trkpt>
      <trkpt lat="48.72085" lon="2.41325">
        <ele>54</ele>
        <time>2023-01-24T10:35:22.288Z</time>
      </trkpt>
      <trkpt lat="48.7209" lon="2.41331">
        <ele>54</ele>
        <time>2023-01-24T10:35:26.311Z</time>
      </trkpt>
      <trkpt lat="48.72096" lon="2.41339">
        <ele>54</ele>
        <time>2023-01-24T10:35:30.952Z</time>
      </trkpt>
      <trkpt lat="48.72101" lon="2.41346">
        <ele>56</ele>
        <time>2023-01-24T10:35:34.955Z</time>
      </trkpt>
      <trkpt lat="48.72106" lon="2.41352">
        <ele>54</ele>
        <time>2023-01-24T10:35:38.636Z</time>
      </trkpt>
      <trkpt lat="48.72111" lon="2.41361">
        <ele>54</ele>
        <time>2023-01-24T10:35:43.238Z</time>
      </trkpt>
      <trkpt lat="48.72115" lon="2.41369">
        <ele>54</ele>
        <time>2023-01-24T10:35:47.739Z</time>
      </trkpt>
      <trkpt lat="48.7212" lon="2.41376">
        <ele>52</ele>
        <time>2023-01-24T10:35:52.446Z</time>
      </trkpt>
      <trkpt lat="48.72123" lon="2.41383">
        <ele>52</ele>
        <time>2023-01-24T10:35:56.479Z</time>
      </trkpt>
      <trkpt lat="48.72126" lon="2.41392">
        <ele>55</ele>
        <time>2023-01-24T10:36:00.620Z</time>
      </trkpt>
      <trkpt lat="48.72128" lon="2.41401">
        <ele>55</ele>
        <time>2023-01-24T10:36:04.702Z</time>
      </trkpt>
      <trkpt lat="48.72129" lon="2.4141">
        <ele>54</ele>
        <time>2023-01-24T10:36:09.162Z</time>
      </trkpt>
      <trkpt lat="48.7213" lon="2.41419">
        <ele>54</ele>
        <time>2023-01-24T10:36:13.561Z</time>
      </trkpt>
      <trkpt lat="48.72129" lon="2.41425">
        <ele>54</ele>
        <time>2023-01-24T10:36:18.143Z</time>
      </trkpt>
      <trkpt lat="48.72127" lon="2.41431">
        <ele>53</ele>
        <time>2023-01-24T10:36:22.184Z</time>
      </trkpt>
      <trkpt lat="48.72124" lon="2.4144">
        <ele>49</ele>
        <time>2023-01-24T10:36:26.564Z</time>
      </trkpt>
      <trkpt lat="48.72121" lon="2.41448">
        <ele>49</ele>
        <time>2023-01-24T10:36:30.689Z</time>
      </trkpt>
      <trkpt lat="48.72117" lon="2.41456">
        <ele>49</ele>
        <time>2023-01-24T10:36:34.946Z</time>
      </trkpt>
      <trkpt lat="48.72113" lon="2.41466">
        <ele>47</ele>
        <time>2023-01-24T10:36:39.366Z</time>
      </trkpt>
      <trkpt lat="48.7211" lon="2.41476">
        <ele>47</ele>
        <time>2023-01-24T10:36:43.726Z</time>
      </trkpt>
      <trkpt lat="48.72108" lon="2.41483">
        <ele>47</ele>
        <time>2023-01-24T10:36:48.527Z</time>
      </trkpt>
      <trkpt lat="48.72105" lon="2.41494">
        <ele>43</ele>
        <time>2023-01-24T10:36:52.886Z</time>
      </trkpt>
      <trkpt lat="48.72101" lon="2.415">
        <ele>43</ele>
        <time>2023-01-24T10:36:57.186Z</time>
      </trkpt>
      <trkpt lat="48.72099" lon="2.41508">
        <ele>43</ele>
        <time>2023-01-24T10:37:01.387Z</time>
      </trkpt>
      <trkpt lat="48.72098" lon="2.41514">
        <ele>40</ele>
        <time>2023-01-24T10:37:05.745Z</time>
      </trkpt>
      <trkpt lat="48.72096" lon="2.41523">
        <ele>37</ele>
        <time>2023-01-24T10:37:10.164Z</time>
      </trkpt>
      <trkpt lat="48.72096" lon="2.41533">
        <ele>37</ele>
        <time>2023-01-24T10:37:14.681Z</time>
      </trkpt>
      <trkpt lat="48.72094" lon="2.41542">
        <ele>37</ele>
        <time>2023-01-24T10:37:18.580Z</time>
      </trkpt>
      <trkpt lat="48.72092" lon="2.41549">
        <ele>37</ele>
        <time>2023-01-24T10:37:23.005Z</time>
      </trkpt>
      <trkpt lat="48.72091" lon="2.41559">
        <ele>37</ele>
        <time>2023-01-24T10:37:27.241Z</time>
      </trkpt>
      <trkpt lat="48.72089" lon="2.4157">
        <ele>38</ele>
        <time>2023-01-24T10:37:31.942Z</time>
      </trkpt>
      <trkpt lat="48.72088" lon="2.41581">
        <ele>38</ele>
        <time>2023-01-24T10:37:36.344Z</time>
      </trkpt>
      <trkpt lat="48.72088" lon="2.41591">
        <ele>38</ele>
        <time>2023-01-24T10:37:40.465Z</time>
      </trkpt>
      <trkpt lat="48.7209" lon="2.41597">
        <ele>38</ele>
        <time>2023-01-24T10:37:44.524Z</time>
      </trkpt>
      <trkpt lat="48.72094" lon="2.41604">
        <ele>38</ele>
        <time>2023-01-24T10:37:48.900Z</time>
      </trkpt>
      <trkpt lat="48.72094" lon="2.41605">
        <ele>38</ele>
        <time>2023-01-24T10:37:52.838Z</time>
      </trkpt>
      <trkpt lat="48.72088" lon="2.416">
        <ele>38</ele>
        <time>2023-01-24T10:37:57.215Z</time>
      </trkpt>
      <trkpt lat="48.72085" lon="2.41599">
        <ele>38</ele>
        <time>2023-01-24T10:38:01.772Z</time>
      </trkpt>
      <trkpt lat="48.72082" lon="2.416">
        <ele>38</ele>
        <time>2023-01-24T10:38:05.902Z</time>
      </trkpt>
      <trkpt lat="48.7208" lon="2.41608">
        <ele>38</ele>
        <time>2023-01-24T10:38:09.917Z</time>
      </trkpt>
      <trkpt lat="48.72076" lon="2.41619">
        <ele>38</ele>
        <time>2023-01-24T10:38:14.295Z</time>
      </trkpt>
      <trkpt lat="48.72073" lon="2.41629">
        <ele>36</ele>
        <time>2023-01-24T10:38:18.852Z</time>
      </trkpt>
      <trkpt lat="48.72069" lon="2.41638">
        <ele>35</ele>
        <time>2023-01-24T10:38:23.387Z</time>
      </trkpt>
      <trkpt lat="48.72064" lon="2.41645">
        <ele>35</ele>
        <time>2023-01-24T10:38:27.669Z</time>
      </trkpt>
      <trkpt lat="48.72059" lon="2.41647">
        <ele>35</ele>
        <time>2023-01-24T10:38:31.787Z</time>
      </trkpt>
      <trkpt lat="48.72052" lon="2.41651">
        <ele>35</ele>
        <time>2023-01-24T10:38:35.864Z</time>
      </trkpt>
      <trkpt lat="48.72045" lon="2.41654">
        <ele>33</ele>
        <time>2023-01-24T10:38:40.362Z</time>
      </trkpt>
      <trkpt lat="48.72044" lon="2.41663">
        <ele>33</ele>
        <time>2023-01-24T10:38:44.100Z</time>
      </trkpt>
      <trkpt lat="48.72041" lon="2.41672">
        <ele>32</ele>
        <time>2023-01-24T10:38:48.198Z</time>
      </trkpt>
      <trkpt lat="48.72038" lon="2.41678">
        <ele>32</ele>
        <time>2023-01-24T10:38:52.738Z</time>
      </trkpt>
      <trkpt lat="48.72042" lon="2.41687">
        <ele>31</ele>
        <time>2023-01-24T10:38:57.018Z</time>
      </trkpt>
      <trkpt lat="48.72046" lon="2.41696">
        <ele>32</ele>
        <time>2023-01-24T10:39:01.556Z</time>
      </trkpt>
      <trkpt lat="48.72049" lon="2.41704">
        <ele>32</ele>
        <time>2023-01-24T10:39:06.079Z</time>
      </trkpt>
      <trkpt lat="48.72051" lon="2.41713">
        <ele>31</ele>
        <time>2023-01-24T10:39:10.609Z</time>
      </trkpt>
      <trkpt lat="48.72054" lon="2.41719">
        <ele>31</ele>
        <time>2023-01-24T10:39:15.231Z</time>
      </trkpt>
      <trkpt lat="48.72055" lon="2.41723">
        <ele>31</ele>
        <time>2023-01-24T10:39:19.111Z</time>
      </trkpt>
      <trkpt lat="48.72057" lon="2.41728">
        <ele>31</ele>
        <time>2023-01-24T10:39:23.502Z</time>
      </trkpt>
      <trkpt lat="48.72059" lon="2.41733">
        <ele>31</ele>
        <time>2023-01-24T10:39:27.988Z</time>
      </trkpt>
      <trkpt lat="48.7206" lon="2.41742">
        <ele>31</ele>
        <time>2023-01-24T10:39:32.387Z</time>
      </trkpt>
      <trkpt lat="48.72062" lon="2.4175">
        <ele>31</ele>
        <time>2023-01-24T10:39:36.905Z</time>
      </trkpt>
      <trkpt lat="48.72064" lon="2.41756">
        <ele>31</ele>
        <time>2023-01-24T10:39:40.963Z</time>
      </trkpt>
      <trkpt lat="48.72067" lon="2.41764">
        <ele>31</ele>
        <time>2023-01-24T10:39:45.520Z</time>
      </trkpt>
      <trkpt lat="48.72073" lon="2.41771">
        <ele>32</ele>
        <time>2023-01-24T10:39:49.919Z</time>
      </trkpt>
      <trkpt lat="48.72077" lon="2.41778">
        <ele>32</ele>
        <time>2023-01-24T10:39:54.372Z</time>
      </trkpt>
      <trkpt lat="48.72081" lon="2.41786">
        <ele>32</ele>
        <time>2023-01-24T10:39:58.797Z</time>
      </trkpt>
      <trkpt lat="48.72085" lon="2.41793">
        <ele>32</ele>
        <time>2023-01-24T10:40:03.197Z</time>
      </trkpt>
      <trkpt lat="48.72088" lon="2.41798">
        <ele>32</ele>
        <time>2023-01-24T10:40:07.387Z</time>
      </trkpt>
      <trkpt lat="48.72092" lon="2.41805">
        <ele>32</ele>
        <time>2023-01-24T10:40:11.387Z</time>
      </trkpt>
      <trkpt lat="48.72095" lon="2.41812">
        <ele>32</ele>
        <time>2023-01-24T10:40:15.951Z</time>
      </trkpt>
      <trkpt lat="48.72099" lon="2.4182">
        <ele>32</ele>
        <time>2023-01-24T10:40:20.369Z</time>
      </trkpt>
      <trkpt lat="48.72103" lon="2.41827">
        <ele>32</ele>
        <time>2023-01-24T10:40:25.002Z</time>
      </trkpt>
      <trkpt lat="48.72106" lon="2.41835">
        <ele>32</ele>
        <time>2023-01-24T10:40:29.181Z</time>
      </trkpt>
      <trkpt lat="48.72109" lon="2.41839">
        <ele>32</ele>
        <time>2023-01-24T10:40:33.501Z</time>
      </trkpt>
      <trkpt lat="48.72111" lon="2.41842">
        <ele>32</ele>
        <time>2023-01-24T10:40:37.300Z</time>
      </trkpt>
      <trkpt lat="48.72116" lon="2.41848">
        <ele>33</ele>
        <time>2023-01-24T10:40:41.839Z</time>
      </trkpt>
      <trkpt lat="48.72121" lon="2.41851">
        <ele>33</ele>
        <time>2023-01-24T10:40:46.139Z</time>
      </trkpt>
      <trkpt lat="48.72125" lon="2.41858">
        <ele>33</ele>
        <time>2023-01-24T10:40:50.480Z</time>
      </trkpt>
      <trkpt lat="48.72128" lon="2.41866">
        <ele>33</ele>
        <time>2023-01-24T10:40:54.237Z</time>
      </trkpt>
      <trkpt lat="48.72132" lon="2.41874">
        <ele>33</ele>
        <time>2023-01-24T10:40:58.795Z</time>
      </trkpt>
      <trkpt lat="48.72136" lon="2.41882">
        <ele>33</ele>
        <time>2023-01-24T10:41:03.467Z</time>
      </trkpt>
      <trkpt lat="48.72139" lon="2.41889">
        <ele>33</ele>
        <time>2023-01-24T10:41:07.234Z</time>
      </trkpt>
      <trkpt lat="48.72143" lon="2.41897">
        <ele>33</ele>
        <time>2023-01-24T10:41:11.613Z</time>
      </trkpt>
      <trkpt lat="48.72146" lon="2.41905">
        <ele>34</ele>
        <time>2023-01-24T10:41:15.953Z</time>
      </trkpt>
      <trkpt lat="48.72149" lon="2.41912">
        <ele>34</ele>
        <time>2023-01-24T10:41:19.976Z</time>
      </trkpt>
      <trkpt lat="48.72151" lon="2.4192">
        <ele>34</ele>
        <time>2023-01-24T10:41:24.519Z</time>
      </trkpt>
      <trkpt lat="48.72153" lon="2.41928">
        <ele>34</ele>
        <time>2023-01-24T10:41:29.030Z</time>
      </trkpt>
      <trkpt lat="48.72156" lon="2.41936">
        <ele>35</ele>
        <time>2023-01-24T10:41:33.125Z</time>
      </trkpt>
      <trkpt lat="48.7216" lon="2.41947">
        <ele>35</ele>
        <time>2023-01-24T10:41:37.867Z</time>
      </trkpt>
      <trkpt lat="48.72164" lon="2.41952">
        <ele>35</ele>
        <time>2023-01-24T10:41:42.110Z</time>
      </trkpt>
      <trkpt lat="48.72167" lon="2.4196">
        <ele>36</ele>
        <time>2023-01-24T10:41:46.270Z</time>
      </trkpt>
      <trkpt lat="48.7217" lon="2.41968">
        <ele>36</ele>
        <time>2023-01-24T10:41:50.646Z</time>
      </trkpt>
      <trkpt lat="48.72173" lon="2.41976">
        <ele>36</ele>
        <time>2023-01-24T10:41:54.846Z</time>
      </trkpt>
      <trkpt lat="48.72176" lon="2.41985">
        <ele>36</ele>
        <time>2023-01-24T10:41:59.447Z</time>
      </trkpt>
      <trkpt lat="48.7218" lon="2.41994">
        <ele>35</ele>
        <time>2023-01-24T10:42:03.927Z</time>
      </trkpt>
      <trkpt lat="48.72182" lon="2.42002">
        <ele>35</ele>
        <time>2023-01-24T10:42:08.207Z</time>
      </trkpt>
      <trkpt lat="48.72185" lon="2.42011">
        <ele>35</ele>
        <time>2023-01-24T10:42:12.749Z</time>
      </trkpt>
      <trkpt lat="48.72187" lon="2.42019">
        <ele>33</ele>
        <time>2023-01-24T10:42:16.849Z</time>
      </trkpt>
      <trkpt lat="48.7219" lon="2.42025">
        <ele>33</ele>
        <time>2023-01-24T10:42:20.601Z</time>
      </trkpt>
      <trkpt lat="48.72193" lon="2.42033">
        <ele>33</ele>
        <time>2023-01-24T10:42:25.322Z</time>
      </trkpt>
      <trkpt lat="48.72196" lon="2.42041">
        <ele>33</ele>
        <time>2023-01-24T10:42:29.563Z</time>
      </trkpt>
      <trkpt lat="48.72198" lon="2.4205">
        <ele>32</ele>
        <time>2023-01-24T10:42:34.204Z</time>
      </trkpt>
      <trkpt lat="48.72201" lon="2.42059">
        <ele>32</ele>
        <time>2023-01-24T10:42:38.366Z</time>
      </trkpt>
      <trkpt lat="48.72203" lon="2.42065">
        <ele>32</ele>
        <time>2023-01-24T10:42:42.948Z</time>
      </trkpt>
      <trkpt lat="48.72206" lon="2.42074">
        <ele>32</ele>
        <time>2023-01-24T10:42:47.966Z</time>
      </trkpt>
      <trkpt lat="48.72208" lon="2.42084">
        <ele>32</ele>
        <time>2023-01-24T10:42:52.253Z</time>
      </trkpt>
      <trkpt lat="48.72211" lon="2.42091">
        <ele>32</ele>
        <time>2023-01-24T10:42:56.255Z</time>
      </trkpt>
      <trkpt lat="48.72214" lon="2.42099">
        <ele>32</ele>
        <time>2023-01-24T10:43:00.817Z</time>
      </trkpt>
      <trkpt lat="48.72216" lon="2.42109">
        <ele>32</ele>
        <time>2023-01-24T10:43:05.480Z</time>
      </trkpt>
      <trkpt lat="48.72219" lon="2.42118">
        <ele>32</ele>
        <time>2023-01-24T10:43:09.879Z</time>
      </trkpt>
      <trkpt lat="48.72223" lon="2.42123">
        <ele>32</ele>
        <time>2023-01-24T10:43:14.239Z</time>
      </trkpt>
      <trkpt lat="48.72226" lon="2.42131">
        <ele>31</ele>
        <time>2023-01-24T10:43:18.619Z</time>
      </trkpt>
      <trkpt lat="48.72229" lon="2.4214">
        <ele>31</ele>
        <time>2023-01-24T10:43:22.700Z</time>
      </trkpt>
      <trkpt lat="48.72232" lon="2.42148">
        <ele>31</ele>
        <time>2023-01-24T10:43:27.361Z</time>
      </trkpt>
      <trkpt lat="48.72235" lon="2.42157">
        <ele>30</ele>
        <time>2023-01-24T10:43:31.781Z</time>
      </trkpt>
      <trkpt lat="48.72238" lon="2.42167">
        <ele>30</ele>
        <time>2023-01-24T10:43:36.642Z</time>
      </trkpt>
      <trkpt lat="48.72241" lon="2.42175">
        <ele>30</ele>
        <time>2023-01-24T10:43:40.958Z</time>
      </trkpt>
      <trkpt lat="48.72244" lon="2.42183">
        <ele>30</ele>
        <time>2023-01-24T10:43:45.310Z</time>
      </trkpt>
      <trkpt lat="48.72247" lon="2.42192">
        <ele>30</ele>
        <time>2023-01-24T10:43:49.615Z</time>
      </trkpt>
      <trkpt lat="48.7225" lon="2.422">
        <ele>30</ele>
        <time>2023-01-24T10:43:53.953Z</time>
      </trkpt>
      <trkpt lat="48.72252" lon="2.42209">
        <ele>29</ele>
        <time>2023-01-24T10:43:58.387Z</time>
      </trkpt>
      <trkpt lat="48.72254" lon="2.42217">
        <ele>29</ele>
        <time>2023-01-24T10:44:02.268Z</time>
      </trkpt>
      <trkpt lat="48.72257" lon="2.42227">
        <ele>29</ele>
        <time>2023-01-24T10:44:06.808Z</time>
      </trkpt>
      <trkpt lat="48.7226" lon="2.42233">
        <ele>29</ele>
        <time>2023-01-24T10:44:11.207Z</time>
      </trkpt>
      <trkpt lat="48.72262" lon="2.42242">
        <ele>30</ele>
        <time>2023-01-24T10:44:15.606Z</time>
      </trkpt>
      <trkpt lat="48.72265" lon="2.4225">
        <ele>31</ele>
        <time>2023-01-24T10:44:19.885Z</time>
      </trkpt>
      <trkpt lat="48.72267" lon="2.4226">
        <ele>31</ele>
        <time>2023-01-24T10:44:24.805Z</time>
      </trkpt>
      <trkpt lat="48.72269" lon="2.42268">
        <ele>31</ele>
        <time>2023-01-24T10:44:29.131Z</time>
      </trkpt>
      <trkpt lat="48.72272" lon="2.42277">
        <ele>31</ele>
        <time>2023-01-24T10:44:33.485Z</time>
      </trkpt>
      <trkpt lat="48.72272" lon="2.42285">
        <ele>31</ele>
        <time>2023-01-24T10:44:37.849Z</time>
      </trkpt>
      <trkpt lat="48.72274" lon="2.42294">
        <ele>32</ele>
        <time>2023-01-24T10:44:42.165Z</time>
      </trkpt>
      <trkpt lat="48.72277" lon="2.42301">
        <ele>32</ele>
        <time>2023-01-24T10:44:46.387Z</time>
      </trkpt>
      <trkpt lat="48.72279" lon="2.42307">
        <ele>32</ele>
        <time>2023-01-24T10:44:50.823Z</time>
      </trkpt>
      <trkpt lat="48.72282" lon="2.42313">
        <ele>32</ele>
        <time>2023-01-24T10:44:55.244Z</time>
      </trkpt>
      <trkpt lat="48.72284" lon="2.42322">
        <ele>33</ele>
        <time>2023-01-24T10:44:59.666Z</time>
      </trkpt>
      <trkpt lat="48.72286" lon="2.42329">
        <ele>33</ele>
        <time>2023-01-24T10:45:04.081Z</time>
      </trkpt>
      <trkpt lat="48.72288" lon="2.42336">
        <ele>33</ele>
        <time>2023-01-24T10:45:08.361Z</time>
      </trkpt>
      <trkpt lat="48.7229" lon="2.42345">
        <ele>33</ele>
        <time>2023-01-24T10:45:12.861Z</time>
      </trkpt>
      <trkpt lat="48.72292" lon="2.42354">
        <ele>33</ele>
        <time>2023-01-24T10:45:17.305Z</time>
      </trkpt>
      <trkpt lat="48.72294" lon="2.42361">
        <ele>33</ele>
        <time>2023-01-24T10:45:21.461Z</time>
      </trkpt>
      <trkpt lat="48.72296" lon="2.42371">
        <ele>33</ele>
        <time>2023-01-24T10:45:26.088Z</time>
      </trkpt>
      <trkpt lat="48.72299" lon="2.42381">
        <ele>34</ele>
        <time>2023-01-24T10:45:30.641Z</time>
      </trkpt>
      <trkpt lat="48.72301" lon="2.42389">
        <ele>34</ele>
        <time>2023-01-24T10:45:35.240Z</time>
      </trkpt>
      <trkpt lat="48.72303" lon="2.42395">
        <ele>34</ele>
        <time>2023-01-24T10:45:39.522Z</time>
      </trkpt>
      <trkpt lat="48.72306" lon="2.42399">
        <ele>34</ele>
        <time>2023-01-24T10:45:43.387Z</time>
      </trkpt>
      <trkpt lat="48.72309" lon="2.42405">
        <ele>34</ele>
        <time>2023-01-24T10:45:47.932Z</time>
      </trkpt>
      <trkpt lat="48.72312" lon="2.42411">
        <ele>34</ele>
        <time>2023-01-24T10:45:52.154Z</time>
      </trkpt>
      <trkpt lat="48.72316" lon="2.42417">
        <ele>34</ele>
        <time>2023-01-24T10:45:56.649Z</time>
      </trkpt>
      <trkpt lat="48.72319" lon="2.42424">
        <ele>34</ele>
        <time>2023-01-24T10:46:01.089Z</time>
      </trkpt>
      <trkpt lat="48.72322" lon="2.42433">
        <ele>31</ele>
        <time>2023-01-24T10:46:05.489Z</time>
      </trkpt>
      <trkpt lat="48.72324" lon="2.42443">
        <ele>31</ele>
        <time>2023-01-24T10:46:09.904Z</time>
      </trkpt>
      <trkpt lat="48.72326" lon="2.42453">
        <ele>31</ele>
        <time>2023-01-24T10:46:14.335Z</time>
      </trkpt>
      <trkpt lat="48.72328" lon="2.42458">
        <ele>31</ele>
        <time>2023-01-24T10:46:18.678Z</time>
      </trkpt>
      <trkpt lat="48.72329" lon="2.42464">
        <ele>31</ele>
        <time>2023-01-24T10:46:23.140Z</time>
      </trkpt>
      <trkpt lat="48.72331" lon="2.4247">
        <ele>31</ele>
        <time>2023-01-24T10:46:27.498Z</time>
      </trkpt>
      <trkpt lat="48.72333" lon="2.42477">
        <ele>31</ele>
        <time>2023-01-24T10:46:31.801Z</time>
      </trkpt>
      <trkpt lat="48.72335" lon="2.42486">
        <ele>31</ele>
        <time>2023-01-24T10:46:35.840Z</time>
      </trkpt>
      <trkpt lat="48.72338" lon="2.42497">
        <ele>32</ele>
        <time>2023-01-24T10:46:40.683Z</time>
      </trkpt>
      <trkpt lat="48.72341" lon="2.42506">
        <ele>32</ele>
        <time>2023-01-24T10:46:44.859Z</time>
      </trkpt>
      <trkpt lat="48.72344" lon="2.42519">
        <ele>34</ele>
        <time>2023-01-24T10:46:49.578Z</time>
      </trkpt>
      <trkpt lat="48.72344" lon="2.42533">
        <ele>34</ele>
        <time>2023-01-24T10:46:54.169Z</time>
      </trkpt>
      <trkpt lat="48.72347" lon="2.42542">
        <ele>35</ele>
        <time>2023-01-24T10:46:58.569Z</time>
      </trkpt>
      <trkpt lat="48.72351" lon="2.42551">
        <ele>35</ele>
        <time>2023-01-24T10:47:02.387Z</time>
      </trkpt>
      <trkpt lat="48.72354" lon="2.42562">
        <ele>35</ele>
        <time>2023-01-24T10:47:06.676Z</time>
      </trkpt>
      <trkpt lat="48.72355" lon="2.42573">
        <ele>35</ele>
        <time>2023-01-24T10:47:11.196Z</time>
      </trkpt>
      <trkpt lat="48.72358" lon="2.42582">
        <ele>35</ele>
        <time>2023-01-24T10:47:15.690Z</time>
      </trkpt>
      <trkpt lat="48.72361" lon="2.4259">
        <ele>35</ele>
        <time>2023-01-24T10:47:19.911Z</time>
      </trkpt>
      <trkpt lat="48.72363" lon="2.42597">
        <ele>35</ele>
        <time>2023-01-24T10:47:23.735Z</time>
      </trkpt>
      <trkpt lat="48.72366" lon="2.42606">
        <ele>35</ele>
        <time>2023-01-24T10:47:28.295Z</time>
      </trkpt>
      <trkpt lat="48.72368" lon="2.42615">
        <ele>35</ele>
        <time>2023-01-24T10:47:32.753Z</time>
      </trkpt>
      <trkpt lat="48.72369" lon="2.42627">
        <ele>34</ele>
        <time>2023-01-24T10:47:37.253Z</time>
      </trkpt>
      <trkpt lat="48.72371" lon="2.42636">
        <ele>34</ele>
        <time>2023-01-24T10:47:41.753Z</time>
      </trkpt>
      <trkpt lat="48.72373" lon="2.42646">
        <ele>34</ele>
        <time>2023-01-24T10:47:46.110Z</time>
      </trkpt>
      <trkpt lat="48.72374" lon="2.42656">
        <ele>33</ele>
        <time>2023-01-24T10:47:50.592Z</time>
      </trkpt>
      <trkpt lat="48.72376" lon="2.42663">
        <ele>34</ele>
        <time>2023-01-24T10:47:55.190Z</time>
      </trkpt>
      <trkpt lat="48.72378" lon="2.42672">
        <ele>34</ele>
        <time>2023-01-24T10:47:59.650Z</time>
      </trkpt>
      <trkpt lat="48.72381" lon="2.42681">
        <ele>34</ele>
        <time>2023-01-24T10:48:04.088Z</time>
      </trkpt>
      <trkpt lat="48.72384" lon="2.42692">
        <ele>34</ele>
        <time>2023-01-24T10:48:08.550Z</time>
      </trkpt>
      <trkpt lat="48.72387" lon="2.42701">
        <ele>34</ele>
        <time>2023-01-24T10:48:12.948Z</time>
      </trkpt>
      <trkpt lat="48.72389" lon="2.42708">
        <ele>34</ele>
        <time>2023-01-24T10:48:16.689Z</time>
      </trkpt>
      <trkpt lat="48.72391" lon="2.42717">
        <ele>33</ele>
        <time>2023-01-24T10:48:21.649Z</time>
      </trkpt>
      <trkpt lat="48.72392" lon="2.42728">
        <ele>33</ele>
        <time>2023-01-24T10:48:26.128Z</time>
      </trkpt>
      <trkpt lat="48.72391" lon="2.4274">
        <ele>32</ele>
        <time>2023-01-24T10:48:30.627Z</time>
      </trkpt>
      <trkpt lat="48.72391" lon="2.42749">
        <ele>32</ele>
        <time>2023-01-24T10:48:34.624Z</time>
      </trkpt>
      <trkpt lat="48.72393" lon="2.42756">
        <ele>32</ele>
        <time>2023-01-24T10:48:38.562Z</time>
      </trkpt>
      <trkpt lat="48.72395" lon="2.42765">
        <ele>32</ele>
        <time>2023-01-24T10:48:43.081Z</time>
      </trkpt>
      <trkpt lat="48.72396" lon="2.42773">
        <ele>32</ele>
        <time>2023-01-24T10:48:47.160Z</time>
      </trkpt>
      <trkpt lat="48.72398" lon="2.42783">
        <ele>32</ele>
        <time>2023-01-24T10:48:51.556Z</time>
      </trkpt>
      <trkpt lat="48.72398" lon="2.42794">
        <ele>32</ele>
        <time>2023-01-24T10:48:55.993Z</time>
      </trkpt>
      <trkpt lat="48.72399" lon="2.42804">
        <ele>32</ele>
        <time>2023-01-24T10:49:00.947Z</time>
      </trkpt>
      <trkpt lat="48.72401" lon="2.42815">
        <ele>32</ele>
        <time>2023-01-24T10:49:04.833Z</time>
      </trkpt>
      <trkpt lat="48.72402" lon="2.42822">
        <ele>33</ele>
        <time>2023-01-24T10:49:08.792Z</time>
      </trkpt>
      <trkpt lat="48.72403" lon="2.42831">
        <ele>33</ele>
        <time>2023-01-24T10:49:13.252Z</time>
      </trkpt>
      <trkpt lat="48.72405" lon="2.42842">
        <ele>33</ele>
        <time>2023-01-24T10:49:17.672Z</time>
      </trkpt>
      <trkpt lat="48.72406" lon="2.42852">
        <ele>33</ele>
        <time>2023-01-24T10:49:22.106Z</time>
      </trkpt>
      <trkpt lat="48.72407" lon="2.4286">
        <ele>33</ele>
        <time>2023-01-24T10:49:26.487Z</time>
      </trkpt>
      <trkpt lat="48.72409" lon="2.42868">
        <ele>33</ele>
        <time>2023-01-24T10:49:30.845Z</time>
      </trkpt>
      <trkpt lat="48.7241" lon="2.42877">
        <ele>32</ele>
        <time>2023-01-24T10:49:35.225Z</time>
      </trkpt>
      <trkpt lat="48.72411" lon="2.42886">
        <ele>32</ele>
        <time>2023-01-24T10:49:39.493Z</time>
      </trkpt>
      <trkpt lat="48.72413" lon="2.42895">
        <ele>32</ele>
        <time>2023-01-24T10:49:43.893Z</time>
      </trkpt>
      <trkpt lat="48.72414" lon="2.42905">
        <ele>31</ele>
        <time>2023-01-24T10:49:48.327Z</time>
      </trkpt>
      <trkpt lat="48.72414" lon="2.42914">
        <ele>31</ele>
        <time>2023-01-24T10:49:52.666Z</time>
      </trkpt>
      <trkpt lat="48.72415" lon="2.42923">
        <ele>31</ele>
        <time>2023-01-24T10:49:57.011Z</time>
      </trkpt>
      <trkpt lat="48.72417" lon="2.42934">
        <ele>31</ele>
        <time>2023-01-24T10:50:01.373Z</time>
      </trkpt>
      <trkpt lat="48.72417" lon="2.42946">
        <ele>31</ele>
        <time>2023-01-24T10:50:05.766Z</time>
      </trkpt>
      <trkpt lat="48.72418" lon="2.42954">
        <ele>31</ele>
        <time>2023-01-24T10:50:10.056Z</time>
      </trkpt>
      <trkpt lat="48.7242" lon="2.42962">
        <ele>32</ele>
        <time>2023-01-24T10:50:14.459Z</time>
      </trkpt>
      <trkpt lat="48.72421" lon="2.4297">
        <ele>32</ele>
        <time>2023-01-24T10:50:18.884Z</time>
      </trkpt>
      <trkpt lat="48.72421" lon="2.42979">
        <ele>32</ele>
        <time>2023-01-24T10:50:23.221Z</time>
      </trkpt>
      <trkpt lat="48.72423" lon="2.42988">
        <ele>33</ele>
        <time>2023-01-24T10:50:27.410Z</time>
      </trkpt>
      <trkpt lat="48.72423" lon="2.42997">
        <ele>33</ele>
        <time>2023-01-24T10:50:32.033Z</time>
      </trkpt>
      <trkpt lat="48.72424" lon="2.43006">
        <ele>33</ele>
        <time>2023-01-24T10:50:36.287Z</time>
      </trkpt>
      <trkpt lat="48.72425" lon="2.43016">
        <ele>33</ele>
        <time>2023-01-24T10:50:40.646Z</time>
      </trkpt>
      <trkpt lat="48.72426" lon="2.43024">
        <ele>33</ele>
        <time>2023-01-24T10:50:45.003Z</time>
      </trkpt>
      <trkpt lat="48.72427" lon="2.43032">
        <ele>33</ele>
        <time>2023-01-24T10:50:49.322Z</time>
      </trkpt>
      <trkpt lat="48.72428" lon="2.43042">
        <ele>33</ele>
        <time>2023-01-24T10:50:53.648Z</time>
      </trkpt>
      <trkpt lat="48.72428" lon="2.43051">
        <ele>33</ele>
        <time>2023-01-24T10:50:58.052Z</time>
      </trkpt>
      <trkpt lat="48.7243" lon="2.43062">
        <ele>33</ele>
        <time>2023-01-24T10:51:02.387Z</time>
      </trkpt>
      <trkpt lat="48.72431" lon="2.43072">
        <ele>35</ele>
        <time>2023-01-24T10:51:07.888Z</time>
      </trkpt>
      <trkpt lat="48.72431" lon="2.4308">
        <ele>35</ele>
        <time>2023-01-24T10:51:12.302Z</time>
      </trkpt>
      <trkpt lat="48.72432" lon="2.43083">
        <ele>35</ele>
        <time>2023-01-24T10:51:16.227Z</time>
      </trkpt>
      <trkpt lat="48.72434" lon="2.4309">
        <ele>35</ele>
        <time>2023-01-24T10:51:20.107Z</time>
      </trkpt>
      <trkpt lat="48.72435" lon="2.43098">
        <ele>35</ele>
        <time>2023-01-24T10:51:24.706Z</time>
      </trkpt>
      <trkpt lat="48.72437" lon="2.43105">
        <ele>35</ele>
        <time>2023-01-24T10:51:29.227Z</time>
      </trkpt>
      <trkpt lat="48.72439" lon="2.43114">
        <ele>35</ele>
        <time>2023-01-24T10:51:33.625Z</time>
      </trkpt>
      <trkpt lat="48.72437" lon="2.43127">
        <ele>34</ele>
        <time>2023-01-24T10:51:37.987Z</time>
      </trkpt>
      <trkpt lat="48.72437" lon="2.43138">
        <ele>34</ele>
        <time>2023-01-24T10:51:41.965Z</time>
      </trkpt>
      <trkpt lat="48.72438" lon="2.43148">
        <ele>34</ele>
        <time>2023-01-24T10:51:46.505Z</time>
      </trkpt>
      <trkpt lat="48.72439" lon="2.43157">
        <ele>33</ele>
        <time>2023-01-24T10:51:50.785Z</time>
      </trkpt>
      <trkpt lat="48.72439" lon="2.43168">
        <ele>33</ele>
        <time>2023-01-24T10:51:55.047Z</time>
      </trkpt>
      <trkpt lat="48.72438" lon="2.43179">
        <ele>33</ele>
        <time>2023-01-24T10:51:59.427Z</time>
      </trkpt>
      <trkpt lat="48.72441" lon="2.4318">
        <ele>33</ele>
        <time>2023-01-24T10:52:03.728Z</time>
      </trkpt>
      <trkpt lat="48.72443" lon="2.43188">
        <ele>33</ele>
        <time>2023-01-24T10:52:08.458Z</time>
      </trkpt>
      <trkpt lat="48.72444" lon="2.43198">
        <ele>33</ele>
        <time>2023-01-24T10:52:12.731Z</time>
      </trkpt>
      <trkpt lat="48.72445" lon="2.43206">
        <ele>33</ele>
        <time>2023-01-24T10:52:16.532Z</time>
      </trkpt>
      <trkpt lat="48.72447" lon="2.43215">
        <ele>33</ele>
        <time>2023-01-24T10:52:20.992Z</time>
      </trkpt>
      <trkpt lat="48.72449" lon="2.43223">
        <ele>33</ele>
        <time>2023-01-24T10:52:24.833Z</time>
      </trkpt>
      <trkpt lat="48.7245" lon="2.43231">
        <ele>33</ele>
        <time>2023-01-24T10:52:29.154Z</time>
      </trkpt>
      <trkpt lat="48.72451" lon="2.43238">
        <ele>33</ele>
        <time>2023-01-24T10:52:33.177Z</time>
      </trkpt>
      <trkpt lat="48.72451" lon="2.43243">
        <ele>33</ele>
        <time>2023-01-24T10:52:37.799Z</time>
      </trkpt>
      <trkpt lat="48.72453" lon="2.4325">
        <ele>33</ele>
        <time>2023-01-24T10:52:42.259Z</time>
      </trkpt>
      <trkpt lat="48.72454" lon="2.4326">
        <ele>33</ele>
        <time>2023-01-24T10:52:46.740Z</time>
      </trkpt>
      <trkpt lat="48.72454" lon="2.43275">
        <ele>33</ele>
        <time>2023-01-24T10:52:51.091Z</time>
      </trkpt>
      <trkpt lat="48.72456" lon="2.43287">
        <ele>33</ele>
        <time>2023-01-24T10:52:55.369Z</time>
      </trkpt>
      <trkpt lat="48.72457" lon="2.43299">
        <ele>34</ele>
        <time>2023-01-24T10:52:59.728Z</time>
      </trkpt>
      <trkpt lat="48.72459" lon="2.43308">
        <ele>34</ele>
        <time>2023-01-24T10:53:04.072Z</time>
      </trkpt>
      <trkpt lat="48.7246" lon="2.43319">
        <ele>34</ele>
        <time>2023-01-24T10:53:08.290Z</time>
      </trkpt>
      <trkpt lat="48.72462" lon="2.43327">
        <ele>35</ele>
        <time>2023-01-24T10:53:12.690Z</time>
      </trkpt>
      <trkpt lat="48.72464" lon="2.43335">
        <ele>35</ele>
        <time>2023-01-24T10:53:17.067Z</time>
      </trkpt>
      <trkpt lat="48.72465" lon="2.43344">
        <ele>35</ele>
        <time>2023-01-24T10:53:21.112Z</time>
      </trkpt>
      <trkpt lat="48.72467" lon="2.43353">
        <ele>34</ele>
        <time>2023-01-24T10:53:25.794Z</time>
      </trkpt>
      <trkpt lat="48.72468" lon="2.43362">
        <ele>34</ele>
        <time>2023-01-24T10:53:30.035Z</time>
      </trkpt>
      <trkpt lat="48.7247" lon="2.4337">
        <ele>34</ele>
        <time>2023-01-24T10:53:34.136Z</time>
      </trkpt>
      <trkpt lat="48.72472" lon="2.43378">
        <ele>33</ele>
        <time>2023-01-24T10:53:38.832Z</time>
      </trkpt>
      <trkpt lat="48.72474" lon="2.43386">
        <ele>33</ele>
        <time>2023-01-24T10:53:43.064Z</time>
      </trkpt>
      <trkpt lat="48.72476" lon="2.43394">
        <ele>33</ele>
        <time>2023-01-24T10:53:47.105Z</time>
      </trkpt>
      <trkpt lat="48.72478" lon="2.43403">
        <ele>31</ele>
        <time>2023-01-24T10:53:51.682Z</time>
      </trkpt>
      <trkpt lat="48.72479" lon="2.43413">
        <ele>31</ele>
        <time>2023-01-24T10:53:55.984Z</time>
      </trkpt>
      <trkpt lat="48.72481" lon="2.43422">
        <ele>31</ele>
        <time>2023-01-24T10:54:00.242Z</time>
      </trkpt>
      <trkpt lat="48.72483" lon="2.4343">
        <ele>31</ele>
        <time>2023-01-24T10:54:04.583Z</time>
      </trkpt>
      <trkpt lat="48.72485" lon="2.43439">
        <ele>31</ele>
        <time>2023-01-24T10:54:08.923Z</time>
      </trkpt>
      <trkpt lat="48.72486" lon="2.43448">
        <ele>32</ele>
        <time>2023-01-24T10:54:13.125Z</time>
      </trkpt>
      <trkpt lat="48.72489" lon="2.43457">
        <ele>32</ele>
        <time>2023-01-24T10:54:17.128Z</time>
      </trkpt>
      <trkpt lat="48.72492" lon="2.43464">
        <ele>32</ele>
        <time>2023-01-24T10:54:21.844Z</time>
      </trkpt>
      <trkpt lat="48.72495" lon="2.43472">
        <ele>32</ele>
        <time>2023-01-24T10:54:25.953Z</time>
      </trkpt>
      <trkpt lat="48.72498" lon="2.43482">
        <ele>32</ele>
        <time>2023-01-24T10:54:30.115Z</time>
      </trkpt>
      <trkpt lat="48.72498" lon="2.43494">
        <ele>31</ele>
        <time>2023-01-24T10:54:34.595Z</time>
      </trkpt>
      <trkpt lat="48.72501" lon="2.43504">
        <ele>31</ele>
        <time>2023-01-24T10:54:38.796Z</time>
      </trkpt>
      <trkpt lat="48.72503" lon="2.43516">
        <ele>31</ele>
        <time>2023-01-24T10:54:43.270Z</time>
      </trkpt>
      <trkpt lat="48.72506" lon="2.43524">
        <ele>31</ele>
        <time>2023-01-24T10:54:47.517Z</time>
      </trkpt>
      <trkpt lat="48.72508" lon="2.43534">
        <ele>31</ele>
        <time>2023-01-24T10:54:51.758Z</time>
      </trkpt>
      <trkpt lat="48.7251" lon="2.43543">
        <ele>31</ele>
        <time>2023-01-24T10:54:56Z</time>
      </trkpt>
      <trkpt lat="48.72513" lon="2.43552">
        <ele>31</ele>
        <time>2023-01-24T10:55:00.320Z</time>
      </trkpt>
      <trkpt lat="48.72517" lon="2.43561">
        <ele>31</ele>
        <time>2023-01-24T10:55:04.784Z</time>
      </trkpt>
      <trkpt lat="48.72517" lon="2.4357">
        <ele>31</ele>
        <time>2023-01-24T10:55:09.040Z</time>
      </trkpt>
      <trkpt lat="48.72519" lon="2.43579">
        <ele>31</ele>
        <time>2023-01-24T10:55:13.384Z</time>
      </trkpt>
      <trkpt lat="48.72522" lon="2.43588">
        <ele>31</ele>
        <time>2023-01-24T10:55:17.702Z</time>
      </trkpt>
      <trkpt lat="48.72526" lon="2.43598">
        <ele>33</ele>
        <time>2023-01-24T10:55:22.039Z</time>
      </trkpt>
      <trkpt lat="48.72529" lon="2.43608">
        <ele>33</ele>
        <time>2023-01-24T10:55:26.387Z</time>
      </trkpt>
      <trkpt lat="48.72531" lon="2.43616">
        <ele>33</ele>
        <time>2023-01-24T10:55:30.752Z</time>
      </trkpt>
      <trkpt lat="48.72533" lon="2.43624">
        <ele>33</ele>
        <time>2023-01-24T10:55:35.002Z</time>
      </trkpt>
      <trkpt lat="48.72534" lon="2.43634">
        <ele>33</ele>
        <time>2023-01-24T10:55:39.298Z</time>
      </trkpt>
      <trkpt lat="48.72536" lon="2.43644">
        <ele>33</ele>
        <time>2023-01-24T10:55:43.650Z</time>
      </trkpt>
      <trkpt lat="48.72538" lon="2.43653">
        <ele>33</ele>
        <time>2023-01-24T10:55:47.558Z</time>
      </trkpt>
      <trkpt lat="48.7254" lon="2.43662">
        <ele>33</ele>
        <time>2023-01-24T10:55:52.016Z</time>
      </trkpt>
      <trkpt lat="48.72543" lon="2.4367">
        <ele>32</ele>
        <time>2023-01-24T10:55:56.470Z</time>
      </trkpt>
      <trkpt lat="48.72545" lon="2.43679">
        <ele>32</ele>
        <time>2023-01-24T10:56:00.810Z</time>
      </trkpt>
      <trkpt lat="48.72547" lon="2.43688">
        <ele>32</ele>
        <time>2023-01-24T10:56:05.101Z</time>
      </trkpt>
      <trkpt lat="48.72549" lon="2.43697">
        <ele>32</ele>
        <time>2023-01-24T10:56:09.450Z</time>
      </trkpt>
      <trkpt lat="48.72551" lon="2.43707">
        <ele>32</ele>
        <time>2023-01-24T10:56:13.790Z</time>
      </trkpt>
      <trkpt lat="48.72554" lon="2.43716">
        <ele>31</ele>
        <time>2023-01-24T10:56:18.225Z</time>
      </trkpt>
      <trkpt lat="48.72555" lon="2.43724">
        <ele>31</ele>
        <time>2023-01-24T10:56:22.672Z</time>
      </trkpt>
      <trkpt lat="48.72558" lon="2.4373">
        <ele>31</ele>
        <time>2023-01-24T10:56:27.202Z</time>
      </trkpt>
      <trkpt lat="48.7256" lon="2.4374">
        <ele>30</ele>
        <time>2023-01-24T10:56:31.443Z</time>
      </trkpt>
      <trkpt lat="48.72562" lon="2.43749">
        <ele>30</ele>
        <time>2023-01-24T10:56:35.792Z</time>
      </trkpt>
      <trkpt lat="48.72565" lon="2.43759">
        <ele>30</ele>
        <time>2023-01-24T10:56:40.245Z</time>
      </trkpt>
      <trkpt lat="48.72567" lon="2.43766">
        <ele>30</ele>
        <time>2023-01-24T10:56:44.623Z</time>
      </trkpt>
      <trkpt lat="48.72569" lon="2.43775">
        <ele>30</ele>
        <time>2023-01-24T10:56:49.484Z</time>
      </trkpt>
      <trkpt lat="48.72571" lon="2.43784">
        <ele>30</ele>
        <time>2023-01-24T10:56:53.840Z</time>
      </trkpt>
      <trkpt lat="48.72574" lon="2.43792">
        <ele>30</ele>
        <time>2023-01-24T10:56:58.158Z</time>
      </trkpt>
      <trkpt lat="48.72577" lon="2.43802">
        <ele>30</ele>
        <time>2023-01-24T10:57:02.550Z</time>
      </trkpt>
      <trkpt lat="48.7258" lon="2.43811">
        <ele>30</ele>
        <time>2023-01-24T10:57:06.915Z</time>
      </trkpt>
      <trkpt lat="48.72582" lon="2.43819">
        <ele>30</ele>
        <time>2023-01-24T10:57:11.249Z</time>
      </trkpt>
      <trkpt lat="48.72583" lon="2.43829">
        <ele>31</ele>
        <time>2023-01-24T10:57:15.634Z</time>
      </trkpt>
      <trkpt lat="48.72583" lon="2.43846">
        <ele>31</ele>
        <time>2023-01-24T10:57:24.473Z</time>
      </trkpt>
      <trkpt lat="48.72585" lon="2.43855">
        <ele>31</ele>
        <time>2023-01-24T10:57:28.872Z</time>
      </trkpt>
      <trkpt lat="48.72588" lon="2.43864">
        <ele>31</ele>
        <time>2023-01-24T10:57:33.087Z</time>
      </trkpt>
      <trkpt lat="48.7259" lon="2.43872">
        <ele>31</ele>
        <time>2023-01-24T10:57:37.387Z</time>
      </trkpt>
      <trkpt lat="48.72592" lon="2.4388">
        <ele>31</ele>
        <time>2023-01-24T10:57:41.607Z</time>
      </trkpt>
      <trkpt lat="48.72593" lon="2.43889">
        <ele>31</ele>
        <time>2023-01-24T10:57:46.006Z</time>
      </trkpt>
      <trkpt lat="48.72595" lon="2.43897">
        <ele>31</ele>
        <time>2023-01-24T10:57:50.548Z</time>
      </trkpt>
      <trkpt lat="48.72598" lon="2.43904">
        <ele>30</ele>
        <time>2023-01-24T10:57:54.563Z</time>
      </trkpt>
      <trkpt lat="48.72599" lon="2.43911">
        <ele>30</ele>
        <time>2023-01-24T10:57:58.580Z</time>
      </trkpt>
      <trkpt lat="48.72601" lon="2.4392">
        <ele>30</ele>
        <time>2023-01-24T10:58:03.038Z</time>
      </trkpt>
      <trkpt lat="48.72603" lon="2.43931">
        <ele>31</ele>
        <time>2023-01-24T10:58:07.480Z</time>
      </trkpt>
      <trkpt lat="48.72605" lon="2.4394">
        <ele>31</ele>
        <time>2023-01-24T10:58:11.357Z</time>
      </trkpt>
      <trkpt lat="48.72608" lon="2.43948">
        <ele>31</ele>
        <time>2023-01-24T10:58:15.974Z</time>
      </trkpt>
      <trkpt lat="48.72612" lon="2.43956">
        <ele>31</ele>
        <time>2023-01-24T10:58:20.591Z</time>
      </trkpt>
      <trkpt lat="48.72615" lon="2.43965">
        <ele>31</ele>
        <time>2023-01-24T10:58:25.093Z</time>
      </trkpt>
      <trkpt lat="48.72617" lon="2.43975">
        <ele>31</ele>
        <time>2023-01-24T10:58:29.492Z</time>
      </trkpt>
      <trkpt lat="48.7262" lon="2.43983">
        <ele>31</ele>
        <time>2023-01-24T10:58:33.851Z</time>
      </trkpt>
      <trkpt lat="48.72623" lon="2.43991">
        <ele>30</ele>
        <time>2023-01-24T10:58:38.288Z</time>
      </trkpt>
      <trkpt lat="48.72626" lon="2.44">
        <ele>31</ele>
        <time>2023-01-24T10:58:42.605Z</time>
      </trkpt>
      <trkpt lat="48.7263" lon="2.44007">
        <ele>31</ele>
        <time>2023-01-24T10:58:46.924Z</time>
      </trkpt>
      <trkpt lat="48.72629" lon="2.44015">
        <ele>31</ele>
        <time>2023-01-24T10:58:50.842Z</time>
      </trkpt>
      <trkpt lat="48.72632" lon="2.44024">
        <ele>31</ele>
        <time>2023-01-24T10:58:55.387Z</time>
      </trkpt>
      <trkpt lat="48.72635" lon="2.44031">
        <ele>31</ele>
        <time>2023-01-24T10:58:59.784Z</time>
      </trkpt>
      <trkpt lat="48.72638" lon="2.44039">
        <ele>31</ele>
        <time>2023-01-24T10:59:04.224Z</time>
      </trkpt>
      <trkpt lat="48.72642" lon="2.44046">
        <ele>31</ele>
        <time>2023-01-24T10:59:08.505Z</time>
      </trkpt>
      <trkpt lat="48.72646" lon="2.44053">
        <ele>31</ele>
        <time>2023-01-24T10:59:13.109Z</time>
      </trkpt>
      <trkpt lat="48.7265" lon="2.44062">
        <ele>31</ele>
        <time>2023-01-24T10:59:17.663Z</time>
      </trkpt>
      <trkpt lat="48.72654" lon="2.44069">
        <ele>32</ele>
        <time>2023-01-24T10:59:22.097Z</time>
      </trkpt>
      <trkpt lat="48.72658" lon="2.44074">
        <ele>31</ele>
        <time>2023-01-24T10:59:26.450Z</time>
      </trkpt>
      <trkpt lat="48.72662" lon="2.44081">
        <ele>31</ele>
        <time>2023-01-24T10:59:30.910Z</time>
      </trkpt>
      <trkpt lat="48.72666" lon="2.44087">
        <ele>31</ele>
        <time>2023-01-24T10:59:35.387Z</time>
      </trkpt>
      <trkpt lat="48.72669" lon="2.44091">
        <ele>31</ele>
        <time>2023-01-24T10:59:39.370Z</time>
      </trkpt>
      <trkpt lat="48.72672" lon="2.44098">
        <ele>30</ele>
        <time>2023-01-24T10:59:43.968Z</time>
      </trkpt>
      <trkpt lat="48.72674" lon="2.44107">
        <ele>30</ele>
        <time>2023-01-24T10:59:48.387Z</time>
      </trkpt>
      <trkpt lat="48.72677" lon="2.44114">
        <ele>30</ele>
        <time>2023-01-24T10:59:52.683Z</time>
      </trkpt>
      <trkpt lat="48.7268" lon="2.44123">
        <ele>30</ele>
        <time>2023-01-24T10:59:57.089Z</time>
      </trkpt>
      <trkpt lat="48.72684" lon="2.4413">
        <ele>31</ele>
        <time>2023-01-24T11:00:01.289Z</time>
      </trkpt>
      <trkpt lat="48.72688" lon="2.44136">
        <ele>31</ele>
        <time>2023-01-24T11:00:05.625Z</time>
      </trkpt>
      <trkpt lat="48.7269" lon="2.44146">
        <ele>31</ele>
        <time>2023-01-24T11:00:09.693Z</time>
      </trkpt>
      <trkpt lat="48.72693" lon="2.44154">
        <ele>30</ele>
        <time>2023-01-24T11:00:13.699Z</time>
      </trkpt>
      <trkpt lat="48.72695" lon="2.44161">
        <ele>30</ele>
        <time>2023-01-24T11:00:18.206Z</time>
      </trkpt>
      <trkpt lat="48.72698" lon="2.44168">
        <ele>30</ele>
        <time>2023-01-24T11:00:22.212Z</time>
      </trkpt>
      <trkpt lat="48.72702" lon="2.44175">
        <ele>30</ele>
        <time>2023-01-24T11:00:26.723Z</time>
      </trkpt>
      <trkpt lat="48.72705" lon="2.44182">
        <ele>29</ele>
        <time>2023-01-24T11:00:30.828Z</time>
      </trkpt>
      <trkpt lat="48.7271" lon="2.44184">
        <ele>31</ele>
        <time>2023-01-24T11:00:34.834Z</time>
      </trkpt>
      <trkpt lat="48.72713" lon="2.44186">
        <ele>31</ele>
        <time>2023-01-24T11:00:38.840Z</time>
      </trkpt>
      <trkpt lat="48.72716" lon="2.44197">
        <ele>31</ele>
        <time>2023-01-24T11:00:43.347Z</time>
      </trkpt>
      <trkpt lat="48.72717" lon="2.44209">
        <ele>31</ele>
        <time>2023-01-24T11:00:47.853Z</time>
      </trkpt>
      <trkpt lat="48.7272" lon="2.44216">
        <ele>31</ele>
        <time>2023-01-24T11:00:51.859Z</time>
      </trkpt>
      <trkpt lat="48.72723" lon="2.44224">
        <ele>31</ele>
        <time>2023-01-24T11:00:56.364Z</time>
      </trkpt>
      <trkpt lat="48.72724" lon="2.44233">
        <ele>31</ele>
        <time>2023-01-24T11:01:00.468Z</time>
      </trkpt>
      <trkpt lat="48.72728" lon="2.4424">
        <ele>31</ele>
        <time>2023-01-24T11:01:04.972Z</time>
      </trkpt>
      <trkpt lat="48.7273" lon="2.44247">
        <ele>31</ele>
        <time>2023-01-24T11:01:08.995Z</time>
      </trkpt>
      <trkpt lat="48.72733" lon="2.44253">
        <ele>31</ele>
        <time>2023-01-24T11:01:13.037Z</time>
      </trkpt>
      <trkpt lat="48.72736" lon="2.44262">
        <ele>31</ele>
        <time>2023-01-24T11:01:17.541Z</time>
      </trkpt>
      <trkpt lat="48.7274" lon="2.44267">
        <ele>33</ele>
        <time>2023-01-24T11:01:21.644Z</time>
      </trkpt>
      <trkpt lat="48.72745" lon="2.4427">
        <ele>33</ele>
        <time>2023-01-24T11:01:26.146Z</time>
      </trkpt>
      <trkpt lat="48.7275" lon="2.44272">
        <ele>33</ele>
        <time>2023-01-24T11:01:30.149Z</time>
      </trkpt>
      <trkpt lat="48.72754" lon="2.44274">
        <ele>33</ele>
        <time>2023-01-24T11:01:34.154Z</time>
      </trkpt>
      <trkpt lat="48.72759" lon="2.44276">
        <ele>33</ele>
        <time>2023-01-24T11:01:38.756Z</time>
      </trkpt>
      <trkpt lat="48.72764" lon="2.44279">
        <ele>33</ele>
        <time>2023-01-24T11:01:42.798Z</time>
      </trkpt>
      <trkpt lat="48.72769" lon="2.44281">
        <ele>33</ele>
        <time>2023-01-24T11:01:46.800Z</time>
      </trkpt>
      <trkpt lat="48.72773" lon="2.44285">
        <ele>33</ele>
        <time>2023-01-24T11:01:51.303Z</time>
      </trkpt>
      <trkpt lat="48.72779" lon="2.44286">
        <ele>33</ele>
        <time>2023-01-24T11:01:55.305Z</time>
      </trkpt>
      <trkpt lat="48.72785" lon="2.44285">
        <ele>33</ele>
        <time>2023-01-24T11:01:59.307Z</time>
      </trkpt>
      <trkpt lat="48.72791" lon="2.44285">
        <ele>33</ele>
        <time>2023-01-24T11:02:03.329Z</time>
      </trkpt>
      <trkpt lat="48.72798" lon="2.44287">
        <ele>33</ele>
        <time>2023-01-24T11:02:07.833Z</time>
      </trkpt>
      <trkpt lat="48.72804" lon="2.44289">
        <ele>33</ele>
        <time>2023-01-24T11:02:11.835Z</time>
      </trkpt>
      <trkpt lat="48.72809" lon="2.44291">
        <ele>33</ele>
        <time>2023-01-24T11:02:15.857Z</time>
      </trkpt>
      <trkpt lat="48.72814" lon="2.44294">
        <ele>33</ele>
        <time>2023-01-24T11:02:20.379Z</time>
      </trkpt>
      <trkpt lat="48.72817" lon="2.44296">
        <ele>33</ele>
        <time>2023-01-24T11:02:24.560Z</time>
      </trkpt>
      <trkpt lat="48.7282" lon="2.443">
        <ele>34</ele>
        <time>2023-01-24T11:02:28.662Z</time>
      </trkpt>
      <trkpt lat="48.72823" lon="2.44303">
        <ele>34</ele>
        <time>2023-01-24T11:02:33.184Z</time>
      </trkpt>
      <trkpt lat="48.72823" lon="2.44306">
        <ele>34</ele>
        <time>2023-01-24T11:02:37.206Z</time>
      </trkpt>
      <trkpt lat="48.72827" lon="2.4431">
        <ele>34</ele>
        <time>2023-01-24T11:02:41.427Z</time>
      </trkpt>
      <trkpt lat="48.72834" lon="2.44315">
        <ele>34</ele>
        <time>2023-01-24T11:02:45.929Z</time>
      </trkpt>
      <trkpt lat="48.72842" lon="2.44317">
        <ele>34</ele>
        <time>2023-01-24T11:02:50.491Z</time>
      </trkpt>
      <trkpt lat="48.72848" lon="2.44317">
        <ele>33</ele>
        <time>2023-01-24T11:02:54.591Z</time>
      </trkpt>
      <trkpt lat="48.72854" lon="2.44315">
        <ele>33</ele>
        <time>2023-01-24T11:02:59.094Z</time>
      </trkpt>
      <trkpt lat="48.7286" lon="2.44315">
        <ele>33</ele>
        <time>2023-01-24T11:03:03.234Z</time>
      </trkpt>
      <trkpt lat="48.72865" lon="2.44317">
        <ele>33</ele>
        <time>2023-01-24T11:03:07.237Z</time>
      </trkpt>
      <trkpt lat="48.72871" lon="2.44321">
        <ele>33</ele>
        <time>2023-01-24T11:03:11.298Z</time>
      </trkpt>
      <trkpt lat="48.72878" lon="2.44324">
        <ele>32</ele>
        <time>2023-01-24T11:03:15.400Z</time>
      </trkpt>
      <trkpt lat="48.72884" lon="2.44326">
        <ele>32</ele>
        <time>2023-01-24T11:03:19.522Z</time>
      </trkpt>
      <trkpt lat="48.7289" lon="2.44328">
        <ele>32</ele>
        <time>2023-01-24T11:03:23.684Z</time>
      </trkpt>
      <trkpt lat="48.72896" lon="2.44331">
        <ele>32</ele>
        <time>2023-01-24T11:03:28.386Z</time>
      </trkpt>
      <trkpt lat="48.72902" lon="2.44334">
        <ele>32</ele>
        <time>2023-01-24T11:03:32.940Z</time>
      </trkpt>
      <trkpt lat="48.72909" lon="2.44337">
        <ele>31</ele>
        <time>2023-01-24T11:03:36.950Z</time>
      </trkpt>
      <trkpt lat="48.72914" lon="2.44338">
        <ele>31</ele>
        <time>2023-01-24T11:03:41.453Z</time>
      </trkpt>
      <trkpt lat="48.7292" lon="2.4434">
        <ele>31</ele>
        <time>2023-01-24T11:03:45.975Z</time>
      </trkpt>
      <trkpt lat="48.72929" lon="2.44343">
        <ele>31</ele>
        <time>2023-01-24T11:03:50.478Z</time>
      </trkpt>
      <trkpt lat="48.72937" lon="2.44344">
        <ele>31</ele>
        <time>2023-01-24T11:03:54.480Z</time>
      </trkpt>
      <trkpt lat="48.72943" lon="2.44347">
        <ele>31</ele>
        <time>2023-01-24T11:03:58.983Z</time>
      </trkpt>
      <trkpt lat="48.72948" lon="2.44349">
        <ele>30</ele>
        <time>2023-01-24T11:04:02.987Z</time>
      </trkpt>
      <trkpt lat="48.72954" lon="2.4435">
        <ele>30</ele>
        <time>2023-01-24T11:04:06.990Z</time>
      </trkpt>
      <trkpt lat="48.72962" lon="2.44353">
        <ele>30</ele>
        <time>2023-01-24T11:04:11.492Z</time>
      </trkpt>
      <trkpt lat="48.72968" lon="2.44356">
        <ele>30</ele>
        <time>2023-01-24T11:04:15.513Z</time>
      </trkpt>
      <trkpt lat="48.72975" lon="2.44358">
        <ele>30</ele>
        <time>2023-01-24T11:04:19.516Z</time>
      </trkpt>
      <trkpt lat="48.72981" lon="2.44359">
        <ele>30</ele>
        <time>2023-01-24T11:04:23.518Z</time>
      </trkpt>
      <trkpt lat="48.72986" lon="2.4436">
        <ele>30</ele>
        <time>2023-01-24T11:04:27.621Z</time>
      </trkpt>
      <trkpt lat="48.72994" lon="2.44361">
        <ele>30</ele>
        <time>2023-01-24T11:04:32.325Z</time>
      </trkpt>
      <trkpt lat="48.73001" lon="2.44363">
        <ele>30</ele>
        <time>2023-01-24T11:04:36.901Z</time>
      </trkpt>
      <trkpt lat="48.73006" lon="2.44365">
        <ele>30</ele>
        <time>2023-01-24T11:04:40.632Z</time>
      </trkpt>
      <trkpt lat="48.73011" lon="2.44367">
        <ele>30</ele>
        <time>2023-01-24T11:04:45.242Z</time>
      </trkpt>
      <trkpt lat="48.73014" lon="2.44369">
        <ele>30</ele>
        <time>2023-01-24T11:04:49.249Z</time>
      </trkpt>
      <trkpt lat="48.73018" lon="2.4437">
        <ele>30</ele>
        <time>2023-01-24T11:04:53.758Z</time>
      </trkpt>
      <trkpt lat="48.73025" lon="2.4437">
        <ele>30</ele>
        <time>2023-01-24T11:04:57.764Z</time>
      </trkpt>
      <trkpt lat="48.73031" lon="2.4437">
        <ele>30</ele>
        <time>2023-01-24T11:05:01.768Z</time>
      </trkpt>
      <trkpt lat="48.73037" lon="2.44373">
        <ele>30</ele>
        <time>2023-01-24T11:05:05.774Z</time>
      </trkpt>
      <trkpt lat="48.73043" lon="2.44374">
        <ele>30</ele>
        <time>2023-01-24T11:05:09.780Z</time>
      </trkpt>
      <trkpt lat="48.73049" lon="2.44375">
        <ele>30</ele>
        <time>2023-01-24T11:05:13.787Z</time>
      </trkpt>
      <trkpt lat="48.73057" lon="2.44377">
        <ele>29</ele>
        <time>2023-01-24T11:05:18.808Z</time>
      </trkpt>
      <trkpt lat="48.73065" lon="2.44377">
        <ele>29</ele>
        <time>2023-01-24T11:05:22.399Z</time>
      </trkpt>
      <trkpt lat="48.73072" lon="2.44378">
        <ele>30</ele>
        <time>2023-01-24T11:05:26.404Z</time>
      </trkpt>
      <trkpt lat="48.73078" lon="2.44378">
        <ele>30</ele>
        <time>2023-01-24T11:05:30.409Z</time>
      </trkpt>
      <trkpt lat="48.73086" lon="2.4438">
        <ele>30</ele>
        <time>2023-01-24T11:05:34.513Z</time>
      </trkpt>
      <trkpt lat="48.73092" lon="2.4438">
        <ele>30</ele>
        <time>2023-01-24T11:05:39.020Z</time>
      </trkpt>
      <trkpt lat="48.73098" lon="2.44381">
        <ele>31</ele>
        <time>2023-01-24T11:05:42.622Z</time>
      </trkpt>
      <trkpt lat="48.73105" lon="2.44381">
        <ele>31</ele>
        <time>2023-01-24T11:05:47.125Z</time>
      </trkpt>
      <trkpt lat="48.73113" lon="2.44382">
        <ele>31</ele>
        <time>2023-01-24T11:05:51.628Z</time>
      </trkpt>
      <trkpt lat="48.73121" lon="2.44383">
        <ele>31</ele>
        <time>2023-01-24T11:05:56.130Z</time>
      </trkpt>
      <trkpt lat="48.73129" lon="2.44384">
        <ele>31</ele>
        <time>2023-01-24T11:06:00.637Z</time>
      </trkpt>
      <trkpt lat="48.73134" lon="2.44384">
        <ele>31</ele>
        <time>2023-01-24T11:06:04.640Z</time>
      </trkpt>
      <trkpt lat="48.73141" lon="2.44384">
        <ele>31</ele>
        <time>2023-01-24T11:06:08.644Z</time>
      </trkpt>
      <trkpt lat="48.73149" lon="2.44385">
        <ele>31</ele>
        <time>2023-01-24T11:06:13.248Z</time>
      </trkpt>
      <trkpt lat="48.73155" lon="2.44385">
        <ele>29</ele>
        <time>2023-01-24T11:06:17.753Z</time>
      </trkpt>
      <trkpt lat="48.73161" lon="2.44385">
        <ele>29</ele>
        <time>2023-01-24T11:06:21.761Z</time>
      </trkpt>
      <trkpt lat="48.73168" lon="2.44386">
        <ele>29</ele>
        <time>2023-01-24T11:06:26.269Z</time>
      </trkpt>
      <trkpt lat="48.73175" lon="2.44386">
        <ele>29</ele>
        <time>2023-01-24T11:06:30.776Z</time>
      </trkpt>
      <trkpt lat="48.73181" lon="2.44386">
        <ele>30</ele>
        <time>2023-01-24T11:06:34.781Z</time>
      </trkpt>
      <trkpt lat="48.73187" lon="2.44386">
        <ele>30</ele>
        <time>2023-01-24T11:06:38.786Z</time>
      </trkpt>
      <trkpt lat="48.73194" lon="2.44386">
        <ele>30</ele>
        <time>2023-01-24T11:06:43.291Z</time>
      </trkpt>
      <trkpt lat="48.73201" lon="2.44387">
        <ele>30</ele>
        <time>2023-01-24T11:06:47.796Z</time>
      </trkpt>
      <trkpt lat="48.73207" lon="2.44387">
        <ele>30</ele>
        <time>2023-01-24T11:06:51.803Z</time>
      </trkpt>
      <trkpt lat="48.73213" lon="2.44387">
        <ele>32</ele>
        <time>2023-01-24T11:06:56.344Z</time>
      </trkpt>
      <trkpt lat="48.73218" lon="2.44387">
        <ele>32</ele>
        <time>2023-01-24T11:07:00.513Z</time>
      </trkpt>
      <trkpt lat="48.73225" lon="2.44388">
        <ele>32</ele>
        <time>2023-01-24T11:07:05.018Z</time>
      </trkpt>
      <trkpt lat="48.73231" lon="2.44388">
        <ele>32</ele>
        <time>2023-01-24T11:07:09.022Z</time>
      </trkpt>
      <trkpt lat="48.73237" lon="2.44388">
        <ele>33</ele>
        <time>2023-01-24T11:07:13.026Z</time>
      </trkpt>
      <trkpt lat="48.73243" lon="2.44389">
        <ele>33</ele>
        <time>2023-01-24T11:07:17.530Z</time>
      </trkpt>
      <trkpt lat="48.73249" lon="2.44388">
        <ele>33</ele>
        <time>2023-01-24T11:07:22.032Z</time>
      </trkpt>
      <trkpt lat="48.73256" lon="2.44389">
        <ele>33</ele>
        <time>2023-01-24T11:07:26.537Z</time>
      </trkpt>
      <trkpt lat="48.73263" lon="2.44388">
        <ele>33</ele>
        <time>2023-01-24T11:07:30.541Z</time>
      </trkpt>
      <trkpt lat="48.73268" lon="2.44388">
        <ele>32</ele>
        <time>2023-01-24T11:07:34.545Z</time>
      </trkpt>
      <trkpt lat="48.73275" lon="2.44388">
        <ele>32</ele>
        <time>2023-01-24T11:07:38.548Z</time>
      </trkpt>
      <trkpt lat="48.73282" lon="2.44388">
        <ele>32</ele>
        <time>2023-01-24T11:07:43.051Z</time>
      </trkpt>
      <trkpt lat="48.73288" lon="2.44388">
        <ele>32</ele>
        <time>2023-01-24T11:07:47.054Z</time>
      </trkpt>
      <trkpt lat="48.73293" lon="2.44389">
        <ele>33</ele>
        <time>2023-01-24T11:07:51.059Z</time>
      </trkpt>
      <trkpt lat="48.73301" lon="2.44388">
        <ele>33</ele>
        <time>2023-01-24T11:07:55.562Z</time>
      </trkpt>
      <trkpt lat="48.73308" lon="2.44388">
        <ele>33</ele>
        <time>2023-01-24T11:08:00.065Z</time>
      </trkpt>
      <trkpt lat="48.73315" lon="2.44388">
        <ele>33</ele>
        <time>2023-01-24T11:08:04.571Z</time>
      </trkpt>
      <trkpt lat="48.73322" lon="2.44387">
        <ele>32</ele>
        <time>2023-01-24T11:08:09.076Z</time>
      </trkpt>
      <trkpt lat="48.7333" lon="2.44387">
        <ele>32</ele>
        <time>2023-01-24T11:08:13.581Z</time>
      </trkpt>
      <trkpt lat="48.73337" lon="2.44387">
        <ele>32</ele>
        <time>2023-01-24T11:08:18.084Z</time>
      </trkpt>
      <trkpt lat="48.73344" lon="2.44387">
        <ele>32</ele>
        <time>2023-01-24T11:08:22.587Z</time>
      </trkpt>
      <trkpt lat="48.7335" lon="2.44388">
        <ele>31</ele>
        <time>2023-01-24T11:08:27.092Z</time>
      </trkpt>
      <trkpt lat="48.73356" lon="2.44387">
        <ele>31</ele>
        <time>2023-01-24T11:08:31.096Z</time>
      </trkpt>
      <trkpt lat="48.73361" lon="2.44386">
        <ele>31</ele>
        <time>2023-01-24T11:08:35.098Z</time>
      </trkpt>
      <trkpt lat="48.73369" lon="2.44386">
        <ele>31</ele>
        <time>2023-01-24T11:08:39.602Z</time>
      </trkpt>
      <trkpt lat="48.73375" lon="2.44386">
        <ele>31</ele>
        <time>2023-01-24T11:08:44.106Z</time>
      </trkpt>
      <trkpt lat="48.7338" lon="2.44385">
        <ele>32</ele>
        <time>2023-01-24T11:08:48.112Z</time>
      </trkpt>
      <trkpt lat="48.73383" lon="2.44384">
        <ele>32</ele>
        <time>2023-01-24T11:08:52.616Z</time>
      </trkpt>
      <trkpt lat="48.7339" lon="2.44383">
        <ele>32</ele>
        <time>2023-01-24T11:08:56.619Z</time>
      </trkpt>
      <trkpt lat="48.73396" lon="2.44384">
        <ele>32</ele>
        <time>2023-01-24T11:09:00.623Z</time>
      </trkpt>
      <trkpt lat="48.73402" lon="2.44388">
        <ele>32</ele>
        <time>2023-01-24T11:09:05.127Z</time>
      </trkpt>
      <trkpt lat="48.73409" lon="2.44387">
        <ele>33</ele>
        <time>2023-01-24T11:09:09.631Z</time>
      </trkpt>
      <trkpt lat="48.73417" lon="2.44387">
        <ele>33</ele>
        <time>2023-01-24T11:09:14.137Z</time>
      </trkpt>
      <trkpt lat="48.73425" lon="2.44386">
        <ele>33</ele>
        <time>2023-01-24T11:09:18.143Z</time>
      </trkpt>
      <trkpt lat="48.73431" lon="2.44385">
        <ele>32</ele>
        <time>2023-01-24T11:09:22.149Z</time>
      </trkpt>
      <trkpt lat="48.73437" lon="2.44384">
        <ele>32</ele>
        <time>2023-01-24T11:09:26.655Z</time>
      </trkpt>
      <trkpt lat="48.73444" lon="2.44384">
        <ele>32</ele>
        <time>2023-01-24T11:09:31.161Z</time>
      </trkpt>
      <trkpt lat="48.73451" lon="2.44384">
        <ele>32</ele>
        <time>2023-01-24T11:09:35.667Z</time>
      </trkpt>
      <trkpt lat="48.73458" lon="2.44382">
        <ele>32</ele>
        <time>2023-01-24T11:09:40.173Z</time>
      </trkpt>
      <trkpt lat="48.73464" lon="2.44379">
        <ele>30</ele>
        <time>2023-01-24T11:09:44.177Z</time>
      </trkpt>
      <trkpt lat="48.73471" lon="2.44378">
        <ele>30</ele>
        <time>2023-01-24T11:09:48.684Z</time>
      </trkpt>
      <trkpt lat="48.73478" lon="2.44378">
        <ele>30</ele>
        <time>2023-01-24T11:09:52.687Z</time>
      </trkpt>
      <trkpt lat="48.73486" lon="2.44378">
        <ele>30</ele>
        <time>2023-01-24T11:09:57.191Z</time>
      </trkpt>
      <trkpt lat="48.73493" lon="2.44377">
        <ele>31</ele>
        <time>2023-01-24T11:10:01.195Z</time>
      </trkpt>
      <trkpt lat="48.73499" lon="2.44375">
        <ele>31</ele>
        <time>2023-01-24T11:10:05.199Z</time>
      </trkpt>
      <trkpt lat="48.73506" lon="2.44374">
        <ele>30</ele>
        <time>2023-01-24T11:10:09.780Z</time>
      </trkpt>
      <trkpt lat="48.73514" lon="2.44372">
        <ele>29</ele>
        <time>2023-01-24T11:10:14.362Z</time>
      </trkpt>
      <trkpt lat="48.7352" lon="2.44371">
        <ele>29</ele>
        <time>2023-01-24T11:10:18.365Z</time>
      </trkpt>
      <trkpt lat="48.73526" lon="2.44369">
        <ele>29</ele>
        <time>2023-01-24T11:10:22.868Z</time>
      </trkpt>
      <trkpt lat="48.73533" lon="2.44366">
        <ele>29</ele>
        <time>2023-01-24T11:10:27.371Z</time>
      </trkpt>
      <trkpt lat="48.7354" lon="2.44363">
        <ele>29</ele>
        <time>2023-01-24T11:10:31.894Z</time>
      </trkpt>
      <trkpt lat="48.73546" lon="2.44361">
        <ele>29</ele>
        <time>2023-01-24T11:10:36.397Z</time>
      </trkpt>
      <trkpt lat="48.7355" lon="2.44358">
        <ele>29</ele>
        <time>2023-01-24T11:10:40.500Z</time>
      </trkpt>
      <trkpt lat="48.73555" lon="2.44353">
        <ele>29</ele>
        <time>2023-01-24T11:10:44.503Z</time>
      </trkpt>
      <trkpt lat="48.7356" lon="2.44355">
        <ele>29</ele>
        <time>2023-01-24T11:10:48.606Z</time>
      </trkpt>
      <trkpt lat="48.73568" lon="2.44354">
        <ele>29</ele>
        <time>2023-01-24T11:10:53.347Z</time>
      </trkpt>
      <trkpt lat="48.73575" lon="2.44351">
        <ele>31</ele>
        <time>2023-01-24T11:10:57.369Z</time>
      </trkpt>
      <trkpt lat="48.73582" lon="2.44348">
        <ele>31</ele>
        <time>2023-01-24T11:11:01.709Z</time>
      </trkpt>
      <trkpt lat="48.73585" lon="2.44347">
        <ele>34</ele>
        <time>2023-01-24T11:11:05.471Z</time>
      </trkpt>
      <trkpt lat="48.73589" lon="2.44342">
        <ele>34</ele>
        <time>2023-01-24T11:11:10.095Z</time>
      </trkpt>
      <trkpt lat="48.73595" lon="2.44337">
        <ele>34</ele>
        <time>2023-01-24T11:11:14.097Z</time>
      </trkpt>
      <trkpt lat="48.73601" lon="2.44338">
        <ele>32</ele>
        <time>2023-01-24T11:11:18.240Z</time>
      </trkpt>
      <trkpt lat="48.73608" lon="2.44333">
        <ele>32</ele>
        <time>2023-01-24T11:11:22.582Z</time>
      </trkpt>
      <trkpt lat="48.73615" lon="2.4433">
        <ele>32</ele>
        <time>2023-01-24T11:11:26.882Z</time>
      </trkpt>
      <trkpt lat="48.73622" lon="2.44325">
        <ele>32</ele>
        <time>2023-01-24T11:11:31.044Z</time>
      </trkpt>
      <trkpt lat="48.7363" lon="2.44322">
        <ele>32</ele>
        <time>2023-01-24T11:11:35.587Z</time>
      </trkpt>
      <trkpt lat="48.73635" lon="2.44318">
        <ele>32</ele>
        <time>2023-01-24T11:11:39.849Z</time>
      </trkpt>
      <trkpt lat="48.73642" lon="2.44314">
        <ele>32</ele>
        <time>2023-01-24T11:11:44.119Z</time>
      </trkpt>
      <trkpt lat="48.73648" lon="2.44311">
        <ele>32</ele>
        <time>2023-01-24T11:11:48.530Z</time>
      </trkpt>
      <trkpt lat="48.73654" lon="2.44307">
        <ele>30</ele>
        <time>2023-01-24T11:11:52.331Z</time>
      </trkpt>
      <trkpt lat="48.7366" lon="2.44304">
        <ele>30</ele>
        <time>2023-01-24T11:11:56.733Z</time>
      </trkpt>
      <trkpt lat="48.73667" lon="2.44301">
        <ele>30</ele>
        <time>2023-01-24T11:12:00.994Z</time>
      </trkpt>
      <trkpt lat="48.73672" lon="2.44298">
        <ele>30</ele>
        <time>2023-01-24T11:12:05.316Z</time>
      </trkpt>
      <trkpt lat="48.73678" lon="2.44294">
        <ele>30</ele>
        <time>2023-01-24T11:12:09.387Z</time>
      </trkpt>
      <trkpt lat="48.73683" lon="2.4429">
        <ele>31</ele>
        <time>2023-01-24T11:12:13.298Z</time>
      </trkpt>
      <trkpt lat="48.73686" lon="2.44286">
        <ele>31</ele>
        <time>2023-01-24T11:12:17.960Z</time>
      </trkpt>
      <trkpt lat="48.73686" lon="2.44284">
        <ele>31</ele>
        <time>2023-01-24T11:12:22.622Z</time>
      </trkpt>
      <trkpt lat="48.73686" lon="2.44285">
        <ele>31</ele>
        <time>2023-01-24T11:12:27.904Z</time>
      </trkpt>
      <trkpt lat="48.73687" lon="2.44287">
        <ele>31</ele>
        <time>2023-01-24T11:12:32.805Z</time>
      </trkpt>
      <trkpt lat="48.7369" lon="2.44288">
        <ele>31</ele>
        <time>2023-01-24T11:12:37.310Z</time>
      </trkpt>
      <trkpt lat="48.73696" lon="2.44284">
        <ele>31</ele>
        <time>2023-01-24T11:12:41.853Z</time>
      </trkpt>
      <trkpt lat="48.73704" lon="2.44276">
        <ele>31</ele>
        <time>2023-01-24T11:13:22.994Z</time>
      </trkpt>
      <trkpt lat="48.73705" lon="2.44275">
        <ele>31</ele>
        <time>2023-01-24T11:13:27.106Z</time>
      </trkpt>
      <trkpt lat="48.73705" lon="2.44275">
        <ele>31</ele>
        <time>2023-01-24T11:13:31.107Z</time>
      </trkpt>
      <trkpt lat="48.73705" lon="2.44275">
        <ele>31</ele>
        <time>2023-01-24T11:13:36.083Z</time>
      </trkpt>
      <trkpt lat="48.73706" lon="2.44274">
        <ele>31</ele>
        <time>2023-01-24T11:13:40.082Z</time>
      </trkpt>
      <trkpt lat="48.73707" lon="2.44272">
        <ele>31</ele>
        <time>2023-01-24T11:13:44.128Z</time>
      </trkpt>
      <trkpt lat="48.73712" lon="2.44266">
        <ele>31</ele>
        <time>2023-01-24T11:13:48.209Z</time>
      </trkpt>
      <trkpt lat="48.73717" lon="2.44261">
        <ele>32</ele>
        <time>2023-01-24T11:13:52.451Z</time>
      </trkpt>
      <trkpt lat="48.73722" lon="2.44256">
        <ele>32</ele>
        <time>2023-01-24T11:13:57.113Z</time>
      </trkpt>
      <trkpt lat="48.73727" lon="2.44252">
        <ele>32</ele>
        <time>2023-01-24T11:14:01.329Z</time>
      </trkpt>
      <trkpt lat="48.73732" lon="2.44248">
        <ele>32</ele>
        <time>2023-01-24T11:14:05.455Z</time>
      </trkpt>
      <trkpt lat="48.73737" lon="2.44244">
        <ele>32</ele>
        <time>2023-01-24T11:14:10.178Z</time>
      </trkpt>
      <trkpt lat="48.73742" lon="2.44241">
        <ele>32</ele>
        <time>2023-01-24T11:14:14.479Z</time>
      </trkpt>
      <trkpt lat="48.73747" lon="2.44237">
        <ele>32</ele>
        <time>2023-01-24T11:14:19.043Z</time>
      </trkpt>
      <trkpt lat="48.73754" lon="2.44231">
        <ele>33</ele>
        <time>2023-01-24T11:14:23.566Z</time>
      </trkpt>
      <trkpt lat="48.73758" lon="2.44227">
        <ele>33</ele>
        <time>2023-01-24T11:14:27.569Z</time>
      </trkpt>
      <trkpt lat="48.73764" lon="2.44227">
        <ele>30</ele>
        <time>2023-01-24T11:14:31.574Z</time>
      </trkpt>
      <trkpt lat="48.7377" lon="2.44223">
        <ele>30</ele>
        <time>2023-01-24T11:14:36.077Z</time>
      </trkpt>
      <trkpt lat="48.73778" lon="2.44219">
        <ele>30</ele>
        <time>2023-01-24T11:14:40.582Z</time>
      </trkpt>
      <trkpt lat="48.73784" lon="2.44215">
        <ele>30</ele>
        <time>2023-01-24T11:14:44.584Z</time>
      </trkpt>
      <trkpt lat="48.7379" lon="2.4421">
        <ele>30</ele>
        <time>2023-01-24T11:14:49.100Z</time>
      </trkpt>
      <trkpt lat="48.73794" lon="2.44207">
        <ele>30</ele>
        <time>2023-01-24T11:14:53.193Z</time>
      </trkpt>
      <trkpt lat="48.73798" lon="2.44203">
        <ele>30</ele>
        <time>2023-01-24T11:14:57.195Z</time>
      </trkpt>
      <trkpt lat="48.73802" lon="2.44199">
        <ele>30</ele>
        <time>2023-01-24T11:15:01.699Z</time>
      </trkpt>
      <trkpt lat="48.73807" lon="2.44193">
        <ele>30</ele>
        <time>2023-01-24T11:15:06.387Z</time>
      </trkpt>
      <trkpt lat="48.73812" lon="2.44188">
        <ele>30</ele>
        <time>2023-01-24T11:15:11.008Z</time>
      </trkpt>
      <trkpt lat="48.73818" lon="2.44181">
        <ele>30</ele>
        <time>2023-01-24T11:15:15.513Z</time>
      </trkpt>
      <trkpt lat="48.73823" lon="2.44175">
        <ele>32</ele>
        <time>2023-01-24T11:15:19.518Z</time>
      </trkpt>
      <trkpt lat="48.73827" lon="2.44169">
        <ele>32</ele>
        <time>2023-01-24T11:15:23.522Z</time>
      </trkpt>
      <trkpt lat="48.73832" lon="2.44162">
        <ele>32</ele>
        <time>2023-01-24T11:15:27.526Z</time>
      </trkpt>
      <trkpt lat="48.73837" lon="2.44157">
        <ele>32</ele>
        <time>2023-01-24T11:15:31.531Z</time>
      </trkpt>
      <trkpt lat="48.73842" lon="2.44152">
        <ele>32</ele>
        <time>2023-01-24T11:15:35.535Z</time>
      </trkpt>
      <trkpt lat="48.73848" lon="2.44148">
        <ele>32</ele>
        <time>2023-01-24T11:15:39.638Z</time>
      </trkpt>
      <trkpt lat="48.73853" lon="2.44144">
        <ele>32</ele>
        <time>2023-01-24T11:15:44.182Z</time>
      </trkpt>
      <trkpt lat="48.73858" lon="2.44139">
        <ele>32</ele>
        <time>2023-01-24T11:15:48.185Z</time>
      </trkpt>
      <trkpt lat="48.73863" lon="2.44132">
        <ele>32</ele>
        <time>2023-01-24T11:15:52.729Z</time>
      </trkpt>
      <trkpt lat="48.73868" lon="2.44126">
        <ele>32</ele>
        <time>2023-01-24T11:15:57.253Z</time>
      </trkpt>
      <trkpt lat="48.73872" lon="2.4412">
        <ele>33</ele>
        <time>2023-01-24T11:16:01.757Z</time>
      </trkpt>
      <trkpt lat="48.73877" lon="2.44116">
        <ele>30</ele>
        <time>2023-01-24T11:16:05.761Z</time>
      </trkpt>
      <trkpt lat="48.73883" lon="2.4411">
        <ele>30</ele>
        <time>2023-01-24T11:16:10.267Z</time>
      </trkpt>
      <trkpt lat="48.73888" lon="2.44105">
        <ele>30</ele>
        <time>2023-01-24T11:16:14.272Z</time>
      </trkpt>
      <trkpt lat="48.73893" lon="2.44099">
        <ele>30</ele>
        <time>2023-01-24T11:16:18.807Z</time>
      </trkpt>
      <trkpt lat="48.73898" lon="2.44094">
        <ele>31</ele>
        <time>2023-01-24T11:16:22.998Z</time>
      </trkpt>
      <trkpt lat="48.73904" lon="2.44088">
        <ele>30</ele>
        <time>2023-01-24T11:16:27.502Z</time>
      </trkpt>
      <trkpt lat="48.73909" lon="2.44083">
        <ele>30</ele>
        <time>2023-01-24T11:16:31.585Z</time>
      </trkpt>
      <trkpt lat="48.73914" lon="2.44077">
        <ele>30</ele>
        <time>2023-01-24T11:16:36.148Z</time>
      </trkpt>
      <trkpt lat="48.73919" lon="2.44071">
        <ele>30</ele>
        <time>2023-01-24T11:16:40.152Z</time>
      </trkpt>
      <trkpt lat="48.73924" lon="2.44065">
        <ele>30</ele>
        <time>2023-01-24T11:16:44.175Z</time>
      </trkpt>
      <trkpt lat="48.73929" lon="2.44058">
        <ele>30</ele>
        <time>2023-01-24T11:16:48.678Z</time>
      </trkpt>
      <trkpt lat="48.73934" lon="2.44051">
        <ele>32</ele>
        <time>2023-01-24T11:16:53.201Z</time>
      </trkpt>
      <trkpt lat="48.73938" lon="2.44047">
        <ele>32</ele>
        <time>2023-01-24T11:16:57.204Z</time>
      </trkpt>
      <trkpt lat="48.73943" lon="2.44041">
        <ele>31</ele>
        <time>2023-01-24T11:17:01.728Z</time>
      </trkpt>
      <trkpt lat="48.73948" lon="2.44035">
        <ele>31</ele>
        <time>2023-01-24T11:17:05.791Z</time>
      </trkpt>
      <trkpt lat="48.73954" lon="2.44028">
        <ele>31</ele>
        <time>2023-01-24T11:17:10.294Z</time>
      </trkpt>
      <trkpt lat="48.73959" lon="2.44023">
        <ele>30</ele>
        <time>2023-01-24T11:17:14.398Z</time>
      </trkpt>
      <trkpt lat="48.73964" lon="2.44017">
        <ele>30</ele>
        <time>2023-01-24T11:17:18.903Z</time>
      </trkpt>
      <trkpt lat="48.73969" lon="2.44012">
        <ele>30</ele>
        <time>2023-01-24T11:17:22.907Z</time>
      </trkpt>
      <trkpt lat="48.73974" lon="2.44005">
        <ele>30</ele>
        <time>2023-01-24T11:17:27.510Z</time>
      </trkpt>
      <trkpt lat="48.7398" lon="2.43998">
        <ele>30</ele>
        <time>2023-01-24T11:17:32.074Z</time>
      </trkpt>
      <trkpt lat="48.73986" lon="2.43991">
        <ele>30</ele>
        <time>2023-01-24T11:17:36.578Z</time>
      </trkpt>
      <trkpt lat="48.73991" lon="2.43986">
        <ele>28</ele>
        <time>2023-01-24T11:17:40.584Z</time>
      </trkpt>
      <trkpt lat="48.74" lon="2.43975">
        <ele>29</ele>
        <time>2023-01-24T11:17:53.829Z</time>
      </trkpt>
      <trkpt lat="48.74" lon="2.43974">
        <ele>29</ele>
        <time>2023-01-24T11:17:58.211Z</time>
      </trkpt>
      <trkpt lat="48.74005" lon="2.43966">
        <ele>29</ele>
        <time>2023-01-24T11:18:02.353Z</time>
      </trkpt>
      <trkpt lat="48.7401" lon="2.43958">
        <ele>31</ele>
        <time>2023-01-24T11:18:06.933Z</time>
      </trkpt>
      <trkpt lat="48.74015" lon="2.43951">
        <ele>30</ele>
        <time>2023-01-24T11:18:10.635Z</time>
      </trkpt>
      <trkpt lat="48.7402" lon="2.43944">
        <ele>30</ele>
        <time>2023-01-24T11:18:15.477Z</time>
      </trkpt>
      <trkpt lat="48.74024" lon="2.4394">
        <ele>30</ele>
        <time>2023-01-24T11:18:19.138Z</time>
      </trkpt>
      <trkpt lat="48.7403" lon="2.43935">
        <ele>30</ele>
        <time>2023-01-24T11:18:23.638Z</time>
      </trkpt>
      <trkpt lat="48.74034" lon="2.4393">
        <ele>30</ele>
        <time>2023-01-24T11:18:27.859Z</time>
      </trkpt>
      <trkpt lat="48.7404" lon="2.43923">
        <ele>30</ele>
        <time>2023-01-24T11:18:32.740Z</time>
      </trkpt>
      <trkpt lat="48.74045" lon="2.43918">
        <ele>29</ele>
        <time>2023-01-24T11:18:36.982Z</time>
      </trkpt>
      <trkpt lat="48.7405" lon="2.43913">
        <ele>29</ele>
        <time>2023-01-24T11:18:41.225Z</time>
      </trkpt>
      <trkpt lat="48.74055" lon="2.43907">
        <ele>29</ele>
        <time>2023-01-24T11:18:45.627Z</time>
      </trkpt>
      <trkpt lat="48.74061" lon="2.439">
        <ele>30</ele>
        <time>2023-01-24T11:18:50.102Z</time>
      </trkpt>
      <trkpt lat="48.74065" lon="2.43895">
        <ele>30</ele>
        <time>2023-01-24T11:18:54.066Z</time>
      </trkpt>
      <trkpt lat="48.74071" lon="2.43889">
        <ele>29</ele>
        <time>2023-01-24T11:18:58.458Z</time>
      </trkpt>
      <trkpt lat="48.74075" lon="2.43882">
        <ele>29</ele>
        <time>2023-01-24T11:19:03.060Z</time>
      </trkpt>
      <trkpt lat="48.7408" lon="2.43877">
        <ele>29</ele>
        <time>2023-01-24T11:19:07.324Z</time>
      </trkpt>
      <trkpt lat="48.74085" lon="2.43871">
        <ele>31</ele>
        <time>2023-01-24T11:19:11.466Z</time>
      </trkpt>
      <trkpt lat="48.7409" lon="2.43867">
        <ele>31</ele>
        <time>2023-01-24T11:19:15.688Z</time>
      </trkpt>
      <trkpt lat="48.74095" lon="2.43863">
        <ele>31</ele>
        <time>2023-01-24T11:19:19.791Z</time>
      </trkpt>
      <trkpt lat="48.741" lon="2.43858">
        <ele>31</ele>
        <time>2023-01-24T11:19:23.993Z</time>
      </trkpt>
      <trkpt lat="48.74106" lon="2.43854">
        <ele>31</ele>
        <time>2023-01-24T11:19:28.115Z</time>
      </trkpt>
      <trkpt lat="48.74112" lon="2.43849">
        <ele>31</ele>
        <time>2023-01-24T11:19:32.738Z</time>
      </trkpt>
      <trkpt lat="48.74116" lon="2.43844">
        <ele>31</ele>
        <time>2023-01-24T11:19:36.821Z</time>
      </trkpt>
      <trkpt lat="48.74123" lon="2.4384">
        <ele>31</ele>
        <time>2023-01-24T11:19:41.461Z</time>
      </trkpt>
      <trkpt lat="48.74128" lon="2.43837">
        <ele>31</ele>
        <time>2023-01-24T11:19:45.567Z</time>
      </trkpt>
      <trkpt lat="48.74133" lon="2.43833">
        <ele>31</ele>
        <time>2023-01-24T11:19:50.072Z</time>
      </trkpt>
      <trkpt lat="48.74138" lon="2.4383">
        <ele>31</ele>
        <time>2023-01-24T11:19:54.075Z</time>
      </trkpt>
      <trkpt lat="48.74143" lon="2.43825">
        <ele>31</ele>
        <time>2023-01-24T11:19:58.579Z</time>
      </trkpt>
      <trkpt lat="48.7415" lon="2.4382">
        <ele>31</ele>
        <time>2023-01-24T11:20:03.083Z</time>
      </trkpt>
      <trkpt lat="48.74155" lon="2.43816">
        <ele>31</ele>
        <time>2023-01-24T11:20:07.126Z</time>
      </trkpt>
      <trkpt lat="48.74163" lon="2.43812">
        <ele>31</ele>
        <time>2023-01-24T11:20:11.709Z</time>
      </trkpt>
      <trkpt lat="48.74168" lon="2.43808">
        <ele>31</ele>
        <time>2023-01-24T11:20:15.811Z</time>
      </trkpt>
      <trkpt lat="48.74174" lon="2.43805">
        <ele>31</ele>
        <time>2023-01-24T11:20:20.315Z</time>
      </trkpt>
      <trkpt lat="48.74179" lon="2.43801">
        <ele>31</ele>
        <time>2023-01-24T11:20:24.818Z</time>
      </trkpt>
      <trkpt lat="48.74184" lon="2.43797">
        <ele>30</ele>
        <time>2023-01-24T11:20:28.881Z</time>
      </trkpt>
      <trkpt lat="48.74191" lon="2.43794">
        <ele>30</ele>
        <time>2023-01-24T11:20:34.004Z</time>
      </trkpt>
      <trkpt lat="48.74196" lon="2.43791">
        <ele>32</ele>
        <time>2023-01-24T11:20:37.766Z</time>
      </trkpt>
      <trkpt lat="48.74202" lon="2.43788">
        <ele>32</ele>
        <time>2023-01-24T11:20:42.428Z</time>
      </trkpt>
      <trkpt lat="48.74206" lon="2.43786">
        <ele>32</ele>
        <time>2023-01-24T11:20:46.550Z</time>
      </trkpt>
      <trkpt lat="48.74211" lon="2.43782">
        <ele>31</ele>
        <time>2023-01-24T11:20:50.852Z</time>
      </trkpt>
      <trkpt lat="48.74215" lon="2.43778">
        <ele>31</ele>
        <time>2023-01-24T11:20:54.934Z</time>
      </trkpt>
      <trkpt lat="48.74219" lon="2.43775">
        <ele>31</ele>
        <time>2023-01-24T11:21:00.105Z</time>
      </trkpt>
      <trkpt lat="48.74224" lon="2.43772">
        <ele>31</ele>
        <time>2023-01-24T11:21:04.241Z</time>
      </trkpt>
      <trkpt lat="48.7423" lon="2.43767">
        <ele>31</ele>
        <time>2023-01-24T11:21:08.345Z</time>
      </trkpt>
      <trkpt lat="48.74236" lon="2.43762">
        <ele>33</ele>
        <time>2023-01-24T11:21:12.348Z</time>
      </trkpt>
      <trkpt lat="48.74242" lon="2.43759">
        <ele>32</ele>
        <time>2023-01-24T11:21:16.352Z</time>
      </trkpt>
      <trkpt lat="48.74248" lon="2.43754">
        <ele>32</ele>
        <time>2023-01-24T11:21:20.354Z</time>
      </trkpt>
      <trkpt lat="48.74253" lon="2.43748">
        <ele>32</ele>
        <time>2023-01-24T11:21:24.516Z</time>
      </trkpt>
      <trkpt lat="48.74258" lon="2.43743">
        <ele>32</ele>
        <time>2023-01-24T11:21:29.118Z</time>
      </trkpt>
      <trkpt lat="48.74263" lon="2.43739">
        <ele>32</ele>
        <time>2023-01-24T11:21:33.300Z</time>
      </trkpt>
      <trkpt lat="48.74269" lon="2.43738">
        <ele>32</ele>
        <time>2023-01-24T11:21:37.422Z</time>
      </trkpt>
      <trkpt lat="48.74274" lon="2.43734">
        <ele>32</ele>
        <time>2023-01-24T11:21:41.823Z</time>
      </trkpt>
      <trkpt lat="48.74279" lon="2.43726">
        <ele>32</ele>
        <time>2023-01-24T11:21:46.185Z</time>
      </trkpt>
      <trkpt lat="48.74288" lon="2.43726">
        <ele>32</ele>
        <time>2023-01-24T11:21:50.829Z</time>
      </trkpt>
      <trkpt lat="48.74293" lon="2.43722">
        <ele>31</ele>
        <time>2023-01-24T11:21:54.836Z</time>
      </trkpt>
      <trkpt lat="48.74298" lon="2.43718">
        <ele>31</ele>
        <time>2023-01-24T11:21:59.856Z</time>
      </trkpt>
      <trkpt lat="48.74298" lon="2.43716">
        <ele>31</ele>
        <time>2023-01-24T11:22:04.386Z</time>
      </trkpt>
      <trkpt lat="48.74299" lon="2.43714">
        <ele>31</ele>
        <time>2023-01-24T11:22:08.427Z</time>
      </trkpt>
      <trkpt lat="48.743" lon="2.4371">
        <ele>31</ele>
        <time>2023-01-24T11:22:12.448Z</time>
      </trkpt>
      <trkpt lat="48.74305" lon="2.43702">
        <ele>31</ele>
        <time>2023-01-24T11:22:16.973Z</time>
      </trkpt>
      <trkpt lat="48.74309" lon="2.43694">
        <ele>31</ele>
        <time>2023-01-24T11:22:21.498Z</time>
      </trkpt>
      <trkpt lat="48.7431" lon="2.43687">
        <ele>31</ele>
        <time>2023-01-24T11:22:26.024Z</time>
      </trkpt>
      <trkpt lat="48.7431" lon="2.43677">
        <ele>32</ele>
        <time>2023-01-24T11:22:30.548Z</time>
      </trkpt>
      <trkpt lat="48.7431" lon="2.43669">
        <ele>32</ele>
        <time>2023-01-24T11:22:35.072Z</time>
      </trkpt>
      <trkpt lat="48.74311" lon="2.43661">
        <ele>32</ele>
        <time>2023-01-24T11:22:39.194Z</time>
      </trkpt>
      <trkpt lat="48.74317" lon="2.43657">
        <ele>32</ele>
        <time>2023-01-24T11:22:43.212Z</time>
      </trkpt>
      <trkpt lat="48.74324" lon="2.43656">
        <ele>32</ele>
        <time>2023-01-24T11:22:47.732Z</time>
      </trkpt>
      <trkpt lat="48.74332" lon="2.43654">
        <ele>32</ele>
        <time>2023-01-24T11:22:51.748Z</time>
      </trkpt>
      <trkpt lat="48.74338" lon="2.43651">
        <ele>32</ele>
        <time>2023-01-24T11:22:56.268Z</time>
      </trkpt>
      <trkpt lat="48.74343" lon="2.4365">
        <ele>32</ele>
        <time>2023-01-24T11:23:00.789Z</time>
      </trkpt>
      <trkpt lat="48.74348" lon="2.43647">
        <ele>32</ele>
        <time>2023-01-24T11:23:05.309Z</time>
      </trkpt>
      <trkpt lat="48.74355" lon="2.43646">
        <ele>32</ele>
        <time>2023-01-24T11:23:09.831Z</time>
      </trkpt>
      <trkpt lat="48.74362" lon="2.43644">
        <ele>32</ele>
        <time>2023-01-24T11:23:13.965Z</time>
      </trkpt>
      <trkpt lat="48.74369" lon="2.43642">
        <ele>32</ele>
        <time>2023-01-24T11:23:18.484Z</time>
      </trkpt>
      <trkpt lat="48.74374" lon="2.4364">
        <ele>32</ele>
        <time>2023-01-24T11:23:23.003Z</time>
      </trkpt>
      <trkpt lat="48.7438" lon="2.43636">
        <ele>31</ele>
        <time>2023-01-24T11:23:27.622Z</time>
      </trkpt>
      <trkpt lat="48.74386" lon="2.43633">
        <ele>31</ele>
        <time>2023-01-24T11:23:31.640Z</time>
      </trkpt>
      <trkpt lat="48.7439" lon="2.43636">
        <ele>31</ele>
        <time>2023-01-24T11:23:35.657Z</time>
      </trkpt>
      <trkpt lat="48.74398" lon="2.43634">
        <ele>31</ele>
        <time>2023-01-24T11:23:40.678Z</time>
      </trkpt>
      <trkpt lat="48.74403" lon="2.43634">
        <ele>31</ele>
        <time>2023-01-24T11:23:44.696Z</time>
      </trkpt>
      <trkpt lat="48.74409" lon="2.4363">
        <ele>31</ele>
        <time>2023-01-24T11:23:48.713Z</time>
      </trkpt>
      <trkpt lat="48.74414" lon="2.43625">
        <ele>30</ele>
        <time>2023-01-24T11:23:52.733Z</time>
      </trkpt>
      <trkpt lat="48.7442" lon="2.4362">
        <ele>30</ele>
        <time>2023-01-24T11:23:57.254Z</time>
      </trkpt>
      <trkpt lat="48.74426" lon="2.43616">
        <ele>30</ele>
        <time>2023-01-24T11:24:01.772Z</time>
      </trkpt>
      <trkpt lat="48.74431" lon="2.43611">
        <ele>31</ele>
        <time>2023-01-24T11:24:05.784Z</time>
      </trkpt>
      <trkpt lat="48.74437" lon="2.43606">
        <ele>31</ele>
        <time>2023-01-24T11:24:09.793Z</time>
      </trkpt>
      <trkpt lat="48.74444" lon="2.43603">
        <ele>31</ele>
        <time>2023-01-24T11:24:14.805Z</time>
      </trkpt>
      <trkpt lat="48.74451" lon="2.43599">
        <ele>31</ele>
        <time>2023-01-24T11:24:18.813Z</time>
      </trkpt>
      <trkpt lat="48.74457" lon="2.43595">
        <ele>32</ele>
        <time>2023-01-24T11:24:22.822Z</time>
      </trkpt>
      <trkpt lat="48.74461" lon="2.4359">
        <ele>31</ele>
        <time>2023-01-24T11:24:27.433Z</time>
      </trkpt>
      <trkpt lat="48.74468" lon="2.43586">
        <ele>31</ele>
        <time>2023-01-24T11:24:31.942Z</time>
      </trkpt>
      <trkpt lat="48.74472" lon="2.43581">
        <ele>31</ele>
        <time>2023-01-24T11:24:36.949Z</time>
      </trkpt>
      <trkpt lat="48.74476" lon="2.43576">
        <ele>31</ele>
        <time>2023-01-24T11:24:40.955Z</time>
      </trkpt>
      <trkpt lat="48.74479" lon="2.43571">
        <ele>31</ele>
        <time>2023-01-24T11:24:44.958Z</time>
      </trkpt>
      <trkpt lat="48.74483" lon="2.43566">
        <ele>32</ele>
        <time>2023-01-24T11:24:48.980Z</time>
      </trkpt>
      <trkpt lat="48.74487" lon="2.4356">
        <ele>31</ele>
        <time>2023-01-24T11:24:52.981Z</time>
      </trkpt>
      <trkpt lat="48.74493" lon="2.43553">
        <ele>31</ele>
        <time>2023-01-24T11:24:57.987Z</time>
      </trkpt>
      <trkpt lat="48.74499" lon="2.43549">
        <ele>31</ele>
        <time>2023-01-24T11:25:02.046Z</time>
      </trkpt>
      <trkpt lat="48.74504" lon="2.43543">
        <ele>31</ele>
        <time>2023-01-24T11:25:06.048Z</time>
      </trkpt>
      <trkpt lat="48.7451" lon="2.4354">
        <ele>32</ele>
        <time>2023-01-24T11:25:11.051Z</time>
      </trkpt>
      <trkpt lat="48.74514" lon="2.43532">
        <ele>33</ele>
        <time>2023-01-24T11:25:15.087Z</time>
      </trkpt>
      <trkpt lat="48.74519" lon="2.43525">
        <ele>33</ele>
        <time>2023-01-24T11:25:19.216Z</time>
      </trkpt>
      <trkpt lat="48.74524" lon="2.43517">
        <ele>33</ele>
        <time>2023-01-24T11:25:24.050Z</time>
      </trkpt>
      <trkpt lat="48.74529" lon="2.43511">
        <ele>34</ele>
        <time>2023-01-24T11:25:27.598Z</time>
      </trkpt>
      <trkpt lat="48.74535" lon="2.43506">
        <ele>34</ele>
        <time>2023-01-24T11:25:32.180Z</time>
      </trkpt>
      <trkpt lat="48.74541" lon="2.43503">
        <ele>34</ele>
        <time>2023-01-24T11:25:36.183Z</time>
      </trkpt>
      <trkpt lat="48.74547" lon="2.43501">
        <ele>34</ele>
        <time>2023-01-24T11:25:40.384Z</time>
      </trkpt>
      <trkpt lat="48.74553" lon="2.43499">
        <ele>34</ele>
        <time>2023-01-24T11:25:44.823Z</time>
      </trkpt>
      <trkpt lat="48.74559" lon="2.43495">
        <ele>34</ele>
        <time>2023-01-24T11:25:48.602Z</time>
      </trkpt>
      <trkpt lat="48.74563" lon="2.4349">
        <ele>34</ele>
        <time>2023-01-24T11:25:53.043Z</time>
      </trkpt>
      <trkpt lat="48.74568" lon="2.43485">
        <ele>33</ele>
        <time>2023-01-24T11:25:57.483Z</time>
      </trkpt>
      <trkpt lat="48.74571" lon="2.4348">
        <ele>34</ele>
        <time>2023-01-24T11:26:02.021Z</time>
      </trkpt>
      <trkpt lat="48.74574" lon="2.43474">
        <ele>34</ele>
        <time>2023-01-24T11:26:05.920Z</time>
      </trkpt>
      <trkpt lat="48.74577" lon="2.43468">
        <ele>34</ele>
        <time>2023-01-24T11:26:10.379Z</time>
      </trkpt>
      <trkpt lat="48.7458" lon="2.43462">
        <ele>34</ele>
        <time>2023-01-24T11:26:15.076Z</time>
      </trkpt>
      <trkpt lat="48.74583" lon="2.43457">
        <ele>31</ele>
        <time>2023-01-24T11:26:18.975Z</time>
      </trkpt>
      <trkpt lat="48.74588" lon="2.4345">
        <ele>31</ele>
        <time>2023-01-24T11:26:23.493Z</time>
      </trkpt>
      <trkpt lat="48.74594" lon="2.4344">
        <ele>31</ele>
        <time>2023-01-24T11:26:27.952Z</time>
      </trkpt>
      <trkpt lat="48.74595" lon="2.43435">
        <ele>31</ele>
        <time>2023-01-24T11:26:31.911Z</time>
      </trkpt>
      <trkpt lat="48.74597" lon="2.43432">
        <ele>32</ele>
        <time>2023-01-24T11:26:36.350Z</time>
      </trkpt>
      <trkpt lat="48.74605" lon="2.4343">
        <ele>30</ele>
        <time>2023-01-24T11:27:17.090Z</time>
      </trkpt>
      <trkpt lat="48.74605" lon="2.43429">
        <ele>30</ele>
        <time>2023-01-24T11:27:21.102Z</time>
      </trkpt>
      <trkpt lat="48.74607" lon="2.43427">
        <ele>30</ele>
        <time>2023-01-24T11:27:25.080Z</time>
      </trkpt>
      <trkpt lat="48.7461" lon="2.43424">
        <ele>30</ele>
        <time>2023-01-24T11:27:30.084Z</time>
      </trkpt>
      <trkpt lat="48.74615" lon="2.43419">
        <ele>30</ele>
        <time>2023-01-24T11:27:35.084Z</time>
      </trkpt>
      <trkpt lat="48.74619" lon="2.43413">
        <ele>30</ele>
        <time>2023-01-24T11:27:40.076Z</time>
      </trkpt>
      <trkpt lat="48.74622" lon="2.43406">
        <ele>30</ele>
        <time>2023-01-24T11:27:43.929Z</time>
      </trkpt>
      <trkpt lat="48.74627" lon="2.43398">
        <ele>28</ele>
        <time>2023-01-24T11:27:49.103Z</time>
      </trkpt>
      <trkpt lat="48.7463" lon="2.43391">
        <ele>28</ele>
        <time>2023-01-24T11:27:53.485Z</time>
      </trkpt>
      <trkpt lat="48.74633" lon="2.43384">
        <ele>28</ele>
        <time>2023-01-24T11:27:58.093Z</time>
      </trkpt>
      <trkpt lat="48.74634" lon="2.43381">
        <ele>28</ele>
        <time>2023-01-24T11:28:02.098Z</time>
      </trkpt>
      <trkpt lat="48.74635" lon="2.43375">
        <ele>31</ele>
        <time>2023-01-24T11:28:06.614Z</time>
      </trkpt>
      <trkpt lat="48.74638" lon="2.43366">
        <ele>31</ele>
        <time>2023-01-24T11:28:11.769Z</time>
      </trkpt>
      <trkpt lat="48.74639" lon="2.43364">
        <ele>31</ele>
        <time>2023-01-24T11:28:15.845Z</time>
      </trkpt>
      <trkpt lat="48.74642" lon="2.4336">
        <ele>31</ele>
        <time>2023-01-24T11:28:20.361Z</time>
      </trkpt>
      <trkpt lat="48.74645" lon="2.43356">
        <ele>31</ele>
        <time>2023-01-24T11:28:24.915Z</time>
      </trkpt>
      <trkpt lat="48.74649" lon="2.43353">
        <ele>31</ele>
        <time>2023-01-24T11:28:28.952Z</time>
      </trkpt>
      <trkpt lat="48.74652" lon="2.4335">
        <ele>31</ele>
        <time>2023-01-24T11:28:32.908Z</time>
      </trkpt>
      <trkpt lat="48.74655" lon="2.43344">
        <ele>30</ele>
        <time>2023-01-24T11:28:37.387Z</time>
      </trkpt>
      <trkpt lat="48.74657" lon="2.43337">
        <ele>30</ele>
        <time>2023-01-24T11:28:41.897Z</time>
      </trkpt>
      <trkpt lat="48.74659" lon="2.43335">
        <ele>30</ele>
        <time>2023-01-24T11:28:46.749Z</time>
      </trkpt>
      <trkpt lat="48.74662" lon="2.43332">
        <ele>30</ele>
        <time>2023-01-24T11:28:50.845Z</time>
      </trkpt>
      <trkpt lat="48.74666" lon="2.4333">
        <ele>30</ele>
        <time>2023-01-24T11:28:54.857Z</time>
      </trkpt>
      <trkpt lat="48.74672" lon="2.43315">
        <ele>31</ele>
        <time>2023-01-24T11:28:59.876Z</time>
      </trkpt>
      <trkpt lat="48.74672" lon="2.43306">
        <ele>31</ele>
        <time>2023-01-24T11:29:03.992Z</time>
      </trkpt>
      <trkpt lat="48.74673" lon="2.43298">
        <ele>31</ele>
        <time>2023-01-24T11:30:55.104Z</time>
      </trkpt>
      <trkpt lat="48.74673" lon="2.43298">
        <ele>31</ele>
        <time>2023-01-24T11:30:59.683Z</time>
      </trkpt>
      <trkpt lat="48.74675" lon="2.43295">
        <ele>31</ele>
        <time>2023-01-24T11:31:04.101Z</time>
      </trkpt>
      <trkpt lat="48.74677" lon="2.4329">
        <ele>30</ele>
        <time>2023-01-24T11:31:08.113Z</time>
      </trkpt>
      <trkpt lat="48.74681" lon="2.43285">
        <ele>30</ele>
        <time>2023-01-24T11:31:12.682Z</time>
      </trkpt>
      <trkpt lat="48.74684" lon="2.43279">
        <ele>30</ele>
        <time>2023-01-24T11:31:16.982Z</time>
      </trkpt>
      <trkpt lat="48.74688" lon="2.43274">
        <ele>30</ele>
        <time>2023-01-24T11:31:21.486Z</time>
      </trkpt>
      <trkpt lat="48.74691" lon="2.43269">
        <ele>30</ele>
        <time>2023-01-24T11:31:25.547Z</time>
      </trkpt>
      <trkpt lat="48.74694" lon="2.43263">
        <ele>30</ele>
        <time>2023-01-24T11:31:29.808Z</time>
      </trkpt>
      <trkpt lat="48.74697" lon="2.43256">
        <ele>30</ele>
        <time>2023-01-24T11:31:33.849Z</time>
      </trkpt>
      <trkpt lat="48.74702" lon="2.43249">
        <ele>30</ele>
        <time>2023-01-24T11:31:38.351Z</time>
      </trkpt>
      <trkpt lat="48.74706" lon="2.43243">
        <ele>30</ele>
        <time>2023-01-24T11:31:42.473Z</time>
      </trkpt>
      <trkpt lat="48.7471" lon="2.43236">
        <ele>30</ele>
        <time>2023-01-24T11:31:46.535Z</time>
      </trkpt>
      <trkpt lat="48.74712" lon="2.43231">
        <ele>30</ele>
        <time>2023-01-24T11:31:50.616Z</time>
      </trkpt>
      <trkpt lat="48.74715" lon="2.43225">
        <ele>30</ele>
        <time>2023-01-24T11:31:55.219Z</time>
      </trkpt>
      <trkpt lat="48.74718" lon="2.4322">
        <ele>30</ele>
        <time>2023-01-24T11:31:59.222Z</time>
      </trkpt>
      <trkpt lat="48.74721" lon="2.43216">
        <ele>30</ele>
        <time>2023-01-24T11:32:03.244Z</time>
      </trkpt>
      <trkpt lat="48.74726" lon="2.43207">
        <ele>31</ele>
        <time>2023-01-24T11:32:07.846Z</time>
      </trkpt>
      <trkpt lat="48.74731" lon="2.43199">
        <ele>31</ele>
        <time>2023-01-24T11:32:12.348Z</time>
      </trkpt>
      <trkpt lat="48.74734" lon="2.43192">
        <ele>31</ele>
        <time>2023-01-24T11:32:16.350Z</time>
      </trkpt>
      <trkpt lat="48.74738" lon="2.43186">
        <ele>30</ele>
        <time>2023-01-24T11:32:20.354Z</time>
      </trkpt>
      <trkpt lat="48.74742" lon="2.4318">
        <ele>31</ele>
        <time>2023-01-24T11:32:24.858Z</time>
      </trkpt>
      <trkpt lat="48.74746" lon="2.43175">
        <ele>31</ele>
        <time>2023-01-24T11:32:28.861Z</time>
      </trkpt>
      <trkpt lat="48.7475" lon="2.43167">
        <ele>31</ele>
        <time>2023-01-24T11:32:33.364Z</time>
      </trkpt>
      <trkpt lat="48.74754" lon="2.43161">
        <ele>31</ele>
        <time>2023-01-24T11:32:37.868Z</time>
      </trkpt>
      <trkpt lat="48.74758" lon="2.43154">
        <ele>31</ele>
        <time>2023-01-24T11:32:41.871Z</time>
      </trkpt>
      <trkpt lat="48.74762" lon="2.43148">
        <ele>31</ele>
        <time>2023-01-24T11:32:45.875Z</time>
      </trkpt>
      <trkpt lat="48.74765" lon="2.43144">
        <ele>30</ele>
        <time>2023-01-24T11:32:49.878Z</time>
      </trkpt>
      <trkpt lat="48.74769" lon="2.43139">
        <ele>30</ele>
        <time>2023-01-24T11:32:53.881Z</time>
      </trkpt>
      <trkpt lat="48.74773" lon="2.4313">
        <ele>30</ele>
        <time>2023-01-24T11:32:58.987Z</time>
      </trkpt>
      <trkpt lat="48.74776" lon="2.43122">
        <ele>30</ele>
        <time>2023-01-24T11:33:03.191Z</time>
      </trkpt>
      <trkpt lat="48.74778" lon="2.43114">
        <ele>30</ele>
        <time>2023-01-24T11:33:07.195Z</time>
      </trkpt>
      <trkpt lat="48.74782" lon="2.43107">
        <ele>30</ele>
        <time>2023-01-24T11:33:11.277Z</time>
      </trkpt>
      <trkpt lat="48.74787" lon="2.43101">
        <ele>30</ele>
        <time>2023-01-24T11:33:15.799Z</time>
      </trkpt>
      <trkpt lat="48.74791" lon="2.43095">
        <ele>30</ele>
        <time>2023-01-24T11:33:20.381Z</time>
      </trkpt>
      <trkpt lat="48.74794" lon="2.43089">
        <ele>31</ele>
        <time>2023-01-24T11:33:24.602Z</time>
      </trkpt>
      <trkpt lat="48.74797" lon="2.43084">
        <ele>31</ele>
        <time>2023-01-24T11:33:28.803Z</time>
      </trkpt>
      <trkpt lat="48.74801" lon="2.43077">
        <ele>31</ele>
        <time>2023-01-24T11:33:33.504Z</time>
      </trkpt>
      <trkpt lat="48.74804" lon="2.43069">
        <ele>33</ele>
        <time>2023-01-24T11:33:37.625Z</time>
      </trkpt>
      <trkpt lat="48.74807" lon="2.43063">
        <ele>33</ele>
        <time>2023-01-24T11:33:41.505Z</time>
      </trkpt>
      <trkpt lat="48.7481" lon="2.43056">
        <ele>33</ele>
        <time>2023-01-24T11:33:45.805Z</time>
      </trkpt>
      <trkpt lat="48.74814" lon="2.43048">
        <ele>33</ele>
        <time>2023-01-24T11:33:50.006Z</time>
      </trkpt>
      <trkpt lat="48.74819" lon="2.4304">
        <ele>33</ele>
        <time>2023-01-24T11:33:54.287Z</time>
      </trkpt>
      <trkpt lat="48.74823" lon="2.43033">
        <ele>32</ele>
        <time>2023-01-24T11:33:58.528Z</time>
      </trkpt>
      <trkpt lat="48.74827" lon="2.43025">
        <ele>32</ele>
        <time>2023-01-24T11:34:02.788Z</time>
      </trkpt>
      <trkpt lat="48.7483" lon="2.43018">
        <ele>32</ele>
        <time>2023-01-24T11:34:06.910Z</time>
      </trkpt>
      <trkpt lat="48.74834" lon="2.43011">
        <ele>32</ele>
        <time>2023-01-24T11:34:11.162Z</time>
      </trkpt>
      <trkpt lat="48.74838" lon="2.43005">
        <ele>32</ele>
        <time>2023-01-24T11:34:15.608Z</time>
      </trkpt>
      <trkpt lat="48.74841" lon="2.42999">
        <ele>32</ele>
        <time>2023-01-24T11:34:19.467Z</time>
      </trkpt>
      <trkpt lat="48.74844" lon="2.42994">
        <ele>32</ele>
        <time>2023-01-24T11:34:23.807Z</time>
      </trkpt>
      <trkpt lat="48.74847" lon="2.42987">
        <ele>32</ele>
        <time>2023-01-24T11:34:27.807Z</time>
      </trkpt>
      <trkpt lat="48.74851" lon="2.42978">
        <ele>31</ele>
        <time>2023-01-24T11:34:32.147Z</time>
      </trkpt>
      <trkpt lat="48.74856" lon="2.42971">
        <ele>31</ele>
        <time>2023-01-24T11:34:36.652Z</time>
      </trkpt>
      <trkpt lat="48.74858" lon="2.42968">
        <ele>31</ele>
        <time>2023-01-24T11:34:40.656Z</time>
      </trkpt>
      <trkpt lat="48.7486" lon="2.42965">
        <ele>31</ele>
        <time>2023-01-24T11:34:44.660Z</time>
      </trkpt>
      <trkpt lat="48.74862" lon="2.4296">
        <ele>31</ele>
        <time>2023-01-24T11:34:49.363Z</time>
      </trkpt>
      <trkpt lat="48.74865" lon="2.42954">
        <ele>33</ele>
        <time>2023-01-24T11:34:53.366Z</time>
      </trkpt>
      <trkpt lat="48.74869" lon="2.42949">
        <ele>33</ele>
        <time>2023-01-24T11:34:57.387Z</time>
      </trkpt>
      <trkpt lat="48.74873" lon="2.42943">
        <ele>33</ele>
        <time>2023-01-24T11:35:01.649Z</time>
      </trkpt>
      <trkpt lat="48.74877" lon="2.42936">
        <ele>30</ele>
        <time>2023-01-24T11:35:05.949Z</time>
      </trkpt>
      <trkpt lat="48.74881" lon="2.42931">
        <ele>30</ele>
        <time>2023-01-24T11:35:09.731Z</time>
      </trkpt>
      <trkpt lat="48.74885" lon="2.42923">
        <ele>32</ele>
        <time>2023-01-24T11:35:14.873Z</time>
      </trkpt>
      <trkpt lat="48.74889" lon="2.42918">
        <ele>32</ele>
        <time>2023-01-24T11:35:18.673Z</time>
      </trkpt>
      <trkpt lat="48.74892" lon="2.42912">
        <ele>32</ele>
        <time>2023-01-24T11:35:23.231Z</time>
      </trkpt>
      <trkpt lat="48.74895" lon="2.42906">
        <ele>32</ele>
        <time>2023-01-24T11:35:27.609Z</time>
      </trkpt>
      <trkpt lat="48.74899" lon="2.42901">
        <ele>33</ele>
        <time>2023-01-24T11:35:32.102Z</time>
      </trkpt>
      <trkpt lat="48.74902" lon="2.42895">
        <ele>33</ele>
        <time>2023-01-24T11:35:36.527Z</time>
      </trkpt>
      <trkpt lat="48.74906" lon="2.42887">
        <ele>31</ele>
        <time>2023-01-24T11:35:41.102Z</time>
      </trkpt>
      <trkpt lat="48.7491" lon="2.4288">
        <ele>31</ele>
        <time>2023-01-24T11:35:45.324Z</time>
      </trkpt>
      <trkpt lat="48.74913" lon="2.42874">
        <ele>32</ele>
        <time>2023-01-24T11:35:49.504Z</time>
      </trkpt>
      <trkpt lat="48.74917" lon="2.42868">
        <ele>32</ele>
        <time>2023-01-24T11:35:54.749Z</time>
      </trkpt>
      <trkpt lat="48.74919" lon="2.42864">
        <ele>32</ele>
        <time>2023-01-24T11:35:58.365Z</time>
      </trkpt>
      <trkpt lat="48.74922" lon="2.42857">
        <ele>32</ele>
        <time>2023-01-24T11:36:02.685Z</time>
      </trkpt>
      <trkpt lat="48.74926" lon="2.42851">
        <ele>32</ele>
        <time>2023-01-24T11:36:06.926Z</time>
      </trkpt>
      <trkpt lat="48.7493" lon="2.42844">
        <ele>32</ele>
        <time>2023-01-24T11:36:11.365Z</time>
      </trkpt>
      <trkpt lat="48.74936" lon="2.42835">
        <ele>34</ele>
        <time>2023-01-24T11:36:15.911Z</time>
      </trkpt>
      <trkpt lat="48.74941" lon="2.42825">
        <ele>34</ele>
        <time>2023-01-24T11:36:20.096Z</time>
      </trkpt>
      <trkpt lat="48.74946" lon="2.42818">
        <ele>34</ele>
        <time>2023-01-24T11:36:24.217Z</time>
      </trkpt>
      <trkpt lat="48.7495" lon="2.4281">
        <ele>34</ele>
        <time>2023-01-24T11:36:28.398Z</time>
      </trkpt>
      <trkpt lat="48.74955" lon="2.42803">
        <ele>34</ele>
        <time>2023-01-24T11:36:32.499Z</time>
      </trkpt>
      <trkpt lat="48.74959" lon="2.42795">
        <ele>34</ele>
        <time>2023-01-24T11:36:37.319Z</time>
      </trkpt>
      <trkpt lat="48.74963" lon="2.42786">
        <ele>34</ele>
        <time>2023-01-24T11:36:41.599Z</time>
      </trkpt>
      <trkpt lat="48.74967" lon="2.4278">
        <ele>34</ele>
        <time>2023-01-24T11:36:46.103Z</time>
      </trkpt>
      <trkpt lat="48.74971" lon="2.42774">
        <ele>34</ele>
        <time>2023-01-24T11:36:50.619Z</time>
      </trkpt>
      <trkpt lat="48.74974" lon="2.42768">
        <ele>34</ele>
        <time>2023-01-24T11:36:54.387Z</time>
      </trkpt>
      <trkpt lat="48.74978" lon="2.42761">
        <ele>34</ele>
        <time>2023-01-24T11:36:58.977Z</time>
      </trkpt>
      <trkpt lat="48.74982" lon="2.42755">
        <ele>34</ele>
        <time>2023-01-24T11:37:03.016Z</time>
      </trkpt>
      <trkpt lat="48.74986" lon="2.4275">
        <ele>31</ele>
        <time>2023-01-24T11:37:07.496Z</time>
      </trkpt>
      <trkpt lat="48.74989" lon="2.42746">
        <ele>31</ele>
        <time>2023-01-24T11:37:11.256Z</time>
      </trkpt>
      <trkpt lat="48.74991" lon="2.42742">
        <ele>31</ele>
        <time>2023-01-24T11:37:15.417Z</time>
      </trkpt>
      <trkpt lat="48.74995" lon="2.42734">
        <ele>31</ele>
        <time>2023-01-24T11:37:19.499Z</time>
      </trkpt>
      <trkpt lat="48.74999" lon="2.42727">
        <ele>31</ele>
        <time>2023-01-24T11:37:23.620Z</time>
      </trkpt>
      <trkpt lat="48.75004" lon="2.42719">
        <ele>31</ele>
        <time>2023-01-24T11:37:28.381Z</time>
      </trkpt>
      <trkpt lat="48.75008" lon="2.42712">
        <ele>31</ele>
        <time>2023-01-24T11:37:32.422Z</time>
      </trkpt>
      <trkpt lat="48.75012" lon="2.42705">
        <ele>31</ele>
        <time>2023-01-24T11:37:37.044Z</time>
      </trkpt>
      <trkpt lat="48.75016" lon="2.42699">
        <ele>29</ele>
        <time>2023-01-24T11:37:41.364Z</time>
      </trkpt>
      <trkpt lat="48.7502" lon="2.42693">
        <ele>29</ele>
        <time>2023-01-24T11:37:45.224Z</time>
      </trkpt>
      <trkpt lat="48.75023" lon="2.42687">
        <ele>29</ele>
        <time>2023-01-24T11:37:49.386Z</time>
      </trkpt>
      <trkpt lat="48.75027" lon="2.42679">
        <ele>30</ele>
        <time>2023-01-24T11:37:53.478Z</time>
      </trkpt>
      <trkpt lat="48.75032" lon="2.42674">
        <ele>30</ele>
        <time>2023-01-24T11:37:57.481Z</time>
      </trkpt>
      <trkpt lat="48.75037" lon="2.42666">
        <ele>30</ele>
        <time>2023-01-24T11:38:01.983Z</time>
      </trkpt>
      <trkpt lat="48.75041" lon="2.42659">
        <ele>30</ele>
        <time>2023-01-24T11:38:05.985Z</time>
      </trkpt>
      <trkpt lat="48.75044" lon="2.42652">
        <ele>30</ele>
        <time>2023-01-24T11:38:10.489Z</time>
      </trkpt>
      <trkpt lat="48.75047" lon="2.42647">
        <ele>30</ele>
        <time>2023-01-24T11:38:14.492Z</time>
      </trkpt>
      <trkpt lat="48.75051" lon="2.42641">
        <ele>30</ele>
        <time>2023-01-24T11:38:18.693Z</time>
      </trkpt>
      <trkpt lat="48.75055" lon="2.42635">
        <ele>30</ele>
        <time>2023-01-24T11:38:22.695Z</time>
      </trkpt>
      <trkpt lat="48.7506" lon="2.42627">
        <ele>30</ele>
        <time>2023-01-24T11:38:27.336Z</time>
      </trkpt>
      <trkpt lat="48.75065" lon="2.4262">
        <ele>30</ele>
        <time>2023-01-24T11:38:32.136Z</time>
      </trkpt>
      <trkpt lat="48.75067" lon="2.42616">
        <ele>30</ele>
        <time>2023-01-24T11:38:36.337Z</time>
      </trkpt>
      <trkpt lat="48.7507" lon="2.4261">
        <ele>32</ele>
        <time>2023-01-24T11:38:40.518Z</time>
      </trkpt>
      <trkpt lat="48.75074" lon="2.42604">
        <ele>32</ele>
        <time>2023-01-24T11:38:44.639Z</time>
      </trkpt>
      <trkpt lat="48.75079" lon="2.42596">
        <ele>31</ele>
        <time>2023-01-24T11:38:48.940Z</time>
      </trkpt>
      <trkpt lat="48.75084" lon="2.42588">
        <ele>31</ele>
        <time>2023-01-24T11:38:53.260Z</time>
      </trkpt>
      <trkpt lat="48.75089" lon="2.4258">
        <ele>31</ele>
        <time>2023-01-24T11:38:57.660Z</time>
      </trkpt>
      <trkpt lat="48.75094" lon="2.42573">
        <ele>31</ele>
        <time>2023-01-24T11:39:01.659Z</time>
      </trkpt>
      <trkpt lat="48.75098" lon="2.42566">
        <ele>30</ele>
        <time>2023-01-24T11:39:05.830Z</time>
      </trkpt>
      <trkpt lat="48.75103" lon="2.4256">
        <ele>30</ele>
        <time>2023-01-24T11:39:09.716Z</time>
      </trkpt>
      <trkpt lat="48.75107" lon="2.42553">
        <ele>30</ele>
        <time>2023-01-24T11:39:13.956Z</time>
      </trkpt>
      <trkpt lat="48.7511" lon="2.42548">
        <ele>30</ele>
        <time>2023-01-24T11:39:17.959Z</time>
      </trkpt>
      <trkpt lat="48.75112" lon="2.42543">
        <ele>30</ele>
        <time>2023-01-24T11:39:22.095Z</time>
      </trkpt>
      <trkpt lat="48.75116" lon="2.42536">
        <ele>30</ele>
        <time>2023-01-24T11:39:26.441Z</time>
      </trkpt>
      <trkpt lat="48.7512" lon="2.42529">
        <ele>30</ele>
        <time>2023-01-24T11:39:30.260Z</time>
      </trkpt>
      <trkpt lat="48.75125" lon="2.42523">
        <ele>30</ele>
        <time>2023-01-24T11:39:34.763Z</time>
      </trkpt>
      <trkpt lat="48.75128" lon="2.42518">
        <ele>29</ele>
        <time>2023-01-24T11:39:38.801Z</time>
      </trkpt>
      <trkpt lat="48.75132" lon="2.42511">
        <ele>30</ele>
        <time>2023-01-24T11:39:42.538Z</time>
      </trkpt>
      <trkpt lat="48.75136" lon="2.42504">
        <ele>30</ele>
        <time>2023-01-24T11:39:47.017Z</time>
      </trkpt>
      <trkpt lat="48.7514" lon="2.42497">
        <ele>30</ele>
        <time>2023-01-24T11:39:50.916Z</time>
      </trkpt>
      <trkpt lat="48.75145" lon="2.4249">
        <ele>30</ele>
        <time>2023-01-24T11:39:55.288Z</time>
      </trkpt>
      <trkpt lat="48.7515" lon="2.42483">
        <ele>31</ele>
        <time>2023-01-24T11:39:59.449Z</time>
      </trkpt>
      <trkpt lat="48.75154" lon="2.42477">
        <ele>31</ele>
        <time>2023-01-24T11:40:03.511Z</time>
      </trkpt>
      <trkpt lat="48.75159" lon="2.42469">
        <ele>31</ele>
        <time>2023-01-24T11:40:07.651Z</time>
      </trkpt>
      <trkpt lat="48.75165" lon="2.42462">
        <ele>31</ele>
        <time>2023-01-24T11:40:11.669Z</time>
      </trkpt>
      <trkpt lat="48.75171" lon="2.42454">
        <ele>32</ele>
        <time>2023-01-24T11:40:15.991Z</time>
      </trkpt>
      <trkpt lat="48.75175" lon="2.42448">
        <ele>32</ele>
        <time>2023-01-24T11:40:19.895Z</time>
      </trkpt>
      <trkpt lat="48.75179" lon="2.42442">
        <ele>32</ele>
        <time>2023-01-24T11:40:23.851Z</time>
      </trkpt>
      <trkpt lat="48.75184" lon="2.42436">
        <ele>32</ele>
        <time>2023-01-24T11:40:28.310Z</time>
      </trkpt>
      <trkpt lat="48.75189" lon="2.4243">
        <ele>32</ele>
        <time>2023-01-24T11:40:32.589Z</time>
      </trkpt>
      <trkpt lat="48.75192" lon="2.42427">
        <ele>32</ele>
        <time>2023-01-24T11:40:37.108Z</time>
      </trkpt>
      <trkpt lat="48.75196" lon="2.42424">
        <ele>32</ele>
        <time>2023-01-24T11:40:41.607Z</time>
      </trkpt>
      <trkpt lat="48.75201" lon="2.42419">
        <ele>32</ele>
        <time>2023-01-24T11:40:45.989Z</time>
      </trkpt>
      <trkpt lat="48.75206" lon="2.42414">
        <ele>32</ele>
        <time>2023-01-24T11:40:49.925Z</time>
      </trkpt>
      <trkpt lat="48.75208" lon="2.4241">
        <ele>32</ele>
        <time>2023-01-24T11:40:54.525Z</time>
      </trkpt>
      <trkpt lat="48.75212" lon="2.42405">
        <ele>31</ele>
        <time>2023-01-24T11:40:58.984Z</time>
      </trkpt>
      <trkpt lat="48.75217" lon="2.42398">
        <ele>32</ele>
        <time>2023-01-24T11:41:03.288Z</time>
      </trkpt>
      <trkpt lat="48.75222" lon="2.42391">
        <ele>32</ele>
        <time>2023-01-24T11:41:07.626Z</time>
      </trkpt>
      <trkpt lat="48.75223" lon="2.42386">
        <ele>32</ele>
        <time>2023-01-24T11:41:11.706Z</time>
      </trkpt>
      <trkpt lat="48.75227" lon="2.4238">
        <ele>32</ele>
        <time>2023-01-24T11:41:15.620Z</time>
      </trkpt>
      <trkpt lat="48.75234" lon="2.42373">
        <ele>32</ele>
        <time>2023-01-24T11:41:19.638Z</time>
      </trkpt>
      <trkpt lat="48.75238" lon="2.42365">
        <ele>33</ele>
        <time>2023-01-24T11:41:24.092Z</time>
      </trkpt>
      <trkpt lat="48.75244" lon="2.42362">
        <ele>33</ele>
        <time>2023-01-24T11:41:28.396Z</time>
      </trkpt>
      <trkpt lat="48.7525" lon="2.42354">
        <ele>33</ele>
        <time>2023-01-24T11:41:32.498Z</time>
      </trkpt>
      <trkpt lat="48.75256" lon="2.42344">
        <ele>33</ele>
        <time>2023-01-24T11:41:37.015Z</time>
      </trkpt>
      <trkpt lat="48.75262" lon="2.42336">
        <ele>33</ele>
        <time>2023-01-24T11:41:41.525Z</time>
      </trkpt>
      <trkpt lat="48.75266" lon="2.42327">
        <ele>33</ele>
        <time>2023-01-24T11:41:46.032Z</time>
      </trkpt>
      <trkpt lat="48.75272" lon="2.42321">
        <ele>33</ele>
        <time>2023-01-24T11:41:50.538Z</time>
      </trkpt>
      <trkpt lat="48.75275" lon="2.42313">
        <ele>33</ele>
        <time>2023-01-24T11:41:55.044Z</time>
      </trkpt>
      <trkpt lat="48.75281" lon="2.42312">
        <ele>33</ele>
        <time>2023-01-24T11:41:59.050Z</time>
      </trkpt>
      <trkpt lat="48.75289" lon="2.42308">
        <ele>33</ele>
        <time>2023-01-24T11:42:03.056Z</time>
      </trkpt>
      <trkpt lat="48.75293" lon="2.42303">
        <ele>32</ele>
        <time>2023-01-24T11:42:07.562Z</time>
      </trkpt>
      <trkpt lat="48.75297" lon="2.42297">
        <ele>32</ele>
        <time>2023-01-24T11:42:11.668Z</time>
      </trkpt>
      <trkpt lat="48.753" lon="2.4229">
        <ele>32</ele>
        <time>2023-01-24T11:42:15.674Z</time>
      </trkpt>
      <trkpt lat="48.75304" lon="2.42282">
        <ele>32</ele>
        <time>2023-01-24T11:42:20.183Z</time>
      </trkpt>
      <trkpt lat="48.75308" lon="2.42276">
        <ele>32</ele>
        <time>2023-01-24T11:42:24.191Z</time>
      </trkpt>
      <trkpt lat="48.75312" lon="2.42271">
        <ele>32</ele>
        <time>2023-01-24T11:42:28.696Z</time>
      </trkpt>
      <trkpt lat="48.75317" lon="2.42265">
        <ele>32</ele>
        <time>2023-01-24T11:42:32.800Z</time>
      </trkpt>
      <trkpt lat="48.75323" lon="2.42259">
        <ele>31</ele>
        <time>2023-01-24T11:42:36.804Z</time>
      </trkpt>
      <trkpt lat="48.75329" lon="2.42253">
        <ele>31</ele>
        <time>2023-01-24T11:42:41.307Z</time>
      </trkpt>
      <trkpt lat="48.75334" lon="2.42246">
        <ele>31</ele>
        <time>2023-01-24T11:42:45.310Z</time>
      </trkpt>
      <trkpt lat="48.75339" lon="2.4224">
        <ele>31</ele>
        <time>2023-01-24T11:42:49.816Z</time>
      </trkpt>
      <trkpt lat="48.75344" lon="2.42235">
        <ele>33</ele>
        <time>2023-01-24T11:42:54.321Z</time>
      </trkpt>
      <trkpt lat="48.75348" lon="2.4223">
        <ele>33</ele>
        <time>2023-01-24T11:42:58.427Z</time>
      </trkpt>
      <trkpt lat="48.75353" lon="2.42226">
        <ele>33</ele>
        <time>2023-01-24T11:43:02.931Z</time>
      </trkpt>
      <trkpt lat="48.75358" lon="2.42222">
        <ele>33</ele>
        <time>2023-01-24T11:43:07.435Z</time>
      </trkpt>
      <trkpt lat="48.75362" lon="2.42218">
        <ele>33</ele>
        <time>2023-01-24T11:43:11.938Z</time>
      </trkpt>
      <trkpt lat="48.75367" lon="2.42214">
        <ele>33</ele>
        <time>2023-01-24T11:43:16.460Z</time>
      </trkpt>
      <trkpt lat="48.7537" lon="2.42211">
        <ele>33</ele>
        <time>2023-01-24T11:43:20.463Z</time>
      </trkpt>
      <trkpt lat="48.75375" lon="2.42205">
        <ele>35</ele>
        <time>2023-01-24T11:43:25.005Z</time>
      </trkpt>
      <trkpt lat="48.7538" lon="2.42199">
        <ele>35</ele>
        <time>2023-01-24T11:43:29.547Z</time>
      </trkpt>
      <trkpt lat="48.75386" lon="2.42191">
        <ele>35</ele>
        <time>2023-01-24T11:43:34.109Z</time>
      </trkpt>
      <trkpt lat="48.75392" lon="2.42186">
        <ele>35</ele>
        <time>2023-01-24T11:43:38.151Z</time>
      </trkpt>
      <trkpt lat="48.75398" lon="2.4218">
        <ele>35</ele>
        <time>2023-01-24T11:43:42.232Z</time>
      </trkpt>
      <trkpt lat="48.75404" lon="2.42176">
        <ele>33</ele>
        <time>2023-01-24T11:43:46.233Z</time>
      </trkpt>
      <trkpt lat="48.75409" lon="2.42171">
        <ele>33</ele>
        <time>2023-01-24T11:43:50.336Z</time>
      </trkpt>
      <trkpt lat="48.75414" lon="2.42167">
        <ele>33</ele>
        <time>2023-01-24T11:43:54.919Z</time>
      </trkpt>
      <trkpt lat="48.7542" lon="2.42162">
        <ele>33</ele>
        <time>2023-01-24T11:43:59.421Z</time>
      </trkpt>
      <trkpt lat="48.75426" lon="2.42157">
        <ele>33</ele>
        <time>2023-01-24T11:44:04.162Z</time>
      </trkpt>
      <trkpt lat="48.75431" lon="2.42152">
        <ele>32</ele>
        <time>2023-01-24T11:44:08.164Z</time>
      </trkpt>
      <trkpt lat="48.75434" lon="2.42149">
        <ele>32</ele>
        <time>2023-01-24T11:44:12.167Z</time>
      </trkpt>
      <trkpt lat="48.75438" lon="2.42146">
        <ele>32</ele>
        <time>2023-01-24T11:44:16.689Z</time>
      </trkpt>
      <trkpt lat="48.75442" lon="2.42143">
        <ele>32</ele>
        <time>2023-01-24T11:44:20.750Z</time>
      </trkpt>
      <trkpt lat="48.75449" lon="2.42139">
        <ele>32</ele>
        <time>2023-01-24T11:44:25.253Z</time>
      </trkpt>
      <trkpt lat="48.75454" lon="2.42135">
        <ele>32</ele>
        <time>2023-01-24T11:44:29.257Z</time>
      </trkpt>
      <trkpt lat="48.75459" lon="2.42132">
        <ele>33</ele>
        <time>2023-01-24T11:44:33.760Z</time>
      </trkpt>
      <trkpt lat="48.75465" lon="2.42128">
        <ele>33</ele>
        <time>2023-01-24T11:44:38.784Z</time>
      </trkpt>
      <trkpt lat="48.7547" lon="2.42125">
        <ele>32</ele>
        <time>2023-01-24T11:44:42.885Z</time>
      </trkpt>
      <trkpt lat="48.75476" lon="2.4212">
        <ele>32</ele>
        <time>2023-01-24T11:44:47.388Z</time>
      </trkpt>
      <trkpt lat="48.75482" lon="2.42116">
        <ele>32</ele>
        <time>2023-01-24T11:44:51.990Z</time>
      </trkpt>
      <trkpt lat="48.75486" lon="2.42112">
        <ele>31</ele>
        <time>2023-01-24T11:44:55.992Z</time>
      </trkpt>
      <trkpt lat="48.75492" lon="2.42109">
        <ele>31</ele>
        <time>2023-01-24T11:45:00.252Z</time>
      </trkpt>
      <trkpt lat="48.75498" lon="2.42106">
        <ele>31</ele>
        <time>2023-01-24T11:45:04.254Z</time>
      </trkpt>
      <trkpt lat="48.75504" lon="2.42101">
        <ele>31</ele>
        <time>2023-01-24T11:45:08.778Z</time>
      </trkpt>
      <trkpt lat="48.75509" lon="2.42096">
        <ele>31</ele>
        <time>2023-01-24T11:45:13.380Z</time>
      </trkpt>
      <trkpt lat="48.75515" lon="2.42092">
        <ele>32</ele>
        <time>2023-01-24T11:45:17.883Z</time>
      </trkpt>
      <trkpt lat="48.75521" lon="2.42087">
        <ele>32</ele>
        <time>2023-01-24T11:45:22.525Z</time>
      </trkpt>
      <trkpt lat="48.75526" lon="2.42084">
        <ele>32</ele>
        <time>2023-01-24T11:45:26.548Z</time>
      </trkpt>
      <trkpt lat="48.75531" lon="2.42081">
        <ele>32</ele>
        <time>2023-01-24T11:45:30.552Z</time>
      </trkpt>
      <trkpt lat="48.75538" lon="2.42077">
        <ele>32</ele>
        <time>2023-01-24T11:45:35.055Z</time>
      </trkpt>
      <trkpt lat="48.75543" lon="2.42074">
        <ele>32</ele>
        <time>2023-01-24T11:45:39.558Z</time>
      </trkpt>
      <trkpt lat="48.75547" lon="2.42073">
        <ele>32</ele>
        <time>2023-01-24T11:45:43.561Z</time>
      </trkpt>
      <trkpt lat="48.75552" lon="2.42071">
        <ele>32</ele>
        <time>2023-01-24T11:45:47.563Z</time>
      </trkpt>
      <trkpt lat="48.75557" lon="2.42069">
        <ele>34</ele>
        <time>2023-01-24T11:45:51.955Z</time>
      </trkpt>
      <trkpt lat="48.75563" lon="2.42067">
        <ele>34</ele>
        <time>2023-01-24T11:45:56.037Z</time>
      </trkpt>
      <trkpt lat="48.75568" lon="2.42064">
        <ele>34</ele>
        <time>2023-01-24T11:46:00.197Z</time>
      </trkpt>
      <trkpt lat="48.75572" lon="2.42061">
        <ele>34</ele>
        <time>2023-01-24T11:46:04.200Z</time>
      </trkpt>
      <trkpt lat="48.75577" lon="2.42058">
        <ele>34</ele>
        <time>2023-01-24T11:46:08.202Z</time>
      </trkpt>
      <trkpt lat="48.75582" lon="2.42056">
        <ele>34</ele>
        <time>2023-01-24T11:46:12.224Z</time>
      </trkpt>
      <trkpt lat="48.75587" lon="2.42053">
        <ele>34</ele>
        <time>2023-01-24T11:46:16.226Z</time>
      </trkpt>
      <trkpt lat="48.75592" lon="2.4205">
        <ele>34</ele>
        <time>2023-01-24T11:46:20.327Z</time>
      </trkpt>
      <trkpt lat="48.75597" lon="2.42047">
        <ele>34</ele>
        <time>2023-01-24T11:46:24.330Z</time>
      </trkpt>
      <trkpt lat="48.75603" lon="2.42044">
        <ele>33</ele>
        <time>2023-01-24T11:46:28.833Z</time>
      </trkpt>
      <trkpt lat="48.75607" lon="2.4204">
        <ele>36</ele>
        <time>2023-01-24T11:46:32.894Z</time>
      </trkpt>
      <trkpt lat="48.75614" lon="2.42036">
        <ele>36</ele>
        <time>2023-01-24T11:46:37.397Z</time>
      </trkpt>
      <trkpt lat="48.7562" lon="2.42033">
        <ele>36</ele>
        <time>2023-01-24T11:46:41.400Z</time>
      </trkpt>
      <trkpt lat="48.75626" lon="2.4203">
        <ele>32</ele>
        <time>2023-01-24T11:46:45.967Z</time>
      </trkpt>
      <trkpt lat="48.75631" lon="2.42027">
        <ele>32</ele>
        <time>2023-01-24T11:46:50.008Z</time>
      </trkpt>
      <trkpt lat="48.75638" lon="2.42025">
        <ele>32</ele>
        <time>2023-01-24T11:46:54.011Z</time>
      </trkpt>
      <trkpt lat="48.75643" lon="2.42023">
        <ele>32</ele>
        <time>2023-01-24T11:46:58.015Z</time>
      </trkpt>
      <trkpt lat="48.75648" lon="2.42021">
        <ele>32</ele>
        <time>2023-01-24T11:47:02.017Z</time>
      </trkpt>
      <trkpt lat="48.75654" lon="2.42019">
        <ele>30</ele>
        <time>2023-01-24T11:47:06.522Z</time>
      </trkpt>
      <trkpt lat="48.7566" lon="2.42017">
        <ele>30</ele>
        <time>2023-01-24T11:47:10.624Z</time>
      </trkpt>
      <trkpt lat="48.75666" lon="2.42014">
        <ele>30</ele>
        <time>2023-01-24T11:47:14.628Z</time>
      </trkpt>
      <trkpt lat="48.75673" lon="2.42012">
        <ele>31</ele>
        <time>2023-01-24T11:47:19.204Z</time>
      </trkpt>
      <trkpt lat="48.75679" lon="2.42009">
        <ele>31</ele>
        <time>2023-01-24T11:47:23.334Z</time>
      </trkpt>
      <trkpt lat="48.75685" lon="2.42006">
        <ele>32</ele>
        <time>2023-01-24T11:47:27.936Z</time>
      </trkpt>
      <trkpt lat="48.7569" lon="2.42003">
        <ele>32</ele>
        <time>2023-01-24T11:47:31.939Z</time>
      </trkpt>
      <trkpt lat="48.75697" lon="2.42">
        <ele>32</ele>
        <time>2023-01-24T11:47:36.681Z</time>
      </trkpt>
      <trkpt lat="48.75703" lon="2.41997">
        <ele>32</ele>
        <time>2023-01-24T11:47:40.939Z</time>
      </trkpt>
      <trkpt lat="48.75708" lon="2.41994">
        <ele>32</ele>
        <time>2023-01-24T11:47:45.241Z</time>
      </trkpt>
      <trkpt lat="48.75713" lon="2.41992">
        <ele>32</ele>
        <time>2023-01-24T11:47:49.700Z</time>
      </trkpt>
      <trkpt lat="48.75718" lon="2.41989">
        <ele>32</ele>
        <time>2023-01-24T11:47:53.900Z</time>
      </trkpt>
      <trkpt lat="48.75724" lon="2.41986">
        <ele>32</ele>
        <time>2023-01-24T11:47:58.181Z</time>
      </trkpt>
      <trkpt lat="48.75731" lon="2.41982">
        <ele>32</ele>
        <time>2023-01-24T11:48:02.541Z</time>
      </trkpt>
      <trkpt lat="48.75736" lon="2.41979">
        <ele>32</ele>
        <time>2023-01-24T11:48:06.761Z</time>
      </trkpt>
      <trkpt lat="48.75742" lon="2.41976">
        <ele>31</ele>
        <time>2023-01-24T11:48:10.904Z</time>
      </trkpt>
      <trkpt lat="48.75747" lon="2.41974">
        <ele>31</ele>
        <time>2023-01-24T11:48:15.165Z</time>
      </trkpt>
      <trkpt lat="48.75753" lon="2.41972">
        <ele>31</ele>
        <time>2023-01-24T11:48:19.828Z</time>
      </trkpt>
      <trkpt lat="48.75758" lon="2.41971">
        <ele>31</ele>
        <time>2023-01-24T11:48:23.947Z</time>
      </trkpt>
      <trkpt lat="48.75762" lon="2.4197">
        <ele>31</ele>
        <time>2023-01-24T11:48:28.208Z</time>
      </trkpt>
      <trkpt lat="48.75767" lon="2.41967">
        <ele>32</ele>
        <time>2023-01-24T11:48:32.508Z</time>
      </trkpt>
      <trkpt lat="48.75772" lon="2.41965">
        <ele>32</ele>
        <time>2023-01-24T11:48:37.169Z</time>
      </trkpt>
      <trkpt lat="48.75778" lon="2.41963">
        <ele>32</ele>
        <time>2023-01-24T11:48:41.549Z</time>
      </trkpt>
      <trkpt lat="48.75783" lon="2.41959">
        <ele>32</ele>
        <time>2023-01-24T11:48:45.309Z</time>
      </trkpt>
      <trkpt lat="48.7579" lon="2.41955">
        <ele>33</ele>
        <time>2023-01-24T11:48:49.827Z</time>
      </trkpt>
      <trkpt lat="48.75796" lon="2.41951">
        <ele>33</ele>
        <time>2023-01-24T11:48:54.345Z</time>
      </trkpt>
      <trkpt lat="48.75802" lon="2.41949">
        <ele>33</ele>
        <time>2023-01-24T11:48:58.667Z</time>
      </trkpt>
      <trkpt lat="48.75806" lon="2.41947">
        <ele>33</ele>
        <time>2023-01-24T11:49:02.604Z</time>
      </trkpt>
      <trkpt lat="48.75811" lon="2.41945">
        <ele>33</ele>
        <time>2023-01-24T11:49:06.886Z</time>
      </trkpt>
      <trkpt lat="48.75818" lon="2.41942">
        <ele>33</ele>
        <time>2023-01-24T11:49:11.115Z</time>
      </trkpt>
      <trkpt lat="48.75823" lon="2.4194">
        <ele>35</ele>
        <time>2023-01-24T11:49:15.325Z</time>
      </trkpt>
      <trkpt lat="48.75827" lon="2.41938">
        <ele>35</ele>
        <time>2023-01-24T11:49:19.283Z</time>
      </trkpt>
      <trkpt lat="48.75832" lon="2.41934">
        <ele>35</ele>
        <time>2023-01-24T11:49:23.824Z</time>
      </trkpt>
      <trkpt lat="48.75836" lon="2.41931">
        <ele>35</ele>
        <time>2023-01-24T11:49:27.741Z</time>
      </trkpt>
      <trkpt lat="48.7584" lon="2.41929">
        <ele>37</ele>
        <time>2023-01-24T11:49:31.919Z</time>
      </trkpt>
      <trkpt lat="48.75846" lon="2.41926">
        <ele>37</ele>
        <time>2023-01-24T11:49:36.536Z</time>
      </trkpt>
      <trkpt lat="48.75852" lon="2.41921">
        <ele>40</ele>
        <time>2023-01-24T11:49:40.474Z</time>
      </trkpt>
      <trkpt lat="48.75858" lon="2.41918">
        <ele>40</ele>
        <time>2023-01-24T11:49:44.748Z</time>
      </trkpt>
      <trkpt lat="48.75864" lon="2.41914">
        <ele>40</ele>
        <time>2023-01-24T11:49:49.048Z</time>
      </trkpt>
      <trkpt lat="48.75868" lon="2.41909">
        <ele>40</ele>
        <time>2023-01-24T11:49:53.630Z</time>
      </trkpt>
      <trkpt lat="48.75873" lon="2.41906">
        <ele>40</ele>
        <time>2023-01-24T11:49:57.632Z</time>
      </trkpt>
      <trkpt lat="48.75879" lon="2.41902">
        <ele>39</ele>
        <time>2023-01-24T11:50:02.761Z</time>
      </trkpt>
      <trkpt lat="48.75884" lon="2.41899">
        <ele>39</ele>
        <time>2023-01-24T11:50:06.861Z</time>
      </trkpt>
      <trkpt lat="48.75891" lon="2.41896">
        <ele>39</ele>
        <time>2023-01-24T11:50:11.481Z</time>
      </trkpt>
      <trkpt lat="48.75895" lon="2.41892">
        <ele>39</ele>
        <time>2023-01-24T11:50:15.520Z</time>
      </trkpt>
      <trkpt lat="48.759" lon="2.41888">
        <ele>39</ele>
        <time>2023-01-24T11:50:19.721Z</time>
      </trkpt>
      <trkpt lat="48.75905" lon="2.41885">
        <ele>37</ele>
        <time>2023-01-24T11:50:23.323Z</time>
      </trkpt>
      <trkpt lat="48.7591" lon="2.41882">
        <ele>37</ele>
        <time>2023-01-24T11:50:27.987Z</time>
      </trkpt>
      <trkpt lat="48.75915" lon="2.41878">
        <ele>37</ele>
        <time>2023-01-24T11:50:32.110Z</time>
      </trkpt>
      <trkpt lat="48.7592" lon="2.41876">
        <ele>37</ele>
        <time>2023-01-24T11:50:35.709Z</time>
      </trkpt>
      <trkpt lat="48.75926" lon="2.41873">
        <ele>39</ele>
        <time>2023-01-24T11:50:40.211Z</time>
      </trkpt>
      <trkpt lat="48.7593" lon="2.41871">
        <ele>39</ele>
        <time>2023-01-24T11:50:44.372Z</time>
      </trkpt>
      <trkpt lat="48.75935" lon="2.41868">
        <ele>38</ele>
        <time>2023-01-24T11:50:48.387Z</time>
      </trkpt>
      <trkpt lat="48.75939" lon="2.41866">
        <ele>38</ele>
        <time>2023-01-24T11:50:52.397Z</time>
      </trkpt>
      <trkpt lat="48.75943" lon="2.41866">
        <ele>38</ele>
        <time>2023-01-24T11:50:56.901Z</time>
      </trkpt>
      <trkpt lat="48.75948" lon="2.41864">
        <ele>38</ele>
        <time>2023-01-24T11:51:00.601Z</time>
      </trkpt>
      <trkpt lat="48.75954" lon="2.41861">
        <ele>38</ele>
        <time>2023-01-24T11:51:05.104Z</time>
      </trkpt>
      <trkpt lat="48.75961" lon="2.41857">
        <ele>40</ele>
        <time>2023-01-24T11:51:09.607Z</time>
      </trkpt>
      <trkpt lat="48.75968" lon="2.41854">
        <ele>40</ele>
        <time>2023-01-24T11:51:13.668Z</time>
      </trkpt>
      <trkpt lat="48.75973" lon="2.41849">
        <ele>40</ele>
        <time>2023-01-24T11:51:17.771Z</time>
      </trkpt>
      <trkpt lat="48.7598" lon="2.41843">
        <ele>40</ele>
        <time>2023-01-24T11:51:22.373Z</time>
      </trkpt>
      <trkpt lat="48.75986" lon="2.41838">
        <ele>40</ele>
        <time>2023-01-24T11:51:26.375Z</time>
      </trkpt>
      <trkpt lat="48.75991" lon="2.41834">
        <ele>46</ele>
        <time>2023-01-24T11:51:30.389Z</time>
      </trkpt>
      <trkpt lat="48.75996" lon="2.41831">
        <ele>46</ele>
        <time>2023-01-24T11:51:34.391Z</time>
      </trkpt>
      <trkpt lat="48.76" lon="2.4183">
        <ele>46</ele>
        <time>2023-01-24T11:51:38.394Z</time>
      </trkpt>
      <trkpt lat="48.76005" lon="2.41826">
        <ele>46</ele>
        <time>2023-01-24T11:51:43.010Z</time>
      </trkpt>
      <trkpt lat="48.7601" lon="2.41823">
        <ele>46</ele>
        <time>2023-01-24T11:51:46.600Z</time>
      </trkpt>
      <trkpt lat="48.76015" lon="2.41818">
        <ele>40</ele>
        <time>2023-01-24T11:51:50.823Z</time>
      </trkpt>
      <trkpt lat="48.7602" lon="2.41812">
        <ele>40</ele>
        <time>2023-01-24T11:51:55.286Z</time>
      </trkpt>
      <trkpt lat="48.76026" lon="2.41807">
        <ele>40</ele>
        <time>2023-01-24T11:51:59.164Z</time>
      </trkpt>
      <trkpt lat="48.76032" lon="2.41802">
        <ele>40</ele>
        <time>2023-01-24T11:52:03.544Z</time>
      </trkpt>
      <trkpt lat="48.76038" lon="2.41797">
        <ele>40</ele>
        <time>2023-01-24T11:52:07.704Z</time>
      </trkpt>
      <trkpt lat="48.76042" lon="2.41793">
        <ele>27</ele>
        <time>2023-01-24T11:52:11.846Z</time>
      </trkpt>
      <trkpt lat="48.76046" lon="2.4179">
        <ele>27</ele>
        <time>2023-01-24T11:52:16.246Z</time>
      </trkpt>
      <trkpt lat="48.7605" lon="2.41786">
        <ele>27</ele>
        <time>2023-01-24T11:52:20.586Z</time>
      </trkpt>
      <trkpt lat="48.76055" lon="2.41781">
        <ele>27</ele>
        <time>2023-01-24T11:52:25.124Z</time>
      </trkpt>
      <trkpt lat="48.76061" lon="2.41773">
        <ele>27</ele>
        <time>2023-01-24T11:52:29.673Z</time>
      </trkpt>
      <trkpt lat="48.76065" lon="2.41767">
        <ele>27</ele>
        <time>2023-01-24T11:52:33.711Z</time>
      </trkpt>
      <trkpt lat="48.76069" lon="2.41761">
        <ele>31</ele>
        <time>2023-01-24T11:52:38.290Z</time>
      </trkpt>
      <trkpt lat="48.76073" lon="2.41755">
        <ele>31</ele>
        <time>2023-01-24T11:52:42.412Z</time>
      </trkpt>
      <trkpt lat="48.76077" lon="2.41749">
        <ele>31</ele>
        <time>2023-01-24T11:52:46.426Z</time>
      </trkpt>
      <trkpt lat="48.76081" lon="2.41744">
        <ele>31</ele>
        <time>2023-01-24T11:52:50.508Z</time>
      </trkpt>
      <trkpt lat="48.76085" lon="2.41737">
        <ele>31</ele>
        <time>2023-01-24T11:52:55.229Z</time>
      </trkpt>
      <trkpt lat="48.76089" lon="2.41732">
        <ele>33</ele>
        <time>2023-01-24T11:52:59.231Z</time>
      </trkpt>
      <trkpt lat="48.76093" lon="2.41725">
        <ele>33</ele>
        <time>2023-01-24T11:53:04.102Z</time>
      </trkpt>
      <trkpt lat="48.76097" lon="2.41719">
        <ele>33</ele>
        <time>2023-01-24T11:53:07.932Z</time>
      </trkpt>
      <trkpt lat="48.76102" lon="2.41713">
        <ele>33</ele>
        <time>2023-01-24T11:53:12.312Z</time>
      </trkpt>
      <trkpt lat="48.76104" lon="2.41708">
        <ele>33</ele>
        <time>2023-01-24T11:53:16.192Z</time>
      </trkpt>
      <trkpt lat="48.76107" lon="2.41704">
        <ele>33</ele>
        <time>2023-01-24T11:53:20.993Z</time>
      </trkpt>
      <trkpt lat="48.7611" lon="2.417">
        <ele>33</ele>
        <time>2023-01-24T11:53:24.694Z</time>
      </trkpt>
      <trkpt lat="48.76112" lon="2.41699">
        <ele>33</ele>
        <time>2023-01-24T11:53:29.654Z</time>
      </trkpt>
      <trkpt lat="48.76112" lon="2.41697">
        <ele>33</ele>
        <time>2023-01-24T11:53:34.713Z</time>
      </trkpt>
      <trkpt lat="48.76114" lon="2.41694">
        <ele>33</ele>
        <time>2023-01-24T11:53:39.192Z</time>
      </trkpt>
      <trkpt lat="48.76118" lon="2.41689">
        <ele>33</ele>
        <time>2023-01-24T11:53:43.671Z</time>
      </trkpt>
      <trkpt lat="48.76122" lon="2.41682">
        <ele>33</ele>
        <time>2023-01-24T11:53:47.590Z</time>
      </trkpt>
      <trkpt lat="48.76125" lon="2.41675">
        <ele>32</ele>
        <time>2023-01-24T11:53:52.386Z</time>
      </trkpt>
      <trkpt lat="48.7613" lon="2.41669">
        <ele>32</ele>
        <time>2023-01-24T11:53:56.387Z</time>
      </trkpt>
      <trkpt lat="48.76134" lon="2.41663">
        <ele>32</ele>
        <time>2023-01-24T11:54:00.868Z</time>
      </trkpt>
      <trkpt lat="48.76138" lon="2.4166">
        <ele>32</ele>
        <time>2023-01-24T11:54:05.289Z</time>
      </trkpt>
      <trkpt lat="48.76143" lon="2.41653">
        <ele>32</ele>
        <time>2023-01-24T11:54:09.888Z</time>
      </trkpt>
      <trkpt lat="48.76148" lon="2.41646">
        <ele>31</ele>
        <time>2023-01-24T11:54:14.129Z</time>
      </trkpt>
      <trkpt lat="48.76152" lon="2.41639">
        <ele>31</ele>
        <time>2023-01-24T11:54:18.268Z</time>
      </trkpt>
      <trkpt lat="48.76154" lon="2.41633">
        <ele>31</ele>
        <time>2023-01-24T11:54:22.671Z</time>
      </trkpt>
      <trkpt lat="48.76157" lon="2.41628">
        <ele>31</ele>
        <time>2023-01-24T11:54:26.644Z</time>
      </trkpt>
      <trkpt lat="48.7616" lon="2.41623">
        <ele>31</ele>
        <time>2023-01-24T11:54:30.562Z</time>
      </trkpt>
      <trkpt lat="48.76164" lon="2.41617">
        <ele>31</ele>
        <time>2023-01-24T11:54:34.621Z</time>
      </trkpt>
      <trkpt lat="48.76169" lon="2.41613">
        <ele>31</ele>
        <time>2023-01-24T11:54:39.096Z</time>
      </trkpt>
      <trkpt lat="48.76173" lon="2.41608">
        <ele>31</ele>
        <time>2023-01-24T11:54:43.638Z</time>
      </trkpt>
      <trkpt lat="48.76177" lon="2.41603">
        <ele>31</ele>
        <time>2023-01-24T11:54:47.636Z</time>
      </trkpt>
      <trkpt lat="48.76181" lon="2.41598">
        <ele>31</ele>
        <time>2023-01-24T11:54:52.108Z</time>
      </trkpt>
      <trkpt lat="48.76185" lon="2.41593">
        <ele>31</ele>
        <time>2023-01-24T11:54:56.033Z</time>
      </trkpt>
      <trkpt lat="48.7619" lon="2.41586">
        <ele>31</ele>
        <time>2023-01-24T11:55:01.009Z</time>
      </trkpt>
      <trkpt lat="48.76194" lon="2.41582">
        <ele>31</ele>
        <time>2023-01-24T11:55:04.929Z</time>
      </trkpt>
      <trkpt lat="48.762" lon="2.41575">
        <ele>31</ele>
        <time>2023-01-24T11:55:09.222Z</time>
      </trkpt>
      <trkpt lat="48.76204" lon="2.41569">
        <ele>31</ele>
        <time>2023-01-24T11:55:13.246Z</time>
      </trkpt>
      <trkpt lat="48.76208" lon="2.41565">
        <ele>31</ele>
        <time>2023-01-24T11:55:17.264Z</time>
      </trkpt>
      <trkpt lat="48.76213" lon="2.41558">
        <ele>32</ele>
        <time>2023-01-24T11:55:21.523Z</time>
      </trkpt>
      <trkpt lat="48.76217" lon="2.41551">
        <ele>32</ele>
        <time>2023-01-24T11:55:25.387Z</time>
      </trkpt>
      <trkpt lat="48.76221" lon="2.41545">
        <ele>32</ele>
        <time>2023-01-24T11:55:29.766Z</time>
      </trkpt>
      <trkpt lat="48.76225" lon="2.4154">
        <ele>31</ele>
        <time>2023-01-24T11:55:33.979Z</time>
      </trkpt>
      <trkpt lat="48.76228" lon="2.41535">
        <ele>31</ele>
        <time>2023-01-24T11:55:38.489Z</time>
      </trkpt>
      <trkpt lat="48.76232" lon="2.4153">
        <ele>31</ele>
        <time>2023-01-24T11:55:42.235Z</time>
      </trkpt>
      <trkpt lat="48.76238" lon="2.41524">
        <ele>30</ele>
        <time>2023-01-24T11:55:47.149Z</time>
      </trkpt>
      <trkpt lat="48.76242" lon="2.41517">
        <ele>30</ele>
        <time>2023-01-24T11:55:51.693Z</time>
      </trkpt>
      <trkpt lat="48.76245" lon="2.41512">
        <ele>31</ele>
        <time>2023-01-24T11:55:55.692Z</time>
      </trkpt>
      <trkpt lat="48.76249" lon="2.41506">
        <ele>31</ele>
        <time>2023-01-24T11:56:00.209Z</time>
      </trkpt>
      <trkpt lat="48.76252" lon="2.415">
        <ele>31</ele>
        <time>2023-01-24T11:56:04.744Z</time>
      </trkpt>
      <trkpt lat="48.76256" lon="2.41494">
        <ele>31</ele>
        <time>2023-01-24T11:56:08.507Z</time>
      </trkpt>
      <trkpt lat="48.76261" lon="2.41486">
        <ele>31</ele>
        <time>2023-01-24T11:56:12.888Z</time>
      </trkpt>
      <trkpt lat="48.76265" lon="2.41479">
        <ele>32</ele>
        <time>2023-01-24T11:56:16.946Z</time>
      </trkpt>
      <trkpt lat="48.76269" lon="2.41474">
        <ele>32</ele>
        <time>2023-01-24T11:56:20.965Z</time>
      </trkpt>
      <trkpt lat="48.76273" lon="2.41466">
        <ele>32</ele>
        <time>2023-01-24T11:56:25.484Z</time>
      </trkpt>
      <trkpt lat="48.76277" lon="2.41458">
        <ele>32</ele>
        <time>2023-01-24T11:56:30.077Z</time>
      </trkpt>
      <trkpt lat="48.7628" lon="2.41451">
        <ele>32</ele>
        <time>2023-01-24T11:56:34.096Z</time>
      </trkpt>
      <trkpt lat="48.7628" lon="2.41449">
        <ele>32</ele>
        <time>2023-01-24T11:56:47.020Z</time>
      </trkpt>
      <trkpt lat="48.7628" lon="2.41446">
        <ele>32</ele>
        <time>2023-01-24T11:56:51.024Z</time>
      </trkpt>
      <trkpt lat="48.7628" lon="2.41444">
        <ele>32</ele>
        <time>2023-01-24T11:56:55.652Z</time>
      </trkpt>
      <trkpt lat="48.76281" lon="2.41443">
        <ele>32</ele>
        <time>2023-01-24T11:57:00.176Z</time>
      </trkpt>
      <trkpt lat="48.76288" lon="2.41439">
        <ele>32</ele>
        <time>2023-01-24T11:57:04.296Z</time>
      </trkpt>
      <trkpt lat="48.76293" lon="2.41435">
        <ele>33</ele>
        <time>2023-01-24T11:57:08.413Z</time>
      </trkpt>
      <trkpt lat="48.76298" lon="2.41427">
        <ele>32</ele>
        <time>2023-01-24T11:57:12.429Z</time>
      </trkpt>
      <trkpt lat="48.76303" lon="2.41422">
        <ele>32</ele>
        <time>2023-01-24T11:57:16.444Z</time>
      </trkpt>
      <trkpt lat="48.76307" lon="2.41416">
        <ele>32</ele>
        <time>2023-01-24T11:57:20.458Z</time>
      </trkpt>
      <trkpt lat="48.76312" lon="2.41411">
        <ele>32</ele>
        <time>2023-01-24T11:57:24.472Z</time>
      </trkpt>
      <trkpt lat="48.76317" lon="2.41405">
        <ele>32</ele>
        <time>2023-01-24T11:57:28.987Z</time>
      </trkpt>
      <trkpt lat="48.76322" lon="2.41398">
        <ele>33</ele>
        <time>2023-01-24T11:57:33.101Z</time>
      </trkpt>
      <trkpt lat="48.76327" lon="2.41393">
        <ele>33</ele>
        <time>2023-01-24T11:57:37.115Z</time>
      </trkpt>
      <trkpt lat="48.76332" lon="2.41389">
        <ele>33</ele>
        <time>2023-01-24T11:57:41.229Z</time>
      </trkpt>
      <trkpt lat="48.76336" lon="2.41384">
        <ele>33</ele>
        <time>2023-01-24T11:57:45.745Z</time>
      </trkpt>
      <trkpt lat="48.7634" lon="2.41378">
        <ele>33</ele>
        <time>2023-01-24T11:57:49.757Z</time>
      </trkpt>
      <trkpt lat="48.76345" lon="2.41372">
        <ele>35</ele>
        <time>2023-01-24T11:57:54.272Z</time>
      </trkpt>
      <trkpt lat="48.76349" lon="2.41368">
        <ele>33</ele>
        <time>2023-01-24T11:57:58.286Z</time>
      </trkpt>
      <trkpt lat="48.76353" lon="2.41363">
        <ele>33</ele>
        <time>2023-01-24T11:58:02.298Z</time>
      </trkpt>
      <trkpt lat="48.76358" lon="2.41358">
        <ele>33</ele>
        <time>2023-01-24T11:58:06.309Z</time>
      </trkpt>
      <trkpt lat="48.76363" lon="2.41353">
        <ele>33</ele>
        <time>2023-01-24T11:58:10.322Z</time>
      </trkpt>
      <trkpt lat="48.76368" lon="2.41347">
        <ele>36</ele>
        <time>2023-01-24T11:58:14.837Z</time>
      </trkpt>
      <trkpt lat="48.76374" lon="2.41342">
        <ele>36</ele>
        <time>2023-01-24T11:58:19.350Z</time>
      </trkpt>
      <trkpt lat="48.76378" lon="2.41336">
        <ele>33</ele>
        <time>2023-01-24T11:58:23.864Z</time>
      </trkpt>
      <trkpt lat="48.76382" lon="2.4133">
        <ele>33</ele>
        <time>2023-01-24T11:58:27.877Z</time>
      </trkpt>
      <trkpt lat="48.76388" lon="2.41323">
        <ele>33</ele>
        <time>2023-01-24T11:58:32.391Z</time>
      </trkpt>
      <trkpt lat="48.76392" lon="2.41318">
        <ele>36</ele>
        <time>2023-01-24T11:58:36.402Z</time>
      </trkpt>
      <trkpt lat="48.76395" lon="2.41315">
        <ele>36</ele>
        <time>2023-01-24T11:58:40.413Z</time>
      </trkpt>
      <trkpt lat="48.764" lon="2.41311">
        <ele>36</ele>
        <time>2023-01-24T11:58:44.929Z</time>
      </trkpt>
      <trkpt lat="48.76406" lon="2.41306">
        <ele>31</ele>
        <time>2023-01-24T11:58:49.037Z</time>
      </trkpt>
      <trkpt lat="48.76411" lon="2.41301">
        <ele>31</ele>
        <time>2023-01-24T11:58:53.048Z</time>
      </trkpt>
      <trkpt lat="48.76415" lon="2.41296">
        <ele>31</ele>
        <time>2023-01-24T11:58:57.060Z</time>
      </trkpt>
      <trkpt lat="48.76421" lon="2.41289">
        <ele>35</ele>
        <time>2023-01-24T11:59:01.571Z</time>
      </trkpt>
      <trkpt lat="48.76425" lon="2.41283">
        <ele>35</ele>
        <time>2023-01-24T11:59:05.586Z</time>
      </trkpt>
      <trkpt lat="48.7643" lon="2.41277">
        <ele>35</ele>
        <time>2023-01-24T11:59:10.095Z</time>
      </trkpt>
      <trkpt lat="48.76434" lon="2.41276">
        <ele>31</ele>
        <time>2023-01-24T11:59:14.102Z</time>
      </trkpt>
      <trkpt lat="48.76441" lon="2.41271">
        <ele>31</ele>
        <time>2023-01-24T11:59:18.608Z</time>
      </trkpt>
      <trkpt lat="48.76448" lon="2.41266">
        <ele>31</ele>
        <time>2023-01-24T11:59:22.615Z</time>
      </trkpt>
      <trkpt lat="48.76454" lon="2.41262">
        <ele>33</ele>
        <time>2023-01-24T11:59:26.624Z</time>
      </trkpt>
      <trkpt lat="48.76459" lon="2.41257">
        <ele>30</ele>
        <time>2023-01-24T11:59:30.635Z</time>
      </trkpt>
      <trkpt lat="48.76463" lon="2.41254">
        <ele>30</ele>
        <time>2023-01-24T11:59:34.643Z</time>
      </trkpt>
      <trkpt lat="48.76469" lon="2.4125">
        <ele>30</ele>
        <time>2023-01-24T11:59:39.251Z</time>
      </trkpt>
      <trkpt lat="48.76475" lon="2.41246">
        <ele>30</ele>
        <time>2023-01-24T11:59:43.256Z</time>
      </trkpt>
      <trkpt lat="48.7648" lon="2.41243">
        <ele>30</ele>
        <time>2023-01-24T11:59:47.260Z</time>
      </trkpt>
      <trkpt lat="48.76485" lon="2.41239">
        <ele>30</ele>
        <time>2023-01-24T11:59:51.364Z</time>
      </trkpt>
      <trkpt lat="48.76491" lon="2.41234">
        <ele>32</ele>
        <time>2023-01-24T11:59:55.867Z</time>
      </trkpt>
      <trkpt lat="48.76496" lon="2.41231">
        <ele>32</ele>
        <time>2023-01-24T12:00:00.369Z</time>
      </trkpt>
      <trkpt lat="48.76501" lon="2.41228">
        <ele>32</ele>
        <time>2023-01-24T12:00:04.874Z</time>
      </trkpt>
      <trkpt lat="48.76508" lon="2.41223">
        <ele>32</ele>
        <time>2023-01-24T12:00:08.879Z</time>
      </trkpt>
      <trkpt lat="48.76514" lon="2.41218">
        <ele>33</ele>
        <time>2023-01-24T12:00:13.383Z</time>
      </trkpt>
      <trkpt lat="48.76519" lon="2.41214">
        <ele>33</ele>
        <time>2023-01-24T12:00:17.387Z</time>
      </trkpt>
      <trkpt lat="48.76525" lon="2.41208">
        <ele>33</ele>
        <time>2023-01-24T12:00:21.391Z</time>
      </trkpt>
      <trkpt lat="48.7653" lon="2.41203">
        <ele>34</ele>
        <time>2023-01-24T12:00:25.395Z</time>
      </trkpt>
      <trkpt lat="48.7654" lon="2.41195">
        <ele>34</ele>
        <time>2023-01-24T12:00:34.001Z</time>
      </trkpt>
      <trkpt lat="48.7654" lon="2.4119">
        <ele>34</ele>
        <time>2023-01-24T12:00:38.004Z</time>
      </trkpt>
      <trkpt lat="48.76539" lon="2.41189">
        <ele>34</ele>
        <time>2023-01-24T12:00:42.007Z</time>
      </trkpt>
      <trkpt lat="48.76539" lon="2.41187">
        <ele>34</ele>
        <time>2023-01-24T12:00:47.011Z</time>
      </trkpt>
      <trkpt lat="48.76539" lon="2.41185">
        <ele>34</ele>
        <time>2023-01-24T12:00:51.514Z</time>
      </trkpt>
      <trkpt lat="48.76539" lon="2.41179">
        <ele>35</ele>
        <time>2023-01-24T12:01:15.088Z</time>
      </trkpt>
      <trkpt lat="48.76539" lon="2.41176">
        <ele>35</ele>
        <time>2023-01-24T12:01:19.540Z</time>
      </trkpt>
      <trkpt lat="48.7654" lon="2.41174">
        <ele>35</ele>
        <time>2023-01-24T12:01:24.045Z</time>
      </trkpt>
      <trkpt lat="48.76541" lon="2.4117">
        <ele>35</ele>
        <time>2023-01-24T12:01:29.051Z</time>
      </trkpt>
      <trkpt lat="48.76541" lon="2.41164">
        <ele>35</ele>
        <time>2023-01-24T12:01:33.054Z</time>
      </trkpt>
      <trkpt lat="48.76546" lon="2.4116">
        <ele>32</ele>
        <time>2023-01-24T12:01:37.557Z</time>
      </trkpt>
      <trkpt lat="48.76552" lon="2.41156">
        <ele>32</ele>
        <time>2023-01-24T12:01:42.062Z</time>
      </trkpt>
      <trkpt lat="48.76558" lon="2.41153">
        <ele>32</ele>
        <time>2023-01-24T12:01:46.065Z</time>
      </trkpt>
      <trkpt lat="48.76565" lon="2.41152">
        <ele>34</ele>
        <time>2023-01-24T12:01:50.568Z</time>
      </trkpt>
      <trkpt lat="48.7657" lon="2.41151">
        <ele>33</ele>
        <time>2023-01-24T12:01:54.571Z</time>
      </trkpt>
      <trkpt lat="48.76575" lon="2.41147">
        <ele>33</ele>
        <time>2023-01-24T12:01:58.675Z</time>
      </trkpt>
      <trkpt lat="48.76579" lon="2.41143">
        <ele>33</ele>
        <time>2023-01-24T12:02:03.680Z</time>
      </trkpt>
      <trkpt lat="48.76581" lon="2.41139">
        <ele>33</ele>
        <time>2023-01-24T12:02:08.185Z</time>
      </trkpt>
      <trkpt lat="48.76587" lon="2.41136">
        <ele>33</ele>
        <time>2023-01-24T12:02:12.188Z</time>
      </trkpt>
      <trkpt lat="48.76592" lon="2.41134">
        <ele>33</ele>
        <time>2023-01-24T12:02:16.191Z</time>
      </trkpt>
      <trkpt lat="48.76596" lon="2.41133">
        <ele>33</ele>
        <time>2023-01-24T12:02:20.693Z</time>
      </trkpt>
      <trkpt lat="48.76599" lon="2.41137">
        <ele>35</ele>
        <time>2023-01-24T12:02:25.198Z</time>
      </trkpt>
      <trkpt lat="48.76602" lon="2.41144">
        <ele>35</ele>
        <time>2023-01-24T12:02:29.439Z</time>
      </trkpt>
      <trkpt lat="48.76604" lon="2.41151">
        <ele>35</ele>
        <time>2023-01-24T12:02:33.480Z</time>
      </trkpt>
      <trkpt lat="48.76606" lon="2.41159">
        <ele>32</ele>
        <time>2023-01-24T12:02:37.581Z</time>
      </trkpt>
      <trkpt lat="48.76608" lon="2.41165">
        <ele>32</ele>
        <time>2023-01-24T12:02:41.683Z</time>
      </trkpt>
      <trkpt lat="48.7661" lon="2.41171">
        <ele>32</ele>
        <time>2023-01-24T12:02:45.745Z</time>
      </trkpt>
      <trkpt lat="48.76613" lon="2.41178">
        <ele>32</ele>
        <time>2023-01-24T12:02:50.248Z</time>
      </trkpt>
      <trkpt lat="48.76616" lon="2.41185">
        <ele>30</ele>
        <time>2023-01-24T12:02:54.853Z</time>
      </trkpt>
      <trkpt lat="48.76618" lon="2.41192">
        <ele>30</ele>
        <time>2023-01-24T12:02:58.855Z</time>
      </trkpt>
      <trkpt lat="48.7662" lon="2.41199">
        <ele>30</ele>
        <time>2023-01-24T12:03:03.387Z</time>
      </trkpt>
      <trkpt lat="48.76622" lon="2.41207">
        <ele>30</ele>
        <time>2023-01-24T12:03:07.560Z</time>
      </trkpt>
      <trkpt lat="48.76624" lon="2.41214">
        <ele>31</ele>
        <time>2023-01-24T12:03:11.564Z</time>
      </trkpt>
      <trkpt lat="48.76626" lon="2.41221">
        <ele>35</ele>
        <time>2023-01-24T12:03:15.585Z</time>
      </trkpt>
      <trkpt lat="48.76628" lon="2.41228">
        <ele>35</ele>
        <time>2023-01-24T12:03:20.087Z</time>
      </trkpt>
      <trkpt lat="48.7663" lon="2.41235">
        <ele>35</ele>
        <time>2023-01-24T12:03:24.262Z</time>
      </trkpt>
      <trkpt lat="48.76633" lon="2.41243">
        <ele>37</ele>
        <time>2023-01-24T12:03:28.352Z</time>
      </trkpt>
      <trkpt lat="48.76635" lon="2.4125">
        <ele>37</ele>
        <time>2023-01-24T12:03:32.354Z</time>
      </trkpt>
      <trkpt lat="48.76638" lon="2.41259">
        <ele>37</ele>
        <time>2023-01-24T12:03:36.356Z</time>
      </trkpt>
      <trkpt lat="48.7664" lon="2.41268">
        <ele>38</ele>
        <time>2023-01-24T12:03:40.901Z</time>
      </trkpt>
      <trkpt lat="48.76641" lon="2.41275">
        <ele>38</ele>
        <time>2023-01-24T12:03:44.963Z</time>
      </trkpt>
      <trkpt lat="48.76643" lon="2.41282">
        <ele>38</ele>
        <time>2023-01-24T12:03:48.967Z</time>
      </trkpt>
      <trkpt lat="48.76645" lon="2.41291">
        <ele>38</ele>
        <time>2023-01-24T12:03:53.470Z</time>
      </trkpt>
      <trkpt lat="48.76648" lon="2.41299">
        <ele>38</ele>
        <time>2023-01-24T12:03:57.474Z</time>
      </trkpt>
      <trkpt lat="48.7665" lon="2.41307">
        <ele>38</ele>
        <time>2023-01-24T12:04:01.476Z</time>
      </trkpt>
      <trkpt lat="48.76652" lon="2.41315">
        <ele>38</ele>
        <time>2023-01-24T12:04:05.579Z</time>
      </trkpt>
      <trkpt lat="48.76648" lon="2.41323">
        <ele>35</ele>
        <time>2023-01-24T12:04:40.443Z</time>
      </trkpt>
      <trkpt lat="48.76646" lon="2.41319">
        <ele>38</ele>
        <time>2023-01-24T12:04:44.947Z</time>
      </trkpt>
      <trkpt lat="48.7664" lon="2.41324">
        <ele>35</ele>
        <time>2023-01-24T12:04:48.949Z</time>
      </trkpt>
      <trkpt lat="48.76635" lon="2.41328">
        <ele>35</ele>
        <time>2023-01-24T12:04:52.952Z</time>
      </trkpt>
      <trkpt lat="48.76629" lon="2.41331">
        <ele>35</ele>
        <time>2023-01-24T12:04:56.955Z</time>
      </trkpt>
      <trkpt lat="48.76624" lon="2.41334">
        <ele>33</ele>
        <time>2023-01-24T12:05:01.077Z</time>
      </trkpt>
      <trkpt lat="48.76618" lon="2.41338">
        <ele>33</ele>
        <time>2023-01-24T12:05:05.080Z</time>
      </trkpt>
      <trkpt lat="48.76612" lon="2.41344">
        <ele>33</ele>
        <time>2023-01-24T12:05:09.784Z</time>
      </trkpt>
      <trkpt lat="48.76607" lon="2.41348">
        <ele>33</ele>
        <time>2023-01-24T12:05:13.789Z</time>
      </trkpt>
      <trkpt lat="48.76602" lon="2.41351">
        <ele>33</ele>
        <time>2023-01-24T12:05:18.392Z</time>
      </trkpt>
      <trkpt lat="48.76598" lon="2.41354">
        <ele>33</ele>
        <time>2023-01-24T12:05:22.495Z</time>
      </trkpt>
      <trkpt lat="48.76594" lon="2.41358">
        <ele>31</ele>
        <time>2023-01-24T12:05:26.598Z</time>
      </trkpt>
      <trkpt lat="48.76588" lon="2.41363">
        <ele>31</ele>
        <time>2023-01-24T12:05:30.701Z</time>
      </trkpt>
      <trkpt lat="48.76583" lon="2.41368">
        <ele>31</ele>
        <time>2023-01-24T12:05:35.323Z</time>
      </trkpt>
      <trkpt lat="48.76577" lon="2.41374">
        <ele>31</ele>
        <time>2023-01-24T12:05:39.927Z</time>
      </trkpt>
      <trkpt lat="48.76572" lon="2.41379">
        <ele>31</ele>
        <time>2023-01-24T12:05:43.631Z</time>
      </trkpt>
      <trkpt lat="48.76567" lon="2.41383">
        <ele>32</ele>
        <time>2023-01-24T12:05:47.634Z</time>
      </trkpt>
      <trkpt lat="48.76561" lon="2.41391">
        <ele>32</ele>
        <time>2023-01-24T12:05:52.136Z</time>
      </trkpt>
      <trkpt lat="48.76557" lon="2.41396">
        <ele>32</ele>
        <time>2023-01-24T12:05:56.141Z</time>
      </trkpt>
      <trkpt lat="48.76553" lon="2.414">
        <ele>32</ele>
        <time>2023-01-24T12:06:00.144Z</time>
      </trkpt>
      <trkpt lat="48.76548" lon="2.41403">
        <ele>32</ele>
        <time>2023-01-24T12:06:04.653Z</time>
      </trkpt>
      <trkpt lat="48.76544" lon="2.41406">
        <ele>32</ele>
        <time>2023-01-24T12:06:08.250Z</time>
      </trkpt>
      <trkpt lat="48.76539" lon="2.41411">
        <ele>31</ele>
        <time>2023-01-24T12:06:12.754Z</time>
      </trkpt>
      <trkpt lat="48.76534" lon="2.41417">
        <ele>31</ele>
        <time>2023-01-24T12:06:16.756Z</time>
      </trkpt>
      <trkpt lat="48.76529" lon="2.41422">
        <ele>31</ele>
        <time>2023-01-24T12:06:20.759Z</time>
      </trkpt>
      <trkpt lat="48.76525" lon="2.41427">
        <ele>31</ele>
        <time>2023-01-24T12:06:24.763Z</time>
      </trkpt>
      <trkpt lat="48.7652" lon="2.41432">
        <ele>30</ele>
        <time>2023-01-24T12:06:29.266Z</time>
      </trkpt>
      <trkpt lat="48.76515" lon="2.41437">
        <ele>30</ele>
        <time>2023-01-24T12:06:33.770Z</time>
      </trkpt>
      <trkpt lat="48.76511" lon="2.41444">
        <ele>31</ele>
        <time>2023-01-24T12:06:37.773Z</time>
      </trkpt>
      <trkpt lat="48.76507" lon="2.41451">
        <ele>31</ele>
        <time>2023-01-24T12:06:41.775Z</time>
      </trkpt>
      <trkpt lat="48.76503" lon="2.4146">
        <ele>31</ele>
        <time>2023-01-24T12:06:46.279Z</time>
      </trkpt>
      <trkpt lat="48.76499" lon="2.41468">
        <ele>31</ele>
        <time>2023-01-24T12:06:50.783Z</time>
      </trkpt>
      <trkpt lat="48.76495" lon="2.41476">
        <ele>31</ele>
        <time>2023-01-24T12:06:54.825Z</time>
      </trkpt>
      <trkpt lat="48.7649" lon="2.41485">
        <ele>31</ele>
        <time>2023-01-24T12:06:59.329Z</time>
      </trkpt>
      <trkpt lat="48.76485" lon="2.41494">
        <ele>33</ele>
        <time>2023-01-24T12:07:03.331Z</time>
      </trkpt>
      <trkpt lat="48.7648" lon="2.41502">
        <ele>33</ele>
        <time>2023-01-24T12:07:07.884Z</time>
      </trkpt>
      <trkpt lat="48.76476" lon="2.4151">
        <ele>33</ele>
        <time>2023-01-24T12:07:12.047Z</time>
      </trkpt>
      <trkpt lat="48.76471" lon="2.4152">
        <ele>30</ele>
        <time>2023-01-24T12:07:16.551Z</time>
      </trkpt>
      <trkpt lat="48.76467" lon="2.41528">
        <ele>30</ele>
        <time>2023-01-24T12:07:21.099Z</time>
      </trkpt>
      <trkpt lat="48.76463" lon="2.41535">
        <ele>30</ele>
        <time>2023-01-24T12:07:25.116Z</time>
      </trkpt>
      <trkpt lat="48.76459" lon="2.4154">
        <ele>30</ele>
        <time>2023-01-24T12:07:29.118Z</time>
      </trkpt>
      <trkpt lat="48.76455" lon="2.41547">
        <ele>30</ele>
        <time>2023-01-24T12:07:33.121Z</time>
      </trkpt>
      <trkpt lat="48.76451" lon="2.41555">
        <ele>30</ele>
        <time>2023-01-24T12:07:37.623Z</time>
      </trkpt>
      <trkpt lat="48.76446" lon="2.41561">
        <ele>30</ele>
        <time>2023-01-24T12:07:42.364Z</time>
      </trkpt>
      <trkpt lat="48.76442" lon="2.41568">
        <ele>30</ele>
        <time>2023-01-24T12:07:46.926Z</time>
      </trkpt>
      <trkpt lat="48.76437" lon="2.41577">
        <ele>29</ele>
        <time>2023-01-24T12:07:51.468Z</time>
      </trkpt>
      <trkpt lat="48.76435" lon="2.41582">
        <ele>29</ele>
        <time>2023-01-24T12:07:55.188Z</time>
      </trkpt>
      <trkpt lat="48.76431" lon="2.41587">
        <ele>29</ele>
        <time>2023-01-24T12:07:59.929Z</time>
      </trkpt>
      <trkpt lat="48.76427" lon="2.41595">
        <ele>32</ele>
        <time>2023-01-24T12:08:04.051Z</time>
      </trkpt>
      <trkpt lat="48.76424" lon="2.41602">
        <ele>32</ele>
        <time>2023-01-24T12:08:08.133Z</time>
      </trkpt>
      <trkpt lat="48.7642" lon="2.41609">
        <ele>32</ele>
        <time>2023-01-24T12:08:12.155Z</time>
      </trkpt>
      <trkpt lat="48.76416" lon="2.41617">
        <ele>32</ele>
        <time>2023-01-24T12:08:16.756Z</time>
      </trkpt>
      <trkpt lat="48.76411" lon="2.41626">
        <ele>31</ele>
        <time>2023-01-24T12:08:21.258Z</time>
      </trkpt>
      <trkpt lat="48.76408" lon="2.41632">
        <ele>31</ele>
        <time>2023-01-24T12:08:25.360Z</time>
      </trkpt>
      <trkpt lat="48.76404" lon="2.41639">
        <ele>31</ele>
        <time>2023-01-24T12:08:29.364Z</time>
      </trkpt>
      <trkpt lat="48.764" lon="2.41646">
        <ele>33</ele>
        <time>2023-01-24T12:08:33.366Z</time>
      </trkpt>
      <trkpt lat="48.76396" lon="2.41653">
        <ele>32</ele>
        <time>2023-01-24T12:08:37.883Z</time>
      </trkpt>
      <trkpt lat="48.76392" lon="2.41661">
        <ele>32</ele>
        <time>2023-01-24T12:08:42.047Z</time>
      </trkpt>
      <trkpt lat="48.76389" lon="2.41669">
        <ele>32</ele>
        <time>2023-01-24T12:08:46.231Z</time>
      </trkpt>
      <trkpt lat="48.76386" lon="2.41674">
        <ele>32</ele>
        <time>2023-01-24T12:08:50.192Z</time>
      </trkpt>
      <trkpt lat="48.76383" lon="2.4168">
        <ele>32</ele>
        <time>2023-01-24T12:08:54.912Z</time>
      </trkpt>
      <trkpt lat="48.76379" lon="2.41688">
        <ele>31</ele>
        <time>2023-01-24T12:08:58.734Z</time>
      </trkpt>
      <trkpt lat="48.76373" lon="2.41695">
        <ele>33</ele>
        <time>2023-01-24T12:09:03.396Z</time>
      </trkpt>
      <trkpt lat="48.76367" lon="2.417">
        <ele>33</ele>
        <time>2023-01-24T12:09:07.899Z</time>
      </trkpt>
      <trkpt lat="48.76366" lon="2.41709">
        <ele>33</ele>
        <time>2023-01-24T12:09:11.901Z</time>
      </trkpt>
      <trkpt lat="48.76361" lon="2.41717">
        <ele>33</ele>
        <time>2023-01-24T12:09:16.583Z</time>
      </trkpt>
      <trkpt lat="48.76356" lon="2.41725">
        <ele>33</ele>
        <time>2023-01-24T12:09:21.085Z</time>
      </trkpt>
      <trkpt lat="48.76353" lon="2.4173">
        <ele>33</ele>
        <time>2023-01-24T12:09:25.099Z</time>
      </trkpt>
      <trkpt lat="48.7635" lon="2.41734">
        <ele>33</ele>
        <time>2023-01-24T12:09:28.960Z</time>
      </trkpt>
      <trkpt lat="48.76345" lon="2.4174">
        <ele>34</ele>
        <time>2023-01-24T12:09:33.479Z</time>
      </trkpt>
      <trkpt lat="48.76342" lon="2.41747">
        <ele>34</ele>
        <time>2023-01-24T12:09:37.939Z</time>
      </trkpt>
      <trkpt lat="48.76339" lon="2.41753">
        <ele>34</ele>
        <time>2023-01-24T12:09:41.779Z</time>
      </trkpt>
      <trkpt lat="48.76334" lon="2.4176">
        <ele>34</ele>
        <time>2023-01-24T12:09:46.179Z</time>
      </trkpt>
      <trkpt lat="48.76312" lon="2.41787">
        <ele>34</ele>
        <time>2023-01-24T12:10:25.991Z</time>
      </trkpt>
      <trkpt lat="48.76311" lon="2.41787">
        <ele>34</ele>
        <time>2023-01-24T12:10:30.999Z</time>
      </trkpt>
      <trkpt lat="48.76308" lon="2.41789">
        <ele>34</ele>
        <time>2023-01-24T12:10:35.524Z</time>
      </trkpt>
      <trkpt lat="48.76302" lon="2.41796">
        <ele>35</ele>
        <time>2023-01-24T12:10:39.545Z</time>
      </trkpt>
      <trkpt lat="48.76298" lon="2.41798">
        <ele>35</ele>
        <time>2023-01-24T12:10:43.663Z</time>
      </trkpt>
      <trkpt lat="48.76295" lon="2.41802">
        <ele>35</ele>
        <time>2023-01-24T12:10:48.688Z</time>
      </trkpt>
      <trkpt lat="48.76292" lon="2.41812">
        <ele>35</ele>
        <time>2023-01-24T12:10:53.710Z</time>
      </trkpt>
      <trkpt lat="48.76289" lon="2.41818">
        <ele>34</ele>
        <time>2023-01-24T12:10:57.728Z</time>
      </trkpt>
      <trkpt lat="48.76284" lon="2.41823">
        <ele>35</ele>
        <time>2023-01-24T12:11:01.746Z</time>
      </trkpt>
      <trkpt lat="48.7628" lon="2.41827">
        <ele>35</ele>
        <time>2023-01-24T12:11:05.763Z</time>
      </trkpt>
      <trkpt lat="48.76276" lon="2.41832">
        <ele>35</ele>
        <time>2023-01-24T12:11:10.381Z</time>
      </trkpt>
      <trkpt lat="48.76271" lon="2.41838">
        <ele>35</ele>
        <time>2023-01-24T12:11:14.396Z</time>
      </trkpt>
      <trkpt lat="48.76267" lon="2.41843">
        <ele>35</ele>
        <time>2023-01-24T12:11:18.414Z</time>
      </trkpt>
      <trkpt lat="48.76265" lon="2.41851">
        <ele>36</ele>
        <time>2023-01-24T12:11:36.530Z</time>
      </trkpt>
      <trkpt lat="48.76259" lon="2.41855">
        <ele>36</ele>
        <time>2023-01-24T12:11:40.675Z</time>
      </trkpt>
      <trkpt lat="48.76253" lon="2.41859">
        <ele>36</ele>
        <time>2023-01-24T12:11:44.702Z</time>
      </trkpt>
      <trkpt lat="48.76251" lon="2.41861">
        <ele>36</ele>
        <time>2023-01-24T12:11:49.736Z</time>
      </trkpt>
      <trkpt lat="48.7625" lon="2.41868">
        <ele>36</ele>
        <time>2023-01-24T12:11:54.267Z</time>
      </trkpt>
      <trkpt lat="48.76246" lon="2.41872">
        <ele>36</ele>
        <time>2023-01-24T12:11:58.799Z</time>
      </trkpt>
      <trkpt lat="48.76242" lon="2.41873">
        <ele>36</ele>
        <time>2023-01-24T12:12:02.826Z</time>
      </trkpt>
      <trkpt lat="48.76238" lon="2.41876">
        <ele>35</ele>
        <time>2023-01-24T12:12:06.854Z</time>
      </trkpt>
      <trkpt lat="48.76231" lon="2.41887">
        <ele>35</ele>
        <time>2023-01-24T12:12:11.886Z</time>
      </trkpt>
      <trkpt lat="48.76226" lon="2.41892">
        <ele>35</ele>
        <time>2023-01-24T12:12:15.907Z</time>
      </trkpt>
      <trkpt lat="48.76221" lon="2.41896">
        <ele>35</ele>
        <time>2023-01-24T12:12:19.930Z</time>
      </trkpt>
      <trkpt lat="48.76216" lon="2.41899">
        <ele>35</ele>
        <time>2023-01-24T12:12:24.456Z</time>
      </trkpt>
      <trkpt lat="48.76212" lon="2.41905">
        <ele>32</ele>
        <time>2023-01-24T12:12:28.998Z</time>
      </trkpt>
      <trkpt lat="48.76207" lon="2.41911">
        <ele>33</ele>
        <time>2023-01-24T12:12:33.522Z</time>
      </trkpt>
      <trkpt lat="48.76202" lon="2.41912">
        <ele>33</ele>
        <time>2023-01-24T12:12:37.543Z</time>
      </trkpt>
      <trkpt lat="48.76199" lon="2.41918">
        <ele>33</ele>
        <time>2023-01-24T12:12:42.065Z</time>
      </trkpt>
      <trkpt lat="48.76192" lon="2.41926">
        <ele>33</ele>
        <time>2023-01-24T12:12:46.089Z</time>
      </trkpt>
      <trkpt lat="48.76187" lon="2.41933">
        <ele>33</ele>
        <time>2023-01-24T12:12:50.108Z</time>
      </trkpt>
      <trkpt lat="48.76182" lon="2.41939">
        <ele>33</ele>
        <time>2023-01-24T12:12:54.632Z</time>
      </trkpt>
      <trkpt lat="48.76177" lon="2.41945">
        <ele>34</ele>
        <time>2023-01-24T12:12:58.657Z</time>
      </trkpt>
      <trkpt lat="48.76172" lon="2.41953">
        <ele>34</ele>
        <time>2023-01-24T12:13:03.177Z</time>
      </trkpt>
      <trkpt lat="48.76166" lon="2.4196">
        <ele>34</ele>
        <time>2023-01-24T12:13:07.699Z</time>
      </trkpt>
      <trkpt lat="48.7616" lon="2.41966">
        <ele>34</ele>
        <time>2023-01-24T12:13:11.715Z</time>
      </trkpt>
      <trkpt lat="48.76155" lon="2.4197">
        <ele>34</ele>
        <time>2023-01-24T12:13:15.727Z</time>
      </trkpt>
      <trkpt lat="48.76149" lon="2.41974">
        <ele>33</ele>
        <time>2023-01-24T12:13:20.242Z</time>
      </trkpt>
      <trkpt lat="48.76143" lon="2.41981">
        <ele>33</ele>
        <time>2023-01-24T12:13:24.758Z</time>
      </trkpt>
      <trkpt lat="48.76137" lon="2.41987">
        <ele>36</ele>
        <time>2023-01-24T12:13:29.774Z</time>
      </trkpt>
      <trkpt lat="48.76131" lon="2.41993">
        <ele>36</ele>
        <time>2023-01-24T12:13:33.789Z</time>
      </trkpt>
      <trkpt lat="48.76125" lon="2.41999">
        <ele>42</ele>
        <time>2023-01-24T12:13:38.316Z</time>
      </trkpt>
      <trkpt lat="48.76119" lon="2.42006">
        <ele>42</ele>
        <time>2023-01-24T12:13:42.929Z</time>
      </trkpt>
      <trkpt lat="48.76114" lon="2.42013">
        <ele>42</ele>
        <time>2023-01-24T12:13:46.941Z</time>
      </trkpt>
      <trkpt lat="48.76108" lon="2.42019">
        <ele>39</ele>
        <time>2023-01-24T12:13:51.454Z</time>
      </trkpt>
      <trkpt lat="48.76103" lon="2.42025">
        <ele>39</ele>
        <time>2023-01-24T12:13:55.465Z</time>
      </trkpt>
      <trkpt lat="48.76099" lon="2.42031">
        <ele>39</ele>
        <time>2023-01-24T12:13:59.475Z</time>
      </trkpt>
      <trkpt lat="48.76094" lon="2.42035">
        <ele>41</ele>
        <time>2023-01-24T12:14:03.986Z</time>
      </trkpt>
      <trkpt lat="48.76089" lon="2.42039">
        <ele>41</ele>
        <time>2023-01-24T12:14:07.996Z</time>
      </trkpt>
      <trkpt lat="48.76084" lon="2.42044">
        <ele>38</ele>
        <time>2023-01-24T12:14:12.523Z</time>
      </trkpt>
      <trkpt lat="48.76077" lon="2.42048">
        <ele>38</ele>
        <time>2023-01-24T12:14:17.052Z</time>
      </trkpt>
      <trkpt lat="48.76073" lon="2.42057">
        <ele>38</ele>
        <time>2023-01-24T12:14:21.077Z</time>
      </trkpt>
      <trkpt lat="48.7607" lon="2.42063">
        <ele>38</ele>
        <time>2023-01-24T12:14:25.102Z</time>
      </trkpt>
      <trkpt lat="48.76066" lon="2.42066">
        <ele>37</ele>
        <time>2023-01-24T12:14:29.619Z</time>
      </trkpt>
      <trkpt lat="48.76061" lon="2.4207">
        <ele>36</ele>
        <time>2023-01-24T12:14:33.632Z</time>
      </trkpt>
      <trkpt lat="48.76056" lon="2.42074">
        <ele>36</ele>
        <time>2023-01-24T12:14:38.147Z</time>
      </trkpt>
      <trkpt lat="48.76053" lon="2.42077">
        <ele>36</ele>
        <time>2023-01-24T12:14:42.662Z</time>
      </trkpt>
      <trkpt lat="48.76052" lon="2.42078">
        <ele>36</ele>
        <time>2023-01-24T12:14:46.785Z</time>
      </trkpt>
      <trkpt lat="48.76052" lon="2.42084">
        <ele>36</ele>
        <time>2023-01-24T12:14:50.885Z</time>
      </trkpt>
      <trkpt lat="48.76052" lon="2.42094">
        <ele>36</ele>
        <time>2023-01-24T12:14:55.395Z</time>
      </trkpt>
      <trkpt lat="48.76052" lon="2.42104">
        <ele>36</ele>
        <time>2023-01-24T12:15:00.005Z</time>
      </trkpt>
      <trkpt lat="48.76049" lon="2.42112">
        <ele>36</ele>
        <time>2023-01-24T12:15:04.012Z</time>
      </trkpt>
      <trkpt lat="48.76047" lon="2.42118">
        <ele>36</ele>
        <time>2023-01-24T12:15:08.141Z</time>
      </trkpt>
      <trkpt lat="48.76051" lon="2.42122">
        <ele>36</ele>
        <time>2023-01-24T12:15:12.235Z</time>
      </trkpt>
      <trkpt lat="48.76053" lon="2.42131">
        <ele>37</ele>
        <time>2023-01-24T12:15:16.240Z</time>
      </trkpt>
      <trkpt lat="48.76055" lon="2.42138">
        <ele>37</ele>
        <time>2023-01-24T12:15:20.744Z</time>
      </trkpt>
      <trkpt lat="48.76055" lon="2.42137">
        <ele>37</ele>
        <time>2023-01-24T12:15:25.287Z</time>
      </trkpt>
      <trkpt lat="48.76059" lon="2.42143">
        <ele>37</ele>
        <time>2023-01-24T12:15:29.808Z</time>
      </trkpt>
      <trkpt lat="48.76062" lon="2.42147">
        <ele>37</ele>
        <time>2023-01-24T12:15:35.030Z</time>
      </trkpt>
      <trkpt lat="48.76064" lon="2.42148">
        <ele>37</ele>
        <time>2023-01-24T12:15:39.633Z</time>
      </trkpt>
      <trkpt lat="48.76067" lon="2.42153">
        <ele>37</ele>
        <time>2023-01-24T12:15:56.658Z</time>
      </trkpt>
      <trkpt lat="48.76069" lon="2.42157">
        <ele>37</ele>
        <time>2023-01-24T12:16:01.662Z</time>
      </trkpt>
      <trkpt lat="48.76071" lon="2.42158">
        <ele>37</ele>
        <time>2023-01-24T12:16:06.168Z</time>
      </trkpt>
      <trkpt lat="48.76072" lon="2.42158">
        <ele>37</ele>
        <time>2023-01-24T12:16:10.871Z</time>
      </trkpt>
      <trkpt lat="48.76074" lon="2.42157">
        <ele>37</ele>
        <time>2023-01-24T12:16:15.171Z</time>
      </trkpt>
      <trkpt lat="48.76074" lon="2.42155">
        <ele>37</ele>
        <time>2023-01-24T12:42:53.112Z</time>
      </trkpt>
      <trkpt lat="48.76072" lon="2.42158">
        <ele>37</ele>
        <time>2023-01-24T12:42:58.105Z</time>
      </trkpt>
      <trkpt lat="48.7607" lon="2.42159">
        <ele>37</ele>
        <time>2023-01-24T12:43:02.108Z</time>
      </trkpt>
      <trkpt lat="48.76068" lon="2.42163">
        <ele>37</ele>
        <time>2023-01-24T12:43:06.116Z</time>
      </trkpt>
      <trkpt lat="48.76064" lon="2.42168">
        <ele>37</ele>
        <time>2023-01-24T12:43:11.113Z</time>
      </trkpt>
      <trkpt lat="48.76061" lon="2.42172">
        <ele>37</ele>
        <time>2023-01-24T12:43:15.106Z</time>
      </trkpt>
      <trkpt lat="48.76059" lon="2.42176">
        <ele>37</ele>
        <time>2023-01-24T12:43:19.582Z</time>
      </trkpt>
      <trkpt lat="48.76059" lon="2.4218">
        <ele>37</ele>
        <time>2023-01-24T12:43:23.774Z</time>
      </trkpt>
      <trkpt lat="48.76059" lon="2.42182">
        <ele>37</ele>
        <time>2023-01-24T12:43:28.364Z</time>
      </trkpt>
      <trkpt lat="48.76059" lon="2.42187">
        <ele>37</ele>
        <time>2023-01-24T12:43:32.388Z</time>
      </trkpt>
      <trkpt lat="48.76058" lon="2.42189">
        <ele>37</ele>
        <time>2023-01-24T12:43:36.560Z</time>
      </trkpt>
      <trkpt lat="48.76058" lon="2.42191">
        <ele>37</ele>
        <time>2023-01-24T12:43:40.594Z</time>
      </trkpt>
      <trkpt lat="48.76058" lon="2.42195">
        <ele>37</ele>
        <time>2023-01-24T12:43:45.200Z</time>
      </trkpt>
      <trkpt lat="48.76058" lon="2.42198">
        <ele>37</ele>
        <time>2023-01-24T12:43:49.207Z</time>
      </trkpt>
      <trkpt lat="48.76059" lon="2.42204">
        <ele>37</ele>
        <time>2023-01-24T12:43:53.711Z</time>
      </trkpt>
      <trkpt lat="48.76058" lon="2.42209">
        <ele>37</ele>
        <time>2023-01-24T12:43:57.715Z</time>
      </trkpt>
      <trkpt lat="48.76058" lon="2.42216">
        <ele>37</ele>
        <time>2023-01-24T12:44:02.221Z</time>
      </trkpt>
      <trkpt lat="48.76059" lon="2.42224">
        <ele>37</ele>
        <time>2023-01-24T12:44:06.225Z</time>
      </trkpt>
      <trkpt lat="48.76061" lon="2.42234">
        <ele>37</ele>
        <time>2023-01-24T12:44:10.830Z</time>
      </trkpt>
      <trkpt lat="48.76062" lon="2.42241">
        <ele>37</ele>
        <time>2023-01-24T12:44:15.336Z</time>
      </trkpt>
      <trkpt lat="48.76064" lon="2.42249">
        <ele>37</ele>
        <time>2023-01-24T12:44:19.341Z</time>
      </trkpt>
      <trkpt lat="48.76065" lon="2.42257">
        <ele>37</ele>
        <time>2023-01-24T12:44:23.345Z</time>
      </trkpt>
      <trkpt lat="48.76068" lon="2.42263">
        <ele>37</ele>
        <time>2023-01-24T12:44:27.851Z</time>
      </trkpt>
      <trkpt lat="48.76074" lon="2.42268">
        <ele>36</ele>
        <time>2023-01-24T12:44:31.855Z</time>
      </trkpt>
      <trkpt lat="48.76077" lon="2.42276">
        <ele>36</ele>
        <time>2023-01-24T12:44:35.860Z</time>
      </trkpt>
      <trkpt lat="48.76079" lon="2.42285">
        <ele>36</ele>
        <time>2023-01-24T12:44:40.367Z</time>
      </trkpt>
      <trkpt lat="48.76081" lon="2.42296">
        <ele>35</ele>
        <time>2023-01-24T12:44:44.975Z</time>
      </trkpt>
      <trkpt lat="48.76083" lon="2.42307">
        <ele>35</ele>
        <time>2023-01-24T12:44:49.481Z</time>
      </trkpt>
      <trkpt lat="48.76085" lon="2.42319">
        <ele>35</ele>
        <time>2023-01-24T12:44:53.987Z</time>
      </trkpt>
      <trkpt lat="48.76087" lon="2.42329">
        <ele>34</ele>
        <time>2023-01-24T12:44:58.091Z</time>
      </trkpt>
      <trkpt lat="48.7609" lon="2.42339">
        <ele>34</ele>
        <time>2023-01-24T12:45:02.595Z</time>
      </trkpt>
      <trkpt lat="48.76091" lon="2.42348">
        <ele>34</ele>
        <time>2023-01-24T12:45:06.599Z</time>
      </trkpt>
      <trkpt lat="48.76092" lon="2.42358">
        <ele>34</ele>
        <time>2023-01-24T12:45:11.205Z</time>
      </trkpt>
      <trkpt lat="48.76093" lon="2.42368">
        <ele>34</ele>
        <time>2023-01-24T12:45:15.310Z</time>
      </trkpt>
      <trkpt lat="48.76094" lon="2.42379">
        <ele>33</ele>
        <time>2023-01-24T12:45:19.818Z</time>
      </trkpt>
      <trkpt lat="48.76095" lon="2.4239">
        <ele>33</ele>
        <time>2023-01-24T12:45:24.326Z</time>
      </trkpt>
      <trkpt lat="48.76096" lon="2.424">
        <ele>33</ele>
        <time>2023-01-24T12:45:28.332Z</time>
      </trkpt>
      <trkpt lat="48.76096" lon="2.4241">
        <ele>33</ele>
        <time>2023-01-24T12:45:32.941Z</time>
      </trkpt>
      <trkpt lat="48.76098" lon="2.42418">
        <ele>31</ele>
        <time>2023-01-24T12:45:37.547Z</time>
      </trkpt>
      <trkpt lat="48.76099" lon="2.42426">
        <ele>31</ele>
        <time>2023-01-24T12:45:41.553Z</time>
      </trkpt>
      <trkpt lat="48.761" lon="2.42435">
        <ele>31</ele>
        <time>2023-01-24T12:45:45.557Z</time>
      </trkpt>
      <trkpt lat="48.76101" lon="2.42444">
        <ele>31</ele>
        <time>2023-01-24T12:45:49.563Z</time>
      </trkpt>
      <trkpt lat="48.761" lon="2.42451">
        <ele>31</ele>
        <time>2023-01-24T12:45:54.069Z</time>
      </trkpt>
      <trkpt lat="48.761" lon="2.42457">
        <ele>31</ele>
        <time>2023-01-24T12:45:58.575Z</time>
      </trkpt>
      <trkpt lat="48.761" lon="2.42465">
        <ele>31</ele>
        <time>2023-01-24T12:46:03.081Z</time>
      </trkpt>
      <trkpt lat="48.761" lon="2.42473">
        <ele>31</ele>
        <time>2023-01-24T12:46:07.155Z</time>
      </trkpt>
      <trkpt lat="48.76099" lon="2.42482">
        <ele>31</ele>
        <time>2023-01-24T12:46:11.294Z</time>
      </trkpt>
      <trkpt lat="48.761" lon="2.4249">
        <ele>31</ele>
        <time>2023-01-24T12:46:15.800Z</time>
      </trkpt>
      <trkpt lat="48.76102" lon="2.42499">
        <ele>31</ele>
        <time>2023-01-24T12:46:20.306Z</time>
      </trkpt>
      <trkpt lat="48.76103" lon="2.42508">
        <ele>31</ele>
        <time>2023-01-24T12:46:24.813Z</time>
      </trkpt>
      <trkpt lat="48.76102" lon="2.4252">
        <ele>31</ele>
        <time>2023-01-24T12:46:29.320Z</time>
      </trkpt>
      <trkpt lat="48.76099" lon="2.4253">
        <ele>31</ele>
        <time>2023-01-24T12:46:33.428Z</time>
      </trkpt>
      <trkpt lat="48.76098" lon="2.42538">
        <ele>31</ele>
        <time>2023-01-24T12:46:37.937Z</time>
      </trkpt>
      <trkpt lat="48.76096" lon="2.42546">
        <ele>33</ele>
        <time>2023-01-24T12:46:42.444Z</time>
      </trkpt>
      <trkpt lat="48.76095" lon="2.42554">
        <ele>33</ele>
        <time>2023-01-24T12:46:46.552Z</time>
      </trkpt>
      <trkpt lat="48.76095" lon="2.42562">
        <ele>33</ele>
        <time>2023-01-24T12:46:51.060Z</time>
      </trkpt>
      <trkpt lat="48.76094" lon="2.42569">
        <ele>33</ele>
        <time>2023-01-24T12:46:55.568Z</time>
      </trkpt>
      <trkpt lat="48.76092" lon="2.42573">
        <ele>33</ele>
        <time>2023-01-24T12:46:59.576Z</time>
      </trkpt>
      <trkpt lat="48.76091" lon="2.42579">
        <ele>33</ele>
        <time>2023-01-24T12:47:04.086Z</time>
      </trkpt>
      <trkpt lat="48.7609" lon="2.42584">
        <ele>33</ele>
        <time>2023-01-24T12:47:08.595Z</time>
      </trkpt>
      <trkpt lat="48.76088" lon="2.42589">
        <ele>33</ele>
        <time>2023-01-24T12:47:13.103Z</time>
      </trkpt>
      <trkpt lat="48.76085" lon="2.42596">
        <ele>33</ele>
        <time>2023-01-24T12:47:17.111Z</time>
      </trkpt>
      <trkpt lat="48.76081" lon="2.42603">
        <ele>33</ele>
        <time>2023-01-24T12:47:21.120Z</time>
      </trkpt>
      <trkpt lat="48.76078" lon="2.42608">
        <ele>33</ele>
        <time>2023-01-24T12:47:25.629Z</time>
      </trkpt>
      <trkpt lat="48.76074" lon="2.42613">
        <ele>33</ele>
        <time>2023-01-24T12:47:30.139Z</time>
      </trkpt>
      <trkpt lat="48.76069" lon="2.42619">
        <ele>34</ele>
        <time>2023-01-24T12:47:34.647Z</time>
      </trkpt>
      <trkpt lat="48.76064" lon="2.42625">
        <ele>34</ele>
        <time>2023-01-24T12:47:38.654Z</time>
      </trkpt>
      <trkpt lat="48.7606" lon="2.42632">
        <ele>34</ele>
        <time>2023-01-24T12:47:42.662Z</time>
      </trkpt>
      <trkpt lat="48.76057" lon="2.4264">
        <ele>34</ele>
        <time>2023-01-24T12:47:46.671Z</time>
      </trkpt>
      <trkpt lat="48.76054" lon="2.42647">
        <ele>34</ele>
        <time>2023-01-24T12:47:51.177Z</time>
      </trkpt>
      <trkpt lat="48.76048" lon="2.42653">
        <ele>34</ele>
        <time>2023-01-24T12:47:55.685Z</time>
      </trkpt>
      <trkpt lat="48.76043" lon="2.42658">
        <ele>33</ele>
        <time>2023-01-24T12:47:59.693Z</time>
      </trkpt>
      <trkpt lat="48.76038" lon="2.42664">
        <ele>33</ele>
        <time>2023-01-24T12:48:04.301Z</time>
      </trkpt>
      <trkpt lat="48.76033" lon="2.42672">
        <ele>33</ele>
        <time>2023-01-24T12:48:08.808Z</time>
      </trkpt>
      <trkpt lat="48.76029" lon="2.42676">
        <ele>33</ele>
        <time>2023-01-24T12:48:12.815Z</time>
      </trkpt>
      <trkpt lat="48.76024" lon="2.42682">
        <ele>34</ele>
        <time>2023-01-24T12:48:16.820Z</time>
      </trkpt>
      <trkpt lat="48.76019" lon="2.42688">
        <ele>34</ele>
        <time>2023-01-24T12:48:21.327Z</time>
      </trkpt>
      <trkpt lat="48.76014" lon="2.42694">
        <ele>34</ele>
        <time>2023-01-24T12:48:25.835Z</time>
      </trkpt>
      <trkpt lat="48.7601" lon="2.427">
        <ele>34</ele>
        <time>2023-01-24T12:48:29.842Z</time>
      </trkpt>
      <trkpt lat="48.76006" lon="2.42706">
        <ele>34</ele>
        <time>2023-01-24T12:48:34.349Z</time>
      </trkpt>
      <trkpt lat="48.76001" lon="2.4271">
        <ele>34</ele>
        <time>2023-01-24T12:48:38.357Z</time>
      </trkpt>
      <trkpt lat="48.75995" lon="2.42713">
        <ele>34</ele>
        <time>2023-01-24T12:48:42.864Z</time>
      </trkpt>
      <trkpt lat="48.7599" lon="2.42715">
        <ele>34</ele>
        <time>2023-01-24T12:48:46.868Z</time>
      </trkpt>
      <trkpt lat="48.75984" lon="2.42717">
        <ele>32</ele>
        <time>2023-01-24T12:48:51.485Z</time>
      </trkpt>
      <trkpt lat="48.75978" lon="2.42717">
        <ele>32</ele>
        <time>2023-01-24T12:48:55.577Z</time>
      </trkpt>
      <trkpt lat="48.75973" lon="2.42717">
        <ele>32</ele>
        <time>2023-01-24T12:48:59.580Z</time>
      </trkpt>
      <trkpt lat="48.75968" lon="2.42717">
        <ele>32</ele>
        <time>2023-01-24T12:49:03.684Z</time>
      </trkpt>
      <trkpt lat="48.75962" lon="2.42716">
        <ele>32</ele>
        <time>2023-01-24T12:49:08.790Z</time>
      </trkpt>
      <trkpt lat="48.75956" lon="2.42716">
        <ele>32</ele>
        <time>2023-01-24T12:49:13.794Z</time>
      </trkpt>
      <trkpt lat="48.75949" lon="2.42715">
        <ele>32</ele>
        <time>2023-01-24T12:49:18.298Z</time>
      </trkpt>
      <trkpt lat="48.75943" lon="2.42713">
        <ele>32</ele>
        <time>2023-01-24T12:49:22.803Z</time>
      </trkpt>
      <trkpt lat="48.75935" lon="2.42711">
        <ele>32</ele>
        <time>2023-01-24T12:49:27.821Z</time>
      </trkpt>
      <trkpt lat="48.75929" lon="2.42707">
        <ele>36</ele>
        <time>2023-01-24T12:49:31.914Z</time>
      </trkpt>
      <trkpt lat="48.75924" lon="2.42706">
        <ele>36</ele>
        <time>2023-01-24T12:49:35.919Z</time>
      </trkpt>
      <trkpt lat="48.75918" lon="2.42704">
        <ele>36</ele>
        <time>2023-01-24T12:49:40.626Z</time>
      </trkpt>
      <trkpt lat="48.75912" lon="2.42702">
        <ele>36</ele>
        <time>2023-01-24T12:49:45.246Z</time>
      </trkpt>
      <trkpt lat="48.75907" lon="2.427">
        <ele>36</ele>
        <time>2023-01-24T12:49:49.337Z</time>
      </trkpt>
      <trkpt lat="48.75903" lon="2.42699">
        <ele>36</ele>
        <time>2023-01-24T12:49:53.342Z</time>
      </trkpt>
      <trkpt lat="48.75899" lon="2.42698">
        <ele>36</ele>
        <time>2023-01-24T12:49:57.850Z</time>
      </trkpt>
      <trkpt lat="48.75893" lon="2.42698">
        <ele>36</ele>
        <time>2023-01-24T12:50:02.032Z</time>
      </trkpt>
      <trkpt lat="48.75889" lon="2.42697">
        <ele>36</ele>
        <time>2023-01-24T12:50:05.673Z</time>
      </trkpt>
      <trkpt lat="48.75884" lon="2.42695">
        <ele>36</ele>
        <time>2023-01-24T12:50:09.679Z</time>
      </trkpt>
      <trkpt lat="48.75877" lon="2.42693">
        <ele>36</ele>
        <time>2023-01-24T12:50:14.289Z</time>
      </trkpt>
      <trkpt lat="48.75871" lon="2.42691">
        <ele>33</ele>
        <time>2023-01-24T12:50:18.424Z</time>
      </trkpt>
      <trkpt lat="48.75868" lon="2.4269">
        <ele>33</ele>
        <time>2023-01-24T12:50:22.495Z</time>
      </trkpt>
      <trkpt lat="48.75863" lon="2.42688">
        <ele>33</ele>
        <time>2023-01-24T12:50:26.501Z</time>
      </trkpt>
      <trkpt lat="48.75858" lon="2.42687">
        <ele>33</ele>
        <time>2023-01-24T12:50:30.607Z</time>
      </trkpt>
      <trkpt lat="48.75853" lon="2.42684">
        <ele>33</ele>
        <time>2023-01-24T12:50:35.115Z</time>
      </trkpt>
      <trkpt lat="48.7585" lon="2.42683">
        <ele>33</ele>
        <time>2023-01-24T12:50:39.122Z</time>
      </trkpt>
      <trkpt lat="48.75846" lon="2.42682">
        <ele>30</ele>
        <time>2023-01-24T12:50:43.227Z</time>
      </trkpt>
      <trkpt lat="48.75839" lon="2.42679">
        <ele>31</ele>
        <time>2023-01-24T12:50:47.732Z</time>
      </trkpt>
      <trkpt lat="48.75834" lon="2.42673">
        <ele>31</ele>
        <time>2023-01-24T12:50:51.738Z</time>
      </trkpt>
      <trkpt lat="48.7583" lon="2.42669">
        <ele>31</ele>
        <time>2023-01-24T12:50:55.743Z</time>
      </trkpt>
      <trkpt lat="48.75825" lon="2.42663">
        <ele>31</ele>
        <time>2023-01-24T12:51:00.249Z</time>
      </trkpt>
      <trkpt lat="48.75821" lon="2.42657">
        <ele>31</ele>
        <time>2023-01-24T12:51:04.253Z</time>
      </trkpt>
      <trkpt lat="48.75817" lon="2.4265">
        <ele>33</ele>
        <time>2023-01-24T12:51:08.859Z</time>
      </trkpt>
      <trkpt lat="48.75815" lon="2.42642">
        <ele>33</ele>
        <time>2023-01-24T12:51:14.071Z</time>
      </trkpt>
      <trkpt lat="48.75814" lon="2.42637">
        <ele>33</ele>
        <time>2023-01-24T12:51:18.285Z</time>
      </trkpt>
      <trkpt lat="48.75812" lon="2.42631">
        <ele>33</ele>
        <time>2023-01-24T12:51:22.479Z</time>
      </trkpt>
      <trkpt lat="48.75809" lon="2.42624">
        <ele>34</ele>
        <time>2023-01-24T12:51:27.085Z</time>
      </trkpt>
      <trkpt lat="48.75807" lon="2.42618">
        <ele>34</ele>
        <time>2023-01-24T12:51:31.191Z</time>
      </trkpt>
      <trkpt lat="48.75804" lon="2.42612">
        <ele>34</ele>
        <time>2023-01-24T12:51:35.197Z</time>
      </trkpt>
      <trkpt lat="48.758" lon="2.42605">
        <ele>34</ele>
        <time>2023-01-24T12:51:39.204Z</time>
      </trkpt>
      <trkpt lat="48.75795" lon="2.42597">
        <ele>35</ele>
        <time>2023-01-24T12:51:43.710Z</time>
      </trkpt>
      <trkpt lat="48.75789" lon="2.42592">
        <ele>36</ele>
        <time>2023-01-24T12:51:47.716Z</time>
      </trkpt>
      <trkpt lat="48.75784" lon="2.42588">
        <ele>36</ele>
        <time>2023-01-24T12:51:52.322Z</time>
      </trkpt>
      <trkpt lat="48.75779" lon="2.42585">
        <ele>36</ele>
        <time>2023-01-24T12:51:56.326Z</time>
      </trkpt>
      <trkpt lat="48.75774" lon="2.42583">
        <ele>36</ele>
        <time>2023-01-24T12:52:00.846Z</time>
      </trkpt>
      <trkpt lat="48.75769" lon="2.42582">
        <ele>36</ele>
        <time>2023-01-24T12:52:04.936Z</time>
      </trkpt>
      <trkpt lat="48.75763" lon="2.42583">
        <ele>35</ele>
        <time>2023-01-24T12:52:09.539Z</time>
      </trkpt>
      <trkpt lat="48.75757" lon="2.42586">
        <ele>35</ele>
        <time>2023-01-24T12:52:13.542Z</time>
      </trkpt>
      <trkpt lat="48.75751" lon="2.42589">
        <ele>35</ele>
        <time>2023-01-24T12:52:18.245Z</time>
      </trkpt>
      <trkpt lat="48.75746" lon="2.42591">
        <ele>35</ele>
        <time>2023-01-24T12:52:22.251Z</time>
      </trkpt>
      <trkpt lat="48.75741" lon="2.42595">
        <ele>35</ele>
        <time>2023-01-24T12:52:26.755Z</time>
      </trkpt>
      <trkpt lat="48.75736" lon="2.42601">
        <ele>33</ele>
        <time>2023-01-24T12:52:31.562Z</time>
      </trkpt>
      <trkpt lat="48.75731" lon="2.42606">
        <ele>33</ele>
        <time>2023-01-24T12:52:36.069Z</time>
      </trkpt>
      <trkpt lat="48.75727" lon="2.42609">
        <ele>33</ele>
        <time>2023-01-24T12:52:40.575Z</time>
      </trkpt>
      <trkpt lat="48.75724" lon="2.42613">
        <ele>33</ele>
        <time>2023-01-24T12:52:45.081Z</time>
      </trkpt>
      <trkpt lat="48.75718" lon="2.42618">
        <ele>33</ele>
        <time>2023-01-24T12:52:49.589Z</time>
      </trkpt>
      <trkpt lat="48.75713" lon="2.42623">
        <ele>33</ele>
        <time>2023-01-24T12:52:53.595Z</time>
      </trkpt>
      <trkpt lat="48.75707" lon="2.4263">
        <ele>33</ele>
        <time>2023-01-24T12:52:58.204Z</time>
      </trkpt>
      <trkpt lat="48.75702" lon="2.42637">
        <ele>33</ele>
        <time>2023-01-24T12:53:02.460Z</time>
      </trkpt>
      <trkpt lat="48.75699" lon="2.42643">
        <ele>33</ele>
        <time>2023-01-24T12:53:06.514Z</time>
      </trkpt>
      <trkpt lat="48.75695" lon="2.42649">
        <ele>33</ele>
        <time>2023-01-24T12:53:10.518Z</time>
      </trkpt>
      <trkpt lat="48.75691" lon="2.42655">
        <ele>32</ele>
        <time>2023-01-24T12:53:15.129Z</time>
      </trkpt>
      <trkpt lat="48.75687" lon="2.42663">
        <ele>32</ele>
        <time>2023-01-24T12:53:19.229Z</time>
      </trkpt>
      <trkpt lat="48.75683" lon="2.42668">
        <ele>32</ele>
        <time>2023-01-24T12:53:23.234Z</time>
      </trkpt>
      <trkpt lat="48.75679" lon="2.4267">
        <ele>34</ele>
        <time>2023-01-24T12:53:27.739Z</time>
      </trkpt>
      <trkpt lat="48.75677" lon="2.42671">
        <ele>34</ele>
        <time>2023-01-24T12:53:31.744Z</time>
      </trkpt>
      <trkpt lat="48.75672" lon="2.4267">
        <ele>34</ele>
        <time>2023-01-24T12:53:35.749Z</time>
      </trkpt>
      <trkpt lat="48.75667" lon="2.42669">
        <ele>34</ele>
        <time>2023-01-24T12:53:39.756Z</time>
      </trkpt>
      <trkpt lat="48.75662" lon="2.42667">
        <ele>34</ele>
        <time>2023-01-24T12:53:44.363Z</time>
      </trkpt>
      <trkpt lat="48.75657" lon="2.42665">
        <ele>34</ele>
        <time>2023-01-24T12:53:48.867Z</time>
      </trkpt>
      <trkpt lat="48.75654" lon="2.42663">
        <ele>34</ele>
        <time>2023-01-24T12:53:52.972Z</time>
      </trkpt>
      <trkpt lat="48.75652" lon="2.4266">
        <ele>33</ele>
        <time>2023-01-24T12:53:56.977Z</time>
      </trkpt>
      <trkpt lat="48.75651" lon="2.42657">
        <ele>33</ele>
        <time>2023-01-24T12:54:01.484Z</time>
      </trkpt>
      <trkpt lat="48.75651" lon="2.42653">
        <ele>33</ele>
        <time>2023-01-24T12:54:05.488Z</time>
      </trkpt>
      <trkpt lat="48.75651" lon="2.42647">
        <ele>33</ele>
        <time>2023-01-24T12:54:09.993Z</time>
      </trkpt>
      <trkpt lat="48.75654" lon="2.42641">
        <ele>34</ele>
        <time>2023-01-24T12:54:13.999Z</time>
      </trkpt>
      <trkpt lat="48.75657" lon="2.42635">
        <ele>34</ele>
        <time>2023-01-24T12:54:18.105Z</time>
      </trkpt>
      <trkpt lat="48.75661" lon="2.42631">
        <ele>34</ele>
        <time>2023-01-24T12:54:22.612Z</time>
      </trkpt>
      <trkpt lat="48.75662" lon="2.42627">
        <ele>34</ele>
        <time>2023-01-24T12:54:27.120Z</time>
      </trkpt>
      <trkpt lat="48.75666" lon="2.42621">
        <ele>33</ele>
        <time>2023-01-24T12:54:31.324Z</time>
      </trkpt>
      <trkpt lat="48.7567" lon="2.42616">
        <ele>33</ele>
        <time>2023-01-24T12:54:35.860Z</time>
      </trkpt>
      <trkpt lat="48.75673" lon="2.42612">
        <ele>33</ele>
        <time>2023-01-24T12:54:40.225Z</time>
      </trkpt>
      <trkpt lat="48.75678" lon="2.4261">
        <ele>33</ele>
        <time>2023-01-24T12:54:44.237Z</time>
      </trkpt>
      <trkpt lat="48.75682" lon="2.42606">
        <ele>33</ele>
        <time>2023-01-24T12:54:48.843Z</time>
      </trkpt>
      <trkpt lat="48.75687" lon="2.426">
        <ele>33</ele>
        <time>2023-01-24T12:54:52.847Z</time>
      </trkpt>
      <trkpt lat="48.75691" lon="2.42595">
        <ele>34</ele>
        <time>2023-01-24T12:54:57.524Z</time>
      </trkpt>
      <trkpt lat="48.75695" lon="2.4259">
        <ele>34</ele>
        <time>2023-01-24T12:55:01.556Z</time>
      </trkpt>
      <trkpt lat="48.75699" lon="2.42585">
        <ele>34</ele>
        <time>2023-01-24T12:55:06.161Z</time>
      </trkpt>
      <trkpt lat="48.75702" lon="2.42582">
        <ele>34</ele>
        <time>2023-01-24T12:55:10.165Z</time>
      </trkpt>
      <trkpt lat="48.75705" lon="2.42577">
        <ele>34</ele>
        <time>2023-01-24T12:55:14.985Z</time>
      </trkpt>
      <trkpt lat="48.75709" lon="2.4257">
        <ele>34</ele>
        <time>2023-01-24T12:55:19.074Z</time>
      </trkpt>
      <trkpt lat="48.75714" lon="2.42567">
        <ele>34</ele>
        <time>2023-01-24T12:55:23.578Z</time>
      </trkpt>
      <trkpt lat="48.75719" lon="2.42565">
        <ele>34</ele>
        <time>2023-01-24T12:55:28.183Z</time>
      </trkpt>
      <trkpt lat="48.75722" lon="2.42559">
        <ele>34</ele>
        <time>2023-01-24T12:55:32.187Z</time>
      </trkpt>
      <trkpt lat="48.75726" lon="2.42551">
        <ele>34</ele>
        <time>2023-01-24T12:55:36.691Z</time>
      </trkpt>
      <trkpt lat="48.7573" lon="2.42545">
        <ele>34</ele>
        <time>2023-01-24T12:55:41.297Z</time>
      </trkpt>
      <trkpt lat="48.75732" lon="2.42542">
        <ele>34</ele>
        <time>2023-01-24T12:55:45.301Z</time>
      </trkpt>
      <trkpt lat="48.75733" lon="2.42538">
        <ele>34</ele>
        <time>2023-01-24T12:55:49.306Z</time>
      </trkpt>
      <trkpt lat="48.75734" lon="2.42532">
        <ele>34</ele>
        <time>2023-01-24T12:55:53.812Z</time>
      </trkpt>
      <trkpt lat="48.75733" lon="2.42524">
        <ele>34</ele>
        <time>2023-01-24T12:55:57.818Z</time>
      </trkpt>
      <trkpt lat="48.75735" lon="2.42516">
        <ele>34</ele>
        <time>2023-01-24T12:56:02.323Z</time>
      </trkpt>
      <trkpt lat="48.75734" lon="2.42506">
        <ele>34</ele>
        <time>2023-01-24T12:56:06.828Z</time>
      </trkpt>
      <trkpt lat="48.75734" lon="2.42499">
        <ele>34</ele>
        <time>2023-01-24T12:56:10.832Z</time>
      </trkpt>
      <trkpt lat="48.75733" lon="2.42492">
        <ele>34</ele>
        <time>2023-01-24T12:56:15.336Z</time>
      </trkpt>
      <trkpt lat="48.75733" lon="2.42483">
        <ele>34</ele>
        <time>2023-01-24T12:56:19.845Z</time>
      </trkpt>
      <trkpt lat="48.75733" lon="2.42474">
        <ele>34</ele>
        <time>2023-01-24T12:56:23.858Z</time>
      </trkpt>
      <trkpt lat="48.75732" lon="2.42467">
        <ele>34</ele>
        <time>2023-01-24T12:56:27.863Z</time>
      </trkpt>
      <trkpt lat="48.75731" lon="2.42459">
        <ele>34</ele>
        <time>2023-01-24T12:56:32.373Z</time>
      </trkpt>
      <trkpt lat="48.75731" lon="2.42452">
        <ele>34</ele>
        <time>2023-01-24T12:56:36.471Z</time>
      </trkpt>
      <trkpt lat="48.75731" lon="2.42441">
        <ele>34</ele>
        <time>2023-01-24T12:56:40.976Z</time>
      </trkpt>
      <trkpt lat="48.7573" lon="2.4243">
        <ele>34</ele>
        <time>2023-01-24T12:56:45.582Z</time>
      </trkpt>
      <trkpt lat="48.75729" lon="2.42425">
        <ele>34</ele>
        <time>2023-01-24T12:56:49.185Z</time>
      </trkpt>
      <trkpt lat="48.75729" lon="2.4242">
        <ele>34</ele>
        <time>2023-01-24T12:56:53.690Z</time>
      </trkpt>
      <trkpt lat="48.7573" lon="2.42418">
        <ele>34</ele>
        <time>2023-01-24T12:56:58.695Z</time>
      </trkpt>
      <trkpt lat="48.7573" lon="2.42413">
        <ele>34</ele>
        <time>2023-01-24T12:57:03.299Z</time>
      </trkpt>
      <trkpt lat="48.75729" lon="2.42409">
        <ele>34</ele>
        <time>2023-01-24T12:57:07.804Z</time>
      </trkpt>
      <trkpt lat="48.75729" lon="2.42407">
        <ele>34</ele>
        <time>2023-01-24T12:57:11.809Z</time>
      </trkpt>
      <trkpt lat="48.7573" lon="2.42403">
        <ele>33</ele>
        <time>2023-01-24T12:57:15.814Z</time>
      </trkpt>
      <trkpt lat="48.75729" lon="2.42399">
        <ele>33</ele>
        <time>2023-01-24T12:57:20.822Z</time>
      </trkpt>
      <trkpt lat="48.75729" lon="2.42394">
        <ele>33</ele>
        <time>2023-01-24T12:57:24.828Z</time>
      </trkpt>
      <trkpt lat="48.75727" lon="2.42381">
        <ele>33</ele>
        <time>2023-01-24T12:57:29.533Z</time>
      </trkpt>
      <trkpt lat="48.75726" lon="2.42369">
        <ele>32</ele>
        <time>2023-01-24T12:57:34.038Z</time>
      </trkpt>
      <trkpt lat="48.75725" lon="2.42362">
        <ele>32</ele>
        <time>2023-01-24T12:57:38.544Z</time>
      </trkpt>
      <trkpt lat="48.75725" lon="2.42356">
        <ele>32</ele>
        <time>2023-01-24T12:57:43.049Z</time>
      </trkpt>
      <trkpt lat="48.75727" lon="2.42349">
        <ele>32</ele>
        <time>2023-01-24T12:57:47.188Z</time>
      </trkpt>
      <trkpt lat="48.75726" lon="2.42341">
        <ele>32</ele>
        <time>2023-01-24T12:57:51.257Z</time>
      </trkpt>
      <trkpt lat="48.75725" lon="2.42333">
        <ele>32</ele>
        <time>2023-01-24T12:57:55.263Z</time>
      </trkpt>
      <trkpt lat="48.75725" lon="2.4233">
        <ele>32</ele>
        <time>2023-01-24T12:57:59.267Z</time>
      </trkpt>
      <trkpt lat="48.75723" lon="2.42323">
        <ele>32</ele>
        <time>2023-01-24T12:58:03.772Z</time>
      </trkpt>
      <trkpt lat="48.75723" lon="2.42319">
        <ele>31</ele>
        <time>2023-01-24T12:58:07.777Z</time>
      </trkpt>
      <trkpt lat="48.75723" lon="2.42309">
        <ele>31</ele>
        <time>2023-01-24T12:58:11.788Z</time>
      </trkpt>
      <trkpt lat="48.75724" lon="2.423">
        <ele>31</ele>
        <time>2023-01-24T12:58:15.796Z</time>
      </trkpt>
      <trkpt lat="48.75725" lon="2.4229">
        <ele>31</ele>
        <time>2023-01-24T12:58:20.385Z</time>
      </trkpt>
      <trkpt lat="48.75723" lon="2.42278">
        <ele>31</ele>
        <time>2023-01-24T12:58:24.619Z</time>
      </trkpt>
      <trkpt lat="48.75723" lon="2.42266">
        <ele>31</ele>
        <time>2023-01-24T12:58:28.623Z</time>
      </trkpt>
      <trkpt lat="48.75724" lon="2.42255">
        <ele>31</ele>
        <time>2023-01-24T12:58:33.128Z</time>
      </trkpt>
      <trkpt lat="48.75724" lon="2.42243">
        <ele>31</ele>
        <time>2023-01-24T12:58:37.633Z</time>
      </trkpt>
      <trkpt lat="48.75723" lon="2.42233">
        <ele>31</ele>
        <time>2023-01-24T12:58:41.636Z</time>
      </trkpt>
      <trkpt lat="48.75723" lon="2.4222">
        <ele>31</ele>
        <time>2023-01-24T12:58:46.142Z</time>
      </trkpt>
      <trkpt lat="48.75721" lon="2.42214">
        <ele>31</ele>
        <time>2023-01-24T12:58:50.145Z</time>
      </trkpt>
      <trkpt lat="48.75716" lon="2.42207">
        <ele>31</ele>
        <time>2023-01-24T12:58:54.151Z</time>
      </trkpt>
      <trkpt lat="48.75711" lon="2.42199">
        <ele>31</ele>
        <time>2023-01-24T12:58:58.655Z</time>
      </trkpt>
      <trkpt lat="48.75705" lon="2.42194">
        <ele>32</ele>
        <time>2023-01-24T12:59:02.659Z</time>
      </trkpt>
      <trkpt lat="48.757" lon="2.4219">
        <ele>32</ele>
        <time>2023-01-24T12:59:06.663Z</time>
      </trkpt>
      <trkpt lat="48.75695" lon="2.42189">
        <ele>32</ele>
        <time>2023-01-24T12:59:11.668Z</time>
      </trkpt>
      <trkpt lat="48.75692" lon="2.42189">
        <ele>32</ele>
        <time>2023-01-24T12:59:15.671Z</time>
      </trkpt>
      <trkpt lat="48.75689" lon="2.42188">
        <ele>32</ele>
        <time>2023-01-24T12:59:20.675Z</time>
      </trkpt>
      <trkpt lat="48.75686" lon="2.42187">
        <ele>32</ele>
        <time>2023-01-24T12:59:24.678Z</time>
      </trkpt>
      <trkpt lat="48.75681" lon="2.42186">
        <ele>32</ele>
        <time>2023-01-24T12:59:29.181Z</time>
      </trkpt>
      <trkpt lat="48.75676" lon="2.42186">
        <ele>33</ele>
        <time>2023-01-24T12:59:33.283Z</time>
      </trkpt>
      <trkpt lat="48.75672" lon="2.42188">
        <ele>33</ele>
        <time>2023-01-24T12:59:37.791Z</time>
      </trkpt>
      <trkpt lat="48.75668" lon="2.4219">
        <ele>33</ele>
        <time>2023-01-24T12:59:41.996Z</time>
      </trkpt>
      <trkpt lat="48.75664" lon="2.42192">
        <ele>33</ele>
        <time>2023-01-24T12:59:46.603Z</time>
      </trkpt>
      <trkpt lat="48.75658" lon="2.42194">
        <ele>33</ele>
        <time>2023-01-24T12:59:50.707Z</time>
      </trkpt>
      <trkpt lat="48.75653" lon="2.42197">
        <ele>33</ele>
        <time>2023-01-24T12:59:55.311Z</time>
      </trkpt>
      <trkpt lat="48.75649" lon="2.42198">
        <ele>34</ele>
        <time>2023-01-24T12:59:59.314Z</time>
      </trkpt>
      <trkpt lat="48.75643" lon="2.42201">
        <ele>34</ele>
        <time>2023-01-24T13:00:03.817Z</time>
      </trkpt>
      <trkpt lat="48.75637" lon="2.42203">
        <ele>34</ele>
        <time>2023-01-24T13:00:08.468Z</time>
      </trkpt>
      <trkpt lat="48.75632" lon="2.42205">
        <ele>34</ele>
        <time>2023-01-24T13:00:12.526Z</time>
      </trkpt>
      <trkpt lat="48.75628" lon="2.42208">
        <ele>34</ele>
        <time>2023-01-24T13:00:16.529Z</time>
      </trkpt>
      <trkpt lat="48.75622" lon="2.42211">
        <ele>33</ele>
        <time>2023-01-24T13:00:21.235Z</time>
      </trkpt>
      <trkpt lat="48.75617" lon="2.42214">
        <ele>33</ele>
        <time>2023-01-24T13:00:25.741Z</time>
      </trkpt>
      <trkpt lat="48.75613" lon="2.42216">
        <ele>33</ele>
        <time>2023-01-24T13:00:30.243Z</time>
      </trkpt>
      <trkpt lat="48.75609" lon="2.42218">
        <ele>33</ele>
        <time>2023-01-24T13:00:34.246Z</time>
      </trkpt>
      <trkpt lat="48.75603" lon="2.4222">
        <ele>33</ele>
        <time>2023-01-24T13:00:38.751Z</time>
      </trkpt>
      <trkpt lat="48.75598" lon="2.42221">
        <ele>33</ele>
        <time>2023-01-24T13:00:42.754Z</time>
      </trkpt>
      <trkpt lat="48.75591" lon="2.42223">
        <ele>32</ele>
        <time>2023-01-24T13:00:47.258Z</time>
      </trkpt>
      <trkpt lat="48.75585" lon="2.42226">
        <ele>32</ele>
        <time>2023-01-24T13:00:51.262Z</time>
      </trkpt>
      <trkpt lat="48.75579" lon="2.4223">
        <ele>32</ele>
        <time>2023-01-24T13:00:55.811Z</time>
      </trkpt>
      <trkpt lat="48.75574" lon="2.42231">
        <ele>32</ele>
        <time>2023-01-24T13:00:59.370Z</time>
      </trkpt>
      <trkpt lat="48.7557" lon="2.42234">
        <ele>32</ele>
        <time>2023-01-24T13:01:03.874Z</time>
      </trkpt>
      <trkpt lat="48.75564" lon="2.42237">
        <ele>32</ele>
        <time>2023-01-24T13:01:08.379Z</time>
      </trkpt>
      <trkpt lat="48.75558" lon="2.42239">
        <ele>32</ele>
        <time>2023-01-24T13:01:13.110Z</time>
      </trkpt>
      <trkpt lat="48.75553" lon="2.42241">
        <ele>32</ele>
        <time>2023-01-24T13:01:17.188Z</time>
      </trkpt>
      <trkpt lat="48.75548" lon="2.42246">
        <ele>32</ele>
        <time>2023-01-24T13:01:21.694Z</time>
      </trkpt>
      <trkpt lat="48.75543" lon="2.4225">
        <ele>32</ele>
        <time>2023-01-24T13:01:26.303Z</time>
      </trkpt>
      <trkpt lat="48.75538" lon="2.42254">
        <ele>32</ele>
        <time>2023-01-24T13:01:30.508Z</time>
      </trkpt>
      <trkpt lat="48.75533" lon="2.42258">
        <ele>32</ele>
        <time>2023-01-24T13:01:35.013Z</time>
      </trkpt>
      <trkpt lat="48.75529" lon="2.42262">
        <ele>32</ele>
        <time>2023-01-24T13:01:39.019Z</time>
      </trkpt>
      <trkpt lat="48.75524" lon="2.42265">
        <ele>33</ele>
        <time>2023-01-24T13:01:43.524Z</time>
      </trkpt>
      <trkpt lat="48.75519" lon="2.42268">
        <ele>33</ele>
        <time>2023-01-24T13:01:47.529Z</time>
      </trkpt>
      <trkpt lat="48.75514" lon="2.42273">
        <ele>33</ele>
        <time>2023-01-24T13:01:52.035Z</time>
      </trkpt>
      <trkpt lat="48.75511" lon="2.42277">
        <ele>32</ele>
        <time>2023-01-24T13:01:56.541Z</time>
      </trkpt>
      <trkpt lat="48.7551" lon="2.42279">
        <ele>32</ele>
        <time>2023-01-24T13:02:01.046Z</time>
      </trkpt>
      <trkpt lat="48.75506" lon="2.42282">
        <ele>32</ele>
        <time>2023-01-24T13:02:05.549Z</time>
      </trkpt>
      <trkpt lat="48.75501" lon="2.42286">
        <ele>32</ele>
        <time>2023-01-24T13:02:09.653Z</time>
      </trkpt>
      <trkpt lat="48.75496" lon="2.4229">
        <ele>32</ele>
        <time>2023-01-24T13:02:13.656Z</time>
      </trkpt>
      <trkpt lat="48.75492" lon="2.42296">
        <ele>32</ele>
        <time>2023-01-24T13:02:18.160Z</time>
      </trkpt>
      <trkpt lat="48.75488" lon="2.423">
        <ele>32</ele>
        <time>2023-01-24T13:02:22.164Z</time>
      </trkpt>
      <trkpt lat="48.75483" lon="2.42306">
        <ele>32</ele>
        <time>2023-01-24T13:02:26.769Z</time>
      </trkpt>
      <trkpt lat="48.75479" lon="2.42311">
        <ele>32</ele>
        <time>2023-01-24T13:02:30.775Z</time>
      </trkpt>
      <trkpt lat="48.75474" lon="2.42316">
        <ele>32</ele>
        <time>2023-01-24T13:02:35.346Z</time>
      </trkpt>
      <trkpt lat="48.7547" lon="2.42319">
        <ele>32</ele>
        <time>2023-01-24T13:02:39.386Z</time>
      </trkpt>
      <trkpt lat="48.75465" lon="2.42324">
        <ele>33</ele>
        <time>2023-01-24T13:02:43.392Z</time>
      </trkpt>
      <trkpt lat="48.75462" lon="2.42327">
        <ele>33</ele>
        <time>2023-01-24T13:02:47.396Z</time>
      </trkpt>
      <trkpt lat="48.75458" lon="2.42331">
        <ele>32</ele>
        <time>2023-01-24T13:02:51.501Z</time>
      </trkpt>
      <trkpt lat="48.75453" lon="2.42337">
        <ele>32</ele>
        <time>2023-01-24T13:02:56.008Z</time>
      </trkpt>
      <trkpt lat="48.75446" lon="2.42343">
        <ele>32</ele>
        <time>2023-01-24T13:03:00.515Z</time>
      </trkpt>
      <trkpt lat="48.75441" lon="2.4235">
        <ele>32</ele>
        <time>2023-01-24T13:03:05.022Z</time>
      </trkpt>
      <trkpt lat="48.75437" lon="2.42354">
        <ele>32</ele>
        <time>2023-01-24T13:03:08.727Z</time>
      </trkpt>
      <trkpt lat="48.75432" lon="2.42358">
        <ele>32</ele>
        <time>2023-01-24T13:03:13.239Z</time>
      </trkpt>
      <trkpt lat="48.75425" lon="2.42365">
        <ele>31</ele>
        <time>2023-01-24T13:03:17.253Z</time>
      </trkpt>
      <trkpt lat="48.75416" lon="2.42372">
        <ele>31</ele>
        <time>2023-01-24T13:03:21.845Z</time>
      </trkpt>
      <trkpt lat="48.7541" lon="2.42376">
        <ele>32</ele>
        <time>2023-01-24T13:03:25.892Z</time>
      </trkpt>
      <trkpt lat="48.75405" lon="2.42383">
        <ele>32</ele>
        <time>2023-01-24T13:03:30.405Z</time>
      </trkpt>
      <trkpt lat="48.754" lon="2.42388">
        <ele>33</ele>
        <time>2023-01-24T13:03:34.916Z</time>
      </trkpt>
      <trkpt lat="48.75396" lon="2.42394">
        <ele>33</ele>
        <time>2023-01-24T13:03:38.926Z</time>
      </trkpt>
      <trkpt lat="48.75392" lon="2.424">
        <ele>33</ele>
        <time>2023-01-24T13:03:43.437Z</time>
      </trkpt>
      <trkpt lat="48.75388" lon="2.42407">
        <ele>32</ele>
        <time>2023-01-24T13:03:47.458Z</time>
      </trkpt>
      <trkpt lat="48.75384" lon="2.42414">
        <ele>32</ele>
        <time>2023-01-24T13:03:52.198Z</time>
      </trkpt>
      <trkpt lat="48.75379" lon="2.42421">
        <ele>32</ele>
        <time>2023-01-24T13:03:56.377Z</time>
      </trkpt>
      <trkpt lat="48.75375" lon="2.42426">
        <ele>33</ele>
        <time>2023-01-24T13:04:00.386Z</time>
      </trkpt>
      <trkpt lat="48.75371" lon="2.4243">
        <ele>33</ele>
        <time>2023-01-24T13:04:04.894Z</time>
      </trkpt>
      <trkpt lat="48.75367" lon="2.42434">
        <ele>33</ele>
        <time>2023-01-24T13:04:09.584Z</time>
      </trkpt>
      <trkpt lat="48.75363" lon="2.42438">
        <ele>33</ele>
        <time>2023-01-24T13:04:13.608Z</time>
      </trkpt>
      <trkpt lat="48.7536" lon="2.42442">
        <ele>33</ele>
        <time>2023-01-24T13:04:17.615Z</time>
      </trkpt>
      <trkpt lat="48.75358" lon="2.42445">
        <ele>33</ele>
        <time>2023-01-24T13:04:22.223Z</time>
      </trkpt>
      <trkpt lat="48.75355" lon="2.4245">
        <ele>33</ele>
        <time>2023-01-24T13:04:26.233Z</time>
      </trkpt>
      <trkpt lat="48.75351" lon="2.42456">
        <ele>33</ele>
        <time>2023-01-24T13:04:30.239Z</time>
      </trkpt>
      <trkpt lat="48.75348" lon="2.42462">
        <ele>33</ele>
        <time>2023-01-24T13:04:34.245Z</time>
      </trkpt>
      <trkpt lat="48.75345" lon="2.42468">
        <ele>30</ele>
        <time>2023-01-24T13:04:38.753Z</time>
      </trkpt>
      <trkpt lat="48.75342" lon="2.42474">
        <ele>30</ele>
        <time>2023-01-24T13:04:42.762Z</time>
      </trkpt>
      <trkpt lat="48.7534" lon="2.42478">
        <ele>30</ele>
        <time>2023-01-24T13:04:47.372Z</time>
      </trkpt>
      <trkpt lat="48.75338" lon="2.42482">
        <ele>30</ele>
        <time>2023-01-24T13:04:51.381Z</time>
      </trkpt>
      <trkpt lat="48.75336" lon="2.42487">
        <ele>32</ele>
        <time>2023-01-24T13:04:55.993Z</time>
      </trkpt>
      <trkpt lat="48.75336" lon="2.4249">
        <ele>32</ele>
        <time>2023-01-24T13:05:00.003Z</time>
      </trkpt>
      <trkpt lat="48.75333" lon="2.42495">
        <ele>32</ele>
        <time>2023-01-24T13:05:04.515Z</time>
      </trkpt>
      <trkpt lat="48.75328" lon="2.42505">
        <ele>32</ele>
        <time>2023-01-24T13:05:08.627Z</time>
      </trkpt>
      <trkpt lat="48.75325" lon="2.42512">
        <ele>32</ele>
        <time>2023-01-24T13:05:13.237Z</time>
      </trkpt>
      <trkpt lat="48.75323" lon="2.42518">
        <ele>33</ele>
        <time>2023-01-24T13:05:17.244Z</time>
      </trkpt>
      <trkpt lat="48.75319" lon="2.42526">
        <ele>31</ele>
        <time>2023-01-24T13:05:21.751Z</time>
      </trkpt>
      <trkpt lat="48.75315" lon="2.42534">
        <ele>31</ele>
        <time>2023-01-24T13:05:25.757Z</time>
      </trkpt>
      <trkpt lat="48.75312" lon="2.42541">
        <ele>31</ele>
        <time>2023-01-24T13:05:29.763Z</time>
      </trkpt>
      <trkpt lat="48.75307" lon="2.42551">
        <ele>32</ele>
        <time>2023-01-24T13:05:34.373Z</time>
      </trkpt>
      <trkpt lat="48.75304" lon="2.4256">
        <ele>32</ele>
        <time>2023-01-24T13:05:38.379Z</time>
      </trkpt>
      <trkpt lat="48.75301" lon="2.42569">
        <ele>32</ele>
        <time>2023-01-24T13:05:42.889Z</time>
      </trkpt>
      <trkpt lat="48.75296" lon="2.42576">
        <ele>34</ele>
        <time>2023-01-24T13:05:46.894Z</time>
      </trkpt>
      <trkpt lat="48.75291" lon="2.42582">
        <ele>32</ele>
        <time>2023-01-24T13:05:51.401Z</time>
      </trkpt>
      <trkpt lat="48.75288" lon="2.42588">
        <ele>32</ele>
        <time>2023-01-24T13:05:55.408Z</time>
      </trkpt>
      <trkpt lat="48.75283" lon="2.42596">
        <ele>32</ele>
        <time>2023-01-24T13:06:00.015Z</time>
      </trkpt>
      <trkpt lat="48.75278" lon="2.42604">
        <ele>32</ele>
        <time>2023-01-24T13:06:04.022Z</time>
      </trkpt>
      <trkpt lat="48.75274" lon="2.4261">
        <ele>32</ele>
        <time>2023-01-24T13:06:08.029Z</time>
      </trkpt>
      <trkpt lat="48.7527" lon="2.42618">
        <ele>32</ele>
        <time>2023-01-24T13:06:12.036Z</time>
      </trkpt>
      <trkpt lat="48.75266" lon="2.42626">
        <ele>33</ele>
        <time>2023-01-24T13:06:16.546Z</time>
      </trkpt>
      <trkpt lat="48.75263" lon="2.42633">
        <ele>31</ele>
        <time>2023-01-24T13:06:21.065Z</time>
      </trkpt>
      <trkpt lat="48.75258" lon="2.4264">
        <ele>31</ele>
        <time>2023-01-24T13:06:25.161Z</time>
      </trkpt>
      <trkpt lat="48.75254" lon="2.42646">
        <ele>31</ele>
        <time>2023-01-24T13:06:29.670Z</time>
      </trkpt>
      <trkpt lat="48.75252" lon="2.4265">
        <ele>31</ele>
        <time>2023-01-24T13:06:33.678Z</time>
      </trkpt>
      <trkpt lat="48.75247" lon="2.42657">
        <ele>31</ele>
        <time>2023-01-24T13:06:38.185Z</time>
      </trkpt>
      <trkpt lat="48.75243" lon="2.42663">
        <ele>31</ele>
        <time>2023-01-24T13:06:42.193Z</time>
      </trkpt>
      <trkpt lat="48.75239" lon="2.42669">
        <ele>31</ele>
        <time>2023-01-24T13:06:46.704Z</time>
      </trkpt>
      <trkpt lat="48.75236" lon="2.42674">
        <ele>31</ele>
        <time>2023-01-24T13:06:50.914Z</time>
      </trkpt>
      <trkpt lat="48.75234" lon="2.42678">
        <ele>31</ele>
        <time>2023-01-24T13:06:55.610Z</time>
      </trkpt>
      <trkpt lat="48.75231" lon="2.42684">
        <ele>31</ele>
        <time>2023-01-24T13:06:59.886Z</time>
      </trkpt>
      <trkpt lat="48.75227" lon="2.42691">
        <ele>31</ele>
        <time>2023-01-24T13:07:03.941Z</time>
      </trkpt>
      <trkpt lat="48.75223" lon="2.42696">
        <ele>31</ele>
        <time>2023-01-24T13:07:07.948Z</time>
      </trkpt>
      <trkpt lat="48.7522" lon="2.42702">
        <ele>31</ele>
        <time>2023-01-24T13:07:12.457Z</time>
      </trkpt>
      <trkpt lat="48.75218" lon="2.42707">
        <ele>31</ele>
        <time>2023-01-24T13:07:16.463Z</time>
      </trkpt>
      <trkpt lat="48.75215" lon="2.42715">
        <ele>31</ele>
        <time>2023-01-24T13:07:20.970Z</time>
      </trkpt>
      <trkpt lat="48.75214" lon="2.42718">
        <ele>31</ele>
        <time>2023-01-24T13:07:24.977Z</time>
      </trkpt>
      <trkpt lat="48.7521" lon="2.42724">
        <ele>31</ele>
        <time>2023-01-24T13:07:29.526Z</time>
      </trkpt>
      <trkpt lat="48.75205" lon="2.42731">
        <ele>31</ele>
        <time>2023-01-24T13:07:33.691Z</time>
      </trkpt>
      <trkpt lat="48.75201" lon="2.42737">
        <ele>31</ele>
        <time>2023-01-24T13:07:37.699Z</time>
      </trkpt>
      <trkpt lat="48.75196" lon="2.42744">
        <ele>31</ele>
        <time>2023-01-24T13:07:41.703Z</time>
      </trkpt>
      <trkpt lat="48.75191" lon="2.42752">
        <ele>31</ele>
        <time>2023-01-24T13:07:46.210Z</time>
      </trkpt>
      <trkpt lat="48.75187" lon="2.4276">
        <ele>31</ele>
        <time>2023-01-24T13:07:50.218Z</time>
      </trkpt>
      <trkpt lat="48.75182" lon="2.42767">
        <ele>30</ele>
        <time>2023-01-24T13:07:54.727Z</time>
      </trkpt>
      <trkpt lat="48.75178" lon="2.42774">
        <ele>31</ele>
        <time>2023-01-24T13:07:58.733Z</time>
      </trkpt>
      <trkpt lat="48.75175" lon="2.42779">
        <ele>31</ele>
        <time>2023-01-24T13:08:03.284Z</time>
      </trkpt>
      <trkpt lat="48.75172" lon="2.42785">
        <ele>31</ele>
        <time>2023-01-24T13:08:07.547Z</time>
      </trkpt>
      <trkpt lat="48.75168" lon="2.42793">
        <ele>31</ele>
        <time>2023-01-24T13:08:12.107Z</time>
      </trkpt>
      <trkpt lat="48.75165" lon="2.42799">
        <ele>31</ele>
        <time>2023-01-24T13:08:16.346Z</time>
      </trkpt>
      <trkpt lat="48.75161" lon="2.42806">
        <ele>31</ele>
        <time>2023-01-24T13:08:20.969Z</time>
      </trkpt>
      <trkpt lat="48.75158" lon="2.42813">
        <ele>31</ele>
        <time>2023-01-24T13:08:24.974Z</time>
      </trkpt>
      <trkpt lat="48.75154" lon="2.42823">
        <ele>32</ele>
        <time>2023-01-24T13:08:29.479Z</time>
      </trkpt>
      <trkpt lat="48.75151" lon="2.42828">
        <ele>32</ele>
        <time>2023-01-24T13:08:33.683Z</time>
      </trkpt>
      <trkpt lat="48.75148" lon="2.42834">
        <ele>32</ele>
        <time>2023-01-24T13:08:38.189Z</time>
      </trkpt>
      <trkpt lat="48.75145" lon="2.42842">
        <ele>32</ele>
        <time>2023-01-24T13:08:42.195Z</time>
      </trkpt>
      <trkpt lat="48.75141" lon="2.4285">
        <ele>32</ele>
        <time>2023-01-24T13:08:46.200Z</time>
      </trkpt>
      <trkpt lat="48.75138" lon="2.42859">
        <ele>32</ele>
        <time>2023-01-24T13:08:50.707Z</time>
      </trkpt>
      <trkpt lat="48.75136" lon="2.42866">
        <ele>32</ele>
        <time>2023-01-24T13:08:54.713Z</time>
      </trkpt>
      <trkpt lat="48.75132" lon="2.42874">
        <ele>32</ele>
        <time>2023-01-24T13:08:59.323Z</time>
      </trkpt>
      <trkpt lat="48.75129" lon="2.42882">
        <ele>33</ele>
        <time>2023-01-24T13:09:03.628Z</time>
      </trkpt>
      <trkpt lat="48.75125" lon="2.42892">
        <ele>33</ele>
        <time>2023-01-24T13:09:08.136Z</time>
      </trkpt>
      <trkpt lat="48.75121" lon="2.429">
        <ele>33</ele>
        <time>2023-01-24T13:09:12.743Z</time>
      </trkpt>
      <trkpt lat="48.75117" lon="2.42908">
        <ele>34</ele>
        <time>2023-01-24T13:09:17.253Z</time>
      </trkpt>
      <trkpt lat="48.75114" lon="2.42914">
        <ele>34</ele>
        <time>2023-01-24T13:09:21.262Z</time>
      </trkpt>
      <trkpt lat="48.75111" lon="2.42918">
        <ele>34</ele>
        <time>2023-01-24T13:09:25.771Z</time>
      </trkpt>
      <trkpt lat="48.75108" lon="2.42925">
        <ele>34</ele>
        <time>2023-01-24T13:09:29.779Z</time>
      </trkpt>
      <trkpt lat="48.75104" lon="2.42932">
        <ele>34</ele>
        <time>2023-01-24T13:09:34.288Z</time>
      </trkpt>
      <trkpt lat="48.751" lon="2.4294">
        <ele>34</ele>
        <time>2023-01-24T13:09:38.296Z</time>
      </trkpt>
      <trkpt lat="48.75096" lon="2.42949">
        <ele>35</ele>
        <time>2023-01-24T13:09:42.808Z</time>
      </trkpt>
      <trkpt lat="48.75092" lon="2.4296">
        <ele>34</ele>
        <time>2023-01-24T13:09:47.012Z</time>
      </trkpt>
      <trkpt lat="48.75087" lon="2.42968">
        <ele>34</ele>
        <time>2023-01-24T13:09:51.019Z</time>
      </trkpt>
      <trkpt lat="48.75083" lon="2.42977">
        <ele>34</ele>
        <time>2023-01-24T13:09:55.526Z</time>
      </trkpt>
      <trkpt lat="48.7508" lon="2.42985">
        <ele>34</ele>
        <time>2023-01-24T13:09:59.534Z</time>
      </trkpt>
      <trkpt lat="48.75077" lon="2.42993">
        <ele>33</ele>
        <time>2023-01-24T13:10:04.041Z</time>
      </trkpt>
      <trkpt lat="48.75073" lon="2.43001">
        <ele>33</ele>
        <time>2023-01-24T13:10:08.048Z</time>
      </trkpt>
      <trkpt lat="48.75069" lon="2.43011">
        <ele>33</ele>
        <time>2023-01-24T13:10:12.566Z</time>
      </trkpt>
      <trkpt lat="48.75065" lon="2.43019">
        <ele>33</ele>
        <time>2023-01-24T13:10:16.572Z</time>
      </trkpt>
      <trkpt lat="48.75062" lon="2.43025">
        <ele>33</ele>
        <time>2023-01-24T13:10:20.579Z</time>
      </trkpt>
      <trkpt lat="48.75059" lon="2.43031">
        <ele>33</ele>
        <time>2023-01-24T13:10:25.084Z</time>
      </trkpt>
      <trkpt lat="48.75055" lon="2.43039">
        <ele>33</ele>
        <time>2023-01-24T13:10:30.090Z</time>
      </trkpt>
      <trkpt lat="48.75052" lon="2.43046">
        <ele>33</ele>
        <time>2023-01-24T13:10:34.596Z</time>
      </trkpt>
      <trkpt lat="48.75049" lon="2.43052">
        <ele>33</ele>
        <time>2023-01-24T13:10:38.623Z</time>
      </trkpt>
      <trkpt lat="48.75048" lon="2.43058">
        <ele>33</ele>
        <time>2023-01-24T13:10:42.805Z</time>
      </trkpt>
      <trkpt lat="48.75047" lon="2.43062">
        <ele>33</ele>
        <time>2023-01-24T13:10:47.410Z</time>
      </trkpt>
      <trkpt lat="48.75045" lon="2.43065">
        <ele>33</ele>
        <time>2023-01-24T13:10:51.913Z</time>
      </trkpt>
      <trkpt lat="48.7504" lon="2.43072">
        <ele>34</ele>
        <time>2023-01-24T13:10:56.417Z</time>
      </trkpt>
      <trkpt lat="48.75035" lon="2.4308">
        <ele>34</ele>
        <time>2023-01-24T13:11:01.165Z</time>
      </trkpt>
      <trkpt lat="48.75031" lon="2.43093">
        <ele>34</ele>
        <time>2023-01-24T13:11:05.428Z</time>
      </trkpt>
      <trkpt lat="48.75028" lon="2.43099">
        <ele>35</ele>
        <time>2023-01-24T13:11:09.933Z</time>
      </trkpt>
      <trkpt lat="48.75026" lon="2.43104">
        <ele>35</ele>
        <time>2023-01-24T13:11:13.938Z</time>
      </trkpt>
      <trkpt lat="48.75025" lon="2.43108">
        <ele>35</ele>
        <time>2023-01-24T13:11:18.544Z</time>
      </trkpt>
      <trkpt lat="48.75022" lon="2.43115">
        <ele>35</ele>
        <time>2023-01-24T13:11:22.549Z</time>
      </trkpt>
      <trkpt lat="48.75019" lon="2.43122">
        <ele>35</ele>
        <time>2023-01-24T13:11:27.055Z</time>
      </trkpt>
      <trkpt lat="48.75016" lon="2.43128">
        <ele>36</ele>
        <time>2023-01-24T13:11:31.060Z</time>
      </trkpt>
      <trkpt lat="48.75012" lon="2.43136">
        <ele>38</ele>
        <time>2023-01-24T13:11:35.064Z</time>
      </trkpt>
      <trkpt lat="48.75007" lon="2.43145">
        <ele>38</ele>
        <time>2023-01-24T13:11:39.570Z</time>
      </trkpt>
      <trkpt lat="48.75003" lon="2.43152">
        <ele>38</ele>
        <time>2023-01-24T13:11:44.076Z</time>
      </trkpt>
      <trkpt lat="48.75" lon="2.43157">
        <ele>36</ele>
        <time>2023-01-24T13:11:48.605Z</time>
      </trkpt>
      <trkpt lat="48.74997" lon="2.43164">
        <ele>36</ele>
        <time>2023-01-24T13:11:52.888Z</time>
      </trkpt>
      <trkpt lat="48.74992" lon="2.43169">
        <ele>36</ele>
        <time>2023-01-24T13:11:56.894Z</time>
      </trkpt>
      <trkpt lat="48.74987" lon="2.43177">
        <ele>36</ele>
        <time>2023-01-24T13:12:01.906Z</time>
      </trkpt>
      <trkpt lat="48.74982" lon="2.43186">
        <ele>31</ele>
        <time>2023-01-24T13:12:06.006Z</time>
      </trkpt>
      <trkpt lat="48.74979" lon="2.43193">
        <ele>31</ele>
        <time>2023-01-24T13:12:10.514Z</time>
      </trkpt>
      <trkpt lat="48.74977" lon="2.432">
        <ele>31</ele>
        <time>2023-01-24T13:12:14.520Z</time>
      </trkpt>
      <trkpt lat="48.74973" lon="2.43207">
        <ele>31</ele>
        <time>2023-01-24T13:12:19.026Z</time>
      </trkpt>
      <trkpt lat="48.74969" lon="2.43215">
        <ele>30</ele>
        <time>2023-01-24T13:12:23.532Z</time>
      </trkpt>
      <trkpt lat="48.74965" lon="2.43223">
        <ele>30</ele>
        <time>2023-01-24T13:12:28.037Z</time>
      </trkpt>
      <trkpt lat="48.7496" lon="2.43232">
        <ele>30</ele>
        <time>2023-01-24T13:12:32.543Z</time>
      </trkpt>
      <trkpt lat="48.74956" lon="2.4324">
        <ele>31</ele>
        <time>2023-01-24T13:12:37.050Z</time>
      </trkpt>
      <trkpt lat="48.74953" lon="2.43246">
        <ele>31</ele>
        <time>2023-01-24T13:12:41.056Z</time>
      </trkpt>
      <trkpt lat="48.74949" lon="2.43254">
        <ele>31</ele>
        <time>2023-01-24T13:12:45.662Z</time>
      </trkpt>
      <trkpt lat="48.74946" lon="2.4326">
        <ele>31</ele>
        <time>2023-01-24T13:12:50.167Z</time>
      </trkpt>
      <trkpt lat="48.74941" lon="2.43267">
        <ele>32</ele>
        <time>2023-01-24T13:12:54.172Z</time>
      </trkpt>
      <trkpt lat="48.74937" lon="2.43275">
        <ele>32</ele>
        <time>2023-01-24T13:12:58.779Z</time>
      </trkpt>
      <trkpt lat="48.74933" lon="2.43281">
        <ele>32</ele>
        <time>2023-01-24T13:13:02.783Z</time>
      </trkpt>
      <trkpt lat="48.74929" lon="2.43287">
        <ele>34</ele>
        <time>2023-01-24T13:13:06.787Z</time>
      </trkpt>
      <trkpt lat="48.74925" lon="2.43292">
        <ele>33</ele>
        <time>2023-01-24T13:13:11.395Z</time>
      </trkpt>
      <trkpt lat="48.7492" lon="2.43295">
        <ele>33</ele>
        <time>2023-01-24T13:13:15.407Z</time>
      </trkpt>
      <trkpt lat="48.74918" lon="2.43308">
        <ele>33</ele>
        <time>2023-01-24T13:13:19.430Z</time>
      </trkpt>
      <trkpt lat="48.74914" lon="2.43318">
        <ele>33</ele>
        <time>2023-01-24T13:13:23.958Z</time>
      </trkpt>
      <trkpt lat="48.74909" lon="2.43323">
        <ele>32</ele>
        <time>2023-01-24T13:13:28.088Z</time>
      </trkpt>
      <trkpt lat="48.74905" lon="2.43329">
        <ele>32</ele>
        <time>2023-01-24T13:13:32.723Z</time>
      </trkpt>
      <trkpt lat="48.74901" lon="2.43337">
        <ele>33</ele>
        <time>2023-01-24T13:13:36.427Z</time>
      </trkpt>
      <trkpt lat="48.74896" lon="2.43344">
        <ele>33</ele>
        <time>2023-01-24T13:13:40.949Z</time>
      </trkpt>
      <trkpt lat="48.74892" lon="2.4335">
        <ele>33</ele>
        <time>2023-01-24T13:13:44.968Z</time>
      </trkpt>
      <trkpt lat="48.74887" lon="2.43357">
        <ele>33</ele>
        <time>2023-01-24T13:13:49.489Z</time>
      </trkpt>
      <trkpt lat="48.74882" lon="2.43363">
        <ele>33</ele>
        <time>2023-01-24T13:13:54.008Z</time>
      </trkpt>
      <trkpt lat="48.74877" lon="2.43369">
        <ele>33</ele>
        <time>2023-01-24T13:13:58.025Z</time>
      </trkpt>
      <trkpt lat="48.74873" lon="2.43377">
        <ele>30</ele>
        <time>2023-01-24T13:14:02.544Z</time>
      </trkpt>
      <trkpt lat="48.74868" lon="2.43383">
        <ele>30</ele>
        <time>2023-01-24T13:14:07.247Z</time>
      </trkpt>
      <trkpt lat="48.74864" lon="2.43389">
        <ele>30</ele>
        <time>2023-01-24T13:14:11.379Z</time>
      </trkpt>
      <trkpt lat="48.7486" lon="2.43396">
        <ele>30</ele>
        <time>2023-01-24T13:14:15.496Z</time>
      </trkpt>
      <trkpt lat="48.74857" lon="2.43401">
        <ele>30</ele>
        <time>2023-01-24T13:14:19.512Z</time>
      </trkpt>
      <trkpt lat="48.74853" lon="2.43406">
        <ele>30</ele>
        <time>2023-01-24T13:14:23.528Z</time>
      </trkpt>
      <trkpt lat="48.74849" lon="2.43412">
        <ele>30</ele>
        <time>2023-01-24T13:14:28.046Z</time>
      </trkpt>
      <trkpt lat="48.74845" lon="2.43419">
        <ele>30</ele>
        <time>2023-01-24T13:14:32.564Z</time>
      </trkpt>
      <trkpt lat="48.74842" lon="2.43425">
        <ele>30</ele>
        <time>2023-01-24T13:14:37.183Z</time>
      </trkpt>
      <trkpt lat="48.74839" lon="2.43431">
        <ele>30</ele>
        <time>2023-01-24T13:14:41.200Z</time>
      </trkpt>
      <trkpt lat="48.74836" lon="2.43435">
        <ele>30</ele>
        <time>2023-01-24T13:14:45.217Z</time>
      </trkpt>
      <trkpt lat="48.74832" lon="2.4344">
        <ele>30</ele>
        <time>2023-01-24T13:14:49.852Z</time>
      </trkpt>
      <trkpt lat="48.74829" lon="2.43445">
        <ele>30</ele>
        <time>2023-01-24T13:14:54.071Z</time>
      </trkpt>
      <trkpt lat="48.74828" lon="2.4345">
        <ele>30</ele>
        <time>2023-01-24T13:14:58.175Z</time>
      </trkpt>
      <trkpt lat="48.74825" lon="2.43456">
        <ele>30</ele>
        <time>2023-01-24T13:15:02.193Z</time>
      </trkpt>
      <trkpt lat="48.74821" lon="2.43464">
        <ele>31</ele>
        <time>2023-01-24T13:15:06.714Z</time>
      </trkpt>
      <trkpt lat="48.74818" lon="2.4347">
        <ele>34</ele>
        <time>2023-01-24T13:15:10.732Z</time>
      </trkpt>
      <trkpt lat="48.74812" lon="2.43478">
        <ele>34</ele>
        <time>2023-01-24T13:15:15.253Z</time>
      </trkpt>
      <trkpt lat="48.74808" lon="2.43483">
        <ele>34</ele>
        <time>2023-01-24T13:15:19.789Z</time>
      </trkpt>
      <trkpt lat="48.74804" lon="2.43489">
        <ele>34</ele>
        <time>2023-01-24T13:15:23.901Z</time>
      </trkpt>
      <trkpt lat="48.74797" lon="2.43498">
        <ele>34</ele>
        <time>2023-01-24T13:15:28.481Z</time>
      </trkpt>
      <trkpt lat="48.74791" lon="2.43506">
        <ele>33</ele>
        <time>2023-01-24T13:15:32.630Z</time>
      </trkpt>
      <trkpt lat="48.74781" lon="2.43511">
        <ele>33</ele>
        <time>2023-01-24T13:15:37.244Z</time>
      </trkpt>
      <trkpt lat="48.74775" lon="2.43517">
        <ele>32</ele>
        <time>2023-01-24T13:15:41.257Z</time>
      </trkpt>
      <trkpt lat="48.7477" lon="2.43524">
        <ele>32</ele>
        <time>2023-01-24T13:15:45.775Z</time>
      </trkpt>
      <trkpt lat="48.74766" lon="2.43528">
        <ele>32</ele>
        <time>2023-01-24T13:15:50.294Z</time>
      </trkpt>
      <trkpt lat="48.74764" lon="2.43533">
        <ele>29</ele>
        <time>2023-01-24T13:15:54.308Z</time>
      </trkpt>
      <trkpt lat="48.74764" lon="2.4354">
        <ele>29</ele>
        <time>2023-01-24T13:15:58.320Z</time>
      </trkpt>
      <trkpt lat="48.74762" lon="2.43544">
        <ele>30</ele>
        <time>2023-01-24T13:16:02.934Z</time>
      </trkpt>
      <trkpt lat="48.74759" lon="2.43548">
        <ele>30</ele>
        <time>2023-01-24T13:16:06.946Z</time>
      </trkpt>
      <trkpt lat="48.74755" lon="2.43552">
        <ele>30</ele>
        <time>2023-01-24T13:16:11.462Z</time>
      </trkpt>
      <trkpt lat="48.74752" lon="2.43557">
        <ele>30</ele>
        <time>2023-01-24T13:16:15.473Z</time>
      </trkpt>
      <trkpt lat="48.74748" lon="2.43562">
        <ele>30</ele>
        <time>2023-01-24T13:16:20.070Z</time>
      </trkpt>
      <trkpt lat="48.74743" lon="2.43563">
        <ele>30</ele>
        <time>2023-01-24T13:16:24.599Z</time>
      </trkpt>
      <trkpt lat="48.7474" lon="2.43566">
        <ele>30</ele>
        <time>2023-01-24T13:16:29.213Z</time>
      </trkpt>
      <trkpt lat="48.74736" lon="2.43571">
        <ele>30</ele>
        <time>2023-01-24T13:16:33.224Z</time>
      </trkpt>
      <trkpt lat="48.7473" lon="2.43576">
        <ele>30</ele>
        <time>2023-01-24T13:16:37.737Z</time>
      </trkpt>
      <trkpt lat="48.74728" lon="2.43578">
        <ele>30</ele>
        <time>2023-01-24T13:16:41.749Z</time>
      </trkpt>
      <trkpt lat="48.74728" lon="2.43581">
        <ele>30</ele>
        <time>2023-01-24T13:16:46.261Z</time>
      </trkpt>
      <trkpt lat="48.74725" lon="2.43586">
        <ele>30</ele>
        <time>2023-01-24T13:16:50.774Z</time>
      </trkpt>
      <trkpt lat="48.74722" lon="2.43591">
        <ele>30</ele>
        <time>2023-01-24T13:16:54.787Z</time>
      </trkpt>
      <trkpt lat="48.74719" lon="2.43595">
        <ele>30</ele>
        <time>2023-01-24T13:16:58.799Z</time>
      </trkpt>
      <trkpt lat="48.74717" lon="2.43599">
        <ele>31</ele>
        <time>2023-01-24T13:17:03.812Z</time>
      </trkpt>
      <trkpt lat="48.74716" lon="2.43604">
        <ele>31</ele>
        <time>2023-01-24T13:17:08.825Z</time>
      </trkpt>
      <trkpt lat="48.74714" lon="2.43608">
        <ele>31</ele>
        <time>2023-01-24T13:17:13.338Z</time>
      </trkpt>
      <trkpt lat="48.74709" lon="2.43614">
        <ele>31</ele>
        <time>2023-01-24T13:17:17.451Z</time>
      </trkpt>
      <trkpt lat="48.74702" lon="2.4362">
        <ele>30</ele>
        <time>2023-01-24T13:17:21.462Z</time>
      </trkpt>
      <trkpt lat="48.74697" lon="2.43624">
        <ele>30</ele>
        <time>2023-01-24T13:17:25.976Z</time>
      </trkpt>
      <trkpt lat="48.74693" lon="2.4363">
        <ele>32</ele>
        <time>2023-01-24T13:17:30.490Z</time>
      </trkpt>
      <trkpt lat="48.7469" lon="2.43636">
        <ele>32</ele>
        <time>2023-01-24T13:17:35.006Z</time>
      </trkpt>
      <trkpt lat="48.74686" lon="2.43642">
        <ele>32</ele>
        <time>2023-01-24T13:17:39.214Z</time>
      </trkpt>
      <trkpt lat="48.74684" lon="2.43648">
        <ele>32</ele>
        <time>2023-01-24T13:17:43.225Z</time>
      </trkpt>
      <trkpt lat="48.74682" lon="2.43653">
        <ele>34</ele>
        <time>2023-01-24T13:17:47.235Z</time>
      </trkpt>
      <trkpt lat="48.74682" lon="2.43659">
        <ele>34</ele>
        <time>2023-01-24T13:17:51.747Z</time>
      </trkpt>
      <trkpt lat="48.7468" lon="2.43666">
        <ele>35</ele>
        <time>2023-01-24T13:17:56.359Z</time>
      </trkpt>
      <trkpt lat="48.74678" lon="2.43671">
        <ele>35</ele>
        <time>2023-01-24T13:18:00.369Z</time>
      </trkpt>
      <trkpt lat="48.74677" lon="2.43675">
        <ele>35</ele>
        <time>2023-01-24T13:18:04.882Z</time>
      </trkpt>
      <trkpt lat="48.74673" lon="2.4368">
        <ele>35</ele>
        <time>2023-01-24T13:18:09.898Z</time>
      </trkpt>
      <trkpt lat="48.74666" lon="2.43683">
        <ele>35</ele>
        <time>2023-01-24T13:18:13.912Z</time>
      </trkpt>
      <trkpt lat="48.74659" lon="2.43691">
        <ele>35</ele>
        <time>2023-01-24T13:18:18.934Z</time>
      </trkpt>
      <trkpt lat="48.74653" lon="2.43698">
        <ele>32</ele>
        <time>2023-01-24T13:18:23.953Z</time>
      </trkpt>
      <trkpt lat="48.74648" lon="2.43702">
        <ele>32</ele>
        <time>2023-01-24T13:18:27.973Z</time>
      </trkpt>
      <trkpt lat="48.74645" lon="2.43712">
        <ele>31</ele>
        <time>2023-01-24T13:18:32.493Z</time>
      </trkpt>
      <trkpt lat="48.74644" lon="2.4372">
        <ele>31</ele>
        <time>2023-01-24T13:18:37.010Z</time>
      </trkpt>
      <trkpt lat="48.74642" lon="2.43724">
        <ele>31</ele>
        <time>2023-01-24T13:18:41.095Z</time>
      </trkpt>
      <trkpt lat="48.74634" lon="2.43726">
        <ele>31</ele>
        <time>2023-01-24T13:18:45.402Z</time>
      </trkpt>
      <trkpt lat="48.74628" lon="2.43729">
        <ele>31</ele>
        <time>2023-01-24T13:18:49.454Z</time>
      </trkpt>
      <trkpt lat="48.74624" lon="2.43733">
        <ele>29</ele>
        <time>2023-01-24T13:18:53.468Z</time>
      </trkpt>
      <trkpt lat="48.74618" lon="2.43738">
        <ele>31</ele>
        <time>2023-01-24T13:18:57.986Z</time>
      </trkpt>
      <trkpt lat="48.74613" lon="2.43743">
        <ele>31</ele>
        <time>2023-01-24T13:19:02.501Z</time>
      </trkpt>
      <trkpt lat="48.74608" lon="2.43747">
        <ele>31</ele>
        <time>2023-01-24T13:19:06.514Z</time>
      </trkpt>
      <trkpt lat="48.74603" lon="2.43751">
        <ele>31</ele>
        <time>2023-01-24T13:19:10.627Z</time>
      </trkpt>
      <trkpt lat="48.74598" lon="2.43755">
        <ele>31</ele>
        <time>2023-01-24T13:19:15.141Z</time>
      </trkpt>
      <trkpt lat="48.74594" lon="2.43758">
        <ele>31</ele>
        <time>2023-01-24T13:19:19.656Z</time>
      </trkpt>
      <trkpt lat="48.74589" lon="2.43762">
        <ele>31</ele>
        <time>2023-01-24T13:19:24.372Z</time>
      </trkpt>
      <trkpt lat="48.74584" lon="2.43765">
        <ele>32</ele>
        <time>2023-01-24T13:19:28.386Z</time>
      </trkpt>
      <trkpt lat="48.74578" lon="2.43769">
        <ele>32</ele>
        <time>2023-01-24T13:19:33.001Z</time>
      </trkpt>
      <trkpt lat="48.74573" lon="2.43773">
        <ele>32</ele>
        <time>2023-01-24T13:19:37.516Z</time>
      </trkpt>
      <trkpt lat="48.74568" lon="2.43776">
        <ele>32</ele>
        <time>2023-01-24T13:19:41.530Z</time>
      </trkpt>
      <trkpt lat="48.74562" lon="2.4378">
        <ele>32</ele>
        <time>2023-01-24T13:19:46.044Z</time>
      </trkpt>
      <trkpt lat="48.74557" lon="2.43784">
        <ele>32</ele>
        <time>2023-01-24T13:19:50.057Z</time>
      </trkpt>
      <trkpt lat="48.74552" lon="2.43787">
        <ele>32</ele>
        <time>2023-01-24T13:19:54.572Z</time>
      </trkpt>
      <trkpt lat="48.74547" lon="2.4379">
        <ele>32</ele>
        <time>2023-01-24T13:19:58.585Z</time>
      </trkpt>
      <trkpt lat="48.74543" lon="2.43793">
        <ele>32</ele>
        <time>2023-01-24T13:20:03.123Z</time>
      </trkpt>
      <trkpt lat="48.74537" lon="2.43796">
        <ele>32</ele>
        <time>2023-01-24T13:20:07.368Z</time>
      </trkpt>
      <trkpt lat="48.74533" lon="2.438">
        <ele>32</ele>
        <time>2023-01-24T13:20:11.526Z</time>
      </trkpt>
      <trkpt lat="48.74528" lon="2.43803">
        <ele>32</ele>
        <time>2023-01-24T13:20:16.042Z</time>
      </trkpt>
      <trkpt lat="48.74523" lon="2.43807">
        <ele>32</ele>
        <time>2023-01-24T13:20:20.557Z</time>
      </trkpt>
      <trkpt lat="48.74521" lon="2.43808">
        <ele>32</ele>
        <time>2023-01-24T13:20:25.073Z</time>
      </trkpt>
      <trkpt lat="48.74518" lon="2.4381">
        <ele>32</ele>
        <time>2023-01-24T13:20:29.086Z</time>
      </trkpt>
      <trkpt lat="48.74512" lon="2.43813">
        <ele>31</ele>
        <time>2023-01-24T13:20:33.603Z</time>
      </trkpt>
      <trkpt lat="48.74506" lon="2.43817">
        <ele>31</ele>
        <time>2023-01-24T13:20:38.118Z</time>
      </trkpt>
      <trkpt lat="48.74502" lon="2.43821">
        <ele>30</ele>
        <time>2023-01-24T13:20:42.130Z</time>
      </trkpt>
      <trkpt lat="48.74496" lon="2.43825">
        <ele>30</ele>
        <time>2023-01-24T13:20:46.645Z</time>
      </trkpt>
      <trkpt lat="48.74492" lon="2.43827">
        <ele>30</ele>
        <time>2023-01-24T13:20:50.659Z</time>
      </trkpt>
      <trkpt lat="48.74493" lon="2.43831">
        <ele>30</ele>
        <time>2023-01-24T13:20:54.673Z</time>
      </trkpt>
      <trkpt lat="48.74489" lon="2.43834">
        <ele>30</ele>
        <time>2023-01-24T13:20:59.287Z</time>
      </trkpt>
      <trkpt lat="48.74487" lon="2.43835">
        <ele>30</ele>
        <time>2023-01-24T13:21:03.802Z</time>
      </trkpt>
      <trkpt lat="48.74485" lon="2.43836">
        <ele>30</ele>
        <time>2023-01-24T13:21:07.817Z</time>
      </trkpt>
      <trkpt lat="48.7448" lon="2.43839">
        <ele>30</ele>
        <time>2023-01-24T13:21:13.034Z</time>
      </trkpt>
      <trkpt lat="48.74475" lon="2.43842">
        <ele>30</ele>
        <time>2023-01-24T13:21:17.549Z</time>
      </trkpt>
      <trkpt lat="48.74474" lon="2.43846">
        <ele>30</ele>
        <time>2023-01-24T13:21:22.066Z</time>
      </trkpt>
      <trkpt lat="48.74474" lon="2.43854">
        <ele>30</ele>
        <time>2023-01-24T13:21:26.082Z</time>
      </trkpt>
      <trkpt lat="48.74475" lon="2.43861">
        <ele>30</ele>
        <time>2023-01-24T13:21:30.601Z</time>
      </trkpt>
      <trkpt lat="48.74474" lon="2.43864">
        <ele>30</ele>
        <time>2023-01-24T13:21:35.119Z</time>
      </trkpt>
      <trkpt lat="48.74477" lon="2.43865">
        <ele>30</ele>
        <time>2023-01-24T13:21:39.638Z</time>
      </trkpt>
      <trkpt lat="48.74483" lon="2.43868">
        <ele>30</ele>
        <time>2023-01-24T13:21:44.257Z</time>
      </trkpt>
      <trkpt lat="48.74487" lon="2.43868">
        <ele>31</ele>
        <time>2023-01-24T13:21:48.779Z</time>
      </trkpt>
      <trkpt lat="48.7449" lon="2.43868">
        <ele>31</ele>
        <time>2023-01-24T13:21:53.299Z</time>
      </trkpt>
      <trkpt lat="48.74492" lon="2.43868">
        <ele>31</ele>
        <time>2023-01-24T13:21:57.317Z</time>
      </trkpt>
      <trkpt lat="48.74495" lon="2.43871">
        <ele>31</ele>
        <time>2023-01-24T13:22:01.835Z</time>
      </trkpt>
      <trkpt lat="48.74499" lon="2.43876">
        <ele>32</ele>
        <time>2023-01-24T13:22:06.355Z</time>
      </trkpt>
      <trkpt lat="48.745" lon="2.43884">
        <ele>32</ele>
        <time>2023-01-24T13:22:10.875Z</time>
      </trkpt>
      <trkpt lat="48.74501" lon="2.43893">
        <ele>32</ele>
        <time>2023-01-24T13:22:15.496Z</time>
      </trkpt>
      <trkpt lat="48.74502" lon="2.43899">
        <ele>32</ele>
        <time>2023-01-24T13:22:19.515Z</time>
      </trkpt>
      <trkpt lat="48.74502" lon="2.43908">
        <ele>34</ele>
        <time>2023-01-24T13:22:24.035Z</time>
      </trkpt>
      <trkpt lat="48.74503" lon="2.43917">
        <ele>34</ele>
        <time>2023-01-24T13:22:28.557Z</time>
      </trkpt>
      <trkpt lat="48.74506" lon="2.43923">
        <ele>34</ele>
        <time>2023-01-24T13:22:33.076Z</time>
      </trkpt>
      <trkpt lat="48.74508" lon="2.43928">
        <ele>34</ele>
        <time>2023-01-24T13:22:37.095Z</time>
      </trkpt>
      <trkpt lat="48.7451" lon="2.43936">
        <ele>34</ele>
        <time>2023-01-24T13:22:41.112Z</time>
      </trkpt>
      <trkpt lat="48.74511" lon="2.43946">
        <ele>34</ele>
        <time>2023-01-24T13:22:45.130Z</time>
      </trkpt>
      <trkpt lat="48.74512" lon="2.43953">
        <ele>34</ele>
        <time>2023-01-24T13:22:49.148Z</time>
      </trkpt>
      <trkpt lat="48.74514" lon="2.4396">
        <ele>33</ele>
        <time>2023-01-24T13:22:53.668Z</time>
      </trkpt>
      <trkpt lat="48.74517" lon="2.43968">
        <ele>33</ele>
        <time>2023-01-24T13:22:58.186Z</time>
      </trkpt>
      <trkpt lat="48.74519" lon="2.43976">
        <ele>33</ele>
        <time>2023-01-24T13:23:02.203Z</time>
      </trkpt>
      <trkpt lat="48.74522" lon="2.43984">
        <ele>33</ele>
        <time>2023-01-24T13:23:06.722Z</time>
      </trkpt>
      <trkpt lat="48.74525" lon="2.43991">
        <ele>33</ele>
        <time>2023-01-24T13:23:11.241Z</time>
      </trkpt>
      <trkpt lat="48.74527" lon="2.43996">
        <ele>33</ele>
        <time>2023-01-24T13:23:15.256Z</time>
      </trkpt>
      <trkpt lat="48.7453" lon="2.44004">
        <ele>33</ele>
        <time>2023-01-24T13:23:19.875Z</time>
      </trkpt>
      <trkpt lat="48.74531" lon="2.44011">
        <ele>33</ele>
        <time>2023-01-24T13:23:23.891Z</time>
      </trkpt>
      <trkpt lat="48.74532" lon="2.44019">
        <ele>33</ele>
        <time>2023-01-24T13:23:28.509Z</time>
      </trkpt>
      <trkpt lat="48.74534" lon="2.44025">
        <ele>33</ele>
        <time>2023-01-24T13:23:32.524Z</time>
      </trkpt>
      <trkpt lat="48.74536" lon="2.44034">
        <ele>33</ele>
        <time>2023-01-24T13:23:37.184Z</time>
      </trkpt>
      <trkpt lat="48.74541" lon="2.44053">
        <ele>34</ele>
        <time>2023-01-24T13:23:45.272Z</time>
      </trkpt>
      <trkpt lat="48.74543" lon="2.44062">
        <ele>34</ele>
        <time>2023-01-24T13:23:49.901Z</time>
      </trkpt>
      <trkpt lat="48.74545" lon="2.4407">
        <ele>34</ele>
        <time>2023-01-24T13:23:53.506Z</time>
      </trkpt>
      <trkpt lat="48.74548" lon="2.44075">
        <ele>34</ele>
        <time>2023-01-24T13:23:58.126Z</time>
      </trkpt>
      <trkpt lat="48.7455" lon="2.44081">
        <ele>34</ele>
        <time>2023-01-24T13:24:02.144Z</time>
      </trkpt>
      <trkpt lat="48.74553" lon="2.44088">
        <ele>34</ele>
        <time>2023-01-24T13:24:06.261Z</time>
      </trkpt>
      <trkpt lat="48.74556" lon="2.44094">
        <ele>34</ele>
        <time>2023-01-24T13:24:10.278Z</time>
      </trkpt>
      <trkpt lat="48.74564" lon="2.441">
        <ele>34</ele>
        <time>2023-01-24T13:24:44.625Z</time>
      </trkpt>
      <trkpt lat="48.74565" lon="2.44096">
        <ele>34</ele>
        <time>2023-01-24T13:24:48.642Z</time>
      </trkpt>
      <trkpt lat="48.74567" lon="2.44096">
        <ele>34</ele>
        <time>2023-01-24T13:24:53.161Z</time>
      </trkpt>
      <trkpt lat="48.74569" lon="2.44099">
        <ele>34</ele>
        <time>2023-01-24T13:24:57.680Z</time>
      </trkpt>
      <trkpt lat="48.74569" lon="2.44101">
        <ele>34</ele>
        <time>2023-01-24T13:25:01.697Z</time>
      </trkpt>
      <trkpt lat="48.7457" lon="2.44106">
        <ele>32</ele>
        <time>2023-01-24T13:25:06.217Z</time>
      </trkpt>
      <trkpt lat="48.7457" lon="2.44113">
        <ele>32</ele>
        <time>2023-01-24T13:25:10.234Z</time>
      </trkpt>
      <trkpt lat="48.74571" lon="2.44121">
        <ele>32</ele>
        <time>2023-01-24T13:25:14.252Z</time>
      </trkpt>
      <trkpt lat="48.74572" lon="2.44127">
        <ele>32</ele>
        <time>2023-01-24T13:25:18.268Z</time>
      </trkpt>
      <trkpt lat="48.74573" lon="2.44133">
        <ele>32</ele>
        <time>2023-01-24T13:25:22.886Z</time>
      </trkpt>
      <trkpt lat="48.74574" lon="2.4414">
        <ele>32</ele>
        <time>2023-01-24T13:25:26.903Z</time>
      </trkpt>
      <trkpt lat="48.74575" lon="2.44148">
        <ele>32</ele>
        <time>2023-01-24T13:25:30.920Z</time>
      </trkpt>
      <trkpt lat="48.74576" lon="2.44156">
        <ele>31</ele>
        <time>2023-01-24T13:25:35.439Z</time>
      </trkpt>
      <trkpt lat="48.74577" lon="2.44163">
        <ele>31</ele>
        <time>2023-01-24T13:25:39.957Z</time>
      </trkpt>
      <trkpt lat="48.74578" lon="2.4417">
        <ele>31</ele>
        <time>2023-01-24T13:25:44.476Z</time>
      </trkpt>
      <trkpt lat="48.74578" lon="2.44175">
        <ele>31</ele>
        <time>2023-01-24T13:25:48.492Z</time>
      </trkpt>
      <trkpt lat="48.74579" lon="2.44182">
        <ele>32</ele>
        <time>2023-01-24T13:25:52.509Z</time>
      </trkpt>
      <trkpt lat="48.74581" lon="2.44188">
        <ele>32</ele>
        <time>2023-01-24T13:25:56.525Z</time>
      </trkpt>
      <trkpt lat="48.74583" lon="2.44194">
        <ele>32</ele>
        <time>2023-01-24T13:26:01.043Z</time>
      </trkpt>
      <trkpt lat="48.74584" lon="2.44203">
        <ele>32</ele>
        <time>2023-01-24T13:26:05.060Z</time>
      </trkpt>
      <trkpt lat="48.74586" lon="2.44211">
        <ele>32</ele>
        <time>2023-01-24T13:26:09.579Z</time>
      </trkpt>
      <trkpt lat="48.74587" lon="2.44218">
        <ele>32</ele>
        <time>2023-01-24T13:26:13.596Z</time>
      </trkpt>
      <trkpt lat="48.74587" lon="2.44224">
        <ele>32</ele>
        <time>2023-01-24T13:26:17.613Z</time>
      </trkpt>
      <trkpt lat="48.74589" lon="2.4423">
        <ele>32</ele>
        <time>2023-01-24T13:26:21.632Z</time>
      </trkpt>
      <trkpt lat="48.7459" lon="2.44239">
        <ele>32</ele>
        <time>2023-01-24T13:26:25.649Z</time>
      </trkpt>
      <trkpt lat="48.7459" lon="2.44247">
        <ele>32</ele>
        <time>2023-01-24T13:26:29.666Z</time>
      </trkpt>
      <trkpt lat="48.74591" lon="2.44257">
        <ele>32</ele>
        <time>2023-01-24T13:26:34.185Z</time>
      </trkpt>
      <trkpt lat="48.74592" lon="2.4427">
        <ele>32</ele>
        <time>2023-01-24T13:26:38.703Z</time>
      </trkpt>
      <trkpt lat="48.74593" lon="2.44281">
        <ele>32</ele>
        <time>2023-01-24T13:26:43.220Z</time>
      </trkpt>
      <trkpt lat="48.74594" lon="2.4429">
        <ele>32</ele>
        <time>2023-01-24T13:26:47.235Z</time>
      </trkpt>
      <trkpt lat="48.74595" lon="2.443">
        <ele>33</ele>
        <time>2023-01-24T13:26:51.752Z</time>
      </trkpt>
      <trkpt lat="48.74597" lon="2.44306">
        <ele>33</ele>
        <time>2023-01-24T13:26:55.767Z</time>
      </trkpt>
      <trkpt lat="48.74598" lon="2.44315">
        <ele>33</ele>
        <time>2023-01-24T13:27:00.283Z</time>
      </trkpt>
      <trkpt lat="48.74598" lon="2.44324">
        <ele>33</ele>
        <time>2023-01-24T13:27:04.298Z</time>
      </trkpt>
      <trkpt lat="48.74599" lon="2.4433">
        <ele>33</ele>
        <time>2023-01-24T13:27:08.313Z</time>
      </trkpt>
      <trkpt lat="48.746" lon="2.44339">
        <ele>33</ele>
        <time>2023-01-24T13:27:12.831Z</time>
      </trkpt>
      <trkpt lat="48.74601" lon="2.44347">
        <ele>34</ele>
        <time>2023-01-24T13:27:17.348Z</time>
      </trkpt>
      <trkpt lat="48.74602" lon="2.44354">
        <ele>34</ele>
        <time>2023-01-24T13:27:21.367Z</time>
      </trkpt>
      <trkpt lat="48.74603" lon="2.44361">
        <ele>34</ele>
        <time>2023-01-24T13:27:25.384Z</time>
      </trkpt>
      <trkpt lat="48.74604" lon="2.44371">
        <ele>34</ele>
        <time>2023-01-24T13:27:29.401Z</time>
      </trkpt>
      <trkpt lat="48.74605" lon="2.44382">
        <ele>35</ele>
        <time>2023-01-24T13:27:33.923Z</time>
      </trkpt>
      <trkpt lat="48.74605" lon="2.44393">
        <ele>35</ele>
        <time>2023-01-24T13:27:38.444Z</time>
      </trkpt>
      <trkpt lat="48.74606" lon="2.44408">
        <ele>36</ele>
        <time>2023-01-24T13:27:42.962Z</time>
      </trkpt>
      <trkpt lat="48.74608" lon="2.44418">
        <ele>36</ele>
        <time>2023-01-24T13:27:46.980Z</time>
      </trkpt>
      <trkpt lat="48.74609" lon="2.44429">
        <ele>36</ele>
        <time>2023-01-24T13:27:51.499Z</time>
      </trkpt>
      <trkpt lat="48.74609" lon="2.44439">
        <ele>36</ele>
        <time>2023-01-24T13:27:55.516Z</time>
      </trkpt>
      <trkpt lat="48.7461" lon="2.4445">
        <ele>36</ele>
        <time>2023-01-24T13:28:00.047Z</time>
      </trkpt>
      <trkpt lat="48.74611" lon="2.44459">
        <ele>37</ele>
        <time>2023-01-24T13:28:03.646Z</time>
      </trkpt>
      <trkpt lat="48.74612" lon="2.4447">
        <ele>37</ele>
        <time>2023-01-24T13:28:08.262Z</time>
      </trkpt>
      <trkpt lat="48.74613" lon="2.44479">
        <ele>37</ele>
        <time>2023-01-24T13:28:12.276Z</time>
      </trkpt>
      <trkpt lat="48.74615" lon="2.44485">
        <ele>37</ele>
        <time>2023-01-24T13:28:16.792Z</time>
      </trkpt>
      <trkpt lat="48.74615" lon="2.44494">
        <ele>36</ele>
        <time>2023-01-24T13:28:20.806Z</time>
      </trkpt>
      <trkpt lat="48.74616" lon="2.445">
        <ele>36</ele>
        <time>2023-01-24T13:28:24.820Z</time>
      </trkpt>
      <trkpt lat="48.74616" lon="2.44505">
        <ele>36</ele>
        <time>2023-01-24T13:28:28.835Z</time>
      </trkpt>
      <trkpt lat="48.74617" lon="2.44514">
        <ele>36</ele>
        <time>2023-01-24T13:28:32.850Z</time>
      </trkpt>
      <trkpt lat="48.74618" lon="2.44522">
        <ele>36</ele>
        <time>2023-01-24T13:28:36.865Z</time>
      </trkpt>
      <trkpt lat="48.74619" lon="2.44532">
        <ele>36</ele>
        <time>2023-01-24T13:28:41.384Z</time>
      </trkpt>
      <trkpt lat="48.74621" lon="2.44541">
        <ele>36</ele>
        <time>2023-01-24T13:28:46.102Z</time>
      </trkpt>
      <trkpt lat="48.74622" lon="2.44551">
        <ele>35</ele>
        <time>2023-01-24T13:28:50.619Z</time>
      </trkpt>
      <trkpt lat="48.74622" lon="2.4456">
        <ele>35</ele>
        <time>2023-01-24T13:28:54.634Z</time>
      </trkpt>
      <trkpt lat="48.74623" lon="2.44569">
        <ele>35</ele>
        <time>2023-01-24T13:28:58.749Z</time>
      </trkpt>
      <trkpt lat="48.74623" lon="2.44578">
        <ele>34</ele>
        <time>2023-01-24T13:29:03.267Z</time>
      </trkpt>
      <trkpt lat="48.74624" lon="2.44588">
        <ele>34</ele>
        <time>2023-01-24T13:29:07.282Z</time>
      </trkpt>
      <trkpt lat="48.74625" lon="2.44596">
        <ele>35</ele>
        <time>2023-01-24T13:29:11.297Z</time>
      </trkpt>
      <trkpt lat="48.74627" lon="2.44605">
        <ele>35</ele>
        <time>2023-01-24T13:29:16.017Z</time>
      </trkpt>
      <trkpt lat="48.74627" lon="2.44618">
        <ele>35</ele>
        <time>2023-01-24T13:29:38.104Z</time>
      </trkpt>
      <trkpt lat="48.74627" lon="2.44621">
        <ele>35</ele>
        <time>2023-01-24T13:29:42.620Z</time>
      </trkpt>
      <trkpt lat="48.74627" lon="2.44623">
        <ele>35</ele>
        <time>2023-01-24T13:29:47.651Z</time>
      </trkpt>
      <trkpt lat="48.74626" lon="2.44623">
        <ele>35</ele>
        <time>2023-01-24T13:29:51.679Z</time>
      </trkpt>
      <trkpt lat="48.74624" lon="2.44626">
        <ele>35</ele>
        <time>2023-01-24T13:29:56.219Z</time>
      </trkpt>
      <trkpt lat="48.74623" lon="2.44627">
        <ele>35</ele>
        <time>2023-01-24T13:30:00.850Z</time>
      </trkpt>
      <trkpt lat="48.74622" lon="2.44632">
        <ele>35</ele>
        <time>2023-01-24T13:30:04.871Z</time>
      </trkpt>
      <trkpt lat="48.74623" lon="2.44638">
        <ele>35</ele>
        <time>2023-01-24T13:30:09.387Z</time>
      </trkpt>
      <trkpt lat="48.7462" lon="2.44643">
        <ele>35</ele>
        <time>2023-01-24T13:30:13.508Z</time>
      </trkpt>
      <trkpt lat="48.74616" lon="2.44646">
        <ele>35</ele>
        <time>2023-01-24T13:30:18.028Z</time>
      </trkpt>
      <trkpt lat="48.74612" lon="2.44646">
        <ele>35</ele>
        <time>2023-01-24T13:30:22.045Z</time>
      </trkpt>
      <trkpt lat="48.74605" lon="2.44642">
        <ele>35</ele>
        <time>2023-01-24T13:30:26.568Z</time>
      </trkpt>
      <trkpt lat="48.74602" lon="2.44641">
        <ele>35</ele>
        <time>2023-01-24T13:30:30.589Z</time>
      </trkpt>
      <trkpt lat="48.74597" lon="2.44641">
        <ele>33</ele>
        <time>2023-01-24T13:30:34.605Z</time>
      </trkpt>
      <trkpt lat="48.7459" lon="2.44641">
        <ele>33</ele>
        <time>2023-01-24T13:30:39.121Z</time>
      </trkpt>
      <trkpt lat="48.7459" lon="2.44643">
        <ele>33</ele>
        <time>2023-01-24T13:30:43.635Z</time>
      </trkpt>
      <trkpt lat="48.7459" lon="2.44644">
        <ele>33</ele>
        <time>2023-01-24T13:30:47.647Z</time>
      </trkpt>
      <trkpt lat="48.74588" lon="2.44643">
        <ele>33</ele>
        <time>2023-01-24T13:30:52.663Z</time>
      </trkpt>
      <trkpt lat="48.74586" lon="2.44645">
        <ele>33</ele>
        <time>2023-01-24T13:30:57.677Z</time>
      </trkpt>
      <trkpt lat="48.74586" lon="2.44649">
        <ele>33</ele>
        <time>2023-01-24T13:31:02.191Z</time>
      </trkpt>
      <trkpt lat="48.74585" lon="2.44651">
        <ele>33</ele>
        <time>2023-01-24T13:31:06.203Z</time>
      </trkpt>
      <trkpt lat="48.74584" lon="2.44656">
        <ele>34</ele>
        <time>2023-01-24T13:31:10.818Z</time>
      </trkpt>
      <trkpt lat="48.74586" lon="2.44661">
        <ele>34</ele>
        <time>2023-01-24T13:31:14.830Z</time>
      </trkpt>
      <trkpt lat="48.7459" lon="2.44661">
        <ele>34</ele>
        <time>2023-01-24T13:31:18.843Z</time>
      </trkpt>
      <trkpt lat="48.74595" lon="2.44667">
        <ele>34</ele>
        <time>2023-01-24T13:31:23.121Z</time>
      </trkpt>
      <trkpt lat="48.74599" lon="2.44673">
        <ele>35</ele>
        <time>2023-01-24T13:31:27.170Z</time>
      </trkpt>
      <trkpt lat="48.74601" lon="2.44679">
        <ele>35</ele>
        <time>2023-01-24T13:31:31.885Z</time>
      </trkpt>
      <trkpt lat="48.74604" lon="2.4469">
        <ele>35</ele>
        <time>2023-01-24T13:31:40.509Z</time>
      </trkpt>
      <trkpt lat="48.74605" lon="2.4469">
        <ele>35</ele>
        <time>2023-01-24T13:31:44.521Z</time>
      </trkpt>
      <trkpt lat="48.74607" lon="2.44689">
        <ele>35</ele>
        <time>2023-01-24T13:31:48.534Z</time>
      </trkpt>
      <trkpt lat="48.7461" lon="2.44687">
        <ele>35</ele>
        <time>2023-01-24T13:31:53.048Z</time>
      </trkpt>
      <trkpt lat="48.74615" lon="2.44686">
        <ele>35</ele>
        <time>2023-01-24T13:31:57.161Z</time>
      </trkpt>
      <trkpt lat="48.74619" lon="2.44689">
        <ele>35</ele>
        <time>2023-01-24T13:32:01.676Z</time>
      </trkpt>
      <trkpt lat="48.74622" lon="2.44696">
        <ele>35</ele>
        <time>2023-01-24T13:32:06.191Z</time>
      </trkpt>
      <trkpt lat="48.74625" lon="2.44701">
        <ele>34</ele>
        <time>2023-01-24T13:32:10.706Z</time>
      </trkpt>
      <trkpt lat="48.74627" lon="2.44701">
        <ele>34</ele>
        <time>2023-01-24T13:32:15.823Z</time>
      </trkpt>
      <trkpt lat="48.74628" lon="2.44703">
        <ele>34</ele>
        <time>2023-01-24T13:32:20.856Z</time>
      </trkpt>
      <trkpt lat="48.74629" lon="2.44704">
        <ele>34</ele>
        <time>2023-01-24T13:32:25.395Z</time>
      </trkpt>
      <trkpt lat="48.74635" lon="2.4471">
        <ele>33</ele>
        <time>2023-01-24T13:32:29.921Z</time>
      </trkpt>
      <trkpt lat="48.74642" lon="2.44722">
        <ele>33</ele>
        <time>2023-01-24T13:32:34.444Z</time>
      </trkpt>
      <trkpt lat="48.74646" lon="2.44731">
        <ele>33</ele>
        <time>2023-01-24T13:32:38.967Z</time>
      </trkpt>
      <trkpt lat="48.7465" lon="2.44737">
        <ele>33</ele>
        <time>2023-01-24T13:32:42.987Z</time>
      </trkpt>
      <trkpt lat="48.74653" lon="2.44744">
        <ele>31</ele>
        <time>2023-01-24T13:32:47.507Z</time>
      </trkpt>
      <trkpt lat="48.74656" lon="2.44751">
        <ele>31</ele>
        <time>2023-01-24T13:32:52.028Z</time>
      </trkpt>
      <trkpt lat="48.74659" lon="2.4476">
        <ele>31</ele>
        <time>2023-01-24T13:32:57.054Z</time>
      </trkpt>
      <trkpt lat="48.74661" lon="2.44767">
        <ele>32</ele>
        <time>2023-01-24T13:33:01.074Z</time>
      </trkpt>
      <trkpt lat="48.74665" lon="2.44776">
        <ele>32</ele>
        <time>2023-01-24T13:33:05.092Z</time>
      </trkpt>
      <trkpt lat="48.74668" lon="2.44785">
        <ele>32</ele>
        <time>2023-01-24T13:33:09.611Z</time>
      </trkpt>
      <trkpt lat="48.74673" lon="2.44791">
        <ele>32</ele>
        <time>2023-01-24T13:33:14.129Z</time>
      </trkpt>
      <trkpt lat="48.74677" lon="2.44799">
        <ele>32</ele>
        <time>2023-01-24T13:33:18.645Z</time>
      </trkpt>
      <trkpt lat="48.74681" lon="2.44805">
        <ele>31</ele>
        <time>2023-01-24T13:33:22.661Z</time>
      </trkpt>
      <trkpt lat="48.74684" lon="2.44813">
        <ele>31</ele>
        <time>2023-01-24T13:33:26.676Z</time>
      </trkpt>
      <trkpt lat="48.74687" lon="2.44822">
        <ele>32</ele>
        <time>2023-01-24T13:33:30.792Z</time>
      </trkpt>
      <trkpt lat="48.7469" lon="2.4483">
        <ele>32</ele>
        <time>2023-01-24T13:33:35.307Z</time>
      </trkpt>
      <trkpt lat="48.74693" lon="2.44836">
        <ele>32</ele>
        <time>2023-01-24T13:33:39.321Z</time>
      </trkpt>
      <trkpt lat="48.74696" lon="2.44843">
        <ele>32</ele>
        <time>2023-01-24T13:33:43.835Z</time>
      </trkpt>
      <trkpt lat="48.74699" lon="2.44853">
        <ele>34</ele>
        <time>2023-01-24T13:33:47.848Z</time>
      </trkpt>
      <trkpt lat="48.74702" lon="2.44862">
        <ele>34</ele>
        <time>2023-01-24T13:33:52.361Z</time>
      </trkpt>
      <trkpt lat="48.74705" lon="2.44869">
        <ele>34</ele>
        <time>2023-01-24T13:33:56.873Z</time>
      </trkpt>
      <trkpt lat="48.74707" lon="2.44874">
        <ele>34</ele>
        <time>2023-01-24T13:34:00.886Z</time>
      </trkpt>
      <trkpt lat="48.74708" lon="2.44881">
        <ele>34</ele>
        <time>2023-01-24T13:34:05.401Z</time>
      </trkpt>
      <trkpt lat="48.74709" lon="2.44888">
        <ele>35</ele>
        <time>2023-01-24T13:34:09.915Z</time>
      </trkpt>
      <trkpt lat="48.74709" lon="2.44894">
        <ele>35</ele>
        <time>2023-01-24T13:34:14.127Z</time>
      </trkpt>
      <trkpt lat="48.74709" lon="2.44901">
        <ele>35</ele>
        <time>2023-01-24T13:34:18.237Z</time>
      </trkpt>
      <trkpt lat="48.74714" lon="2.44906">
        <ele>35</ele>
        <time>2023-01-24T13:34:22.752Z</time>
      </trkpt>
      <trkpt lat="48.74719" lon="2.44906">
        <ele>35</ele>
        <time>2023-01-24T13:34:26.765Z</time>
      </trkpt>
      <trkpt lat="48.74725" lon="2.44905">
        <ele>35</ele>
        <time>2023-01-24T13:34:31.367Z</time>
      </trkpt>
      <trkpt lat="48.74729" lon="2.44912">
        <ele>35</ele>
        <time>2023-01-24T13:34:35.398Z</time>
      </trkpt>
      <trkpt lat="48.74733" lon="2.4492">
        <ele>35</ele>
        <time>2023-01-24T13:34:39.410Z</time>
      </trkpt>
      <trkpt lat="48.74736" lon="2.44928">
        <ele>35</ele>
        <time>2023-01-24T13:34:43.424Z</time>
      </trkpt>
      <trkpt lat="48.74739" lon="2.44934">
        <ele>34</ele>
        <time>2023-01-24T13:34:47.940Z</time>
      </trkpt>
      <trkpt lat="48.74742" lon="2.4494">
        <ele>34</ele>
        <time>2023-01-24T13:34:51.953Z</time>
      </trkpt>
      <trkpt lat="48.74748" lon="2.44948">
        <ele>34</ele>
        <time>2023-01-24T13:34:56.467Z</time>
      </trkpt>
      <trkpt lat="48.74751" lon="2.44955">
        <ele>34</ele>
        <time>2023-01-24T13:35:00.481Z</time>
      </trkpt>
      <trkpt lat="48.74754" lon="2.44962">
        <ele>34</ele>
        <time>2023-01-24T13:35:04.493Z</time>
      </trkpt>
      <trkpt lat="48.74757" lon="2.44968">
        <ele>34</ele>
        <time>2023-01-24T13:35:08.506Z</time>
      </trkpt>
      <trkpt lat="48.7476" lon="2.44975">
        <ele>34</ele>
        <time>2023-01-24T13:35:13.022Z</time>
      </trkpt>
      <trkpt lat="48.74759" lon="2.44979">
        <ele>34</ele>
        <time>2023-01-24T13:35:17.032Z</time>
      </trkpt>
      <trkpt lat="48.74762" lon="2.44984">
        <ele>34</ele>
        <time>2023-01-24T13:35:21.043Z</time>
      </trkpt>
      <trkpt lat="48.74766" lon="2.44992">
        <ele>33</ele>
        <time>2023-01-24T13:35:25.557Z</time>
      </trkpt>
      <trkpt lat="48.7477" lon="2.45004">
        <ele>33</ele>
        <time>2023-01-24T13:35:30.074Z</time>
      </trkpt>
      <trkpt lat="48.74773" lon="2.45014">
        <ele>33</ele>
        <time>2023-01-24T13:35:34.589Z</time>
      </trkpt>
      <trkpt lat="48.74776" lon="2.4502">
        <ele>33</ele>
        <time>2023-01-24T13:35:38.603Z</time>
      </trkpt>
      <trkpt lat="48.74779" lon="2.45024">
        <ele>33</ele>
        <time>2023-01-24T13:35:42.617Z</time>
      </trkpt>
      <trkpt lat="48.74781" lon="2.4503">
        <ele>33</ele>
        <time>2023-01-24T13:35:47.132Z</time>
      </trkpt>
      <trkpt lat="48.74784" lon="2.45037">
        <ele>33</ele>
        <time>2023-01-24T13:35:51.144Z</time>
      </trkpt>
      <trkpt lat="48.74787" lon="2.45046">
        <ele>33</ele>
        <time>2023-01-24T13:35:55.256Z</time>
      </trkpt>
      <trkpt lat="48.74789" lon="2.45052">
        <ele>33</ele>
        <time>2023-01-24T13:35:59.368Z</time>
      </trkpt>
      <trkpt lat="48.74792" lon="2.45059">
        <ele>33</ele>
        <time>2023-01-24T13:36:03.380Z</time>
      </trkpt>
      <trkpt lat="48.74795" lon="2.45067">
        <ele>32</ele>
        <time>2023-01-24T13:36:07.491Z</time>
      </trkpt>
      <trkpt lat="48.74799" lon="2.45075">
        <ele>32</ele>
        <time>2023-01-24T13:36:12.003Z</time>
      </trkpt>
      <trkpt lat="48.74803" lon="2.45085">
        <ele>32</ele>
        <time>2023-01-24T13:36:16.568Z</time>
      </trkpt>
      <trkpt lat="48.74806" lon="2.45093">
        <ele>32</ele>
        <time>2023-01-24T13:36:20.627Z</time>
      </trkpt>
      <trkpt lat="48.74809" lon="2.45099">
        <ele>32</ele>
        <time>2023-01-24T13:36:25.141Z</time>
      </trkpt>
      <trkpt lat="48.74811" lon="2.45103">
        <ele>32</ele>
        <time>2023-01-24T13:36:29.656Z</time>
      </trkpt>
      <trkpt lat="48.74815" lon="2.4511">
        <ele>32</ele>
        <time>2023-01-24T13:36:34.170Z</time>
      </trkpt>
      <trkpt lat="48.74818" lon="2.4512">
        <ele>32</ele>
        <time>2023-01-24T13:36:38.683Z</time>
      </trkpt>
      <trkpt lat="48.74822" lon="2.45128">
        <ele>32</ele>
        <time>2023-01-24T13:36:42.694Z</time>
      </trkpt>
      <trkpt lat="48.74825" lon="2.45135">
        <ele>32</ele>
        <time>2023-01-24T13:36:46.707Z</time>
      </trkpt>
      <trkpt lat="48.74826" lon="2.45142">
        <ele>32</ele>
        <time>2023-01-24T13:36:50.818Z</time>
      </trkpt>
      <trkpt lat="48.74831" lon="2.45151">
        <ele>32</ele>
        <time>2023-01-24T13:36:55.845Z</time>
      </trkpt>
      <trkpt lat="48.74835" lon="2.4516">
        <ele>32</ele>
        <time>2023-01-24T13:36:59.958Z</time>
      </trkpt>
      <trkpt lat="48.7484" lon="2.45167">
        <ele>32</ele>
        <time>2023-01-24T13:37:04.472Z</time>
      </trkpt>
      <trkpt lat="48.74844" lon="2.45176">
        <ele>32</ele>
        <time>2023-01-24T13:37:08.484Z</time>
      </trkpt>
      <trkpt lat="48.74848" lon="2.45185">
        <ele>32</ele>
        <time>2023-01-24T13:37:13.020Z</time>
      </trkpt>
      <trkpt lat="48.74852" lon="2.45192">
        <ele>32</ele>
        <time>2023-01-24T13:37:16.710Z</time>
      </trkpt>
      <trkpt lat="48.74854" lon="2.45199">
        <ele>32</ele>
        <time>2023-01-24T13:37:20.722Z</time>
      </trkpt>
      <trkpt lat="48.74858" lon="2.45207">
        <ele>32</ele>
        <time>2023-01-24T13:37:25.234Z</time>
      </trkpt>
      <trkpt lat="48.74862" lon="2.45214">
        <ele>32</ele>
        <time>2023-01-24T13:37:29.245Z</time>
      </trkpt>
      <trkpt lat="48.74867" lon="2.45222">
        <ele>32</ele>
        <time>2023-01-24T13:37:33.760Z</time>
      </trkpt>
      <trkpt lat="48.74869" lon="2.4523">
        <ele>32</ele>
        <time>2023-01-24T13:37:37.772Z</time>
      </trkpt>
      <trkpt lat="48.74873" lon="2.45237">
        <ele>32</ele>
        <time>2023-01-24T13:37:41.784Z</time>
      </trkpt>
      <trkpt lat="48.74877" lon="2.45248">
        <ele>33</ele>
        <time>2023-01-24T13:37:46.298Z</time>
      </trkpt>
      <trkpt lat="48.74882" lon="2.4526">
        <ele>33</ele>
        <time>2023-01-24T13:37:50.863Z</time>
      </trkpt>
      <trkpt lat="48.74885" lon="2.45269">
        <ele>33</ele>
        <time>2023-01-24T13:37:54.922Z</time>
      </trkpt>
      <trkpt lat="48.74889" lon="2.45277">
        <ele>33</ele>
        <time>2023-01-24T13:37:59.035Z</time>
      </trkpt>
      <trkpt lat="48.74894" lon="2.45288">
        <ele>33</ele>
        <time>2023-01-24T13:38:03.548Z</time>
      </trkpt>
      <trkpt lat="48.74898" lon="2.45297">
        <ele>33</ele>
        <time>2023-01-24T13:38:08.063Z</time>
      </trkpt>
      <trkpt lat="48.74895" lon="2.45303">
        <ele>33</ele>
        <time>2023-01-24T13:38:12.171Z</time>
      </trkpt>
      <trkpt lat="48.74887" lon="2.45313">
        <ele>33</ele>
        <time>2023-01-24T13:38:16.284Z</time>
      </trkpt>
      <trkpt lat="48.74889" lon="2.4532">
        <ele>33</ele>
        <time>2023-01-24T13:38:20.796Z</time>
      </trkpt>
      <trkpt lat="48.74893" lon="2.45325">
        <ele>33</ele>
        <time>2023-01-24T13:38:24.807Z</time>
      </trkpt>
      <trkpt lat="48.74897" lon="2.45332">
        <ele>33</ele>
        <time>2023-01-24T13:38:28.818Z</time>
      </trkpt>
      <trkpt lat="48.74899" lon="2.4534">
        <ele>33</ele>
        <time>2023-01-24T13:38:33.431Z</time>
      </trkpt>
      <trkpt lat="48.74896" lon="2.45347">
        <ele>33</ele>
        <time>2023-01-24T13:38:37.445Z</time>
      </trkpt>
      <trkpt lat="48.74891" lon="2.45354">
        <ele>34</ele>
        <time>2023-01-24T13:38:41.961Z</time>
      </trkpt>
      <trkpt lat="48.74891" lon="2.45363">
        <ele>34</ele>
        <time>2023-01-24T13:38:46.485Z</time>
      </trkpt>
      <trkpt lat="48.74896" lon="2.45384">
        <ele>34</ele>
        <time>2023-01-24T13:38:50.999Z</time>
      </trkpt>
      <trkpt lat="48.74894" lon="2.45394">
        <ele>34</ele>
        <time>2023-01-24T13:38:55.513Z</time>
      </trkpt>
      <trkpt lat="48.74893" lon="2.45401">
        <ele>34</ele>
        <time>2023-01-24T13:38:59.526Z</time>
      </trkpt>
      <trkpt lat="48.74891" lon="2.45411">
        <ele>35</ele>
        <time>2023-01-24T13:39:03.539Z</time>
      </trkpt>
      <trkpt lat="48.74888" lon="2.45418">
        <ele>35</ele>
        <time>2023-01-24T13:39:07.552Z</time>
      </trkpt>
      <trkpt lat="48.74885" lon="2.45425">
        <ele>35</ele>
        <time>2023-01-24T13:39:12.065Z</time>
      </trkpt>
      <trkpt lat="48.74883" lon="2.45434">
        <ele>36</ele>
        <time>2023-01-24T13:39:16.595Z</time>
      </trkpt>
      <trkpt lat="48.74882" lon="2.45442">
        <ele>36</ele>
        <time>2023-01-24T13:39:20.608Z</time>
      </trkpt>
      <trkpt lat="48.74882" lon="2.45452">
        <ele>36</ele>
        <time>2023-01-24T13:39:25.122Z</time>
      </trkpt>
      <trkpt lat="48.74883" lon="2.45461">
        <ele>36</ele>
        <time>2023-01-24T13:39:29.134Z</time>
      </trkpt>
      <trkpt lat="48.74884" lon="2.4547">
        <ele>36</ele>
        <time>2023-01-24T13:39:33.648Z</time>
      </trkpt>
      <trkpt lat="48.74885" lon="2.45478">
        <ele>36</ele>
        <time>2023-01-24T13:39:37.757Z</time>
      </trkpt>
      <trkpt lat="48.74887" lon="2.45484">
        <ele>36</ele>
        <time>2023-01-24T13:39:41.767Z</time>
      </trkpt>
      <trkpt lat="48.74888" lon="2.45488">
        <ele>37</ele>
        <time>2023-01-24T13:39:45.777Z</time>
      </trkpt>
      <trkpt lat="48.74888" lon="2.45488">
        <ele>37</ele>
        <time>2023-01-24T13:39:50.288Z</time>
      </trkpt>
      <trkpt lat="48.74889" lon="2.45493">
        <ele>37</ele>
        <time>2023-01-24T13:39:54.298Z</time>
      </trkpt>
      <trkpt lat="48.7489" lon="2.455">
        <ele>37</ele>
        <time>2023-01-24T13:39:58.810Z</time>
      </trkpt>
      <trkpt lat="48.74892" lon="2.4551">
        <ele>37</ele>
        <time>2023-01-24T13:40:03.321Z</time>
      </trkpt>
      <trkpt lat="48.74894" lon="2.45517">
        <ele>37</ele>
        <time>2023-01-24T13:40:07.387Z</time>
      </trkpt>
      <trkpt lat="48.74897" lon="2.45524">
        <ele>37</ele>
        <time>2023-01-24T13:40:11.441Z</time>
      </trkpt>
      <trkpt lat="48.74899" lon="2.45532">
        <ele>37</ele>
        <time>2023-01-24T13:40:15.452Z</time>
      </trkpt>
      <trkpt lat="48.74899" lon="2.4554">
        <ele>37</ele>
        <time>2023-01-24T13:40:20.062Z</time>
      </trkpt>
      <trkpt lat="48.74895" lon="2.45549">
        <ele>37</ele>
        <time>2023-01-24T13:40:24.571Z</time>
      </trkpt>
      <trkpt lat="48.74896" lon="2.45557">
        <ele>37</ele>
        <time>2023-01-24T13:40:28.581Z</time>
      </trkpt>
      <trkpt lat="48.74896" lon="2.45562">
        <ele>37</ele>
        <time>2023-01-24T13:40:32.692Z</time>
      </trkpt>
      <trkpt lat="48.749" lon="2.45569">
        <ele>37</ele>
        <time>2023-01-24T13:40:37.707Z</time>
      </trkpt>
      <trkpt lat="48.74899" lon="2.45573">
        <ele>36</ele>
        <time>2023-01-24T13:40:42.218Z</time>
      </trkpt>
      <trkpt lat="48.74895" lon="2.45579">
        <ele>36</ele>
        <time>2023-01-24T13:40:46.229Z</time>
      </trkpt>
      <trkpt lat="48.74891" lon="2.45587">
        <ele>36</ele>
        <time>2023-01-24T13:40:50.740Z</time>
      </trkpt>
      <trkpt lat="48.74887" lon="2.45596">
        <ele>36</ele>
        <time>2023-01-24T13:40:55.252Z</time>
      </trkpt>
      <trkpt lat="48.74884" lon="2.45604">
        <ele>36</ele>
        <time>2023-01-24T13:40:59.763Z</time>
      </trkpt>
      <trkpt lat="48.74881" lon="2.45612">
        <ele>36</ele>
        <time>2023-01-24T13:41:03.773Z</time>
      </trkpt>
      <trkpt lat="48.74879" lon="2.4562">
        <ele>36</ele>
        <time>2023-01-24T13:41:08.384Z</time>
      </trkpt>
      <trkpt lat="48.74875" lon="2.45628">
        <ele>35</ele>
        <time>2023-01-24T13:41:12.895Z</time>
      </trkpt>
      <trkpt lat="48.74871" lon="2.45637">
        <ele>35</ele>
        <time>2023-01-24T13:41:17.406Z</time>
      </trkpt>
      <trkpt lat="48.74868" lon="2.45644">
        <ele>35</ele>
        <time>2023-01-24T13:41:21.416Z</time>
      </trkpt>
      <trkpt lat="48.74865" lon="2.45651">
        <ele>35</ele>
        <time>2023-01-24T13:41:26.027Z</time>
      </trkpt>
      <trkpt lat="48.74863" lon="2.45658">
        <ele>35</ele>
        <time>2023-01-24T13:41:30.650Z</time>
      </trkpt>
      <trkpt lat="48.74862" lon="2.45664">
        <ele>35</ele>
        <time>2023-01-24T13:41:34.750Z</time>
      </trkpt>
      <trkpt lat="48.7486" lon="2.45672">
        <ele>35</ele>
        <time>2023-01-24T13:41:39.264Z</time>
      </trkpt>
      <trkpt lat="48.74862" lon="2.4568">
        <ele>35</ele>
        <time>2023-01-24T13:41:43.369Z</time>
      </trkpt>
      <trkpt lat="48.74867" lon="2.45683">
        <ele>35</ele>
        <time>2023-01-24T13:41:47.882Z</time>
      </trkpt>
      <trkpt lat="48.74866" lon="2.45693">
        <ele>35</ele>
        <time>2023-01-24T13:41:51.487Z</time>
      </trkpt>
      <trkpt lat="48.74866" lon="2.45703">
        <ele>35</ele>
        <time>2023-01-24T13:41:55.998Z</time>
      </trkpt>
      <trkpt lat="48.74872" lon="2.45708">
        <ele>35</ele>
        <time>2023-01-24T13:42:00.509Z</time>
      </trkpt>
      <trkpt lat="48.74879" lon="2.4571">
        <ele>35</ele>
        <time>2023-01-24T13:42:04.521Z</time>
      </trkpt>
      <trkpt lat="48.74885" lon="2.4571">
        <ele>35</ele>
        <time>2023-01-24T13:42:08.533Z</time>
      </trkpt>
      <trkpt lat="48.7489" lon="2.45709">
        <ele>35</ele>
        <time>2023-01-24T13:42:13.044Z</time>
      </trkpt>
      <trkpt lat="48.74895" lon="2.4571">
        <ele>35</ele>
        <time>2023-01-24T13:42:17.153Z</time>
      </trkpt>
      <trkpt lat="48.749" lon="2.45711">
        <ele>35</ele>
        <time>2023-01-24T13:42:21.764Z</time>
      </trkpt>
      <trkpt lat="48.74904" lon="2.4571">
        <ele>36</ele>
        <time>2023-01-24T13:42:25.773Z</time>
      </trkpt>
      <trkpt lat="48.74909" lon="2.45707">
        <ele>35</ele>
        <time>2023-01-24T13:42:29.784Z</time>
      </trkpt>
      <trkpt lat="48.74914" lon="2.45707">
        <ele>35</ele>
        <time>2023-01-24T13:42:33.794Z</time>
      </trkpt>
      <trkpt lat="48.74919" lon="2.45706">
        <ele>35</ele>
        <time>2023-01-24T13:42:38.306Z</time>
      </trkpt>
      <trkpt lat="48.74924" lon="2.45706">
        <ele>35</ele>
        <time>2023-01-24T13:42:42.414Z</time>
      </trkpt>
      <trkpt lat="48.74929" lon="2.45705">
        <ele>35</ele>
        <time>2023-01-24T13:42:47.025Z</time>
      </trkpt>
      <trkpt lat="48.74934" lon="2.45703">
        <ele>36</ele>
        <time>2023-01-24T13:42:51.537Z</time>
      </trkpt>
      <trkpt lat="48.74938" lon="2.45702">
        <ele>36</ele>
        <time>2023-01-24T13:42:55.548Z</time>
      </trkpt>
      <trkpt lat="48.74943" lon="2.45701">
        <ele>36</ele>
        <time>2023-01-24T13:43:00.260Z</time>
      </trkpt>
      <trkpt lat="48.74949" lon="2.457">
        <ele>36</ele>
        <time>2023-01-24T13:43:04.770Z</time>
      </trkpt>
      <trkpt lat="48.74954" lon="2.457">
        <ele>36</ele>
        <time>2023-01-24T13:43:08.778Z</time>
      </trkpt>
      <trkpt lat="48.7496" lon="2.45699">
        <ele>36</ele>
        <time>2023-01-24T13:43:13.290Z</time>
      </trkpt>
      <trkpt lat="48.74966" lon="2.45701">
        <ele>36</ele>
        <time>2023-01-24T13:43:17.299Z</time>
      </trkpt>
      <trkpt lat="48.7497" lon="2.45702">
        <ele>36</ele>
        <time>2023-01-24T13:43:21.809Z</time>
      </trkpt>
      <trkpt lat="48.74974" lon="2.45704">
        <ele>36</ele>
        <time>2023-01-24T13:43:25.818Z</time>
      </trkpt>
      <trkpt lat="48.74981" lon="2.45706">
        <ele>36</ele>
        <time>2023-01-24T13:43:30.327Z</time>
      </trkpt>
      <trkpt lat="48.74986" lon="2.4571">
        <ele>37</ele>
        <time>2023-01-24T13:43:34.336Z</time>
      </trkpt>
      <trkpt lat="48.74991" lon="2.45713">
        <ele>36</ele>
        <time>2023-01-24T13:43:38.346Z</time>
      </trkpt>
      <trkpt lat="48.74996" lon="2.45716">
        <ele>36</ele>
        <time>2023-01-24T13:43:42.956Z</time>
      </trkpt>
      <trkpt lat="48.75001" lon="2.45718">
        <ele>36</ele>
        <time>2023-01-24T13:43:46.965Z</time>
      </trkpt>
      <trkpt lat="48.75005" lon="2.45719">
        <ele>36</ele>
        <time>2023-01-24T13:43:51.576Z</time>
      </trkpt>
      <trkpt lat="48.75007" lon="2.4572">
        <ele>36</ele>
        <time>2023-01-24T13:43:56.203Z</time>
      </trkpt>
      <trkpt lat="48.75011" lon="2.45723">
        <ele>36</ele>
        <time>2023-01-24T13:44:00.297Z</time>
      </trkpt>
      <trkpt lat="48.75018" lon="2.45725">
        <ele>37</ele>
        <time>2023-01-24T13:44:04.908Z</time>
      </trkpt>
      <trkpt lat="48.75026" lon="2.45729">
        <ele>37</ele>
        <time>2023-01-24T13:44:09.520Z</time>
      </trkpt>
      <trkpt lat="48.75032" lon="2.45734">
        <ele>37</ele>
        <time>2023-01-24T13:44:13.529Z</time>
      </trkpt>
      <trkpt lat="48.75037" lon="2.45739">
        <ele>38</ele>
        <time>2023-01-24T13:44:17.539Z</time>
      </trkpt>
      <trkpt lat="48.75043" lon="2.45745">
        <ele>38</ele>
        <time>2023-01-24T13:44:21.547Z</time>
      </trkpt>
      <trkpt lat="48.75049" lon="2.45751">
        <ele>38</ele>
        <time>2023-01-24T13:44:26.156Z</time>
      </trkpt>
      <trkpt lat="48.75054" lon="2.45755">
        <ele>38</ele>
        <time>2023-01-24T13:44:30.730Z</time>
      </trkpt>
      <trkpt lat="48.75059" lon="2.45761">
        <ele>38</ele>
        <time>2023-01-24T13:44:34.773Z</time>
      </trkpt>
      <trkpt lat="48.75061" lon="2.45761">
        <ele>38</ele>
        <time>2023-01-24T13:44:38.781Z</time>
      </trkpt>
      <trkpt lat="48.75068" lon="2.45765">
        <ele>38</ele>
        <time>2023-01-24T13:45:19.867Z</time>
      </trkpt>
      <trkpt lat="48.75069" lon="2.45764">
        <ele>38</ele>
        <time>2023-01-24T13:45:24.876Z</time>
      </trkpt>
      <trkpt lat="48.75069" lon="2.45764">
        <ele>38</ele>
        <time>2023-01-24T13:45:28.883Z</time>
      </trkpt>
      <trkpt lat="48.75069" lon="2.45766">
        <ele>37</ele>
        <time>2023-01-24T13:45:32.890Z</time>
      </trkpt>
      <trkpt lat="48.75072" lon="2.4577">
        <ele>37</ele>
        <time>2023-01-24T13:45:37.400Z</time>
      </trkpt>
      <trkpt lat="48.75075" lon="2.45775">
        <ele>37</ele>
        <time>2023-01-24T13:45:41.909Z</time>
      </trkpt>
      <trkpt lat="48.75079" lon="2.45782">
        <ele>37</ele>
        <time>2023-01-24T13:45:46.918Z</time>
      </trkpt>
      <trkpt lat="48.75083" lon="2.45786">
        <ele>37</ele>
        <time>2023-01-24T13:45:51.426Z</time>
      </trkpt>
      <trkpt lat="48.75086" lon="2.45792">
        <ele>36</ele>
        <time>2023-01-24T13:45:55.434Z</time>
      </trkpt>
      <trkpt lat="48.75088" lon="2.45801">
        <ele>36</ele>
        <time>2023-01-24T13:45:59.944Z</time>
      </trkpt>
      <trkpt lat="48.75091" lon="2.45808">
        <ele>36</ele>
        <time>2023-01-24T13:46:04.452Z</time>
      </trkpt>
      <trkpt lat="48.75094" lon="2.45815">
        <ele>36</ele>
        <time>2023-01-24T13:46:08.560Z</time>
      </trkpt>
      <trkpt lat="48.75097" lon="2.4582">
        <ele>37</ele>
        <time>2023-01-24T13:46:12.667Z</time>
      </trkpt>
      <trkpt lat="48.751" lon="2.45826">
        <ele>37</ele>
        <time>2023-01-24T13:46:16.776Z</time>
      </trkpt>
      <trkpt lat="48.75102" lon="2.45831">
        <ele>37</ele>
        <time>2023-01-24T13:46:21.385Z</time>
      </trkpt>
      <trkpt lat="48.75105" lon="2.45836">
        <ele>37</ele>
        <time>2023-01-24T13:46:25.492Z</time>
      </trkpt>
      <trkpt lat="48.75106" lon="2.45842">
        <ele>37</ele>
        <time>2023-01-24T13:46:30.001Z</time>
      </trkpt>
      <trkpt lat="48.75109" lon="2.45848">
        <ele>37</ele>
        <time>2023-01-24T13:46:34.509Z</time>
      </trkpt>
      <trkpt lat="48.75112" lon="2.45852">
        <ele>37</ele>
        <time>2023-01-24T13:46:39.018Z</time>
      </trkpt>
      <trkpt lat="48.75116" lon="2.45858">
        <ele>37</ele>
        <time>2023-01-24T13:46:43.024Z</time>
      </trkpt>
      <trkpt lat="48.75119" lon="2.45865">
        <ele>37</ele>
        <time>2023-01-24T13:46:47.534Z</time>
      </trkpt>
      <trkpt lat="48.75122" lon="2.45871">
        <ele>37</ele>
        <time>2023-01-24T13:46:52.043Z</time>
      </trkpt>
      <trkpt lat="48.75122" lon="2.4587">
        <ele>37</ele>
        <time>2023-01-24T13:46:56.552Z</time>
      </trkpt>
      <trkpt lat="48.75123" lon="2.4588">
        <ele>37</ele>
        <time>2023-01-24T13:47:01.061Z</time>
      </trkpt>
      <trkpt lat="48.75126" lon="2.45892">
        <ele>36</ele>
        <time>2023-01-24T13:47:05.671Z</time>
      </trkpt>
      <trkpt lat="48.75125" lon="2.459">
        <ele>37</ele>
        <time>2023-01-24T13:47:10.281Z</time>
      </trkpt>
      <trkpt lat="48.75123" lon="2.45907">
        <ele>36</ele>
        <time>2023-01-24T13:47:14.390Z</time>
      </trkpt>
      <trkpt lat="48.75123" lon="2.45916">
        <ele>36</ele>
        <time>2023-01-24T13:47:19.006Z</time>
      </trkpt>
      <trkpt lat="48.75123" lon="2.45925">
        <ele>36</ele>
        <time>2023-01-24T13:47:23.209Z</time>
      </trkpt>
      <trkpt lat="48.75123" lon="2.45933">
        <ele>35</ele>
        <time>2023-01-24T13:47:27.817Z</time>
      </trkpt>
      <trkpt lat="48.75123" lon="2.4594">
        <ele>35</ele>
        <time>2023-01-24T13:47:31.825Z</time>
      </trkpt>
      <trkpt lat="48.75123" lon="2.45948">
        <ele>35</ele>
        <time>2023-01-24T13:47:36.350Z</time>
      </trkpt>
      <trkpt lat="48.75121" lon="2.45956">
        <ele>35</ele>
        <time>2023-01-24T13:47:40.485Z</time>
      </trkpt>
      <trkpt lat="48.75123" lon="2.45966">
        <ele>35</ele>
        <time>2023-01-24T13:47:44.550Z</time>
      </trkpt>
      <trkpt lat="48.75125" lon="2.45975">
        <ele>35</ele>
        <time>2023-01-24T13:47:49.057Z</time>
      </trkpt>
      <trkpt lat="48.75125" lon="2.45985">
        <ele>35</ele>
        <time>2023-01-24T13:47:53.564Z</time>
      </trkpt>
      <trkpt lat="48.75125" lon="2.45994">
        <ele>34</ele>
        <time>2023-01-24T13:47:57.570Z</time>
      </trkpt>
      <trkpt lat="48.75125" lon="2.46003">
        <ele>34</ele>
        <time>2023-01-24T13:48:01.577Z</time>
      </trkpt>
      <trkpt lat="48.75124" lon="2.4601">
        <ele>35</ele>
        <time>2023-01-24T13:48:05.682Z</time>
      </trkpt>
      <trkpt lat="48.75125" lon="2.4602">
        <ele>35</ele>
        <time>2023-01-24T13:48:10.188Z</time>
      </trkpt>
      <trkpt lat="48.75124" lon="2.46028">
        <ele>35</ele>
        <time>2023-01-24T13:48:14.695Z</time>
      </trkpt>
      <trkpt lat="48.75124" lon="2.46038">
        <ele>35</ele>
        <time>2023-01-24T13:48:19.201Z</time>
      </trkpt>
      <trkpt lat="48.75123" lon="2.46048">
        <ele>33</ele>
        <time>2023-01-24T13:48:23.306Z</time>
      </trkpt>
      <trkpt lat="48.75123" lon="2.46056">
        <ele>33</ele>
        <time>2023-01-24T13:48:27.812Z</time>
      </trkpt>
      <trkpt lat="48.75129" lon="2.46062">
        <ele>34</ele>
        <time>2023-01-24T13:48:32.318Z</time>
      </trkpt>
      <trkpt lat="48.75133" lon="2.46071">
        <ele>34</ele>
        <time>2023-01-24T13:48:36.324Z</time>
      </trkpt>
      <trkpt lat="48.75137" lon="2.46081">
        <ele>34</ele>
        <time>2023-01-24T13:48:40.830Z</time>
      </trkpt>
      <trkpt lat="48.75141" lon="2.46087">
        <ele>34</ele>
        <time>2023-01-24T13:48:44.836Z</time>
      </trkpt>
      <trkpt lat="48.75146" lon="2.46093">
        <ele>34</ele>
        <time>2023-01-24T13:48:48.842Z</time>
      </trkpt>
      <trkpt lat="48.75148" lon="2.46104">
        <ele>33</ele>
        <time>2023-01-24T13:48:53.348Z</time>
      </trkpt>
      <trkpt lat="48.7515" lon="2.46112">
        <ele>33</ele>
        <time>2023-01-24T13:48:57.353Z</time>
      </trkpt>
      <trkpt lat="48.75152" lon="2.46121">
        <ele>33</ele>
        <time>2023-01-24T13:49:01.359Z</time>
      </trkpt>
      <trkpt lat="48.75155" lon="2.4613">
        <ele>34</ele>
        <time>2023-01-24T13:49:05.396Z</time>
      </trkpt>
      <trkpt lat="48.75158" lon="2.46139">
        <ele>34</ele>
        <time>2023-01-24T13:49:09.502Z</time>
      </trkpt>
      <trkpt lat="48.75162" lon="2.46147">
        <ele>34</ele>
        <time>2023-01-24T13:49:14.210Z</time>
      </trkpt>
      <trkpt lat="48.75165" lon="2.46156">
        <ele>34</ele>
        <time>2023-01-24T13:49:18.717Z</time>
      </trkpt>
      <trkpt lat="48.75168" lon="2.4616">
        <ele>34</ele>
        <time>2023-01-24T13:49:22.723Z</time>
      </trkpt>
      <trkpt lat="48.75169" lon="2.4616">
        <ele>34</ele>
        <time>2023-01-24T13:49:27.229Z</time>
      </trkpt>
      <trkpt lat="48.7517" lon="2.46161">
        <ele>34</ele>
        <time>2023-01-24T13:49:31.734Z</time>
      </trkpt>
      <trkpt lat="48.75172" lon="2.46161">
        <ele>34</ele>
        <time>2023-01-24T13:49:36.238Z</time>
      </trkpt>
      <trkpt lat="48.75177" lon="2.46163">
        <ele>34</ele>
        <time>2023-01-24T13:49:40.781Z</time>
      </trkpt>
      <trkpt lat="48.75178" lon="2.46163">
        <ele>34</ele>
        <time>2023-01-24T13:49:45.786Z</time>
      </trkpt>
      <trkpt lat="48.7518" lon="2.46163">
        <ele>34</ele>
        <time>2023-01-24T13:49:49.791Z</time>
      </trkpt>
      <trkpt lat="48.7518" lon="2.46165">
        <ele>34</ele>
        <time>2023-01-24T13:49:54.797Z</time>
      </trkpt>
      <trkpt lat="48.75183" lon="2.46165">
        <ele>35</ele>
        <time>2023-01-24T13:49:59.304Z</time>
      </trkpt>
      <trkpt lat="48.7519" lon="2.46167">
        <ele>35</ele>
        <time>2023-01-24T13:50:03.310Z</time>
      </trkpt>
      <trkpt lat="48.75196" lon="2.4617">
        <ele>35</ele>
        <time>2023-01-24T13:50:07.817Z</time>
      </trkpt>
      <trkpt lat="48.75201" lon="2.46175">
        <ele>35</ele>
        <time>2023-01-24T13:50:12.325Z</time>
      </trkpt>
      <trkpt lat="48.75204" lon="2.46178">
        <ele>35</ele>
        <time>2023-01-24T13:50:16.332Z</time>
      </trkpt>
      <trkpt lat="48.7521" lon="2.4618">
        <ele>35</ele>
        <time>2023-01-24T13:50:20.939Z</time>
      </trkpt>
      <trkpt lat="48.75214" lon="2.4618">
        <ele>35</ele>
        <time>2023-01-24T13:50:24.947Z</time>
      </trkpt>
      <trkpt lat="48.75219" lon="2.46179">
        <ele>35</ele>
        <time>2023-01-24T13:50:29.954Z</time>
      </trkpt>
      <trkpt lat="48.75225" lon="2.46174">
        <ele>35</ele>
        <time>2023-01-24T13:50:33.960Z</time>
      </trkpt>
      <trkpt lat="48.7523" lon="2.4617">
        <ele>35</ele>
        <time>2023-01-24T13:50:38.466Z</time>
      </trkpt>
      <trkpt lat="48.75234" lon="2.46167">
        <ele>35</ele>
        <time>2023-01-24T13:50:42.476Z</time>
      </trkpt>
      <trkpt lat="48.75238" lon="2.46169">
        <ele>34</ele>
        <time>2023-01-24T13:50:46.585Z</time>
      </trkpt>
      <trkpt lat="48.75243" lon="2.46168">
        <ele>34</ele>
        <time>2023-01-24T13:50:51.092Z</time>
      </trkpt>
      <trkpt lat="48.75249" lon="2.46165">
        <ele>34</ele>
        <time>2023-01-24T13:50:55.644Z</time>
      </trkpt>
      <trkpt lat="48.75254" lon="2.46165">
        <ele>34</ele>
        <time>2023-01-24T13:50:59.705Z</time>
      </trkpt>
      <trkpt lat="48.7526" lon="2.46164">
        <ele>34</ele>
        <time>2023-01-24T13:51:04.212Z</time>
      </trkpt>
      <trkpt lat="48.75266" lon="2.46162">
        <ele>35</ele>
        <time>2023-01-24T13:51:08.785Z</time>
      </trkpt>
      <trkpt lat="48.75271" lon="2.46158">
        <ele>35</ele>
        <time>2023-01-24T13:51:12.824Z</time>
      </trkpt>
      <trkpt lat="48.75275" lon="2.46158">
        <ele>35</ele>
        <time>2023-01-24T13:51:16.832Z</time>
      </trkpt>
      <trkpt lat="48.7528" lon="2.46157">
        <ele>35</ele>
        <time>2023-01-24T13:51:21.339Z</time>
      </trkpt>
      <trkpt lat="48.75284" lon="2.46155">
        <ele>35</ele>
        <time>2023-01-24T13:51:25.344Z</time>
      </trkpt>
      <trkpt lat="48.75288" lon="2.46153">
        <ele>35</ele>
        <time>2023-01-24T13:51:29.450Z</time>
      </trkpt>
      <trkpt lat="48.75292" lon="2.4615">
        <ele>35</ele>
        <time>2023-01-24T13:51:33.956Z</time>
      </trkpt>
      <trkpt lat="48.75295" lon="2.46149">
        <ele>36</ele>
        <time>2023-01-24T13:51:38.062Z</time>
      </trkpt>
      <trkpt lat="48.753" lon="2.46147">
        <ele>36</ele>
        <time>2023-01-24T13:51:42.568Z</time>
      </trkpt>
      <trkpt lat="48.75303" lon="2.46146">
        <ele>36</ele>
        <time>2023-01-24T13:51:47.075Z</time>
      </trkpt>
      <trkpt lat="48.75304" lon="2.46146">
        <ele>36</ele>
        <time>2023-01-24T13:51:51.080Z</time>
      </trkpt>
      <trkpt lat="48.75306" lon="2.46145">
        <ele>36</ele>
        <time>2023-01-24T13:51:55.086Z</time>
      </trkpt>
      <trkpt lat="48.75308" lon="2.46145">
        <ele>36</ele>
        <time>2023-01-24T13:51:59.090Z</time>
      </trkpt>
      <trkpt lat="48.75314" lon="2.46144">
        <ele>36</ele>
        <time>2023-01-24T13:52:03.598Z</time>
      </trkpt>
      <trkpt lat="48.75319" lon="2.46143">
        <ele>37</ele>
        <time>2023-01-24T13:52:07.604Z</time>
      </trkpt>
      <trkpt lat="48.75326" lon="2.46143">
        <ele>37</ele>
        <time>2023-01-24T13:52:12.109Z</time>
      </trkpt>
      <trkpt lat="48.75332" lon="2.46144">
        <ele>37</ele>
        <time>2023-01-24T13:52:16.113Z</time>
      </trkpt>
      <trkpt lat="48.7534" lon="2.46149">
        <ele>37</ele>
        <time>2023-01-24T13:52:20.117Z</time>
      </trkpt>
      <trkpt lat="48.75347" lon="2.46156">
        <ele>37</ele>
        <time>2023-01-24T13:52:24.621Z</time>
      </trkpt>
      <trkpt lat="48.7535" lon="2.46165">
        <ele>37</ele>
        <time>2023-01-24T13:52:28.745Z</time>
      </trkpt>
      <trkpt lat="48.75352" lon="2.46174">
        <ele>37</ele>
        <time>2023-01-24T13:52:33.250Z</time>
      </trkpt>
      <trkpt lat="48.75353" lon="2.46183">
        <ele>37</ele>
        <time>2023-01-24T13:52:37.766Z</time>
      </trkpt>
      <trkpt lat="48.75356" lon="2.46191">
        <ele>37</ele>
        <time>2023-01-24T13:52:41.859Z</time>
      </trkpt>
      <trkpt lat="48.75362" lon="2.46197">
        <ele>37</ele>
        <time>2023-01-24T13:52:46.363Z</time>
      </trkpt>
      <trkpt lat="48.75366" lon="2.46205">
        <ele>37</ele>
        <time>2023-01-24T13:52:50.368Z</time>
      </trkpt>
      <trkpt lat="48.75368" lon="2.46212">
        <ele>36</ele>
        <time>2023-01-24T13:52:54.373Z</time>
      </trkpt>
      <trkpt lat="48.75372" lon="2.46221">
        <ele>36</ele>
        <time>2023-01-24T13:52:58.878Z</time>
      </trkpt>
      <trkpt lat="48.75375" lon="2.46229">
        <ele>35</ele>
        <time>2023-01-24T13:53:03.387Z</time>
      </trkpt>
      <trkpt lat="48.75378" lon="2.46235">
        <ele>35</ele>
        <time>2023-01-24T13:53:07.393Z</time>
      </trkpt>
      <trkpt lat="48.75381" lon="2.46243">
        <ele>34</ele>
        <time>2023-01-24T13:53:11.912Z</time>
      </trkpt>
      <trkpt lat="48.75385" lon="2.46254">
        <ele>34</ele>
        <time>2023-01-24T13:53:16.519Z</time>
      </trkpt>
      <trkpt lat="48.75387" lon="2.46261">
        <ele>34</ele>
        <time>2023-01-24T13:53:20.524Z</time>
      </trkpt>
      <trkpt lat="48.75388" lon="2.4627">
        <ele>33</ele>
        <time>2023-01-24T13:53:25.230Z</time>
      </trkpt>
      <trkpt lat="48.75391" lon="2.46278">
        <ele>33</ele>
        <time>2023-01-24T13:53:29.737Z</time>
      </trkpt>
      <trkpt lat="48.75389" lon="2.46283">
        <ele>33</ele>
        <time>2023-01-24T13:53:34.242Z</time>
      </trkpt>
      <trkpt lat="48.75389" lon="2.46291">
        <ele>33</ele>
        <time>2023-01-24T13:53:38.362Z</time>
      </trkpt>
      <trkpt lat="48.75392" lon="2.46302">
        <ele>31</ele>
        <time>2023-01-24T13:53:42.521Z</time>
      </trkpt>
      <trkpt lat="48.75395" lon="2.46314">
        <ele>31</ele>
        <time>2023-01-24T13:53:46.621Z</time>
      </trkpt>
      <trkpt lat="48.75396" lon="2.46324">
        <ele>29</ele>
        <time>2023-01-24T13:53:50.698Z</time>
      </trkpt>
      <trkpt lat="48.75399" lon="2.46333">
        <ele>29</ele>
        <time>2023-01-24T13:53:54.715Z</time>
      </trkpt>
      <trkpt lat="48.754" lon="2.4634">
        <ele>29</ele>
        <time>2023-01-24T13:53:58.732Z</time>
      </trkpt>
      <trkpt lat="48.754" lon="2.46349">
        <ele>29</ele>
        <time>2023-01-24T13:54:03.854Z</time>
      </trkpt>
      <trkpt lat="48.75402" lon="2.46358">
        <ele>29</ele>
        <time>2023-01-24T13:54:08.889Z</time>
      </trkpt>
      <trkpt lat="48.75401" lon="2.46362">
        <ele>29</ele>
        <time>2023-01-24T13:54:13.427Z</time>
      </trkpt>
      <trkpt lat="48.75398" lon="2.46368">
        <ele>29</ele>
        <time>2023-01-24T13:54:17.447Z</time>
      </trkpt>
      <trkpt lat="48.75395" lon="2.46382">
        <ele>29</ele>
        <time>2023-01-24T13:54:21.469Z</time>
      </trkpt>
      <trkpt lat="48.75394" lon="2.46391">
        <ele>29</ele>
        <time>2023-01-24T13:54:25.995Z</time>
      </trkpt>
      <trkpt lat="48.75397" lon="2.46395">
        <ele>29</ele>
        <time>2023-01-24T13:54:30.015Z</time>
      </trkpt>
      <trkpt lat="48.75393" lon="2.46409">
        <ele>32</ele>
        <time>2023-01-24T13:54:34.533Z</time>
      </trkpt>
      <trkpt lat="48.75389" lon="2.46417">
        <ele>32</ele>
        <time>2023-01-24T13:54:38.547Z</time>
      </trkpt>
      <trkpt lat="48.75385" lon="2.46424">
        <ele>32</ele>
        <time>2023-01-24T13:54:42.561Z</time>
      </trkpt>
      <trkpt lat="48.75382" lon="2.46433">
        <ele>35</ele>
        <time>2023-01-24T13:54:47.076Z</time>
      </trkpt>
      <trkpt lat="48.7538" lon="2.4644">
        <ele>35</ele>
        <time>2023-01-24T13:54:52.095Z</time>
      </trkpt>
      <trkpt lat="48.75378" lon="2.46445">
        <ele>35</ele>
        <time>2023-01-24T13:54:56.108Z</time>
      </trkpt>
      <trkpt lat="48.75376" lon="2.46451">
        <ele>35</ele>
        <time>2023-01-24T13:55:00.119Z</time>
      </trkpt>
      <trkpt lat="48.75373" lon="2.4646">
        <ele>40</ele>
        <time>2023-01-24T13:55:04.131Z</time>
      </trkpt>
      <trkpt lat="48.75371" lon="2.4647">
        <ele>40</ele>
        <time>2023-01-24T13:55:08.641Z</time>
      </trkpt>
      <trkpt lat="48.75369" lon="2.46478">
        <ele>40</ele>
        <time>2023-01-24T13:55:12.649Z</time>
      </trkpt>
      <trkpt lat="48.75367" lon="2.46487">
        <ele>41</ele>
        <time>2023-01-24T13:55:17.260Z</time>
      </trkpt>
      <trkpt lat="48.75364" lon="2.46496">
        <ele>41</ele>
        <time>2023-01-24T13:55:21.768Z</time>
      </trkpt>
      <trkpt lat="48.75362" lon="2.46505">
        <ele>41</ele>
        <time>2023-01-24T13:55:26.281Z</time>
      </trkpt>
      <trkpt lat="48.7536" lon="2.46513">
        <ele>41</ele>
        <time>2023-01-24T13:55:30.487Z</time>
      </trkpt>
      <trkpt lat="48.75358" lon="2.46522">
        <ele>39</ele>
        <time>2023-01-24T13:55:34.996Z</time>
      </trkpt>
      <trkpt lat="48.75358" lon="2.46531">
        <ele>39</ele>
        <time>2023-01-24T13:55:39.004Z</time>
      </trkpt>
      <trkpt lat="48.75362" lon="2.4654">
        <ele>39</ele>
        <time>2023-01-24T13:55:43.513Z</time>
      </trkpt>
      <trkpt lat="48.75365" lon="2.46545">
        <ele>36</ele>
        <time>2023-01-24T13:55:47.518Z</time>
      </trkpt>
      <trkpt lat="48.75371" lon="2.46548">
        <ele>36</ele>
        <time>2023-01-24T13:55:52.225Z</time>
      </trkpt>
      <trkpt lat="48.75377" lon="2.46549">
        <ele>34</ele>
        <time>2023-01-24T13:55:56.905Z</time>
      </trkpt>
      <trkpt lat="48.75382" lon="2.46551">
        <ele>34</ele>
        <time>2023-01-24T13:56:01.123Z</time>
      </trkpt>
      <trkpt lat="48.75385" lon="2.46553">
        <ele>34</ele>
        <time>2023-01-24T13:56:05.146Z</time>
      </trkpt>
      <trkpt lat="48.75389" lon="2.46559">
        <ele>34</ele>
        <time>2023-01-24T13:56:09.153Z</time>
      </trkpt>
      <trkpt lat="48.75391" lon="2.46568">
        <ele>34</ele>
        <time>2023-01-24T13:56:13.260Z</time>
      </trkpt>
      <trkpt lat="48.75393" lon="2.46577">
        <ele>34</ele>
        <time>2023-01-24T13:56:17.767Z</time>
      </trkpt>
      <trkpt lat="48.75396" lon="2.46585">
        <ele>34</ele>
        <time>2023-01-24T13:56:21.771Z</time>
      </trkpt>
      <trkpt lat="48.75397" lon="2.4659">
        <ele>34</ele>
        <time>2023-01-24T13:56:25.775Z</time>
      </trkpt>
      <trkpt lat="48.75392" lon="2.46596">
        <ele>34</ele>
        <time>2023-01-24T13:56:30.886Z</time>
      </trkpt>
      <trkpt lat="48.75388" lon="2.46597">
        <ele>34</ele>
        <time>2023-01-24T13:56:34.988Z</time>
      </trkpt>
      <trkpt lat="48.75387" lon="2.46598">
        <ele>35</ele>
        <time>2023-01-24T13:56:38.995Z</time>
      </trkpt>
      <trkpt lat="48.75385" lon="2.466">
        <ele>35</ele>
        <time>2023-01-24T13:56:43.545Z</time>
      </trkpt>
      <trkpt lat="48.75383" lon="2.46605">
        <ele>35</ele>
        <time>2023-01-24T13:56:47.609Z</time>
      </trkpt>
      <trkpt lat="48.75382" lon="2.46611">
        <ele>35</ele>
        <time>2023-01-24T13:56:51.614Z</time>
      </trkpt>
      <trkpt lat="48.7538" lon="2.46616">
        <ele>35</ele>
        <time>2023-01-24T13:56:55.620Z</time>
      </trkpt>
      <trkpt lat="48.75379" lon="2.46622">
        <ele>35</ele>
        <time>2023-01-24T13:57:00.225Z</time>
      </trkpt>
      <trkpt lat="48.75378" lon="2.46627">
        <ele>36</ele>
        <time>2023-01-24T13:57:04.231Z</time>
      </trkpt>
      <trkpt lat="48.75377" lon="2.46631">
        <ele>36</ele>
        <time>2023-01-24T13:57:08.236Z</time>
      </trkpt>
      <trkpt lat="48.75375" lon="2.46635">
        <ele>36</ele>
        <time>2023-01-24T13:57:12.840Z</time>
      </trkpt>
      <trkpt lat="48.75374" lon="2.46639">
        <ele>36</ele>
        <time>2023-01-24T13:57:16.844Z</time>
      </trkpt>
      <trkpt lat="48.75372" lon="2.46646">
        <ele>36</ele>
        <time>2023-01-24T13:57:21.347Z</time>
      </trkpt>
      <trkpt lat="48.75368" lon="2.46653">
        <ele>37</ele>
        <time>2023-01-24T13:57:25.352Z</time>
      </trkpt>
      <trkpt lat="48.75365" lon="2.46663">
        <ele>37</ele>
        <time>2023-01-24T13:57:29.858Z</time>
      </trkpt>
      <trkpt lat="48.75362" lon="2.4667">
        <ele>37</ele>
        <time>2023-01-24T13:57:33.863Z</time>
      </trkpt>
      <trkpt lat="48.75358" lon="2.46679">
        <ele>37</ele>
        <time>2023-01-24T13:57:38.368Z</time>
      </trkpt>
      <trkpt lat="48.75354" lon="2.46687">
        <ele>37</ele>
        <time>2023-01-24T13:57:42.872Z</time>
      </trkpt>
      <trkpt lat="48.7535" lon="2.46693">
        <ele>37</ele>
        <time>2023-01-24T13:57:47.378Z</time>
      </trkpt>
      <trkpt lat="48.75345" lon="2.46699">
        <ele>37</ele>
        <time>2023-01-24T13:57:51.383Z</time>
      </trkpt>
      <trkpt lat="48.75341" lon="2.46705">
        <ele>37</ele>
        <time>2023-01-24T13:57:55.887Z</time>
      </trkpt>
      <trkpt lat="48.75336" lon="2.4671">
        <ele>37</ele>
        <time>2023-01-24T13:57:59.891Z</time>
      </trkpt>
      <trkpt lat="48.75332" lon="2.46715">
        <ele>37</ele>
        <time>2023-01-24T13:58:03.895Z</time>
      </trkpt>
      <trkpt lat="48.75326" lon="2.46721">
        <ele>37</ele>
        <time>2023-01-24T13:58:08.500Z</time>
      </trkpt>
      <trkpt lat="48.75321" lon="2.46725">
        <ele>37</ele>
        <time>2023-01-24T13:58:12.503Z</time>
      </trkpt>
      <trkpt lat="48.75315" lon="2.46728">
        <ele>38</ele>
        <time>2023-01-24T13:58:16.507Z</time>
      </trkpt>
      <trkpt lat="48.7531" lon="2.46731">
        <ele>38</ele>
        <time>2023-01-24T13:58:21.014Z</time>
      </trkpt>
      <trkpt lat="48.75305" lon="2.46734">
        <ele>38</ele>
        <time>2023-01-24T13:58:25.521Z</time>
      </trkpt>
      <trkpt lat="48.75299" lon="2.46738">
        <ele>38</ele>
        <time>2023-01-24T13:58:30.029Z</time>
      </trkpt>
      <trkpt lat="48.75294" lon="2.46742">
        <ele>38</ele>
        <time>2023-01-24T13:58:34.033Z</time>
      </trkpt>
      <trkpt lat="48.75287" lon="2.46746">
        <ele>38</ele>
        <time>2023-01-24T13:58:38.537Z</time>
      </trkpt>
      <trkpt lat="48.75282" lon="2.46747">
        <ele>38</ele>
        <time>2023-01-24T13:58:42.541Z</time>
      </trkpt>
      <trkpt lat="48.75278" lon="2.46749">
        <ele>38</ele>
        <time>2023-01-24T13:58:46.645Z</time>
      </trkpt>
      <trkpt lat="48.75273" lon="2.4675">
        <ele>38</ele>
        <time>2023-01-24T13:58:51.366Z</time>
      </trkpt>
      <trkpt lat="48.75267" lon="2.46751">
        <ele>38</ele>
        <time>2023-01-24T13:58:55.508Z</time>
      </trkpt>
      <trkpt lat="48.75263" lon="2.46751">
        <ele>38</ele>
        <time>2023-01-24T13:58:59.561Z</time>
      </trkpt>
      <trkpt lat="48.75257" lon="2.46751">
        <ele>38</ele>
        <time>2023-01-24T13:59:03.569Z</time>
      </trkpt>
      <trkpt lat="48.75252" lon="2.46751">
        <ele>38</ele>
        <time>2023-01-24T13:59:07.576Z</time>
      </trkpt>
      <trkpt lat="48.75248" lon="2.46753">
        <ele>38</ele>
        <time>2023-01-24T13:59:12.083Z</time>
      </trkpt>
      <trkpt lat="48.75242" lon="2.46754">
        <ele>38</ele>
        <time>2023-01-24T13:59:16.182Z</time>
      </trkpt>
      <trkpt lat="48.75237" lon="2.46754">
        <ele>38</ele>
        <time>2023-01-24T13:59:20.196Z</time>
      </trkpt>
      <trkpt lat="48.75231" lon="2.46753">
        <ele>38</ele>
        <time>2023-01-24T13:59:24.202Z</time>
      </trkpt>
      <trkpt lat="48.75225" lon="2.46753">
        <ele>38</ele>
        <time>2023-01-24T13:59:28.309Z</time>
      </trkpt>
      <trkpt lat="48.75219" lon="2.46753">
        <ele>38</ele>
        <time>2023-01-24T13:59:32.415Z</time>
      </trkpt>
      <trkpt lat="48.75213" lon="2.46751">
        <ele>38</ele>
        <time>2023-01-24T13:59:37.024Z</time>
      </trkpt>
      <trkpt lat="48.75206" lon="2.46751">
        <ele>38</ele>
        <time>2023-01-24T13:59:41.128Z</time>
      </trkpt>
      <trkpt lat="48.752" lon="2.46751">
        <ele>38</ele>
        <time>2023-01-24T13:59:45.634Z</time>
      </trkpt>
      <trkpt lat="48.75195" lon="2.46751">
        <ele>38</ele>
        <time>2023-01-24T13:59:49.641Z</time>
      </trkpt>
      <trkpt lat="48.7519" lon="2.4675">
        <ele>38</ele>
        <time>2023-01-24T13:59:54.147Z</time>
      </trkpt>
      <trkpt lat="48.75184" lon="2.4675">
        <ele>38</ele>
        <time>2023-01-24T13:59:58.152Z</time>
      </trkpt>
      <trkpt lat="48.75178" lon="2.46748">
        <ele>37</ele>
        <time>2023-01-24T14:00:02.669Z</time>
      </trkpt>
      <trkpt lat="48.75173" lon="2.46746">
        <ele>37</ele>
        <time>2023-01-24T14:00:06.863Z</time>
      </trkpt>
      <trkpt lat="48.75168" lon="2.46744">
        <ele>37</ele>
        <time>2023-01-24T14:00:10.868Z</time>
      </trkpt>
      <trkpt lat="48.75163" lon="2.46744">
        <ele>37</ele>
        <time>2023-01-24T14:00:15.475Z</time>
      </trkpt>
      <trkpt lat="48.75158" lon="2.46743">
        <ele>37</ele>
        <time>2023-01-24T14:00:19.481Z</time>
      </trkpt>
      <trkpt lat="48.75154" lon="2.46743">
        <ele>37</ele>
        <time>2023-01-24T14:00:24.088Z</time>
      </trkpt>
      <trkpt lat="48.7515" lon="2.46746">
        <ele>37</ele>
        <time>2023-01-24T14:00:28.095Z</time>
      </trkpt>
      <trkpt lat="48.75149" lon="2.46746">
        <ele>37</ele>
        <time>2023-01-24T14:00:32.602Z</time>
      </trkpt>
      <trkpt lat="48.75148" lon="2.46748">
        <ele>37</ele>
        <time>2023-01-24T14:00:36.607Z</time>
      </trkpt>
      <trkpt lat="48.75147" lon="2.46755">
        <ele>37</ele>
        <time>2023-01-24T14:00:41.112Z</time>
      </trkpt>
      <trkpt lat="48.75149" lon="2.46764">
        <ele>37</ele>
        <time>2023-01-24T14:00:45.617Z</time>
      </trkpt>
      <trkpt lat="48.75148" lon="2.46771">
        <ele>37</ele>
        <time>2023-01-24T14:00:49.723Z</time>
      </trkpt>
      <trkpt lat="48.75148" lon="2.46781">
        <ele>37</ele>
        <time>2023-01-24T14:00:54.230Z</time>
      </trkpt>
      <trkpt lat="48.75148" lon="2.46789">
        <ele>37</ele>
        <time>2023-01-24T14:00:58.235Z</time>
      </trkpt>
      <trkpt lat="48.75148" lon="2.46796">
        <ele>38</ele>
        <time>2023-01-24T14:01:02.742Z</time>
      </trkpt>
      <trkpt lat="48.75149" lon="2.46804">
        <ele>38</ele>
        <time>2023-01-24T14:01:06.749Z</time>
      </trkpt>
      <trkpt lat="48.7515" lon="2.46813">
        <ele>38</ele>
        <time>2023-01-24T14:01:10.756Z</time>
      </trkpt>
      <trkpt lat="48.75152" lon="2.46822">
        <ele>37</ele>
        <time>2023-01-24T14:01:15.461Z</time>
      </trkpt>
      <trkpt lat="48.75153" lon="2.4683">
        <ele>39</ele>
        <time>2023-01-24T14:01:19.468Z</time>
      </trkpt>
      <trkpt lat="48.75155" lon="2.46838">
        <ele>39</ele>
        <time>2023-01-24T14:01:23.474Z</time>
      </trkpt>
      <trkpt lat="48.75156" lon="2.46847">
        <ele>39</ele>
        <time>2023-01-24T14:01:28.094Z</time>
      </trkpt>
      <trkpt lat="48.75158" lon="2.46855">
        <ele>39</ele>
        <time>2023-01-24T14:01:32.286Z</time>
      </trkpt>
      <trkpt lat="48.7516" lon="2.46864">
        <ele>39</ele>
        <time>2023-01-24T14:01:36.992Z</time>
      </trkpt>
      <trkpt lat="48.75162" lon="2.46873">
        <ele>39</ele>
        <time>2023-01-24T14:01:41.641Z</time>
      </trkpt>
      <trkpt lat="48.75164" lon="2.46881">
        <ele>38</ele>
        <time>2023-01-24T14:01:45.704Z</time>
      </trkpt>
      <trkpt lat="48.75166" lon="2.46888">
        <ele>38</ele>
        <time>2023-01-24T14:01:49.711Z</time>
      </trkpt>
      <trkpt lat="48.75169" lon="2.46895">
        <ele>38</ele>
        <time>2023-01-24T14:01:53.719Z</time>
      </trkpt>
      <trkpt lat="48.7517" lon="2.46902">
        <ele>38</ele>
        <time>2023-01-24T14:01:57.828Z</time>
      </trkpt>
      <trkpt lat="48.75172" lon="2.46912">
        <ele>38</ele>
        <time>2023-01-24T14:02:02.469Z</time>
      </trkpt>
      <trkpt lat="48.75174" lon="2.46919">
        <ele>38</ele>
        <time>2023-01-24T14:02:06.648Z</time>
      </trkpt>
      <trkpt lat="48.75176" lon="2.46926">
        <ele>38</ele>
        <time>2023-01-24T14:02:10.754Z</time>
      </trkpt>
      <trkpt lat="48.75178" lon="2.46932">
        <ele>38</ele>
        <time>2023-01-24T14:02:14.763Z</time>
      </trkpt>
      <trkpt lat="48.7518" lon="2.4694">
        <ele>38</ele>
        <time>2023-01-24T14:02:19.343Z</time>
      </trkpt>
      <trkpt lat="48.75182" lon="2.46947">
        <ele>40</ele>
        <time>2023-01-24T14:02:23.482Z</time>
      </trkpt>
      <trkpt lat="48.75184" lon="2.46954">
        <ele>40</ele>
        <time>2023-01-24T14:02:27.188Z</time>
      </trkpt>
      <trkpt lat="48.75187" lon="2.46962">
        <ele>41</ele>
        <time>2023-01-24T14:02:31.795Z</time>
      </trkpt>
      <trkpt lat="48.75189" lon="2.4697">
        <ele>41</ele>
        <time>2023-01-24T14:02:35.802Z</time>
      </trkpt>
      <trkpt lat="48.75192" lon="2.46978">
        <ele>41</ele>
        <time>2023-01-24T14:02:39.810Z</time>
      </trkpt>
      <trkpt lat="48.75194" lon="2.46985">
        <ele>41</ele>
        <time>2023-01-24T14:02:44.318Z</time>
      </trkpt>
      <trkpt lat="48.75196" lon="2.46993">
        <ele>41</ele>
        <time>2023-01-24T14:02:48.825Z</time>
      </trkpt>
      <trkpt lat="48.75198" lon="2.47001">
        <ele>41</ele>
        <time>2023-01-24T14:02:52.831Z</time>
      </trkpt>
      <trkpt lat="48.75201" lon="2.4701">
        <ele>41</ele>
        <time>2023-01-24T14:02:57.840Z</time>
      </trkpt>
      <trkpt lat="48.75203" lon="2.47019">
        <ele>40</ele>
        <time>2023-01-24T14:03:01.846Z</time>
      </trkpt>
      <trkpt lat="48.75205" lon="2.47026">
        <ele>40</ele>
        <time>2023-01-24T14:03:05.853Z</time>
      </trkpt>
      <trkpt lat="48.75207" lon="2.47034">
        <ele>40</ele>
        <time>2023-01-24T14:03:10.360Z</time>
      </trkpt>
      <trkpt lat="48.75209" lon="2.47041">
        <ele>40</ele>
        <time>2023-01-24T14:03:14.367Z</time>
      </trkpt>
      <trkpt lat="48.75211" lon="2.47049">
        <ele>39</ele>
        <time>2023-01-24T14:03:18.373Z</time>
      </trkpt>
      <trkpt lat="48.75214" lon="2.47057">
        <ele>39</ele>
        <time>2023-01-24T14:03:23.063Z</time>
      </trkpt>
      <trkpt lat="48.75215" lon="2.47064">
        <ele>39</ele>
        <time>2023-01-24T14:03:26.786Z</time>
      </trkpt>
      <trkpt lat="48.75217" lon="2.47072">
        <ele>40</ele>
        <time>2023-01-24T14:03:31.463Z</time>
      </trkpt>
      <trkpt lat="48.75219" lon="2.4708">
        <ele>40</ele>
        <time>2023-01-24T14:03:35.198Z</time>
      </trkpt>
      <trkpt lat="48.75221" lon="2.47088">
        <ele>40</ele>
        <time>2023-01-24T14:03:39.705Z</time>
      </trkpt>
      <trkpt lat="48.75224" lon="2.47096">
        <ele>40</ele>
        <time>2023-01-24T14:03:43.711Z</time>
      </trkpt>
      <trkpt lat="48.75226" lon="2.47104">
        <ele>41</ele>
        <time>2023-01-24T14:03:47.717Z</time>
      </trkpt>
      <trkpt lat="48.75228" lon="2.47112">
        <ele>41</ele>
        <time>2023-01-24T14:03:52.224Z</time>
      </trkpt>
      <trkpt lat="48.75229" lon="2.47116">
        <ele>41</ele>
        <time>2023-01-24T14:03:56.229Z</time>
      </trkpt>
      <trkpt lat="48.75231" lon="2.47125">
        <ele>41</ele>
        <time>2023-01-24T14:04:00.234Z</time>
      </trkpt>
      <trkpt lat="48.75234" lon="2.47133">
        <ele>41</ele>
        <time>2023-01-24T14:04:04.841Z</time>
      </trkpt>
      <trkpt lat="48.75237" lon="2.47142">
        <ele>41</ele>
        <time>2023-01-24T14:04:08.846Z</time>
      </trkpt>
      <trkpt lat="48.75238" lon="2.47149">
        <ele>41</ele>
        <time>2023-01-24T14:04:12.853Z</time>
      </trkpt>
      <trkpt lat="48.7524" lon="2.47158">
        <ele>41</ele>
        <time>2023-01-24T14:04:17.358Z</time>
      </trkpt>
      <trkpt lat="48.75242" lon="2.47166">
        <ele>41</ele>
        <time>2023-01-24T14:04:21.865Z</time>
      </trkpt>
      <trkpt lat="48.75244" lon="2.47175">
        <ele>41</ele>
        <time>2023-01-24T14:04:25.870Z</time>
      </trkpt>
      <trkpt lat="48.75246" lon="2.47183">
        <ele>39</ele>
        <time>2023-01-24T14:04:29.874Z</time>
      </trkpt>
      <trkpt lat="48.75247" lon="2.47192">
        <ele>39</ele>
        <time>2023-01-24T14:04:34.379Z</time>
      </trkpt>
      <trkpt lat="48.75247" lon="2.47199">
        <ele>39</ele>
        <time>2023-01-24T14:04:38.883Z</time>
      </trkpt>
      <trkpt lat="48.75236" lon="2.47202">
        <ele>40</ele>
        <time>2023-01-24T14:06:04.155Z</time>
      </trkpt>
      <trkpt lat="48.75235" lon="2.47202">
        <ele>40</ele>
        <time>2023-01-24T14:06:09.149Z</time>
      </trkpt>
      <trkpt lat="48.75234" lon="2.47201">
        <ele>40</ele>
        <time>2023-01-24T14:06:13.630Z</time>
      </trkpt>
      <trkpt lat="48.75232" lon="2.47198">
        <ele>40</ele>
        <time>2023-01-24T14:06:18.211Z</time>
      </trkpt>
      <trkpt lat="48.75223" lon="2.47211">
        <ele>39</ele>
        <time>2023-01-24T14:06:22.790Z</time>
      </trkpt>
      <trkpt lat="48.75218" lon="2.47213">
        <ele>39</ele>
        <time>2023-01-24T14:06:26.820Z</time>
      </trkpt>
      <trkpt lat="48.75215" lon="2.47215">
        <ele>39</ele>
        <time>2023-01-24T14:06:30.824Z</time>
      </trkpt>
      <trkpt lat="48.7521" lon="2.47216">
        <ele>39</ele>
        <time>2023-01-24T14:06:35.543Z</time>
      </trkpt>
      <trkpt lat="48.75205" lon="2.47218">
        <ele>41</ele>
        <time>2023-01-24T14:06:39.633Z</time>
      </trkpt>
      <trkpt lat="48.752" lon="2.47222">
        <ele>41</ele>
        <time>2023-01-24T14:06:44.138Z</time>
      </trkpt>
      <trkpt lat="48.75195" lon="2.47228">
        <ele>41</ele>
        <time>2023-01-24T14:06:48.641Z</time>
      </trkpt>
      <trkpt lat="48.7519" lon="2.47231">
        <ele>41</ele>
        <time>2023-01-24T14:06:53.144Z</time>
      </trkpt>
      <trkpt lat="48.75184" lon="2.47235">
        <ele>41</ele>
        <time>2023-01-24T14:06:57.647Z</time>
      </trkpt>
      <trkpt lat="48.75179" lon="2.47238">
        <ele>41</ele>
        <time>2023-01-24T14:07:01.650Z</time>
      </trkpt>
      <trkpt lat="48.75174" lon="2.47241">
        <ele>41</ele>
        <time>2023-01-24T14:07:05.792Z</time>
      </trkpt>
      <trkpt lat="48.75169" lon="2.47244">
        <ele>41</ele>
        <time>2023-01-24T14:07:10.297Z</time>
      </trkpt>
      <trkpt lat="48.75164" lon="2.47248">
        <ele>41</ele>
        <time>2023-01-24T14:07:14.904Z</time>
      </trkpt>
      <trkpt lat="48.75159" lon="2.47251">
        <ele>41</ele>
        <time>2023-01-24T14:07:19.003Z</time>
      </trkpt>
      <trkpt lat="48.75154" lon="2.47254">
        <ele>41</ele>
        <time>2023-01-24T14:07:23.664Z</time>
      </trkpt>
      <trkpt lat="48.75149" lon="2.47253">
        <ele>41</ele>
        <time>2023-01-24T14:07:28.306Z</time>
      </trkpt>
      <trkpt lat="48.75143" lon="2.47255">
        <ele>41</ele>
        <time>2023-01-24T14:07:32.310Z</time>
      </trkpt>
      <trkpt lat="48.75138" lon="2.47258">
        <ele>41</ele>
        <time>2023-01-24T14:07:36.913Z</time>
      </trkpt>
      <trkpt lat="48.75134" lon="2.47261">
        <ele>41</ele>
        <time>2023-01-24T14:07:41.016Z</time>
      </trkpt>
      <trkpt lat="48.75129" lon="2.47261">
        <ele>41</ele>
        <time>2023-01-24T14:07:45.019Z</time>
      </trkpt>
      <trkpt lat="48.75124" lon="2.4726">
        <ele>41</ele>
        <time>2023-01-24T14:07:49.523Z</time>
      </trkpt>
      <trkpt lat="48.75118" lon="2.47257">
        <ele>41</ele>
        <time>2023-01-24T14:07:53.525Z</time>
      </trkpt>
      <trkpt lat="48.75113" lon="2.47258">
        <ele>41</ele>
        <time>2023-01-24T14:07:57.606Z</time>
      </trkpt>
      <trkpt lat="48.75108" lon="2.47263">
        <ele>41</ele>
        <time>2023-01-24T14:08:01.728Z</time>
      </trkpt>
      <trkpt lat="48.75103" lon="2.47265">
        <ele>40</ele>
        <time>2023-01-24T14:08:06.447Z</time>
      </trkpt>
      <trkpt lat="48.75098" lon="2.47268">
        <ele>40</ele>
        <time>2023-01-24T14:08:10.665Z</time>
      </trkpt>
      <trkpt lat="48.75092" lon="2.47269">
        <ele>40</ele>
        <time>2023-01-24T14:08:14.713Z</time>
      </trkpt>
      <trkpt lat="48.75087" lon="2.47271">
        <ele>40</ele>
        <time>2023-01-24T14:08:18.715Z</time>
      </trkpt>
      <trkpt lat="48.75081" lon="2.47275">
        <ele>40</ele>
        <time>2023-01-24T14:08:22.818Z</time>
      </trkpt>
      <trkpt lat="48.75075" lon="2.4728">
        <ele>40</ele>
        <time>2023-01-24T14:08:27.539Z</time>
      </trkpt>
      <trkpt lat="48.7507" lon="2.47283">
        <ele>40</ele>
        <time>2023-01-24T14:08:31.562Z</time>
      </trkpt>
      <trkpt lat="48.75066" lon="2.47286">
        <ele>39</ele>
        <time>2023-01-24T14:08:35.564Z</time>
      </trkpt>
      <trkpt lat="48.75061" lon="2.47285">
        <ele>39</ele>
        <time>2023-01-24T14:08:40.068Z</time>
      </trkpt>
      <trkpt lat="48.75055" lon="2.47284">
        <ele>39</ele>
        <time>2023-01-24T14:08:44.169Z</time>
      </trkpt>
      <trkpt lat="48.7505" lon="2.47285">
        <ele>39</ele>
        <time>2023-01-24T14:08:48.171Z</time>
      </trkpt>
      <trkpt lat="48.75044" lon="2.47285">
        <ele>39</ele>
        <time>2023-01-24T14:08:52.676Z</time>
      </trkpt>
      <trkpt lat="48.75038" lon="2.47287">
        <ele>40</ele>
        <time>2023-01-24T14:08:56.691Z</time>
      </trkpt>
      <trkpt lat="48.75033" lon="2.47292">
        <ele>40</ele>
        <time>2023-01-24T14:09:00.694Z</time>
      </trkpt>
      <trkpt lat="48.75027" lon="2.47295">
        <ele>38</ele>
        <time>2023-01-24T14:09:04.696Z</time>
      </trkpt>
      <trkpt lat="48.75021" lon="2.47297">
        <ele>38</ele>
        <time>2023-01-24T14:09:09.200Z</time>
      </trkpt>
      <trkpt lat="48.75016" lon="2.47299">
        <ele>38</ele>
        <time>2023-01-24T14:09:13.361Z</time>
      </trkpt>
      <trkpt lat="48.75011" lon="2.47299">
        <ele>38</ele>
        <time>2023-01-24T14:09:17.382Z</time>
      </trkpt>
      <trkpt lat="48.75005" lon="2.473">
        <ele>38</ele>
        <time>2023-01-24T14:09:21.385Z</time>
      </trkpt>
      <trkpt lat="48.74999" lon="2.47301">
        <ele>38</ele>
        <time>2023-01-24T14:09:26.008Z</time>
      </trkpt>
      <trkpt lat="48.74994" lon="2.47301">
        <ele>38</ele>
        <time>2023-01-24T14:09:30.011Z</time>
      </trkpt>
      <trkpt lat="48.74988" lon="2.47302">
        <ele>38</ele>
        <time>2023-01-24T14:09:34.516Z</time>
      </trkpt>
      <trkpt lat="48.74982" lon="2.47303">
        <ele>38</ele>
        <time>2023-01-24T14:09:39.119Z</time>
      </trkpt>
      <trkpt lat="48.74975" lon="2.47305">
        <ele>38</ele>
        <time>2023-01-24T14:09:43.623Z</time>
      </trkpt>
      <trkpt lat="48.7497" lon="2.47306">
        <ele>38</ele>
        <time>2023-01-24T14:09:47.627Z</time>
      </trkpt>
      <trkpt lat="48.74965" lon="2.47304">
        <ele>38</ele>
        <time>2023-01-24T14:09:52.136Z</time>
      </trkpt>
      <trkpt lat="48.7496" lon="2.47304">
        <ele>38</ele>
        <time>2023-01-24T14:09:55.752Z</time>
      </trkpt>
      <trkpt lat="48.74954" lon="2.47305">
        <ele>39</ele>
        <time>2023-01-24T14:10:00.254Z</time>
      </trkpt>
      <trkpt lat="48.74949" lon="2.47306">
        <ele>39</ele>
        <time>2023-01-24T14:10:04.256Z</time>
      </trkpt>
      <trkpt lat="48.74944" lon="2.47307">
        <ele>39</ele>
        <time>2023-01-24T14:10:08.258Z</time>
      </trkpt>
      <trkpt lat="48.74938" lon="2.47307">
        <ele>39</ele>
        <time>2023-01-24T14:10:12.281Z</time>
      </trkpt>
      <trkpt lat="48.74932" lon="2.47306">
        <ele>39</ele>
        <time>2023-01-24T14:10:16.864Z</time>
      </trkpt>
      <trkpt lat="48.74925" lon="2.47307">
        <ele>41</ele>
        <time>2023-01-24T14:10:21.111Z</time>
      </trkpt>
      <trkpt lat="48.74921" lon="2.47301">
        <ele>41</ele>
        <time>2023-01-24T14:10:24.766Z</time>
      </trkpt>
      <trkpt lat="48.74917" lon="2.47292">
        <ele>41</ele>
        <time>2023-01-24T14:10:29.269Z</time>
      </trkpt>
      <trkpt lat="48.74916" lon="2.47283">
        <ele>41</ele>
        <time>2023-01-24T14:10:33.272Z</time>
      </trkpt>
      <trkpt lat="48.74913" lon="2.47277">
        <ele>41</ele>
        <time>2023-01-24T14:10:37.276Z</time>
      </trkpt>
      <trkpt lat="48.74911" lon="2.4727">
        <ele>41</ele>
        <time>2023-01-24T14:10:41.278Z</time>
      </trkpt>
      <trkpt lat="48.74907" lon="2.47265">
        <ele>41</ele>
        <time>2023-01-24T14:10:45.886Z</time>
      </trkpt>
      <trkpt lat="48.74902" lon="2.47263">
        <ele>42</ele>
        <time>2023-01-24T14:10:49.984Z</time>
      </trkpt>
      <trkpt lat="48.74897" lon="2.47262">
        <ele>42</ele>
        <time>2023-01-24T14:10:53.999Z</time>
      </trkpt>
      <trkpt lat="48.74893" lon="2.47259">
        <ele>42</ele>
        <time>2023-01-24T14:10:58.706Z</time>
      </trkpt>
      <trkpt lat="48.74891" lon="2.47255">
        <ele>42</ele>
        <time>2023-01-24T14:11:02.304Z</time>
      </trkpt>
      <trkpt lat="48.74888" lon="2.47251">
        <ele>42</ele>
        <time>2023-01-24T14:11:06.808Z</time>
      </trkpt>
      <trkpt lat="48.74887" lon="2.47244">
        <ele>42</ele>
        <time>2023-01-24T14:11:10.812Z</time>
      </trkpt>
      <trkpt lat="48.74886" lon="2.47236">
        <ele>42</ele>
        <time>2023-01-24T14:11:14.816Z</time>
      </trkpt>
      <trkpt lat="48.74885" lon="2.4723">
        <ele>43</ele>
        <time>2023-01-24T14:11:18.819Z</time>
      </trkpt>
      <trkpt lat="48.74882" lon="2.47225">
        <ele>43</ele>
        <time>2023-01-24T14:11:23.441Z</time>
      </trkpt>
      <trkpt lat="48.74876" lon="2.47226">
        <ele>43</ele>
        <time>2023-01-24T14:11:27.523Z</time>
      </trkpt>
      <trkpt lat="48.74871" lon="2.47228">
        <ele>45</ele>
        <time>2023-01-24T14:11:31.724Z</time>
      </trkpt>
      <trkpt lat="48.74868" lon="2.47232">
        <ele>45</ele>
        <time>2023-01-24T14:11:36.249Z</time>
      </trkpt>
      <trkpt lat="48.74865" lon="2.47233">
        <ele>45</ele>
        <time>2023-01-24T14:11:40.463Z</time>
      </trkpt>
      <trkpt lat="48.74861" lon="2.47233">
        <ele>45</ele>
        <time>2023-01-24T14:11:44.189Z</time>
      </trkpt>
      <trkpt lat="48.74857" lon="2.47234">
        <ele>45</ele>
        <time>2023-01-24T14:11:48.908Z</time>
      </trkpt>
      <trkpt lat="48.74854" lon="2.47239">
        <ele>43</ele>
        <time>2023-01-24T14:11:52.998Z</time>
      </trkpt>
      <trkpt lat="48.74851" lon="2.47246">
        <ele>43</ele>
        <time>2023-01-24T14:11:57.165Z</time>
      </trkpt>
      <trkpt lat="48.74849" lon="2.47252">
        <ele>43</ele>
        <time>2023-01-24T14:12:01.207Z</time>
      </trkpt>
      <trkpt lat="48.74849" lon="2.47259">
        <ele>43</ele>
        <time>2023-01-24T14:12:05.210Z</time>
      </trkpt>
      <trkpt lat="48.74846" lon="2.47268">
        <ele>44</ele>
        <time>2023-01-24T14:12:09.713Z</time>
      </trkpt>
      <trkpt lat="48.74841" lon="2.47274">
        <ele>44</ele>
        <time>2023-01-24T14:12:14.217Z</time>
      </trkpt>
      <trkpt lat="48.74836" lon="2.47278">
        <ele>44</ele>
        <time>2023-01-24T14:12:18.258Z</time>
      </trkpt>
      <trkpt lat="48.7483" lon="2.47283">
        <ele>44</ele>
        <time>2023-01-24T14:12:23.060Z</time>
      </trkpt>
      <trkpt lat="48.74825" lon="2.47288">
        <ele>44</ele>
        <time>2023-01-24T14:12:27.161Z</time>
      </trkpt>
      <trkpt lat="48.74822" lon="2.47291">
        <ele>44</ele>
        <time>2023-01-24T14:12:31.183Z</time>
      </trkpt>
      <trkpt lat="48.74818" lon="2.47292">
        <ele>47</ele>
        <time>2023-01-24T14:12:35.685Z</time>
      </trkpt>
      <trkpt lat="48.74814" lon="2.47296">
        <ele>47</ele>
        <time>2023-01-24T14:12:40.289Z</time>
      </trkpt>
      <trkpt lat="48.74809" lon="2.473">
        <ele>47</ele>
        <time>2023-01-24T14:12:44.310Z</time>
      </trkpt>
      <trkpt lat="48.74804" lon="2.47304">
        <ele>47</ele>
        <time>2023-01-24T14:12:48.969Z</time>
      </trkpt>
      <trkpt lat="48.74799" lon="2.47308">
        <ele>47</ele>
        <time>2023-01-24T14:12:53.017Z</time>
      </trkpt>
      <trkpt lat="48.74794" lon="2.47311">
        <ele>47</ele>
        <time>2023-01-24T14:12:57.522Z</time>
      </trkpt>
      <trkpt lat="48.74788" lon="2.47313">
        <ele>50</ele>
        <time>2023-01-24T14:13:01.723Z</time>
      </trkpt>
      <trkpt lat="48.74783" lon="2.47311">
        <ele>50</ele>
        <time>2023-01-24T14:13:05.724Z</time>
      </trkpt>
      <trkpt lat="48.74779" lon="2.4731">
        <ele>50</ele>
        <time>2023-01-24T14:13:09.727Z</time>
      </trkpt>
      <trkpt lat="48.74775" lon="2.47312">
        <ele>50</ele>
        <time>2023-01-24T14:13:14.471Z</time>
      </trkpt>
      <trkpt lat="48.74773" lon="2.47315">
        <ele>50</ele>
        <time>2023-01-24T14:13:18.473Z</time>
      </trkpt>
      <trkpt lat="48.74769" lon="2.4732">
        <ele>49</ele>
        <time>2023-01-24T14:13:22.976Z</time>
      </trkpt>
      <trkpt lat="48.74765" lon="2.47326">
        <ele>49</ele>
        <time>2023-01-24T14:13:27.604Z</time>
      </trkpt>
      <trkpt lat="48.74762" lon="2.47332">
        <ele>51</ele>
        <time>2023-01-24T14:13:31.739Z</time>
      </trkpt>
      <trkpt lat="48.74759" lon="2.47336">
        <ele>51</ele>
        <time>2023-01-24T14:13:35.742Z</time>
      </trkpt>
      <trkpt lat="48.74757" lon="2.47338">
        <ele>51</ele>
        <time>2023-01-24T14:13:39.745Z</time>
      </trkpt>
      <trkpt lat="48.74755" lon="2.47339">
        <ele>51</ele>
        <time>2023-01-24T14:13:44.747Z</time>
      </trkpt>
      <trkpt lat="48.74755" lon="2.47341">
        <ele>51</ele>
        <time>2023-01-24T14:13:48.750Z</time>
      </trkpt>
      <trkpt lat="48.74751" lon="2.47352">
        <ele>51</ele>
        <time>2023-01-24T14:14:36.109Z</time>
      </trkpt>
      <trkpt lat="48.74751" lon="2.47352">
        <ele>51</ele>
        <time>2023-01-24T14:14:40.103Z</time>
      </trkpt>
      <trkpt lat="48.7475" lon="2.47352">
        <ele>51</ele>
        <time>2023-01-24T14:14:44.103Z</time>
      </trkpt>
      <trkpt lat="48.74749" lon="2.47353">
        <ele>51</ele>
        <time>2023-01-24T14:14:49.141Z</time>
      </trkpt>
      <trkpt lat="48.74747" lon="2.47354">
        <ele>51</ele>
        <time>2023-01-24T14:14:53.383Z</time>
      </trkpt>
      <trkpt lat="48.74745" lon="2.47357">
        <ele>51</ele>
        <time>2023-01-24T14:14:57.892Z</time>
      </trkpt>
      <trkpt lat="48.74738" lon="2.47354">
        <ele>51</ele>
        <time>2023-01-24T14:15:01.901Z</time>
      </trkpt>
      <trkpt lat="48.74735" lon="2.47353">
        <ele>52</ele>
        <time>2023-01-24T14:15:05.908Z</time>
      </trkpt>
      <trkpt lat="48.74729" lon="2.47349">
        <ele>52</ele>
        <time>2023-01-24T14:15:10.916Z</time>
      </trkpt>
      <trkpt lat="48.74724" lon="2.47351">
        <ele>52</ele>
        <time>2023-01-24T14:15:14.922Z</time>
      </trkpt>
      <trkpt lat="48.74719" lon="2.47347">
        <ele>51</ele>
        <time>2023-01-24T14:15:19.427Z</time>
      </trkpt>
      <trkpt lat="48.74714" lon="2.47348">
        <ele>52</ele>
        <time>2023-01-24T14:15:23.934Z</time>
      </trkpt>
      <trkpt lat="48.74711" lon="2.47348">
        <ele>52</ele>
        <time>2023-01-24T14:15:28.940Z</time>
      </trkpt>
      <trkpt lat="48.74709" lon="2.47357">
        <ele>52</ele>
        <time>2023-01-24T14:15:42.953Z</time>
      </trkpt>
      <trkpt lat="48.74709" lon="2.47358">
        <ele>52</ele>
        <time>2023-01-24T14:15:48.110Z</time>
      </trkpt>
      <trkpt lat="48.74708" lon="2.47358">
        <ele>53</ele>
        <time>2023-01-24T14:15:53.122Z</time>
      </trkpt>
      <trkpt lat="48.74708" lon="2.47359">
        <ele>53</ele>
        <time>2023-01-24T14:15:58.119Z</time>
      </trkpt>
      <trkpt lat="48.74708" lon="2.47363">
        <ele>53</ele>
        <time>2023-01-24T14:16:02.126Z</time>
      </trkpt>
      <trkpt lat="48.74707" lon="2.47368">
        <ele>53</ele>
        <time>2023-01-24T14:16:06.478Z</time>
      </trkpt>
      <trkpt lat="48.74705" lon="2.47376">
        <ele>54</ele>
        <time>2023-01-24T14:16:11.083Z</time>
      </trkpt>
      <trkpt lat="48.74703" lon="2.47384">
        <ele>54</ele>
        <time>2023-01-24T14:16:15.186Z</time>
      </trkpt>
      <trkpt lat="48.747" lon="2.47391">
        <ele>54</ele>
        <time>2023-01-24T14:16:19.691Z</time>
      </trkpt>
      <trkpt lat="48.74697" lon="2.47396">
        <ele>54</ele>
        <time>2023-01-24T14:16:23.795Z</time>
      </trkpt>
      <trkpt lat="48.74694" lon="2.47401">
        <ele>54</ele>
        <time>2023-01-24T14:16:27.899Z</time>
      </trkpt>
      <trkpt lat="48.74691" lon="2.47409">
        <ele>55</ele>
        <time>2023-01-24T14:16:32.508Z</time>
      </trkpt>
      <trkpt lat="48.7469" lon="2.47418">
        <ele>55</ele>
        <time>2023-01-24T14:16:36.609Z</time>
      </trkpt>
      <trkpt lat="48.7469" lon="2.47427">
        <ele>55</ele>
        <time>2023-01-24T14:16:41.113Z</time>
      </trkpt>
      <trkpt lat="48.7469" lon="2.47438">
        <ele>55</ele>
        <time>2023-01-24T14:16:45.618Z</time>
      </trkpt>
      <trkpt lat="48.74691" lon="2.47447">
        <ele>55</ele>
        <time>2023-01-24T14:16:50.226Z</time>
      </trkpt>
      <trkpt lat="48.74691" lon="2.47456">
        <ele>55</ele>
        <time>2023-01-24T14:16:54.632Z</time>
      </trkpt>
      <trkpt lat="48.74689" lon="2.47456">
        <ele>55</ele>
        <time>2023-01-24T14:16:58.643Z</time>
      </trkpt>
      <trkpt lat="48.7469" lon="2.47467">
        <ele>54</ele>
        <time>2023-01-24T14:17:03.155Z</time>
      </trkpt>
      <trkpt lat="48.74688" lon="2.47478">
        <ele>54</ele>
        <time>2023-01-24T14:17:07.664Z</time>
      </trkpt>
      <trkpt lat="48.74686" lon="2.47486">
        <ele>54</ele>
        <time>2023-01-24T14:17:11.674Z</time>
      </trkpt>
      <trkpt lat="48.74684" lon="2.47493">
        <ele>53</ele>
        <time>2023-01-24T14:17:16.284Z</time>
      </trkpt>
      <trkpt lat="48.74681" lon="2.47498">
        <ele>53</ele>
        <time>2023-01-24T14:17:20.294Z</time>
      </trkpt>
      <trkpt lat="48.74675" lon="2.47502">
        <ele>56</ele>
        <time>2023-01-24T14:17:24.804Z</time>
      </trkpt>
      <trkpt lat="48.74671" lon="2.47508">
        <ele>56</ele>
        <time>2023-01-24T14:17:28.812Z</time>
      </trkpt>
      <trkpt lat="48.74666" lon="2.47512">
        <ele>56</ele>
        <time>2023-01-24T14:17:32.822Z</time>
      </trkpt>
      <trkpt lat="48.74659" lon="2.47515">
        <ele>56</ele>
        <time>2023-01-24T14:17:37.387Z</time>
      </trkpt>
      <trkpt lat="48.74656" lon="2.47519">
        <ele>56</ele>
        <time>2023-01-24T14:17:41.537Z</time>
      </trkpt>
      <trkpt lat="48.7465" lon="2.47522">
        <ele>59</ele>
        <time>2023-01-24T14:17:45.744Z</time>
      </trkpt>
      <trkpt lat="48.74645" lon="2.47528">
        <ele>59</ele>
        <time>2023-01-24T14:17:50.350Z</time>
      </trkpt>
      <trkpt lat="48.74641" lon="2.47533">
        <ele>59</ele>
        <time>2023-01-24T14:17:54.356Z</time>
      </trkpt>
      <trkpt lat="48.74636" lon="2.47538">
        <ele>59</ele>
        <time>2023-01-24T14:17:58.962Z</time>
      </trkpt>
      <trkpt lat="48.7463" lon="2.47537">
        <ele>59</ele>
        <time>2023-01-24T14:18:02.967Z</time>
      </trkpt>
      <trkpt lat="48.74626" lon="2.47539">
        <ele>59</ele>
        <time>2023-01-24T14:18:07.476Z</time>
      </trkpt>
      <trkpt lat="48.74623" lon="2.47543">
        <ele>60</ele>
        <time>2023-01-24T14:18:11.983Z</time>
      </trkpt>
      <trkpt lat="48.74619" lon="2.47548">
        <ele>60</ele>
        <time>2023-01-24T14:18:16.488Z</time>
      </trkpt>
      <trkpt lat="48.74617" lon="2.47553">
        <ele>60</ele>
        <time>2023-01-24T14:18:21.094Z</time>
      </trkpt>
      <trkpt lat="48.74613" lon="2.4756">
        <ele>60</ele>
        <time>2023-01-24T14:18:25.600Z</time>
      </trkpt>
      <trkpt lat="48.74609" lon="2.47565">
        <ele>60</ele>
        <time>2023-01-24T14:18:30.105Z</time>
      </trkpt>
      <trkpt lat="48.74605" lon="2.47569">
        <ele>60</ele>
        <time>2023-01-24T14:18:34.109Z</time>
      </trkpt>
      <trkpt lat="48.74599" lon="2.47574">
        <ele>61</ele>
        <time>2023-01-24T14:18:38.614Z</time>
      </trkpt>
      <trkpt lat="48.74595" lon="2.4758">
        <ele>62</ele>
        <time>2023-01-24T14:18:42.315Z</time>
      </trkpt>
      <trkpt lat="48.7459" lon="2.47587">
        <ele>62</ele>
        <time>2023-01-24T14:18:46.877Z</time>
      </trkpt>
      <trkpt lat="48.74586" lon="2.47592">
        <ele>62</ele>
        <time>2023-01-24T14:18:50.881Z</time>
      </trkpt>
      <trkpt lat="48.74582" lon="2.47592">
        <ele>62</ele>
        <time>2023-01-24T14:18:54.886Z</time>
      </trkpt>
      <trkpt lat="48.74578" lon="2.47591">
        <ele>62</ele>
        <time>2023-01-24T14:18:59.450Z</time>
      </trkpt>
      <trkpt lat="48.74575" lon="2.47591">
        <ele>62</ele>
        <time>2023-01-24T14:19:03.506Z</time>
      </trkpt>
      <trkpt lat="48.74572" lon="2.47591">
        <ele>62</ele>
        <time>2023-01-24T14:19:07.637Z</time>
      </trkpt>
      <trkpt lat="48.74568" lon="2.47591">
        <ele>63</ele>
        <time>2023-01-24T14:19:12.140Z</time>
      </trkpt>
      <trkpt lat="48.74564" lon="2.47591">
        <ele>63</ele>
        <time>2023-01-24T14:19:16.182Z</time>
      </trkpt>
      <trkpt lat="48.74559" lon="2.47592">
        <ele>63</ele>
        <time>2023-01-24T14:19:20.726Z</time>
      </trkpt>
      <trkpt lat="48.74555" lon="2.47593">
        <ele>63</ele>
        <time>2023-01-24T14:19:25.308Z</time>
      </trkpt>
      <trkpt lat="48.74551" lon="2.47593">
        <ele>63</ele>
        <time>2023-01-24T14:19:29.811Z</time>
      </trkpt>
      <trkpt lat="48.74546" lon="2.47593">
        <ele>63</ele>
        <time>2023-01-24T14:19:33.814Z</time>
      </trkpt>
      <trkpt lat="48.74542" lon="2.47592">
        <ele>66</ele>
        <time>2023-01-24T14:19:38.417Z</time>
      </trkpt>
      <trkpt lat="48.74537" lon="2.47591">
        <ele>66</ele>
        <time>2023-01-24T14:19:42.920Z</time>
      </trkpt>
      <trkpt lat="48.74531" lon="2.47589">
        <ele>66</ele>
        <time>2023-01-24T14:19:46.924Z</time>
      </trkpt>
      <trkpt lat="48.74526" lon="2.47588">
        <ele>66</ele>
        <time>2023-01-24T14:19:51.446Z</time>
      </trkpt>
      <trkpt lat="48.74521" lon="2.47587">
        <ele>66</ele>
        <time>2023-01-24T14:19:56.125Z</time>
      </trkpt>
      <trkpt lat="48.74515" lon="2.47587">
        <ele>66</ele>
        <time>2023-01-24T14:20:00.292Z</time>
      </trkpt>
      <trkpt lat="48.7451" lon="2.47586">
        <ele>69</ele>
        <time>2023-01-24T14:20:04.968Z</time>
      </trkpt>
      <trkpt lat="48.74504" lon="2.47587">
        <ele>69</ele>
        <time>2023-01-24T14:20:09.137Z</time>
      </trkpt>
      <trkpt lat="48.74498" lon="2.47591">
        <ele>69</ele>
        <time>2023-01-24T14:20:13.141Z</time>
      </trkpt>
      <trkpt lat="48.74491" lon="2.4759">
        <ele>69</ele>
        <time>2023-01-24T14:20:17.143Z</time>
      </trkpt>
      <trkpt lat="48.74486" lon="2.47587">
        <ele>72</ele>
        <time>2023-01-24T14:20:21.645Z</time>
      </trkpt>
      <trkpt lat="48.7448" lon="2.47584">
        <ele>72</ele>
        <time>2023-01-24T14:20:25.866Z</time>
      </trkpt>
      <trkpt lat="48.74473" lon="2.47582">
        <ele>72</ele>
        <time>2023-01-24T14:20:30.468Z</time>
      </trkpt>
      <trkpt lat="48.74467" lon="2.47582">
        <ele>72</ele>
        <time>2023-01-24T14:20:34.268Z</time>
      </trkpt>
      <trkpt lat="48.74461" lon="2.47583">
        <ele>72</ele>
        <time>2023-01-24T14:20:38.770Z</time>
      </trkpt>
      <trkpt lat="48.74456" lon="2.47584">
        <ele>75</ele>
        <time>2023-01-24T14:20:42.812Z</time>
      </trkpt>
      <trkpt lat="48.74452" lon="2.47581">
        <ele>75</ele>
        <time>2023-01-24T14:20:47.053Z</time>
      </trkpt>
      <trkpt lat="48.74447" lon="2.47578">
        <ele>75</ele>
        <time>2023-01-24T14:20:51.214Z</time>
      </trkpt>
      <trkpt lat="48.74442" lon="2.47577">
        <ele>75</ele>
        <time>2023-01-24T14:20:55.217Z</time>
      </trkpt>
      <trkpt lat="48.74436" lon="2.47585">
        <ele>75</ele>
        <time>2023-01-24T14:20:59.719Z</time>
      </trkpt>
      <trkpt lat="48.74431" lon="2.47595">
        <ele>75</ele>
        <time>2023-01-24T14:21:04.467Z</time>
      </trkpt>
      <trkpt lat="48.74428" lon="2.47602">
        <ele>76</ele>
        <time>2023-01-24T14:21:08.621Z</time>
      </trkpt>
      <trkpt lat="48.74426" lon="2.47608">
        <ele>76</ele>
        <time>2023-01-24T14:21:13.441Z</time>
      </trkpt>
      <trkpt lat="48.74424" lon="2.47612">
        <ele>76</ele>
        <time>2023-01-24T14:21:17.623Z</time>
      </trkpt>
      <trkpt lat="48.74422" lon="2.47616">
        <ele>76</ele>
        <time>2023-01-24T14:21:21.988Z</time>
      </trkpt>
      <trkpt lat="48.74421" lon="2.4762">
        <ele>76</ele>
        <time>2023-01-24T14:21:26.204Z</time>
      </trkpt>
      <trkpt lat="48.74419" lon="2.47625">
        <ele>75</ele>
        <time>2023-01-24T14:21:30.246Z</time>
      </trkpt>
      <trkpt lat="48.74417" lon="2.47633">
        <ele>75</ele>
        <time>2023-01-24T14:21:34.407Z</time>
      </trkpt>
      <trkpt lat="48.74413" lon="2.47641">
        <ele>75</ele>
        <time>2023-01-24T14:21:38.588Z</time>
      </trkpt>
      <trkpt lat="48.7441" lon="2.47644">
        <ele>75</ele>
        <time>2023-01-24T14:21:42.729Z</time>
      </trkpt>
      <trkpt lat="48.74405" lon="2.4765">
        <ele>75</ele>
        <time>2023-01-24T14:21:47.049Z</time>
      </trkpt>
      <trkpt lat="48.74401" lon="2.47655">
        <ele>78</ele>
        <time>2023-01-24T14:21:50.651Z</time>
      </trkpt>
      <trkpt lat="48.74395" lon="2.47659">
        <ele>78</ele>
        <time>2023-01-24T14:21:55.184Z</time>
      </trkpt>
      <trkpt lat="48.7439" lon="2.47662">
        <ele>78</ele>
        <time>2023-01-24T14:21:59.688Z</time>
      </trkpt>
      <trkpt lat="48.74386" lon="2.47664">
        <ele>78</ele>
        <time>2023-01-24T14:22:03.692Z</time>
      </trkpt>
      <trkpt lat="48.74381" lon="2.47667">
        <ele>78</ele>
        <time>2023-01-24T14:22:08.196Z</time>
      </trkpt>
      <trkpt lat="48.74379" lon="2.47669">
        <ele>78</ele>
        <time>2023-01-24T14:22:12.743Z</time>
      </trkpt>
      <trkpt lat="48.74376" lon="2.4767">
        <ele>78</ele>
        <time>2023-01-24T14:22:16.901Z</time>
      </trkpt>
      <trkpt lat="48.74371" lon="2.47674">
        <ele>82</ele>
        <time>2023-01-24T14:22:21.005Z</time>
      </trkpt>
      <trkpt lat="48.74367" lon="2.47679">
        <ele>82</ele>
        <time>2023-01-24T14:22:25.010Z</time>
      </trkpt>
      <trkpt lat="48.74364" lon="2.47682">
        <ele>83</ele>
        <time>2023-01-24T14:22:29.514Z</time>
      </trkpt>
      <trkpt lat="48.74361" lon="2.47685">
        <ele>83</ele>
        <time>2023-01-24T14:22:33.617Z</time>
      </trkpt>
      <trkpt lat="48.74359" lon="2.47689">
        <ele>83</ele>
        <time>2023-01-24T14:22:38.121Z</time>
      </trkpt>
      <trkpt lat="48.74359" lon="2.47697">
        <ele>83</ele>
        <time>2023-01-24T14:22:42.226Z</time>
      </trkpt>
      <trkpt lat="48.74361" lon="2.47706">
        <ele>83</ele>
        <time>2023-01-24T14:22:46.230Z</time>
      </trkpt>
      <trkpt lat="48.74361" lon="2.47715">
        <ele>82</ele>
        <time>2023-01-24T14:22:50.737Z</time>
      </trkpt>
      <trkpt lat="48.7436" lon="2.47722">
        <ele>82</ele>
        <time>2023-01-24T14:22:54.741Z</time>
      </trkpt>
      <trkpt lat="48.74357" lon="2.47732">
        <ele>82</ele>
        <time>2023-01-24T14:22:59.246Z</time>
      </trkpt>
      <trkpt lat="48.74356" lon="2.4774">
        <ele>81</ele>
        <time>2023-01-24T14:23:03.250Z</time>
      </trkpt>
      <trkpt lat="48.74356" lon="2.47747">
        <ele>81</ele>
        <time>2023-01-24T14:23:07.254Z</time>
      </trkpt>
      <trkpt lat="48.74356" lon="2.47753">
        <ele>81</ele>
        <time>2023-01-24T14:23:11.259Z</time>
      </trkpt>
      <trkpt lat="48.74357" lon="2.47758">
        <ele>81</ele>
        <time>2023-01-24T14:23:15.866Z</time>
      </trkpt>
      <trkpt lat="48.74356" lon="2.47765">
        <ele>80</ele>
        <time>2023-01-24T14:23:19.970Z</time>
      </trkpt>
      <trkpt lat="48.74354" lon="2.47773">
        <ele>80</ele>
        <time>2023-01-24T14:23:24.070Z</time>
      </trkpt>
      <trkpt lat="48.74352" lon="2.47783">
        <ele>80</ele>
        <time>2023-01-24T14:23:28.077Z</time>
      </trkpt>
      <trkpt lat="48.74352" lon="2.47793">
        <ele>79</ele>
        <time>2023-01-24T14:23:32.582Z</time>
      </trkpt>
      <trkpt lat="48.74352" lon="2.47801">
        <ele>79</ele>
        <time>2023-01-24T14:23:37.086Z</time>
      </trkpt>
      <trkpt lat="48.74352" lon="2.4781">
        <ele>79</ele>
        <time>2023-01-24T14:23:41.090Z</time>
      </trkpt>
      <trkpt lat="48.74352" lon="2.47818">
        <ele>79</ele>
        <time>2023-01-24T14:23:45.096Z</time>
      </trkpt>
      <trkpt lat="48.74352" lon="2.47829">
        <ele>78</ele>
        <time>2023-01-24T14:23:50.113Z</time>
      </trkpt>
      <trkpt lat="48.74352" lon="2.47837">
        <ele>78</ele>
        <time>2023-01-24T14:23:54.117Z</time>
      </trkpt>
      <trkpt lat="48.74352" lon="2.47846">
        <ele>78</ele>
        <time>2023-01-24T14:23:59.122Z</time>
      </trkpt>
      <trkpt lat="48.74352" lon="2.47853">
        <ele>77</ele>
        <time>2023-01-24T14:24:03.227Z</time>
      </trkpt>
      <trkpt lat="48.74352" lon="2.47864">
        <ele>77</ele>
        <time>2023-01-24T14:24:07.231Z</time>
      </trkpt>
      <trkpt lat="48.74351" lon="2.47874">
        <ele>77</ele>
        <time>2023-01-24T14:24:11.836Z</time>
      </trkpt>
      <trkpt lat="48.74351" lon="2.47883">
        <ele>75</ele>
        <time>2023-01-24T14:24:15.840Z</time>
      </trkpt>
      <trkpt lat="48.74351" lon="2.47893">
        <ele>75</ele>
        <time>2023-01-24T14:24:20.347Z</time>
      </trkpt>
      <trkpt lat="48.74351" lon="2.47901">
        <ele>75</ele>
        <time>2023-01-24T14:24:24.449Z</time>
      </trkpt>
      <trkpt lat="48.74352" lon="2.47908">
        <ele>75</ele>
        <time>2023-01-24T14:24:28.954Z</time>
      </trkpt>
      <trkpt lat="48.74352" lon="2.47918">
        <ele>75</ele>
        <time>2023-01-24T14:24:33.482Z</time>
      </trkpt>
      <trkpt lat="48.74353" lon="2.47928">
        <ele>75</ele>
        <time>2023-01-24T14:24:37.663Z</time>
      </trkpt>
      <trkpt lat="48.74353" lon="2.47938">
        <ele>74</ele>
        <time>2023-01-24T14:24:41.667Z</time>
      </trkpt>
      <trkpt lat="48.74353" lon="2.47947">
        <ele>74</ele>
        <time>2023-01-24T14:24:45.672Z</time>
      </trkpt>
      <trkpt lat="48.74352" lon="2.47958">
        <ele>74</ele>
        <time>2023-01-24T14:24:50.376Z</time>
      </trkpt>
      <trkpt lat="48.7435" lon="2.47969">
        <ele>73</ele>
        <time>2023-01-24T14:24:54.880Z</time>
      </trkpt>
      <trkpt lat="48.74351" lon="2.47976">
        <ele>73</ele>
        <time>2023-01-24T14:25:39.116Z</time>
      </trkpt>
      <trkpt lat="48.74351" lon="2.47968">
        <ele>73</ele>
        <time>2023-01-24T14:25:44.133Z</time>
      </trkpt>
      <trkpt lat="48.74351" lon="2.47965">
        <ele>73</ele>
        <time>2023-01-24T14:25:48.027Z</time>
      </trkpt>
      <trkpt lat="48.74351" lon="2.47959">
        <ele>73</ele>
        <time>2023-01-24T14:25:52.031Z</time>
      </trkpt>
      <trkpt lat="48.74351" lon="2.47951">
        <ele>74</ele>
        <time>2023-01-24T14:25:56.534Z</time>
      </trkpt>
      <trkpt lat="48.74352" lon="2.47943">
        <ele>74</ele>
        <time>2023-01-24T14:26:01.038Z</time>
      </trkpt>
      <trkpt lat="48.74351" lon="2.47935">
        <ele>74</ele>
        <time>2023-01-24T14:26:05.604Z</time>
      </trkpt>
      <trkpt lat="48.7435" lon="2.47927">
        <ele>75</ele>
        <time>2023-01-24T14:26:09.683Z</time>
      </trkpt>
      <trkpt lat="48.74348" lon="2.47918">
        <ele>75</ele>
        <time>2023-01-24T14:26:14.287Z</time>
      </trkpt>
      <trkpt lat="48.74347" lon="2.4791">
        <ele>77</ele>
        <time>2023-01-24T14:26:18.790Z</time>
      </trkpt>
      <trkpt lat="48.74345" lon="2.47903">
        <ele>77</ele>
        <time>2023-01-24T14:26:22.793Z</time>
      </trkpt>
      <trkpt lat="48.74343" lon="2.47896">
        <ele>79</ele>
        <time>2023-01-24T14:26:28.098Z</time>
      </trkpt>
      <trkpt lat="48.74341" lon="2.47892">
        <ele>79</ele>
        <time>2023-01-24T14:26:32.603Z</time>
      </trkpt>
      <trkpt lat="48.74335" lon="2.4789">
        <ele>79</ele>
        <time>2023-01-24T14:26:36.807Z</time>
      </trkpt>
      <trkpt lat="48.74329" lon="2.47891">
        <ele>79</ele>
        <time>2023-01-24T14:26:41.513Z</time>
      </trkpt>
      <trkpt lat="48.74325" lon="2.47894">
        <ele>79</ele>
        <time>2023-01-24T14:26:45.517Z</time>
      </trkpt>
      <trkpt lat="48.74321" lon="2.47898">
        <ele>79</ele>
        <time>2023-01-24T14:26:49.520Z</time>
      </trkpt>
      <trkpt lat="48.74317" lon="2.47902">
        <ele>80</ele>
        <time>2023-01-24T14:26:53.624Z</time>
      </trkpt>
      <trkpt lat="48.74313" lon="2.47905">
        <ele>78</ele>
        <time>2023-01-24T14:26:58.341Z</time>
      </trkpt>
      <trkpt lat="48.7431" lon="2.47911">
        <ele>78</ele>
        <time>2023-01-24T14:27:02.832Z</time>
      </trkpt>
      <trkpt lat="48.74306" lon="2.47914">
        <ele>78</ele>
        <time>2023-01-24T14:27:07.387Z</time>
      </trkpt>
      <trkpt lat="48.74302" lon="2.47917">
        <ele>78</ele>
        <time>2023-01-24T14:27:12.016Z</time>
      </trkpt>
      <trkpt lat="48.74299" lon="2.47921">
        <ele>78</ele>
        <time>2023-01-24T14:27:16.518Z</time>
      </trkpt>
      <trkpt lat="48.74294" lon="2.47925">
        <ele>78</ele>
        <time>2023-01-24T14:27:20.521Z</time>
      </trkpt>
      <trkpt lat="48.7429" lon="2.47922">
        <ele>81</ele>
        <time>2023-01-24T14:27:25.024Z</time>
      </trkpt>
      <trkpt lat="48.74286" lon="2.47922">
        <ele>81</ele>
        <time>2023-01-24T14:27:29.027Z</time>
      </trkpt>
      <trkpt lat="48.74283" lon="2.47924">
        <ele>81</ele>
        <time>2023-01-24T14:27:33.131Z</time>
      </trkpt>
      <trkpt lat="48.74281" lon="2.47927">
        <ele>81</ele>
        <time>2023-01-24T14:27:38.134Z</time>
      </trkpt>
      <trkpt lat="48.74282" lon="2.47932">
        <ele>80</ele>
        <time>2023-01-24T14:27:42.138Z</time>
      </trkpt>
      <trkpt lat="48.74281" lon="2.47937">
        <ele>80</ele>
        <time>2023-01-24T14:27:46.140Z</time>
      </trkpt>
      <trkpt lat="48.7428" lon="2.47942">
        <ele>80</ele>
        <time>2023-01-24T14:27:50.803Z</time>
      </trkpt>
      <trkpt lat="48.74281" lon="2.47948">
        <ele>80</ele>
        <time>2023-01-24T14:27:55.543Z</time>
      </trkpt>
      <trkpt lat="48.74281" lon="2.47957">
        <ele>80</ele>
        <time>2023-01-24T14:28:00.107Z</time>
      </trkpt>
      <trkpt lat="48.74281" lon="2.47963">
        <ele>80</ele>
        <time>2023-01-24T14:28:04.670Z</time>
      </trkpt>
      <trkpt lat="48.7428" lon="2.47969">
        <ele>80</ele>
        <time>2023-01-24T14:28:14.553Z</time>
      </trkpt>
      <trkpt lat="48.7428" lon="2.47974">
        <ele>80</ele>
        <time>2023-01-24T14:28:18.754Z</time>
      </trkpt>
      <trkpt lat="48.74281" lon="2.47976">
        <ele>80</ele>
        <time>2023-01-24T14:28:22.936Z</time>
      </trkpt>
      <trkpt lat="48.74282" lon="2.47977">
        <ele>80</ele>
        <time>2023-01-24T14:28:28.098Z</time>
      </trkpt>
      <trkpt lat="48.74283" lon="2.47981">
        <ele>80</ele>
        <time>2023-01-24T14:28:33.072Z</time>
      </trkpt>
      <trkpt lat="48.74284" lon="2.47987">
        <ele>81</ele>
        <time>2023-01-24T14:28:36.781Z</time>
      </trkpt>
      <trkpt lat="48.74283" lon="2.47988">
        <ele>81</ele>
        <time>2023-01-24T14:28:41.824Z</time>
      </trkpt>
      <trkpt lat="48.74282" lon="2.47992">
        <ele>81</ele>
        <time>2023-01-24T14:28:45.827Z</time>
      </trkpt>
      <trkpt lat="48.74281" lon="2.47997">
        <ele>81</ele>
        <time>2023-01-24T14:28:49.949Z</time>
      </trkpt>
      <trkpt lat="48.7428" lon="2.48">
        <ele>81</ele>
        <time>2023-01-24T14:28:54.271Z</time>
      </trkpt>
      <trkpt lat="48.74281" lon="2.48004">
        <ele>81</ele>
        <time>2023-01-24T14:29:02.776Z</time>
      </trkpt>
      <trkpt lat="48.74281" lon="2.48008">
        <ele>81</ele>
        <time>2023-01-24T14:29:07.463Z</time>
      </trkpt>
      <trkpt lat="48.74281" lon="2.48009">
        <ele>81</ele>
        <time>2023-01-24T14:29:11.237Z</time>
      </trkpt>
      <trkpt lat="48.74283" lon="2.48012">
        <ele>81</ele>
        <time>2023-01-24T14:29:15.842Z</time>
      </trkpt>
      <trkpt lat="48.74282" lon="2.4802">
        <ele>81</ele>
        <time>2023-01-24T14:29:20.220Z</time>
      </trkpt>
      <trkpt lat="48.74278" lon="2.48029">
        <ele>81</ele>
        <time>2023-01-24T14:29:25.041Z</time>
      </trkpt>
      <trkpt lat="48.74275" lon="2.48037">
        <ele>81</ele>
        <time>2023-01-24T14:29:29.123Z</time>
      </trkpt>
      <trkpt lat="48.74271" lon="2.48041">
        <ele>81</ele>
        <time>2023-01-24T14:29:32.665Z</time>
      </trkpt>
      <trkpt lat="48.74267" lon="2.48041">
        <ele>81</ele>
        <time>2023-01-24T14:29:37.645Z</time>
      </trkpt>
      <trkpt lat="48.74262" lon="2.48042">
        <ele>82</ele>
        <time>2023-01-24T14:29:41.886Z</time>
      </trkpt>
      <trkpt lat="48.74258" lon="2.48044">
        <ele>82</ele>
        <time>2023-01-24T14:29:46.210Z</time>
      </trkpt>
      <trkpt lat="48.74255" lon="2.48046">
        <ele>82</ele>
        <time>2023-01-24T14:29:50.506Z</time>
      </trkpt>
      <trkpt lat="48.7425" lon="2.48049">
        <ele>82</ele>
        <time>2023-01-24T14:29:54.747Z</time>
      </trkpt>
      <trkpt lat="48.74246" lon="2.48051">
        <ele>82</ele>
        <time>2023-01-24T14:30:00.133Z</time>
      </trkpt>
      <trkpt lat="48.74244" lon="2.48054">
        <ele>82</ele>
        <time>2023-01-24T14:30:04.449Z</time>
      </trkpt>
      <trkpt lat="48.7424" lon="2.48057">
        <ele>82</ele>
        <time>2023-01-24T14:30:08.889Z</time>
      </trkpt>
      <trkpt lat="48.74235" lon="2.48061">
        <ele>84</ele>
        <time>2023-01-24T14:30:13.047Z</time>
      </trkpt>
      <trkpt lat="48.74231" lon="2.48063">
        <ele>84</ele>
        <time>2023-01-24T14:30:17.387Z</time>
      </trkpt>
      <trkpt lat="48.74227" lon="2.48065">
        <ele>84</ele>
        <time>2023-01-24T14:30:21.207Z</time>
      </trkpt>
      <trkpt lat="48.74225" lon="2.48069">
        <ele>84</ele>
        <time>2023-01-24T14:30:25.746Z</time>
      </trkpt>
      <trkpt lat="48.74222" lon="2.48073">
        <ele>83</ele>
        <time>2023-01-24T14:30:29.664Z</time>
      </trkpt>
      <trkpt lat="48.74217" lon="2.4808">
        <ele>83</ele>
        <time>2023-01-24T14:30:34.723Z</time>
      </trkpt>
      <trkpt lat="48.74213" lon="2.48086">
        <ele>83</ele>
        <time>2023-01-24T14:30:39.147Z</time>
      </trkpt>
      <trkpt lat="48.74207" lon="2.4809">
        <ele>85</ele>
        <time>2023-01-24T14:30:43.661Z</time>
      </trkpt>
      <trkpt lat="48.74201" lon="2.48089">
        <ele>85</ele>
        <time>2023-01-24T14:30:48.130Z</time>
      </trkpt>
      <trkpt lat="48.74195" lon="2.48087">
        <ele>85</ele>
        <time>2023-01-24T14:30:52.661Z</time>
      </trkpt>
      <trkpt lat="48.74192" lon="2.48086">
        <ele>85</ele>
        <time>2023-01-24T14:30:57.021Z</time>
      </trkpt>
      <trkpt lat="48.7419" lon="2.48085">
        <ele>85</ele>
        <time>2023-01-24T14:31:01.282Z</time>
      </trkpt>
      <trkpt lat="48.74186" lon="2.48085">
        <ele>85</ele>
        <time>2023-01-24T14:31:05.602Z</time>
      </trkpt>
      <trkpt lat="48.7418" lon="2.48084">
        <ele>86</ele>
        <time>2023-01-24T14:31:10.343Z</time>
      </trkpt>
      <trkpt lat="48.74175" lon="2.48082">
        <ele>86</ele>
        <time>2023-01-24T14:31:15.008Z</time>
      </trkpt>
      <trkpt lat="48.74173" lon="2.48084">
        <ele>86</ele>
        <time>2023-01-24T14:31:18.965Z</time>
      </trkpt>
      <trkpt lat="48.74168" lon="2.48082">
        <ele>86</ele>
        <time>2023-01-24T14:31:23.007Z</time>
      </trkpt>
      <trkpt lat="48.74164" lon="2.48084">
        <ele>86</ele>
        <time>2023-01-24T14:31:27.187Z</time>
      </trkpt>
      <trkpt lat="48.74161" lon="2.4809">
        <ele>86</ele>
        <time>2023-01-24T14:31:31.468Z</time>
      </trkpt>
      <trkpt lat="48.74157" lon="2.48095">
        <ele>86</ele>
        <time>2023-01-24T14:31:35.670Z</time>
      </trkpt>
      <trkpt lat="48.74152" lon="2.48096">
        <ele>86</ele>
        <time>2023-01-24T14:31:40.010Z</time>
      </trkpt>
      <trkpt lat="48.74151" lon="2.48095">
        <ele>86</ele>
        <time>2023-01-24T14:31:43.931Z</time>
      </trkpt>
      <trkpt lat="48.74148" lon="2.48095">
        <ele>86</ele>
        <time>2023-01-24T14:31:48.471Z</time>
      </trkpt>
      <trkpt lat="48.74142" lon="2.48089">
        <ele>86</ele>
        <time>2023-01-24T14:31:53.911Z</time>
      </trkpt>
      <trkpt lat="48.74138" lon="2.48082">
        <ele>86</ele>
        <time>2023-01-24T14:31:57.850Z</time>
      </trkpt>
      <trkpt lat="48.74135" lon="2.48077">
        <ele>86</ele>
        <time>2023-01-24T14:32:02.268Z</time>
      </trkpt>
      <trkpt lat="48.74133" lon="2.4807">
        <ele>86</ele>
        <time>2023-01-24T14:32:06.708Z</time>
      </trkpt>
      <trkpt lat="48.74129" lon="2.48062">
        <ele>86</ele>
        <time>2023-01-24T14:32:11.288Z</time>
      </trkpt>
      <trkpt lat="48.74126" lon="2.48055">
        <ele>86</ele>
        <time>2023-01-24T14:32:15.626Z</time>
      </trkpt>
      <trkpt lat="48.74121" lon="2.48057">
        <ele>87</ele>
        <time>2023-01-24T14:32:20.049Z</time>
      </trkpt>
      <trkpt lat="48.74115" lon="2.48058">
        <ele>87</ele>
        <time>2023-01-24T14:32:24.143Z</time>
      </trkpt>
      <trkpt lat="48.7411" lon="2.48058">
        <ele>87</ele>
        <time>2023-01-24T14:32:28.564Z</time>
      </trkpt>
      <trkpt lat="48.74105" lon="2.48056">
        <ele>87</ele>
        <time>2023-01-24T14:32:32.501Z</time>
      </trkpt>
      <trkpt lat="48.74102" lon="2.48052">
        <ele>87</ele>
        <time>2023-01-24T14:32:36.824Z</time>
      </trkpt>
      <trkpt lat="48.74099" lon="2.48045">
        <ele>87</ele>
        <time>2023-01-24T14:32:41.160Z</time>
      </trkpt>
      <trkpt lat="48.74099" lon="2.4804">
        <ele>86</ele>
        <time>2023-01-24T14:32:45.259Z</time>
      </trkpt>
      <trkpt lat="48.74099" lon="2.48035">
        <ele>86</ele>
        <time>2023-01-24T14:32:49.317Z</time>
      </trkpt>
      <trkpt lat="48.74098" lon="2.48029">
        <ele>86</ele>
        <time>2023-01-24T14:32:53.515Z</time>
      </trkpt>
      <trkpt lat="48.74096" lon="2.48024">
        <ele>87</ele>
        <time>2023-01-24T14:32:58.150Z</time>
      </trkpt>
      <trkpt lat="48.74093" lon="2.48025">
        <ele>87</ele>
        <time>2023-01-24T14:33:02.070Z</time>
      </trkpt>
      <trkpt lat="48.74088" lon="2.48024">
        <ele>87</ele>
        <time>2023-01-24T14:33:06.747Z</time>
      </trkpt>
      <trkpt lat="48.74084" lon="2.48028">
        <ele>87</ele>
        <time>2023-01-24T14:33:11.308Z</time>
      </trkpt>
      <trkpt lat="48.74081" lon="2.48033">
        <ele>87</ele>
        <time>2023-01-24T14:33:15.387Z</time>
      </trkpt>
      <trkpt lat="48.74079" lon="2.48038">
        <ele>87</ele>
        <time>2023-01-24T14:33:19.679Z</time>
      </trkpt>
      <trkpt lat="48.74078" lon="2.48045">
        <ele>87</ele>
        <time>2023-01-24T14:33:23.598Z</time>
      </trkpt>
      <trkpt lat="48.74077" lon="2.48052">
        <ele>87</ele>
        <time>2023-01-24T14:33:28.154Z</time>
      </trkpt>
      <trkpt lat="48.74076" lon="2.4806">
        <ele>87</ele>
        <time>2023-01-24T14:33:32.347Z</time>
      </trkpt>
      <trkpt lat="48.74074" lon="2.48067">
        <ele>87</ele>
        <time>2023-01-24T14:33:36.691Z</time>
      </trkpt>
      <trkpt lat="48.74073" lon="2.48076">
        <ele>87</ele>
        <time>2023-01-24T14:33:41.248Z</time>
      </trkpt>
      <trkpt lat="48.74072" lon="2.48084">
        <ele>87</ele>
        <time>2023-01-24T14:33:45.771Z</time>
      </trkpt>
      <trkpt lat="48.74071" lon="2.48092">
        <ele>87</ele>
        <time>2023-01-24T14:33:50.002Z</time>
      </trkpt>
      <trkpt lat="48.7407" lon="2.48101">
        <ele>86</ele>
        <time>2023-01-24T14:33:54.158Z</time>
      </trkpt>
      <trkpt lat="48.7407" lon="2.48111">
        <ele>86</ele>
        <time>2023-01-24T14:33:59.074Z</time>
      </trkpt>
      <trkpt lat="48.74069" lon="2.4812">
        <ele>86</ele>
        <time>2023-01-24T14:34:03.156Z</time>
      </trkpt>
      <trkpt lat="48.74071" lon="2.48135">
        <ele>85</ele>
        <time>2023-01-24T14:34:07.767Z</time>
      </trkpt>
      <trkpt lat="48.74071" lon="2.48149">
        <ele>85</ele>
        <time>2023-01-24T14:34:12.281Z</time>
      </trkpt>
      <trkpt lat="48.74072" lon="2.48155">
        <ele>85</ele>
        <time>2023-01-24T14:34:16.289Z</time>
      </trkpt>
      <trkpt lat="48.74072" lon="2.4816">
        <ele>85</ele>
        <time>2023-01-24T14:34:20.848Z</time>
      </trkpt>
      <trkpt lat="48.74066" lon="2.48167">
        <ele>85</ele>
        <time>2023-01-24T14:34:24.903Z</time>
      </trkpt>
      <trkpt lat="48.74063" lon="2.48177">
        <ele>85</ele>
        <time>2023-01-24T14:34:29.410Z</time>
      </trkpt>
      <trkpt lat="48.74063" lon="2.48187">
        <ele>85</ele>
        <time>2023-01-24T14:34:33.415Z</time>
      </trkpt>
      <trkpt lat="48.74064" lon="2.48196">
        <ele>85</ele>
        <time>2023-01-24T14:34:37.921Z</time>
      </trkpt>
      <trkpt lat="48.74064" lon="2.48205">
        <ele>85</ele>
        <time>2023-01-24T14:34:41.927Z</time>
      </trkpt>
      <trkpt lat="48.74064" lon="2.48216">
        <ele>85</ele>
        <time>2023-01-24T14:34:46.433Z</time>
      </trkpt>
      <trkpt lat="48.74063" lon="2.48224">
        <ele>85</ele>
        <time>2023-01-24T14:34:50.940Z</time>
      </trkpt>
      <trkpt lat="48.74062" lon="2.48234">
        <ele>85</ele>
        <time>2023-01-24T14:34:54.944Z</time>
      </trkpt>
      <trkpt lat="48.74059" lon="2.48245">
        <ele>86</ele>
        <time>2023-01-24T14:34:59.647Z</time>
      </trkpt>
      <trkpt lat="48.74057" lon="2.48254">
        <ele>86</ele>
        <time>2023-01-24T14:35:03.851Z</time>
      </trkpt>
      <trkpt lat="48.74056" lon="2.48263">
        <ele>86</ele>
        <time>2023-01-24T14:35:08.355Z</time>
      </trkpt>
      <trkpt lat="48.74054" lon="2.4827">
        <ele>86</ele>
        <time>2023-01-24T14:35:12.358Z</time>
      </trkpt>
      <trkpt lat="48.74052" lon="2.48278">
        <ele>86</ele>
        <time>2023-01-24T14:35:16.363Z</time>
      </trkpt>
      <trkpt lat="48.74052" lon="2.48287">
        <ele>86</ele>
        <time>2023-01-24T14:35:20.367Z</time>
      </trkpt>
      <trkpt lat="48.74052" lon="2.48296">
        <ele>86</ele>
        <time>2023-01-24T14:35:24.964Z</time>
      </trkpt>
      <trkpt lat="48.74051" lon="2.48305">
        <ele>86</ele>
        <time>2023-01-24T14:35:29.111Z</time>
      </trkpt>
      <trkpt lat="48.7405" lon="2.48313">
        <ele>86</ele>
        <time>2023-01-24T14:35:32.779Z</time>
      </trkpt>
      <trkpt lat="48.7405" lon="2.48322">
        <ele>86</ele>
        <time>2023-01-24T14:35:36.882Z</time>
      </trkpt>
      <trkpt lat="48.74048" lon="2.48333">
        <ele>86</ele>
        <time>2023-01-24T14:35:41.488Z</time>
      </trkpt>
      <trkpt lat="48.74048" lon="2.48342">
        <ele>86</ele>
        <time>2023-01-24T14:35:46.096Z</time>
      </trkpt>
      <trkpt lat="48.74048" lon="2.48351">
        <ele>86</ele>
        <time>2023-01-24T14:35:49.696Z</time>
      </trkpt>
      <trkpt lat="48.74048" lon="2.48359">
        <ele>86</ele>
        <time>2023-01-24T14:35:54.319Z</time>
      </trkpt>
      <trkpt lat="48.74046" lon="2.48366">
        <ele>86</ele>
        <time>2023-01-24T14:35:58.560Z</time>
      </trkpt>
      <trkpt lat="48.74047" lon="2.48374">
        <ele>86</ele>
        <time>2023-01-24T14:36:02.582Z</time>
      </trkpt>
      <trkpt lat="48.74046" lon="2.48383">
        <ele>86</ele>
        <time>2023-01-24T14:36:07.104Z</time>
      </trkpt>
      <trkpt lat="48.74047" lon="2.48388">
        <ele>86</ele>
        <time>2023-01-24T14:36:11.207Z</time>
      </trkpt>
      <trkpt lat="48.74044" lon="2.48394">
        <ele>86</ele>
        <time>2023-01-24T14:36:15.210Z</time>
      </trkpt>
      <trkpt lat="48.7404" lon="2.48399">
        <ele>86</ele>
        <time>2023-01-24T14:36:19.313Z</time>
      </trkpt>
      <trkpt lat="48.74034" lon="2.48404">
        <ele>86</ele>
        <time>2023-01-24T14:36:23.820Z</time>
      </trkpt>
      <trkpt lat="48.74029" lon="2.48404">
        <ele>86</ele>
        <time>2023-01-24T14:36:27.929Z</time>
      </trkpt>
      <trkpt lat="48.74023" lon="2.48407">
        <ele>86</ele>
        <time>2023-01-24T14:36:32.134Z</time>
      </trkpt>
      <trkpt lat="48.74018" lon="2.48411">
        <ele>86</ele>
        <time>2023-01-24T14:36:36.140Z</time>
      </trkpt>
      <trkpt lat="48.74014" lon="2.48415">
        <ele>88</ele>
        <time>2023-01-24T14:36:40.148Z</time>
      </trkpt>
      <trkpt lat="48.7401" lon="2.48418">
        <ele>88</ele>
        <time>2023-01-24T14:36:44.654Z</time>
      </trkpt>
      <trkpt lat="48.74004" lon="2.48417">
        <ele>88</ele>
        <time>2023-01-24T14:36:48.761Z</time>
      </trkpt>
      <trkpt lat="48.73998" lon="2.48417">
        <ele>88</ele>
        <time>2023-01-24T14:36:52.768Z</time>
      </trkpt>
      <trkpt lat="48.7399" lon="2.48418">
        <ele>88</ele>
        <time>2023-01-24T14:36:57.475Z</time>
      </trkpt>
      <trkpt lat="48.73985" lon="2.48419">
        <ele>88</ele>
        <time>2023-01-24T14:37:01.485Z</time>
      </trkpt>
      <trkpt lat="48.73979" lon="2.48421">
        <ele>88</ele>
        <time>2023-01-24T14:37:06.095Z</time>
      </trkpt>
      <trkpt lat="48.73976" lon="2.48425">
        <ele>88</ele>
        <time>2023-01-24T14:37:10.104Z</time>
      </trkpt>
      <trkpt lat="48.73974" lon="2.48431">
        <ele>87</ele>
        <time>2023-01-24T14:37:14.110Z</time>
      </trkpt>
      <trkpt lat="48.73973" lon="2.48437">
        <ele>87</ele>
        <time>2023-01-24T14:37:17.717Z</time>
      </trkpt>
      <trkpt lat="48.73976" lon="2.48445">
        <ele>87</ele>
        <time>2023-01-24T14:37:22.725Z</time>
      </trkpt>
      <trkpt lat="48.73982" lon="2.48447">
        <ele>87</ele>
        <time>2023-01-24T14:37:27.436Z</time>
      </trkpt>
      <trkpt lat="48.73984" lon="2.48445">
        <ele>87</ele>
        <time>2023-01-24T14:37:31.947Z</time>
      </trkpt>
      <trkpt lat="48.73988" lon="2.48446">
        <ele>88</ele>
        <time>2023-01-24T14:37:36.458Z</time>
      </trkpt>
      <trkpt lat="48.73994" lon="2.48449">
        <ele>88</ele>
        <time>2023-01-24T14:37:40.468Z</time>
      </trkpt>
      <trkpt lat="48.73998" lon="2.48445">
        <ele>88</ele>
        <time>2023-01-24T14:37:44.983Z</time>
      </trkpt>
      <trkpt lat="48.74003" lon="2.48451">
        <ele>88</ele>
        <time>2023-01-24T14:37:48.992Z</time>
      </trkpt>
      <trkpt lat="48.74008" lon="2.48451">
        <ele>88</ele>
        <time>2023-01-24T14:37:53.499Z</time>
      </trkpt>
      <trkpt lat="48.74014" lon="2.48447">
        <ele>88</ele>
        <time>2023-01-24T14:37:58.204Z</time>
      </trkpt>
      <trkpt lat="48.74019" lon="2.48448">
        <ele>86</ele>
        <time>2023-01-24T14:38:02.208Z</time>
      </trkpt>
      <trkpt lat="48.74026" lon="2.4845">
        <ele>86</ele>
        <time>2023-01-24T14:38:06.312Z</time>
      </trkpt>
      <trkpt lat="48.74033" lon="2.48451">
        <ele>86</ele>
        <time>2023-01-24T14:38:10.815Z</time>
      </trkpt>
      <trkpt lat="48.74039" lon="2.48452">
        <ele>86</ele>
        <time>2023-01-24T14:38:14.819Z</time>
      </trkpt>
      <trkpt lat="48.74045" lon="2.48452">
        <ele>85</ele>
        <time>2023-01-24T14:38:18.920Z</time>
      </trkpt>
      <trkpt lat="48.7405" lon="2.48453">
        <ele>85</ele>
        <time>2023-01-24T14:38:23.041Z</time>
      </trkpt>
      <trkpt lat="48.74055" lon="2.48453">
        <ele>85</ele>
        <time>2023-01-24T14:38:27.545Z</time>
      </trkpt>
      <trkpt lat="48.74058" lon="2.48452">
        <ele>85</ele>
        <time>2023-01-24T14:38:31.548Z</time>
      </trkpt>
      <trkpt lat="48.74062" lon="2.48452">
        <ele>85</ele>
        <time>2023-01-24T14:38:35.572Z</time>
      </trkpt>
      <trkpt lat="48.74066" lon="2.48453">
        <ele>85</ele>
        <time>2023-01-24T14:38:40.295Z</time>
      </trkpt>
      <trkpt lat="48.74071" lon="2.48454">
        <ele>85</ele>
        <time>2023-01-24T14:38:44.949Z</time>
      </trkpt>
      <trkpt lat="48.74076" lon="2.48453">
        <ele>85</ele>
        <time>2023-01-24T14:38:49.197Z</time>
      </trkpt>
      <trkpt lat="48.74081" lon="2.48454">
        <ele>85</ele>
        <time>2023-01-24T14:38:53.259Z</time>
      </trkpt>
      <trkpt lat="48.74087" lon="2.48455">
        <ele>85</ele>
        <time>2023-01-24T14:38:57.261Z</time>
      </trkpt>
      <trkpt lat="48.74093" lon="2.48456">
        <ele>85</ele>
        <time>2023-01-24T14:39:01.784Z</time>
      </trkpt>
      <trkpt lat="48.74096" lon="2.48458">
        <ele>85</ele>
        <time>2023-01-24T14:39:05.965Z</time>
      </trkpt>
      <trkpt lat="48.741" lon="2.4846">
        <ele>85</ele>
        <time>2023-01-24T14:39:10.568Z</time>
      </trkpt>
      <trkpt lat="48.74103" lon="2.4846">
        <ele>85</ele>
        <time>2023-01-24T14:39:14.730Z</time>
      </trkpt>
      <trkpt lat="48.74108" lon="2.48462">
        <ele>85</ele>
        <time>2023-01-24T14:39:19.491Z</time>
      </trkpt>
      <trkpt lat="48.74114" lon="2.48465">
        <ele>85</ele>
        <time>2023-01-24T14:39:24.109Z</time>
      </trkpt>
      <trkpt lat="48.74117" lon="2.48467">
        <ele>85</ele>
        <time>2023-01-24T14:39:28.214Z</time>
      </trkpt>
      <trkpt lat="48.74122" lon="2.48469">
        <ele>85</ele>
        <time>2023-01-24T14:39:32.975Z</time>
      </trkpt>
      <trkpt lat="48.74128" lon="2.48474">
        <ele>86</ele>
        <time>2023-01-24T14:39:37.118Z</time>
      </trkpt>
      <trkpt lat="48.74134" lon="2.48478">
        <ele>86</ele>
        <time>2023-01-24T14:39:41.339Z</time>
      </trkpt>
      <trkpt lat="48.7414" lon="2.48481">
        <ele>86</ele>
        <time>2023-01-24T14:39:45.640Z</time>
      </trkpt>
      <trkpt lat="48.74146" lon="2.48484">
        <ele>86</ele>
        <time>2023-01-24T14:39:50.342Z</time>
      </trkpt>
      <trkpt lat="48.74152" lon="2.48487">
        <ele>86</ele>
        <time>2023-01-24T14:39:54.563Z</time>
      </trkpt>
      <trkpt lat="48.74157" lon="2.48488">
        <ele>86</ele>
        <time>2023-01-24T14:39:58.885Z</time>
      </trkpt>
      <trkpt lat="48.74159" lon="2.4849">
        <ele>86</ele>
        <time>2023-01-24T14:40:03.122Z</time>
      </trkpt>
      <trkpt lat="48.74161" lon="2.48492">
        <ele>86</ele>
        <time>2023-01-24T14:40:07.625Z</time>
      </trkpt>
      <trkpt lat="48.74163" lon="2.48494">
        <ele>86</ele>
        <time>2023-01-24T14:40:12.005Z</time>
      </trkpt>
      <trkpt lat="48.74166" lon="2.48496">
        <ele>86</ele>
        <time>2023-01-24T14:40:16.524Z</time>
      </trkpt>
      <trkpt lat="48.7417" lon="2.48499">
        <ele>86</ele>
        <time>2023-01-24T14:40:20.304Z</time>
      </trkpt>
      <trkpt lat="48.74175" lon="2.48504">
        <ele>86</ele>
        <time>2023-01-24T14:40:24.545Z</time>
      </trkpt>
      <trkpt lat="48.74181" lon="2.48508">
        <ele>85</ele>
        <time>2023-01-24T14:40:28.945Z</time>
      </trkpt>
      <trkpt lat="48.74188" lon="2.48511">
        <ele>85</ele>
        <time>2023-01-24T14:40:33.246Z</time>
      </trkpt>
      <trkpt lat="48.74196" lon="2.48514">
        <ele>86</ele>
        <time>2023-01-24T14:40:37.749Z</time>
      </trkpt>
      <trkpt lat="48.74201" lon="2.48516">
        <ele>86</ele>
        <time>2023-01-24T14:40:41.751Z</time>
      </trkpt>
      <trkpt lat="48.74205" lon="2.48519">
        <ele>86</ele>
        <time>2023-01-24T14:40:46.051Z</time>
      </trkpt>
      <trkpt lat="48.74209" lon="2.48523">
        <ele>86</ele>
        <time>2023-01-24T14:40:50.252Z</time>
      </trkpt>
      <trkpt lat="48.74215" lon="2.48528">
        <ele>86</ele>
        <time>2023-01-24T14:40:54.953Z</time>
      </trkpt>
      <trkpt lat="48.74221" lon="2.48534">
        <ele>86</ele>
        <time>2023-01-24T14:40:59.273Z</time>
      </trkpt>
      <trkpt lat="48.74228" lon="2.48539">
        <ele>86</ele>
        <time>2023-01-24T14:41:03.692Z</time>
      </trkpt>
      <trkpt lat="48.74235" lon="2.48543">
        <ele>87</ele>
        <time>2023-01-24T14:41:08.136Z</time>
      </trkpt>
      <trkpt lat="48.74242" lon="2.48548">
        <ele>86</ele>
        <time>2023-01-24T14:41:12.689Z</time>
      </trkpt>
      <trkpt lat="48.74247" lon="2.48552">
        <ele>86</ele>
        <time>2023-01-24T14:41:16.589Z</time>
      </trkpt>
      <trkpt lat="48.74253" lon="2.48558">
        <ele>86</ele>
        <time>2023-01-24T14:41:20.448Z</time>
      </trkpt>
      <trkpt lat="48.7426" lon="2.48563">
        <ele>86</ele>
        <time>2023-01-24T14:41:25.129Z</time>
      </trkpt>
      <trkpt lat="48.74267" lon="2.48569">
        <ele>85</ele>
        <time>2023-01-24T14:41:29.489Z</time>
      </trkpt>
      <trkpt lat="48.74273" lon="2.48572">
        <ele>84</ele>
        <time>2023-01-24T14:41:33.750Z</time>
      </trkpt>
      <trkpt lat="48.74279" lon="2.48575">
        <ele>84</ele>
        <time>2023-01-24T14:41:37.510Z</time>
      </trkpt>
      <trkpt lat="48.74284" lon="2.48579">
        <ele>84</ele>
        <time>2023-01-24T14:41:41.929Z</time>
      </trkpt>
      <trkpt lat="48.74291" lon="2.48586">
        <ele>84</ele>
        <time>2023-01-24T14:41:45.948Z</time>
      </trkpt>
      <trkpt lat="48.74297" lon="2.4859">
        <ele>82</ele>
        <time>2023-01-24T14:41:49.707Z</time>
      </trkpt>
      <trkpt lat="48.74302" lon="2.48595">
        <ele>82</ele>
        <time>2023-01-24T14:41:54.327Z</time>
      </trkpt>
      <trkpt lat="48.74308" lon="2.486">
        <ele>82</ele>
        <time>2023-01-24T14:41:58.642Z</time>
      </trkpt>
      <trkpt lat="48.74312" lon="2.48604">
        <ele>82</ele>
        <time>2023-01-24T14:42:03.147Z</time>
      </trkpt>
      <trkpt lat="48.74318" lon="2.4861">
        <ele>82</ele>
        <time>2023-01-24T14:42:07.458Z</time>
      </trkpt>
      <trkpt lat="48.74323" lon="2.48616">
        <ele>81</ele>
        <time>2023-01-24T14:42:11.666Z</time>
      </trkpt>
      <trkpt lat="48.74327" lon="2.48622">
        <ele>81</ele>
        <time>2023-01-24T14:42:15.591Z</time>
      </trkpt>
      <trkpt lat="48.74332" lon="2.48629">
        <ele>82</ele>
        <time>2023-01-24T14:42:20.028Z</time>
      </trkpt>
      <trkpt lat="48.74338" lon="2.48636">
        <ele>82</ele>
        <time>2023-01-24T14:42:25.099Z</time>
      </trkpt>
      <trkpt lat="48.74344" lon="2.48643">
        <ele>82</ele>
        <time>2023-01-24T14:42:29.681Z</time>
      </trkpt>
      <trkpt lat="48.7435" lon="2.48649">
        <ele>80</ele>
        <time>2023-01-24T14:42:34.235Z</time>
      </trkpt>
      <trkpt lat="48.74356" lon="2.48656">
        <ele>80</ele>
        <time>2023-01-24T14:42:38.831Z</time>
      </trkpt>
      <trkpt lat="48.7436" lon="2.48666">
        <ele>80</ele>
        <time>2023-01-24T14:42:42.849Z</time>
      </trkpt>
      <trkpt lat="48.74364" lon="2.48673">
        <ele>80</ele>
        <time>2023-01-24T14:42:46.729Z</time>
      </trkpt>
      <trkpt lat="48.74369" lon="2.4868">
        <ele>80</ele>
        <time>2023-01-24T14:42:51.347Z</time>
      </trkpt>
      <trkpt lat="48.74373" lon="2.48686">
        <ele>80</ele>
        <time>2023-01-24T14:42:55.206Z</time>
      </trkpt>
      <trkpt lat="48.74377" lon="2.48692">
        <ele>76</ele>
        <time>2023-01-24T14:42:59.844Z</time>
      </trkpt>
      <trkpt lat="48.74379" lon="2.48698">
        <ele>76</ele>
        <time>2023-01-24T14:43:04.262Z</time>
      </trkpt>
      <trkpt lat="48.74382" lon="2.48705">
        <ele>76</ele>
        <time>2023-01-24T14:43:08.601Z</time>
      </trkpt>
      <trkpt lat="48.74385" lon="2.48711">
        <ele>76</ele>
        <time>2023-01-24T14:43:12.841Z</time>
      </trkpt>
      <trkpt lat="48.74389" lon="2.48717">
        <ele>76</ele>
        <time>2023-01-24T14:43:16.881Z</time>
      </trkpt>
      <trkpt lat="48.74393" lon="2.48723">
        <ele>76</ele>
        <time>2023-01-24T14:43:20.918Z</time>
      </trkpt>
      <trkpt lat="48.74398" lon="2.48729">
        <ele>76</ele>
        <time>2023-01-24T14:43:25.369Z</time>
      </trkpt>
      <trkpt lat="48.74401" lon="2.48736">
        <ele>76</ele>
        <time>2023-01-24T14:43:29.254Z</time>
      </trkpt>
      <trkpt lat="48.74406" lon="2.48743">
        <ele>74</ele>
        <time>2023-01-24T14:43:33.766Z</time>
      </trkpt>
      <trkpt lat="48.74409" lon="2.48749">
        <ele>74</ele>
        <time>2023-01-24T14:43:37.730Z</time>
      </trkpt>
      <trkpt lat="48.74413" lon="2.48756">
        <ele>74</ele>
        <time>2023-01-24T14:43:41.648Z</time>
      </trkpt>
      <trkpt lat="48.74417" lon="2.48763">
        <ele>74</ele>
        <time>2023-01-24T14:43:46.186Z</time>
      </trkpt>
      <trkpt lat="48.74421" lon="2.4877">
        <ele>75</ele>
        <time>2023-01-24T14:43:50.585Z</time>
      </trkpt>
      <trkpt lat="48.74424" lon="2.48778">
        <ele>75</ele>
        <time>2023-01-24T14:43:55.128Z</time>
      </trkpt>
      <trkpt lat="48.74426" lon="2.48784">
        <ele>75</ele>
        <time>2023-01-24T14:43:59.310Z</time>
      </trkpt>
      <trkpt lat="48.74429" lon="2.48793">
        <ele>76</ele>
        <time>2023-01-24T14:44:03.604Z</time>
      </trkpt>
      <trkpt lat="48.74431" lon="2.488">
        <ele>74</ele>
        <time>2023-01-24T14:44:07.706Z</time>
      </trkpt>
      <trkpt lat="48.74434" lon="2.48808">
        <ele>74</ele>
        <time>2023-01-24T14:44:12.244Z</time>
      </trkpt>
      <trkpt lat="48.74436" lon="2.48816">
        <ele>74</ele>
        <time>2023-01-24T14:44:16.322Z</time>
      </trkpt>
      <trkpt lat="48.74439" lon="2.48824">
        <ele>75</ele>
        <time>2023-01-24T14:44:20.762Z</time>
      </trkpt>
      <trkpt lat="48.74444" lon="2.48831">
        <ele>75</ele>
        <time>2023-01-24T14:44:24.738Z</time>
      </trkpt>
      <trkpt lat="48.74452" lon="2.48837">
        <ele>75</ele>
        <time>2023-01-24T14:44:29.196Z</time>
      </trkpt>
      <trkpt lat="48.74455" lon="2.48844">
        <ele>75</ele>
        <time>2023-01-24T14:44:33.669Z</time>
      </trkpt>
      <trkpt lat="48.74458" lon="2.4885">
        <ele>76</ele>
        <time>2023-01-24T14:44:37.555Z</time>
      </trkpt>
      <trkpt lat="48.7446" lon="2.48857">
        <ele>73</ele>
        <time>2023-01-24T14:44:41.967Z</time>
      </trkpt>
      <trkpt lat="48.74463" lon="2.48863">
        <ele>73</ele>
        <time>2023-01-24T14:44:46.106Z</time>
      </trkpt>
      <trkpt lat="48.74465" lon="2.4887">
        <ele>73</ele>
        <time>2023-01-24T14:44:49.928Z</time>
      </trkpt>
      <trkpt lat="48.74468" lon="2.48877">
        <ele>72</ele>
        <time>2023-01-24T14:44:55.116Z</time>
      </trkpt>
      <trkpt lat="48.74472" lon="2.48885">
        <ele>72</ele>
        <time>2023-01-24T14:44:59.247Z</time>
      </trkpt>
      <trkpt lat="48.74475" lon="2.48892">
        <ele>72</ele>
        <time>2023-01-24T14:45:03.459Z</time>
      </trkpt>
      <trkpt lat="48.74478" lon="2.48899">
        <ele>72</ele>
        <time>2023-01-24T14:45:07.387Z</time>
      </trkpt>
      <trkpt lat="48.74479" lon="2.48908">
        <ele>72</ele>
        <time>2023-01-24T14:45:12.100Z</time>
      </trkpt>
      <trkpt lat="48.74481" lon="2.48916">
        <ele>72</ele>
        <time>2023-01-24T14:45:16.718Z</time>
      </trkpt>
      <trkpt lat="48.74486" lon="2.48924">
        <ele>68</ele>
        <time>2023-01-24T14:45:21.238Z</time>
      </trkpt>
      <trkpt lat="48.74488" lon="2.48929">
        <ele>68</ele>
        <time>2023-01-24T14:45:25.316Z</time>
      </trkpt>
      <trkpt lat="48.7449" lon="2.48934">
        <ele>69</ele>
        <time>2023-01-24T14:45:29.387Z</time>
      </trkpt>
      <trkpt lat="48.74492" lon="2.48942">
        <ele>69</ele>
        <time>2023-01-24T14:45:33.951Z</time>
      </trkpt>
      <trkpt lat="48.74494" lon="2.48949">
        <ele>69</ele>
        <time>2023-01-24T14:45:38.089Z</time>
      </trkpt>
      <trkpt lat="48.74498" lon="2.48958">
        <ele>69</ele>
        <time>2023-01-24T14:45:42.687Z</time>
      </trkpt>
      <trkpt lat="48.74501" lon="2.48965">
        <ele>70</ele>
        <time>2023-01-24T14:45:47.265Z</time>
      </trkpt>
      <trkpt lat="48.74503" lon="2.48973">
        <ele>70</ele>
        <time>2023-01-24T14:45:51.645Z</time>
      </trkpt>
      <trkpt lat="48.74505" lon="2.48981">
        <ele>70</ele>
        <time>2023-01-24T14:45:56.243Z</time>
      </trkpt>
      <trkpt lat="48.74508" lon="2.48988">
        <ele>72</ele>
        <time>2023-01-24T14:46:00.641Z</time>
      </trkpt>
      <trkpt lat="48.7451" lon="2.48996">
        <ele>72</ele>
        <time>2023-01-24T14:46:05.134Z</time>
      </trkpt>
      <trkpt lat="48.74512" lon="2.49">
        <ele>72</ele>
        <time>2023-01-24T14:46:09.620Z</time>
      </trkpt>
      <trkpt lat="48.74513" lon="2.49005">
        <ele>72</ele>
        <time>2023-01-24T14:46:14.118Z</time>
      </trkpt>
      <trkpt lat="48.74515" lon="2.49012">
        <ele>69</ele>
        <time>2023-01-24T14:46:18.708Z</time>
      </trkpt>
      <trkpt lat="48.74518" lon="2.49019">
        <ele>71</ele>
        <time>2023-01-24T14:46:22.673Z</time>
      </trkpt>
      <trkpt lat="48.74519" lon="2.49025">
        <ele>71</ele>
        <time>2023-01-24T14:46:27.192Z</time>
      </trkpt>
      <trkpt lat="48.74521" lon="2.49032">
        <ele>71</ele>
        <time>2023-01-24T14:46:31.712Z</time>
      </trkpt>
      <trkpt lat="48.74524" lon="2.4904">
        <ele>71</ele>
        <time>2023-01-24T14:46:36.387Z</time>
      </trkpt>
      <trkpt lat="48.74526" lon="2.49048">
        <ele>71</ele>
        <time>2023-01-24T14:46:41.093Z</time>
      </trkpt>
      <trkpt lat="48.74528" lon="2.49055">
        <ele>71</ele>
        <time>2023-01-24T14:46:45.143Z</time>
      </trkpt>
      <trkpt lat="48.74531" lon="2.49062">
        <ele>71</ele>
        <time>2023-01-24T14:46:49.522Z</time>
      </trkpt>
      <trkpt lat="48.74533" lon="2.4907">
        <ele>71</ele>
        <time>2023-01-24T14:46:53.719Z</time>
      </trkpt>
      <trkpt lat="48.74535" lon="2.49078">
        <ele>71</ele>
        <time>2023-01-24T14:46:57.658Z</time>
      </trkpt>
      <trkpt lat="48.74534" lon="2.49088">
        <ele>71</ele>
        <time>2023-01-24T14:47:02.147Z</time>
      </trkpt>
      <trkpt lat="48.74535" lon="2.49096">
        <ele>71</ele>
        <time>2023-01-24T14:47:06.373Z</time>
      </trkpt>
      <trkpt lat="48.74538" lon="2.49105">
        <ele>71</ele>
        <time>2023-01-24T14:47:10.312Z</time>
      </trkpt>
      <trkpt lat="48.74541" lon="2.49113">
        <ele>71</ele>
        <time>2023-01-24T14:47:14.672Z</time>
      </trkpt>
      <trkpt lat="48.74544" lon="2.49118">
        <ele>71</ele>
        <time>2023-01-24T14:47:18.511Z</time>
      </trkpt>
      <trkpt lat="48.74549" lon="2.49124">
        <ele>71</ele>
        <time>2023-01-24T14:47:23.106Z</time>
      </trkpt>
      <trkpt lat="48.74552" lon="2.49133">
        <ele>71</ele>
        <time>2023-01-24T14:47:27.387Z</time>
      </trkpt>
      <trkpt lat="48.74556" lon="2.49145">
        <ele>71</ele>
        <time>2023-01-24T14:47:31.630Z</time>
      </trkpt>
      <trkpt lat="48.74559" lon="2.49157">
        <ele>72</ele>
        <time>2023-01-24T14:47:36.691Z</time>
      </trkpt>
      <trkpt lat="48.74562" lon="2.49164">
        <ele>72</ele>
        <time>2023-01-24T14:47:40.332Z</time>
      </trkpt>
      <trkpt lat="48.74564" lon="2.49171">
        <ele>72</ele>
        <time>2023-01-24T14:47:45.045Z</time>
      </trkpt>
      <trkpt lat="48.74567" lon="2.49175">
        <ele>72</ele>
        <time>2023-01-24T14:47:48.753Z</time>
      </trkpt>
      <trkpt lat="48.7457" lon="2.4918">
        <ele>72</ele>
        <time>2023-01-24T14:47:53.491Z</time>
      </trkpt>
      <trkpt lat="48.74573" lon="2.49188">
        <ele>72</ele>
        <time>2023-01-24T14:47:58.069Z</time>
      </trkpt>
      <trkpt lat="48.74576" lon="2.49197">
        <ele>72</ele>
        <time>2023-01-24T14:48:02.690Z</time>
      </trkpt>
      <trkpt lat="48.74578" lon="2.49204">
        <ele>72</ele>
        <time>2023-01-24T14:48:06.643Z</time>
      </trkpt>
      <trkpt lat="48.74581" lon="2.4921">
        <ele>70</ele>
        <time>2023-01-24T14:48:10.721Z</time>
      </trkpt>
      <trkpt lat="48.74583" lon="2.49215">
        <ele>70</ele>
        <time>2023-01-24T14:48:14.559Z</time>
      </trkpt>
      <trkpt lat="48.74585" lon="2.49222">
        <ele>70</ele>
        <time>2023-01-24T14:48:19.097Z</time>
      </trkpt>
      <trkpt lat="48.74588" lon="2.49231">
        <ele>70</ele>
        <time>2023-01-24T14:48:23.294Z</time>
      </trkpt>
      <trkpt lat="48.74591" lon="2.49242">
        <ele>67</ele>
        <time>2023-01-24T14:48:27.912Z</time>
      </trkpt>
      <trkpt lat="48.74593" lon="2.4925">
        <ele>67</ele>
        <time>2023-01-24T14:48:31.891Z</time>
      </trkpt>
      <trkpt lat="48.74595" lon="2.49261">
        <ele>67</ele>
        <time>2023-01-24T14:48:36.449Z</time>
      </trkpt>
      <trkpt lat="48.74597" lon="2.49274">
        <ele>66</ele>
        <time>2023-01-24T14:48:41.141Z</time>
      </trkpt>
      <trkpt lat="48.74599" lon="2.49283">
        <ele>63</ele>
        <time>2023-01-24T14:48:45.743Z</time>
      </trkpt>
      <trkpt lat="48.74603" lon="2.49292">
        <ele>64</ele>
        <time>2023-01-24T14:48:50.043Z</time>
      </trkpt>
      <trkpt lat="48.74607" lon="2.49301">
        <ele>64</ele>
        <time>2023-01-24T14:48:54.522Z</time>
      </trkpt>
      <trkpt lat="48.74611" lon="2.49309">
        <ele>64</ele>
        <time>2023-01-24T14:48:58.520Z</time>
      </trkpt>
      <trkpt lat="48.74614" lon="2.49318">
        <ele>64</ele>
        <time>2023-01-24T14:49:03.042Z</time>
      </trkpt>
      <trkpt lat="48.74617" lon="2.49328">
        <ele>67</ele>
        <time>2023-01-24T14:49:07.007Z</time>
      </trkpt>
      <trkpt lat="48.74621" lon="2.49338">
        <ele>67</ele>
        <time>2023-01-24T14:49:11.444Z</time>
      </trkpt>
      <trkpt lat="48.74626" lon="2.49353">
        <ele>69</ele>
        <time>2023-01-24T14:49:15.702Z</time>
      </trkpt>
      <trkpt lat="48.74631" lon="2.49361">
        <ele>69</ele>
        <time>2023-01-24T14:49:20.340Z</time>
      </trkpt>
      <trkpt lat="48.74634" lon="2.49368">
        <ele>69</ele>
        <time>2023-01-24T14:49:24.387Z</time>
      </trkpt>
      <trkpt lat="48.74638" lon="2.49376">
        <ele>70</ele>
        <time>2023-01-24T14:49:29.073Z</time>
      </trkpt>
      <trkpt lat="48.74642" lon="2.49384">
        <ele>70</ele>
        <time>2023-01-24T14:49:33.307Z</time>
      </trkpt>
      <trkpt lat="48.74644" lon="2.49392">
        <ele>70</ele>
        <time>2023-01-24T14:49:37.253Z</time>
      </trkpt>
      <trkpt lat="48.74646" lon="2.49401">
        <ele>70</ele>
        <time>2023-01-24T14:49:41.784Z</time>
      </trkpt>
      <trkpt lat="48.74648" lon="2.49408">
        <ele>71</ele>
        <time>2023-01-24T14:49:45.868Z</time>
      </trkpt>
      <trkpt lat="48.7465" lon="2.49416">
        <ele>71</ele>
        <time>2023-01-24T14:49:50.266Z</time>
      </trkpt>
      <trkpt lat="48.74652" lon="2.49422">
        <ele>71</ele>
        <time>2023-01-24T14:49:54.285Z</time>
      </trkpt>
      <trkpt lat="48.74655" lon="2.49431">
        <ele>68</ele>
        <time>2023-01-24T14:49:58.666Z</time>
      </trkpt>
      <trkpt lat="48.74657" lon="2.4944">
        <ele>68</ele>
        <time>2023-01-24T14:50:02.988Z</time>
      </trkpt>
      <trkpt lat="48.74659" lon="2.49447">
        <ele>68</ele>
        <time>2023-01-24T14:50:07.029Z</time>
      </trkpt>
      <trkpt lat="48.74661" lon="2.49457">
        <ele>68</ele>
        <time>2023-01-24T14:50:11.389Z</time>
      </trkpt>
      <trkpt lat="48.74663" lon="2.49464">
        <ele>69</ele>
        <time>2023-01-24T14:50:15.348Z</time>
      </trkpt>
      <trkpt lat="48.74666" lon="2.4947">
        <ele>69</ele>
        <time>2023-01-24T14:50:19.888Z</time>
      </trkpt>
      <trkpt lat="48.74668" lon="2.49476">
        <ele>69</ele>
        <time>2023-01-24T14:50:24.487Z</time>
      </trkpt>
      <trkpt lat="48.74669" lon="2.49484">
        <ele>69</ele>
        <time>2023-01-24T14:50:28.910Z</time>
      </trkpt>
      <trkpt lat="48.74672" lon="2.4949">
        <ele>69</ele>
        <time>2023-01-24T14:50:33.305Z</time>
      </trkpt>
      <trkpt lat="48.74673" lon="2.49497">
        <ele>69</ele>
        <time>2023-01-24T14:50:37.844Z</time>
      </trkpt>
      <trkpt lat="48.74674" lon="2.49499">
        <ele>69</ele>
        <time>2023-01-24T14:50:41.863Z</time>
      </trkpt>
      <trkpt lat="48.7468" lon="2.49508">
        <ele>69</ele>
        <time>2023-01-24T14:51:46.167Z</time>
      </trkpt>
      <trkpt lat="48.7468" lon="2.49508">
        <ele>69</ele>
        <time>2023-01-24T14:51:51.161Z</time>
      </trkpt>
      <trkpt lat="48.7468" lon="2.49508">
        <ele>69</ele>
        <time>2023-01-24T14:51:56.147Z</time>
      </trkpt>
      <trkpt lat="48.74681" lon="2.49509">
        <ele>64</ele>
        <time>2023-01-24T14:52:01.136Z</time>
      </trkpt>
      <trkpt lat="48.74682" lon="2.49515">
        <ele>64</ele>
        <time>2023-01-24T14:52:06.147Z</time>
      </trkpt>
      <trkpt lat="48.74681" lon="2.49518">
        <ele>64</ele>
        <time>2023-01-24T14:52:09.942Z</time>
      </trkpt>
      <trkpt lat="48.74676" lon="2.49517">
        <ele>69</ele>
        <time>2023-01-24T14:52:14.387Z</time>
      </trkpt>
      <trkpt lat="48.74673" lon="2.49515">
        <ele>69</ele>
        <time>2023-01-24T14:52:18.387Z</time>
      </trkpt>
      <trkpt lat="48.7467" lon="2.49514">
        <ele>69</ele>
        <time>2023-01-24T14:52:22.757Z</time>
      </trkpt>
      <trkpt lat="48.74667" lon="2.49512">
        <ele>69</ele>
        <time>2023-01-24T14:52:27.350Z</time>
      </trkpt>
      <trkpt lat="48.74665" lon="2.4951">
        <ele>69</ele>
        <time>2023-01-24T14:52:31.387Z</time>
      </trkpt>
      <trkpt lat="48.74663" lon="2.49507">
        <ele>69</ele>
        <time>2023-01-24T14:52:35.932Z</time>
      </trkpt>
      <trkpt lat="48.7466" lon="2.49508">
        <ele>69</ele>
        <time>2023-01-24T14:52:40.491Z</time>
      </trkpt>
      <trkpt lat="48.74656" lon="2.49511">
        <ele>69</ele>
        <time>2023-01-24T14:52:44.891Z</time>
      </trkpt>
      <trkpt lat="48.74652" lon="2.49514">
        <ele>72</ele>
        <time>2023-01-24T14:52:48.870Z</time>
      </trkpt>
      <trkpt lat="48.74648" lon="2.49516">
        <ele>72</ele>
        <time>2023-01-24T14:52:52.810Z</time>
      </trkpt>
      <trkpt lat="48.74643" lon="2.49519">
        <ele>72</ele>
        <time>2023-01-24T14:52:57.330Z</time>
      </trkpt>
      <trkpt lat="48.74639" lon="2.49523">
        <ele>72</ele>
        <time>2023-01-24T14:53:01.810Z</time>
      </trkpt>
      <trkpt lat="48.74634" lon="2.49529">
        <ele>72</ele>
        <time>2023-01-24T14:53:06.344Z</time>
      </trkpt>
      <trkpt lat="48.7463" lon="2.49533">
        <ele>72</ele>
        <time>2023-01-24T14:53:10.870Z</time>
      </trkpt>
      <trkpt lat="48.74626" lon="2.49536">
        <ele>72</ele>
        <time>2023-01-24T14:53:15.245Z</time>
      </trkpt>
      <trkpt lat="48.74621" lon="2.4954">
        <ele>74</ele>
        <time>2023-01-24T14:53:19.638Z</time>
      </trkpt>
      <trkpt lat="48.74616" lon="2.49545">
        <ele>76</ele>
        <time>2023-01-24T14:53:24.048Z</time>
      </trkpt>
      <trkpt lat="48.74611" lon="2.49553">
        <ele>76</ele>
        <time>2023-01-24T14:53:28.236Z</time>
      </trkpt>
      <trkpt lat="48.74606" lon="2.4956">
        <ele>76</ele>
        <time>2023-01-24T14:53:32.915Z</time>
      </trkpt>
      <trkpt lat="48.74602" lon="2.49566">
        <ele>76</ele>
        <time>2023-01-24T14:53:37.407Z</time>
      </trkpt>
      <trkpt lat="48.74599" lon="2.49567">
        <ele>76</ele>
        <time>2023-01-24T14:53:41.193Z</time>
      </trkpt>
      <trkpt lat="48.74596" lon="2.49569">
        <ele>78</ele>
        <time>2023-01-24T14:53:45.713Z</time>
      </trkpt>
      <trkpt lat="48.74592" lon="2.49573">
        <ele>79</ele>
        <time>2023-01-24T14:53:49.953Z</time>
      </trkpt>
      <trkpt lat="48.74588" lon="2.49578">
        <ele>79</ele>
        <time>2023-01-24T14:53:54.114Z</time>
      </trkpt>
      <trkpt lat="48.74585" lon="2.49583">
        <ele>79</ele>
        <time>2023-01-24T14:53:58.013Z</time>
      </trkpt>
      <trkpt lat="48.7458" lon="2.49586">
        <ele>79</ele>
        <time>2023-01-24T14:54:01.892Z</time>
      </trkpt>
      <trkpt lat="48.74577" lon="2.49589">
        <ele>79</ele>
        <time>2023-01-24T14:54:06.133Z</time>
      </trkpt>
      <trkpt lat="48.74572" lon="2.49593">
        <ele>79</ele>
        <time>2023-01-24T14:54:10.553Z</time>
      </trkpt>
      <trkpt lat="48.74567" lon="2.49597">
        <ele>82</ele>
        <time>2023-01-24T14:54:15.046Z</time>
      </trkpt>
      <trkpt lat="48.74563" lon="2.496">
        <ele>81</ele>
        <time>2023-01-24T14:54:19.472Z</time>
      </trkpt>
      <trkpt lat="48.74558" lon="2.49603">
        <ele>81</ele>
        <time>2023-01-24T14:54:23.933Z</time>
      </trkpt>
      <trkpt lat="48.74554" lon="2.49608">
        <ele>81</ele>
        <time>2023-01-24T14:54:28.387Z</time>
      </trkpt>
      <trkpt lat="48.7455" lon="2.49611">
        <ele>81</ele>
        <time>2023-01-24T14:54:32.661Z</time>
      </trkpt>
      <trkpt lat="48.74546" lon="2.49616">
        <ele>81</ele>
        <time>2023-01-24T14:54:36.962Z</time>
      </trkpt>
      <trkpt lat="48.74541" lon="2.49619">
        <ele>85</ele>
        <time>2023-01-24T14:54:41.217Z</time>
      </trkpt>
      <trkpt lat="48.74536" lon="2.49624">
        <ele>85</ele>
        <time>2023-01-24T14:54:45.689Z</time>
      </trkpt>
      <trkpt lat="48.74532" lon="2.49629">
        <ele>83</ele>
        <time>2023-01-24T14:54:50.094Z</time>
      </trkpt>
      <trkpt lat="48.74529" lon="2.49628">
        <ele>83</ele>
        <time>2023-01-24T14:54:54.256Z</time>
      </trkpt>
      <trkpt lat="48.74523" lon="2.49631">
        <ele>83</ele>
        <time>2023-01-24T14:54:58.761Z</time>
      </trkpt>
      <trkpt lat="48.74519" lon="2.49642">
        <ele>83</ele>
        <time>2023-01-24T14:55:03.273Z</time>
      </trkpt>
      <trkpt lat="48.74517" lon="2.49648">
        <ele>83</ele>
        <time>2023-01-24T14:55:07.883Z</time>
      </trkpt>
      <trkpt lat="48.74514" lon="2.49649">
        <ele>89</ele>
        <time>2023-01-24T14:55:11.987Z</time>
      </trkpt>
      <trkpt lat="48.7451" lon="2.49652">
        <ele>89</ele>
        <time>2023-01-24T14:55:16.569Z</time>
      </trkpt>
      <trkpt lat="48.74504" lon="2.4966">
        <ele>87</ele>
        <time>2023-01-24T14:55:20.548Z</time>
      </trkpt>
      <trkpt lat="48.74498" lon="2.49669">
        <ele>87</ele>
        <time>2023-01-24T14:55:24.808Z</time>
      </trkpt>
      <trkpt lat="48.74494" lon="2.49674">
        <ele>87</ele>
        <time>2023-01-24T14:55:29.267Z</time>
      </trkpt>
      <trkpt lat="48.74491" lon="2.4968">
        <ele>87</ele>
        <time>2023-01-24T14:55:33.870Z</time>
      </trkpt>
      <trkpt lat="48.74487" lon="2.49687">
        <ele>86</ele>
        <time>2023-01-24T14:55:38.246Z</time>
      </trkpt>
      <trkpt lat="48.74483" lon="2.49692">
        <ele>90</ele>
        <time>2023-01-24T14:55:42.542Z</time>
      </trkpt>
      <trkpt lat="48.7448" lon="2.49698">
        <ele>90</ele>
        <time>2023-01-24T14:55:46.387Z</time>
      </trkpt>
      <trkpt lat="48.74477" lon="2.49701">
        <ele>90</ele>
        <time>2023-01-24T14:55:51.319Z</time>
      </trkpt>
      <trkpt lat="48.74473" lon="2.49706">
        <ele>90</ele>
        <time>2023-01-24T14:55:55.670Z</time>
      </trkpt>
      <trkpt lat="48.7447" lon="2.49712">
        <ele>89</ele>
        <time>2023-01-24T14:56:00.029Z</time>
      </trkpt>
      <trkpt lat="48.74467" lon="2.49717">
        <ele>89</ele>
        <time>2023-01-24T14:56:04.374Z</time>
      </trkpt>
      <trkpt lat="48.74463" lon="2.49725">
        <ele>89</ele>
        <time>2023-01-24T14:56:08.705Z</time>
      </trkpt>
      <trkpt lat="48.7446" lon="2.49733">
        <ele>89</ele>
        <time>2023-01-24T14:56:13.104Z</time>
      </trkpt>
      <trkpt lat="48.74457" lon="2.49741">
        <ele>92</ele>
        <time>2023-01-24T14:56:17.524Z</time>
      </trkpt>
      <trkpt lat="48.74454" lon="2.49751">
        <ele>92</ele>
        <time>2023-01-24T14:56:21.924Z</time>
      </trkpt>
      <trkpt lat="48.74451" lon="2.49761">
        <ele>92</ele>
        <time>2023-01-24T14:56:25.909Z</time>
      </trkpt>
      <trkpt lat="48.74449" lon="2.49772">
        <ele>92</ele>
        <time>2023-01-24T14:56:30.530Z</time>
      </trkpt>
      <trkpt lat="48.74449" lon="2.49782">
        <ele>92</ele>
        <time>2023-01-24T14:56:34.786Z</time>
      </trkpt>
      <trkpt lat="48.7445" lon="2.49794">
        <ele>91</ele>
        <time>2023-01-24T14:56:39.606Z</time>
      </trkpt>
      <trkpt lat="48.74451" lon="2.49804">
        <ele>91</ele>
        <time>2023-01-24T14:56:44.104Z</time>
      </trkpt>
      <trkpt lat="48.74451" lon="2.49815">
        <ele>91</ele>
        <time>2023-01-24T14:56:48.243Z</time>
      </trkpt>
      <trkpt lat="48.74447" lon="2.49828">
        <ele>90</ele>
        <time>2023-01-24T14:56:52.718Z</time>
      </trkpt>
      <trkpt lat="48.74445" lon="2.4984">
        <ele>90</ele>
        <time>2023-01-24T14:56:56.988Z</time>
      </trkpt>
      <trkpt lat="48.7444" lon="2.49848">
        <ele>90</ele>
        <time>2023-01-24T14:57:00.834Z</time>
      </trkpt>
      <trkpt lat="48.74436" lon="2.49855">
        <ele>90</ele>
        <time>2023-01-24T14:57:05.173Z</time>
      </trkpt>
      <trkpt lat="48.74431" lon="2.4986">
        <ele>90</ele>
        <time>2023-01-24T14:57:09.402Z</time>
      </trkpt>
      <trkpt lat="48.74428" lon="2.49861">
        <ele>93</ele>
        <time>2023-01-24T14:57:13.248Z</time>
      </trkpt>
      <trkpt lat="48.74423" lon="2.49864">
        <ele>93</ele>
        <time>2023-01-24T14:57:17.685Z</time>
      </trkpt>
      <trkpt lat="48.74419" lon="2.49868">
        <ele>93</ele>
        <time>2023-01-24T14:57:22.242Z</time>
      </trkpt>
      <trkpt lat="48.74415" lon="2.49869">
        <ele>93</ele>
        <time>2023-01-24T14:57:26.320Z</time>
      </trkpt>
      <trkpt lat="48.7441" lon="2.49873">
        <ele>93</ele>
        <time>2023-01-24T14:57:30.881Z</time>
      </trkpt>
      <trkpt lat="48.74406" lon="2.49876">
        <ele>91</ele>
        <time>2023-01-24T14:57:35.127Z</time>
      </trkpt>
      <trkpt lat="48.74402" lon="2.49879">
        <ele>93</ele>
        <time>2023-01-24T14:57:39.388Z</time>
      </trkpt>
      <trkpt lat="48.74397" lon="2.49881">
        <ele>93</ele>
        <time>2023-01-24T14:57:43.692Z</time>
      </trkpt>
      <trkpt lat="48.74394" lon="2.49887">
        <ele>93</ele>
        <time>2023-01-24T14:57:48.252Z</time>
      </trkpt>
      <trkpt lat="48.7439" lon="2.49893">
        <ele>93</ele>
        <time>2023-01-24T14:57:52.670Z</time>
      </trkpt>
      <trkpt lat="48.74386" lon="2.49897">
        <ele>93</ele>
        <time>2023-01-24T14:57:56.950Z</time>
      </trkpt>
      <trkpt lat="48.74381" lon="2.49902">
        <ele>93</ele>
        <time>2023-01-24T14:58:00.665Z</time>
      </trkpt>
      <trkpt lat="48.74376" lon="2.49908">
        <ele>92</ele>
        <time>2023-01-24T14:58:05.444Z</time>
      </trkpt>
      <trkpt lat="48.7437" lon="2.49913">
        <ele>94</ele>
        <time>2023-01-24T14:58:09.721Z</time>
      </trkpt>
      <trkpt lat="48.74366" lon="2.49916">
        <ele>94</ele>
        <time>2023-01-24T14:58:13.659Z</time>
      </trkpt>
      <trkpt lat="48.74362" lon="2.49921">
        <ele>94</ele>
        <time>2023-01-24T14:58:17.578Z</time>
      </trkpt>
      <trkpt lat="48.74356" lon="2.49927">
        <ele>94</ele>
        <time>2023-01-24T14:58:22.137Z</time>
      </trkpt>
      <trkpt lat="48.74351" lon="2.4993">
        <ele>94</ele>
        <time>2023-01-24T14:58:26.457Z</time>
      </trkpt>
      <trkpt lat="48.74347" lon="2.49934">
        <ele>93</ele>
        <time>2023-01-24T14:58:30.577Z</time>
      </trkpt>
      <trkpt lat="48.74343" lon="2.4994">
        <ele>94</ele>
        <time>2023-01-24T14:58:34.817Z</time>
      </trkpt>
      <trkpt lat="48.74338" lon="2.49943">
        <ele>94</ele>
        <time>2023-01-24T14:58:39.123Z</time>
      </trkpt>
      <trkpt lat="48.74334" lon="2.49947">
        <ele>94</ele>
        <time>2023-01-24T14:58:43.716Z</time>
      </trkpt>
      <trkpt lat="48.74329" lon="2.49951">
        <ele>94</ele>
        <time>2023-01-24T14:58:48.096Z</time>
      </trkpt>
      <trkpt lat="48.74324" lon="2.49956">
        <ele>94</ele>
        <time>2023-01-24T14:58:52.336Z</time>
      </trkpt>
      <trkpt lat="48.74319" lon="2.49961">
        <ele>96</ele>
        <time>2023-01-24T14:58:56.997Z</time>
      </trkpt>
      <trkpt lat="48.74315" lon="2.49965">
        <ele>96</ele>
        <time>2023-01-24T14:59:00.776Z</time>
      </trkpt>
      <trkpt lat="48.74309" lon="2.49949">
        <ele>96</ele>
        <time>2023-01-24T14:59:05.177Z</time>
      </trkpt>
      <trkpt lat="48.74304" lon="2.49949">
        <ele>96</ele>
        <time>2023-01-24T14:59:09.682Z</time>
      </trkpt>
      <trkpt lat="48.74301" lon="2.4995">
        <ele>96</ele>
        <time>2023-01-24T14:59:13.686Z</time>
      </trkpt>
      <trkpt lat="48.74298" lon="2.49957">
        <ele>96</ele>
        <time>2023-01-24T14:59:18.379Z</time>
      </trkpt>
      <trkpt lat="48.74292" lon="2.49963">
        <ele>96</ele>
        <time>2023-01-24T14:59:22.950Z</time>
      </trkpt>
      <trkpt lat="48.74286" lon="2.49964">
        <ele>98</ele>
        <time>2023-01-24T14:59:27.051Z</time>
      </trkpt>
      <trkpt lat="48.74282" lon="2.49966">
        <ele>98</ele>
        <time>2023-01-24T14:59:31.075Z</time>
      </trkpt>
      <trkpt lat="48.74277" lon="2.49969">
        <ele>98</ele>
        <time>2023-01-24T14:59:35.077Z</time>
      </trkpt>
      <trkpt lat="48.74272" lon="2.49974">
        <ele>98</ele>
        <time>2023-01-24T14:59:39.580Z</time>
      </trkpt>
      <trkpt lat="48.74267" lon="2.49978">
        <ele>98</ele>
        <time>2023-01-24T14:59:43.681Z</time>
      </trkpt>
      <trkpt lat="48.74263" lon="2.49983">
        <ele>100</ele>
        <time>2023-01-24T14:59:47.823Z</time>
      </trkpt>
      <trkpt lat="48.74261" lon="2.49986">
        <ele>98</ele>
        <time>2023-01-24T14:59:52.325Z</time>
      </trkpt>
      <trkpt lat="48.74261" lon="2.4999">
        <ele>98</ele>
        <time>2023-01-24T14:59:56.848Z</time>
      </trkpt>
      <trkpt lat="48.74259" lon="2.49993">
        <ele>98</ele>
        <time>2023-01-24T15:00:05.852Z</time>
      </trkpt>
      <trkpt lat="48.74257" lon="2.49995">
        <ele>98</ele>
        <time>2023-01-24T15:00:10.855Z</time>
      </trkpt>
      <trkpt lat="48.74255" lon="2.49996">
        <ele>98</ele>
        <time>2023-01-24T15:00:15.976Z</time>
      </trkpt>
      <trkpt lat="48.74253" lon="2.49998">
        <ele>98</ele>
        <time>2023-01-24T15:00:20.145Z</time>
      </trkpt>
      <trkpt lat="48.74252" lon="2.49999">
        <ele>98</ele>
        <time>2023-01-24T15:00:25.103Z</time>
      </trkpt>
      <trkpt lat="48.74251" lon="2.5">
        <ele>98</ele>
        <time>2023-01-24T15:07:41.105Z</time>
      </trkpt>
      <trkpt lat="48.74249" lon="2.49998">
        <ele>98</ele>
        <time>2023-01-24T15:07:46.109Z</time>
      </trkpt>
      <trkpt lat="48.74247" lon="2.49997">
        <ele>98</ele>
        <time>2023-01-24T15:07:51.113Z</time>
      </trkpt>
      <trkpt lat="48.74244" lon="2.49996">
        <ele>98</ele>
        <time>2023-01-24T15:07:55.127Z</time>
      </trkpt>
      <trkpt lat="48.74241" lon="2.49996">
        <ele>98</ele>
        <time>2023-01-24T15:07:59.635Z</time>
      </trkpt>
      <trkpt lat="48.74239" lon="2.5">
        <ele>98</ele>
        <time>2023-01-24T15:08:04.207Z</time>
      </trkpt>
      <trkpt lat="48.74236" lon="2.50003">
        <ele>98</ele>
        <time>2023-01-24T15:08:08.246Z</time>
      </trkpt>
      <trkpt lat="48.74233" lon="2.50006">
        <ele>98</ele>
        <time>2023-01-24T15:08:12.250Z</time>
      </trkpt>
      <trkpt lat="48.74229" lon="2.5001">
        <ele>98</ele>
        <time>2023-01-24T15:08:16.755Z</time>
      </trkpt>
      <trkpt lat="48.74225" lon="2.50013">
        <ele>98</ele>
        <time>2023-01-24T15:08:20.760Z</time>
      </trkpt>
      <trkpt lat="48.7422" lon="2.50015">
        <ele>96</ele>
        <time>2023-01-24T15:08:24.765Z</time>
      </trkpt>
      <trkpt lat="48.74217" lon="2.50016">
        <ele>96</ele>
        <time>2023-01-24T15:08:29.370Z</time>
      </trkpt>
      <trkpt lat="48.74213" lon="2.50021">
        <ele>96</ele>
        <time>2023-01-24T15:08:33.875Z</time>
      </trkpt>
      <trkpt lat="48.74209" lon="2.50026">
        <ele>96</ele>
        <time>2023-01-24T15:08:37.879Z</time>
      </trkpt>
      <trkpt lat="48.74206" lon="2.50033">
        <ele>96</ele>
        <time>2023-01-24T15:08:41.884Z</time>
      </trkpt>
      <trkpt lat="48.74203" lon="2.5004">
        <ele>96</ele>
        <time>2023-01-24T15:08:46.389Z</time>
      </trkpt>
      <trkpt lat="48.74199" lon="2.50045">
        <ele>95</ele>
        <time>2023-01-24T15:08:50.997Z</time>
      </trkpt>
      <trkpt lat="48.74195" lon="2.50048">
        <ele>95</ele>
        <time>2023-01-24T15:08:55.103Z</time>
      </trkpt>
      <trkpt lat="48.7419" lon="2.50052">
        <ele>95</ele>
        <time>2023-01-24T15:08:59.207Z</time>
      </trkpt>
      <trkpt lat="48.74185" lon="2.50058">
        <ele>95</ele>
        <time>2023-01-24T15:09:03.712Z</time>
      </trkpt>
      <trkpt lat="48.74181" lon="2.50065">
        <ele>95</ele>
        <time>2023-01-24T15:09:07.716Z</time>
      </trkpt>
      <trkpt lat="48.74177" lon="2.50072">
        <ele>97</ele>
        <time>2023-01-24T15:09:11.721Z</time>
      </trkpt>
      <trkpt lat="48.74171" lon="2.50076">
        <ele>97</ele>
        <time>2023-01-24T15:09:15.726Z</time>
      </trkpt>
      <trkpt lat="48.74165" lon="2.5008">
        <ele>97</ele>
        <time>2023-01-24T15:09:20.232Z</time>
      </trkpt>
      <trkpt lat="48.74161" lon="2.50083">
        <ele>97</ele>
        <time>2023-01-24T15:09:24.237Z</time>
      </trkpt>
      <trkpt lat="48.74156" lon="2.50087">
        <ele>97</ele>
        <time>2023-01-24T15:09:28.748Z</time>
      </trkpt>
      <trkpt lat="48.74152" lon="2.50093">
        <ele>97</ele>
        <time>2023-01-24T15:09:32.447Z</time>
      </trkpt>
      <trkpt lat="48.74151" lon="2.50101">
        <ele>95</ele>
        <time>2023-01-24T15:09:36.453Z</time>
      </trkpt>
      <trkpt lat="48.74149" lon="2.5011">
        <ele>95</ele>
        <time>2023-01-24T15:09:41.060Z</time>
      </trkpt>
      <trkpt lat="48.74148" lon="2.50117">
        <ele>95</ele>
        <time>2023-01-24T15:09:45.566Z</time>
      </trkpt>
      <trkpt lat="48.74148" lon="2.50126">
        <ele>93</ele>
        <time>2023-01-24T15:09:50.071Z</time>
      </trkpt>
      <trkpt lat="48.74148" lon="2.50137">
        <ele>93</ele>
        <time>2023-01-24T15:09:54.575Z</time>
      </trkpt>
      <trkpt lat="48.74144" lon="2.50144">
        <ele>93</ele>
        <time>2023-01-24T15:09:58.718Z</time>
      </trkpt>
      <trkpt lat="48.74139" lon="2.50149">
        <ele>93</ele>
        <time>2023-01-24T15:10:02.822Z</time>
      </trkpt>
      <trkpt lat="48.74134" lon="2.50153">
        <ele>91</ele>
        <time>2023-01-24T15:10:07.426Z</time>
      </trkpt>
      <trkpt lat="48.74129" lon="2.50159">
        <ele>91</ele>
        <time>2023-01-24T15:10:11.529Z</time>
      </trkpt>
      <trkpt lat="48.74124" lon="2.50165">
        <ele>93</ele>
        <time>2023-01-24T15:10:15.534Z</time>
      </trkpt>
      <trkpt lat="48.7412" lon="2.50172">
        <ele>93</ele>
        <time>2023-01-24T15:10:19.539Z</time>
      </trkpt>
      <trkpt lat="48.74115" lon="2.50177">
        <ele>93</ele>
        <time>2023-01-24T15:10:23.544Z</time>
      </trkpt>
      <trkpt lat="48.74112" lon="2.50182">
        <ele>92</ele>
        <time>2023-01-24T15:10:28.132Z</time>
      </trkpt>
      <trkpt lat="48.74107" lon="2.50188">
        <ele>92</ele>
        <time>2023-01-24T15:10:32.751Z</time>
      </trkpt>
      <trkpt lat="48.74103" lon="2.50194">
        <ele>92</ele>
        <time>2023-01-24T15:10:36.755Z</time>
      </trkpt>
      <trkpt lat="48.74099" lon="2.50198">
        <ele>92</ele>
        <time>2023-01-24T15:10:40.760Z</time>
      </trkpt>
      <trkpt lat="48.74095" lon="2.50203">
        <ele>95</ele>
        <time>2023-01-24T15:10:45.266Z</time>
      </trkpt>
      <trkpt lat="48.74093" lon="2.5021">
        <ele>94</ele>
        <time>2023-01-24T15:10:49.272Z</time>
      </trkpt>
      <trkpt lat="48.7409" lon="2.50218">
        <ele>94</ele>
        <time>2023-01-24T15:10:53.275Z</time>
      </trkpt>
      <trkpt lat="48.74089" lon="2.50228">
        <ele>94</ele>
        <time>2023-01-24T15:10:57.278Z</time>
      </trkpt>
      <trkpt lat="48.74086" lon="2.50236">
        <ele>94</ele>
        <time>2023-01-24T15:11:01.781Z</time>
      </trkpt>
      <trkpt lat="48.74084" lon="2.50244">
        <ele>93</ele>
        <time>2023-01-24T15:11:05.785Z</time>
      </trkpt>
      <trkpt lat="48.74082" lon="2.50252">
        <ele>93</ele>
        <time>2023-01-24T15:11:09.788Z</time>
      </trkpt>
      <trkpt lat="48.74079" lon="2.5026">
        <ele>93</ele>
        <time>2023-01-24T15:11:13.792Z</time>
      </trkpt>
      <trkpt lat="48.74078" lon="2.50271">
        <ele>92</ele>
        <time>2023-01-24T15:11:18.297Z</time>
      </trkpt>
      <trkpt lat="48.74075" lon="2.50278">
        <ele>92</ele>
        <time>2023-01-24T15:11:22.300Z</time>
      </trkpt>
      <trkpt lat="48.74071" lon="2.50283">
        <ele>92</ele>
        <time>2023-01-24T15:11:26.804Z</time>
      </trkpt>
      <trkpt lat="48.74069" lon="2.50293">
        <ele>94</ele>
        <time>2023-01-24T15:11:30.807Z</time>
      </trkpt>
      <trkpt lat="48.74066" lon="2.50302">
        <ele>94</ele>
        <time>2023-01-24T15:11:34.812Z</time>
      </trkpt>
      <trkpt lat="48.74062" lon="2.50309">
        <ele>94</ele>
        <time>2023-01-24T15:11:39.518Z</time>
      </trkpt>
      <trkpt lat="48.74058" lon="2.50316">
        <ele>94</ele>
        <time>2023-01-24T15:11:44.024Z</time>
      </trkpt>
      <trkpt lat="48.74054" lon="2.50325">
        <ele>93</ele>
        <time>2023-01-24T15:11:48.529Z</time>
      </trkpt>
      <trkpt lat="48.74051" lon="2.50331">
        <ele>93</ele>
        <time>2023-01-24T15:11:52.531Z</time>
      </trkpt>
      <trkpt lat="48.74049" lon="2.50338">
        <ele>93</ele>
        <time>2023-01-24T15:11:57.035Z</time>
      </trkpt>
      <trkpt lat="48.74046" lon="2.50344">
        <ele>93</ele>
        <time>2023-01-24T15:12:01.039Z</time>
      </trkpt>
      <trkpt lat="48.74042" lon="2.50349">
        <ele>92</ele>
        <time>2023-01-24T15:12:05.044Z</time>
      </trkpt>
      <trkpt lat="48.74039" lon="2.50356">
        <ele>92</ele>
        <time>2023-01-24T15:12:09.548Z</time>
      </trkpt>
      <trkpt lat="48.74037" lon="2.50364">
        <ele>92</ele>
        <time>2023-01-24T15:12:14.053Z</time>
      </trkpt>
      <trkpt lat="48.74036" lon="2.50372">
        <ele>92</ele>
        <time>2023-01-24T15:12:18.157Z</time>
      </trkpt>
      <trkpt lat="48.74033" lon="2.50378">
        <ele>92</ele>
        <time>2023-01-24T15:12:22.660Z</time>
      </trkpt>
      <trkpt lat="48.7403" lon="2.50387">
        <ele>92</ele>
        <time>2023-01-24T15:12:26.664Z</time>
      </trkpt>
      <trkpt lat="48.74026" lon="2.50395">
        <ele>92</ele>
        <time>2023-01-24T15:12:31.169Z</time>
      </trkpt>
      <trkpt lat="48.74024" lon="2.50405">
        <ele>92</ele>
        <time>2023-01-24T15:12:35.174Z</time>
      </trkpt>
      <trkpt lat="48.74022" lon="2.50412">
        <ele>92</ele>
        <time>2023-01-24T15:12:39.178Z</time>
      </trkpt>
      <trkpt lat="48.74018" lon="2.50418">
        <ele>92</ele>
        <time>2023-01-24T15:12:43.284Z</time>
      </trkpt>
      <trkpt lat="48.74013" lon="2.50424">
        <ele>94</ele>
        <time>2023-01-24T15:12:47.888Z</time>
      </trkpt>
      <trkpt lat="48.74009" lon="2.5043">
        <ele>94</ele>
        <time>2023-01-24T15:12:51.992Z</time>
      </trkpt>
      <trkpt lat="48.74005" lon="2.50438">
        <ele>94</ele>
        <time>2023-01-24T15:12:57.133Z</time>
      </trkpt>
      <trkpt lat="48.74001" lon="2.50444">
        <ele>94</ele>
        <time>2023-01-24T15:13:01.202Z</time>
      </trkpt>
      <trkpt lat="48.73997" lon="2.50451">
        <ele>94</ele>
        <time>2023-01-24T15:13:05.708Z</time>
      </trkpt>
      <trkpt lat="48.73993" lon="2.50454">
        <ele>94</ele>
        <time>2023-01-24T15:13:09.713Z</time>
      </trkpt>
      <trkpt lat="48.73989" lon="2.50457">
        <ele>94</ele>
        <time>2023-01-24T15:13:13.718Z</time>
      </trkpt>
      <trkpt lat="48.73985" lon="2.50459">
        <ele>96</ele>
        <time>2023-01-24T15:13:17.724Z</time>
      </trkpt>
      <trkpt lat="48.73982" lon="2.50461">
        <ele>96</ele>
        <time>2023-01-24T15:13:21.730Z</time>
      </trkpt>
      <trkpt lat="48.73976" lon="2.50465">
        <ele>96</ele>
        <time>2023-01-24T15:13:26.738Z</time>
      </trkpt>
      <trkpt lat="48.73972" lon="2.50468">
        <ele>96</ele>
        <time>2023-01-24T15:13:30.845Z</time>
      </trkpt>
      <trkpt lat="48.73967" lon="2.5047">
        <ele>96</ele>
        <time>2023-01-24T15:13:34.852Z</time>
      </trkpt>
      <trkpt lat="48.73961" lon="2.50472">
        <ele>96</ele>
        <time>2023-01-24T15:13:39.360Z</time>
      </trkpt>
      <trkpt lat="48.73956" lon="2.50471">
        <ele>95</ele>
        <time>2023-01-24T15:13:43.464Z</time>
      </trkpt>
      <trkpt lat="48.7395" lon="2.5047">
        <ele>95</ele>
        <time>2023-01-24T15:13:47.470Z</time>
      </trkpt>
      <trkpt lat="48.73944" lon="2.50472">
        <ele>95</ele>
        <time>2023-01-24T15:13:51.475Z</time>
      </trkpt>
      <trkpt lat="48.73939" lon="2.50471">
        <ele>95</ele>
        <time>2023-01-24T15:13:55.478Z</time>
      </trkpt>
      <trkpt lat="48.73932" lon="2.50472">
        <ele>95</ele>
        <time>2023-01-24T15:13:59.984Z</time>
      </trkpt>
      <trkpt lat="48.73925" lon="2.50471">
        <ele>96</ele>
        <time>2023-01-24T15:14:04.489Z</time>
      </trkpt>
      <trkpt lat="48.73919" lon="2.50471">
        <ele>96</ele>
        <time>2023-01-24T15:14:09.067Z</time>
      </trkpt>
      <trkpt lat="48.73914" lon="2.50469">
        <ele>96</ele>
        <time>2023-01-24T15:14:13.103Z</time>
      </trkpt>
      <trkpt lat="48.73909" lon="2.50467">
        <ele>96</ele>
        <time>2023-01-24T15:14:17.611Z</time>
      </trkpt>
      <trkpt lat="48.73905" lon="2.50463">
        <ele>96</ele>
        <time>2023-01-24T15:14:21.619Z</time>
      </trkpt>
      <trkpt lat="48.73902" lon="2.5046">
        <ele>98</ele>
        <time>2023-01-24T15:14:25.623Z</time>
      </trkpt>
      <trkpt lat="48.73898" lon="2.50456">
        <ele>97</ele>
        <time>2023-01-24T15:14:29.627Z</time>
      </trkpt>
      <trkpt lat="48.73893" lon="2.50453">
        <ele>97</ele>
        <time>2023-01-24T15:14:33.630Z</time>
      </trkpt>
      <trkpt lat="48.73887" lon="2.50449">
        <ele>97</ele>
        <time>2023-01-24T15:14:37.634Z</time>
      </trkpt>
      <trkpt lat="48.73881" lon="2.50444">
        <ele>97</ele>
        <time>2023-01-24T15:14:42.138Z</time>
      </trkpt>
      <trkpt lat="48.73876" lon="2.50437">
        <ele>97</ele>
        <time>2023-01-24T15:14:46.167Z</time>
      </trkpt>
      <trkpt lat="48.73873" lon="2.50432">
        <ele>97</ele>
        <time>2023-01-24T15:14:50.258Z</time>
      </trkpt>
      <trkpt lat="48.73869" lon="2.50428">
        <ele>96</ele>
        <time>2023-01-24T15:14:54.261Z</time>
      </trkpt>
      <trkpt lat="48.73864" lon="2.50425">
        <ele>96</ele>
        <time>2023-01-24T15:14:58.789Z</time>
      </trkpt>
      <trkpt lat="48.73861" lon="2.50422">
        <ele>96</ele>
        <time>2023-01-24T15:15:02.869Z</time>
      </trkpt>
      <trkpt lat="48.73857" lon="2.50417">
        <ele>96</ele>
        <time>2023-01-24T15:15:07.873Z</time>
      </trkpt>
      <trkpt lat="48.73854" lon="2.50414">
        <ele>96</ele>
        <time>2023-01-24T15:15:11.875Z</time>
      </trkpt>
      <trkpt lat="48.73848" lon="2.50409">
        <ele>96</ele>
        <time>2023-01-24T15:15:16.902Z</time>
      </trkpt>
      <trkpt lat="48.73843" lon="2.50406">
        <ele>96</ele>
        <time>2023-01-24T15:15:20.984Z</time>
      </trkpt>
      <trkpt lat="48.73837" lon="2.50402">
        <ele>96</ele>
        <time>2023-01-24T15:15:26.002Z</time>
      </trkpt>
      <trkpt lat="48.73833" lon="2.50397">
        <ele>96</ele>
        <time>2023-01-24T15:15:29.592Z</time>
      </trkpt>
      <trkpt lat="48.73829" lon="2.50392">
        <ele>96</ele>
        <time>2023-01-24T15:15:33.698Z</time>
      </trkpt>
      <trkpt lat="48.73825" lon="2.50386">
        <ele>96</ele>
        <time>2023-01-24T15:15:37.803Z</time>
      </trkpt>
      <trkpt lat="48.73819" lon="2.50381">
        <ele>96</ele>
        <time>2023-01-24T15:15:42.319Z</time>
      </trkpt>
      <trkpt lat="48.73813" lon="2.50378">
        <ele>96</ele>
        <time>2023-01-24T15:15:46.323Z</time>
      </trkpt>
      <trkpt lat="48.73807" lon="2.50373">
        <ele>95</ele>
        <time>2023-01-24T15:15:50.927Z</time>
      </trkpt>
      <trkpt lat="48.73801" lon="2.50366">
        <ele>95</ele>
        <time>2023-01-24T15:15:55.531Z</time>
      </trkpt>
      <trkpt lat="48.73796" lon="2.50359">
        <ele>95</ele>
        <time>2023-01-24T15:16:00.035Z</time>
      </trkpt>
      <trkpt lat="48.73792" lon="2.50355">
        <ele>95</ele>
        <time>2023-01-24T15:16:04.039Z</time>
      </trkpt>
      <trkpt lat="48.73787" lon="2.5035">
        <ele>96</ele>
        <time>2023-01-24T15:16:08.544Z</time>
      </trkpt>
      <trkpt lat="48.73782" lon="2.50347">
        <ele>95</ele>
        <time>2023-01-24T15:16:13.052Z</time>
      </trkpt>
      <trkpt lat="48.73776" lon="2.50344">
        <ele>95</ele>
        <time>2023-01-24T15:16:17.151Z</time>
      </trkpt>
      <trkpt lat="48.73771" lon="2.50339">
        <ele>95</ele>
        <time>2023-01-24T15:16:21.158Z</time>
      </trkpt>
      <trkpt lat="48.73767" lon="2.50332">
        <ele>95</ele>
        <time>2023-01-24T15:16:25.162Z</time>
      </trkpt>
      <trkpt lat="48.73763" lon="2.50324">
        <ele>96</ele>
        <time>2023-01-24T15:16:29.365Z</time>
      </trkpt>
      <trkpt lat="48.73758" lon="2.50318">
        <ele>96</ele>
        <time>2023-01-24T15:16:33.869Z</time>
      </trkpt>
      <trkpt lat="48.73754" lon="2.50312">
        <ele>96</ele>
        <time>2023-01-24T15:16:38.372Z</time>
      </trkpt>
      <trkpt lat="48.73749" lon="2.50308">
        <ele>96</ele>
        <time>2023-01-24T15:16:42.377Z</time>
      </trkpt>
      <trkpt lat="48.73742" lon="2.50304">
        <ele>96</ele>
        <time>2023-01-24T15:16:46.882Z</time>
      </trkpt>
      <trkpt lat="48.73734" lon="2.50301">
        <ele>95</ele>
        <time>2023-01-24T15:16:55.992Z</time>
      </trkpt>
      <trkpt lat="48.73734" lon="2.50298">
        <ele>95</ele>
        <time>2023-01-24T15:17:00.996Z</time>
      </trkpt>
      <trkpt lat="48.73734" lon="2.50295">
        <ele>95</ele>
        <time>2023-01-24T15:17:06Z</time>
      </trkpt>
      <trkpt lat="48.7373" lon="2.50293">
        <ele>95</ele>
        <time>2023-01-24T15:17:10.505Z</time>
      </trkpt>
      <trkpt lat="48.73726" lon="2.5029">
        <ele>96</ele>
        <time>2023-01-24T15:17:15.011Z</time>
      </trkpt>
      <trkpt lat="48.73719" lon="2.50288">
        <ele>96</ele>
        <time>2023-01-24T15:17:19.516Z</time>
      </trkpt>
      <trkpt lat="48.73712" lon="2.50288">
        <ele>96</ele>
        <time>2023-01-24T15:17:24.219Z</time>
      </trkpt>
      <trkpt lat="48.73707" lon="2.50288">
        <ele>96</ele>
        <time>2023-01-24T15:17:28.223Z</time>
      </trkpt>
      <trkpt lat="48.73701" lon="2.50289">
        <ele>96</ele>
        <time>2023-01-24T15:17:32.728Z</time>
      </trkpt>
      <trkpt lat="48.73694" lon="2.5029">
        <ele>96</ele>
        <time>2023-01-24T15:17:37.732Z</time>
      </trkpt>
      <trkpt lat="48.73688" lon="2.50291">
        <ele>96</ele>
        <time>2023-01-24T15:17:41.736Z</time>
      </trkpt>
      <trkpt lat="48.73682" lon="2.50292">
        <ele>96</ele>
        <time>2023-01-24T15:17:46.340Z</time>
      </trkpt>
      <trkpt lat="48.73677" lon="2.50293">
        <ele>95</ele>
        <time>2023-01-24T15:17:50.344Z</time>
      </trkpt>
      <trkpt lat="48.73672" lon="2.50292">
        <ele>95</ele>
        <time>2023-01-24T15:17:54.346Z</time>
      </trkpt>
      <trkpt lat="48.73666" lon="2.50292">
        <ele>95</ele>
        <time>2023-01-24T15:17:58.529Z</time>
      </trkpt>
      <trkpt lat="48.7366" lon="2.50291">
        <ele>95</ele>
        <time>2023-01-24T15:18:02.531Z</time>
      </trkpt>
      <trkpt lat="48.73653" lon="2.5029">
        <ele>95</ele>
        <time>2023-01-24T15:18:07.034Z</time>
      </trkpt>
      <trkpt lat="48.73648" lon="2.50291">
        <ele>94</ele>
        <time>2023-01-24T15:18:11.037Z</time>
      </trkpt>
      <trkpt lat="48.73642" lon="2.50289">
        <ele>94</ele>
        <time>2023-01-24T15:18:15.542Z</time>
      </trkpt>
      <trkpt lat="48.73637" lon="2.5029">
        <ele>94</ele>
        <time>2023-01-24T15:18:20.046Z</time>
      </trkpt>
      <trkpt lat="48.73631" lon="2.50291">
        <ele>94</ele>
        <time>2023-01-24T15:18:24.552Z</time>
      </trkpt>
      <trkpt lat="48.73627" lon="2.50291">
        <ele>94</ele>
        <time>2023-01-24T15:18:28.555Z</time>
      </trkpt>
      <trkpt lat="48.73622" lon="2.50292">
        <ele>95</ele>
        <time>2023-01-24T15:18:33.058Z</time>
      </trkpt>
      <trkpt lat="48.73617" lon="2.50293">
        <ele>95</ele>
        <time>2023-01-24T15:18:37.061Z</time>
      </trkpt>
      <trkpt lat="48.73609" lon="2.50292">
        <ele>95</ele>
        <time>2023-01-24T15:18:41.566Z</time>
      </trkpt>
      <trkpt lat="48.73603" lon="2.50293">
        <ele>95</ele>
        <time>2023-01-24T15:18:45.571Z</time>
      </trkpt>
      <trkpt lat="48.73597" lon="2.50295">
        <ele>96</ele>
        <time>2023-01-24T15:18:50.576Z</time>
      </trkpt>
      <trkpt lat="48.7359" lon="2.50293">
        <ele>96</ele>
        <time>2023-01-24T15:18:54.581Z</time>
      </trkpt>
      <trkpt lat="48.73583" lon="2.50292">
        <ele>96</ele>
        <time>2023-01-24T15:18:58.684Z</time>
      </trkpt>
      <trkpt lat="48.73576" lon="2.50293">
        <ele>96</ele>
        <time>2023-01-24T15:19:03.222Z</time>
      </trkpt>
      <trkpt lat="48.73569" lon="2.50294">
        <ele>96</ele>
        <time>2023-01-24T15:19:07.293Z</time>
      </trkpt>
      <trkpt lat="48.73563" lon="2.50294">
        <ele>96</ele>
        <time>2023-01-24T15:19:11.298Z</time>
      </trkpt>
      <trkpt lat="48.73558" lon="2.50295">
        <ele>96</ele>
        <time>2023-01-24T15:19:15.302Z</time>
      </trkpt>
      <trkpt lat="48.73552" lon="2.50295">
        <ele>96</ele>
        <time>2023-01-24T15:19:19.808Z</time>
      </trkpt>
      <trkpt lat="48.73546" lon="2.50294">
        <ele>96</ele>
        <time>2023-01-24T15:19:24.314Z</time>
      </trkpt>
      <trkpt lat="48.73539" lon="2.50295">
        <ele>95</ele>
        <time>2023-01-24T15:19:28.319Z</time>
      </trkpt>
      <trkpt lat="48.73535" lon="2.50294">
        <ele>95</ele>
        <time>2023-01-24T15:19:32.325Z</time>
      </trkpt>
      <trkpt lat="48.73529" lon="2.50293">
        <ele>95</ele>
        <time>2023-01-24T15:19:36.929Z</time>
      </trkpt>
      <trkpt lat="48.73525" lon="2.50294">
        <ele>95</ele>
        <time>2023-01-24T15:19:41.033Z</time>
      </trkpt>
      <trkpt lat="48.73518" lon="2.50292">
        <ele>95</ele>
        <time>2023-01-24T15:19:45.538Z</time>
      </trkpt>
      <trkpt lat="48.73513" lon="2.5029">
        <ele>94</ele>
        <time>2023-01-24T15:19:50.042Z</time>
      </trkpt>
      <trkpt lat="48.73506" lon="2.50291">
        <ele>94</ele>
        <time>2023-01-24T15:19:54.546Z</time>
      </trkpt>
      <trkpt lat="48.735" lon="2.50293">
        <ele>95</ele>
        <time>2023-01-24T15:19:58.548Z</time>
      </trkpt>
      <trkpt lat="48.73494" lon="2.50294">
        <ele>95</ele>
        <time>2023-01-24T15:20:02.551Z</time>
      </trkpt>
      <trkpt lat="48.73488" lon="2.50294">
        <ele>95</ele>
        <time>2023-01-24T15:20:07.055Z</time>
      </trkpt>
      <trkpt lat="48.73483" lon="2.50296">
        <ele>95</ele>
        <time>2023-01-24T15:20:11.058Z</time>
      </trkpt>
      <trkpt lat="48.73477" lon="2.50299">
        <ele>95</ele>
        <time>2023-01-24T15:20:15.562Z</time>
      </trkpt>
      <trkpt lat="48.73471" lon="2.503">
        <ele>95</ele>
        <time>2023-01-24T15:20:19.565Z</time>
      </trkpt>
      <trkpt lat="48.73464" lon="2.50301">
        <ele>95</ele>
        <time>2023-01-24T15:20:24.142Z</time>
      </trkpt>
      <trkpt lat="48.73458" lon="2.503">
        <ele>95</ele>
        <time>2023-01-24T15:20:28.174Z</time>
      </trkpt>
      <trkpt lat="48.73451" lon="2.50301">
        <ele>94</ele>
        <time>2023-01-24T15:20:32.677Z</time>
      </trkpt>
      <trkpt lat="48.73446" lon="2.503">
        <ele>94</ele>
        <time>2023-01-24T15:20:36.680Z</time>
      </trkpt>
      <trkpt lat="48.7344" lon="2.503">
        <ele>94</ele>
        <time>2023-01-24T15:20:40.683Z</time>
      </trkpt>
      <trkpt lat="48.73435" lon="2.50301">
        <ele>94</ele>
        <time>2023-01-24T15:20:44.764Z</time>
      </trkpt>
      <trkpt lat="48.73428" lon="2.50303">
        <ele>91</ele>
        <time>2023-01-24T15:20:49.267Z</time>
      </trkpt>
      <trkpt lat="48.73424" lon="2.50303">
        <ele>91</ele>
        <time>2023-01-24T15:20:53.270Z</time>
      </trkpt>
      <trkpt lat="48.73418" lon="2.50304">
        <ele>91</ele>
        <time>2023-01-24T15:20:57.272Z</time>
      </trkpt>
      <trkpt lat="48.73413" lon="2.50305">
        <ele>91</ele>
        <time>2023-01-24T15:21:01.867Z</time>
      </trkpt>
      <trkpt lat="48.73409" lon="2.50307">
        <ele>91</ele>
        <time>2023-01-24T15:21:05.978Z</time>
      </trkpt>
      <trkpt lat="48.73406" lon="2.50307">
        <ele>91</ele>
        <time>2023-01-24T15:21:09.982Z</time>
      </trkpt>
      <trkpt lat="48.734" lon="2.50308">
        <ele>91</ele>
        <time>2023-01-24T15:21:13.985Z</time>
      </trkpt>
      <trkpt lat="48.73394" lon="2.50308">
        <ele>91</ele>
        <time>2023-01-24T15:21:18.590Z</time>
      </trkpt>
      <trkpt lat="48.73388" lon="2.5031">
        <ele>91</ele>
        <time>2023-01-24T15:21:22.694Z</time>
      </trkpt>
      <trkpt lat="48.73382" lon="2.50311">
        <ele>91</ele>
        <time>2023-01-24T15:21:26.796Z</time>
      </trkpt>
      <trkpt lat="48.73378" lon="2.50312">
        <ele>91</ele>
        <time>2023-01-24T15:21:31.301Z</time>
      </trkpt>
      <trkpt lat="48.73373" lon="2.50312">
        <ele>93</ele>
        <time>2023-01-24T15:21:35.904Z</time>
      </trkpt>
      <trkpt lat="48.73368" lon="2.50313">
        <ele>93</ele>
        <time>2023-01-24T15:21:40.409Z</time>
      </trkpt>
      <trkpt lat="48.73361" lon="2.50315">
        <ele>93</ele>
        <time>2023-01-24T15:21:44.913Z</time>
      </trkpt>
      <trkpt lat="48.73352" lon="2.50316">
        <ele>93</ele>
        <time>2023-01-24T15:21:49.416Z</time>
      </trkpt>
      <trkpt lat="48.73347" lon="2.50316">
        <ele>94</ele>
        <time>2023-01-24T15:21:53.418Z</time>
      </trkpt>
      <trkpt lat="48.7334" lon="2.50316">
        <ele>94</ele>
        <time>2023-01-24T15:21:57.420Z</time>
      </trkpt>
      <trkpt lat="48.73334" lon="2.50315">
        <ele>94</ele>
        <time>2023-01-24T15:22:02.025Z</time>
      </trkpt>
      <trkpt lat="48.73328" lon="2.50316">
        <ele>94</ele>
        <time>2023-01-24T15:22:06.529Z</time>
      </trkpt>
      <trkpt lat="48.73322" lon="2.50316">
        <ele>94</ele>
        <time>2023-01-24T15:22:11.132Z</time>
      </trkpt>
      <trkpt lat="48.73316" lon="2.50318">
        <ele>95</ele>
        <time>2023-01-24T15:22:15.353Z</time>
      </trkpt>
      <trkpt lat="48.7331" lon="2.50318">
        <ele>95</ele>
        <time>2023-01-24T15:22:19.387Z</time>
      </trkpt>
      <trkpt lat="48.73305" lon="2.50319">
        <ele>95</ele>
        <time>2023-01-24T15:22:23.655Z</time>
      </trkpt>
      <trkpt lat="48.73299" lon="2.50318">
        <ele>95</ele>
        <time>2023-01-24T15:22:28.277Z</time>
      </trkpt>
      <trkpt lat="48.73292" lon="2.50315">
        <ele>95</ele>
        <time>2023-01-24T15:22:32.779Z</time>
      </trkpt>
      <trkpt lat="48.73287" lon="2.50314">
        <ele>95</ele>
        <time>2023-01-24T15:22:36.881Z</time>
      </trkpt>
      <trkpt lat="48.73281" lon="2.50314">
        <ele>95</ele>
        <time>2023-01-24T15:22:41.384Z</time>
      </trkpt>
      <trkpt lat="48.73275" lon="2.50314">
        <ele>95</ele>
        <time>2023-01-24T15:22:45.387Z</time>
      </trkpt>
      <trkpt lat="48.73268" lon="2.50314">
        <ele>95</ele>
        <time>2023-01-24T15:22:49.992Z</time>
      </trkpt>
      <trkpt lat="48.7326" lon="2.50315">
        <ele>94</ele>
        <time>2023-01-24T15:22:54.153Z</time>
      </trkpt>
      <trkpt lat="48.73254" lon="2.50313">
        <ele>94</ele>
        <time>2023-01-24T15:22:58.194Z</time>
      </trkpt>
      <trkpt lat="48.73248" lon="2.50313">
        <ele>94</ele>
        <time>2023-01-24T15:23:02.776Z</time>
      </trkpt>
      <trkpt lat="48.73242" lon="2.50315">
        <ele>94</ele>
        <time>2023-01-24T15:23:07.280Z</time>
      </trkpt>
      <trkpt lat="48.73236" lon="2.50316">
        <ele>94</ele>
        <time>2023-01-24T15:23:11.283Z</time>
      </trkpt>
      <trkpt lat="48.7323" lon="2.50318">
        <ele>94</ele>
        <time>2023-01-24T15:23:15.486Z</time>
      </trkpt>
      <trkpt lat="48.73224" lon="2.5032">
        <ele>93</ele>
        <time>2023-01-24T15:23:19.991Z</time>
      </trkpt>
      <trkpt lat="48.7322" lon="2.50321">
        <ele>93</ele>
        <time>2023-01-24T15:23:23.996Z</time>
      </trkpt>
      <trkpt lat="48.73213" lon="2.50323">
        <ele>93</ele>
        <time>2023-01-24T15:23:28.500Z</time>
      </trkpt>
      <trkpt lat="48.73206" lon="2.50324">
        <ele>94</ele>
        <time>2023-01-24T15:23:33.004Z</time>
      </trkpt>
      <trkpt lat="48.73199" lon="2.50325">
        <ele>94</ele>
        <time>2023-01-24T15:23:37.507Z</time>
      </trkpt>
      <trkpt lat="48.73192" lon="2.50325">
        <ele>94</ele>
        <time>2023-01-24T15:23:42.009Z</time>
      </trkpt>
      <trkpt lat="48.73185" lon="2.50325">
        <ele>94</ele>
        <time>2023-01-24T15:23:46.513Z</time>
      </trkpt>
      <trkpt lat="48.7318" lon="2.50324">
        <ele>94</ele>
        <time>2023-01-24T15:23:50.518Z</time>
      </trkpt>
      <trkpt lat="48.73175" lon="2.50323">
        <ele>94</ele>
        <time>2023-01-24T15:23:54.522Z</time>
      </trkpt>
      <trkpt lat="48.73169" lon="2.50323">
        <ele>94</ele>
        <time>2023-01-24T15:23:59.026Z</time>
      </trkpt>
      <trkpt lat="48.73164" lon="2.50323">
        <ele>94</ele>
        <time>2023-01-24T15:24:03.030Z</time>
      </trkpt>
      <trkpt lat="48.73159" lon="2.50324">
        <ele>94</ele>
        <time>2023-01-24T15:24:07.534Z</time>
      </trkpt>
      <trkpt lat="48.73153" lon="2.50325">
        <ele>94</ele>
        <time>2023-01-24T15:24:11.549Z</time>
      </trkpt>
      <trkpt lat="48.73147" lon="2.50326">
        <ele>95</ele>
        <time>2023-01-24T15:24:15.554Z</time>
      </trkpt>
      <trkpt lat="48.73142" lon="2.50327">
        <ele>95</ele>
        <time>2023-01-24T15:24:19.577Z</time>
      </trkpt>
      <trkpt lat="48.73136" lon="2.50328">
        <ele>95</ele>
        <time>2023-01-24T15:24:23.581Z</time>
      </trkpt>
      <trkpt lat="48.73131" lon="2.5033">
        <ele>95</ele>
        <time>2023-01-24T15:24:27.584Z</time>
      </trkpt>
      <trkpt lat="48.73127" lon="2.50331">
        <ele>95</ele>
        <time>2023-01-24T15:24:32.089Z</time>
      </trkpt>
      <trkpt lat="48.73121" lon="2.50331">
        <ele>94</ele>
        <time>2023-01-24T15:24:36.592Z</time>
      </trkpt>
      <trkpt lat="48.73114" lon="2.50329">
        <ele>94</ele>
        <time>2023-01-24T15:24:40.714Z</time>
      </trkpt>
      <trkpt lat="48.73106" lon="2.50329">
        <ele>94</ele>
        <time>2023-01-24T15:24:45.218Z</time>
      </trkpt>
      <trkpt lat="48.73102" lon="2.5033">
        <ele>94</ele>
        <time>2023-01-24T15:24:49.221Z</time>
      </trkpt>
      <trkpt lat="48.73096" lon="2.50335">
        <ele>93</ele>
        <time>2023-01-24T15:24:53.224Z</time>
      </trkpt>
      <trkpt lat="48.7309" lon="2.50338">
        <ele>93</ele>
        <time>2023-01-24T15:24:57.729Z</time>
      </trkpt>
      <trkpt lat="48.73085" lon="2.50339">
        <ele>93</ele>
        <time>2023-01-24T15:25:01.733Z</time>
      </trkpt>
      <trkpt lat="48.73079" lon="2.5034">
        <ele>93</ele>
        <time>2023-01-24T15:25:05.737Z</time>
      </trkpt>
      <trkpt lat="48.73073" lon="2.50339">
        <ele>93</ele>
        <time>2023-01-24T15:25:09.741Z</time>
      </trkpt>
      <trkpt lat="48.73068" lon="2.50339">
        <ele>92</ele>
        <time>2023-01-24T15:25:14.345Z</time>
      </trkpt>
      <trkpt lat="48.73063" lon="2.5034">
        <ele>92</ele>
        <time>2023-01-24T15:25:18.878Z</time>
      </trkpt>
      <trkpt lat="48.73057" lon="2.50342">
        <ele>92</ele>
        <time>2023-01-24T15:25:23.420Z</time>
      </trkpt>
      <trkpt lat="48.73054" lon="2.50342">
        <ele>92</ele>
        <time>2023-01-24T15:25:27.924Z</time>
      </trkpt>
      <trkpt lat="48.73049" lon="2.50344">
        <ele>92</ele>
        <time>2023-01-24T15:25:31.946Z</time>
      </trkpt>
      <trkpt lat="48.73045" lon="2.50343">
        <ele>92</ele>
        <time>2023-01-24T15:25:36.608Z</time>
      </trkpt>
      <trkpt lat="48.7304" lon="2.50347">
        <ele>93</ele>
        <time>2023-01-24T15:25:40.770Z</time>
      </trkpt>
      <trkpt lat="48.73035" lon="2.50348">
        <ele>93</ele>
        <time>2023-01-24T15:25:44.811Z</time>
      </trkpt>
      <trkpt lat="48.73028" lon="2.50347">
        <ele>93</ele>
        <time>2023-01-24T15:25:49.413Z</time>
      </trkpt>
      <trkpt lat="48.73022" lon="2.50346">
        <ele>93</ele>
        <time>2023-01-24T15:25:53.416Z</time>
      </trkpt>
      <trkpt lat="48.73016" lon="2.50345">
        <ele>93</ele>
        <time>2023-01-24T15:25:57.520Z</time>
      </trkpt>
      <trkpt lat="48.7301" lon="2.50345">
        <ele>92</ele>
        <time>2023-01-24T15:26:01.602Z</time>
      </trkpt>
      <trkpt lat="48.73005" lon="2.50345">
        <ele>92</ele>
        <time>2023-01-24T15:26:05.624Z</time>
      </trkpt>
      <trkpt lat="48.72999" lon="2.50344">
        <ele>92</ele>
        <time>2023-01-24T15:26:09.726Z</time>
      </trkpt>
      <trkpt lat="48.72993" lon="2.50343">
        <ele>92</ele>
        <time>2023-01-24T15:26:13.887Z</time>
      </trkpt>
      <trkpt lat="48.72986" lon="2.50343">
        <ele>92</ele>
        <time>2023-01-24T15:26:18.510Z</time>
      </trkpt>
      <trkpt lat="48.7298" lon="2.50345">
        <ele>92</ele>
        <time>2023-01-24T15:26:22.631Z</time>
      </trkpt>
      <trkpt lat="48.72974" lon="2.50346">
        <ele>92</ele>
        <time>2023-01-24T15:26:27.133Z</time>
      </trkpt>
      <trkpt lat="48.72969" lon="2.50345">
        <ele>92</ele>
        <time>2023-01-24T15:26:31.214Z</time>
      </trkpt>
      <trkpt lat="48.72963" lon="2.50344">
        <ele>92</ele>
        <time>2023-01-24T15:26:35.574Z</time>
      </trkpt>
      <trkpt lat="48.72958" lon="2.50344">
        <ele>92</ele>
        <time>2023-01-24T15:26:39.816Z</time>
      </trkpt>
      <trkpt lat="48.72952" lon="2.50344">
        <ele>92</ele>
        <time>2023-01-24T15:26:43.818Z</time>
      </trkpt>
      <trkpt lat="48.72948" lon="2.50344">
        <ele>92</ele>
        <time>2023-01-24T15:26:48.359Z</time>
      </trkpt>
      <trkpt lat="48.72942" lon="2.50343">
        <ele>92</ele>
        <time>2023-01-24T15:26:52.922Z</time>
      </trkpt>
      <trkpt lat="48.72935" lon="2.50341">
        <ele>92</ele>
        <time>2023-01-24T15:26:57.444Z</time>
      </trkpt>
      <trkpt lat="48.72931" lon="2.50342">
        <ele>92</ele>
        <time>2023-01-24T15:27:01.546Z</time>
      </trkpt>
      <trkpt lat="48.72926" lon="2.50343">
        <ele>95</ele>
        <time>2023-01-24T15:27:06.048Z</time>
      </trkpt>
      <trkpt lat="48.7292" lon="2.50342">
        <ele>95</ele>
        <time>2023-01-24T15:27:10.669Z</time>
      </trkpt>
      <trkpt lat="48.72915" lon="2.50342">
        <ele>95</ele>
        <time>2023-01-24T15:27:15.290Z</time>
      </trkpt>
      <trkpt lat="48.72909" lon="2.5034">
        <ele>95</ele>
        <time>2023-01-24T15:27:19.312Z</time>
      </trkpt>
      <trkpt lat="48.72902" lon="2.5034">
        <ele>98</ele>
        <time>2023-01-24T15:27:23.894Z</time>
      </trkpt>
      <trkpt lat="48.72895" lon="2.50341">
        <ele>98</ele>
        <time>2023-01-24T15:27:27.996Z</time>
      </trkpt>
      <trkpt lat="48.72889" lon="2.50342">
        <ele>98</ele>
        <time>2023-01-24T15:27:32.316Z</time>
      </trkpt>
      <trkpt lat="48.72882" lon="2.50343">
        <ele>98</ele>
        <time>2023-01-24T15:27:36.858Z</time>
      </trkpt>
      <trkpt lat="48.72877" lon="2.50345">
        <ele>98</ele>
        <time>2023-01-24T15:27:41.001Z</time>
      </trkpt>
      <trkpt lat="48.72871" lon="2.50347">
        <ele>100</ele>
        <time>2023-01-24T15:27:45.023Z</time>
      </trkpt>
      <trkpt lat="48.72864" lon="2.50349">
        <ele>100</ele>
        <time>2023-01-24T15:27:49.525Z</time>
      </trkpt>
      <trkpt lat="48.7286" lon="2.50348">
        <ele>100</ele>
        <time>2023-01-24T15:27:53.707Z</time>
      </trkpt>
      <trkpt lat="48.72853" lon="2.50346">
        <ele>100</ele>
        <time>2023-01-24T15:27:58.310Z</time>
      </trkpt>
      <trkpt lat="48.72847" lon="2.50345">
        <ele>100</ele>
        <time>2023-01-24T15:28:02.311Z</time>
      </trkpt>
      <trkpt lat="48.72841" lon="2.50344">
        <ele>100</ele>
        <time>2023-01-24T15:28:06.814Z</time>
      </trkpt>
      <trkpt lat="48.72834" lon="2.50345">
        <ele>100</ele>
        <time>2023-01-24T15:28:11.317Z</time>
      </trkpt>
      <trkpt lat="48.72828" lon="2.50345">
        <ele>100</ele>
        <time>2023-01-24T15:28:15.387Z</time>
      </trkpt>
      <trkpt lat="48.72821" lon="2.50346">
        <ele>100</ele>
        <time>2023-01-24T15:28:20.021Z</time>
      </trkpt>
      <trkpt lat="48.72815" lon="2.50347">
        <ele>99</ele>
        <time>2023-01-24T15:28:24.124Z</time>
      </trkpt>
      <trkpt lat="48.72808" lon="2.50348">
        <ele>99</ele>
        <time>2023-01-24T15:28:28.128Z</time>
      </trkpt>
      <trkpt lat="48.72802" lon="2.50348">
        <ele>99</ele>
        <time>2023-01-24T15:28:32.632Z</time>
      </trkpt>
      <trkpt lat="48.72796" lon="2.50348">
        <ele>99</ele>
        <time>2023-01-24T15:28:36.636Z</time>
      </trkpt>
      <trkpt lat="48.72789" lon="2.50348">
        <ele>100</ele>
        <time>2023-01-24T15:28:41.139Z</time>
      </trkpt>
      <trkpt lat="48.72783" lon="2.50349">
        <ele>100</ele>
        <time>2023-01-24T15:28:45.280Z</time>
      </trkpt>
      <trkpt lat="48.72777" lon="2.5035">
        <ele>100</ele>
        <time>2023-01-24T15:28:49.422Z</time>
      </trkpt>
      <trkpt lat="48.72772" lon="2.5035">
        <ele>100</ele>
        <time>2023-01-24T15:28:53.924Z</time>
      </trkpt>
      <trkpt lat="48.72766" lon="2.50353">
        <ele>100</ele>
        <time>2023-01-24T15:28:58.428Z</time>
      </trkpt>
      <trkpt lat="48.7276" lon="2.50355">
        <ele>102</ele>
        <time>2023-01-24T15:29:02.531Z</time>
      </trkpt>
      <trkpt lat="48.72753" lon="2.50356">
        <ele>102</ele>
        <time>2023-01-24T15:29:07.034Z</time>
      </trkpt>
      <trkpt lat="48.72745" lon="2.50357">
        <ele>102</ele>
        <time>2023-01-24T15:29:11.676Z</time>
      </trkpt>
      <trkpt lat="48.72739" lon="2.50358">
        <ele>102</ele>
        <time>2023-01-24T15:29:16.199Z</time>
      </trkpt>
      <trkpt lat="48.72732" lon="2.50358">
        <ele>104</ele>
        <time>2023-01-24T15:29:20.701Z</time>
      </trkpt>
      <trkpt lat="48.72726" lon="2.5036">
        <ele>104</ele>
        <time>2023-01-24T15:29:24.802Z</time>
      </trkpt>
      <trkpt lat="48.72719" lon="2.50361">
        <ele>104</ele>
        <time>2023-01-24T15:29:29.523Z</time>
      </trkpt>
      <trkpt lat="48.72714" lon="2.5036">
        <ele>104</ele>
        <time>2023-01-24T15:29:33.243Z</time>
      </trkpt>
      <trkpt lat="48.72709" lon="2.50359">
        <ele>104</ele>
        <time>2023-01-24T15:29:37.365Z</time>
      </trkpt>
      <trkpt lat="48.72704" lon="2.50359">
        <ele>107</ele>
        <time>2023-01-24T15:29:42.086Z</time>
      </trkpt>
      <trkpt lat="48.72699" lon="2.5036">
        <ele>107</ele>
        <time>2023-01-24T15:29:46.466Z</time>
      </trkpt>
      <trkpt lat="48.72694" lon="2.50362">
        <ele>107</ele>
        <time>2023-01-24T15:29:50.647Z</time>
      </trkpt>
      <trkpt lat="48.72688" lon="2.50365">
        <ele>107</ele>
        <time>2023-01-24T15:29:55.328Z</time>
      </trkpt>
      <trkpt lat="48.72682" lon="2.50367">
        <ele>107</ele>
        <time>2023-01-24T15:29:59.569Z</time>
      </trkpt>
      <trkpt lat="48.72676" lon="2.50367">
        <ele>108</ele>
        <time>2023-01-24T15:30:04.072Z</time>
      </trkpt>
      <trkpt lat="48.72669" lon="2.50367">
        <ele>108</ele>
        <time>2023-01-24T15:30:08.233Z</time>
      </trkpt>
      <trkpt lat="48.72663" lon="2.50367">
        <ele>108</ele>
        <time>2023-01-24T15:30:12.774Z</time>
      </trkpt>
      <trkpt lat="48.72656" lon="2.50368">
        <ele>108</ele>
        <time>2023-01-24T15:30:16.895Z</time>
      </trkpt>
      <trkpt lat="48.72648" lon="2.50372">
        <ele>109</ele>
        <time>2023-01-24T15:30:21.477Z</time>
      </trkpt>
      <trkpt lat="48.72642" lon="2.50376">
        <ele>110</ele>
        <time>2023-01-24T15:30:26.078Z</time>
      </trkpt>
      <trkpt lat="48.72635" lon="2.50377">
        <ele>110</ele>
        <time>2023-01-24T15:30:30.179Z</time>
      </trkpt>
      <trkpt lat="48.72626" lon="2.50378">
        <ele>110</ele>
        <time>2023-01-24T15:30:34.802Z</time>
      </trkpt>
      <trkpt lat="48.7262" lon="2.50379">
        <ele>110</ele>
        <time>2023-01-24T15:30:38.804Z</time>
      </trkpt>
      <trkpt lat="48.72616" lon="2.5038">
        <ele>110</ele>
        <time>2023-01-24T15:30:44.026Z</time>
      </trkpt>
      <trkpt lat="48.72616" lon="2.50379">
        <ele>110</ele>
        <time>2023-01-24T15:30:47.826Z</time>
      </trkpt>
      <trkpt lat="48.72614" lon="2.50379">
        <ele>110</ele>
        <time>2023-01-24T15:30:52.965Z</time>
      </trkpt>
      <trkpt lat="48.72612" lon="2.5038">
        <ele>110</ele>
        <time>2023-01-24T15:30:58.084Z</time>
      </trkpt>
      <trkpt lat="48.72608" lon="2.50386">
        <ele>110</ele>
        <time>2023-01-24T15:31:03.150Z</time>
      </trkpt>
      <trkpt lat="48.72608" lon="2.50389">
        <ele>110</ele>
        <time>2023-01-24T15:31:07.142Z</time>
      </trkpt>
      <trkpt lat="48.72606" lon="2.50391">
        <ele>110</ele>
        <time>2023-01-24T15:31:39.143Z</time>
      </trkpt>
      <trkpt lat="48.72605" lon="2.50389">
        <ele>110</ele>
        <time>2023-01-24T15:31:44.144Z</time>
      </trkpt>
      <trkpt lat="48.72603" lon="2.50385">
        <ele>110</ele>
        <time>2023-01-24T15:31:48.168Z</time>
      </trkpt>
      <trkpt lat="48.72601" lon="2.50379">
        <ele>110</ele>
        <time>2023-01-24T15:31:53.147Z</time>
      </trkpt>
      <trkpt lat="48.72599" lon="2.50374">
        <ele>109</ele>
        <time>2023-01-24T15:31:57.138Z</time>
      </trkpt>
      <trkpt lat="48.72596" lon="2.50368">
        <ele>107</ele>
        <time>2023-01-24T15:32:01.164Z</time>
      </trkpt>
      <trkpt lat="48.72596" lon="2.50362">
        <ele>107</ele>
        <time>2023-01-24T15:32:06.144Z</time>
      </trkpt>
      <trkpt lat="48.72596" lon="2.50356">
        <ele>107</ele>
        <time>2023-01-24T15:32:11.146Z</time>
      </trkpt>
      <trkpt lat="48.72594" lon="2.50349">
        <ele>107</ele>
        <time>2023-01-24T15:32:15.329Z</time>
      </trkpt>
      <trkpt lat="48.72592" lon="2.50341">
        <ele>106</ele>
        <time>2023-01-24T15:32:19.530Z</time>
      </trkpt>
      <trkpt lat="48.7259" lon="2.50337">
        <ele>106</ele>
        <time>2023-01-24T15:32:23.889Z</time>
      </trkpt>
      <trkpt lat="48.72588" lon="2.50333">
        <ele>106</ele>
        <time>2023-01-24T15:32:28.322Z</time>
      </trkpt>
      <trkpt lat="48.72586" lon="2.50326">
        <ele>106</ele>
        <time>2023-01-24T15:32:32.287Z</time>
      </trkpt>
      <trkpt lat="48.72583" lon="2.5032">
        <ele>106</ele>
        <time>2023-01-24T15:32:36.806Z</time>
      </trkpt>
      <trkpt lat="48.7258" lon="2.50314">
        <ele>106</ele>
        <time>2023-01-24T15:32:41.115Z</time>
      </trkpt>
      <trkpt lat="48.72579" lon="2.50309">
        <ele>106</ele>
        <time>2023-01-24T15:32:44.887Z</time>
      </trkpt>
      <trkpt lat="48.72577" lon="2.50305">
        <ele>106</ele>
        <time>2023-01-24T15:32:49.266Z</time>
      </trkpt>
      <trkpt lat="48.72573" lon="2.503">
        <ele>106</ele>
        <time>2023-01-24T15:32:53.669Z</time>
      </trkpt>
      <trkpt lat="48.72569" lon="2.50294">
        <ele>106</ele>
        <time>2023-01-24T15:32:57.665Z</time>
      </trkpt>
      <trkpt lat="48.72566" lon="2.50288">
        <ele>105</ele>
        <time>2023-01-24T15:33:01.866Z</time>
      </trkpt>
      <trkpt lat="48.72562" lon="2.50281">
        <ele>105</ele>
        <time>2023-01-24T15:33:06.246Z</time>
      </trkpt>
      <trkpt lat="48.72558" lon="2.50272">
        <ele>105</ele>
        <time>2023-01-24T15:33:10.666Z</time>
      </trkpt>
      <trkpt lat="48.72554" lon="2.50265">
        <ele>105</ele>
        <time>2023-01-24T15:33:14.946Z</time>
      </trkpt>
      <trkpt lat="48.7255" lon="2.50258">
        <ele>105</ele>
        <time>2023-01-24T15:33:19.226Z</time>
      </trkpt>
      <trkpt lat="48.72547" lon="2.50249">
        <ele>105</ele>
        <time>2023-01-24T15:33:23.706Z</time>
      </trkpt>
      <trkpt lat="48.72544" lon="2.5024">
        <ele>105</ele>
        <time>2023-01-24T15:33:28.066Z</time>
      </trkpt>
      <trkpt lat="48.72542" lon="2.50231">
        <ele>105</ele>
        <time>2023-01-24T15:33:32.327Z</time>
      </trkpt>
      <trkpt lat="48.72539" lon="2.50222">
        <ele>106</ele>
        <time>2023-01-24T15:33:36.266Z</time>
      </trkpt>
      <trkpt lat="48.72536" lon="2.50212">
        <ele>106</ele>
        <time>2023-01-24T15:33:40.387Z</time>
      </trkpt>
      <trkpt lat="48.72532" lon="2.50201">
        <ele>106</ele>
        <time>2023-01-24T15:33:45.088Z</time>
      </trkpt>
      <trkpt lat="48.72529" lon="2.50192">
        <ele>106</ele>
        <time>2023-01-24T15:33:48.668Z</time>
      </trkpt>
      <trkpt lat="48.72527" lon="2.50183">
        <ele>106</ele>
        <time>2023-01-24T15:33:53.309Z</time>
      </trkpt>
      <trkpt lat="48.72526" lon="2.50176">
        <ele>107</ele>
        <time>2023-01-24T15:33:57.991Z</time>
      </trkpt>
      <trkpt lat="48.72524" lon="2.50169">
        <ele>107</ele>
        <time>2023-01-24T15:34:02.461Z</time>
      </trkpt>
      <trkpt lat="48.72521" lon="2.50161">
        <ele>107</ele>
        <time>2023-01-24T15:34:06.842Z</time>
      </trkpt>
      <trkpt lat="48.72518" lon="2.50153">
        <ele>107</ele>
        <time>2023-01-24T15:34:11.160Z</time>
      </trkpt>
      <trkpt lat="48.72515" lon="2.50146">
        <ele>106</ele>
        <time>2023-01-24T15:34:15.490Z</time>
      </trkpt>
      <trkpt lat="48.72512" lon="2.5014">
        <ele>107</ele>
        <time>2023-01-24T15:34:19.494Z</time>
      </trkpt>
      <trkpt lat="48.72507" lon="2.50133">
        <ele>107</ele>
        <time>2023-01-24T15:34:24.289Z</time>
      </trkpt>
      <trkpt lat="48.72504" lon="2.50124">
        <ele>105</ele>
        <time>2023-01-24T15:34:28.339Z</time>
      </trkpt>
      <trkpt lat="48.72501" lon="2.50114">
        <ele>105</ele>
        <time>2023-01-24T15:34:32.987Z</time>
      </trkpt>
      <trkpt lat="48.72497" lon="2.50103">
        <ele>105</ele>
        <time>2023-01-24T15:34:37.121Z</time>
      </trkpt>
      <trkpt lat="48.72493" lon="2.50094">
        <ele>104</ele>
        <time>2023-01-24T15:34:41.222Z</time>
      </trkpt>
      <trkpt lat="48.72489" lon="2.50086">
        <ele>104</ele>
        <time>2023-01-24T15:34:45.903Z</time>
      </trkpt>
      <trkpt lat="48.72485" lon="2.50078">
        <ele>102</ele>
        <time>2023-01-24T15:34:50.343Z</time>
      </trkpt>
      <trkpt lat="48.72482" lon="2.5007">
        <ele>102</ele>
        <time>2023-01-24T15:34:54.587Z</time>
      </trkpt>
      <trkpt lat="48.7248" lon="2.50062">
        <ele>100</ele>
        <time>2023-01-24T15:34:58.864Z</time>
      </trkpt>
      <trkpt lat="48.72476" lon="2.50052">
        <ele>100</ele>
        <time>2023-01-24T15:35:03.631Z</time>
      </trkpt>
      <trkpt lat="48.72473" lon="2.50046">
        <ele>100</ele>
        <time>2023-01-24T15:35:07.387Z</time>
      </trkpt>
      <trkpt lat="48.72469" lon="2.50038">
        <ele>98</ele>
        <time>2023-01-24T15:35:11.527Z</time>
      </trkpt>
      <trkpt lat="48.72467" lon="2.50031">
        <ele>98</ele>
        <time>2023-01-24T15:35:16.240Z</time>
      </trkpt>
      <trkpt lat="48.72464" lon="2.50024">
        <ele>98</ele>
        <time>2023-01-24T15:35:20.344Z</time>
      </trkpt>
      <trkpt lat="48.72461" lon="2.50016">
        <ele>98</ele>
        <time>2023-01-24T15:35:24.434Z</time>
      </trkpt>
      <trkpt lat="48.72457" lon="2.50008">
        <ele>96</ele>
        <time>2023-01-24T15:35:28.938Z</time>
      </trkpt>
      <trkpt lat="48.72453" lon="2.5">
        <ele>96</ele>
        <time>2023-01-24T15:35:33.440Z</time>
      </trkpt>
      <trkpt lat="48.72449" lon="2.49994">
        <ele>96</ele>
        <time>2023-01-24T15:35:37.581Z</time>
      </trkpt>
      <trkpt lat="48.72444" lon="2.4999">
        <ele>96</ele>
        <time>2023-01-24T15:35:41.782Z</time>
      </trkpt>
      <trkpt lat="48.72438" lon="2.49989">
        <ele>96</ele>
        <time>2023-01-24T15:35:45.483Z</time>
      </trkpt>
      <trkpt lat="48.7243" lon="2.49986">
        <ele>95</ele>
        <time>2023-01-24T15:35:49.684Z</time>
      </trkpt>
      <trkpt lat="48.72425" lon="2.49983">
        <ele>93</ele>
        <time>2023-01-24T15:35:53.984Z</time>
      </trkpt>
      <trkpt lat="48.72419" lon="2.4998">
        <ele>93</ele>
        <time>2023-01-24T15:35:58.026Z</time>
      </trkpt>
      <trkpt lat="48.7241" lon="2.49977">
        <ele>93</ele>
        <time>2023-01-24T15:36:02.626Z</time>
      </trkpt>
      <trkpt lat="48.72403" lon="2.49976">
        <ele>93</ele>
        <time>2023-01-24T15:36:07.175Z</time>
      </trkpt>
      <trkpt lat="48.72396" lon="2.49974">
        <ele>93</ele>
        <time>2023-01-24T15:36:11.507Z</time>
      </trkpt>
      <trkpt lat="48.72389" lon="2.49972">
        <ele>93</ele>
        <time>2023-01-24T15:36:15.869Z</time>
      </trkpt>
      <trkpt lat="48.72382" lon="2.49972">
        <ele>93</ele>
        <time>2023-01-24T15:36:19.664Z</time>
      </trkpt>
      <trkpt lat="48.72374" lon="2.49973">
        <ele>94</ele>
        <time>2023-01-24T15:36:24.242Z</time>
      </trkpt>
      <trkpt lat="48.72367" lon="2.49972">
        <ele>94</ele>
        <time>2023-01-24T15:36:28.725Z</time>
      </trkpt>
      <trkpt lat="48.72359" lon="2.49973">
        <ele>94</ele>
        <time>2023-01-24T15:36:32.903Z</time>
      </trkpt>
      <trkpt lat="48.72353" lon="2.49968">
        <ele>94</ele>
        <time>2023-01-24T15:36:56.127Z</time>
      </trkpt>
      <trkpt lat="48.72352" lon="2.49964">
        <ele>94</ele>
        <time>2023-01-24T15:37:00.681Z</time>
      </trkpt>
      <trkpt lat="48.72352" lon="2.49954">
        <ele>93</ele>
        <time>2023-01-24T15:37:04.906Z</time>
      </trkpt>
      <trkpt lat="48.72351" lon="2.49946">
        <ele>93</ele>
        <time>2023-01-24T15:37:09.063Z</time>
      </trkpt>
      <trkpt lat="48.7235" lon="2.49941">
        <ele>93</ele>
        <time>2023-01-24T15:37:13.289Z</time>
      </trkpt>
      <trkpt lat="48.72347" lon="2.49931">
        <ele>93</ele>
        <time>2023-01-24T15:37:17.644Z</time>
      </trkpt>
      <trkpt lat="48.72345" lon="2.49924">
        <ele>93</ele>
        <time>2023-01-24T15:37:21.706Z</time>
      </trkpt>
      <trkpt lat="48.7234" lon="2.49915">
        <ele>93</ele>
        <time>2023-01-24T15:37:26.717Z</time>
      </trkpt>
      <trkpt lat="48.72336" lon="2.4991">
        <ele>93</ele>
        <time>2023-01-24T15:37:30.828Z</time>
      </trkpt>
      <trkpt lat="48.72329" lon="2.49906">
        <ele>93</ele>
        <time>2023-01-24T15:37:35.108Z</time>
      </trkpt>
      <trkpt lat="48.72323" lon="2.49905">
        <ele>93</ele>
        <time>2023-01-24T15:37:39.329Z</time>
      </trkpt>
      <trkpt lat="48.72315" lon="2.49907">
        <ele>92</ele>
        <time>2023-01-24T15:37:43.609Z</time>
      </trkpt>
      <trkpt lat="48.72309" lon="2.49906">
        <ele>92</ele>
        <time>2023-01-24T15:37:47.348Z</time>
      </trkpt>
      <trkpt lat="48.72303" lon="2.49903">
        <ele>92</ele>
        <time>2023-01-24T15:37:51.649Z</time>
      </trkpt>
      <trkpt lat="48.72296" lon="2.499">
        <ele>92</ele>
        <time>2023-01-24T15:37:55.963Z</time>
      </trkpt>
      <trkpt lat="48.7229" lon="2.49897">
        <ele>91</ele>
        <time>2023-01-24T15:38:00.050Z</time>
      </trkpt>
      <trkpt lat="48.72286" lon="2.49891">
        <ele>91</ele>
        <time>2023-01-24T15:38:04.182Z</time>
      </trkpt>
      <trkpt lat="48.72282" lon="2.49883">
        <ele>91</ele>
        <time>2023-01-24T15:38:08.465Z</time>
      </trkpt>
      <trkpt lat="48.72279" lon="2.49875">
        <ele>91</ele>
        <time>2023-01-24T15:38:12.785Z</time>
      </trkpt>
      <trkpt lat="48.72275" lon="2.49868">
        <ele>91</ele>
        <time>2023-01-24T15:38:17.089Z</time>
      </trkpt>
      <trkpt lat="48.72273" lon="2.49862">
        <ele>91</ele>
        <time>2023-01-24T15:38:20.844Z</time>
      </trkpt>
      <trkpt lat="48.7227" lon="2.49855">
        <ele>91</ele>
        <time>2023-01-24T15:38:25.065Z</time>
      </trkpt>
      <trkpt lat="48.72266" lon="2.49847">
        <ele>91</ele>
        <time>2023-01-24T15:38:29.387Z</time>
      </trkpt>
      <trkpt lat="48.72262" lon="2.4984">
        <ele>90</ele>
        <time>2023-01-24T15:38:33.825Z</time>
      </trkpt>
      <trkpt lat="48.72257" lon="2.49835">
        <ele>90</ele>
        <time>2023-01-24T15:38:38.246Z</time>
      </trkpt>
      <trkpt lat="48.72251" lon="2.49831">
        <ele>90</ele>
        <time>2023-01-24T15:38:42.608Z</time>
      </trkpt>
      <trkpt lat="48.72245" lon="2.49827">
        <ele>90</ele>
        <time>2023-01-24T15:38:46.744Z</time>
      </trkpt>
      <trkpt lat="48.7224" lon="2.49823">
        <ele>90</ele>
        <time>2023-01-24T15:38:50.746Z</time>
      </trkpt>
      <trkpt lat="48.72234" lon="2.4982">
        <ele>89</ele>
        <time>2023-01-24T15:38:55.449Z</time>
      </trkpt>
      <trkpt lat="48.72228" lon="2.49816">
        <ele>90</ele>
        <time>2023-01-24T15:38:59.451Z</time>
      </trkpt>
      <trkpt lat="48.72222" lon="2.49813">
        <ele>90</ele>
        <time>2023-01-24T15:39:03.953Z</time>
      </trkpt>
      <trkpt lat="48.72216" lon="2.4981">
        <ele>90</ele>
        <time>2023-01-24T15:39:07.955Z</time>
      </trkpt>
      <trkpt lat="48.72213" lon="2.49804">
        <ele>90</ele>
        <time>2023-01-24T15:39:11.997Z</time>
      </trkpt>
      <trkpt lat="48.72215" lon="2.49799">
        <ele>90</ele>
        <time>2023-01-24T15:39:17.020Z</time>
      </trkpt>
      <trkpt lat="48.72214" lon="2.49795">
        <ele>90</ele>
        <time>2023-01-24T15:39:21.261Z</time>
      </trkpt>
      <trkpt lat="48.72215" lon="2.49794">
        <ele>90</ele>
        <time>2023-01-24T15:39:25.363Z</time>
      </trkpt>
      <trkpt lat="48.72214" lon="2.49788">
        <ele>90</ele>
        <time>2023-01-24T15:39:29.865Z</time>
      </trkpt>
      <trkpt lat="48.72214" lon="2.49781">
        <ele>90</ele>
        <time>2023-01-24T15:39:34.146Z</time>
      </trkpt>
      <trkpt lat="48.72212" lon="2.49773">
        <ele>90</ele>
        <time>2023-01-24T15:39:38.347Z</time>
      </trkpt>
      <trkpt lat="48.72212" lon="2.49764">
        <ele>90</ele>
        <time>2023-01-24T15:39:42.468Z</time>
      </trkpt>
      <trkpt lat="48.72212" lon="2.49756">
        <ele>90</ele>
        <time>2023-01-24T15:39:46.649Z</time>
      </trkpt>
      <trkpt lat="48.72212" lon="2.49746">
        <ele>90</ele>
        <time>2023-01-24T15:39:51.250Z</time>
      </trkpt>
      <trkpt lat="48.72213" lon="2.49737">
        <ele>90</ele>
        <time>2023-01-24T15:39:55.774Z</time>
      </trkpt>
      <trkpt lat="48.72215" lon="2.49727">
        <ele>89</ele>
        <time>2023-01-24T15:40:00.634Z</time>
      </trkpt>
      <trkpt lat="48.72217" lon="2.49719">
        <ele>89</ele>
        <time>2023-01-24T15:40:04.594Z</time>
      </trkpt>
      <trkpt lat="48.72217" lon="2.49716">
        <ele>89</ele>
        <time>2023-01-24T15:40:09.014Z</time>
      </trkpt>
      <trkpt lat="48.72218" lon="2.49711">
        <ele>89</ele>
        <time>2023-01-24T15:40:12.774Z</time>
      </trkpt>
      <trkpt lat="48.72219" lon="2.49706">
        <ele>88</ele>
        <time>2023-01-24T15:40:17.153Z</time>
      </trkpt>
      <trkpt lat="48.72221" lon="2.49699">
        <ele>88</ele>
        <time>2023-01-24T15:40:21.753Z</time>
      </trkpt>
      <trkpt lat="48.7222" lon="2.49693">
        <ele>88</ele>
        <time>2023-01-24T15:40:26.414Z</time>
      </trkpt>
      <trkpt lat="48.72219" lon="2.49685">
        <ele>88</ele>
        <time>2023-01-24T15:40:30.714Z</time>
      </trkpt>
      <trkpt lat="48.72218" lon="2.49678">
        <ele>88</ele>
        <time>2023-01-24T15:40:34.716Z</time>
      </trkpt>
      <trkpt lat="48.72218" lon="2.4967">
        <ele>88</ele>
        <time>2023-01-24T15:40:39.219Z</time>
      </trkpt>
      <trkpt lat="48.72218" lon="2.49662">
        <ele>88</ele>
        <time>2023-01-24T15:40:43.222Z</time>
      </trkpt>
      <trkpt lat="48.72218" lon="2.49655">
        <ele>88</ele>
        <time>2023-01-24T15:40:47.726Z</time>
      </trkpt>
      <trkpt lat="48.72218" lon="2.49652">
        <ele>88</ele>
        <time>2023-01-24T15:40:51.728Z</time>
      </trkpt>
      <trkpt lat="48.72219" lon="2.49645">
        <ele>88</ele>
        <time>2023-01-24T15:40:55.770Z</time>
      </trkpt>
      <trkpt lat="48.72221" lon="2.49636">
        <ele>88</ele>
        <time>2023-01-24T15:40:59.852Z</time>
      </trkpt>
      <trkpt lat="48.7222" lon="2.49628">
        <ele>88</ele>
        <time>2023-01-24T15:41:04.356Z</time>
      </trkpt>
      <trkpt lat="48.7222" lon="2.49618">
        <ele>89</ele>
        <time>2023-01-24T15:41:08.358Z</time>
      </trkpt>
      <trkpt lat="48.72218" lon="2.4961">
        <ele>89</ele>
        <time>2023-01-24T15:41:12.519Z</time>
      </trkpt>
      <trkpt lat="48.72217" lon="2.49605">
        <ele>89</ele>
        <time>2023-01-24T15:41:16.699Z</time>
      </trkpt>
      <trkpt lat="48.7222" lon="2.496">
        <ele>89</ele>
        <time>2023-01-24T15:41:21.039Z</time>
      </trkpt>
      <trkpt lat="48.72222" lon="2.4959">
        <ele>89</ele>
        <time>2023-01-24T15:41:25.361Z</time>
      </trkpt>
      <trkpt lat="48.72222" lon="2.49581">
        <ele>89</ele>
        <time>2023-01-24T15:41:29.581Z</time>
      </trkpt>
      <trkpt lat="48.72223" lon="2.49575">
        <ele>89</ele>
        <time>2023-01-24T15:41:33.783Z</time>
      </trkpt>
      <trkpt lat="48.72224" lon="2.49566">
        <ele>90</ele>
        <time>2023-01-24T15:41:38.305Z</time>
      </trkpt>
      <trkpt lat="48.72226" lon="2.49559">
        <ele>90</ele>
        <time>2023-01-24T15:41:42.745Z</time>
      </trkpt>
      <trkpt lat="48.72227" lon="2.49551">
        <ele>90</ele>
        <time>2023-01-24T15:41:46.926Z</time>
      </trkpt>
      <trkpt lat="48.72227" lon="2.49543">
        <ele>90</ele>
        <time>2023-01-24T15:41:51.326Z</time>
      </trkpt>
      <trkpt lat="48.72226" lon="2.49535">
        <ele>92</ele>
        <time>2023-01-24T15:41:55.507Z</time>
      </trkpt>
      <trkpt lat="48.72226" lon="2.4953">
        <ele>92</ele>
        <time>2023-01-24T15:41:59.387Z</time>
      </trkpt>
      <trkpt lat="48.72226" lon="2.49522">
        <ele>92</ele>
        <time>2023-01-24T15:42:03.965Z</time>
      </trkpt>
      <trkpt lat="48.72226" lon="2.49513">
        <ele>92</ele>
        <time>2023-01-24T15:42:08.385Z</time>
      </trkpt>
      <trkpt lat="48.72227" lon="2.49505">
        <ele>92</ele>
        <time>2023-01-24T15:42:12.864Z</time>
      </trkpt>
      <trkpt lat="48.72228" lon="2.49499">
        <ele>92</ele>
        <time>2023-01-24T15:42:16.704Z</time>
      </trkpt>
      <trkpt lat="48.72229" lon="2.49491">
        <ele>92</ele>
        <time>2023-01-24T15:42:21.250Z</time>
      </trkpt>
      <trkpt lat="48.7223" lon="2.49484">
        <ele>93</ele>
        <time>2023-01-24T15:42:25.321Z</time>
      </trkpt>
      <trkpt lat="48.72231" lon="2.49478">
        <ele>93</ele>
        <time>2023-01-24T15:42:29.684Z</time>
      </trkpt>
      <trkpt lat="48.72231" lon="2.49472">
        <ele>93</ele>
        <time>2023-01-24T15:42:33.661Z</time>
      </trkpt>
      <trkpt lat="48.72231" lon="2.49465">
        <ele>93</ele>
        <time>2023-01-24T15:42:37.559Z</time>
      </trkpt>
      <trkpt lat="48.72231" lon="2.49457">
        <ele>94</ele>
        <time>2023-01-24T15:42:41.538Z</time>
      </trkpt>
      <trkpt lat="48.72232" lon="2.49448">
        <ele>94</ele>
        <time>2023-01-24T15:42:45.606Z</time>
      </trkpt>
      <trkpt lat="48.72233" lon="2.49441">
        <ele>94</ele>
        <time>2023-01-24T15:42:49.986Z</time>
      </trkpt>
      <trkpt lat="48.72234" lon="2.49434">
        <ele>94</ele>
        <time>2023-01-24T15:42:54.446Z</time>
      </trkpt>
      <trkpt lat="48.72236" lon="2.49425">
        <ele>96</ele>
        <time>2023-01-24T15:42:59.065Z</time>
      </trkpt>
      <trkpt lat="48.72236" lon="2.49415">
        <ele>96</ele>
        <time>2023-01-24T15:43:03.645Z</time>
      </trkpt>
      <trkpt lat="48.72235" lon="2.49405">
        <ele>96</ele>
        <time>2023-01-24T15:43:07.890Z</time>
      </trkpt>
      <trkpt lat="48.72236" lon="2.49395">
        <ele>96</ele>
        <time>2023-01-24T15:43:11.725Z</time>
      </trkpt>
      <trkpt lat="48.72236" lon="2.49384">
        <ele>94</ele>
        <time>2023-01-24T15:43:16.086Z</time>
      </trkpt>
      <trkpt lat="48.72235" lon="2.49372">
        <ele>96</ele>
        <time>2023-01-24T15:43:20.424Z</time>
      </trkpt>
      <trkpt lat="48.72233" lon="2.49362">
        <ele>96</ele>
        <time>2023-01-24T15:43:24.939Z</time>
      </trkpt>
      <trkpt lat="48.72232" lon="2.4935">
        <ele>96</ele>
        <time>2023-01-24T15:43:29.910Z</time>
      </trkpt>
      <trkpt lat="48.72232" lon="2.49341">
        <ele>95</ele>
        <time>2023-01-24T15:43:34.284Z</time>
      </trkpt>
      <trkpt lat="48.72233" lon="2.49334">
        <ele>95</ele>
        <time>2023-01-24T15:43:38.882Z</time>
      </trkpt>
      <trkpt lat="48.72233" lon="2.49326">
        <ele>95</ele>
        <time>2023-01-24T15:43:43.284Z</time>
      </trkpt>
      <trkpt lat="48.72233" lon="2.49318">
        <ele>94</ele>
        <time>2023-01-24T15:43:47.220Z</time>
      </trkpt>
      <trkpt lat="48.72233" lon="2.49309">
        <ele>94</ele>
        <time>2023-01-24T15:43:52.162Z</time>
      </trkpt>
      <trkpt lat="48.72234" lon="2.49301">
        <ele>94</ele>
        <time>2023-01-24T15:43:55.960Z</time>
      </trkpt>
      <trkpt lat="48.72235" lon="2.49292">
        <ele>94</ele>
        <time>2023-01-24T15:44:00.343Z</time>
      </trkpt>
      <trkpt lat="48.72237" lon="2.49283">
        <ele>95</ele>
        <time>2023-01-24T15:44:04.760Z</time>
      </trkpt>
      <trkpt lat="48.72237" lon="2.49274">
        <ele>95</ele>
        <time>2023-01-24T15:44:08.900Z</time>
      </trkpt>
      <trkpt lat="48.72237" lon="2.49264">
        <ele>95</ele>
        <time>2023-01-24T15:44:13.465Z</time>
      </trkpt>
      <trkpt lat="48.72238" lon="2.49256">
        <ele>95</ele>
        <time>2023-01-24T15:44:17.459Z</time>
      </trkpt>
      <trkpt lat="48.72239" lon="2.49246">
        <ele>95</ele>
        <time>2023-01-24T15:44:21.759Z</time>
      </trkpt>
      <trkpt lat="48.72239" lon="2.4924">
        <ele>95</ele>
        <time>2023-01-24T15:44:25.660Z</time>
      </trkpt>
      <trkpt lat="48.7224" lon="2.49234">
        <ele>96</ele>
        <time>2023-01-24T15:44:29.579Z</time>
      </trkpt>
      <trkpt lat="48.72241" lon="2.49229">
        <ele>96</ele>
        <time>2023-01-24T15:44:33.760Z</time>
      </trkpt>
      <trkpt lat="48.72241" lon="2.4922">
        <ele>96</ele>
        <time>2023-01-24T15:44:38.500Z</time>
      </trkpt>
      <trkpt lat="48.7224" lon="2.49213">
        <ele>96</ele>
        <time>2023-01-24T15:44:43.182Z</time>
      </trkpt>
      <trkpt lat="48.72237" lon="2.49202">
        <ele>97</ele>
        <time>2023-01-24T15:44:48.017Z</time>
      </trkpt>
      <trkpt lat="48.72235" lon="2.49191">
        <ele>97</ele>
        <time>2023-01-24T15:44:52.387Z</time>
      </trkpt>
      <trkpt lat="48.72234" lon="2.49181">
        <ele>97</ele>
        <time>2023-01-24T15:44:56.387Z</time>
      </trkpt>
      <trkpt lat="48.72233" lon="2.49171">
        <ele>96</ele>
        <time>2023-01-24T15:45:00.336Z</time>
      </trkpt>
      <trkpt lat="48.72233" lon="2.49161">
        <ele>96</ele>
        <time>2023-01-24T15:45:04.736Z</time>
      </trkpt>
      <trkpt lat="48.72232" lon="2.49152">
        <ele>96</ele>
        <time>2023-01-24T15:45:09.069Z</time>
      </trkpt>
      <trkpt lat="48.72231" lon="2.49142">
        <ele>96</ele>
        <time>2023-01-24T15:45:13.094Z</time>
      </trkpt>
      <trkpt lat="48.7223" lon="2.4913">
        <ele>96</ele>
        <time>2023-01-24T15:45:17.514Z</time>
      </trkpt>
      <trkpt lat="48.72229" lon="2.49119">
        <ele>95</ele>
        <time>2023-01-24T15:45:21.789Z</time>
      </trkpt>
      <trkpt lat="48.72226" lon="2.49104">
        <ele>95</ele>
        <time>2023-01-24T15:45:26.146Z</time>
      </trkpt>
      <trkpt lat="48.72226" lon="2.49093">
        <ele>93</ele>
        <time>2023-01-24T15:45:30.474Z</time>
      </trkpt>
      <trkpt lat="48.72226" lon="2.49084">
        <ele>93</ele>
        <time>2023-01-24T15:45:34.906Z</time>
      </trkpt>
      <trkpt lat="48.72226" lon="2.49074">
        <ele>93</ele>
        <time>2023-01-24T15:45:39.313Z</time>
      </trkpt>
      <trkpt lat="48.72225" lon="2.49064">
        <ele>93</ele>
        <time>2023-01-24T15:45:43.713Z</time>
      </trkpt>
      <trkpt lat="48.72225" lon="2.49054">
        <ele>93</ele>
        <time>2023-01-24T15:45:48.193Z</time>
      </trkpt>
      <trkpt lat="48.72226" lon="2.49045">
        <ele>93</ele>
        <time>2023-01-24T15:45:52.473Z</time>
      </trkpt>
      <trkpt lat="48.72226" lon="2.49039">
        <ele>93</ele>
        <time>2023-01-24T15:45:57.154Z</time>
      </trkpt>
      <trkpt lat="48.72224" lon="2.49031">
        <ele>93</ele>
        <time>2023-01-24T15:46:01.255Z</time>
      </trkpt>
      <trkpt lat="48.72224" lon="2.49021">
        <ele>93</ele>
        <time>2023-01-24T15:46:05.777Z</time>
      </trkpt>
      <trkpt lat="48.72225" lon="2.49012">
        <ele>95</ele>
        <time>2023-01-24T15:46:10.137Z</time>
      </trkpt>
      <trkpt lat="48.72225" lon="2.49003">
        <ele>95</ele>
        <time>2023-01-24T15:46:14.476Z</time>
      </trkpt>
      <trkpt lat="48.72225" lon="2.48994">
        <ele>95</ele>
        <time>2023-01-24T15:46:18.696Z</time>
      </trkpt>
      <trkpt lat="48.72225" lon="2.48986">
        <ele>95</ele>
        <time>2023-01-24T15:46:23.057Z</time>
      </trkpt>
      <trkpt lat="48.72224" lon="2.48977">
        <ele>95</ele>
        <time>2023-01-24T15:46:27.036Z</time>
      </trkpt>
      <trkpt lat="48.72225" lon="2.48959">
        <ele>95</ele>
        <time>2023-01-24T15:46:35.897Z</time>
      </trkpt>
      <trkpt lat="48.72224" lon="2.48956">
        <ele>95</ele>
        <time>2023-01-24T15:46:39.776Z</time>
      </trkpt>
      <trkpt lat="48.72224" lon="2.48955">
        <ele>95</ele>
        <time>2023-01-24T15:46:44.955Z</time>
      </trkpt>
      <trkpt lat="48.72223" lon="2.48954">
        <ele>95</ele>
        <time>2023-01-24T15:46:49.134Z</time>
      </trkpt>
      <trkpt lat="48.72222" lon="2.48951">
        <ele>95</ele>
        <time>2023-01-24T15:46:54.113Z</time>
      </trkpt>
      <trkpt lat="48.72218" lon="2.48943">
        <ele>95</ele>
        <time>2023-01-24T15:47:16.162Z</time>
      </trkpt>
      <trkpt lat="48.72218" lon="2.4894">
        <ele>95</ele>
        <time>2023-01-24T15:47:21.131Z</time>
      </trkpt>
      <trkpt lat="48.72218" lon="2.48939">
        <ele>95</ele>
        <time>2023-01-24T15:47:25.129Z</time>
      </trkpt>
      <trkpt lat="48.72218" lon="2.48937">
        <ele>95</ele>
        <time>2023-01-24T15:47:29.303Z</time>
      </trkpt>
      <trkpt lat="48.72213" lon="2.48932">
        <ele>95</ele>
        <time>2023-01-24T15:47:33.306Z</time>
      </trkpt>
      <trkpt lat="48.72208" lon="2.48928">
        <ele>95</ele>
        <time>2023-01-24T15:47:37.308Z</time>
      </trkpt>
      <trkpt lat="48.72204" lon="2.48924">
        <ele>96</ele>
        <time>2023-01-24T15:47:41.811Z</time>
      </trkpt>
      <trkpt lat="48.72201" lon="2.48919">
        <ele>96</ele>
        <time>2023-01-24T15:47:45.814Z</time>
      </trkpt>
      <trkpt lat="48.72198" lon="2.48915">
        <ele>96</ele>
        <time>2023-01-24T15:47:50.318Z</time>
      </trkpt>
      <trkpt lat="48.72194" lon="2.48912">
        <ele>96</ele>
        <time>2023-01-24T15:47:54.922Z</time>
      </trkpt>
      <trkpt lat="48.72189" lon="2.4891">
        <ele>96</ele>
        <time>2023-01-24T15:47:58.929Z</time>
      </trkpt>
      <trkpt lat="48.72185" lon="2.48909">
        <ele>96</ele>
        <time>2023-01-24T15:48:03.136Z</time>
      </trkpt>
      <trkpt lat="48.72182" lon="2.48907">
        <ele>96</ele>
        <time>2023-01-24T15:48:07.643Z</time>
      </trkpt>
      <trkpt lat="48.72178" lon="2.48898">
        <ele>97</ele>
        <time>2023-01-24T15:48:11.655Z</time>
      </trkpt>
      <trkpt lat="48.72174" lon="2.48894">
        <ele>97</ele>
        <time>2023-01-24T15:48:16.166Z</time>
      </trkpt>
      <trkpt lat="48.7217" lon="2.48892">
        <ele>97</ele>
        <time>2023-01-24T15:48:20.674Z</time>
      </trkpt>
      <trkpt lat="48.72168" lon="2.48888">
        <ele>97</ele>
        <time>2023-01-24T15:48:24.678Z</time>
      </trkpt>
      <trkpt lat="48.72162" lon="2.48883">
        <ele>97</ele>
        <time>2023-01-24T15:48:29.385Z</time>
      </trkpt>
      <trkpt lat="48.72158" lon="2.48876">
        <ele>97</ele>
        <time>2023-01-24T15:48:33.890Z</time>
      </trkpt>
      <trkpt lat="48.72153" lon="2.48872">
        <ele>97</ele>
        <time>2023-01-24T15:48:38.895Z</time>
      </trkpt>
      <trkpt lat="48.72149" lon="2.48874">
        <ele>98</ele>
        <time>2023-01-24T15:48:42.898Z</time>
      </trkpt>
      <trkpt lat="48.72143" lon="2.48876">
        <ele>98</ele>
        <time>2023-01-24T15:48:47.447Z</time>
      </trkpt>
      <trkpt lat="48.72138" lon="2.48878">
        <ele>98</ele>
        <time>2023-01-24T15:48:51.505Z</time>
      </trkpt>
      <trkpt lat="48.72134" lon="2.48878">
        <ele>98</ele>
        <time>2023-01-24T15:48:55.547Z</time>
      </trkpt>
      <trkpt lat="48.72129" lon="2.48877">
        <ele>98</ele>
        <time>2023-01-24T15:48:59.570Z</time>
      </trkpt>
      <trkpt lat="48.72122" lon="2.48878">
        <ele>97</ele>
        <time>2023-01-24T15:49:04.074Z</time>
      </trkpt>
      <trkpt lat="48.72116" lon="2.48878">
        <ele>97</ele>
        <time>2023-01-24T15:49:08.579Z</time>
      </trkpt>
      <trkpt lat="48.7211" lon="2.48877">
        <ele>97</ele>
        <time>2023-01-24T15:49:13.122Z</time>
      </trkpt>
      <trkpt lat="48.72104" lon="2.48876">
        <ele>97</ele>
        <time>2023-01-24T15:49:16.745Z</time>
      </trkpt>
      <trkpt lat="48.72097" lon="2.48875">
        <ele>95</ele>
        <time>2023-01-24T15:49:21.348Z</time>
      </trkpt>
      <trkpt lat="48.72091" lon="2.48875">
        <ele>95</ele>
        <time>2023-01-24T15:49:25.850Z</time>
      </trkpt>
      <trkpt lat="48.72085" lon="2.48875">
        <ele>95</ele>
        <time>2023-01-24T15:49:29.854Z</time>
      </trkpt>
      <trkpt lat="48.72079" lon="2.48874">
        <ele>95</ele>
        <time>2023-01-24T15:49:34.358Z</time>
      </trkpt>
      <trkpt lat="48.72073" lon="2.48871">
        <ele>95</ele>
        <time>2023-01-24T15:49:38.387Z</time>
      </trkpt>
      <trkpt lat="48.72068" lon="2.48869">
        <ele>92</ele>
        <time>2023-01-24T15:49:42.963Z</time>
      </trkpt>
      <trkpt lat="48.72064" lon="2.48869">
        <ele>92</ele>
        <time>2023-01-24T15:49:46.967Z</time>
      </trkpt>
      <trkpt lat="48.72061" lon="2.4887">
        <ele>92</ele>
        <time>2023-01-24T15:49:50.969Z</time>
      </trkpt>
      <trkpt lat="48.72057" lon="2.4887">
        <ele>92</ele>
        <time>2023-01-24T15:49:55.472Z</time>
      </trkpt>
      <trkpt lat="48.72052" lon="2.4887">
        <ele>92</ele>
        <time>2023-01-24T15:49:59.476Z</time>
      </trkpt>
      <trkpt lat="48.72047" lon="2.4887">
        <ele>92</ele>
        <time>2023-01-24T15:50:03.978Z</time>
      </trkpt>
      <trkpt lat="48.72041" lon="2.48869">
        <ele>91</ele>
        <time>2023-01-24T15:50:07.982Z</time>
      </trkpt>
      <trkpt lat="48.72036" lon="2.48867">
        <ele>91</ele>
        <time>2023-01-24T15:50:12.486Z</time>
      </trkpt>
      <trkpt lat="48.7203" lon="2.48866">
        <ele>91</ele>
        <time>2023-01-24T15:50:16.489Z</time>
      </trkpt>
      <trkpt lat="48.72024" lon="2.48866">
        <ele>91</ele>
        <time>2023-01-24T15:50:20.492Z</time>
      </trkpt>
      <trkpt lat="48.72018" lon="2.48864">
        <ele>91</ele>
        <time>2023-01-24T15:50:24.495Z</time>
      </trkpt>
      <trkpt lat="48.72012" lon="2.48861">
        <ele>88</ele>
        <time>2023-01-24T15:50:28.999Z</time>
      </trkpt>
      <trkpt lat="48.72006" lon="2.48858">
        <ele>88</ele>
        <time>2023-01-24T15:50:33.503Z</time>
      </trkpt>
      <trkpt lat="48.72" lon="2.48856">
        <ele>88</ele>
        <time>2023-01-24T15:50:37.505Z</time>
      </trkpt>
      <trkpt lat="48.71995" lon="2.48855">
        <ele>88</ele>
        <time>2023-01-24T15:50:42.009Z</time>
      </trkpt>
      <trkpt lat="48.7199" lon="2.48856">
        <ele>88</ele>
        <time>2023-01-24T15:50:46.015Z</time>
      </trkpt>
      <trkpt lat="48.71982" lon="2.48855">
        <ele>85</ele>
        <time>2023-01-24T15:50:50.518Z</time>
      </trkpt>
      <trkpt lat="48.71976" lon="2.48854">
        <ele>85</ele>
        <time>2023-01-24T15:50:54.521Z</time>
      </trkpt>
      <trkpt lat="48.71971" lon="2.4885">
        <ele>85</ele>
        <time>2023-01-24T15:50:59.127Z</time>
      </trkpt>
      <trkpt lat="48.71965" lon="2.4885">
        <ele>85</ele>
        <time>2023-01-24T15:51:03.632Z</time>
      </trkpt>
      <trkpt lat="48.71959" lon="2.4885">
        <ele>85</ele>
        <time>2023-01-24T15:51:07.635Z</time>
      </trkpt>
      <trkpt lat="48.71953" lon="2.4885">
        <ele>81</ele>
        <time>2023-01-24T15:51:12.140Z</time>
      </trkpt>
      <trkpt lat="48.71947" lon="2.4885">
        <ele>81</ele>
        <time>2023-01-24T15:51:16.694Z</time>
      </trkpt>
      <trkpt lat="48.7194" lon="2.4885">
        <ele>81</ele>
        <time>2023-01-24T15:51:21.241Z</time>
      </trkpt>
      <trkpt lat="48.71934" lon="2.48851">
        <ele>81</ele>
        <time>2023-01-24T15:51:25.320Z</time>
      </trkpt>
      <trkpt lat="48.71929" lon="2.48852">
        <ele>76</ele>
        <time>2023-01-24T15:51:29.323Z</time>
      </trkpt>
      <trkpt lat="48.71922" lon="2.48851">
        <ele>76</ele>
        <time>2023-01-24T15:51:33.826Z</time>
      </trkpt>
      <trkpt lat="48.71915" lon="2.48851">
        <ele>76</ele>
        <time>2023-01-24T15:51:37.830Z</time>
      </trkpt>
      <trkpt lat="48.71908" lon="2.48851">
        <ele>76</ele>
        <time>2023-01-24T15:51:42.555Z</time>
      </trkpt>
      <trkpt lat="48.71902" lon="2.4885">
        <ele>73</ele>
        <time>2023-01-24T15:51:46.558Z</time>
      </trkpt>
      <trkpt lat="48.71897" lon="2.4885">
        <ele>73</ele>
        <time>2023-01-24T15:51:51.261Z</time>
      </trkpt>
      <trkpt lat="48.71891" lon="2.48849">
        <ele>73</ele>
        <time>2023-01-24T15:51:55.769Z</time>
      </trkpt>
      <trkpt lat="48.71886" lon="2.48849">
        <ele>73</ele>
        <time>2023-01-24T15:51:59.972Z</time>
      </trkpt>
      <trkpt lat="48.71882" lon="2.4885">
        <ele>73</ele>
        <time>2023-01-24T15:52:03.976Z</time>
      </trkpt>
      <trkpt lat="48.71878" lon="2.48849">
        <ele>73</ele>
        <time>2023-01-24T15:52:08.480Z</time>
      </trkpt>
      <trkpt lat="48.71873" lon="2.48843">
        <ele>70</ele>
        <time>2023-01-24T15:52:12.486Z</time>
      </trkpt>
      <trkpt lat="48.71868" lon="2.48837">
        <ele>70</ele>
        <time>2023-01-24T15:52:16.991Z</time>
      </trkpt>
      <trkpt lat="48.71862" lon="2.48838">
        <ele>70</ele>
        <time>2023-01-24T15:52:20.995Z</time>
      </trkpt>
      <trkpt lat="48.71853" lon="2.48844">
        <ele>70</ele>
        <time>2023-01-24T15:52:25.598Z</time>
      </trkpt>
      <trkpt lat="48.71845" lon="2.48847">
        <ele>68</ele>
        <time>2023-01-24T15:52:29.703Z</time>
      </trkpt>
      <trkpt lat="48.71838" lon="2.48848">
        <ele>70</ele>
        <time>2023-01-24T15:52:34.387Z</time>
      </trkpt>
      <trkpt lat="48.71831" lon="2.48848">
        <ele>70</ele>
        <time>2023-01-24T15:52:38.411Z</time>
      </trkpt>
      <trkpt lat="48.71824" lon="2.48849">
        <ele>70</ele>
        <time>2023-01-24T15:52:42.916Z</time>
      </trkpt>
      <trkpt lat="48.71818" lon="2.48849">
        <ele>65</ele>
        <time>2023-01-24T15:52:46.921Z</time>
      </trkpt>
      <trkpt lat="48.71814" lon="2.48844">
        <ele>65</ele>
        <time>2023-01-24T15:52:51.528Z</time>
      </trkpt>
      <trkpt lat="48.71808" lon="2.48844">
        <ele>65</ele>
        <time>2023-01-24T15:52:56.032Z</time>
      </trkpt>
      <trkpt lat="48.71802" lon="2.48847">
        <ele>65</ele>
        <time>2023-01-24T15:53:00.075Z</time>
      </trkpt>
      <trkpt lat="48.71795" lon="2.4885">
        <ele>65</ele>
        <time>2023-01-24T15:53:04.079Z</time>
      </trkpt>
      <trkpt lat="48.71787" lon="2.48847">
        <ele>60</ele>
        <time>2023-01-24T15:53:09.084Z</time>
      </trkpt>
      <trkpt lat="48.71781" lon="2.48847">
        <ele>60</ele>
        <time>2023-01-24T15:53:13.590Z</time>
      </trkpt>
      <trkpt lat="48.71776" lon="2.48843">
        <ele>60</ele>
        <time>2023-01-24T15:53:17.595Z</time>
      </trkpt>
      <trkpt lat="48.7177" lon="2.48846">
        <ele>60</ele>
        <time>2023-01-24T15:53:21.701Z</time>
      </trkpt>
      <trkpt lat="48.71763" lon="2.48842">
        <ele>57</ele>
        <time>2023-01-24T15:53:26.809Z</time>
      </trkpt>
      <trkpt lat="48.71757" lon="2.48841">
        <ele>57</ele>
        <time>2023-01-24T15:53:30.816Z</time>
      </trkpt>
      <trkpt lat="48.71751" lon="2.48836">
        <ele>57</ele>
        <time>2023-01-24T15:53:35.020Z</time>
      </trkpt>
      <trkpt lat="48.71746" lon="2.48831">
        <ele>57</ele>
        <time>2023-01-24T15:53:39.024Z</time>
      </trkpt>
      <trkpt lat="48.71743" lon="2.48824">
        <ele>57</ele>
        <time>2023-01-24T15:53:43.528Z</time>
      </trkpt>
      <trkpt lat="48.71742" lon="2.48815">
        <ele>58</ele>
        <time>2023-01-24T15:53:47.533Z</time>
      </trkpt>
      <trkpt lat="48.71742" lon="2.48803">
        <ele>58</ele>
        <time>2023-01-24T15:53:52.039Z</time>
      </trkpt>
      <trkpt lat="48.71741" lon="2.48795">
        <ele>58</ele>
        <time>2023-01-24T15:53:56.547Z</time>
      </trkpt>
      <trkpt lat="48.7174" lon="2.48787">
        <ele>60</ele>
        <time>2023-01-24T15:54:01.158Z</time>
      </trkpt>
      <trkpt lat="48.71738" lon="2.4878">
        <ele>60</ele>
        <time>2023-01-24T15:54:05.360Z</time>
      </trkpt>
      <trkpt lat="48.71734" lon="2.48771">
        <ele>55</ele>
        <time>2023-01-24T15:54:09.969Z</time>
      </trkpt>
      <trkpt lat="48.71731" lon="2.48767">
        <ele>55</ele>
        <time>2023-01-24T15:54:14.071Z</time>
      </trkpt>
      <trkpt lat="48.71725" lon="2.48765">
        <ele>55</ele>
        <time>2023-01-24T15:54:18.590Z</time>
      </trkpt>
      <trkpt lat="48.71719" lon="2.48764">
        <ele>56</ele>
        <time>2023-01-24T15:54:22.599Z</time>
      </trkpt>
      <trkpt lat="48.71714" lon="2.4876">
        <ele>56</ele>
        <time>2023-01-24T15:54:26.608Z</time>
      </trkpt>
      <trkpt lat="48.71702" lon="2.4875">
        <ele>51</ele>
        <time>2023-01-24T15:55:16.146Z</time>
      </trkpt>
      <trkpt lat="48.71701" lon="2.48749">
        <ele>51</ele>
        <time>2023-01-24T15:55:21.140Z</time>
      </trkpt>
      <trkpt lat="48.71701" lon="2.48749">
        <ele>51</ele>
        <time>2023-01-24T15:55:26.154Z</time>
      </trkpt>
      <trkpt lat="48.717" lon="2.48749">
        <ele>51</ele>
        <time>2023-01-24T15:55:31.131Z</time>
      </trkpt>
      <trkpt lat="48.717" lon="2.48749">
        <ele>51</ele>
        <time>2023-01-24T15:55:36.153Z</time>
      </trkpt>
      <trkpt lat="48.71699" lon="2.48748">
        <ele>51</ele>
        <time>2023-01-24T15:56:08.132Z</time>
      </trkpt>
      <trkpt lat="48.71699" lon="2.48748">
        <ele>51</ele>
        <time>2023-01-24T15:56:13.130Z</time>
      </trkpt>
      <trkpt lat="48.71698" lon="2.48748">
        <ele>51</ele>
        <time>2023-01-24T15:56:17.144Z</time>
      </trkpt>
      <trkpt lat="48.71697" lon="2.48747">
        <ele>51</ele>
        <time>2023-01-24T15:56:22.145Z</time>
      </trkpt>
      <trkpt lat="48.71692" lon="2.48744">
        <ele>51</ele>
        <time>2023-01-24T15:56:26.443Z</time>
      </trkpt>
      <trkpt lat="48.71685" lon="2.48743">
        <ele>51</ele>
        <time>2023-01-24T15:56:30.446Z</time>
      </trkpt>
      <trkpt lat="48.7168" lon="2.48741">
        <ele>48</ele>
        <time>2023-01-24T15:56:34.448Z</time>
      </trkpt>
      <trkpt lat="48.71677" lon="2.48739">
        <ele>48</ele>
        <time>2023-01-24T15:56:38.551Z</time>
      </trkpt>
      <trkpt lat="48.71676" lon="2.48735">
        <ele>48</ele>
        <time>2023-01-24T15:56:43.154Z</time>
      </trkpt>
      <trkpt lat="48.71675" lon="2.4873">
        <ele>48</ele>
        <time>2023-01-24T15:56:47.159Z</time>
      </trkpt>
      <trkpt lat="48.71674" lon="2.48718">
        <ele>48</ele>
        <time>2023-01-24T15:56:51.163Z</time>
      </trkpt>
      <trkpt lat="48.71672" lon="2.48706">
        <ele>48</ele>
        <time>2023-01-24T15:56:55.166Z</time>
      </trkpt>
      <trkpt lat="48.71672" lon="2.48698">
        <ele>48</ele>
        <time>2023-01-24T15:56:59.671Z</time>
      </trkpt>
      <trkpt lat="48.71672" lon="2.48691">
        <ele>48</ele>
        <time>2023-01-24T15:57:03.676Z</time>
      </trkpt>
      <trkpt lat="48.71674" lon="2.48684">
        <ele>48</ele>
        <time>2023-01-24T15:57:08.196Z</time>
      </trkpt>
      <trkpt lat="48.71682" lon="2.48673">
        <ele>52</ele>
        <time>2023-01-24T15:57:12.341Z</time>
      </trkpt>
      <trkpt lat="48.71684" lon="2.48664">
        <ele>52</ele>
        <time>2023-01-24T15:57:16.343Z</time>
      </trkpt>
      <trkpt lat="48.71684" lon="2.48654">
        <ele>52</ele>
        <time>2023-01-24T15:57:20.846Z</time>
      </trkpt>
      <trkpt lat="48.71686" lon="2.48647">
        <ele>53</ele>
        <time>2023-01-24T15:57:24.856Z</time>
      </trkpt>
      <trkpt lat="48.71686" lon="2.48638">
        <ele>53</ele>
        <time>2023-01-24T15:57:29.367Z</time>
      </trkpt>
      <trkpt lat="48.71686" lon="2.48635">
        <ele>53</ele>
        <time>2023-01-24T15:57:33.476Z</time>
      </trkpt>
      <trkpt lat="48.71685" lon="2.48634">
        <ele>53</ele>
        <time>2023-01-24T15:57:37.983Z</time>
      </trkpt>
      <trkpt lat="48.71681" lon="2.48636">
        <ele>53</ele>
        <time>2023-01-24T15:57:42.087Z</time>
      </trkpt>
      <trkpt lat="48.71664" lon="2.48619">
        <ele>49</ele>
        <time>2023-01-24T15:57:46.604Z</time>
      </trkpt>
      <trkpt lat="48.71684" lon="2.48597">
        <ele>52</ele>
        <time>2023-01-24T15:57:50.697Z</time>
      </trkpt>
      <trkpt lat="48.71683" lon="2.48583">
        <ele>52</ele>
        <time>2023-01-24T15:57:55.200Z</time>
      </trkpt>
      <trkpt lat="48.71682" lon="2.48574">
        <ele>52</ele>
        <time>2023-01-24T15:57:59.322Z</time>
      </trkpt>
      <trkpt lat="48.71691" lon="2.48567">
        <ele>51</ele>
        <time>2023-01-24T15:58:03.847Z</time>
      </trkpt>
      <trkpt lat="48.71694" lon="2.4856">
        <ele>51</ele>
        <time>2023-01-24T15:58:08.069Z</time>
      </trkpt>
      <trkpt lat="48.71694" lon="2.4855">
        <ele>51</ele>
        <time>2023-01-24T15:58:12.166Z</time>
      </trkpt>
      <trkpt lat="48.71695" lon="2.48539">
        <ele>50</ele>
        <time>2023-01-24T15:58:16.447Z</time>
      </trkpt>
      <trkpt lat="48.71696" lon="2.4853">
        <ele>50</ele>
        <time>2023-01-24T15:58:20.529Z</time>
      </trkpt>
      <trkpt lat="48.71697" lon="2.48521">
        <ele>50</ele>
        <time>2023-01-24T15:58:25.343Z</time>
      </trkpt>
      <trkpt lat="48.717" lon="2.48511">
        <ele>48</ele>
        <time>2023-01-24T15:58:29.471Z</time>
      </trkpt>
      <trkpt lat="48.71702" lon="2.48503">
        <ele>48</ele>
        <time>2023-01-24T15:58:33.592Z</time>
      </trkpt>
      <trkpt lat="48.71701" lon="2.48493">
        <ele>48</ele>
        <time>2023-01-24T15:58:37.833Z</time>
      </trkpt>
      <trkpt lat="48.71697" lon="2.48485">
        <ele>48</ele>
        <time>2023-01-24T15:58:42.232Z</time>
      </trkpt>
      <trkpt lat="48.71696" lon="2.48474">
        <ele>48</ele>
        <time>2023-01-24T15:58:46.554Z</time>
      </trkpt>
      <trkpt lat="48.71696" lon="2.48463">
        <ele>48</ele>
        <time>2023-01-24T15:58:50.634Z</time>
      </trkpt>
      <trkpt lat="48.71694" lon="2.48447">
        <ele>47</ele>
        <time>2023-01-24T15:58:55.868Z</time>
      </trkpt>
      <trkpt lat="48.71695" lon="2.48439">
        <ele>47</ele>
        <time>2023-01-24T15:58:59.716Z</time>
      </trkpt>
      <trkpt lat="48.71693" lon="2.48435">
        <ele>47</ele>
        <time>2023-01-24T15:59:04.277Z</time>
      </trkpt>
      <trkpt lat="48.71693" lon="2.4843">
        <ele>47</ele>
        <time>2023-01-24T15:59:08.518Z</time>
      </trkpt>
      <trkpt lat="48.71695" lon="2.48422">
        <ele>47</ele>
        <time>2023-01-24T15:59:13.219Z</time>
      </trkpt>
      <trkpt lat="48.71697" lon="2.48413">
        <ele>47</ele>
        <time>2023-01-24T15:59:17.539Z</time>
      </trkpt>
      <trkpt lat="48.71697" lon="2.48402">
        <ele>47</ele>
        <time>2023-01-24T15:59:30.208Z</time>
      </trkpt>
      <trkpt lat="48.71698" lon="2.48398">
        <ele>47</ele>
        <time>2023-01-24T15:59:34.667Z</time>
      </trkpt>
      <trkpt lat="48.71698" lon="2.48389">
        <ele>47</ele>
        <time>2023-01-24T15:59:38.515Z</time>
      </trkpt>
      <trkpt lat="48.71699" lon="2.48379">
        <ele>47</ele>
        <time>2023-01-24T15:59:43.035Z</time>
      </trkpt>
      <trkpt lat="48.71699" lon="2.48372">
        <ele>48</ele>
        <time>2023-01-24T15:59:47.235Z</time>
      </trkpt>
      <trkpt lat="48.71699" lon="2.48363">
        <ele>48</ele>
        <time>2023-01-24T15:59:51.575Z</time>
      </trkpt>
      <trkpt lat="48.71697" lon="2.48355">
        <ele>48</ele>
        <time>2023-01-24T15:59:55.475Z</time>
      </trkpt>
      <trkpt lat="48.71695" lon="2.48344">
        <ele>49</ele>
        <time>2023-01-24T16:00:00.115Z</time>
      </trkpt>
      <trkpt lat="48.71694" lon="2.48336">
        <ele>49</ele>
        <time>2023-01-24T16:00:04.525Z</time>
      </trkpt>
      <trkpt lat="48.71693" lon="2.4833">
        <ele>49</ele>
        <time>2023-01-24T16:00:08.529Z</time>
      </trkpt>
      <trkpt lat="48.71694" lon="2.48324">
        <ele>49</ele>
        <time>2023-01-24T16:00:12.387Z</time>
      </trkpt>
      <trkpt lat="48.71694" lon="2.48315">
        <ele>50</ele>
        <time>2023-01-24T16:00:16.946Z</time>
      </trkpt>
      <trkpt lat="48.71693" lon="2.48308">
        <ele>50</ele>
        <time>2023-01-24T16:00:20.906Z</time>
      </trkpt>
      <trkpt lat="48.71693" lon="2.48301">
        <ele>50</ele>
        <time>2023-01-24T16:00:25.266Z</time>
      </trkpt>
      <trkpt lat="48.71694" lon="2.48292">
        <ele>50</ele>
        <time>2023-01-24T16:00:29.725Z</time>
      </trkpt>
      <trkpt lat="48.71696" lon="2.48285">
        <ele>50</ele>
        <time>2023-01-24T16:00:33.724Z</time>
      </trkpt>
      <trkpt lat="48.71697" lon="2.48277">
        <ele>50</ele>
        <time>2023-01-24T16:00:38.502Z</time>
      </trkpt>
      <trkpt lat="48.71698" lon="2.48269">
        <ele>50</ele>
        <time>2023-01-24T16:00:42.901Z</time>
      </trkpt>
      <trkpt lat="48.71697" lon="2.48261">
        <ele>50</ele>
        <time>2023-01-24T16:00:47.499Z</time>
      </trkpt>
      <trkpt lat="48.71696" lon="2.48253">
        <ele>50</ele>
        <time>2023-01-24T16:00:51.876Z</time>
      </trkpt>
      <trkpt lat="48.71698" lon="2.48245">
        <ele>50</ele>
        <time>2023-01-24T16:00:56.355Z</time>
      </trkpt>
      <trkpt lat="48.717" lon="2.48238">
        <ele>50</ele>
        <time>2023-01-24T16:01:00.634Z</time>
      </trkpt>
      <trkpt lat="48.71698" lon="2.48232">
        <ele>50</ele>
        <time>2023-01-24T16:01:04.315Z</time>
      </trkpt>
      <trkpt lat="48.71697" lon="2.48227">
        <ele>50</ele>
        <time>2023-01-24T16:01:08.776Z</time>
      </trkpt>
      <trkpt lat="48.71695" lon="2.48224">
        <ele>50</ele>
        <time>2023-01-24T16:01:13.154Z</time>
      </trkpt>
      <trkpt lat="48.71691" lon="2.48217">
        <ele>50</ele>
        <time>2023-01-24T16:01:17.013Z</time>
      </trkpt>
      <trkpt lat="48.71688" lon="2.48209">
        <ele>50</ele>
        <time>2023-01-24T16:01:21.491Z</time>
      </trkpt>
      <trkpt lat="48.71687" lon="2.48203">
        <ele>50</ele>
        <time>2023-01-24T16:01:25.331Z</time>
      </trkpt>
      <trkpt lat="48.71684" lon="2.48194">
        <ele>50</ele>
        <time>2023-01-24T16:01:29.651Z</time>
      </trkpt>
      <trkpt lat="48.71685" lon="2.48184">
        <ele>50</ele>
        <time>2023-01-24T16:01:33.469Z</time>
      </trkpt>
      <trkpt lat="48.71687" lon="2.48174">
        <ele>50</ele>
        <time>2023-01-24T16:01:37.548Z</time>
      </trkpt>
      <trkpt lat="48.71687" lon="2.48166">
        <ele>50</ele>
        <time>2023-01-24T16:01:42.106Z</time>
      </trkpt>
      <trkpt lat="48.71687" lon="2.48158">
        <ele>50</ele>
        <time>2023-01-24T16:01:46.506Z</time>
      </trkpt>
      <trkpt lat="48.71687" lon="2.4815">
        <ele>50</ele>
        <time>2023-01-24T16:01:50.826Z</time>
      </trkpt>
      <trkpt lat="48.71686" lon="2.48142">
        <ele>50</ele>
        <time>2023-01-24T16:01:54.908Z</time>
      </trkpt>
      <trkpt lat="48.71685" lon="2.48134">
        <ele>50</ele>
        <time>2023-01-24T16:01:59.030Z</time>
      </trkpt>
      <trkpt lat="48.71686" lon="2.48125">
        <ele>50</ele>
        <time>2023-01-24T16:02:03.270Z</time>
      </trkpt>
      <trkpt lat="48.71687" lon="2.48116">
        <ele>51</ele>
        <time>2023-01-24T16:02:07.550Z</time>
      </trkpt>
      <trkpt lat="48.71687" lon="2.48108">
        <ele>51</ele>
        <time>2023-01-24T16:02:12.053Z</time>
      </trkpt>
      <trkpt lat="48.71686" lon="2.48099">
        <ele>51</ele>
        <time>2023-01-24T16:02:16.555Z</time>
      </trkpt>
      <trkpt lat="48.71684" lon="2.48091">
        <ele>51</ele>
        <time>2023-01-24T16:02:20.712Z</time>
      </trkpt>
      <trkpt lat="48.71676" lon="2.48079">
        <ele>45</ele>
        <time>2023-01-24T16:02:24.853Z</time>
      </trkpt>
      <trkpt lat="48.71676" lon="2.48071">
        <ele>45</ele>
        <time>2023-01-24T16:02:29.554Z</time>
      </trkpt>
      <trkpt lat="48.71675" lon="2.48065">
        <ele>45</ele>
        <time>2023-01-24T16:02:33.475Z</time>
      </trkpt>
      <trkpt lat="48.71678" lon="2.48059">
        <ele>45</ele>
        <time>2023-01-24T16:02:37.996Z</time>
      </trkpt>
      <trkpt lat="48.7168" lon="2.48052">
        <ele>45</ele>
        <time>2023-01-24T16:02:42.496Z</time>
      </trkpt>
      <trkpt lat="48.71679" lon="2.48046">
        <ele>45</ele>
        <time>2023-01-24T16:02:46.677Z</time>
      </trkpt>
      <trkpt lat="48.71677" lon="2.48038">
        <ele>46</ele>
        <time>2023-01-24T16:02:51.617Z</time>
      </trkpt>
      <trkpt lat="48.71675" lon="2.48029">
        <ele>46</ele>
        <time>2023-01-24T16:02:56.016Z</time>
      </trkpt>
      <trkpt lat="48.71675" lon="2.4802">
        <ele>46</ele>
        <time>2023-01-24T16:03:00.409Z</time>
      </trkpt>
      <trkpt lat="48.71675" lon="2.48011">
        <ele>47</ele>
        <time>2023-01-24T16:03:04.715Z</time>
      </trkpt>
      <trkpt lat="48.71674" lon="2.48004">
        <ele>47</ele>
        <time>2023-01-24T16:03:08.455Z</time>
      </trkpt>
      <trkpt lat="48.71674" lon="2.47995">
        <ele>47</ele>
        <time>2023-01-24T16:03:12.914Z</time>
      </trkpt>
      <trkpt lat="48.71674" lon="2.47986">
        <ele>47</ele>
        <time>2023-01-24T16:03:16.674Z</time>
      </trkpt>
      <trkpt lat="48.71674" lon="2.47977">
        <ele>47</ele>
        <time>2023-01-24T16:03:21.415Z</time>
      </trkpt>
      <trkpt lat="48.71674" lon="2.47967">
        <ele>47</ele>
        <time>2023-01-24T16:03:25.814Z</time>
      </trkpt>
      <trkpt lat="48.71675" lon="2.47959">
        <ele>47</ele>
        <time>2023-01-24T16:03:30.094Z</time>
      </trkpt>
      <trkpt lat="48.71679" lon="2.47949">
        <ele>47</ele>
        <time>2023-01-24T16:03:34.387Z</time>
      </trkpt>
      <trkpt lat="48.71681" lon="2.47942">
        <ele>53</ele>
        <time>2023-01-24T16:03:38.595Z</time>
      </trkpt>
      <trkpt lat="48.71682" lon="2.47934">
        <ele>53</ele>
        <time>2023-01-24T16:03:42.737Z</time>
      </trkpt>
      <trkpt lat="48.71682" lon="2.47924">
        <ele>53</ele>
        <time>2023-01-24T16:03:46.957Z</time>
      </trkpt>
      <trkpt lat="48.7168" lon="2.47915">
        <ele>47</ele>
        <time>2023-01-24T16:03:50.737Z</time>
      </trkpt>
      <trkpt lat="48.71677" lon="2.47904">
        <ele>47</ele>
        <time>2023-01-24T16:03:55.678Z</time>
      </trkpt>
      <trkpt lat="48.71674" lon="2.47897">
        <ele>48</ele>
        <time>2023-01-24T16:03:59.958Z</time>
      </trkpt>
      <trkpt lat="48.71672" lon="2.4789">
        <ele>48</ele>
        <time>2023-01-24T16:04:04.599Z</time>
      </trkpt>
      <trkpt lat="48.7167" lon="2.47885">
        <ele>48</ele>
        <time>2023-01-24T16:04:08.760Z</time>
      </trkpt>
      <trkpt lat="48.71668" lon="2.47879">
        <ele>48</ele>
        <time>2023-01-24T16:04:12.861Z</time>
      </trkpt>
      <trkpt lat="48.71668" lon="2.47871">
        <ele>49</ele>
        <time>2023-01-24T16:04:17.082Z</time>
      </trkpt>
      <trkpt lat="48.71665" lon="2.47864">
        <ele>49</ele>
        <time>2023-01-24T16:04:21.306Z</time>
      </trkpt>
      <trkpt lat="48.71661" lon="2.47852">
        <ele>49</ele>
        <time>2023-01-24T16:04:29.281Z</time>
      </trkpt>
      <trkpt lat="48.7166" lon="2.4785">
        <ele>49</ele>
        <time>2023-01-24T16:04:33.938Z</time>
      </trkpt>
      <trkpt lat="48.7166" lon="2.47847">
        <ele>49</ele>
        <time>2023-01-24T16:04:38.936Z</time>
      </trkpt>
      <trkpt lat="48.71659" lon="2.47845">
        <ele>50</ele>
        <time>2023-01-24T16:04:43.941Z</time>
      </trkpt>
      <trkpt lat="48.71659" lon="2.47844">
        <ele>50</ele>
        <time>2023-01-24T16:04:48.122Z</time>
      </trkpt>
      <trkpt lat="48.71657" lon="2.47837">
        <ele>50</ele>
        <time>2023-01-24T16:05:16.829Z</time>
      </trkpt>
      <trkpt lat="48.71653" lon="2.47838">
        <ele>50</ele>
        <time>2023-01-24T16:05:20.950Z</time>
      </trkpt>
      <trkpt lat="48.71646" lon="2.47839">
        <ele>47</ele>
        <time>2023-01-24T16:05:25.625Z</time>
      </trkpt>
      <trkpt lat="48.71638" lon="2.47841">
        <ele>47</ele>
        <time>2023-01-24T16:05:29.852Z</time>
      </trkpt>
      <trkpt lat="48.71634" lon="2.47842">
        <ele>47</ele>
        <time>2023-01-24T16:05:34.093Z</time>
      </trkpt>
      <trkpt lat="48.71628" lon="2.47842">
        <ele>47</ele>
        <time>2023-01-24T16:05:38.294Z</time>
      </trkpt>
      <trkpt lat="48.71622" lon="2.47843">
        <ele>40</ele>
        <time>2023-01-24T16:05:42.534Z</time>
      </trkpt>
      <trkpt lat="48.71615" lon="2.47845">
        <ele>40</ele>
        <time>2023-01-24T16:05:46.874Z</time>
      </trkpt>
      <trkpt lat="48.71611" lon="2.47846">
        <ele>40</ele>
        <time>2023-01-24T16:05:51.155Z</time>
      </trkpt>
      <trkpt lat="48.71606" lon="2.47847">
        <ele>40</ele>
        <time>2023-01-24T16:05:55.777Z</time>
      </trkpt>
      <trkpt lat="48.71599" lon="2.47848">
        <ele>40</ele>
        <time>2023-01-24T16:06:00.338Z</time>
      </trkpt>
      <trkpt lat="48.71592" lon="2.4785">
        <ele>38</ele>
        <time>2023-01-24T16:06:04.639Z</time>
      </trkpt>
      <trkpt lat="48.71587" lon="2.47852">
        <ele>38</ele>
        <time>2023-01-24T16:06:08.979Z</time>
      </trkpt>
      <trkpt lat="48.71583" lon="2.47857">
        <ele>38</ele>
        <time>2023-01-24T16:06:58.520Z</time>
      </trkpt>
      <trkpt lat="48.71579" lon="2.47848">
        <ele>38</ele>
        <time>2023-01-24T16:07:02.653Z</time>
      </trkpt>
      <trkpt lat="48.71571" lon="2.47853">
        <ele>38</ele>
        <time>2023-01-24T16:07:06.834Z</time>
      </trkpt>
      <trkpt lat="48.71564" lon="2.47858">
        <ele>37</ele>
        <time>2023-01-24T16:07:11.336Z</time>
      </trkpt>
      <trkpt lat="48.71558" lon="2.47861">
        <ele>37</ele>
        <time>2023-01-24T16:07:15.939Z</time>
      </trkpt>
      <trkpt lat="48.71552" lon="2.47861">
        <ele>37</ele>
        <time>2023-01-24T16:07:19.943Z</time>
      </trkpt>
      <trkpt lat="48.71546" lon="2.47861">
        <ele>37</ele>
        <time>2023-01-24T16:07:24.448Z</time>
      </trkpt>
      <trkpt lat="48.7154" lon="2.47862">
        <ele>37</ele>
        <time>2023-01-24T16:07:28.451Z</time>
      </trkpt>
      <trkpt lat="48.71535" lon="2.47865">
        <ele>37</ele>
        <time>2023-01-24T16:07:32.454Z</time>
      </trkpt>
      <trkpt lat="48.71529" lon="2.47867">
        <ele>37</ele>
        <time>2023-01-24T16:07:36.957Z</time>
      </trkpt>
      <trkpt lat="48.71523" lon="2.47868">
        <ele>37</ele>
        <time>2023-01-24T16:07:41.459Z</time>
      </trkpt>
      <trkpt lat="48.71519" lon="2.47868">
        <ele>37</ele>
        <time>2023-01-24T16:07:45.962Z</time>
      </trkpt>
      <trkpt lat="48.71514" lon="2.4787">
        <ele>37</ele>
        <time>2023-01-24T16:07:50.465Z</time>
      </trkpt>
      <trkpt lat="48.71508" lon="2.4787">
        <ele>38</ele>
        <time>2023-01-24T16:07:54.968Z</time>
      </trkpt>
      <trkpt lat="48.71503" lon="2.4787">
        <ele>38</ele>
        <time>2023-01-24T16:07:59.971Z</time>
      </trkpt>
      <trkpt lat="48.71498" lon="2.47871">
        <ele>38</ele>
        <time>2023-01-24T16:08:04.592Z</time>
      </trkpt>
      <trkpt lat="48.71494" lon="2.47872">
        <ele>38</ele>
        <time>2023-01-24T16:08:09.098Z</time>
      </trkpt>
      <trkpt lat="48.71489" lon="2.47874">
        <ele>38</ele>
        <time>2023-01-24T16:08:13.101Z</time>
      </trkpt>
      <trkpt lat="48.71484" lon="2.47876">
        <ele>38</ele>
        <time>2023-01-24T16:08:17.123Z</time>
      </trkpt>
      <trkpt lat="48.71479" lon="2.47878">
        <ele>38</ele>
        <time>2023-01-24T16:08:21.724Z</time>
      </trkpt>
      <trkpt lat="48.71474" lon="2.47881">
        <ele>38</ele>
        <time>2023-01-24T16:08:25.730Z</time>
      </trkpt>
    </trkseg>
  </trk>
</gpx>